<?xml version="1.0" encoding="UTF-8" standalone="no" ?>
<gpx xmlns="http://www.topografix.com/GPX/1/1" xmlns:xsi="http://www.w3.org/2001/XMLSchema-instance" xsi:schemaLocation="http://www.topografix.com/GPX/1/1 http://www.topografix.com/GPX/1/1/gpx.xsd" version="1.1" creator="VisuGPX - https://www.visugpx.com">
  <metadata>
    <name>cherbourg la quinte</name>
  </metadata>
  <trk>
    <name><![CDATA[cherbourg la quinte]]></name>
    <extensions>
      <line xmlns="http://www.topografix.com/GPX/gpx_style/0/2">
        <color>0000FF</color>
        <width>4</width>
      </line>
    </extensions>
    <trkseg>
      <trkpt lat="49.63375" lon="-1.62146">
        <ele>4.75</ele>
        <time>2021-08-30T12:11:28.000Z</time>
      </trkpt>
      <trkpt lat="49.63356" lon="-1.61925">
        <ele>4.68</ele>
        <time>2021-08-30T12:11:28.023Z</time>
      </trkpt>
      <trkpt lat="49.63356" lon="-1.61925">
        <ele>4.68</ele>
        <time>2021-08-30T12:11:28.046Z</time>
      </trkpt>
      <trkpt lat="49.63345" lon="-1.61736">
        <ele>4.31</ele>
        <time>2021-08-30T12:11:28.089Z</time>
      </trkpt>
      <trkpt lat="49.63345" lon="-1.61736">
        <ele>4.31</ele>
        <time>2021-08-30T12:11:28.132Z</time>
      </trkpt>
      <trkpt lat="49.63371" lon="-1.61731">
        <ele>4.27</ele>
        <time>2021-08-30T12:11:28.179Z</time>
      </trkpt>
      <trkpt lat="49.63371" lon="-1.61731">
        <ele>4.27</ele>
        <time>2021-08-30T12:11:28.226Z</time>
      </trkpt>
      <trkpt lat="49.63377" lon="-1.61725">
        <ele>4.27</ele>
        <time>2021-08-30T12:11:28.274Z</time>
      </trkpt>
      <trkpt lat="49.63377" lon="-1.61725">
        <ele>4.27</ele>
        <time>2021-08-30T12:11:28.322Z</time>
      </trkpt>
      <trkpt lat="49.63411" lon="-1.61719">
        <ele>4.05</ele>
        <time>2021-08-30T12:11:28.376Z</time>
      </trkpt>
      <trkpt lat="49.63411" lon="-1.61719">
        <ele>4.05</ele>
        <time>2021-08-30T12:11:28.430Z</time>
      </trkpt>
      <trkpt lat="49.63461" lon="-1.61711">
        <ele>4.22</ele>
        <time>2021-08-30T12:11:28.492Z</time>
      </trkpt>
      <trkpt lat="49.63461" lon="-1.61711">
        <ele>4.22</ele>
        <time>2021-08-30T12:11:28.554Z</time>
      </trkpt>
      <trkpt lat="49.63474" lon="-1.61713">
        <ele>4.29</ele>
        <time>2021-08-30T12:11:28.618Z</time>
      </trkpt>
      <trkpt lat="49.63474" lon="-1.61713">
        <ele>4.29</ele>
        <time>2021-08-30T12:11:28.682Z</time>
      </trkpt>
      <trkpt lat="49.63635" lon="-1.61683">
        <ele>4.56</ele>
        <time>2021-08-30T12:11:28.772Z</time>
      </trkpt>
      <trkpt lat="49.63635" lon="-1.61683">
        <ele>4.56</ele>
        <time>2021-08-30T12:11:28.862Z</time>
      </trkpt>
      <trkpt lat="49.63882" lon="-1.61643">
        <ele>5.55</ele>
        <time>2021-08-30T12:11:28.992Z</time>
      </trkpt>
      <trkpt lat="49.63882" lon="-1.61643">
        <ele>5.55</ele>
        <time>2021-08-30T12:11:29.122Z</time>
      </trkpt>
      <trkpt lat="49.63955" lon="-1.61626">
        <ele>4.72</ele>
        <time>2021-08-30T12:11:29.263Z</time>
      </trkpt>
      <trkpt lat="49.63955" lon="-1.61626">
        <ele>4.72</ele>
        <time>2021-08-30T12:11:29.404Z</time>
      </trkpt>
      <trkpt lat="49.64141" lon="-1.61593">
        <ele>4.15</ele>
        <time>2021-08-30T12:11:29.575Z</time>
      </trkpt>
      <trkpt lat="49.64141" lon="-1.61593">
        <ele>4.15</ele>
        <time>2021-08-30T12:11:29.746Z</time>
      </trkpt>
      <trkpt lat="49.64199" lon="-1.6158">
        <ele>4</ele>
        <time>2021-08-30T12:11:29.927Z</time>
      </trkpt>
      <trkpt lat="49.64199" lon="-1.6158">
        <ele>4</ele>
        <time>2021-08-30T12:11:30.108Z</time>
      </trkpt>
      <trkpt lat="49.64218" lon="-1.61566">
        <ele>3.75</ele>
        <time>2021-08-30T12:11:30.292Z</time>
      </trkpt>
      <trkpt lat="49.64218" lon="-1.61566">
        <ele>3.75</ele>
        <time>2021-08-30T12:11:30.476Z</time>
      </trkpt>
      <trkpt lat="49.64221" lon="-1.61561">
        <ele>3.68</ele>
        <time>2021-08-30T12:11:30.661Z</time>
      </trkpt>
      <trkpt lat="49.64221" lon="-1.61561">
        <ele>3.68</ele>
        <time>2021-08-30T12:11:30.846Z</time>
      </trkpt>
      <trkpt lat="49.64221" lon="-1.61552">
        <ele>3.68</ele>
        <time>2021-08-30T12:11:31.032Z</time>
      </trkpt>
      <trkpt lat="49.64221" lon="-1.61552">
        <ele>3.68</ele>
        <time>2021-08-30T12:11:31.218Z</time>
      </trkpt>
      <trkpt lat="49.64226" lon="-1.61536">
        <ele>3.58</ele>
        <time>2021-08-30T12:11:31.406Z</time>
      </trkpt>
      <trkpt lat="49.64226" lon="-1.61536">
        <ele>3.58</ele>
        <time>2021-08-30T12:11:31.594Z</time>
      </trkpt>
      <trkpt lat="49.64236" lon="-1.61528">
        <ele>3.54</ele>
        <time>2021-08-30T12:11:31.784Z</time>
      </trkpt>
      <trkpt lat="49.64236" lon="-1.61528">
        <ele>3.54</ele>
        <time>2021-08-30T12:11:31.974Z</time>
      </trkpt>
      <trkpt lat="49.64248" lon="-1.61525">
        <ele>3.53</ele>
        <time>2021-08-30T12:11:32.165Z</time>
      </trkpt>
      <trkpt lat="49.64248" lon="-1.61525">
        <ele>3.53</ele>
        <time>2021-08-30T12:11:32.356Z</time>
      </trkpt>
      <trkpt lat="49.64251" lon="-1.61523">
        <ele>3.57</ele>
        <time>2021-08-30T12:11:32.548Z</time>
      </trkpt>
      <trkpt lat="49.64251" lon="-1.61523">
        <ele>3.57</ele>
        <time>2021-08-30T12:11:32.740Z</time>
      </trkpt>
      <trkpt lat="49.64262" lon="-1.6153">
        <ele>3.76</ele>
        <time>2021-08-30T12:11:32.934Z</time>
      </trkpt>
      <trkpt lat="49.64262" lon="-1.6153">
        <ele>3.76</ele>
        <time>2021-08-30T12:11:33.128Z</time>
      </trkpt>
      <trkpt lat="49.6427" lon="-1.61548">
        <ele>3.91</ele>
        <time>2021-08-30T12:11:33.324Z</time>
      </trkpt>
      <trkpt lat="49.6427" lon="-1.61548">
        <ele>3.91</ele>
        <time>2021-08-30T12:11:33.520Z</time>
      </trkpt>
      <trkpt lat="49.64272" lon="-1.61549">
        <ele>3.91</ele>
        <time>2021-08-30T12:11:33.716Z</time>
      </trkpt>
      <trkpt lat="49.64272" lon="-1.61549">
        <ele>3.91</ele>
        <time>2021-08-30T12:11:33.912Z</time>
      </trkpt>
      <trkpt lat="49.64273" lon="-1.61518">
        <ele>3.86</ele>
        <time>2021-08-30T12:11:34.112Z</time>
      </trkpt>
      <trkpt lat="49.64273" lon="-1.61518">
        <ele>3.86</ele>
        <time>2021-08-30T12:11:34.312Z</time>
      </trkpt>
      <trkpt lat="49.64271" lon="-1.61494">
        <ele>3.86</ele>
        <time>2021-08-30T12:11:34.514Z</time>
      </trkpt>
      <trkpt lat="49.64271" lon="-1.61494">
        <ele>3.86</ele>
        <time>2021-08-30T12:11:34.716Z</time>
      </trkpt>
      <trkpt lat="49.6425" lon="-1.61392">
        <ele>4.12</ele>
        <time>2021-08-30T12:11:34.929Z</time>
      </trkpt>
      <trkpt lat="49.6425" lon="-1.61392">
        <ele>4.12</ele>
        <time>2021-08-30T12:11:35.142Z</time>
      </trkpt>
      <trkpt lat="49.64242" lon="-1.61328">
        <ele>4.14</ele>
        <time>2021-08-30T12:11:35.362Z</time>
      </trkpt>
      <trkpt lat="49.64242" lon="-1.61328">
        <ele>4.14</ele>
        <time>2021-08-30T12:11:35.582Z</time>
      </trkpt>
      <trkpt lat="49.64265" lon="-1.60955">
        <ele>3.8</ele>
        <time>2021-08-30T12:11:35.841Z</time>
      </trkpt>
      <trkpt lat="49.64265" lon="-1.60955">
        <ele>3.8</ele>
        <time>2021-08-30T12:11:36.100Z</time>
      </trkpt>
      <trkpt lat="49.64281" lon="-1.60776">
        <ele>3.89</ele>
        <time>2021-08-30T12:11:36.378Z</time>
      </trkpt>
      <trkpt lat="49.64281" lon="-1.60776">
        <ele>3.89</ele>
        <time>2021-08-30T12:11:36.656Z</time>
      </trkpt>
      <trkpt lat="49.64307" lon="-1.60589">
        <ele>3.75</ele>
        <time>2021-08-30T12:11:36.954Z</time>
      </trkpt>
      <trkpt lat="49.64307" lon="-1.60589">
        <ele>3.75</ele>
        <time>2021-08-30T12:11:37.252Z</time>
      </trkpt>
      <trkpt lat="49.64322" lon="-1.60502">
        <ele>3.55</ele>
        <time>2021-08-30T12:11:37.559Z</time>
      </trkpt>
      <trkpt lat="49.64322" lon="-1.60502">
        <ele>3.55</ele>
        <time>2021-08-30T12:11:37.866Z</time>
      </trkpt>
      <trkpt lat="49.64341" lon="-1.6036">
        <ele>3.83</ele>
        <time>2021-08-30T12:11:38.188Z</time>
      </trkpt>
      <trkpt lat="49.64341" lon="-1.6036">
        <ele>3.83</ele>
        <time>2021-08-30T12:11:38.510Z</time>
      </trkpt>
      <trkpt lat="49.64344" lon="-1.60345">
        <ele>3.83</ele>
        <time>2021-08-30T12:11:38.834Z</time>
      </trkpt>
      <trkpt lat="49.64344" lon="-1.60345">
        <ele>3.83</ele>
        <time>2021-08-30T12:11:39.158Z</time>
      </trkpt>
      <trkpt lat="49.64351" lon="-1.60325">
        <ele>4.35</ele>
        <time>2021-08-30T12:11:39.484Z</time>
      </trkpt>
      <trkpt lat="49.64351" lon="-1.60325">
        <ele>4.35</ele>
        <time>2021-08-30T12:11:39.810Z</time>
      </trkpt>
      <trkpt lat="49.64348" lon="-1.60317">
        <ele>4.35</ele>
        <time>2021-08-30T12:11:40.137Z</time>
      </trkpt>
      <trkpt lat="49.64348" lon="-1.60317">
        <ele>4.35</ele>
        <time>2021-08-30T12:11:40.464Z</time>
      </trkpt>
      <trkpt lat="49.64343" lon="-1.60308">
        <ele>4.32</ele>
        <time>2021-08-30T12:11:40.792Z</time>
      </trkpt>
      <trkpt lat="49.64343" lon="-1.60308">
        <ele>4.32</ele>
        <time>2021-08-30T12:11:41.120Z</time>
      </trkpt>
      <trkpt lat="49.64343" lon="-1.60302">
        <ele>4.32</ele>
        <time>2021-08-30T12:11:41.449Z</time>
      </trkpt>
      <trkpt lat="49.64343" lon="-1.60302">
        <ele>4.32</ele>
        <time>2021-08-30T12:11:41.778Z</time>
      </trkpt>
      <trkpt lat="49.64346" lon="-1.60283">
        <ele>4.26</ele>
        <time>2021-08-30T12:11:42.109Z</time>
      </trkpt>
      <trkpt lat="49.64346" lon="-1.60283">
        <ele>4.26</ele>
        <time>2021-08-30T12:11:42.440Z</time>
      </trkpt>
      <trkpt lat="49.64365" lon="-1.60213">
        <ele>3.96</ele>
        <time>2021-08-30T12:11:42.779Z</time>
      </trkpt>
      <trkpt lat="49.64365" lon="-1.60213">
        <ele>3.96</ele>
        <time>2021-08-30T12:11:43.118Z</time>
      </trkpt>
      <trkpt lat="49.64371" lon="-1.60155">
        <ele>3.93</ele>
        <time>2021-08-30T12:11:43.463Z</time>
      </trkpt>
      <trkpt lat="49.64371" lon="-1.60155">
        <ele>3.93</ele>
        <time>2021-08-30T12:11:43.808Z</time>
      </trkpt>
      <trkpt lat="49.64432" lon="-1.59921">
        <ele>4.05</ele>
        <time>2021-08-30T12:11:44.179Z</time>
      </trkpt>
      <trkpt lat="49.64432" lon="-1.59921">
        <ele>4.05</ele>
        <time>2021-08-30T12:11:44.550Z</time>
      </trkpt>
      <trkpt lat="49.64442" lon="-1.59889">
        <ele>4.09</ele>
        <time>2021-08-30T12:11:44.925Z</time>
      </trkpt>
      <trkpt lat="49.64442" lon="-1.59889">
        <ele>4.09</ele>
        <time>2021-08-30T12:11:45.300Z</time>
      </trkpt>
      <trkpt lat="49.64456" lon="-1.59854">
        <ele>4.25</ele>
        <time>2021-08-30T12:11:45.679Z</time>
      </trkpt>
      <trkpt lat="49.64456" lon="-1.59854">
        <ele>4.25</ele>
        <time>2021-08-30T12:11:46.058Z</time>
      </trkpt>
      <trkpt lat="49.64604" lon="-1.59538">
        <ele>3.88</ele>
        <time>2021-08-30T12:11:46.478Z</time>
      </trkpt>
      <trkpt lat="49.64604" lon="-1.59538">
        <ele>3.88</ele>
        <time>2021-08-30T12:11:46.898Z</time>
      </trkpt>
      <trkpt lat="49.64682" lon="-1.59396">
        <ele>3.89</ele>
        <time>2021-08-30T12:11:47.337Z</time>
      </trkpt>
      <trkpt lat="49.64682" lon="-1.59396">
        <ele>3.89</ele>
        <time>2021-08-30T12:11:47.776Z</time>
      </trkpt>
      <trkpt lat="49.6475" lon="-1.59267">
        <ele>3.95</ele>
        <time>2021-08-30T12:11:48.232Z</time>
      </trkpt>
      <trkpt lat="49.6475" lon="-1.59267">
        <ele>3.95</ele>
        <time>2021-08-30T12:11:48.688Z</time>
      </trkpt>
      <trkpt lat="49.64753" lon="-1.59263">
        <ele>3.95</ele>
        <time>2021-08-30T12:11:49.145Z</time>
      </trkpt>
      <trkpt lat="49.64753" lon="-1.59263">
        <ele>3.95</ele>
        <time>2021-08-30T12:11:49.602Z</time>
      </trkpt>
      <trkpt lat="49.6476" lon="-1.59264">
        <ele>3.99</ele>
        <time>2021-08-30T12:11:50.060Z</time>
      </trkpt>
      <trkpt lat="49.6476" lon="-1.59264">
        <ele>3.99</ele>
        <time>2021-08-30T12:11:50.518Z</time>
      </trkpt>
      <trkpt lat="49.64762" lon="-1.5926">
        <ele>3.99</ele>
        <time>2021-08-30T12:11:50.977Z</time>
      </trkpt>
      <trkpt lat="49.64762" lon="-1.5926">
        <ele>3.99</ele>
        <time>2021-08-30T12:11:51.436Z</time>
      </trkpt>
      <trkpt lat="49.64785" lon="-1.59214">
        <ele>3.9</ele>
        <time>2021-08-30T12:11:51.901Z</time>
      </trkpt>
      <trkpt lat="49.64785" lon="-1.59214">
        <ele>3.9</ele>
        <time>2021-08-30T12:11:52.366Z</time>
      </trkpt>
      <trkpt lat="49.64795" lon="-1.59184">
        <ele>4.03</ele>
        <time>2021-08-30T12:11:52.834Z</time>
      </trkpt>
      <trkpt lat="49.64795" lon="-1.59184">
        <ele>4.03</ele>
        <time>2021-08-30T12:11:53.302Z</time>
      </trkpt>
      <trkpt lat="49.6479" lon="-1.59159">
        <ele>4.06</ele>
        <time>2021-08-30T12:11:53.773Z</time>
      </trkpt>
      <trkpt lat="49.6479" lon="-1.59159">
        <ele>4.06</ele>
        <time>2021-08-30T12:11:54.244Z</time>
      </trkpt>
      <trkpt lat="49.64787" lon="-1.59155">
        <ele>4.03</ele>
        <time>2021-08-30T12:11:54.716Z</time>
      </trkpt>
      <trkpt lat="49.64787" lon="-1.59155">
        <ele>4.03</ele>
        <time>2021-08-30T12:11:55.188Z</time>
      </trkpt>
      <trkpt lat="49.6477" lon="-1.5916">
        <ele>4.03</ele>
        <time>2021-08-30T12:11:55.662Z</time>
      </trkpt>
      <trkpt lat="49.6477" lon="-1.5916">
        <ele>4.03</ele>
        <time>2021-08-30T12:11:56.136Z</time>
      </trkpt>
      <trkpt lat="49.6475" lon="-1.59152">
        <ele>4.1</ele>
        <time>2021-08-30T12:11:56.614Z</time>
      </trkpt>
      <trkpt lat="49.6475" lon="-1.59152">
        <ele>4.1</ele>
        <time>2021-08-30T12:11:57.092Z</time>
      </trkpt>
      <trkpt lat="49.64743" lon="-1.59139">
        <ele>4.21</ele>
        <time>2021-08-30T12:11:57.571Z</time>
      </trkpt>
      <trkpt lat="49.64743" lon="-1.59139">
        <ele>4.21</ele>
        <time>2021-08-30T12:11:58.050Z</time>
      </trkpt>
      <trkpt lat="49.64745" lon="-1.59108">
        <ele>4.29</ele>
        <time>2021-08-30T12:11:58.533Z</time>
      </trkpt>
      <trkpt lat="49.64745" lon="-1.59108">
        <ele>4.29</ele>
        <time>2021-08-30T12:11:59.016Z</time>
      </trkpt>
      <trkpt lat="49.64769" lon="-1.59078">
        <ele>4.25</ele>
        <time>2021-08-30T12:11:59.504Z</time>
      </trkpt>
      <trkpt lat="49.64769" lon="-1.59078">
        <ele>4.25</ele>
        <time>2021-08-30T12:11:59.992Z</time>
      </trkpt>
      <trkpt lat="49.64785" lon="-1.59068">
        <ele>4.1</ele>
        <time>2021-08-30T12:12:00.482Z</time>
      </trkpt>
      <trkpt lat="49.64785" lon="-1.59068">
        <ele>4.1</ele>
        <time>2021-08-30T12:12:00.972Z</time>
      </trkpt>
      <trkpt lat="49.64874" lon="-1.58903">
        <ele>4.07</ele>
        <time>2021-08-30T12:12:01.485Z</time>
      </trkpt>
      <trkpt lat="49.64874" lon="-1.58903">
        <ele>4.07</ele>
        <time>2021-08-30T12:12:01.998Z</time>
      </trkpt>
      <trkpt lat="49.64885" lon="-1.58898">
        <ele>3.99</ele>
        <time>2021-08-30T12:12:02.513Z</time>
      </trkpt>
      <trkpt lat="49.64885" lon="-1.58898">
        <ele>3.99</ele>
        <time>2021-08-30T12:12:03.028Z</time>
      </trkpt>
      <trkpt lat="49.65013" lon="-1.586">
        <ele>3.92</ele>
        <time>2021-08-30T12:12:03.580Z</time>
      </trkpt>
      <trkpt lat="49.65013" lon="-1.586">
        <ele>3.92</ele>
        <time>2021-08-30T12:12:04.132Z</time>
      </trkpt>
      <trkpt lat="49.65015" lon="-1.58593">
        <ele>3.92</ele>
        <time>2021-08-30T12:12:04.684Z</time>
      </trkpt>
      <trkpt lat="49.65015" lon="-1.58593">
        <ele>3.92</ele>
        <time>2021-08-30T12:12:05.236Z</time>
      </trkpt>
      <trkpt lat="49.65081" lon="-1.58472">
        <ele>3.96</ele>
        <time>2021-08-30T12:12:05.805Z</time>
      </trkpt>
      <trkpt lat="49.65081" lon="-1.58472">
        <ele>3.96</ele>
        <time>2021-08-30T12:12:06.374Z</time>
      </trkpt>
      <trkpt lat="49.65111" lon="-1.58406">
        <ele>3.77</ele>
        <time>2021-08-30T12:12:06.951Z</time>
      </trkpt>
      <trkpt lat="49.65111" lon="-1.58406">
        <ele>3.77</ele>
        <time>2021-08-30T12:12:07.528Z</time>
      </trkpt>
      <trkpt lat="49.65121" lon="-1.58397">
        <ele>3.77</ele>
        <time>2021-08-30T12:12:08.107Z</time>
      </trkpt>
      <trkpt lat="49.65121" lon="-1.58397">
        <ele>3.77</ele>
        <time>2021-08-30T12:12:08.686Z</time>
      </trkpt>
      <trkpt lat="49.65134" lon="-1.58373">
        <ele>3.62</ele>
        <time>2021-08-30T12:12:09.268Z</time>
      </trkpt>
      <trkpt lat="49.65134" lon="-1.58373">
        <ele>3.62</ele>
        <time>2021-08-30T12:12:09.850Z</time>
      </trkpt>
      <trkpt lat="49.65187" lon="-1.58262">
        <ele>3.72</ele>
        <time>2021-08-30T12:12:10.447Z</time>
      </trkpt>
      <trkpt lat="49.65187" lon="-1.58262">
        <ele>3.72</ele>
        <time>2021-08-30T12:12:11.044Z</time>
      </trkpt>
      <trkpt lat="49.65191" lon="-1.58245">
        <ele>3.72</ele>
        <time>2021-08-30T12:12:11.643Z</time>
      </trkpt>
      <trkpt lat="49.65191" lon="-1.58245">
        <ele>3.72</ele>
        <time>2021-08-30T12:12:12.242Z</time>
      </trkpt>
      <trkpt lat="49.65204" lon="-1.5821">
        <ele>3.8</ele>
        <time>2021-08-30T12:12:12.845Z</time>
      </trkpt>
      <trkpt lat="49.65204" lon="-1.5821">
        <ele>3.8</ele>
        <time>2021-08-30T12:12:13.448Z</time>
      </trkpt>
      <trkpt lat="49.65213" lon="-1.58162">
        <ele>3.79</ele>
        <time>2021-08-30T12:12:14.056Z</time>
      </trkpt>
      <trkpt lat="49.65213" lon="-1.58162">
        <ele>3.79</ele>
        <time>2021-08-30T12:12:14.664Z</time>
      </trkpt>
      <trkpt lat="49.65221" lon="-1.58078">
        <ele>3.86</ele>
        <time>2021-08-30T12:12:15.281Z</time>
      </trkpt>
      <trkpt lat="49.65221" lon="-1.58078">
        <ele>3.86</ele>
        <time>2021-08-30T12:12:15.898Z</time>
      </trkpt>
      <trkpt lat="49.65239" lon="-1.58055">
        <ele>3.63</ele>
        <time>2021-08-30T12:12:16.519Z</time>
      </trkpt>
      <trkpt lat="49.65239" lon="-1.58055">
        <ele>3.63</ele>
        <time>2021-08-30T12:12:17.140Z</time>
      </trkpt>
      <trkpt lat="49.65239" lon="-1.58044">
        <ele>3.63</ele>
        <time>2021-08-30T12:12:17.762Z</time>
      </trkpt>
      <trkpt lat="49.65239" lon="-1.58044">
        <ele>3.63</ele>
        <time>2021-08-30T12:12:18.384Z</time>
      </trkpt>
      <trkpt lat="49.65235" lon="-1.58028">
        <ele>3.41</ele>
        <time>2021-08-30T12:12:19.008Z</time>
      </trkpt>
      <trkpt lat="49.65235" lon="-1.58028">
        <ele>3.41</ele>
        <time>2021-08-30T12:12:19.632Z</time>
      </trkpt>
      <trkpt lat="49.6523" lon="-1.58021">
        <ele>3.35</ele>
        <time>2021-08-30T12:12:20.257Z</time>
      </trkpt>
      <trkpt lat="49.6523" lon="-1.58021">
        <ele>3.35</ele>
        <time>2021-08-30T12:12:20.882Z</time>
      </trkpt>
      <trkpt lat="49.65221" lon="-1.57994">
        <ele>3.22</ele>
        <time>2021-08-30T12:12:21.510Z</time>
      </trkpt>
      <trkpt lat="49.65221" lon="-1.57994">
        <ele>3.22</ele>
        <time>2021-08-30T12:12:22.138Z</time>
      </trkpt>
      <trkpt lat="49.65252" lon="-1.57793">
        <ele>3.46</ele>
        <time>2021-08-30T12:12:22.787Z</time>
      </trkpt>
      <trkpt lat="49.65252" lon="-1.57793">
        <ele>3.46</ele>
        <time>2021-08-30T12:12:23.436Z</time>
      </trkpt>
      <trkpt lat="49.65263" lon="-1.57668">
        <ele>3.2</ele>
        <time>2021-08-30T12:12:24.098Z</time>
      </trkpt>
      <trkpt lat="49.65263" lon="-1.57668">
        <ele>3.2</ele>
        <time>2021-08-30T12:12:24.760Z</time>
      </trkpt>
      <trkpt lat="49.65272" lon="-1.57522">
        <ele>3.02</ele>
        <time>2021-08-30T12:12:25.438Z</time>
      </trkpt>
      <trkpt lat="49.65272" lon="-1.57522">
        <ele>3.02</ele>
        <time>2021-08-30T12:12:26.116Z</time>
      </trkpt>
      <trkpt lat="49.65276" lon="-1.57339">
        <ele>3.05</ele>
        <time>2021-08-30T12:12:26.813Z</time>
      </trkpt>
      <trkpt lat="49.65276" lon="-1.57339">
        <ele>3.05</ele>
        <time>2021-08-30T12:12:27.510Z</time>
      </trkpt>
      <trkpt lat="49.65308" lon="-1.57126">
        <ele>3.02</ele>
        <time>2021-08-30T12:12:28.229Z</time>
      </trkpt>
      <trkpt lat="49.65308" lon="-1.57126">
        <ele>3.02</ele>
        <time>2021-08-30T12:12:28.948Z</time>
      </trkpt>
      <trkpt lat="49.65327" lon="-1.56979">
        <ele>3.11</ele>
        <time>2021-08-30T12:12:29.683Z</time>
      </trkpt>
      <trkpt lat="49.65327" lon="-1.56979">
        <ele>3.11</ele>
        <time>2021-08-30T12:12:30.418Z</time>
      </trkpt>
      <trkpt lat="49.65397" lon="-1.56618">
        <ele>3.26</ele>
        <time>2021-08-30T12:12:31.192Z</time>
      </trkpt>
      <trkpt lat="49.65397" lon="-1.56618">
        <ele>3.26</ele>
        <time>2021-08-30T12:12:31.966Z</time>
      </trkpt>
      <trkpt lat="49.65401" lon="-1.56577">
        <ele>3.17</ele>
        <time>2021-08-30T12:12:32.744Z</time>
      </trkpt>
      <trkpt lat="49.65401" lon="-1.56577">
        <ele>3.17</ele>
        <time>2021-08-30T12:12:33.522Z</time>
      </trkpt>
      <trkpt lat="49.65399" lon="-1.56527">
        <ele>3.16</ele>
        <time>2021-08-30T12:12:34.306Z</time>
      </trkpt>
      <trkpt lat="49.65399" lon="-1.56527">
        <ele>3.16</ele>
        <time>2021-08-30T12:12:35.090Z</time>
      </trkpt>
      <trkpt lat="49.65385" lon="-1.56323">
        <ele>3.56</ele>
        <time>2021-08-30T12:12:35.895Z</time>
      </trkpt>
      <trkpt lat="49.65385" lon="-1.56323">
        <ele>3.56</ele>
        <time>2021-08-30T12:12:36.700Z</time>
      </trkpt>
      <trkpt lat="49.65372" lon="-1.56281">
        <ele>3.82</ele>
        <time>2021-08-30T12:12:37.510Z</time>
      </trkpt>
      <trkpt lat="49.65372" lon="-1.56281">
        <ele>3.82</ele>
        <time>2021-08-30T12:12:38.320Z</time>
      </trkpt>
      <trkpt lat="49.65333" lon="-1.562">
        <ele>4.22</ele>
        <time>2021-08-30T12:12:39.140Z</time>
      </trkpt>
      <trkpt lat="49.65333" lon="-1.562">
        <ele>4.22</ele>
        <time>2021-08-30T12:12:39.960Z</time>
      </trkpt>
      <trkpt lat="49.65322" lon="-1.56163">
        <ele>4.36</ele>
        <time>2021-08-30T12:12:40.785Z</time>
      </trkpt>
      <trkpt lat="49.65322" lon="-1.56163">
        <ele>4.36</ele>
        <time>2021-08-30T12:12:41.610Z</time>
      </trkpt>
      <trkpt lat="49.65318" lon="-1.56133">
        <ele>4.36</ele>
        <time>2021-08-30T12:12:42.438Z</time>
      </trkpt>
      <trkpt lat="49.65318" lon="-1.56133">
        <ele>4.36</ele>
        <time>2021-08-30T12:12:43.266Z</time>
      </trkpt>
      <trkpt lat="49.65316" lon="-1.56102">
        <ele>4.84</ele>
        <time>2021-08-30T12:12:44.097Z</time>
      </trkpt>
      <trkpt lat="49.65316" lon="-1.56102">
        <ele>4.84</ele>
        <time>2021-08-30T12:12:44.928Z</time>
      </trkpt>
      <trkpt lat="49.65321" lon="-1.55948">
        <ele>5.86</ele>
        <time>2021-08-30T12:12:45.775Z</time>
      </trkpt>
      <trkpt lat="49.65321" lon="-1.55948">
        <ele>5.86</ele>
        <time>2021-08-30T12:12:46.622Z</time>
      </trkpt>
      <trkpt lat="49.65269" lon="-1.55936">
        <ele>6.9</ele>
        <time>2021-08-30T12:12:47.477Z</time>
      </trkpt>
      <trkpt lat="49.65269" lon="-1.55936">
        <ele>6.9</ele>
        <time>2021-08-30T12:12:48.332Z</time>
      </trkpt>
      <trkpt lat="49.65256" lon="-1.55928">
        <ele>7.25</ele>
        <time>2021-08-30T12:12:49.190Z</time>
      </trkpt>
      <trkpt lat="49.65256" lon="-1.55928">
        <ele>7.25</ele>
        <time>2021-08-30T12:12:50.048Z</time>
      </trkpt>
      <trkpt lat="49.65214" lon="-1.55912">
        <ele>8.7</ele>
        <time>2021-08-30T12:12:50.913Z</time>
      </trkpt>
      <trkpt lat="49.65214" lon="-1.55912">
        <ele>8.7</ele>
        <time>2021-08-30T12:12:51.778Z</time>
      </trkpt>
      <trkpt lat="49.65166" lon="-1.55876">
        <ele>11.5</ele>
        <time>2021-08-30T12:12:52.651Z</time>
      </trkpt>
      <trkpt lat="49.65166" lon="-1.55876">
        <ele>11.5</ele>
        <time>2021-08-30T12:12:53.524Z</time>
      </trkpt>
      <trkpt lat="49.65183" lon="-1.5578">
        <ele>11.61</ele>
        <time>2021-08-30T12:12:54.407Z</time>
      </trkpt>
      <trkpt lat="49.65183" lon="-1.5578">
        <ele>11.61</ele>
        <time>2021-08-30T12:12:55.290Z</time>
      </trkpt>
      <trkpt lat="49.65189" lon="-1.55722">
        <ele>11.82</ele>
        <time>2021-08-30T12:12:56.180Z</time>
      </trkpt>
      <trkpt lat="49.65189" lon="-1.55722">
        <ele>11.82</ele>
        <time>2021-08-30T12:12:57.070Z</time>
      </trkpt>
      <trkpt lat="49.6519" lon="-1.55662">
        <ele>12.21</ele>
        <time>2021-08-30T12:12:57.966Z</time>
      </trkpt>
      <trkpt lat="49.6519" lon="-1.55662">
        <ele>12.21</ele>
        <time>2021-08-30T12:12:58.862Z</time>
      </trkpt>
      <trkpt lat="49.65189" lon="-1.55577">
        <ele>12.56</ele>
        <time>2021-08-30T12:12:59.767Z</time>
      </trkpt>
      <trkpt lat="49.65189" lon="-1.55577">
        <ele>12.56</ele>
        <time>2021-08-30T12:13:00.672Z</time>
      </trkpt>
      <trkpt lat="49.6519" lon="-1.55554">
        <ele>12.71</ele>
        <time>2021-08-30T12:13:01.579Z</time>
      </trkpt>
      <trkpt lat="49.6519" lon="-1.55554">
        <ele>12.71</ele>
        <time>2021-08-30T12:13:02.486Z</time>
      </trkpt>
      <trkpt lat="49.65194" lon="-1.55531">
        <ele>12.78</ele>
        <time>2021-08-30T12:13:03.396Z</time>
      </trkpt>
      <trkpt lat="49.65194" lon="-1.55531">
        <ele>12.78</ele>
        <time>2021-08-30T12:13:04.306Z</time>
      </trkpt>
      <trkpt lat="49.65218" lon="-1.55469">
        <ele>12.6</ele>
        <time>2021-08-30T12:13:05.223Z</time>
      </trkpt>
      <trkpt lat="49.65218" lon="-1.55469">
        <ele>12.6</ele>
        <time>2021-08-30T12:13:06.140Z</time>
      </trkpt>
      <trkpt lat="49.65279" lon="-1.55332">
        <ele>11.53</ele>
        <time>2021-08-30T12:13:07.074Z</time>
      </trkpt>
      <trkpt lat="49.65279" lon="-1.55332">
        <ele>11.53</ele>
        <time>2021-08-30T12:13:08.008Z</time>
      </trkpt>
      <trkpt lat="49.65291" lon="-1.55295">
        <ele>10.84</ele>
        <time>2021-08-30T12:13:08.947Z</time>
      </trkpt>
      <trkpt lat="49.65291" lon="-1.55295">
        <ele>10.84</ele>
        <time>2021-08-30T12:13:09.886Z</time>
      </trkpt>
      <trkpt lat="49.65297" lon="-1.55229">
        <ele>10.51</ele>
        <time>2021-08-30T12:13:10.832Z</time>
      </trkpt>
      <trkpt lat="49.65297" lon="-1.55229">
        <ele>10.51</ele>
        <time>2021-08-30T12:13:11.778Z</time>
      </trkpt>
      <trkpt lat="49.65319" lon="-1.54891">
        <ele>6.79</ele>
        <time>2021-08-30T12:13:12.759Z</time>
      </trkpt>
      <trkpt lat="49.65319" lon="-1.54891">
        <ele>6.79</ele>
        <time>2021-08-30T12:13:13.740Z</time>
      </trkpt>
      <trkpt lat="49.65324" lon="-1.54818">
        <ele>6.39</ele>
        <time>2021-08-30T12:13:14.729Z</time>
      </trkpt>
      <trkpt lat="49.65324" lon="-1.54818">
        <ele>6.39</ele>
        <time>2021-08-30T12:13:15.718Z</time>
      </trkpt>
      <trkpt lat="49.65324" lon="-1.54755">
        <ele>6.14</ele>
        <time>2021-08-30T12:13:16.713Z</time>
      </trkpt>
      <trkpt lat="49.65324" lon="-1.54755">
        <ele>6.14</ele>
        <time>2021-08-30T12:13:17.708Z</time>
      </trkpt>
      <trkpt lat="49.65343" lon="-1.54534">
        <ele>6.17</ele>
        <time>2021-08-30T12:13:18.726Z</time>
      </trkpt>
      <trkpt lat="49.65343" lon="-1.54534">
        <ele>6.17</ele>
        <time>2021-08-30T12:13:19.744Z</time>
      </trkpt>
      <trkpt lat="49.65366" lon="-1.5418">
        <ele>8.37</ele>
        <time>2021-08-30T12:13:20.799Z</time>
      </trkpt>
      <trkpt lat="49.65366" lon="-1.5418">
        <ele>8.37</ele>
        <time>2021-08-30T12:13:21.854Z</time>
      </trkpt>
      <trkpt lat="49.65352" lon="-1.54007">
        <ele>15.59</ele>
        <time>2021-08-30T12:13:22.927Z</time>
      </trkpt>
      <trkpt lat="49.65352" lon="-1.54007">
        <ele>15.59</ele>
        <time>2021-08-30T12:13:24.000Z</time>
      </trkpt>
      <trkpt lat="49.65349" lon="-1.5394">
        <ele>17.88</ele>
        <time>2021-08-30T12:13:25.080Z</time>
      </trkpt>
      <trkpt lat="49.65349" lon="-1.5394">
        <ele>17.88</ele>
        <time>2021-08-30T12:13:26.160Z</time>
      </trkpt>
      <trkpt lat="49.65352" lon="-1.53866">
        <ele>21.18</ele>
        <time>2021-08-30T12:13:27.248Z</time>
      </trkpt>
      <trkpt lat="49.65352" lon="-1.53866">
        <ele>21.18</ele>
        <time>2021-08-30T12:13:28.336Z</time>
      </trkpt>
      <trkpt lat="49.65361" lon="-1.53766">
        <ele>23.43</ele>
        <time>2021-08-30T12:13:29.435Z</time>
      </trkpt>
      <trkpt lat="49.65361" lon="-1.53766">
        <ele>23.43</ele>
        <time>2021-08-30T12:13:30.534Z</time>
      </trkpt>
      <trkpt lat="49.65372" lon="-1.53486">
        <ele>22.3</ele>
        <time>2021-08-30T12:13:31.662Z</time>
      </trkpt>
      <trkpt lat="49.65372" lon="-1.53486">
        <ele>22.3</ele>
        <time>2021-08-30T12:13:32.790Z</time>
      </trkpt>
      <trkpt lat="49.6537" lon="-1.53407">
        <ele>20.32</ele>
        <time>2021-08-30T12:13:33.926Z</time>
      </trkpt>
      <trkpt lat="49.6537" lon="-1.53407">
        <ele>20.32</ele>
        <time>2021-08-30T12:13:35.062Z</time>
      </trkpt>
      <trkpt lat="49.65363" lon="-1.53271">
        <ele>18.16</ele>
        <time>2021-08-30T12:13:36.212Z</time>
      </trkpt>
      <trkpt lat="49.65363" lon="-1.53271">
        <ele>18.16</ele>
        <time>2021-08-30T12:13:37.362Z</time>
      </trkpt>
      <trkpt lat="49.65361" lon="-1.53174">
        <ele>15.77</ele>
        <time>2021-08-30T12:13:38.522Z</time>
      </trkpt>
      <trkpt lat="49.65361" lon="-1.53174">
        <ele>15.77</ele>
        <time>2021-08-30T12:13:39.682Z</time>
      </trkpt>
      <trkpt lat="49.65363" lon="-1.53156">
        <ele>15.77</ele>
        <time>2021-08-30T12:13:40.844Z</time>
      </trkpt>
      <trkpt lat="49.65363" lon="-1.53156">
        <ele>15.77</ele>
        <time>2021-08-30T12:13:42.006Z</time>
      </trkpt>
      <trkpt lat="49.65379" lon="-1.53088">
        <ele>14.5</ele>
        <time>2021-08-30T12:13:43.176Z</time>
      </trkpt>
      <trkpt lat="49.65379" lon="-1.53088">
        <ele>14.5</ele>
        <time>2021-08-30T12:13:44.346Z</time>
      </trkpt>
      <trkpt lat="49.65449" lon="-1.53003">
        <ele>13.43</ele>
        <time>2021-08-30T12:13:45.530Z</time>
      </trkpt>
      <trkpt lat="49.65449" lon="-1.53003">
        <ele>13.43</ele>
        <time>2021-08-30T12:13:46.714Z</time>
      </trkpt>
      <trkpt lat="49.65458" lon="-1.52986">
        <ele>13.46</ele>
        <time>2021-08-30T12:13:47.900Z</time>
      </trkpt>
      <trkpt lat="49.65458" lon="-1.52986">
        <ele>13.46</ele>
        <time>2021-08-30T12:13:49.086Z</time>
      </trkpt>
      <trkpt lat="49.65464" lon="-1.52967">
        <ele>13.46</ele>
        <time>2021-08-30T12:13:50.274Z</time>
      </trkpt>
      <trkpt lat="49.65464" lon="-1.52967">
        <ele>13.46</ele>
        <time>2021-08-30T12:13:51.462Z</time>
      </trkpt>
      <trkpt lat="49.6568" lon="-1.52082">
        <ele>8.54</ele>
        <time>2021-08-30T12:13:52.749Z</time>
      </trkpt>
      <trkpt lat="49.6568" lon="-1.52082">
        <ele>8.54</ele>
        <time>2021-08-30T12:13:54.036Z</time>
      </trkpt>
      <trkpt lat="49.65705" lon="-1.51989">
        <ele>9.11</ele>
        <time>2021-08-30T12:13:55.333Z</time>
      </trkpt>
      <trkpt lat="49.65705" lon="-1.51989">
        <ele>9.11</ele>
        <time>2021-08-30T12:13:56.630Z</time>
      </trkpt>
      <trkpt lat="49.66071" lon="-1.50904">
        <ele>8.97</ele>
        <time>2021-08-30T12:13:58.054Z</time>
      </trkpt>
      <trkpt lat="49.66071" lon="-1.50904">
        <ele>8.97</ele>
        <time>2021-08-30T12:13:59.478Z</time>
      </trkpt>
      <trkpt lat="49.66121" lon="-1.50726">
        <ele>10.93</ele>
        <time>2021-08-30T12:14:00.922Z</time>
      </trkpt>
      <trkpt lat="49.66121" lon="-1.50726">
        <ele>10.93</ele>
        <time>2021-08-30T12:14:02.366Z</time>
      </trkpt>
      <trkpt lat="49.66137" lon="-1.50688">
        <ele>11.32</ele>
        <time>2021-08-30T12:14:03.815Z</time>
      </trkpt>
      <trkpt lat="49.66137" lon="-1.50688">
        <ele>11.32</ele>
        <time>2021-08-30T12:14:05.264Z</time>
      </trkpt>
      <trkpt lat="49.66441" lon="-1.50085">
        <ele>17.79</ele>
        <time>2021-08-30T12:14:06.793Z</time>
      </trkpt>
      <trkpt lat="49.66441" lon="-1.50085">
        <ele>17.79</ele>
        <time>2021-08-30T12:14:08.322Z</time>
      </trkpt>
      <trkpt lat="49.66461" lon="-1.50031">
        <ele>18.57</ele>
        <time>2021-08-30T12:14:09.857Z</time>
      </trkpt>
      <trkpt lat="49.66461" lon="-1.50031">
        <ele>18.57</ele>
        <time>2021-08-30T12:14:11.392Z</time>
      </trkpt>
      <trkpt lat="49.66461" lon="-1.50033">
        <ele>18.57</ele>
        <time>2021-08-30T12:14:12.927Z</time>
      </trkpt>
      <trkpt lat="49.66461" lon="-1.50033">
        <ele>18.57</ele>
        <time>2021-08-30T12:14:14.462Z</time>
      </trkpt>
      <trkpt lat="49.66469" lon="-1.50012">
        <ele>18.8</ele>
        <time>2021-08-30T12:14:16.000Z</time>
      </trkpt>
      <trkpt lat="49.66469" lon="-1.50012">
        <ele>18.8</ele>
        <time>2021-08-30T12:14:17.538Z</time>
      </trkpt>
      <trkpt lat="49.66484" lon="-1.4995">
        <ele>19.5</ele>
        <time>2021-08-30T12:14:19.083Z</time>
      </trkpt>
      <trkpt lat="49.66484" lon="-1.4995">
        <ele>19.5</ele>
        <time>2021-08-30T12:14:20.628Z</time>
      </trkpt>
      <trkpt lat="49.66507" lon="-1.49819">
        <ele>21.2</ele>
        <time>2021-08-30T12:14:22.187Z</time>
      </trkpt>
      <trkpt lat="49.66507" lon="-1.49819">
        <ele>21.2</ele>
        <time>2021-08-30T12:14:23.746Z</time>
      </trkpt>
      <trkpt lat="49.66522" lon="-1.49763">
        <ele>21.59</ele>
        <time>2021-08-30T12:14:25.311Z</time>
      </trkpt>
      <trkpt lat="49.66522" lon="-1.49763">
        <ele>21.59</ele>
        <time>2021-08-30T12:14:26.876Z</time>
      </trkpt>
      <trkpt lat="49.66545" lon="-1.49709">
        <ele>21.69</ele>
        <time>2021-08-30T12:14:28.448Z</time>
      </trkpt>
      <trkpt lat="49.66545" lon="-1.49709">
        <ele>21.69</ele>
        <time>2021-08-30T12:14:30.020Z</time>
      </trkpt>
      <trkpt lat="49.66582" lon="-1.49645">
        <ele>21.26</ele>
        <time>2021-08-30T12:14:31.601Z</time>
      </trkpt>
      <trkpt lat="49.66582" lon="-1.49645">
        <ele>21.26</ele>
        <time>2021-08-30T12:14:33.182Z</time>
      </trkpt>
      <trkpt lat="49.66624" lon="-1.49598">
        <ele>20.64</ele>
        <time>2021-08-30T12:14:34.771Z</time>
      </trkpt>
      <trkpt lat="49.66624" lon="-1.49598">
        <ele>20.64</ele>
        <time>2021-08-30T12:14:36.360Z</time>
      </trkpt>
      <trkpt lat="49.66651" lon="-1.49577">
        <ele>20.38</ele>
        <time>2021-08-30T12:14:37.954Z</time>
      </trkpt>
      <trkpt lat="49.66651" lon="-1.49577">
        <ele>20.38</ele>
        <time>2021-08-30T12:14:39.548Z</time>
      </trkpt>
      <trkpt lat="49.66677" lon="-1.4956">
        <ele>19.84</ele>
        <time>2021-08-30T12:14:41.146Z</time>
      </trkpt>
      <trkpt lat="49.66677" lon="-1.4956">
        <ele>19.84</ele>
        <time>2021-08-30T12:14:42.744Z</time>
      </trkpt>
      <trkpt lat="49.66753" lon="-1.49536">
        <ele>19.88</ele>
        <time>2021-08-30T12:14:44.355Z</time>
      </trkpt>
      <trkpt lat="49.66753" lon="-1.49536">
        <ele>19.88</ele>
        <time>2021-08-30T12:14:45.966Z</time>
      </trkpt>
      <trkpt lat="49.6679" lon="-1.49509">
        <ele>19.88</ele>
        <time>2021-08-30T12:14:47.583Z</time>
      </trkpt>
      <trkpt lat="49.6679" lon="-1.49509">
        <ele>19.88</ele>
        <time>2021-08-30T12:14:49.200Z</time>
      </trkpt>
      <trkpt lat="49.66818" lon="-1.49469">
        <ele>20.01</ele>
        <time>2021-08-30T12:14:50.823Z</time>
      </trkpt>
      <trkpt lat="49.66818" lon="-1.49469">
        <ele>20.01</ele>
        <time>2021-08-30T12:14:52.446Z</time>
      </trkpt>
      <trkpt lat="49.66854" lon="-1.49403">
        <ele>19.97</ele>
        <time>2021-08-30T12:14:54.078Z</time>
      </trkpt>
      <trkpt lat="49.66854" lon="-1.49403">
        <ele>19.97</ele>
        <time>2021-08-30T12:14:55.710Z</time>
      </trkpt>
      <trkpt lat="49.66869" lon="-1.49371">
        <ele>20.15</ele>
        <time>2021-08-30T12:14:57.347Z</time>
      </trkpt>
      <trkpt lat="49.66869" lon="-1.49371">
        <ele>20.15</ele>
        <time>2021-08-30T12:14:58.984Z</time>
      </trkpt>
      <trkpt lat="49.66882" lon="-1.49336">
        <ele>20.28</ele>
        <time>2021-08-30T12:15:00.625Z</time>
      </trkpt>
      <trkpt lat="49.66882" lon="-1.49336">
        <ele>20.28</ele>
        <time>2021-08-30T12:15:02.266Z</time>
      </trkpt>
      <trkpt lat="49.66898" lon="-1.49279">
        <ele>20.58</ele>
        <time>2021-08-30T12:15:03.913Z</time>
      </trkpt>
      <trkpt lat="49.66898" lon="-1.49279">
        <ele>20.58</ele>
        <time>2021-08-30T12:15:05.560Z</time>
      </trkpt>
      <trkpt lat="49.66908" lon="-1.49194">
        <ele>20.66</ele>
        <time>2021-08-30T12:15:07.216Z</time>
      </trkpt>
      <trkpt lat="49.66908" lon="-1.49194">
        <ele>20.66</ele>
        <time>2021-08-30T12:15:08.872Z</time>
      </trkpt>
      <trkpt lat="49.66901" lon="-1.4913">
        <ele>20.28</ele>
        <time>2021-08-30T12:15:10.535Z</time>
      </trkpt>
      <trkpt lat="49.66901" lon="-1.4913">
        <ele>20.28</ele>
        <time>2021-08-30T12:15:12.198Z</time>
      </trkpt>
      <trkpt lat="49.66882" lon="-1.49063">
        <ele>19.83</ele>
        <time>2021-08-30T12:15:13.868Z</time>
      </trkpt>
      <trkpt lat="49.66882" lon="-1.49063">
        <ele>19.83</ele>
        <time>2021-08-30T12:15:15.538Z</time>
      </trkpt>
      <trkpt lat="49.66859" lon="-1.49021">
        <ele>19.7</ele>
        <time>2021-08-30T12:15:17.214Z</time>
      </trkpt>
      <trkpt lat="49.66859" lon="-1.49021">
        <ele>19.7</ele>
        <time>2021-08-30T12:15:18.890Z</time>
      </trkpt>
      <trkpt lat="49.66808" lon="-1.4894">
        <ele>19.76</ele>
        <time>2021-08-30T12:15:20.578Z</time>
      </trkpt>
      <trkpt lat="49.66808" lon="-1.4894">
        <ele>19.76</ele>
        <time>2021-08-30T12:15:22.266Z</time>
      </trkpt>
      <trkpt lat="49.66794" lon="-1.48913">
        <ele>20.28</ele>
        <time>2021-08-30T12:15:23.958Z</time>
      </trkpt>
      <trkpt lat="49.66794" lon="-1.48913">
        <ele>20.28</ele>
        <time>2021-08-30T12:15:25.650Z</time>
      </trkpt>
      <trkpt lat="49.66783" lon="-1.48886">
        <ele>20.28</ele>
        <time>2021-08-30T12:15:27.345Z</time>
      </trkpt>
      <trkpt lat="49.66783" lon="-1.48886">
        <ele>20.28</ele>
        <time>2021-08-30T12:15:29.040Z</time>
      </trkpt>
      <trkpt lat="49.66775" lon="-1.48859">
        <ele>20.51</ele>
        <time>2021-08-30T12:15:30.738Z</time>
      </trkpt>
      <trkpt lat="49.66775" lon="-1.48859">
        <ele>20.51</ele>
        <time>2021-08-30T12:15:32.436Z</time>
      </trkpt>
      <trkpt lat="49.66765" lon="-1.48817">
        <ele>20.51</ele>
        <time>2021-08-30T12:15:34.139Z</time>
      </trkpt>
      <trkpt lat="49.66765" lon="-1.48817">
        <ele>20.51</ele>
        <time>2021-08-30T12:15:35.842Z</time>
      </trkpt>
      <trkpt lat="49.6676" lon="-1.48777">
        <ele>20.67</ele>
        <time>2021-08-30T12:15:37.549Z</time>
      </trkpt>
      <trkpt lat="49.6676" lon="-1.48777">
        <ele>20.67</ele>
        <time>2021-08-30T12:15:39.256Z</time>
      </trkpt>
      <trkpt lat="49.66759" lon="-1.48737">
        <ele>20.57</ele>
        <time>2021-08-30T12:15:40.967Z</time>
      </trkpt>
      <trkpt lat="49.66759" lon="-1.48737">
        <ele>20.57</ele>
        <time>2021-08-30T12:15:42.678Z</time>
      </trkpt>
      <trkpt lat="49.66764" lon="-1.48686">
        <ele>20.14</ele>
        <time>2021-08-30T12:15:44.394Z</time>
      </trkpt>
      <trkpt lat="49.66764" lon="-1.48686">
        <ele>20.14</ele>
        <time>2021-08-30T12:15:46.110Z</time>
      </trkpt>
      <trkpt lat="49.66773" lon="-1.48635">
        <ele>19.72</ele>
        <time>2021-08-30T12:15:47.832Z</time>
      </trkpt>
      <trkpt lat="49.66773" lon="-1.48635">
        <ele>19.72</ele>
        <time>2021-08-30T12:15:49.554Z</time>
      </trkpt>
      <trkpt lat="49.66786" lon="-1.48597">
        <ele>18.92</ele>
        <time>2021-08-30T12:15:51.280Z</time>
      </trkpt>
      <trkpt lat="49.66786" lon="-1.48597">
        <ele>18.92</ele>
        <time>2021-08-30T12:15:53.006Z</time>
      </trkpt>
      <trkpt lat="49.66803" lon="-1.48564">
        <ele>18.16</ele>
        <time>2021-08-30T12:15:54.737Z</time>
      </trkpt>
      <trkpt lat="49.66803" lon="-1.48564">
        <ele>18.16</ele>
        <time>2021-08-30T12:15:56.468Z</time>
      </trkpt>
      <trkpt lat="49.66831" lon="-1.4853">
        <ele>17.61</ele>
        <time>2021-08-30T12:15:58.204Z</time>
      </trkpt>
      <trkpt lat="49.66831" lon="-1.4853">
        <ele>17.61</ele>
        <time>2021-08-30T12:15:59.940Z</time>
      </trkpt>
      <trkpt lat="49.66847" lon="-1.48513">
        <ele>17.61</ele>
        <time>2021-08-30T12:16:01.679Z</time>
      </trkpt>
      <trkpt lat="49.66847" lon="-1.48513">
        <ele>17.61</ele>
        <time>2021-08-30T12:16:03.418Z</time>
      </trkpt>
      <trkpt lat="49.66865" lon="-1.48499">
        <ele>17.68</ele>
        <time>2021-08-30T12:16:05.161Z</time>
      </trkpt>
      <trkpt lat="49.66865" lon="-1.48499">
        <ele>17.68</ele>
        <time>2021-08-30T12:16:06.904Z</time>
      </trkpt>
      <trkpt lat="49.66893" lon="-1.48486">
        <ele>18.04</ele>
        <time>2021-08-30T12:16:08.651Z</time>
      </trkpt>
      <trkpt lat="49.66893" lon="-1.48486">
        <ele>18.04</ele>
        <time>2021-08-30T12:16:10.398Z</time>
      </trkpt>
      <trkpt lat="49.66922" lon="-1.48475">
        <ele>18.42</ele>
        <time>2021-08-30T12:16:12.150Z</time>
      </trkpt>
      <trkpt lat="49.66922" lon="-1.48475">
        <ele>18.42</ele>
        <time>2021-08-30T12:16:13.902Z</time>
      </trkpt>
      <trkpt lat="49.66951" lon="-1.48475">
        <ele>18.61</ele>
        <time>2021-08-30T12:16:15.659Z</time>
      </trkpt>
      <trkpt lat="49.66951" lon="-1.48475">
        <ele>18.61</ele>
        <time>2021-08-30T12:16:17.416Z</time>
      </trkpt>
      <trkpt lat="49.66979" lon="-1.48481">
        <ele>19.17</ele>
        <time>2021-08-30T12:16:19.177Z</time>
      </trkpt>
      <trkpt lat="49.66979" lon="-1.48481">
        <ele>19.17</ele>
        <time>2021-08-30T12:16:20.938Z</time>
      </trkpt>
      <trkpt lat="49.67066" lon="-1.48509">
        <ele>20.8</ele>
        <time>2021-08-30T12:16:22.714Z</time>
      </trkpt>
      <trkpt lat="49.67066" lon="-1.48509">
        <ele>20.8</ele>
        <time>2021-08-30T12:16:24.490Z</time>
      </trkpt>
      <trkpt lat="49.67253" lon="-1.4852">
        <ele>24.14</ele>
        <time>2021-08-30T12:16:26.296Z</time>
      </trkpt>
      <trkpt lat="49.67253" lon="-1.4852">
        <ele>24.14</ele>
        <time>2021-08-30T12:16:28.102Z</time>
      </trkpt>
      <trkpt lat="49.67354" lon="-1.48516">
        <ele>24.72</ele>
        <time>2021-08-30T12:16:29.924Z</time>
      </trkpt>
      <trkpt lat="49.67354" lon="-1.48516">
        <ele>24.72</ele>
        <time>2021-08-30T12:16:31.746Z</time>
      </trkpt>
      <trkpt lat="49.67384" lon="-1.48503">
        <ele>24.74</ele>
        <time>2021-08-30T12:16:33.573Z</time>
      </trkpt>
      <trkpt lat="49.67384" lon="-1.48503">
        <ele>24.74</ele>
        <time>2021-08-30T12:16:35.400Z</time>
      </trkpt>
      <trkpt lat="49.67407" lon="-1.48486">
        <ele>24.74</ele>
        <time>2021-08-30T12:16:37.231Z</time>
      </trkpt>
      <trkpt lat="49.67407" lon="-1.48486">
        <ele>24.74</ele>
        <time>2021-08-30T12:16:39.062Z</time>
      </trkpt>
      <trkpt lat="49.67449" lon="-1.48464">
        <ele>24.99</ele>
        <time>2021-08-30T12:16:40.900Z</time>
      </trkpt>
      <trkpt lat="49.67449" lon="-1.48464">
        <ele>24.99</ele>
        <time>2021-08-30T12:16:42.738Z</time>
      </trkpt>
      <trkpt lat="49.67498" lon="-1.48445">
        <ele>25.59</ele>
        <time>2021-08-30T12:16:44.584Z</time>
      </trkpt>
      <trkpt lat="49.67498" lon="-1.48445">
        <ele>25.59</ele>
        <time>2021-08-30T12:16:46.430Z</time>
      </trkpt>
      <trkpt lat="49.676" lon="-1.48418">
        <ele>27.95</ele>
        <time>2021-08-30T12:16:48.293Z</time>
      </trkpt>
      <trkpt lat="49.676" lon="-1.48418">
        <ele>27.95</ele>
        <time>2021-08-30T12:16:50.156Z</time>
      </trkpt>
      <trkpt lat="49.67631" lon="-1.48398">
        <ele>29.36</ele>
        <time>2021-08-30T12:16:52.024Z</time>
      </trkpt>
      <trkpt lat="49.67631" lon="-1.48398">
        <ele>29.36</ele>
        <time>2021-08-30T12:16:53.892Z</time>
      </trkpt>
      <trkpt lat="49.67661" lon="-1.48374">
        <ele>30.49</ele>
        <time>2021-08-30T12:16:55.765Z</time>
      </trkpt>
      <trkpt lat="49.67661" lon="-1.48374">
        <ele>30.49</ele>
        <time>2021-08-30T12:16:57.638Z</time>
      </trkpt>
      <trkpt lat="49.67687" lon="-1.48344">
        <ele>31.48</ele>
        <time>2021-08-30T12:16:59.517Z</time>
      </trkpt>
      <trkpt lat="49.67687" lon="-1.48344">
        <ele>31.48</ele>
        <time>2021-08-30T12:17:01.396Z</time>
      </trkpt>
      <trkpt lat="49.67709" lon="-1.4831">
        <ele>32.57</ele>
        <time>2021-08-30T12:17:03.280Z</time>
      </trkpt>
      <trkpt lat="49.67709" lon="-1.4831">
        <ele>32.57</ele>
        <time>2021-08-30T12:17:05.164Z</time>
      </trkpt>
      <trkpt lat="49.67728" lon="-1.48277">
        <ele>33.41</ele>
        <time>2021-08-30T12:17:07.052Z</time>
      </trkpt>
      <trkpt lat="49.67728" lon="-1.48277">
        <ele>33.41</ele>
        <time>2021-08-30T12:17:08.940Z</time>
      </trkpt>
      <trkpt lat="49.67754" lon="-1.48211">
        <ele>33.91</ele>
        <time>2021-08-30T12:17:10.836Z</time>
      </trkpt>
      <trkpt lat="49.67754" lon="-1.48211">
        <ele>33.91</ele>
        <time>2021-08-30T12:17:12.732Z</time>
      </trkpt>
      <trkpt lat="49.67771" lon="-1.48147">
        <ele>34.59</ele>
        <time>2021-08-30T12:17:14.635Z</time>
      </trkpt>
      <trkpt lat="49.67771" lon="-1.48147">
        <ele>34.59</ele>
        <time>2021-08-30T12:17:16.538Z</time>
      </trkpt>
      <trkpt lat="49.67777" lon="-1.48114">
        <ele>34.9</ele>
        <time>2021-08-30T12:17:18.445Z</time>
      </trkpt>
      <trkpt lat="49.67777" lon="-1.48114">
        <ele>34.9</ele>
        <time>2021-08-30T12:17:20.352Z</time>
      </trkpt>
      <trkpt lat="49.6778" lon="-1.48082">
        <ele>35.06</ele>
        <time>2021-08-30T12:17:22.262Z</time>
      </trkpt>
      <trkpt lat="49.6778" lon="-1.48082">
        <ele>35.06</ele>
        <time>2021-08-30T12:17:24.172Z</time>
      </trkpt>
      <trkpt lat="49.67782" lon="-1.48014">
        <ele>35.13</ele>
        <time>2021-08-30T12:17:26.089Z</time>
      </trkpt>
      <trkpt lat="49.67782" lon="-1.48014">
        <ele>35.13</ele>
        <time>2021-08-30T12:17:28.006Z</time>
      </trkpt>
      <trkpt lat="49.67781" lon="-1.47981">
        <ele>34.73</ele>
        <time>2021-08-30T12:17:29.927Z</time>
      </trkpt>
      <trkpt lat="49.67781" lon="-1.47981">
        <ele>34.73</ele>
        <time>2021-08-30T12:17:31.848Z</time>
      </trkpt>
      <trkpt lat="49.67751" lon="-1.47697">
        <ele>36.1</ele>
        <time>2021-08-30T12:17:33.799Z</time>
      </trkpt>
      <trkpt lat="49.67751" lon="-1.47697">
        <ele>36.1</ele>
        <time>2021-08-30T12:17:35.750Z</time>
      </trkpt>
      <trkpt lat="49.6775" lon="-1.47669">
        <ele>36.48</ele>
        <time>2021-08-30T12:17:37.704Z</time>
      </trkpt>
      <trkpt lat="49.6775" lon="-1.47669">
        <ele>36.48</ele>
        <time>2021-08-30T12:17:39.658Z</time>
      </trkpt>
      <trkpt lat="49.67751" lon="-1.47633">
        <ele>37.18</ele>
        <time>2021-08-30T12:17:41.615Z</time>
      </trkpt>
      <trkpt lat="49.67751" lon="-1.47633">
        <ele>37.18</ele>
        <time>2021-08-30T12:17:43.572Z</time>
      </trkpt>
      <trkpt lat="49.67757" lon="-1.47571">
        <ele>37.4</ele>
        <time>2021-08-30T12:17:45.536Z</time>
      </trkpt>
      <trkpt lat="49.67757" lon="-1.47571">
        <ele>37.4</ele>
        <time>2021-08-30T12:17:47.500Z</time>
      </trkpt>
      <trkpt lat="49.67768" lon="-1.4751">
        <ele>38.14</ele>
        <time>2021-08-30T12:17:49.470Z</time>
      </trkpt>
      <trkpt lat="49.67768" lon="-1.4751">
        <ele>38.14</ele>
        <time>2021-08-30T12:17:51.440Z</time>
      </trkpt>
      <trkpt lat="49.67896" lon="-1.46968">
        <ele>42.84</ele>
        <time>2021-08-30T12:17:53.470Z</time>
      </trkpt>
      <trkpt lat="49.67896" lon="-1.46968">
        <ele>42.84</ele>
        <time>2021-08-30T12:17:55.500Z</time>
      </trkpt>
      <trkpt lat="49.67907" lon="-1.4693">
        <ele>43.43</ele>
        <time>2021-08-30T12:17:57.535Z</time>
      </trkpt>
      <trkpt lat="49.67907" lon="-1.4693">
        <ele>43.43</ele>
        <time>2021-08-30T12:17:59.570Z</time>
      </trkpt>
      <trkpt lat="49.67921" lon="-1.46893">
        <ele>45.11</ele>
        <time>2021-08-30T12:18:01.609Z</time>
      </trkpt>
      <trkpt lat="49.67921" lon="-1.46893">
        <ele>45.11</ele>
        <time>2021-08-30T12:18:03.648Z</time>
      </trkpt>
      <trkpt lat="49.67988" lon="-1.46765">
        <ele>47.97</ele>
        <time>2021-08-30T12:18:05.704Z</time>
      </trkpt>
      <trkpt lat="49.67988" lon="-1.46765">
        <ele>47.97</ele>
        <time>2021-08-30T12:18:07.760Z</time>
      </trkpt>
      <trkpt lat="49.68007" lon="-1.4672">
        <ele>48.36</ele>
        <time>2021-08-30T12:18:09.822Z</time>
      </trkpt>
      <trkpt lat="49.68007" lon="-1.4672">
        <ele>48.36</ele>
        <time>2021-08-30T12:18:11.884Z</time>
      </trkpt>
      <trkpt lat="49.6802" lon="-1.46672">
        <ele>48.89</ele>
        <time>2021-08-30T12:18:13.951Z</time>
      </trkpt>
      <trkpt lat="49.6802" lon="-1.46672">
        <ele>48.89</ele>
        <time>2021-08-30T12:18:16.018Z</time>
      </trkpt>
      <trkpt lat="49.68034" lon="-1.46584">
        <ele>49.23</ele>
        <time>2021-08-30T12:18:18.095Z</time>
      </trkpt>
      <trkpt lat="49.68034" lon="-1.46584">
        <ele>49.23</ele>
        <time>2021-08-30T12:18:20.172Z</time>
      </trkpt>
      <trkpt lat="49.68048" lon="-1.46417">
        <ele>50.35</ele>
        <time>2021-08-30T12:18:22.266Z</time>
      </trkpt>
      <trkpt lat="49.68048" lon="-1.46417">
        <ele>50.35</ele>
        <time>2021-08-30T12:18:24.360Z</time>
      </trkpt>
      <trkpt lat="49.68077" lon="-1.46384">
        <ele>50.08</ele>
        <time>2021-08-30T12:18:26.460Z</time>
      </trkpt>
      <trkpt lat="49.68077" lon="-1.46384">
        <ele>50.08</ele>
        <time>2021-08-30T12:18:28.560Z</time>
      </trkpt>
      <trkpt lat="49.68249" lon="-1.46375">
        <ele>38.84</ele>
        <time>2021-08-30T12:18:30.688Z</time>
      </trkpt>
      <trkpt lat="49.68249" lon="-1.46375">
        <ele>38.84</ele>
        <time>2021-08-30T12:18:32.816Z</time>
      </trkpt>
      <trkpt lat="49.68256" lon="-1.46381">
        <ele>38.84</ele>
        <time>2021-08-30T12:18:34.945Z</time>
      </trkpt>
      <trkpt lat="49.68256" lon="-1.46381">
        <ele>38.84</ele>
        <time>2021-08-30T12:18:37.074Z</time>
      </trkpt>
      <trkpt lat="49.6828" lon="-1.46401">
        <ele>36.11</ele>
        <time>2021-08-30T12:18:39.207Z</time>
      </trkpt>
      <trkpt lat="49.6828" lon="-1.46401">
        <ele>36.11</ele>
        <time>2021-08-30T12:18:41.340Z</time>
      </trkpt>
      <trkpt lat="49.68341" lon="-1.46489">
        <ele>25.83</ele>
        <time>2021-08-30T12:18:43.487Z</time>
      </trkpt>
      <trkpt lat="49.68341" lon="-1.46489">
        <ele>25.83</ele>
        <time>2021-08-30T12:18:45.634Z</time>
      </trkpt>
      <trkpt lat="49.68365" lon="-1.4654">
        <ele>23.57</ele>
        <time>2021-08-30T12:18:47.787Z</time>
      </trkpt>
      <trkpt lat="49.68365" lon="-1.4654">
        <ele>23.57</ele>
        <time>2021-08-30T12:18:49.940Z</time>
      </trkpt>
      <trkpt lat="49.68387" lon="-1.46582">
        <ele>21.7</ele>
        <time>2021-08-30T12:18:52.099Z</time>
      </trkpt>
      <trkpt lat="49.68387" lon="-1.46582">
        <ele>21.7</ele>
        <time>2021-08-30T12:18:54.258Z</time>
      </trkpt>
      <trkpt lat="49.68421" lon="-1.46629">
        <ele>18.09</ele>
        <time>2021-08-30T12:18:56.424Z</time>
      </trkpt>
      <trkpt lat="49.68421" lon="-1.46629">
        <ele>18.09</ele>
        <time>2021-08-30T12:18:58.590Z</time>
      </trkpt>
      <trkpt lat="49.6845" lon="-1.4666">
        <ele>16.28</ele>
        <time>2021-08-30T12:19:00.762Z</time>
      </trkpt>
      <trkpt lat="49.6845" lon="-1.4666">
        <ele>16.28</ele>
        <time>2021-08-30T12:19:02.934Z</time>
      </trkpt>
      <trkpt lat="49.68446" lon="-1.46669">
        <ele>15.77</ele>
        <time>2021-08-30T12:19:05.107Z</time>
      </trkpt>
      <trkpt lat="49.68446" lon="-1.46669">
        <ele>15.77</ele>
        <time>2021-08-30T12:19:07.280Z</time>
      </trkpt>
      <trkpt lat="49.68432" lon="-1.46687">
        <ele>15.13</ele>
        <time>2021-08-30T12:19:09.456Z</time>
      </trkpt>
      <trkpt lat="49.68432" lon="-1.46687">
        <ele>15.13</ele>
        <time>2021-08-30T12:19:11.632Z</time>
      </trkpt>
      <trkpt lat="49.68399" lon="-1.46716">
        <ele>14.61</ele>
        <time>2021-08-30T12:19:13.814Z</time>
      </trkpt>
      <trkpt lat="49.68399" lon="-1.46716">
        <ele>14.61</ele>
        <time>2021-08-30T12:19:15.996Z</time>
      </trkpt>
      <trkpt lat="49.68393" lon="-1.4674">
        <ele>14.63</ele>
        <time>2021-08-30T12:19:18.180Z</time>
      </trkpt>
      <trkpt lat="49.68393" lon="-1.4674">
        <ele>14.63</ele>
        <time>2021-08-30T12:19:20.364Z</time>
      </trkpt>
      <trkpt lat="49.68388" lon="-1.46795">
        <ele>14.56</ele>
        <time>2021-08-30T12:19:22.554Z</time>
      </trkpt>
      <trkpt lat="49.68388" lon="-1.46795">
        <ele>14.56</ele>
        <time>2021-08-30T12:19:24.744Z</time>
      </trkpt>
      <trkpt lat="49.68388" lon="-1.46832">
        <ele>14.76</ele>
        <time>2021-08-30T12:19:26.938Z</time>
      </trkpt>
      <trkpt lat="49.68388" lon="-1.46832">
        <ele>14.76</ele>
        <time>2021-08-30T12:19:29.132Z</time>
      </trkpt>
      <trkpt lat="49.68391" lon="-1.46879">
        <ele>15.48</ele>
        <time>2021-08-30T12:19:31.331Z</time>
      </trkpt>
      <trkpt lat="49.68391" lon="-1.46879">
        <ele>15.48</ele>
        <time>2021-08-30T12:19:33.530Z</time>
      </trkpt>
      <trkpt lat="49.68398" lon="-1.46929">
        <ele>16.37</ele>
        <time>2021-08-30T12:19:35.734Z</time>
      </trkpt>
      <trkpt lat="49.68398" lon="-1.46929">
        <ele>16.37</ele>
        <time>2021-08-30T12:19:37.938Z</time>
      </trkpt>
      <trkpt lat="49.68404" lon="-1.46945">
        <ele>16.39</ele>
        <time>2021-08-30T12:19:40.144Z</time>
      </trkpt>
      <trkpt lat="49.68404" lon="-1.46945">
        <ele>16.39</ele>
        <time>2021-08-30T12:19:42.350Z</time>
      </trkpt>
      <trkpt lat="49.68413" lon="-1.46961">
        <ele>16.31</ele>
        <time>2021-08-30T12:19:44.558Z</time>
      </trkpt>
      <trkpt lat="49.68413" lon="-1.46961">
        <ele>16.31</ele>
        <time>2021-08-30T12:19:46.766Z</time>
      </trkpt>
      <trkpt lat="49.68419" lon="-1.46981">
        <ele>16.31</ele>
        <time>2021-08-30T12:19:48.977Z</time>
      </trkpt>
      <trkpt lat="49.68419" lon="-1.46981">
        <ele>16.31</ele>
        <time>2021-08-30T12:19:51.188Z</time>
      </trkpt>
      <trkpt lat="49.6843" lon="-1.4705">
        <ele>16.8</ele>
        <time>2021-08-30T12:19:53.406Z</time>
      </trkpt>
      <trkpt lat="49.6843" lon="-1.4705">
        <ele>16.8</ele>
        <time>2021-08-30T12:19:55.624Z</time>
      </trkpt>
      <trkpt lat="49.68439" lon="-1.47076">
        <ele>16.59</ele>
        <time>2021-08-30T12:19:57.845Z</time>
      </trkpt>
      <trkpt lat="49.68439" lon="-1.47076">
        <ele>16.59</ele>
        <time>2021-08-30T12:20:00.066Z</time>
      </trkpt>
      <trkpt lat="49.68485" lon="-1.47141">
        <ele>13.14</ele>
        <time>2021-08-30T12:20:02.297Z</time>
      </trkpt>
      <trkpt lat="49.68485" lon="-1.47141">
        <ele>13.14</ele>
        <time>2021-08-30T12:20:04.528Z</time>
      </trkpt>
      <trkpt lat="49.68497" lon="-1.47165">
        <ele>12.69</ele>
        <time>2021-08-30T12:20:06.762Z</time>
      </trkpt>
      <trkpt lat="49.68497" lon="-1.47165">
        <ele>12.69</ele>
        <time>2021-08-30T12:20:08.996Z</time>
      </trkpt>
      <trkpt lat="49.68512" lon="-1.47242">
        <ele>11.38</ele>
        <time>2021-08-30T12:20:11.239Z</time>
      </trkpt>
      <trkpt lat="49.68512" lon="-1.47242">
        <ele>11.38</ele>
        <time>2021-08-30T12:20:13.482Z</time>
      </trkpt>
      <trkpt lat="49.68519" lon="-1.47249">
        <ele>10.99</ele>
        <time>2021-08-30T12:20:15.726Z</time>
      </trkpt>
      <trkpt lat="49.68519" lon="-1.47249">
        <ele>10.99</ele>
        <time>2021-08-30T12:20:17.970Z</time>
      </trkpt>
      <trkpt lat="49.68536" lon="-1.47252">
        <ele>10.34</ele>
        <time>2021-08-30T12:20:20.217Z</time>
      </trkpt>
      <trkpt lat="49.68536" lon="-1.47252">
        <ele>10.34</ele>
        <time>2021-08-30T12:20:22.464Z</time>
      </trkpt>
      <trkpt lat="49.68637" lon="-1.47252">
        <ele>3.5</ele>
        <time>2021-08-30T12:20:24.727Z</time>
      </trkpt>
      <trkpt lat="49.68637" lon="-1.47252">
        <ele>3.5</ele>
        <time>2021-08-30T12:20:26.990Z</time>
      </trkpt>
      <trkpt lat="49.68663" lon="-1.47239">
        <ele>3.32</ele>
        <time>2021-08-30T12:20:29.257Z</time>
      </trkpt>
      <trkpt lat="49.68663" lon="-1.47239">
        <ele>3.32</ele>
        <time>2021-08-30T12:20:31.524Z</time>
      </trkpt>
      <trkpt lat="49.68706" lon="-1.47235">
        <ele>2.77</ele>
        <time>2021-08-30T12:20:33.798Z</time>
      </trkpt>
      <trkpt lat="49.68706" lon="-1.47235">
        <ele>2.77</ele>
        <time>2021-08-30T12:20:36.072Z</time>
      </trkpt>
      <trkpt lat="49.68732" lon="-1.47246">
        <ele>2.62</ele>
        <time>2021-08-30T12:20:38.351Z</time>
      </trkpt>
      <trkpt lat="49.68732" lon="-1.47246">
        <ele>2.62</ele>
        <time>2021-08-30T12:20:40.630Z</time>
      </trkpt>
      <trkpt lat="49.68735" lon="-1.47248">
        <ele>2.62</ele>
        <time>2021-08-30T12:20:42.909Z</time>
      </trkpt>
      <trkpt lat="49.68735" lon="-1.47248">
        <ele>2.62</ele>
        <time>2021-08-30T12:20:45.188Z</time>
      </trkpt>
      <trkpt lat="49.68742" lon="-1.4725">
        <ele>2.51</ele>
        <time>2021-08-30T12:20:47.468Z</time>
      </trkpt>
      <trkpt lat="49.68742" lon="-1.4725">
        <ele>2.51</ele>
        <time>2021-08-30T12:20:49.748Z</time>
      </trkpt>
      <trkpt lat="49.68829" lon="-1.47314">
        <ele>2.68</ele>
        <time>2021-08-30T12:20:52.044Z</time>
      </trkpt>
      <trkpt lat="49.68829" lon="-1.47314">
        <ele>2.68</ele>
        <time>2021-08-30T12:20:54.340Z</time>
      </trkpt>
      <trkpt lat="49.68835" lon="-1.47325">
        <ele>3.09</ele>
        <time>2021-08-30T12:20:56.637Z</time>
      </trkpt>
      <trkpt lat="49.68835" lon="-1.47325">
        <ele>3.09</ele>
        <time>2021-08-30T12:20:58.934Z</time>
      </trkpt>
      <trkpt lat="49.68848" lon="-1.47381">
        <ele>5.26</ele>
        <time>2021-08-30T12:21:01.237Z</time>
      </trkpt>
      <trkpt lat="49.68848" lon="-1.47381">
        <ele>5.26</ele>
        <time>2021-08-30T12:21:03.540Z</time>
      </trkpt>
      <trkpt lat="49.68881" lon="-1.47432">
        <ele>7.31</ele>
        <time>2021-08-30T12:21:05.851Z</time>
      </trkpt>
      <trkpt lat="49.68881" lon="-1.47432">
        <ele>7.31</ele>
        <time>2021-08-30T12:21:08.162Z</time>
      </trkpt>
      <trkpt lat="49.68896" lon="-1.4744">
        <ele>7.19</ele>
        <time>2021-08-30T12:21:10.475Z</time>
      </trkpt>
      <trkpt lat="49.68896" lon="-1.4744">
        <ele>7.19</ele>
        <time>2021-08-30T12:21:12.788Z</time>
      </trkpt>
      <trkpt lat="49.68933" lon="-1.47381">
        <ele>5.36</ele>
        <time>2021-08-30T12:21:15.110Z</time>
      </trkpt>
      <trkpt lat="49.68933" lon="-1.47381">
        <ele>5.36</ele>
        <time>2021-08-30T12:21:17.432Z</time>
      </trkpt>
      <trkpt lat="49.68955" lon="-1.47367">
        <ele>5.34</ele>
        <time>2021-08-30T12:21:19.758Z</time>
      </trkpt>
      <trkpt lat="49.68955" lon="-1.47367">
        <ele>5.34</ele>
        <time>2021-08-30T12:21:22.084Z</time>
      </trkpt>
      <trkpt lat="49.68963" lon="-1.47365">
        <ele>5.42</ele>
        <time>2021-08-30T12:21:24.411Z</time>
      </trkpt>
      <trkpt lat="49.68963" lon="-1.47365">
        <ele>5.42</ele>
        <time>2021-08-30T12:21:26.738Z</time>
      </trkpt>
      <trkpt lat="49.6898" lon="-1.4737">
        <ele>6.19</ele>
        <time>2021-08-30T12:21:29.068Z</time>
      </trkpt>
      <trkpt lat="49.6898" lon="-1.4737">
        <ele>6.19</ele>
        <time>2021-08-30T12:21:31.398Z</time>
      </trkpt>
      <trkpt lat="49.68986" lon="-1.4737">
        <ele>6.19</ele>
        <time>2021-08-30T12:21:33.729Z</time>
      </trkpt>
      <trkpt lat="49.68986" lon="-1.4737">
        <ele>6.19</ele>
        <time>2021-08-30T12:21:36.060Z</time>
      </trkpt>
      <trkpt lat="49.68993" lon="-1.47364">
        <ele>6.41</ele>
        <time>2021-08-30T12:21:38.392Z</time>
      </trkpt>
      <trkpt lat="49.68993" lon="-1.47364">
        <ele>6.41</ele>
        <time>2021-08-30T12:21:40.724Z</time>
      </trkpt>
      <trkpt lat="49.69019" lon="-1.47333">
        <ele>6.73</ele>
        <time>2021-08-30T12:21:43.061Z</time>
      </trkpt>
      <trkpt lat="49.69019" lon="-1.47333">
        <ele>6.73</ele>
        <time>2021-08-30T12:21:45.398Z</time>
      </trkpt>
      <trkpt lat="49.69023" lon="-1.47306">
        <ele>7.06</ele>
        <time>2021-08-30T12:21:47.738Z</time>
      </trkpt>
      <trkpt lat="49.69023" lon="-1.47306">
        <ele>7.06</ele>
        <time>2021-08-30T12:21:50.078Z</time>
      </trkpt>
      <trkpt lat="49.6903" lon="-1.47303">
        <ele>7.3</ele>
        <time>2021-08-30T12:21:52.419Z</time>
      </trkpt>
      <trkpt lat="49.6903" lon="-1.47303">
        <ele>7.3</ele>
        <time>2021-08-30T12:21:54.760Z</time>
      </trkpt>
      <trkpt lat="49.6907" lon="-1.473">
        <ele>9.13</ele>
        <time>2021-08-30T12:21:57.108Z</time>
      </trkpt>
      <trkpt lat="49.6907" lon="-1.473">
        <ele>9.13</ele>
        <time>2021-08-30T12:21:59.456Z</time>
      </trkpt>
      <trkpt lat="49.69075" lon="-1.47293">
        <ele>9.27</ele>
        <time>2021-08-30T12:22:01.805Z</time>
      </trkpt>
      <trkpt lat="49.69075" lon="-1.47293">
        <ele>9.27</ele>
        <time>2021-08-30T12:22:04.154Z</time>
      </trkpt>
      <trkpt lat="49.69075" lon="-1.4727">
        <ele>9.69</ele>
        <time>2021-08-30T12:22:06.505Z</time>
      </trkpt>
      <trkpt lat="49.69075" lon="-1.4727">
        <ele>9.69</ele>
        <time>2021-08-30T12:22:08.856Z</time>
      </trkpt>
      <trkpt lat="49.69083" lon="-1.47236">
        <ele>10.11</ele>
        <time>2021-08-30T12:22:11.211Z</time>
      </trkpt>
      <trkpt lat="49.69083" lon="-1.47236">
        <ele>10.11</ele>
        <time>2021-08-30T12:22:13.566Z</time>
      </trkpt>
      <trkpt lat="49.69085" lon="-1.47215">
        <ele>10.64</ele>
        <time>2021-08-30T12:22:15.923Z</time>
      </trkpt>
      <trkpt lat="49.69085" lon="-1.47215">
        <ele>10.64</ele>
        <time>2021-08-30T12:22:18.280Z</time>
      </trkpt>
      <trkpt lat="49.69079" lon="-1.47184">
        <ele>10.89</ele>
        <time>2021-08-30T12:22:20.640Z</time>
      </trkpt>
      <trkpt lat="49.69079" lon="-1.47184">
        <ele>10.89</ele>
        <time>2021-08-30T12:22:23.000Z</time>
      </trkpt>
      <trkpt lat="49.69078" lon="-1.47171">
        <ele>10.93</ele>
        <time>2021-08-30T12:22:25.362Z</time>
      </trkpt>
      <trkpt lat="49.69078" lon="-1.47171">
        <ele>10.93</ele>
        <time>2021-08-30T12:22:27.724Z</time>
      </trkpt>
      <trkpt lat="49.69082" lon="-1.4713">
        <ele>10.72</ele>
        <time>2021-08-30T12:22:30.090Z</time>
      </trkpt>
      <trkpt lat="49.69082" lon="-1.4713">
        <ele>10.72</ele>
        <time>2021-08-30T12:22:32.456Z</time>
      </trkpt>
      <trkpt lat="49.69082" lon="-1.47099">
        <ele>11.08</ele>
        <time>2021-08-30T12:22:34.825Z</time>
      </trkpt>
      <trkpt lat="49.69082" lon="-1.47099">
        <ele>11.08</ele>
        <time>2021-08-30T12:22:37.194Z</time>
      </trkpt>
      <trkpt lat="49.69085" lon="-1.47072">
        <ele>11.47</ele>
        <time>2021-08-30T12:22:39.566Z</time>
      </trkpt>
      <trkpt lat="49.69085" lon="-1.47072">
        <ele>11.47</ele>
        <time>2021-08-30T12:22:41.938Z</time>
      </trkpt>
      <trkpt lat="49.69065" lon="-1.47015">
        <ele>13.29</ele>
        <time>2021-08-30T12:22:44.317Z</time>
      </trkpt>
      <trkpt lat="49.69065" lon="-1.47015">
        <ele>13.29</ele>
        <time>2021-08-30T12:22:46.696Z</time>
      </trkpt>
      <trkpt lat="49.69062" lon="-1.46945">
        <ele>14.17</ele>
        <time>2021-08-30T12:22:49.082Z</time>
      </trkpt>
      <trkpt lat="49.69062" lon="-1.46945">
        <ele>14.17</ele>
        <time>2021-08-30T12:22:51.468Z</time>
      </trkpt>
      <trkpt lat="49.69072" lon="-1.46879">
        <ele>16.25</ele>
        <time>2021-08-30T12:22:53.861Z</time>
      </trkpt>
      <trkpt lat="49.69072" lon="-1.46879">
        <ele>16.25</ele>
        <time>2021-08-30T12:22:56.254Z</time>
      </trkpt>
      <trkpt lat="49.69078" lon="-1.46893">
        <ele>16.25</ele>
        <time>2021-08-30T12:22:58.649Z</time>
      </trkpt>
      <trkpt lat="49.69078" lon="-1.46893">
        <ele>16.25</ele>
        <time>2021-08-30T12:23:01.044Z</time>
      </trkpt>
      <trkpt lat="49.69097" lon="-1.46903">
        <ele>16.58</ele>
        <time>2021-08-30T12:23:03.442Z</time>
      </trkpt>
      <trkpt lat="49.69097" lon="-1.46903">
        <ele>16.58</ele>
        <time>2021-08-30T12:23:05.840Z</time>
      </trkpt>
      <trkpt lat="49.6912" lon="-1.46904">
        <ele>17.33</ele>
        <time>2021-08-30T12:23:08.242Z</time>
      </trkpt>
      <trkpt lat="49.6912" lon="-1.46904">
        <ele>17.33</ele>
        <time>2021-08-30T12:23:10.644Z</time>
      </trkpt>
      <trkpt lat="49.69179" lon="-1.46917">
        <ele>17.48</ele>
        <time>2021-08-30T12:23:13.055Z</time>
      </trkpt>
      <trkpt lat="49.69179" lon="-1.46917">
        <ele>17.48</ele>
        <time>2021-08-30T12:23:15.466Z</time>
      </trkpt>
      <trkpt lat="49.69194" lon="-1.46928">
        <ele>17.51</ele>
        <time>2021-08-30T12:23:17.880Z</time>
      </trkpt>
      <trkpt lat="49.69194" lon="-1.46928">
        <ele>17.51</ele>
        <time>2021-08-30T12:23:20.294Z</time>
      </trkpt>
      <trkpt lat="49.69236" lon="-1.46967">
        <ele>18.18</ele>
        <time>2021-08-30T12:23:22.716Z</time>
      </trkpt>
      <trkpt lat="49.69236" lon="-1.46967">
        <ele>18.18</ele>
        <time>2021-08-30T12:23:25.138Z</time>
      </trkpt>
      <trkpt lat="49.69251" lon="-1.46992">
        <ele>18.89</ele>
        <time>2021-08-30T12:23:27.564Z</time>
      </trkpt>
      <trkpt lat="49.69251" lon="-1.46992">
        <ele>18.89</ele>
        <time>2021-08-30T12:23:29.990Z</time>
      </trkpt>
      <trkpt lat="49.69296" lon="-1.47084">
        <ele>19.3</ele>
        <time>2021-08-30T12:23:32.428Z</time>
      </trkpt>
      <trkpt lat="49.69296" lon="-1.47084">
        <ele>19.3</ele>
        <time>2021-08-30T12:23:34.866Z</time>
      </trkpt>
      <trkpt lat="49.69381" lon="-1.47218">
        <ele>15.53</ele>
        <time>2021-08-30T12:23:37.323Z</time>
      </trkpt>
      <trkpt lat="49.69381" lon="-1.47218">
        <ele>15.53</ele>
        <time>2021-08-30T12:23:39.780Z</time>
      </trkpt>
      <trkpt lat="49.69435" lon="-1.47297">
        <ele>12.62</ele>
        <time>2021-08-30T12:23:42.249Z</time>
      </trkpt>
      <trkpt lat="49.69435" lon="-1.47297">
        <ele>12.62</ele>
        <time>2021-08-30T12:23:44.718Z</time>
      </trkpt>
      <trkpt lat="49.69457" lon="-1.47324">
        <ele>12.07</ele>
        <time>2021-08-30T12:23:47.191Z</time>
      </trkpt>
      <trkpt lat="49.69457" lon="-1.47324">
        <ele>12.07</ele>
        <time>2021-08-30T12:23:49.664Z</time>
      </trkpt>
      <trkpt lat="49.69521" lon="-1.47303">
        <ele>10.82</ele>
        <time>2021-08-30T12:23:52.148Z</time>
      </trkpt>
      <trkpt lat="49.69521" lon="-1.47303">
        <ele>10.82</ele>
        <time>2021-08-30T12:23:54.632Z</time>
      </trkpt>
      <trkpt lat="49.69551" lon="-1.47296">
        <ele>9.68</ele>
        <time>2021-08-30T12:23:57.121Z</time>
      </trkpt>
      <trkpt lat="49.69551" lon="-1.47296">
        <ele>9.68</ele>
        <time>2021-08-30T12:23:59.610Z</time>
      </trkpt>
      <trkpt lat="49.69653" lon="-1.47286">
        <ele>0.66</ele>
        <time>2021-08-30T12:24:02.115Z</time>
      </trkpt>
      <trkpt lat="49.69653" lon="-1.47286">
        <ele>0.66</ele>
        <time>2021-08-30T12:24:04.620Z</time>
      </trkpt>
      <trkpt lat="49.69678" lon="-1.47288">
        <ele>0.66</ele>
        <time>2021-08-30T12:24:07.129Z</time>
      </trkpt>
      <trkpt lat="49.69678" lon="-1.47288">
        <ele>0.66</ele>
        <time>2021-08-30T12:24:09.638Z</time>
      </trkpt>
      <trkpt lat="49.69653" lon="-1.47286">
        <ele>3.96</ele>
        <time>2021-08-30T12:24:12.151Z</time>
      </trkpt>
      <trkpt lat="49.69653" lon="-1.47286">
        <ele>3.96</ele>
        <time>2021-08-30T12:24:14.664Z</time>
      </trkpt>
      <trkpt lat="49.69551" lon="-1.47296">
        <ele>10.41</ele>
        <time>2021-08-30T12:24:17.194Z</time>
      </trkpt>
      <trkpt lat="49.69551" lon="-1.47296">
        <ele>10.41</ele>
        <time>2021-08-30T12:24:19.724Z</time>
      </trkpt>
      <trkpt lat="49.69521" lon="-1.47303">
        <ele>11.06</ele>
        <time>2021-08-30T12:24:22.258Z</time>
      </trkpt>
      <trkpt lat="49.69521" lon="-1.47303">
        <ele>11.06</ele>
        <time>2021-08-30T12:24:24.792Z</time>
      </trkpt>
      <trkpt lat="49.69457" lon="-1.47324">
        <ele>12.52</ele>
        <time>2021-08-30T12:24:27.337Z</time>
      </trkpt>
      <trkpt lat="49.69457" lon="-1.47324">
        <ele>12.52</ele>
        <time>2021-08-30T12:24:29.882Z</time>
      </trkpt>
      <trkpt lat="49.69435" lon="-1.47297">
        <ele>13.25</ele>
        <time>2021-08-30T12:24:32.431Z</time>
      </trkpt>
      <trkpt lat="49.69435" lon="-1.47297">
        <ele>13.25</ele>
        <time>2021-08-30T12:24:34.980Z</time>
      </trkpt>
      <trkpt lat="49.69381" lon="-1.47218">
        <ele>17.24</ele>
        <time>2021-08-30T12:24:37.541Z</time>
      </trkpt>
      <trkpt lat="49.69381" lon="-1.47218">
        <ele>17.24</ele>
        <time>2021-08-30T12:24:40.102Z</time>
      </trkpt>
      <trkpt lat="49.69296" lon="-1.47084">
        <ele>19.26</ele>
        <time>2021-08-30T12:24:42.683Z</time>
      </trkpt>
      <trkpt lat="49.69296" lon="-1.47084">
        <ele>19.26</ele>
        <time>2021-08-30T12:24:45.264Z</time>
      </trkpt>
      <trkpt lat="49.69251" lon="-1.46992">
        <ele>18.18</ele>
        <time>2021-08-30T12:24:47.857Z</time>
      </trkpt>
      <trkpt lat="49.69251" lon="-1.46992">
        <ele>18.18</ele>
        <time>2021-08-30T12:24:50.450Z</time>
      </trkpt>
      <trkpt lat="49.69236" lon="-1.46967">
        <ele>17.68</ele>
        <time>2021-08-30T12:24:53.046Z</time>
      </trkpt>
      <trkpt lat="49.69236" lon="-1.46967">
        <ele>17.68</ele>
        <time>2021-08-30T12:24:55.642Z</time>
      </trkpt>
      <trkpt lat="49.69194" lon="-1.46928">
        <ele>17.48</ele>
        <time>2021-08-30T12:24:58.246Z</time>
      </trkpt>
      <trkpt lat="49.69194" lon="-1.46928">
        <ele>17.48</ele>
        <time>2021-08-30T12:25:00.850Z</time>
      </trkpt>
      <trkpt lat="49.69179" lon="-1.46917">
        <ele>17.51</ele>
        <time>2021-08-30T12:25:03.457Z</time>
      </trkpt>
      <trkpt lat="49.69179" lon="-1.46917">
        <ele>17.51</ele>
        <time>2021-08-30T12:25:06.064Z</time>
      </trkpt>
      <trkpt lat="49.6912" lon="-1.46904">
        <ele>17.06</ele>
        <time>2021-08-30T12:25:08.680Z</time>
      </trkpt>
      <trkpt lat="49.6912" lon="-1.46904">
        <ele>17.06</ele>
        <time>2021-08-30T12:25:11.296Z</time>
      </trkpt>
      <trkpt lat="49.69097" lon="-1.46903">
        <ele>16.25</ele>
        <time>2021-08-30T12:25:13.916Z</time>
      </trkpt>
      <trkpt lat="49.69097" lon="-1.46903">
        <ele>16.25</ele>
        <time>2021-08-30T12:25:16.536Z</time>
      </trkpt>
      <trkpt lat="49.69078" lon="-1.46893">
        <ele>15.85</ele>
        <time>2021-08-30T12:25:19.159Z</time>
      </trkpt>
      <trkpt lat="49.69078" lon="-1.46893">
        <ele>15.85</ele>
        <time>2021-08-30T12:25:21.782Z</time>
      </trkpt>
      <trkpt lat="49.69072" lon="-1.46879">
        <ele>15.81</ele>
        <time>2021-08-30T12:25:24.407Z</time>
      </trkpt>
      <trkpt lat="49.69072" lon="-1.46879">
        <ele>15.81</ele>
        <time>2021-08-30T12:25:27.032Z</time>
      </trkpt>
      <trkpt lat="49.6907" lon="-1.46867">
        <ele>15.8</ele>
        <time>2021-08-30T12:25:29.658Z</time>
      </trkpt>
      <trkpt lat="49.6907" lon="-1.46867">
        <ele>15.8</ele>
        <time>2021-08-30T12:25:32.284Z</time>
      </trkpt>
      <trkpt lat="49.69065" lon="-1.46811">
        <ele>15.9</ele>
        <time>2021-08-30T12:25:34.916Z</time>
      </trkpt>
      <trkpt lat="49.69065" lon="-1.46811">
        <ele>15.9</ele>
        <time>2021-08-30T12:25:37.548Z</time>
      </trkpt>
      <trkpt lat="49.69059" lon="-1.46785">
        <ele>15.73</ele>
        <time>2021-08-30T12:25:40.183Z</time>
      </trkpt>
      <trkpt lat="49.69059" lon="-1.46785">
        <ele>15.73</ele>
        <time>2021-08-30T12:25:42.818Z</time>
      </trkpt>
      <trkpt lat="49.69049" lon="-1.46767">
        <ele>15.25</ele>
        <time>2021-08-30T12:25:45.455Z</time>
      </trkpt>
      <trkpt lat="49.69049" lon="-1.46767">
        <ele>15.25</ele>
        <time>2021-08-30T12:25:48.092Z</time>
      </trkpt>
      <trkpt lat="49.69004" lon="-1.46713">
        <ele>12.96</ele>
        <time>2021-08-30T12:25:50.739Z</time>
      </trkpt>
      <trkpt lat="49.69004" lon="-1.46713">
        <ele>12.96</ele>
        <time>2021-08-30T12:25:53.386Z</time>
      </trkpt>
      <trkpt lat="49.6898" lon="-1.46679">
        <ele>12.54</ele>
        <time>2021-08-30T12:25:56.038Z</time>
      </trkpt>
      <trkpt lat="49.6898" lon="-1.46679">
        <ele>12.54</ele>
        <time>2021-08-30T12:25:58.690Z</time>
      </trkpt>
      <trkpt lat="49.68948" lon="-1.46625">
        <ele>12.95</ele>
        <time>2021-08-30T12:26:01.349Z</time>
      </trkpt>
      <trkpt lat="49.68948" lon="-1.46625">
        <ele>12.95</ele>
        <time>2021-08-30T12:26:04.008Z</time>
      </trkpt>
      <trkpt lat="49.68941" lon="-1.46607">
        <ele>12.95</ele>
        <time>2021-08-30T12:26:06.670Z</time>
      </trkpt>
      <trkpt lat="49.68941" lon="-1.46607">
        <ele>12.95</ele>
        <time>2021-08-30T12:26:09.332Z</time>
      </trkpt>
      <trkpt lat="49.6894" lon="-1.46591">
        <ele>12.74</ele>
        <time>2021-08-30T12:26:11.995Z</time>
      </trkpt>
      <trkpt lat="49.6894" lon="-1.46591">
        <ele>12.74</ele>
        <time>2021-08-30T12:26:14.658Z</time>
      </trkpt>
      <trkpt lat="49.68942" lon="-1.46577">
        <ele>12.74</ele>
        <time>2021-08-30T12:26:17.323Z</time>
      </trkpt>
      <trkpt lat="49.68942" lon="-1.46577">
        <ele>12.74</ele>
        <time>2021-08-30T12:26:19.988Z</time>
      </trkpt>
      <trkpt lat="49.68956" lon="-1.46533">
        <ele>12.63</ele>
        <time>2021-08-30T12:26:22.658Z</time>
      </trkpt>
      <trkpt lat="49.68956" lon="-1.46533">
        <ele>12.63</ele>
        <time>2021-08-30T12:26:25.328Z</time>
      </trkpt>
      <trkpt lat="49.68974" lon="-1.46486">
        <ele>12.5</ele>
        <time>2021-08-30T12:26:28.004Z</time>
      </trkpt>
      <trkpt lat="49.68974" lon="-1.46486">
        <ele>12.5</ele>
        <time>2021-08-30T12:26:30.680Z</time>
      </trkpt>
      <trkpt lat="49.69014" lon="-1.46418">
        <ele>12.65</ele>
        <time>2021-08-30T12:26:33.365Z</time>
      </trkpt>
      <trkpt lat="49.69014" lon="-1.46418">
        <ele>12.65</ele>
        <time>2021-08-30T12:26:36.050Z</time>
      </trkpt>
      <trkpt lat="49.69044" lon="-1.46371">
        <ele>13.27</ele>
        <time>2021-08-30T12:26:38.742Z</time>
      </trkpt>
      <trkpt lat="49.69044" lon="-1.46371">
        <ele>13.27</ele>
        <time>2021-08-30T12:26:41.434Z</time>
      </trkpt>
      <trkpt lat="49.69046" lon="-1.46361">
        <ele>12.85</ele>
        <time>2021-08-30T12:26:44.127Z</time>
      </trkpt>
      <trkpt lat="49.69046" lon="-1.46361">
        <ele>12.85</ele>
        <time>2021-08-30T12:26:46.820Z</time>
      </trkpt>
      <trkpt lat="49.68882" lon="-1.46299">
        <ele>14.42</ele>
        <time>2021-08-30T12:26:49.540Z</time>
      </trkpt>
      <trkpt lat="49.68882" lon="-1.46299">
        <ele>14.42</ele>
        <time>2021-08-30T12:26:52.260Z</time>
      </trkpt>
      <trkpt lat="49.68843" lon="-1.4628">
        <ele>14.99</ele>
        <time>2021-08-30T12:26:54.987Z</time>
      </trkpt>
      <trkpt lat="49.68843" lon="-1.4628">
        <ele>14.99</ele>
        <time>2021-08-30T12:26:57.714Z</time>
      </trkpt>
      <trkpt lat="49.688" lon="-1.46245">
        <ele>15.7</ele>
        <time>2021-08-30T12:27:00.448Z</time>
      </trkpt>
      <trkpt lat="49.688" lon="-1.46245">
        <ele>15.7</ele>
        <time>2021-08-30T12:27:03.182Z</time>
      </trkpt>
      <trkpt lat="49.68742" lon="-1.46211">
        <ele>16.04</ele>
        <time>2021-08-30T12:27:05.926Z</time>
      </trkpt>
      <trkpt lat="49.68742" lon="-1.46211">
        <ele>16.04</ele>
        <time>2021-08-30T12:27:08.670Z</time>
      </trkpt>
      <trkpt lat="49.68714" lon="-1.46181">
        <ele>17.02</ele>
        <time>2021-08-30T12:27:11.420Z</time>
      </trkpt>
      <trkpt lat="49.68714" lon="-1.46181">
        <ele>17.02</ele>
        <time>2021-08-30T12:27:14.170Z</time>
      </trkpt>
      <trkpt lat="49.6867" lon="-1.46128">
        <ele>19.1</ele>
        <time>2021-08-30T12:27:16.929Z</time>
      </trkpt>
      <trkpt lat="49.6867" lon="-1.46128">
        <ele>19.1</ele>
        <time>2021-08-30T12:27:19.688Z</time>
      </trkpt>
      <trkpt lat="49.687" lon="-1.4607">
        <ele>21.63</ele>
        <time>2021-08-30T12:27:22.454Z</time>
      </trkpt>
      <trkpt lat="49.687" lon="-1.4607">
        <ele>21.63</ele>
        <time>2021-08-30T12:27:25.220Z</time>
      </trkpt>
      <trkpt lat="49.68708" lon="-1.4604">
        <ele>21.83</ele>
        <time>2021-08-30T12:27:27.990Z</time>
      </trkpt>
      <trkpt lat="49.68708" lon="-1.4604">
        <ele>21.83</ele>
        <time>2021-08-30T12:27:30.760Z</time>
      </trkpt>
      <trkpt lat="49.6871" lon="-1.46022">
        <ele>21.87</ele>
        <time>2021-08-30T12:27:33.532Z</time>
      </trkpt>
      <trkpt lat="49.6871" lon="-1.46022">
        <ele>21.87</ele>
        <time>2021-08-30T12:27:36.304Z</time>
      </trkpt>
      <trkpt lat="49.68709" lon="-1.4601">
        <ele>22.25</ele>
        <time>2021-08-30T12:27:39.077Z</time>
      </trkpt>
      <trkpt lat="49.68709" lon="-1.4601">
        <ele>22.25</ele>
        <time>2021-08-30T12:27:41.850Z</time>
      </trkpt>
      <trkpt lat="49.68708" lon="-1.46005">
        <ele>22.25</ele>
        <time>2021-08-30T12:27:44.623Z</time>
      </trkpt>
      <trkpt lat="49.68708" lon="-1.46005">
        <ele>22.25</ele>
        <time>2021-08-30T12:27:47.396Z</time>
      </trkpt>
      <trkpt lat="49.68648" lon="-1.45957">
        <ele>24.5</ele>
        <time>2021-08-30T12:27:50.180Z</time>
      </trkpt>
      <trkpt lat="49.68648" lon="-1.45957">
        <ele>24.5</ele>
        <time>2021-08-30T12:27:52.964Z</time>
      </trkpt>
      <trkpt lat="49.68576" lon="-1.4591">
        <ele>30.23</ele>
        <time>2021-08-30T12:27:55.761Z</time>
      </trkpt>
      <trkpt lat="49.68576" lon="-1.4591">
        <ele>30.23</ele>
        <time>2021-08-30T12:27:58.558Z</time>
      </trkpt>
      <trkpt lat="49.68559" lon="-1.45896">
        <ele>31.14</ele>
        <time>2021-08-30T12:28:01.358Z</time>
      </trkpt>
      <trkpt lat="49.68559" lon="-1.45896">
        <ele>31.14</ele>
        <time>2021-08-30T12:28:04.158Z</time>
      </trkpt>
      <trkpt lat="49.68547" lon="-1.45883">
        <ele>33.6</ele>
        <time>2021-08-30T12:28:06.960Z</time>
      </trkpt>
      <trkpt lat="49.68547" lon="-1.45883">
        <ele>33.6</ele>
        <time>2021-08-30T12:28:09.762Z</time>
      </trkpt>
      <trkpt lat="49.68542" lon="-1.45873">
        <ele>34.54</ele>
        <time>2021-08-30T12:28:12.566Z</time>
      </trkpt>
      <trkpt lat="49.68542" lon="-1.45873">
        <ele>34.54</ele>
        <time>2021-08-30T12:28:15.370Z</time>
      </trkpt>
      <trkpt lat="49.68539" lon="-1.45858">
        <ele>35.64</ele>
        <time>2021-08-30T12:28:18.175Z</time>
      </trkpt>
      <trkpt lat="49.68539" lon="-1.45858">
        <ele>35.64</ele>
        <time>2021-08-30T12:28:20.980Z</time>
      </trkpt>
      <trkpt lat="49.68544" lon="-1.45815">
        <ele>37.24</ele>
        <time>2021-08-30T12:28:23.790Z</time>
      </trkpt>
      <trkpt lat="49.68544" lon="-1.45815">
        <ele>37.24</ele>
        <time>2021-08-30T12:28:26.600Z</time>
      </trkpt>
      <trkpt lat="49.68543" lon="-1.45805">
        <ele>39.34</ele>
        <time>2021-08-30T12:28:29.411Z</time>
      </trkpt>
      <trkpt lat="49.68543" lon="-1.45805">
        <ele>39.34</ele>
        <time>2021-08-30T12:28:32.222Z</time>
      </trkpt>
      <trkpt lat="49.68538" lon="-1.45789">
        <ele>39.34</ele>
        <time>2021-08-30T12:28:35.035Z</time>
      </trkpt>
      <trkpt lat="49.68538" lon="-1.45789">
        <ele>39.34</ele>
        <time>2021-08-30T12:28:37.848Z</time>
      </trkpt>
      <trkpt lat="49.68512" lon="-1.45757">
        <ele>41.75</ele>
        <time>2021-08-30T12:28:40.666Z</time>
      </trkpt>
      <trkpt lat="49.68512" lon="-1.45757">
        <ele>41.75</ele>
        <time>2021-08-30T12:28:43.484Z</time>
      </trkpt>
      <trkpt lat="49.68503" lon="-1.45714">
        <ele>41.8</ele>
        <time>2021-08-30T12:28:46.307Z</time>
      </trkpt>
      <trkpt lat="49.68503" lon="-1.45714">
        <ele>41.8</ele>
        <time>2021-08-30T12:28:49.130Z</time>
      </trkpt>
      <trkpt lat="49.68484" lon="-1.45655">
        <ele>41.01</ele>
        <time>2021-08-30T12:28:51.960Z</time>
      </trkpt>
      <trkpt lat="49.68484" lon="-1.45655">
        <ele>41.01</ele>
        <time>2021-08-30T12:28:54.790Z</time>
      </trkpt>
      <trkpt lat="49.68479" lon="-1.45602">
        <ele>40.13</ele>
        <time>2021-08-30T12:28:57.625Z</time>
      </trkpt>
      <trkpt lat="49.68479" lon="-1.45602">
        <ele>40.13</ele>
        <time>2021-08-30T12:29:00.460Z</time>
      </trkpt>
      <trkpt lat="49.6848" lon="-1.45585">
        <ele>40.13</ele>
        <time>2021-08-30T12:29:03.297Z</time>
      </trkpt>
      <trkpt lat="49.6848" lon="-1.45585">
        <ele>40.13</ele>
        <time>2021-08-30T12:29:06.134Z</time>
      </trkpt>
      <trkpt lat="49.68487" lon="-1.45564">
        <ele>38.94</ele>
        <time>2021-08-30T12:29:08.973Z</time>
      </trkpt>
      <trkpt lat="49.68487" lon="-1.45564">
        <ele>38.94</ele>
        <time>2021-08-30T12:29:11.812Z</time>
      </trkpt>
      <trkpt lat="49.68498" lon="-1.45539">
        <ele>38.8</ele>
        <time>2021-08-30T12:29:14.654Z</time>
      </trkpt>
      <trkpt lat="49.68498" lon="-1.45539">
        <ele>38.8</ele>
        <time>2021-08-30T12:29:17.496Z</time>
      </trkpt>
      <trkpt lat="49.68481" lon="-1.45518">
        <ele>38.31</ele>
        <time>2021-08-30T12:29:20.342Z</time>
      </trkpt>
      <trkpt lat="49.68481" lon="-1.45518">
        <ele>38.31</ele>
        <time>2021-08-30T12:29:23.188Z</time>
      </trkpt>
      <trkpt lat="49.68477" lon="-1.4551">
        <ele>38.25</ele>
        <time>2021-08-30T12:29:26.035Z</time>
      </trkpt>
      <trkpt lat="49.68477" lon="-1.4551">
        <ele>38.25</ele>
        <time>2021-08-30T12:29:28.882Z</time>
      </trkpt>
      <trkpt lat="49.68474" lon="-1.45496">
        <ele>38.25</ele>
        <time>2021-08-30T12:29:31.731Z</time>
      </trkpt>
      <trkpt lat="49.68474" lon="-1.45496">
        <ele>38.25</ele>
        <time>2021-08-30T12:29:34.580Z</time>
      </trkpt>
      <trkpt lat="49.68473" lon="-1.45483">
        <ele>38.25</ele>
        <time>2021-08-30T12:29:37.430Z</time>
      </trkpt>
      <trkpt lat="49.68473" lon="-1.45483">
        <ele>38.25</ele>
        <time>2021-08-30T12:29:40.280Z</time>
      </trkpt>
      <trkpt lat="49.68478" lon="-1.45472">
        <ele>38.25</ele>
        <time>2021-08-30T12:29:43.131Z</time>
      </trkpt>
      <trkpt lat="49.68478" lon="-1.45472">
        <ele>38.25</ele>
        <time>2021-08-30T12:29:45.982Z</time>
      </trkpt>
      <trkpt lat="49.68484" lon="-1.45432">
        <ele>37.81</ele>
        <time>2021-08-30T12:29:48.838Z</time>
      </trkpt>
      <trkpt lat="49.68484" lon="-1.45432">
        <ele>37.81</ele>
        <time>2021-08-30T12:29:51.694Z</time>
      </trkpt>
      <trkpt lat="49.68484" lon="-1.454">
        <ele>37.89</ele>
        <time>2021-08-30T12:29:54.553Z</time>
      </trkpt>
      <trkpt lat="49.68484" lon="-1.454">
        <ele>37.89</ele>
        <time>2021-08-30T12:29:57.412Z</time>
      </trkpt>
      <trkpt lat="49.68483" lon="-1.45378">
        <ele>38.43</ele>
        <time>2021-08-30T12:30:00.273Z</time>
      </trkpt>
      <trkpt lat="49.68483" lon="-1.45378">
        <ele>38.43</ele>
        <time>2021-08-30T12:30:03.134Z</time>
      </trkpt>
      <trkpt lat="49.68478" lon="-1.45362">
        <ele>38.85</ele>
        <time>2021-08-30T12:30:05.997Z</time>
      </trkpt>
      <trkpt lat="49.68478" lon="-1.45362">
        <ele>38.85</ele>
        <time>2021-08-30T12:30:08.860Z</time>
      </trkpt>
      <trkpt lat="49.68442" lon="-1.45284">
        <ele>42.29</ele>
        <time>2021-08-30T12:30:11.733Z</time>
      </trkpt>
      <trkpt lat="49.68442" lon="-1.45284">
        <ele>42.29</ele>
        <time>2021-08-30T12:30:14.606Z</time>
      </trkpt>
      <trkpt lat="49.68449" lon="-1.45216">
        <ele>39.3</ele>
        <time>2021-08-30T12:30:17.486Z</time>
      </trkpt>
      <trkpt lat="49.68449" lon="-1.45216">
        <ele>39.3</ele>
        <time>2021-08-30T12:30:20.366Z</time>
      </trkpt>
      <trkpt lat="49.68452" lon="-1.45158">
        <ele>33.16</ele>
        <time>2021-08-30T12:30:23.252Z</time>
      </trkpt>
      <trkpt lat="49.68452" lon="-1.45158">
        <ele>33.16</ele>
        <time>2021-08-30T12:30:26.138Z</time>
      </trkpt>
      <trkpt lat="49.68449" lon="-1.45079">
        <ele>28.16</ele>
        <time>2021-08-30T12:30:29.032Z</time>
      </trkpt>
      <trkpt lat="49.68449" lon="-1.45079">
        <ele>28.16</ele>
        <time>2021-08-30T12:30:31.926Z</time>
      </trkpt>
      <trkpt lat="49.68444" lon="-1.45022">
        <ele>23.19</ele>
        <time>2021-08-30T12:30:34.826Z</time>
      </trkpt>
      <trkpt lat="49.68444" lon="-1.45022">
        <ele>23.19</ele>
        <time>2021-08-30T12:30:37.726Z</time>
      </trkpt>
      <trkpt lat="49.68437" lon="-1.44995">
        <ele>22.25</ele>
        <time>2021-08-30T12:30:40.629Z</time>
      </trkpt>
      <trkpt lat="49.68437" lon="-1.44995">
        <ele>22.25</ele>
        <time>2021-08-30T12:30:43.532Z</time>
      </trkpt>
      <trkpt lat="49.68419" lon="-1.44964">
        <ele>19.62</ele>
        <time>2021-08-30T12:30:46.440Z</time>
      </trkpt>
      <trkpt lat="49.68419" lon="-1.44964">
        <ele>19.62</ele>
        <time>2021-08-30T12:30:49.348Z</time>
      </trkpt>
      <trkpt lat="49.68404" lon="-1.44951">
        <ele>15.99</ele>
        <time>2021-08-30T12:30:52.258Z</time>
      </trkpt>
      <trkpt lat="49.68404" lon="-1.44951">
        <ele>15.99</ele>
        <time>2021-08-30T12:30:55.168Z</time>
      </trkpt>
      <trkpt lat="49.68378" lon="-1.44933">
        <ele>15.23</ele>
        <time>2021-08-30T12:30:58.083Z</time>
      </trkpt>
      <trkpt lat="49.68378" lon="-1.44933">
        <ele>15.23</ele>
        <time>2021-08-30T12:31:00.998Z</time>
      </trkpt>
      <trkpt lat="49.68341" lon="-1.44897">
        <ele>11.04</ele>
        <time>2021-08-30T12:31:03.920Z</time>
      </trkpt>
      <trkpt lat="49.68341" lon="-1.44897">
        <ele>11.04</ele>
        <time>2021-08-30T12:31:06.842Z</time>
      </trkpt>
      <trkpt lat="49.68326" lon="-1.44872">
        <ele>8.97</ele>
        <time>2021-08-30T12:31:09.768Z</time>
      </trkpt>
      <trkpt lat="49.68326" lon="-1.44872">
        <ele>8.97</ele>
        <time>2021-08-30T12:31:12.694Z</time>
      </trkpt>
      <trkpt lat="49.68287" lon="-1.44778">
        <ele>6.2</ele>
        <time>2021-08-30T12:31:15.631Z</time>
      </trkpt>
      <trkpt lat="49.68287" lon="-1.44778">
        <ele>6.2</ele>
        <time>2021-08-30T12:31:18.568Z</time>
      </trkpt>
      <trkpt lat="49.68278" lon="-1.44741">
        <ele>6.21</ele>
        <time>2021-08-30T12:31:21.509Z</time>
      </trkpt>
      <trkpt lat="49.68278" lon="-1.44741">
        <ele>6.21</ele>
        <time>2021-08-30T12:31:24.450Z</time>
      </trkpt>
      <trkpt lat="49.68276" lon="-1.44705">
        <ele>6.39</ele>
        <time>2021-08-30T12:31:27.395Z</time>
      </trkpt>
      <trkpt lat="49.68276" lon="-1.44705">
        <ele>6.39</ele>
        <time>2021-08-30T12:31:30.340Z</time>
      </trkpt>
      <trkpt lat="49.6828" lon="-1.44679">
        <ele>6.7</ele>
        <time>2021-08-30T12:31:33.288Z</time>
      </trkpt>
      <trkpt lat="49.6828" lon="-1.44679">
        <ele>6.7</ele>
        <time>2021-08-30T12:31:36.236Z</time>
      </trkpt>
      <trkpt lat="49.68302" lon="-1.44633">
        <ele>8.3</ele>
        <time>2021-08-30T12:31:39.190Z</time>
      </trkpt>
      <trkpt lat="49.68302" lon="-1.44633">
        <ele>8.3</ele>
        <time>2021-08-30T12:31:42.144Z</time>
      </trkpt>
      <trkpt lat="49.68378" lon="-1.445">
        <ele>18.2</ele>
        <time>2021-08-30T12:31:45.116Z</time>
      </trkpt>
      <trkpt lat="49.68378" lon="-1.445">
        <ele>18.2</ele>
        <time>2021-08-30T12:31:48.088Z</time>
      </trkpt>
      <trkpt lat="49.68491" lon="-1.44368">
        <ele>27.61</ele>
        <time>2021-08-30T12:31:51.083Z</time>
      </trkpt>
      <trkpt lat="49.68491" lon="-1.44368">
        <ele>27.61</ele>
        <time>2021-08-30T12:31:54.078Z</time>
      </trkpt>
      <trkpt lat="49.68557" lon="-1.44338">
        <ele>29.22</ele>
        <time>2021-08-30T12:31:57.084Z</time>
      </trkpt>
      <trkpt lat="49.68557" lon="-1.44338">
        <ele>29.22</ele>
        <time>2021-08-30T12:32:00.090Z</time>
      </trkpt>
      <trkpt lat="49.68572" lon="-1.44334">
        <ele>29.29</ele>
        <time>2021-08-30T12:32:03.098Z</time>
      </trkpt>
      <trkpt lat="49.68572" lon="-1.44334">
        <ele>29.29</ele>
        <time>2021-08-30T12:32:06.106Z</time>
      </trkpt>
      <trkpt lat="49.68616" lon="-1.44337">
        <ele>28.89</ele>
        <time>2021-08-30T12:32:09.121Z</time>
      </trkpt>
      <trkpt lat="49.68616" lon="-1.44337">
        <ele>28.89</ele>
        <time>2021-08-30T12:32:12.136Z</time>
      </trkpt>
      <trkpt lat="49.68634" lon="-1.4434">
        <ele>28.63</ele>
        <time>2021-08-30T12:32:15.154Z</time>
      </trkpt>
      <trkpt lat="49.68634" lon="-1.4434">
        <ele>28.63</ele>
        <time>2021-08-30T12:32:18.172Z</time>
      </trkpt>
      <trkpt lat="49.68691" lon="-1.44369">
        <ele>25.87</ele>
        <time>2021-08-30T12:32:21.200Z</time>
      </trkpt>
      <trkpt lat="49.68691" lon="-1.44369">
        <ele>25.87</ele>
        <time>2021-08-30T12:32:24.228Z</time>
      </trkpt>
      <trkpt lat="49.6877" lon="-1.44419">
        <ele>21.97</ele>
        <time>2021-08-30T12:32:27.270Z</time>
      </trkpt>
      <trkpt lat="49.6877" lon="-1.44419">
        <ele>21.97</ele>
        <time>2021-08-30T12:32:30.312Z</time>
      </trkpt>
      <trkpt lat="49.68823" lon="-1.44439">
        <ele>21.07</ele>
        <time>2021-08-30T12:32:33.362Z</time>
      </trkpt>
      <trkpt lat="49.68823" lon="-1.44439">
        <ele>21.07</ele>
        <time>2021-08-30T12:32:36.412Z</time>
      </trkpt>
      <trkpt lat="49.68864" lon="-1.44439">
        <ele>21.17</ele>
        <time>2021-08-30T12:32:39.469Z</time>
      </trkpt>
      <trkpt lat="49.68864" lon="-1.44439">
        <ele>21.17</ele>
        <time>2021-08-30T12:32:42.526Z</time>
      </trkpt>
      <trkpt lat="49.68904" lon="-1.44425">
        <ele>21.45</ele>
        <time>2021-08-30T12:32:45.589Z</time>
      </trkpt>
      <trkpt lat="49.68904" lon="-1.44425">
        <ele>21.45</ele>
        <time>2021-08-30T12:32:48.652Z</time>
      </trkpt>
      <trkpt lat="49.68923" lon="-1.44415">
        <ele>21.49</ele>
        <time>2021-08-30T12:32:51.719Z</time>
      </trkpt>
      <trkpt lat="49.68923" lon="-1.44415">
        <ele>21.49</ele>
        <time>2021-08-30T12:32:54.786Z</time>
      </trkpt>
      <trkpt lat="49.68966" lon="-1.44381">
        <ele>21.27</ele>
        <time>2021-08-30T12:32:57.860Z</time>
      </trkpt>
      <trkpt lat="49.68966" lon="-1.44381">
        <ele>21.27</ele>
        <time>2021-08-30T12:33:00.934Z</time>
      </trkpt>
      <trkpt lat="49.68996" lon="-1.44344">
        <ele>21.24</ele>
        <time>2021-08-30T12:33:04.015Z</time>
      </trkpt>
      <trkpt lat="49.68996" lon="-1.44344">
        <ele>21.24</ele>
        <time>2021-08-30T12:33:07.096Z</time>
      </trkpt>
      <trkpt lat="49.69021" lon="-1.443">
        <ele>21.38</ele>
        <time>2021-08-30T12:33:10.183Z</time>
      </trkpt>
      <trkpt lat="49.69021" lon="-1.443">
        <ele>21.38</ele>
        <time>2021-08-30T12:33:13.270Z</time>
      </trkpt>
      <trkpt lat="49.69035" lon="-1.44269">
        <ele>21.53</ele>
        <time>2021-08-30T12:33:16.361Z</time>
      </trkpt>
      <trkpt lat="49.69035" lon="-1.44269">
        <ele>21.53</ele>
        <time>2021-08-30T12:33:19.452Z</time>
      </trkpt>
      <trkpt lat="49.69047" lon="-1.44232">
        <ele>21.42</ele>
        <time>2021-08-30T12:33:22.547Z</time>
      </trkpt>
      <trkpt lat="49.69047" lon="-1.44232">
        <ele>21.42</ele>
        <time>2021-08-30T12:33:25.642Z</time>
      </trkpt>
      <trkpt lat="49.69328" lon="-1.42939">
        <ele>12.54</ele>
        <time>2021-08-30T12:33:28.879Z</time>
      </trkpt>
      <trkpt lat="49.69328" lon="-1.42939">
        <ele>12.54</ele>
        <time>2021-08-30T12:33:32.116Z</time>
      </trkpt>
      <trkpt lat="49.69338" lon="-1.42877">
        <ele>11.91</ele>
        <time>2021-08-30T12:33:35.359Z</time>
      </trkpt>
      <trkpt lat="49.69338" lon="-1.42877">
        <ele>11.91</ele>
        <time>2021-08-30T12:33:38.602Z</time>
      </trkpt>
      <trkpt lat="49.69341" lon="-1.42805">
        <ele>11.5</ele>
        <time>2021-08-30T12:33:41.853Z</time>
      </trkpt>
      <trkpt lat="49.69341" lon="-1.42805">
        <ele>11.5</ele>
        <time>2021-08-30T12:33:45.104Z</time>
      </trkpt>
      <trkpt lat="49.69337" lon="-1.42752">
        <ele>11.11</ele>
        <time>2021-08-30T12:33:48.360Z</time>
      </trkpt>
      <trkpt lat="49.69337" lon="-1.42752">
        <ele>11.11</ele>
        <time>2021-08-30T12:33:51.616Z</time>
      </trkpt>
      <trkpt lat="49.69324" lon="-1.42668">
        <ele>11.62</ele>
        <time>2021-08-30T12:33:54.881Z</time>
      </trkpt>
      <trkpt lat="49.69324" lon="-1.42668">
        <ele>11.62</ele>
        <time>2021-08-30T12:33:58.146Z</time>
      </trkpt>
      <trkpt lat="49.69306" lon="-1.42568">
        <ele>12.83</ele>
        <time>2021-08-30T12:34:01.422Z</time>
      </trkpt>
      <trkpt lat="49.69306" lon="-1.42568">
        <ele>12.83</ele>
        <time>2021-08-30T12:34:04.698Z</time>
      </trkpt>
      <trkpt lat="49.69302" lon="-1.42528">
        <ele>13.21</ele>
        <time>2021-08-30T12:34:07.978Z</time>
      </trkpt>
      <trkpt lat="49.69302" lon="-1.42528">
        <ele>13.21</ele>
        <time>2021-08-30T12:34:11.258Z</time>
      </trkpt>
      <trkpt lat="49.69301" lon="-1.42469">
        <ele>13.71</ele>
        <time>2021-08-30T12:34:14.544Z</time>
      </trkpt>
      <trkpt lat="49.69301" lon="-1.42469">
        <ele>13.71</ele>
        <time>2021-08-30T12:34:17.830Z</time>
      </trkpt>
      <trkpt lat="49.69306" lon="-1.42412">
        <ele>14.01</ele>
        <time>2021-08-30T12:34:21.122Z</time>
      </trkpt>
      <trkpt lat="49.69306" lon="-1.42412">
        <ele>14.01</ele>
        <time>2021-08-30T12:34:24.414Z</time>
      </trkpt>
      <trkpt lat="49.69314" lon="-1.42364">
        <ele>14.44</ele>
        <time>2021-08-30T12:34:27.711Z</time>
      </trkpt>
      <trkpt lat="49.69314" lon="-1.42364">
        <ele>14.44</ele>
        <time>2021-08-30T12:34:31.008Z</time>
      </trkpt>
      <trkpt lat="49.69366" lon="-1.42108">
        <ele>14.15</ele>
        <time>2021-08-30T12:34:34.333Z</time>
      </trkpt>
      <trkpt lat="49.69366" lon="-1.42108">
        <ele>14.15</ele>
        <time>2021-08-30T12:34:37.658Z</time>
      </trkpt>
      <trkpt lat="49.69376" lon="-1.42032">
        <ele>12.55</ele>
        <time>2021-08-30T12:34:40.991Z</time>
      </trkpt>
      <trkpt lat="49.69376" lon="-1.42032">
        <ele>12.55</ele>
        <time>2021-08-30T12:34:44.324Z</time>
      </trkpt>
      <trkpt lat="49.6938" lon="-1.41308">
        <ele>23.43</ele>
        <time>2021-08-30T12:34:47.733Z</time>
      </trkpt>
      <trkpt lat="49.6938" lon="-1.41308">
        <ele>23.43</ele>
        <time>2021-08-30T12:34:51.142Z</time>
      </trkpt>
      <trkpt lat="49.69374" lon="-1.41246">
        <ele>23.93</ele>
        <time>2021-08-30T12:34:54.557Z</time>
      </trkpt>
      <trkpt lat="49.69374" lon="-1.41246">
        <ele>23.93</ele>
        <time>2021-08-30T12:34:57.972Z</time>
      </trkpt>
      <trkpt lat="49.69369" lon="-1.41215">
        <ele>24.61</ele>
        <time>2021-08-30T12:35:01.390Z</time>
      </trkpt>
      <trkpt lat="49.69369" lon="-1.41215">
        <ele>24.61</ele>
        <time>2021-08-30T12:35:04.808Z</time>
      </trkpt>
      <trkpt lat="49.69355" lon="-1.41156">
        <ele>25.3</ele>
        <time>2021-08-30T12:35:08.233Z</time>
      </trkpt>
      <trkpt lat="49.69355" lon="-1.41156">
        <ele>25.3</ele>
        <time>2021-08-30T12:35:11.658Z</time>
      </trkpt>
      <trkpt lat="49.69343" lon="-1.41122">
        <ele>25.46</ele>
        <time>2021-08-30T12:35:15.087Z</time>
      </trkpt>
      <trkpt lat="49.69343" lon="-1.41122">
        <ele>25.46</ele>
        <time>2021-08-30T12:35:18.516Z</time>
      </trkpt>
      <trkpt lat="49.69334" lon="-1.4109">
        <ele>25.5</ele>
        <time>2021-08-30T12:35:21.949Z</time>
      </trkpt>
      <trkpt lat="49.69334" lon="-1.4109">
        <ele>25.5</ele>
        <time>2021-08-30T12:35:25.382Z</time>
      </trkpt>
      <trkpt lat="49.69325" lon="-1.41041">
        <ele>25.38</ele>
        <time>2021-08-30T12:35:28.820Z</time>
      </trkpt>
      <trkpt lat="49.69325" lon="-1.41041">
        <ele>25.38</ele>
        <time>2021-08-30T12:35:32.258Z</time>
      </trkpt>
      <trkpt lat="49.6932" lon="-1.40975">
        <ele>25</ele>
        <time>2021-08-30T12:35:35.703Z</time>
      </trkpt>
      <trkpt lat="49.6932" lon="-1.40975">
        <ele>25</ele>
        <time>2021-08-30T12:35:39.148Z</time>
      </trkpt>
      <trkpt lat="49.69321" lon="-1.40934">
        <ele>25</ele>
        <time>2021-08-30T12:35:42.597Z</time>
      </trkpt>
      <trkpt lat="49.69321" lon="-1.40934">
        <ele>25</ele>
        <time>2021-08-30T12:35:46.046Z</time>
      </trkpt>
      <trkpt lat="49.6933" lon="-1.40868">
        <ele>24.48</ele>
        <time>2021-08-30T12:35:49.502Z</time>
      </trkpt>
      <trkpt lat="49.6933" lon="-1.40868">
        <ele>24.48</ele>
        <time>2021-08-30T12:35:52.958Z</time>
      </trkpt>
      <trkpt lat="49.69341" lon="-1.40826">
        <ele>24.23</ele>
        <time>2021-08-30T12:35:56.419Z</time>
      </trkpt>
      <trkpt lat="49.69341" lon="-1.40826">
        <ele>24.23</ele>
        <time>2021-08-30T12:35:59.880Z</time>
      </trkpt>
      <trkpt lat="49.6939" lon="-1.4068">
        <ele>21.26</ele>
        <time>2021-08-30T12:36:03.358Z</time>
      </trkpt>
      <trkpt lat="49.6939" lon="-1.4068">
        <ele>21.26</ele>
        <time>2021-08-30T12:36:06.836Z</time>
      </trkpt>
      <trkpt lat="49.69401" lon="-1.40629">
        <ele>19.84</ele>
        <time>2021-08-30T12:36:10.319Z</time>
      </trkpt>
      <trkpt lat="49.69401" lon="-1.40629">
        <ele>19.84</ele>
        <time>2021-08-30T12:36:13.802Z</time>
      </trkpt>
      <trkpt lat="49.69409" lon="-1.40571">
        <ele>18.2</ele>
        <time>2021-08-30T12:36:17.292Z</time>
      </trkpt>
      <trkpt lat="49.69409" lon="-1.40571">
        <ele>18.2</ele>
        <time>2021-08-30T12:36:20.782Z</time>
      </trkpt>
      <trkpt lat="49.69411" lon="-1.40504">
        <ele>17.22</ele>
        <time>2021-08-30T12:36:24.279Z</time>
      </trkpt>
      <trkpt lat="49.69411" lon="-1.40504">
        <ele>17.22</ele>
        <time>2021-08-30T12:36:27.776Z</time>
      </trkpt>
      <trkpt lat="49.69407" lon="-1.40459">
        <ele>16.89</ele>
        <time>2021-08-30T12:36:31.277Z</time>
      </trkpt>
      <trkpt lat="49.69407" lon="-1.40459">
        <ele>16.89</ele>
        <time>2021-08-30T12:36:34.778Z</time>
      </trkpt>
      <trkpt lat="49.69401" lon="-1.40417">
        <ele>16.8</ele>
        <time>2021-08-30T12:36:38.284Z</time>
      </trkpt>
      <trkpt lat="49.69401" lon="-1.40417">
        <ele>16.8</ele>
        <time>2021-08-30T12:36:41.790Z</time>
      </trkpt>
      <trkpt lat="49.69371" lon="-1.40261">
        <ele>14.87</ele>
        <time>2021-08-30T12:36:45.313Z</time>
      </trkpt>
      <trkpt lat="49.69371" lon="-1.40261">
        <ele>14.87</ele>
        <time>2021-08-30T12:36:48.836Z</time>
      </trkpt>
      <trkpt lat="49.69366" lon="-1.40227">
        <ele>14.87</ele>
        <time>2021-08-30T12:36:52.362Z</time>
      </trkpt>
      <trkpt lat="49.69366" lon="-1.40227">
        <ele>14.87</ele>
        <time>2021-08-30T12:36:55.888Z</time>
      </trkpt>
      <trkpt lat="49.69366" lon="-1.40192">
        <ele>14.6</ele>
        <time>2021-08-30T12:36:59.418Z</time>
      </trkpt>
      <trkpt lat="49.69366" lon="-1.40192">
        <ele>14.6</ele>
        <time>2021-08-30T12:37:02.948Z</time>
      </trkpt>
      <trkpt lat="49.69368" lon="-1.40168">
        <ele>14.23</ele>
        <time>2021-08-30T12:37:06.480Z</time>
      </trkpt>
      <trkpt lat="49.69368" lon="-1.40168">
        <ele>14.23</ele>
        <time>2021-08-30T12:37:10.012Z</time>
      </trkpt>
      <trkpt lat="49.69386" lon="-1.40095">
        <ele>14.08</ele>
        <time>2021-08-30T12:37:13.553Z</time>
      </trkpt>
      <trkpt lat="49.69386" lon="-1.40095">
        <ele>14.08</ele>
        <time>2021-08-30T12:37:17.094Z</time>
      </trkpt>
      <trkpt lat="49.69496" lon="-1.39837">
        <ele>13.65</ele>
        <time>2021-08-30T12:37:20.667Z</time>
      </trkpt>
      <trkpt lat="49.69496" lon="-1.39837">
        <ele>13.65</ele>
        <time>2021-08-30T12:37:24.240Z</time>
      </trkpt>
      <trkpt lat="49.69505" lon="-1.39806">
        <ele>10.96</ele>
        <time>2021-08-30T12:37:27.816Z</time>
      </trkpt>
      <trkpt lat="49.69505" lon="-1.39806">
        <ele>10.96</ele>
        <time>2021-08-30T12:37:31.392Z</time>
      </trkpt>
      <trkpt lat="49.69509" lon="-1.39775">
        <ele>10.09</ele>
        <time>2021-08-30T12:37:34.971Z</time>
      </trkpt>
      <trkpt lat="49.69509" lon="-1.39775">
        <ele>10.09</ele>
        <time>2021-08-30T12:37:38.550Z</time>
      </trkpt>
      <trkpt lat="49.6951" lon="-1.39748">
        <ele>7.88</ele>
        <time>2021-08-30T12:37:42.132Z</time>
      </trkpt>
      <trkpt lat="49.6951" lon="-1.39748">
        <ele>7.88</ele>
        <time>2021-08-30T12:37:45.714Z</time>
      </trkpt>
      <trkpt lat="49.69504" lon="-1.39708">
        <ele>6.97</ele>
        <time>2021-08-30T12:37:49.300Z</time>
      </trkpt>
      <trkpt lat="49.69504" lon="-1.39708">
        <ele>6.97</ele>
        <time>2021-08-30T12:37:52.886Z</time>
      </trkpt>
      <trkpt lat="49.69467" lon="-1.39593">
        <ele>3.96</ele>
        <time>2021-08-30T12:37:56.486Z</time>
      </trkpt>
      <trkpt lat="49.69467" lon="-1.39593">
        <ele>3.96</ele>
        <time>2021-08-30T12:38:00.086Z</time>
      </trkpt>
      <trkpt lat="49.69456" lon="-1.39545">
        <ele>4.09</ele>
        <time>2021-08-30T12:38:03.691Z</time>
      </trkpt>
      <trkpt lat="49.69456" lon="-1.39545">
        <ele>4.09</ele>
        <time>2021-08-30T12:38:07.296Z</time>
      </trkpt>
      <trkpt lat="49.69453" lon="-1.39485">
        <ele>5.26</ele>
        <time>2021-08-30T12:38:10.907Z</time>
      </trkpt>
      <trkpt lat="49.69453" lon="-1.39485">
        <ele>5.26</ele>
        <time>2021-08-30T12:38:14.518Z</time>
      </trkpt>
      <trkpt lat="49.6946" lon="-1.39416">
        <ele>7.79</ele>
        <time>2021-08-30T12:38:18.137Z</time>
      </trkpt>
      <trkpt lat="49.6946" lon="-1.39416">
        <ele>7.79</ele>
        <time>2021-08-30T12:38:21.756Z</time>
      </trkpt>
      <trkpt lat="49.6947" lon="-1.39339">
        <ele>10.55</ele>
        <time>2021-08-30T12:38:25.383Z</time>
      </trkpt>
      <trkpt lat="49.6947" lon="-1.39339">
        <ele>10.55</ele>
        <time>2021-08-30T12:38:29.010Z</time>
      </trkpt>
      <trkpt lat="49.69482" lon="-1.39297">
        <ele>11.54</ele>
        <time>2021-08-30T12:38:32.642Z</time>
      </trkpt>
      <trkpt lat="49.69482" lon="-1.39297">
        <ele>11.54</ele>
        <time>2021-08-30T12:38:36.274Z</time>
      </trkpt>
      <trkpt lat="49.69506" lon="-1.39234">
        <ele>11.85</ele>
        <time>2021-08-30T12:38:39.913Z</time>
      </trkpt>
      <trkpt lat="49.69506" lon="-1.39234">
        <ele>11.85</ele>
        <time>2021-08-30T12:38:43.552Z</time>
      </trkpt>
      <trkpt lat="49.69609" lon="-1.39042">
        <ele>9.72</ele>
        <time>2021-08-30T12:38:47.217Z</time>
      </trkpt>
      <trkpt lat="49.69609" lon="-1.39042">
        <ele>9.72</ele>
        <time>2021-08-30T12:38:50.882Z</time>
      </trkpt>
      <trkpt lat="49.69676" lon="-1.38899">
        <ele>4.82</ele>
        <time>2021-08-30T12:38:54.565Z</time>
      </trkpt>
      <trkpt lat="49.69676" lon="-1.38899">
        <ele>4.82</ele>
        <time>2021-08-30T12:38:58.248Z</time>
      </trkpt>
      <trkpt lat="49.69694" lon="-1.38854">
        <ele>4.43</ele>
        <time>2021-08-30T12:39:01.937Z</time>
      </trkpt>
      <trkpt lat="49.69694" lon="-1.38854">
        <ele>4.43</ele>
        <time>2021-08-30T12:39:05.626Z</time>
      </trkpt>
      <trkpt lat="49.69711" lon="-1.38799">
        <ele>4.94</ele>
        <time>2021-08-30T12:39:09.321Z</time>
      </trkpt>
      <trkpt lat="49.69711" lon="-1.38799">
        <ele>4.94</ele>
        <time>2021-08-30T12:39:13.016Z</time>
      </trkpt>
      <trkpt lat="49.69722" lon="-1.38755">
        <ele>6.53</ele>
        <time>2021-08-30T12:39:16.716Z</time>
      </trkpt>
      <trkpt lat="49.69722" lon="-1.38755">
        <ele>6.53</ele>
        <time>2021-08-30T12:39:20.416Z</time>
      </trkpt>
      <trkpt lat="49.69732" lon="-1.38663">
        <ele>9.21</ele>
        <time>2021-08-30T12:39:24.126Z</time>
      </trkpt>
      <trkpt lat="49.69732" lon="-1.38663">
        <ele>9.21</ele>
        <time>2021-08-30T12:39:27.836Z</time>
      </trkpt>
      <trkpt lat="49.69733" lon="-1.38623">
        <ele>10.56</ele>
        <time>2021-08-30T12:39:31.550Z</time>
      </trkpt>
      <trkpt lat="49.69733" lon="-1.38623">
        <ele>10.56</ele>
        <time>2021-08-30T12:39:35.264Z</time>
      </trkpt>
      <trkpt lat="49.69724" lon="-1.38535">
        <ele>13.18</ele>
        <time>2021-08-30T12:39:38.987Z</time>
      </trkpt>
      <trkpt lat="49.69724" lon="-1.38535">
        <ele>13.18</ele>
        <time>2021-08-30T12:39:42.710Z</time>
      </trkpt>
      <trkpt lat="49.69695" lon="-1.3839">
        <ele>14.34</ele>
        <time>2021-08-30T12:39:46.449Z</time>
      </trkpt>
      <trkpt lat="49.69695" lon="-1.3839">
        <ele>14.34</ele>
        <time>2021-08-30T12:39:50.188Z</time>
      </trkpt>
      <trkpt lat="49.69679" lon="-1.38324">
        <ele>14.87</ele>
        <time>2021-08-30T12:39:53.934Z</time>
      </trkpt>
      <trkpt lat="49.69679" lon="-1.38324">
        <ele>14.87</ele>
        <time>2021-08-30T12:39:57.680Z</time>
      </trkpt>
      <trkpt lat="49.69669" lon="-1.383">
        <ele>15.01</ele>
        <time>2021-08-30T12:40:01.429Z</time>
      </trkpt>
      <trkpt lat="49.69669" lon="-1.383">
        <ele>15.01</ele>
        <time>2021-08-30T12:40:05.178Z</time>
      </trkpt>
      <trkpt lat="49.69641" lon="-1.38248">
        <ele>15.55</ele>
        <time>2021-08-30T12:40:08.934Z</time>
      </trkpt>
      <trkpt lat="49.69641" lon="-1.38248">
        <ele>15.55</ele>
        <time>2021-08-30T12:40:12.690Z</time>
      </trkpt>
      <trkpt lat="49.69631" lon="-1.38234">
        <ele>15.55</ele>
        <time>2021-08-30T12:40:16.448Z</time>
      </trkpt>
      <trkpt lat="49.69631" lon="-1.38234">
        <ele>15.55</ele>
        <time>2021-08-30T12:40:20.206Z</time>
      </trkpt>
      <trkpt lat="49.69511" lon="-1.38119">
        <ele>15.26</ele>
        <time>2021-08-30T12:40:23.987Z</time>
      </trkpt>
      <trkpt lat="49.69511" lon="-1.38119">
        <ele>15.26</ele>
        <time>2021-08-30T12:40:27.768Z</time>
      </trkpt>
      <trkpt lat="49.69496" lon="-1.38101">
        <ele>15.46</ele>
        <time>2021-08-30T12:40:31.552Z</time>
      </trkpt>
      <trkpt lat="49.69496" lon="-1.38101">
        <ele>15.46</ele>
        <time>2021-08-30T12:40:35.336Z</time>
      </trkpt>
      <trkpt lat="49.69466" lon="-1.38056">
        <ele>16.8</ele>
        <time>2021-08-30T12:40:39.127Z</time>
      </trkpt>
      <trkpt lat="49.69466" lon="-1.38056">
        <ele>16.8</ele>
        <time>2021-08-30T12:40:42.918Z</time>
      </trkpt>
      <trkpt lat="49.69435" lon="-1.3799">
        <ele>17.43</ele>
        <time>2021-08-30T12:40:46.717Z</time>
      </trkpt>
      <trkpt lat="49.69435" lon="-1.3799">
        <ele>17.43</ele>
        <time>2021-08-30T12:40:50.516Z</time>
      </trkpt>
      <trkpt lat="49.69367" lon="-1.37789">
        <ele>17.89</ele>
        <time>2021-08-30T12:40:54.339Z</time>
      </trkpt>
      <trkpt lat="49.69367" lon="-1.37789">
        <ele>17.89</ele>
        <time>2021-08-30T12:40:58.162Z</time>
      </trkpt>
      <trkpt lat="49.69352" lon="-1.37714">
        <ele>17.79</ele>
        <time>2021-08-30T12:41:01.993Z</time>
      </trkpt>
      <trkpt lat="49.69352" lon="-1.37714">
        <ele>17.79</ele>
        <time>2021-08-30T12:41:05.824Z</time>
      </trkpt>
      <trkpt lat="49.69348" lon="-1.37676">
        <ele>17.85</ele>
        <time>2021-08-30T12:41:09.659Z</time>
      </trkpt>
      <trkpt lat="49.69348" lon="-1.37676">
        <ele>17.85</ele>
        <time>2021-08-30T12:41:13.494Z</time>
      </trkpt>
      <trkpt lat="49.69354" lon="-1.37556">
        <ele>17.09</ele>
        <time>2021-08-30T12:41:17.341Z</time>
      </trkpt>
      <trkpt lat="49.69354" lon="-1.37556">
        <ele>17.09</ele>
        <time>2021-08-30T12:41:21.188Z</time>
      </trkpt>
      <trkpt lat="49.69351" lon="-1.37423">
        <ele>14.55</ele>
        <time>2021-08-30T12:41:25.049Z</time>
      </trkpt>
      <trkpt lat="49.69351" lon="-1.37423">
        <ele>14.55</ele>
        <time>2021-08-30T12:41:28.910Z</time>
      </trkpt>
      <trkpt lat="49.69362" lon="-1.37189">
        <ele>8.72</ele>
        <time>2021-08-30T12:41:32.796Z</time>
      </trkpt>
      <trkpt lat="49.69362" lon="-1.37189">
        <ele>8.72</ele>
        <time>2021-08-30T12:41:36.682Z</time>
      </trkpt>
      <trkpt lat="49.69357" lon="-1.37071">
        <ele>7.45</ele>
        <time>2021-08-30T12:41:40.580Z</time>
      </trkpt>
      <trkpt lat="49.69357" lon="-1.37071">
        <ele>7.45</ele>
        <time>2021-08-30T12:41:44.478Z</time>
      </trkpt>
      <trkpt lat="49.6935" lon="-1.37026">
        <ele>7.87</ele>
        <time>2021-08-30T12:41:48.381Z</time>
      </trkpt>
      <trkpt lat="49.6935" lon="-1.37026">
        <ele>7.87</ele>
        <time>2021-08-30T12:41:52.284Z</time>
      </trkpt>
      <trkpt lat="49.6933" lon="-1.36949">
        <ele>10.31</ele>
        <time>2021-08-30T12:41:56.195Z</time>
      </trkpt>
      <trkpt lat="49.6933" lon="-1.36949">
        <ele>10.31</ele>
        <time>2021-08-30T12:42:00.106Z</time>
      </trkpt>
      <trkpt lat="49.6931" lon="-1.36885">
        <ele>13.18</ele>
        <time>2021-08-30T12:42:04.025Z</time>
      </trkpt>
      <trkpt lat="49.6931" lon="-1.36885">
        <ele>13.18</ele>
        <time>2021-08-30T12:42:07.944Z</time>
      </trkpt>
      <trkpt lat="49.69303" lon="-1.36854">
        <ele>14.82</ele>
        <time>2021-08-30T12:42:11.866Z</time>
      </trkpt>
      <trkpt lat="49.69303" lon="-1.36854">
        <ele>14.82</ele>
        <time>2021-08-30T12:42:15.788Z</time>
      </trkpt>
      <trkpt lat="49.6924" lon="-1.36475">
        <ele>24.72</ele>
        <time>2021-08-30T12:42:19.751Z</time>
      </trkpt>
      <trkpt lat="49.6924" lon="-1.36475">
        <ele>24.72</ele>
        <time>2021-08-30T12:42:23.714Z</time>
      </trkpt>
      <trkpt lat="49.69206" lon="-1.36355">
        <ele>25.29</ele>
        <time>2021-08-30T12:42:27.690Z</time>
      </trkpt>
      <trkpt lat="49.69206" lon="-1.36355">
        <ele>25.29</ele>
        <time>2021-08-30T12:42:31.666Z</time>
      </trkpt>
      <trkpt lat="49.69097" lon="-1.36051">
        <ele>27.07</ele>
        <time>2021-08-30T12:42:35.679Z</time>
      </trkpt>
      <trkpt lat="49.69097" lon="-1.36051">
        <ele>27.07</ele>
        <time>2021-08-30T12:42:39.692Z</time>
      </trkpt>
      <trkpt lat="49.69084" lon="-1.35996">
        <ele>26.98</ele>
        <time>2021-08-30T12:42:43.711Z</time>
      </trkpt>
      <trkpt lat="49.69084" lon="-1.35996">
        <ele>26.98</ele>
        <time>2021-08-30T12:42:47.730Z</time>
      </trkpt>
      <trkpt lat="49.69072" lon="-1.35935">
        <ele>26.41</ele>
        <time>2021-08-30T12:42:51.755Z</time>
      </trkpt>
      <trkpt lat="49.69072" lon="-1.35935">
        <ele>26.41</ele>
        <time>2021-08-30T12:42:55.780Z</time>
      </trkpt>
      <trkpt lat="49.69068" lon="-1.35906">
        <ele>26.32</ele>
        <time>2021-08-30T12:42:59.808Z</time>
      </trkpt>
      <trkpt lat="49.69068" lon="-1.35906">
        <ele>26.32</ele>
        <time>2021-08-30T12:43:03.836Z</time>
      </trkpt>
      <trkpt lat="49.69069" lon="-1.3587">
        <ele>26.36</ele>
        <time>2021-08-30T12:43:07.868Z</time>
      </trkpt>
      <trkpt lat="49.69069" lon="-1.3587">
        <ele>26.36</ele>
        <time>2021-08-30T12:43:11.900Z</time>
      </trkpt>
      <trkpt lat="49.69072" lon="-1.35833">
        <ele>26.54</ele>
        <time>2021-08-30T12:43:15.936Z</time>
      </trkpt>
      <trkpt lat="49.69072" lon="-1.35833">
        <ele>26.54</ele>
        <time>2021-08-30T12:43:19.972Z</time>
      </trkpt>
      <trkpt lat="49.69094" lon="-1.35724">
        <ele>26.88</ele>
        <time>2021-08-30T12:43:24.020Z</time>
      </trkpt>
      <trkpt lat="49.69094" lon="-1.35724">
        <ele>26.88</ele>
        <time>2021-08-30T12:43:28.068Z</time>
      </trkpt>
      <trkpt lat="49.69098" lon="-1.35677">
        <ele>26.95</ele>
        <time>2021-08-30T12:43:32.121Z</time>
      </trkpt>
      <trkpt lat="49.69098" lon="-1.35677">
        <ele>26.95</ele>
        <time>2021-08-30T12:43:36.174Z</time>
      </trkpt>
      <trkpt lat="49.69106" lon="-1.3524">
        <ele>24.14</ele>
        <time>2021-08-30T12:43:40.272Z</time>
      </trkpt>
      <trkpt lat="49.69106" lon="-1.3524">
        <ele>24.14</ele>
        <time>2021-08-30T12:43:44.370Z</time>
      </trkpt>
      <trkpt lat="49.69142" lon="-1.34948">
        <ele>22.59</ele>
        <time>2021-08-30T12:43:48.499Z</time>
      </trkpt>
      <trkpt lat="49.69142" lon="-1.34948">
        <ele>22.59</ele>
        <time>2021-08-30T12:43:52.628Z</time>
      </trkpt>
      <trkpt lat="49.69143" lon="-1.34912">
        <ele>22.26</ele>
        <time>2021-08-30T12:43:56.761Z</time>
      </trkpt>
      <trkpt lat="49.69143" lon="-1.34912">
        <ele>22.26</ele>
        <time>2021-08-30T12:44:00.894Z</time>
      </trkpt>
      <trkpt lat="49.69142" lon="-1.3487">
        <ele>22.18</ele>
        <time>2021-08-30T12:44:05.031Z</time>
      </trkpt>
      <trkpt lat="49.69142" lon="-1.3487">
        <ele>22.18</ele>
        <time>2021-08-30T12:44:09.168Z</time>
      </trkpt>
      <trkpt lat="49.69127" lon="-1.34664">
        <ele>23.14</ele>
        <time>2021-08-30T12:44:13.327Z</time>
      </trkpt>
      <trkpt lat="49.69127" lon="-1.34664">
        <ele>23.14</ele>
        <time>2021-08-30T12:44:17.486Z</time>
      </trkpt>
      <trkpt lat="49.69129" lon="-1.3457">
        <ele>23.28</ele>
        <time>2021-08-30T12:44:21.654Z</time>
      </trkpt>
      <trkpt lat="49.69129" lon="-1.3457">
        <ele>23.28</ele>
        <time>2021-08-30T12:44:25.822Z</time>
      </trkpt>
      <trkpt lat="49.69137" lon="-1.34515">
        <ele>23.33</ele>
        <time>2021-08-30T12:44:29.996Z</time>
      </trkpt>
      <trkpt lat="49.69137" lon="-1.34515">
        <ele>23.33</ele>
        <time>2021-08-30T12:44:34.170Z</time>
      </trkpt>
      <trkpt lat="49.69164" lon="-1.34414">
        <ele>23.22</ele>
        <time>2021-08-30T12:44:38.356Z</time>
      </trkpt>
      <trkpt lat="49.69164" lon="-1.34414">
        <ele>23.22</ele>
        <time>2021-08-30T12:44:42.542Z</time>
      </trkpt>
      <trkpt lat="49.69173" lon="-1.34369">
        <ele>23.16</ele>
        <time>2021-08-30T12:44:46.733Z</time>
      </trkpt>
      <trkpt lat="49.69173" lon="-1.34369">
        <ele>23.16</ele>
        <time>2021-08-30T12:44:50.924Z</time>
      </trkpt>
      <trkpt lat="49.69177" lon="-1.34331">
        <ele>22.9</ele>
        <time>2021-08-30T12:44:55.119Z</time>
      </trkpt>
      <trkpt lat="49.69177" lon="-1.34331">
        <ele>22.9</ele>
        <time>2021-08-30T12:44:59.314Z</time>
      </trkpt>
      <trkpt lat="49.69179" lon="-1.34256">
        <ele>22.86</ele>
        <time>2021-08-30T12:45:03.516Z</time>
      </trkpt>
      <trkpt lat="49.69179" lon="-1.34256">
        <ele>22.86</ele>
        <time>2021-08-30T12:45:07.718Z</time>
      </trkpt>
      <trkpt lat="49.69177" lon="-1.34214">
        <ele>22.65</ele>
        <time>2021-08-30T12:45:11.925Z</time>
      </trkpt>
      <trkpt lat="49.69177" lon="-1.34214">
        <ele>22.65</ele>
        <time>2021-08-30T12:45:16.132Z</time>
      </trkpt>
      <trkpt lat="49.69171" lon="-1.34173">
        <ele>22.39</ele>
        <time>2021-08-30T12:45:20.343Z</time>
      </trkpt>
      <trkpt lat="49.69171" lon="-1.34173">
        <ele>22.39</ele>
        <time>2021-08-30T12:45:24.554Z</time>
      </trkpt>
      <trkpt lat="49.69156" lon="-1.34112">
        <ele>22.2</ele>
        <time>2021-08-30T12:45:28.772Z</time>
      </trkpt>
      <trkpt lat="49.69156" lon="-1.34112">
        <ele>22.2</ele>
        <time>2021-08-30T12:45:32.990Z</time>
      </trkpt>
      <trkpt lat="49.6914" lon="-1.34057">
        <ele>21.51</ele>
        <time>2021-08-30T12:45:37.214Z</time>
      </trkpt>
      <trkpt lat="49.6914" lon="-1.34057">
        <ele>21.51</ele>
        <time>2021-08-30T12:45:41.438Z</time>
      </trkpt>
      <trkpt lat="49.69135" lon="-1.34026">
        <ele>21.51</ele>
        <time>2021-08-30T12:45:45.665Z</time>
      </trkpt>
      <trkpt lat="49.69135" lon="-1.34026">
        <ele>21.51</ele>
        <time>2021-08-30T12:45:49.892Z</time>
      </trkpt>
      <trkpt lat="49.69133" lon="-1.3399">
        <ele>21.11</ele>
        <time>2021-08-30T12:45:54.123Z</time>
      </trkpt>
      <trkpt lat="49.69133" lon="-1.3399">
        <ele>21.11</ele>
        <time>2021-08-30T12:45:58.354Z</time>
      </trkpt>
      <trkpt lat="49.69134" lon="-1.33955">
        <ele>20.91</ele>
        <time>2021-08-30T12:46:02.589Z</time>
      </trkpt>
      <trkpt lat="49.69134" lon="-1.33955">
        <ele>20.91</ele>
        <time>2021-08-30T12:46:06.824Z</time>
      </trkpt>
      <trkpt lat="49.69134" lon="-1.33878">
        <ele>18.37</ele>
        <time>2021-08-30T12:46:11.067Z</time>
      </trkpt>
      <trkpt lat="49.69134" lon="-1.33878">
        <ele>18.37</ele>
        <time>2021-08-30T12:46:15.310Z</time>
      </trkpt>
      <trkpt lat="49.69122" lon="-1.3382">
        <ele>16.82</ele>
        <time>2021-08-30T12:46:19.559Z</time>
      </trkpt>
      <trkpt lat="49.69122" lon="-1.3382">
        <ele>16.82</ele>
        <time>2021-08-30T12:46:23.808Z</time>
      </trkpt>
      <trkpt lat="49.69102" lon="-1.33773">
        <ele>16.09</ele>
        <time>2021-08-30T12:46:28.063Z</time>
      </trkpt>
      <trkpt lat="49.69102" lon="-1.33773">
        <ele>16.09</ele>
        <time>2021-08-30T12:46:32.318Z</time>
      </trkpt>
      <trkpt lat="49.6908" lon="-1.33729">
        <ele>16.95</ele>
        <time>2021-08-30T12:46:36.579Z</time>
      </trkpt>
      <trkpt lat="49.6908" lon="-1.33729">
        <ele>16.95</ele>
        <time>2021-08-30T12:46:40.840Z</time>
      </trkpt>
      <trkpt lat="49.69063" lon="-1.33684">
        <ele>17.34</ele>
        <time>2021-08-30T12:46:45.106Z</time>
      </trkpt>
      <trkpt lat="49.69063" lon="-1.33684">
        <ele>17.34</ele>
        <time>2021-08-30T12:46:49.372Z</time>
      </trkpt>
      <trkpt lat="49.69052" lon="-1.3364">
        <ele>17.15</ele>
        <time>2021-08-30T12:46:53.643Z</time>
      </trkpt>
      <trkpt lat="49.69052" lon="-1.3364">
        <ele>17.15</ele>
        <time>2021-08-30T12:46:57.914Z</time>
      </trkpt>
      <trkpt lat="49.69032" lon="-1.33542">
        <ele>16.17</ele>
        <time>2021-08-30T12:47:02.196Z</time>
      </trkpt>
      <trkpt lat="49.69032" lon="-1.33542">
        <ele>16.17</ele>
        <time>2021-08-30T12:47:06.478Z</time>
      </trkpt>
      <trkpt lat="49.69025" lon="-1.33522">
        <ele>15.84</ele>
        <time>2021-08-30T12:47:10.762Z</time>
      </trkpt>
      <trkpt lat="49.69025" lon="-1.33522">
        <ele>15.84</ele>
        <time>2021-08-30T12:47:15.046Z</time>
      </trkpt>
      <trkpt lat="49.68991" lon="-1.3345">
        <ele>14.6</ele>
        <time>2021-08-30T12:47:19.339Z</time>
      </trkpt>
      <trkpt lat="49.68991" lon="-1.3345">
        <ele>14.6</ele>
        <time>2021-08-30T12:47:23.632Z</time>
      </trkpt>
      <trkpt lat="49.68914" lon="-1.33218">
        <ele>11.29</ele>
        <time>2021-08-30T12:47:27.952Z</time>
      </trkpt>
      <trkpt lat="49.68914" lon="-1.33218">
        <ele>11.29</ele>
        <time>2021-08-30T12:47:32.272Z</time>
      </trkpt>
      <trkpt lat="49.68897" lon="-1.33145">
        <ele>10.92</ele>
        <time>2021-08-30T12:47:36.600Z</time>
      </trkpt>
      <trkpt lat="49.68897" lon="-1.33145">
        <ele>10.92</ele>
        <time>2021-08-30T12:47:40.928Z</time>
      </trkpt>
      <trkpt lat="49.6888" lon="-1.32993">
        <ele>9.95</ele>
        <time>2021-08-30T12:47:45.273Z</time>
      </trkpt>
      <trkpt lat="49.6888" lon="-1.32993">
        <ele>9.95</ele>
        <time>2021-08-30T12:47:49.618Z</time>
      </trkpt>
      <trkpt lat="49.68825" lon="-1.32657">
        <ele>9.76</ele>
        <time>2021-08-30T12:47:53.999Z</time>
      </trkpt>
      <trkpt lat="49.68825" lon="-1.32657">
        <ele>9.76</ele>
        <time>2021-08-30T12:47:58.380Z</time>
      </trkpt>
      <trkpt lat="49.6881" lon="-1.32603">
        <ele>10.91</ele>
        <time>2021-08-30T12:48:02.767Z</time>
      </trkpt>
      <trkpt lat="49.6881" lon="-1.32603">
        <ele>10.91</ele>
        <time>2021-08-30T12:48:07.154Z</time>
      </trkpt>
      <trkpt lat="49.68798" lon="-1.32573">
        <ele>11.79</ele>
        <time>2021-08-30T12:48:11.544Z</time>
      </trkpt>
      <trkpt lat="49.68798" lon="-1.32573">
        <ele>11.79</ele>
        <time>2021-08-30T12:48:15.934Z</time>
      </trkpt>
      <trkpt lat="49.6868" lon="-1.32349">
        <ele>13.52</ele>
        <time>2021-08-30T12:48:20.354Z</time>
      </trkpt>
      <trkpt lat="49.6868" lon="-1.32349">
        <ele>13.52</ele>
        <time>2021-08-30T12:48:24.774Z</time>
      </trkpt>
      <trkpt lat="49.68662" lon="-1.32296">
        <ele>13.46</ele>
        <time>2021-08-30T12:48:29.200Z</time>
      </trkpt>
      <trkpt lat="49.68662" lon="-1.32296">
        <ele>13.46</ele>
        <time>2021-08-30T12:48:33.626Z</time>
      </trkpt>
      <trkpt lat="49.68595" lon="-1.32006">
        <ele>9.9</ele>
        <time>2021-08-30T12:48:38.084Z</time>
      </trkpt>
      <trkpt lat="49.68595" lon="-1.32006">
        <ele>9.9</ele>
        <time>2021-08-30T12:48:42.542Z</time>
      </trkpt>
      <trkpt lat="49.68585" lon="-1.31909">
        <ele>8.01</ele>
        <time>2021-08-30T12:48:47.011Z</time>
      </trkpt>
      <trkpt lat="49.68585" lon="-1.31909">
        <ele>8.01</ele>
        <time>2021-08-30T12:48:51.480Z</time>
      </trkpt>
      <trkpt lat="49.68586" lon="-1.31847">
        <ele>7.06</ele>
        <time>2021-08-30T12:48:55.955Z</time>
      </trkpt>
      <trkpt lat="49.68586" lon="-1.31847">
        <ele>7.06</ele>
        <time>2021-08-30T12:49:00.430Z</time>
      </trkpt>
      <trkpt lat="49.68594" lon="-1.31745">
        <ele>5.43</ele>
        <time>2021-08-30T12:49:04.916Z</time>
      </trkpt>
      <trkpt lat="49.68594" lon="-1.31745">
        <ele>5.43</ele>
        <time>2021-08-30T12:49:09.402Z</time>
      </trkpt>
      <trkpt lat="49.68594" lon="-1.31691">
        <ele>5.33</ele>
        <time>2021-08-30T12:49:13.893Z</time>
      </trkpt>
      <trkpt lat="49.68594" lon="-1.31691">
        <ele>5.33</ele>
        <time>2021-08-30T12:49:18.384Z</time>
      </trkpt>
      <trkpt lat="49.68592" lon="-1.31661">
        <ele>5.37</ele>
        <time>2021-08-30T12:49:22.879Z</time>
      </trkpt>
      <trkpt lat="49.68592" lon="-1.31661">
        <ele>5.37</ele>
        <time>2021-08-30T12:49:27.374Z</time>
      </trkpt>
      <trkpt lat="49.68588" lon="-1.31638">
        <ele>5.46</ele>
        <time>2021-08-30T12:49:31.871Z</time>
      </trkpt>
      <trkpt lat="49.68588" lon="-1.31638">
        <ele>5.46</ele>
        <time>2021-08-30T12:49:36.368Z</time>
      </trkpt>
      <trkpt lat="49.6858" lon="-1.3161">
        <ele>5.61</ele>
        <time>2021-08-30T12:49:40.868Z</time>
      </trkpt>
      <trkpt lat="49.6858" lon="-1.3161">
        <ele>5.61</ele>
        <time>2021-08-30T12:49:45.368Z</time>
      </trkpt>
      <trkpt lat="49.68569" lon="-1.31582">
        <ele>5.61</ele>
        <time>2021-08-30T12:49:49.872Z</time>
      </trkpt>
      <trkpt lat="49.68569" lon="-1.31582">
        <ele>5.61</ele>
        <time>2021-08-30T12:49:54.376Z</time>
      </trkpt>
      <trkpt lat="49.68451" lon="-1.31349">
        <ele>5.94</ele>
        <time>2021-08-30T12:49:58.910Z</time>
      </trkpt>
      <trkpt lat="49.68451" lon="-1.31349">
        <ele>5.94</ele>
        <time>2021-08-30T12:50:03.444Z</time>
      </trkpt>
      <trkpt lat="49.68429" lon="-1.31299">
        <ele>5.22</ele>
        <time>2021-08-30T12:50:07.985Z</time>
      </trkpt>
      <trkpt lat="49.68429" lon="-1.31299">
        <ele>5.22</ele>
        <time>2021-08-30T12:50:12.526Z</time>
      </trkpt>
      <trkpt lat="49.68364" lon="-1.31139">
        <ele>10.69</ele>
        <time>2021-08-30T12:50:17.086Z</time>
      </trkpt>
      <trkpt lat="49.68364" lon="-1.31139">
        <ele>10.69</ele>
        <time>2021-08-30T12:50:21.646Z</time>
      </trkpt>
      <trkpt lat="49.6835" lon="-1.31094">
        <ele>13.04</ele>
        <time>2021-08-30T12:50:26.211Z</time>
      </trkpt>
      <trkpt lat="49.6835" lon="-1.31094">
        <ele>13.04</ele>
        <time>2021-08-30T12:50:30.776Z</time>
      </trkpt>
      <trkpt lat="49.68346" lon="-1.31073">
        <ele>13.78</ele>
        <time>2021-08-30T12:50:35.344Z</time>
      </trkpt>
      <trkpt lat="49.68346" lon="-1.31073">
        <ele>13.78</ele>
        <time>2021-08-30T12:50:39.912Z</time>
      </trkpt>
      <trkpt lat="49.68342" lon="-1.3103">
        <ele>16.59</ele>
        <time>2021-08-30T12:50:44.484Z</time>
      </trkpt>
      <trkpt lat="49.68342" lon="-1.3103">
        <ele>16.59</ele>
        <time>2021-08-30T12:50:49.056Z</time>
      </trkpt>
      <trkpt lat="49.68367" lon="-1.30723">
        <ele>20.82</ele>
        <time>2021-08-30T12:50:53.660Z</time>
      </trkpt>
      <trkpt lat="49.68367" lon="-1.30723">
        <ele>20.82</ele>
        <time>2021-08-30T12:50:58.264Z</time>
      </trkpt>
      <trkpt lat="49.68379" lon="-1.30667">
        <ele>20.04</ele>
        <time>2021-08-30T12:51:02.874Z</time>
      </trkpt>
      <trkpt lat="49.68379" lon="-1.30667">
        <ele>20.04</ele>
        <time>2021-08-30T12:51:07.484Z</time>
      </trkpt>
      <trkpt lat="49.68409" lon="-1.30576">
        <ele>15.84</ele>
        <time>2021-08-30T12:51:12.105Z</time>
      </trkpt>
      <trkpt lat="49.68409" lon="-1.30576">
        <ele>15.84</ele>
        <time>2021-08-30T12:51:16.726Z</time>
      </trkpt>
      <trkpt lat="49.68418" lon="-1.30539">
        <ele>15.84</ele>
        <time>2021-08-30T12:51:21.351Z</time>
      </trkpt>
      <trkpt lat="49.68418" lon="-1.30539">
        <ele>15.84</ele>
        <time>2021-08-30T12:51:25.976Z</time>
      </trkpt>
      <trkpt lat="49.68425" lon="-1.30505">
        <ele>12.99</ele>
        <time>2021-08-30T12:51:30.605Z</time>
      </trkpt>
      <trkpt lat="49.68425" lon="-1.30505">
        <ele>12.99</ele>
        <time>2021-08-30T12:51:35.234Z</time>
      </trkpt>
      <trkpt lat="49.68433" lon="-1.30444">
        <ele>10.36</ele>
        <time>2021-08-30T12:51:39.869Z</time>
      </trkpt>
      <trkpt lat="49.68433" lon="-1.30444">
        <ele>10.36</ele>
        <time>2021-08-30T12:51:44.504Z</time>
      </trkpt>
      <trkpt lat="49.68437" lon="-1.30379">
        <ele>9.09</ele>
        <time>2021-08-30T12:51:49.146Z</time>
      </trkpt>
      <trkpt lat="49.68437" lon="-1.30379">
        <ele>9.09</ele>
        <time>2021-08-30T12:51:53.788Z</time>
      </trkpt>
      <trkpt lat="49.68434" lon="-1.30125">
        <ele>10.54</ele>
        <time>2021-08-30T12:51:58.457Z</time>
      </trkpt>
      <trkpt lat="49.68434" lon="-1.30125">
        <ele>10.54</ele>
        <time>2021-08-30T12:52:03.126Z</time>
      </trkpt>
      <trkpt lat="49.68453" lon="-1.29681">
        <ele>9.72</ele>
        <time>2021-08-30T12:52:07.841Z</time>
      </trkpt>
      <trkpt lat="49.68453" lon="-1.29681">
        <ele>9.72</ele>
        <time>2021-08-30T12:52:12.556Z</time>
      </trkpt>
      <trkpt lat="49.68454" lon="-1.29627">
        <ele>10.13</ele>
        <time>2021-08-30T12:52:17.276Z</time>
      </trkpt>
      <trkpt lat="49.68454" lon="-1.29627">
        <ele>10.13</ele>
        <time>2021-08-30T12:52:21.996Z</time>
      </trkpt>
      <trkpt lat="49.6845" lon="-1.29495">
        <ele>11.73</ele>
        <time>2021-08-30T12:52:26.730Z</time>
      </trkpt>
      <trkpt lat="49.6845" lon="-1.29495">
        <ele>11.73</ele>
        <time>2021-08-30T12:52:31.464Z</time>
      </trkpt>
      <trkpt lat="49.68453" lon="-1.29449">
        <ele>13.71</ele>
        <time>2021-08-30T12:52:36.203Z</time>
      </trkpt>
      <trkpt lat="49.68453" lon="-1.29449">
        <ele>13.71</ele>
        <time>2021-08-30T12:52:40.942Z</time>
      </trkpt>
      <trkpt lat="49.68469" lon="-1.29373">
        <ele>15.14</ele>
        <time>2021-08-30T12:52:45.689Z</time>
      </trkpt>
      <trkpt lat="49.68469" lon="-1.29373">
        <ele>15.14</ele>
        <time>2021-08-30T12:52:50.436Z</time>
      </trkpt>
      <trkpt lat="49.68491" lon="-1.29363">
        <ele>14.8</ele>
        <time>2021-08-30T12:52:55.187Z</time>
      </trkpt>
      <trkpt lat="49.68491" lon="-1.29363">
        <ele>14.8</ele>
        <time>2021-08-30T12:52:59.938Z</time>
      </trkpt>
      <trkpt lat="49.68577" lon="-1.29278">
        <ele>12.19</ele>
        <time>2021-08-30T12:53:04.705Z</time>
      </trkpt>
      <trkpt lat="49.68577" lon="-1.29278">
        <ele>12.19</ele>
        <time>2021-08-30T12:53:09.472Z</time>
      </trkpt>
      <trkpt lat="49.68646" lon="-1.29193">
        <ele>12.61</ele>
        <time>2021-08-30T12:53:14.253Z</time>
      </trkpt>
      <trkpt lat="49.68646" lon="-1.29193">
        <ele>12.61</ele>
        <time>2021-08-30T12:53:19.034Z</time>
      </trkpt>
      <trkpt lat="49.68777" lon="-1.29003">
        <ele>15.3</ele>
        <time>2021-08-30T12:53:23.844Z</time>
      </trkpt>
      <trkpt lat="49.68777" lon="-1.29003">
        <ele>15.3</ele>
        <time>2021-08-30T12:53:28.654Z</time>
      </trkpt>
      <trkpt lat="49.68863" lon="-1.28898">
        <ele>12.78</ele>
        <time>2021-08-30T12:53:33.482Z</time>
      </trkpt>
      <trkpt lat="49.68863" lon="-1.28898">
        <ele>12.78</ele>
        <time>2021-08-30T12:53:38.310Z</time>
      </trkpt>
      <trkpt lat="49.68873" lon="-1.28878">
        <ele>11.92</ele>
        <time>2021-08-30T12:53:43.140Z</time>
      </trkpt>
      <trkpt lat="49.68873" lon="-1.28878">
        <ele>11.92</ele>
        <time>2021-08-30T12:53:47.970Z</time>
      </trkpt>
      <trkpt lat="49.68981" lon="-1.2878">
        <ele>9.83</ele>
        <time>2021-08-30T12:53:52.821Z</time>
      </trkpt>
      <trkpt lat="49.68981" lon="-1.2878">
        <ele>9.83</ele>
        <time>2021-08-30T12:53:57.672Z</time>
      </trkpt>
      <trkpt lat="49.68996" lon="-1.2881">
        <ele>9.34</ele>
        <time>2021-08-30T12:54:02.526Z</time>
      </trkpt>
      <trkpt lat="49.68996" lon="-1.2881">
        <ele>9.34</ele>
        <time>2021-08-30T12:54:07.380Z</time>
      </trkpt>
      <trkpt lat="49.69022" lon="-1.28841">
        <ele>7.99</ele>
        <time>2021-08-30T12:54:12.240Z</time>
      </trkpt>
      <trkpt lat="49.69022" lon="-1.28841">
        <ele>7.99</ele>
        <time>2021-08-30T12:54:17.100Z</time>
      </trkpt>
      <trkpt lat="49.69102" lon="-1.28912">
        <ele>3.29</ele>
        <time>2021-08-30T12:54:21.974Z</time>
      </trkpt>
      <trkpt lat="49.69102" lon="-1.28912">
        <ele>3.29</ele>
        <time>2021-08-30T12:54:26.848Z</time>
      </trkpt>
      <trkpt lat="49.69118" lon="-1.28935">
        <ele>2.96</ele>
        <time>2021-08-30T12:54:31.726Z</time>
      </trkpt>
      <trkpt lat="49.69118" lon="-1.28935">
        <ele>2.96</ele>
        <time>2021-08-30T12:54:36.604Z</time>
      </trkpt>
      <trkpt lat="49.69128" lon="-1.28937">
        <ele>3.36</ele>
        <time>2021-08-30T12:54:41.484Z</time>
      </trkpt>
      <trkpt lat="49.69128" lon="-1.28937">
        <ele>3.36</ele>
        <time>2021-08-30T12:54:46.364Z</time>
      </trkpt>
      <trkpt lat="49.6916" lon="-1.28876">
        <ele>5.37</ele>
        <time>2021-08-30T12:54:51.252Z</time>
      </trkpt>
      <trkpt lat="49.6916" lon="-1.28876">
        <ele>5.37</ele>
        <time>2021-08-30T12:54:56.140Z</time>
      </trkpt>
      <trkpt lat="49.69187" lon="-1.28817">
        <ele>6.58</ele>
        <time>2021-08-30T12:55:01.035Z</time>
      </trkpt>
      <trkpt lat="49.69187" lon="-1.28817">
        <ele>6.58</ele>
        <time>2021-08-30T12:55:05.930Z</time>
      </trkpt>
      <trkpt lat="49.69244" lon="-1.28725">
        <ele>7.76</ele>
        <time>2021-08-30T12:55:10.838Z</time>
      </trkpt>
      <trkpt lat="49.69244" lon="-1.28725">
        <ele>7.76</ele>
        <time>2021-08-30T12:55:15.746Z</time>
      </trkpt>
      <trkpt lat="49.69248" lon="-1.28712">
        <ele>8.33</ele>
        <time>2021-08-30T12:55:20.656Z</time>
      </trkpt>
      <trkpt lat="49.69248" lon="-1.28712">
        <ele>8.33</ele>
        <time>2021-08-30T12:55:25.566Z</time>
      </trkpt>
      <trkpt lat="49.69252" lon="-1.28691">
        <ele>8.52</ele>
        <time>2021-08-30T12:55:30.478Z</time>
      </trkpt>
      <trkpt lat="49.69252" lon="-1.28691">
        <ele>8.52</ele>
        <time>2021-08-30T12:55:35.390Z</time>
      </trkpt>
      <trkpt lat="49.6926" lon="-1.28674">
        <ele>8.36</ele>
        <time>2021-08-30T12:55:40.304Z</time>
      </trkpt>
      <trkpt lat="49.6926" lon="-1.28674">
        <ele>8.36</ele>
        <time>2021-08-30T12:55:45.218Z</time>
      </trkpt>
      <trkpt lat="49.69264" lon="-1.28667">
        <ele>8.36</ele>
        <time>2021-08-30T12:55:50.133Z</time>
      </trkpt>
      <trkpt lat="49.69264" lon="-1.28667">
        <ele>8.36</ele>
        <time>2021-08-30T12:55:55.048Z</time>
      </trkpt>
      <trkpt lat="49.6927" lon="-1.28658">
        <ele>7.54</ele>
        <time>2021-08-30T12:55:59.965Z</time>
      </trkpt>
      <trkpt lat="49.6927" lon="-1.28658">
        <ele>7.54</ele>
        <time>2021-08-30T12:56:04.882Z</time>
      </trkpt>
      <trkpt lat="49.69291" lon="-1.28647">
        <ele>7.09</ele>
        <time>2021-08-30T12:56:09.802Z</time>
      </trkpt>
      <trkpt lat="49.69291" lon="-1.28647">
        <ele>7.09</ele>
        <time>2021-08-30T12:56:14.722Z</time>
      </trkpt>
      <trkpt lat="49.69301" lon="-1.28637">
        <ele>7.09</ele>
        <time>2021-08-30T12:56:19.644Z</time>
      </trkpt>
      <trkpt lat="49.69301" lon="-1.28637">
        <ele>7.09</ele>
        <time>2021-08-30T12:56:24.566Z</time>
      </trkpt>
      <trkpt lat="49.69315" lon="-1.2861">
        <ele>6.06</ele>
        <time>2021-08-30T12:56:29.492Z</time>
      </trkpt>
      <trkpt lat="49.69315" lon="-1.2861">
        <ele>6.06</ele>
        <time>2021-08-30T12:56:34.418Z</time>
      </trkpt>
      <trkpt lat="49.69329" lon="-1.28576">
        <ele>5.2</ele>
        <time>2021-08-30T12:56:39.348Z</time>
      </trkpt>
      <trkpt lat="49.69329" lon="-1.28576">
        <ele>5.2</ele>
        <time>2021-08-30T12:56:44.278Z</time>
      </trkpt>
      <trkpt lat="49.69335" lon="-1.28526">
        <ele>4.63</ele>
        <time>2021-08-30T12:56:49.213Z</time>
      </trkpt>
      <trkpt lat="49.69335" lon="-1.28526">
        <ele>4.63</ele>
        <time>2021-08-30T12:56:54.148Z</time>
      </trkpt>
      <trkpt lat="49.69335" lon="-1.28451">
        <ele>4.35</ele>
        <time>2021-08-30T12:56:59.091Z</time>
      </trkpt>
      <trkpt lat="49.69335" lon="-1.28451">
        <ele>4.35</ele>
        <time>2021-08-30T12:57:04.034Z</time>
      </trkpt>
      <trkpt lat="49.69341" lon="-1.28407">
        <ele>4.35</ele>
        <time>2021-08-30T12:57:08.982Z</time>
      </trkpt>
      <trkpt lat="49.69341" lon="-1.28407">
        <ele>4.35</ele>
        <time>2021-08-30T12:57:13.930Z</time>
      </trkpt>
      <trkpt lat="49.69404" lon="-1.28179">
        <ele>3.7</ele>
        <time>2021-08-30T12:57:18.903Z</time>
      </trkpt>
      <trkpt lat="49.69404" lon="-1.28179">
        <ele>3.7</ele>
        <time>2021-08-30T12:57:23.876Z</time>
      </trkpt>
      <trkpt lat="49.69409" lon="-1.28149">
        <ele>3.41</ele>
        <time>2021-08-30T12:57:28.853Z</time>
      </trkpt>
      <trkpt lat="49.69409" lon="-1.28149">
        <ele>3.41</ele>
        <time>2021-08-30T12:57:33.830Z</time>
      </trkpt>
      <trkpt lat="49.69411" lon="-1.28119">
        <ele>3.31</ele>
        <time>2021-08-30T12:57:38.810Z</time>
      </trkpt>
      <trkpt lat="49.69411" lon="-1.28119">
        <ele>3.31</ele>
        <time>2021-08-30T12:57:43.790Z</time>
      </trkpt>
      <trkpt lat="49.69407" lon="-1.28071">
        <ele>3.08</ele>
        <time>2021-08-30T12:57:48.775Z</time>
      </trkpt>
      <trkpt lat="49.69407" lon="-1.28071">
        <ele>3.08</ele>
        <time>2021-08-30T12:57:53.760Z</time>
      </trkpt>
      <trkpt lat="49.6941" lon="-1.27959">
        <ele>2.38</ele>
        <time>2021-08-30T12:57:58.756Z</time>
      </trkpt>
      <trkpt lat="49.6941" lon="-1.27959">
        <ele>2.38</ele>
        <time>2021-08-30T12:58:03.752Z</time>
      </trkpt>
      <trkpt lat="49.69409" lon="-1.27953">
        <ele>2.28</ele>
        <time>2021-08-30T12:58:08.749Z</time>
      </trkpt>
      <trkpt lat="49.69409" lon="-1.27953">
        <ele>2.28</ele>
        <time>2021-08-30T12:58:13.746Z</time>
      </trkpt>
      <trkpt lat="49.69405" lon="-1.27946">
        <ele>2.28</ele>
        <time>2021-08-30T12:58:18.744Z</time>
      </trkpt>
      <trkpt lat="49.69405" lon="-1.27946">
        <ele>2.28</ele>
        <time>2021-08-30T12:58:23.742Z</time>
      </trkpt>
      <trkpt lat="49.694" lon="-1.27942">
        <ele>2.27</ele>
        <time>2021-08-30T12:58:28.741Z</time>
      </trkpt>
      <trkpt lat="49.694" lon="-1.27942">
        <ele>2.27</ele>
        <time>2021-08-30T12:58:33.740Z</time>
      </trkpt>
      <trkpt lat="49.69356" lon="-1.27932">
        <ele>2.63</ele>
        <time>2021-08-30T12:58:38.746Z</time>
      </trkpt>
      <trkpt lat="49.69356" lon="-1.27932">
        <ele>2.63</ele>
        <time>2021-08-30T12:58:43.752Z</time>
      </trkpt>
      <trkpt lat="49.69314" lon="-1.27942">
        <ele>2.47</ele>
        <time>2021-08-30T12:58:48.765Z</time>
      </trkpt>
      <trkpt lat="49.69314" lon="-1.27942">
        <ele>2.47</ele>
        <time>2021-08-30T12:58:53.778Z</time>
      </trkpt>
      <trkpt lat="49.69269" lon="-1.27943">
        <ele>2.04</ele>
        <time>2021-08-30T12:58:58.798Z</time>
      </trkpt>
      <trkpt lat="49.69269" lon="-1.27943">
        <ele>2.04</ele>
        <time>2021-08-30T12:59:03.818Z</time>
      </trkpt>
      <trkpt lat="49.69245" lon="-1.27926">
        <ele>2.12</ele>
        <time>2021-08-30T12:59:08.842Z</time>
      </trkpt>
      <trkpt lat="49.69245" lon="-1.27926">
        <ele>2.12</ele>
        <time>2021-08-30T12:59:13.866Z</time>
      </trkpt>
      <trkpt lat="49.69205" lon="-1.27758">
        <ele>2.82</ele>
        <time>2021-08-30T12:59:18.909Z</time>
      </trkpt>
      <trkpt lat="49.69205" lon="-1.27758">
        <ele>2.82</ele>
        <time>2021-08-30T12:59:23.952Z</time>
      </trkpt>
      <trkpt lat="49.69241" lon="-1.27739">
        <ele>2.52</ele>
        <time>2021-08-30T12:59:29.001Z</time>
      </trkpt>
      <trkpt lat="49.69241" lon="-1.27739">
        <ele>2.52</ele>
        <time>2021-08-30T12:59:34.050Z</time>
      </trkpt>
      <trkpt lat="49.69298" lon="-1.27736">
        <ele>2.65</ele>
        <time>2021-08-30T12:59:39.108Z</time>
      </trkpt>
      <trkpt lat="49.69298" lon="-1.27736">
        <ele>2.65</ele>
        <time>2021-08-30T12:59:44.166Z</time>
      </trkpt>
      <trkpt lat="49.69327" lon="-1.27719">
        <ele>2.68</ele>
        <time>2021-08-30T12:59:49.229Z</time>
      </trkpt>
      <trkpt lat="49.69327" lon="-1.27719">
        <ele>2.68</ele>
        <time>2021-08-30T12:59:54.292Z</time>
      </trkpt>
      <trkpt lat="49.69393" lon="-1.27647">
        <ele>2.09</ele>
        <time>2021-08-30T12:59:59.368Z</time>
      </trkpt>
      <trkpt lat="49.69393" lon="-1.27647">
        <ele>2.09</ele>
        <time>2021-08-30T13:00:04.444Z</time>
      </trkpt>
      <trkpt lat="49.69406" lon="-1.27627">
        <ele>2.09</ele>
        <time>2021-08-30T13:00:09.523Z</time>
      </trkpt>
      <trkpt lat="49.69406" lon="-1.27627">
        <ele>2.09</ele>
        <time>2021-08-30T13:00:14.602Z</time>
      </trkpt>
      <trkpt lat="49.6941" lon="-1.27607">
        <ele>2.04</ele>
        <time>2021-08-30T13:00:19.683Z</time>
      </trkpt>
      <trkpt lat="49.6941" lon="-1.27607">
        <ele>2.04</ele>
        <time>2021-08-30T13:00:24.764Z</time>
      </trkpt>
      <trkpt lat="49.69412" lon="-1.27585">
        <ele>2.04</ele>
        <time>2021-08-30T13:00:29.848Z</time>
      </trkpt>
      <trkpt lat="49.69412" lon="-1.27585">
        <ele>2.04</ele>
        <time>2021-08-30T13:00:34.932Z</time>
      </trkpt>
      <trkpt lat="49.69412" lon="-1.27576">
        <ele>2.06</ele>
        <time>2021-08-30T13:00:40.016Z</time>
      </trkpt>
      <trkpt lat="49.69412" lon="-1.27576">
        <ele>2.06</ele>
        <time>2021-08-30T13:00:45.100Z</time>
      </trkpt>
      <trkpt lat="49.69374" lon="-1.27458">
        <ele>1.8</ele>
        <time>2021-08-30T13:00:50.198Z</time>
      </trkpt>
      <trkpt lat="49.69374" lon="-1.27458">
        <ele>1.8</ele>
        <time>2021-08-30T13:00:55.296Z</time>
      </trkpt>
      <trkpt lat="49.69363" lon="-1.27366">
        <ele>2.42</ele>
        <time>2021-08-30T13:01:00.404Z</time>
      </trkpt>
      <trkpt lat="49.69363" lon="-1.27366">
        <ele>2.42</ele>
        <time>2021-08-30T13:01:05.512Z</time>
      </trkpt>
      <trkpt lat="49.69364" lon="-1.27319">
        <ele>2.5</ele>
        <time>2021-08-30T13:01:10.625Z</time>
      </trkpt>
      <trkpt lat="49.69364" lon="-1.27319">
        <ele>2.5</ele>
        <time>2021-08-30T13:01:15.738Z</time>
      </trkpt>
      <trkpt lat="49.69372" lon="-1.27272">
        <ele>2.48</ele>
        <time>2021-08-30T13:01:20.856Z</time>
      </trkpt>
      <trkpt lat="49.69372" lon="-1.27272">
        <ele>2.48</ele>
        <time>2021-08-30T13:01:25.974Z</time>
      </trkpt>
      <trkpt lat="49.69384" lon="-1.27247">
        <ele>2.52</ele>
        <time>2021-08-30T13:01:31.095Z</time>
      </trkpt>
      <trkpt lat="49.69384" lon="-1.27247">
        <ele>2.52</ele>
        <time>2021-08-30T13:01:36.216Z</time>
      </trkpt>
      <trkpt lat="49.69402" lon="-1.27224">
        <ele>2.63</ele>
        <time>2021-08-30T13:01:41.341Z</time>
      </trkpt>
      <trkpt lat="49.69402" lon="-1.27224">
        <ele>2.63</ele>
        <time>2021-08-30T13:01:46.466Z</time>
      </trkpt>
      <trkpt lat="49.69454" lon="-1.27173">
        <ele>2.88</ele>
        <time>2021-08-30T13:01:51.601Z</time>
      </trkpt>
      <trkpt lat="49.69454" lon="-1.27173">
        <ele>2.88</ele>
        <time>2021-08-30T13:01:56.736Z</time>
      </trkpt>
      <trkpt lat="49.69464" lon="-1.27156">
        <ele>2.95</ele>
        <time>2021-08-30T13:02:01.873Z</time>
      </trkpt>
      <trkpt lat="49.69464" lon="-1.27156">
        <ele>2.95</ele>
        <time>2021-08-30T13:02:07.010Z</time>
      </trkpt>
      <trkpt lat="49.6949" lon="-1.27099">
        <ele>2.49</ele>
        <time>2021-08-30T13:02:12.154Z</time>
      </trkpt>
      <trkpt lat="49.6949" lon="-1.27099">
        <ele>2.49</ele>
        <time>2021-08-30T13:02:17.298Z</time>
      </trkpt>
      <trkpt lat="49.69501" lon="-1.27082">
        <ele>2.36</ele>
        <time>2021-08-30T13:02:22.445Z</time>
      </trkpt>
      <trkpt lat="49.69501" lon="-1.27082">
        <ele>2.36</ele>
        <time>2021-08-30T13:02:27.592Z</time>
      </trkpt>
      <trkpt lat="49.69506" lon="-1.27065">
        <ele>2.28</ele>
        <time>2021-08-30T13:02:32.741Z</time>
      </trkpt>
      <trkpt lat="49.69506" lon="-1.27065">
        <ele>2.28</ele>
        <time>2021-08-30T13:02:37.890Z</time>
      </trkpt>
      <trkpt lat="49.69503" lon="-1.26814">
        <ele>2.62</ele>
        <time>2021-08-30T13:02:43.065Z</time>
      </trkpt>
      <trkpt lat="49.69503" lon="-1.26814">
        <ele>2.62</ele>
        <time>2021-08-30T13:02:48.240Z</time>
      </trkpt>
      <trkpt lat="49.69497" lon="-1.26787">
        <ele>2.72</ele>
        <time>2021-08-30T13:02:53.418Z</time>
      </trkpt>
      <trkpt lat="49.69497" lon="-1.26787">
        <ele>2.72</ele>
        <time>2021-08-30T13:02:58.596Z</time>
      </trkpt>
      <trkpt lat="49.69503" lon="-1.26814">
        <ele>2.7</ele>
        <time>2021-08-30T13:03:03.777Z</time>
      </trkpt>
      <trkpt lat="49.69503" lon="-1.26814">
        <ele>2.7</ele>
        <time>2021-08-30T13:03:08.958Z</time>
      </trkpt>
      <trkpt lat="49.69506" lon="-1.27065">
        <ele>2.86</ele>
        <time>2021-08-30T13:03:14.165Z</time>
      </trkpt>
      <trkpt lat="49.69506" lon="-1.27065">
        <ele>2.86</ele>
        <time>2021-08-30T13:03:19.372Z</time>
      </trkpt>
      <trkpt lat="49.69501" lon="-1.27082">
        <ele>2.86</ele>
        <time>2021-08-30T13:03:24.581Z</time>
      </trkpt>
      <trkpt lat="49.69501" lon="-1.27082">
        <ele>2.86</ele>
        <time>2021-08-30T13:03:29.790Z</time>
      </trkpt>
      <trkpt lat="49.6949" lon="-1.27099">
        <ele>2.95</ele>
        <time>2021-08-30T13:03:35.001Z</time>
      </trkpt>
      <trkpt lat="49.6949" lon="-1.27099">
        <ele>2.95</ele>
        <time>2021-08-30T13:03:40.212Z</time>
      </trkpt>
      <trkpt lat="49.69464" lon="-1.27156">
        <ele>2.95</ele>
        <time>2021-08-30T13:03:45.430Z</time>
      </trkpt>
      <trkpt lat="49.69464" lon="-1.27156">
        <ele>2.95</ele>
        <time>2021-08-30T13:03:50.648Z</time>
      </trkpt>
      <trkpt lat="49.69454" lon="-1.27173">
        <ele>2.91</ele>
        <time>2021-08-30T13:03:55.869Z</time>
      </trkpt>
      <trkpt lat="49.69454" lon="-1.27173">
        <ele>2.91</ele>
        <time>2021-08-30T13:04:01.090Z</time>
      </trkpt>
      <trkpt lat="49.69402" lon="-1.27224">
        <ele>2.48</ele>
        <time>2021-08-30T13:04:06.321Z</time>
      </trkpt>
      <trkpt lat="49.69402" lon="-1.27224">
        <ele>2.48</ele>
        <time>2021-08-30T13:04:11.552Z</time>
      </trkpt>
      <trkpt lat="49.69384" lon="-1.27247">
        <ele>2.53</ele>
        <time>2021-08-30T13:04:16.786Z</time>
      </trkpt>
      <trkpt lat="49.69384" lon="-1.27247">
        <ele>2.53</ele>
        <time>2021-08-30T13:04:22.020Z</time>
      </trkpt>
      <trkpt lat="49.69372" lon="-1.27272">
        <ele>2.5</ele>
        <time>2021-08-30T13:04:27.258Z</time>
      </trkpt>
      <trkpt lat="49.69372" lon="-1.27272">
        <ele>2.5</ele>
        <time>2021-08-30T13:04:32.496Z</time>
      </trkpt>
      <trkpt lat="49.69364" lon="-1.27319">
        <ele>2.42</ele>
        <time>2021-08-30T13:04:37.739Z</time>
      </trkpt>
      <trkpt lat="49.69364" lon="-1.27319">
        <ele>2.42</ele>
        <time>2021-08-30T13:04:42.982Z</time>
      </trkpt>
      <trkpt lat="49.69363" lon="-1.27366">
        <ele>1.87</ele>
        <time>2021-08-30T13:04:48.230Z</time>
      </trkpt>
      <trkpt lat="49.69363" lon="-1.27366">
        <ele>1.87</ele>
        <time>2021-08-30T13:04:53.478Z</time>
      </trkpt>
      <trkpt lat="49.69374" lon="-1.27458">
        <ele>1.93</ele>
        <time>2021-08-30T13:04:58.735Z</time>
      </trkpt>
      <trkpt lat="49.69374" lon="-1.27458">
        <ele>1.93</ele>
        <time>2021-08-30T13:05:03.992Z</time>
      </trkpt>
      <trkpt lat="49.69412" lon="-1.27576">
        <ele>2.09</ele>
        <time>2021-08-30T13:05:09.263Z</time>
      </trkpt>
      <trkpt lat="49.69412" lon="-1.27576">
        <ele>2.09</ele>
        <time>2021-08-30T13:05:14.534Z</time>
      </trkpt>
      <trkpt lat="49.69412" lon="-1.27585">
        <ele>2.09</ele>
        <time>2021-08-30T13:05:19.806Z</time>
      </trkpt>
      <trkpt lat="49.69412" lon="-1.27585">
        <ele>2.09</ele>
        <time>2021-08-30T13:05:25.078Z</time>
      </trkpt>
      <trkpt lat="49.6941" lon="-1.27607">
        <ele>2.09</ele>
        <time>2021-08-30T13:05:30.352Z</time>
      </trkpt>
      <trkpt lat="49.6941" lon="-1.27607">
        <ele>2.09</ele>
        <time>2021-08-30T13:05:35.626Z</time>
      </trkpt>
      <trkpt lat="49.69406" lon="-1.27627">
        <ele>2.21</ele>
        <time>2021-08-30T13:05:40.902Z</time>
      </trkpt>
      <trkpt lat="49.69406" lon="-1.27627">
        <ele>2.21</ele>
        <time>2021-08-30T13:05:46.178Z</time>
      </trkpt>
      <trkpt lat="49.69393" lon="-1.27647">
        <ele>2.34</ele>
        <time>2021-08-30T13:05:51.457Z</time>
      </trkpt>
      <trkpt lat="49.69393" lon="-1.27647">
        <ele>2.34</ele>
        <time>2021-08-30T13:05:56.736Z</time>
      </trkpt>
      <trkpt lat="49.69327" lon="-1.27719">
        <ele>2.65</ele>
        <time>2021-08-30T13:06:02.028Z</time>
      </trkpt>
      <trkpt lat="49.69327" lon="-1.27719">
        <ele>2.65</ele>
        <time>2021-08-30T13:06:07.320Z</time>
      </trkpt>
      <trkpt lat="49.69298" lon="-1.27736">
        <ele>2.51</ele>
        <time>2021-08-30T13:06:12.617Z</time>
      </trkpt>
      <trkpt lat="49.69298" lon="-1.27736">
        <ele>2.51</ele>
        <time>2021-08-30T13:06:17.914Z</time>
      </trkpt>
      <trkpt lat="49.69241" lon="-1.27739">
        <ele>2.82</ele>
        <time>2021-08-30T13:06:23.220Z</time>
      </trkpt>
      <trkpt lat="49.69241" lon="-1.27739">
        <ele>2.82</ele>
        <time>2021-08-30T13:06:28.526Z</time>
      </trkpt>
      <trkpt lat="49.69205" lon="-1.27758">
        <ele>3.6</ele>
        <time>2021-08-30T13:06:33.839Z</time>
      </trkpt>
      <trkpt lat="49.69205" lon="-1.27758">
        <ele>3.6</ele>
        <time>2021-08-30T13:06:39.152Z</time>
      </trkpt>
      <trkpt lat="49.69173" lon="-1.27773">
        <ele>4.93</ele>
        <time>2021-08-30T13:06:44.470Z</time>
      </trkpt>
      <trkpt lat="49.69173" lon="-1.27773">
        <ele>4.93</ele>
        <time>2021-08-30T13:06:49.788Z</time>
      </trkpt>
      <trkpt lat="49.69149" lon="-1.27776">
        <ele>5.25</ele>
        <time>2021-08-30T13:06:55.110Z</time>
      </trkpt>
      <trkpt lat="49.69149" lon="-1.27776">
        <ele>5.25</ele>
        <time>2021-08-30T13:07:00.432Z</time>
      </trkpt>
      <trkpt lat="49.69103" lon="-1.27773">
        <ele>5.47</ele>
        <time>2021-08-30T13:07:05.761Z</time>
      </trkpt>
      <trkpt lat="49.69103" lon="-1.27773">
        <ele>5.47</ele>
        <time>2021-08-30T13:07:11.090Z</time>
      </trkpt>
      <trkpt lat="49.69091" lon="-1.27777">
        <ele>5.35</ele>
        <time>2021-08-30T13:07:16.421Z</time>
      </trkpt>
      <trkpt lat="49.69091" lon="-1.27777">
        <ele>5.35</ele>
        <time>2021-08-30T13:07:21.752Z</time>
      </trkpt>
      <trkpt lat="49.68997" lon="-1.27841">
        <ele>5.55</ele>
        <time>2021-08-30T13:07:27.100Z</time>
      </trkpt>
      <trkpt lat="49.68997" lon="-1.27841">
        <ele>5.55</ele>
        <time>2021-08-30T13:07:32.448Z</time>
      </trkpt>
      <trkpt lat="49.68975" lon="-1.27861">
        <ele>5.5</ele>
        <time>2021-08-30T13:07:37.800Z</time>
      </trkpt>
      <trkpt lat="49.68975" lon="-1.27861">
        <ele>5.5</ele>
        <time>2021-08-30T13:07:43.152Z</time>
      </trkpt>
      <trkpt lat="49.68953" lon="-1.27891">
        <ele>5.19</ele>
        <time>2021-08-30T13:07:48.508Z</time>
      </trkpt>
      <trkpt lat="49.68953" lon="-1.27891">
        <ele>5.19</ele>
        <time>2021-08-30T13:07:53.864Z</time>
      </trkpt>
      <trkpt lat="49.68874" lon="-1.28093">
        <ele>6.57</ele>
        <time>2021-08-30T13:07:59.245Z</time>
      </trkpt>
      <trkpt lat="49.68874" lon="-1.28093">
        <ele>6.57</ele>
        <time>2021-08-30T13:08:04.626Z</time>
      </trkpt>
      <trkpt lat="49.6886" lon="-1.282">
        <ele>8.67</ele>
        <time>2021-08-30T13:08:10.018Z</time>
      </trkpt>
      <trkpt lat="49.6886" lon="-1.282">
        <ele>8.67</ele>
        <time>2021-08-30T13:08:15.410Z</time>
      </trkpt>
      <trkpt lat="49.68856" lon="-1.28213">
        <ele>8.52</ele>
        <time>2021-08-30T13:08:20.804Z</time>
      </trkpt>
      <trkpt lat="49.68856" lon="-1.28213">
        <ele>8.52</ele>
        <time>2021-08-30T13:08:26.198Z</time>
      </trkpt>
      <trkpt lat="49.68848" lon="-1.28217">
        <ele>8.52</ele>
        <time>2021-08-30T13:08:31.593Z</time>
      </trkpt>
      <trkpt lat="49.68848" lon="-1.28217">
        <ele>8.52</ele>
        <time>2021-08-30T13:08:36.988Z</time>
      </trkpt>
      <trkpt lat="49.68787" lon="-1.28226">
        <ele>8.72</ele>
        <time>2021-08-30T13:08:42.393Z</time>
      </trkpt>
      <trkpt lat="49.68787" lon="-1.28226">
        <ele>8.72</ele>
        <time>2021-08-30T13:08:47.798Z</time>
      </trkpt>
      <trkpt lat="49.68755" lon="-1.28233">
        <ele>9.25</ele>
        <time>2021-08-30T13:08:53.208Z</time>
      </trkpt>
      <trkpt lat="49.68755" lon="-1.28233">
        <ele>9.25</ele>
        <time>2021-08-30T13:08:58.618Z</time>
      </trkpt>
      <trkpt lat="49.68724" lon="-1.28241">
        <ele>10.42</ele>
        <time>2021-08-30T13:09:04.033Z</time>
      </trkpt>
      <trkpt lat="49.68724" lon="-1.28241">
        <ele>10.42</ele>
        <time>2021-08-30T13:09:09.448Z</time>
      </trkpt>
      <trkpt lat="49.6867" lon="-1.28247">
        <ele>12.22</ele>
        <time>2021-08-30T13:09:14.872Z</time>
      </trkpt>
      <trkpt lat="49.6867" lon="-1.28247">
        <ele>12.22</ele>
        <time>2021-08-30T13:09:20.296Z</time>
      </trkpt>
      <trkpt lat="49.68666" lon="-1.28254">
        <ele>12.22</ele>
        <time>2021-08-30T13:09:25.721Z</time>
      </trkpt>
      <trkpt lat="49.68666" lon="-1.28254">
        <ele>12.22</ele>
        <time>2021-08-30T13:09:31.146Z</time>
      </trkpt>
      <trkpt lat="49.68669" lon="-1.28296">
        <ele>12.36</ele>
        <time>2021-08-30T13:09:36.575Z</time>
      </trkpt>
      <trkpt lat="49.68669" lon="-1.28296">
        <ele>12.36</ele>
        <time>2021-08-30T13:09:42.004Z</time>
      </trkpt>
      <trkpt lat="49.68648" lon="-1.28305">
        <ele>12.03</ele>
        <time>2021-08-30T13:09:47.437Z</time>
      </trkpt>
      <trkpt lat="49.68648" lon="-1.28305">
        <ele>12.03</ele>
        <time>2021-08-30T13:09:52.870Z</time>
      </trkpt>
      <trkpt lat="49.68618" lon="-1.28314">
        <ele>11.71</ele>
        <time>2021-08-30T13:09:58.308Z</time>
      </trkpt>
      <trkpt lat="49.68618" lon="-1.28314">
        <ele>11.71</ele>
        <time>2021-08-30T13:10:03.746Z</time>
      </trkpt>
      <trkpt lat="49.686" lon="-1.28318">
        <ele>10.66</ele>
        <time>2021-08-30T13:10:09.186Z</time>
      </trkpt>
      <trkpt lat="49.686" lon="-1.28318">
        <ele>10.66</ele>
        <time>2021-08-30T13:10:14.626Z</time>
      </trkpt>
      <trkpt lat="49.68577" lon="-1.28295">
        <ele>9.5</ele>
        <time>2021-08-30T13:10:20.071Z</time>
      </trkpt>
      <trkpt lat="49.68577" lon="-1.28295">
        <ele>9.5</ele>
        <time>2021-08-30T13:10:25.516Z</time>
      </trkpt>
      <trkpt lat="49.68556" lon="-1.28278">
        <ele>8.39</ele>
        <time>2021-08-30T13:10:30.965Z</time>
      </trkpt>
      <trkpt lat="49.68556" lon="-1.28278">
        <ele>8.39</ele>
        <time>2021-08-30T13:10:36.414Z</time>
      </trkpt>
      <trkpt lat="49.68542" lon="-1.28269">
        <ele>7.99</ele>
        <time>2021-08-30T13:10:41.865Z</time>
      </trkpt>
      <trkpt lat="49.68542" lon="-1.28269">
        <ele>7.99</ele>
        <time>2021-08-30T13:10:47.316Z</time>
      </trkpt>
      <trkpt lat="49.68522" lon="-1.28261">
        <ele>7.33</ele>
        <time>2021-08-30T13:10:52.770Z</time>
      </trkpt>
      <trkpt lat="49.68522" lon="-1.28261">
        <ele>7.33</ele>
        <time>2021-08-30T13:10:58.224Z</time>
      </trkpt>
      <trkpt lat="49.68484" lon="-1.28235">
        <ele>6.54</ele>
        <time>2021-08-30T13:11:03.685Z</time>
      </trkpt>
      <trkpt lat="49.68484" lon="-1.28235">
        <ele>6.54</ele>
        <time>2021-08-30T13:11:09.146Z</time>
      </trkpt>
      <trkpt lat="49.68438" lon="-1.28108">
        <ele>5.31</ele>
        <time>2021-08-30T13:11:14.622Z</time>
      </trkpt>
      <trkpt lat="49.68438" lon="-1.28108">
        <ele>5.31</ele>
        <time>2021-08-30T13:11:20.098Z</time>
      </trkpt>
      <trkpt lat="49.68368" lon="-1.27967">
        <ele>6.69</ele>
        <time>2021-08-30T13:11:25.593Z</time>
      </trkpt>
      <trkpt lat="49.68368" lon="-1.27967">
        <ele>6.69</ele>
        <time>2021-08-30T13:11:31.088Z</time>
      </trkpt>
      <trkpt lat="49.68276" lon="-1.27796">
        <ele>4.5</ele>
        <time>2021-08-30T13:11:36.606Z</time>
      </trkpt>
      <trkpt lat="49.68276" lon="-1.27796">
        <ele>4.5</ele>
        <time>2021-08-30T13:11:42.124Z</time>
      </trkpt>
      <trkpt lat="49.68221" lon="-1.27709">
        <ele>4.19</ele>
        <time>2021-08-30T13:11:47.654Z</time>
      </trkpt>
      <trkpt lat="49.68221" lon="-1.27709">
        <ele>4.19</ele>
        <time>2021-08-30T13:11:53.184Z</time>
      </trkpt>
      <trkpt lat="49.68165" lon="-1.27627">
        <ele>4.72</ele>
        <time>2021-08-30T13:11:58.727Z</time>
      </trkpt>
      <trkpt lat="49.68165" lon="-1.27627">
        <ele>4.72</ele>
        <time>2021-08-30T13:12:04.270Z</time>
      </trkpt>
      <trkpt lat="49.68043" lon="-1.27461">
        <ele>3.55</ele>
        <time>2021-08-30T13:12:09.839Z</time>
      </trkpt>
      <trkpt lat="49.68043" lon="-1.27461">
        <ele>3.55</ele>
        <time>2021-08-30T13:12:15.408Z</time>
      </trkpt>
      <trkpt lat="49.67981" lon="-1.27382">
        <ele>2.42</ele>
        <time>2021-08-30T13:12:20.990Z</time>
      </trkpt>
      <trkpt lat="49.67981" lon="-1.27382">
        <ele>2.42</ele>
        <time>2021-08-30T13:12:26.572Z</time>
      </trkpt>
      <trkpt lat="49.67878" lon="-1.27285">
        <ele>3.03</ele>
        <time>2021-08-30T13:12:32.173Z</time>
      </trkpt>
      <trkpt lat="49.67878" lon="-1.27285">
        <ele>3.03</ele>
        <time>2021-08-30T13:12:37.774Z</time>
      </trkpt>
      <trkpt lat="49.67843" lon="-1.27255">
        <ele>3.27</ele>
        <time>2021-08-30T13:12:43.381Z</time>
      </trkpt>
      <trkpt lat="49.67843" lon="-1.27255">
        <ele>3.27</ele>
        <time>2021-08-30T13:12:48.988Z</time>
      </trkpt>
      <trkpt lat="49.67816" lon="-1.27237">
        <ele>3.59</ele>
        <time>2021-08-30T13:12:54.600Z</time>
      </trkpt>
      <trkpt lat="49.67816" lon="-1.27237">
        <ele>3.59</ele>
        <time>2021-08-30T13:13:00.212Z</time>
      </trkpt>
      <trkpt lat="49.67784" lon="-1.27225">
        <ele>3.79</ele>
        <time>2021-08-30T13:13:05.829Z</time>
      </trkpt>
      <trkpt lat="49.67784" lon="-1.27225">
        <ele>3.79</ele>
        <time>2021-08-30T13:13:11.446Z</time>
      </trkpt>
      <trkpt lat="49.67642" lon="-1.2722">
        <ele>5.87</ele>
        <time>2021-08-30T13:13:17.086Z</time>
      </trkpt>
      <trkpt lat="49.67642" lon="-1.2722">
        <ele>5.87</ele>
        <time>2021-08-30T13:13:22.726Z</time>
      </trkpt>
      <trkpt lat="49.6761" lon="-1.27213">
        <ele>6.31</ele>
        <time>2021-08-30T13:13:28.371Z</time>
      </trkpt>
      <trkpt lat="49.6761" lon="-1.27213">
        <ele>6.31</ele>
        <time>2021-08-30T13:13:34.016Z</time>
      </trkpt>
      <trkpt lat="49.67526" lon="-1.27159">
        <ele>8.55</ele>
        <time>2021-08-30T13:13:39.676Z</time>
      </trkpt>
      <trkpt lat="49.67526" lon="-1.27159">
        <ele>8.55</ele>
        <time>2021-08-30T13:13:45.336Z</time>
      </trkpt>
      <trkpt lat="49.67486" lon="-1.27129">
        <ele>9.61</ele>
        <time>2021-08-30T13:13:51.003Z</time>
      </trkpt>
      <trkpt lat="49.67486" lon="-1.27129">
        <ele>9.61</ele>
        <time>2021-08-30T13:13:56.670Z</time>
      </trkpt>
      <trkpt lat="49.67442" lon="-1.27109">
        <ele>9.63</ele>
        <time>2021-08-30T13:14:02.344Z</time>
      </trkpt>
      <trkpt lat="49.67442" lon="-1.27109">
        <ele>9.63</ele>
        <time>2021-08-30T13:14:08.018Z</time>
      </trkpt>
      <trkpt lat="49.67399" lon="-1.27095">
        <ele>9.4</ele>
        <time>2021-08-30T13:14:13.699Z</time>
      </trkpt>
      <trkpt lat="49.67399" lon="-1.27095">
        <ele>9.4</ele>
        <time>2021-08-30T13:14:19.380Z</time>
      </trkpt>
      <trkpt lat="49.67361" lon="-1.27088">
        <ele>9.34</ele>
        <time>2021-08-30T13:14:25.067Z</time>
      </trkpt>
      <trkpt lat="49.67361" lon="-1.27088">
        <ele>9.34</ele>
        <time>2021-08-30T13:14:30.754Z</time>
      </trkpt>
      <trkpt lat="49.67326" lon="-1.27078">
        <ele>8.1</ele>
        <time>2021-08-30T13:14:36.447Z</time>
      </trkpt>
      <trkpt lat="49.67326" lon="-1.27078">
        <ele>8.1</ele>
        <time>2021-08-30T13:14:42.140Z</time>
      </trkpt>
      <trkpt lat="49.67304" lon="-1.27054">
        <ele>6.78</ele>
        <time>2021-08-30T13:14:47.837Z</time>
      </trkpt>
      <trkpt lat="49.67304" lon="-1.27054">
        <ele>6.78</ele>
        <time>2021-08-30T13:14:53.534Z</time>
      </trkpt>
      <trkpt lat="49.67279" lon="-1.27017">
        <ele>4.8</ele>
        <time>2021-08-30T13:14:59.237Z</time>
      </trkpt>
      <trkpt lat="49.67279" lon="-1.27017">
        <ele>4.8</ele>
        <time>2021-08-30T13:15:04.940Z</time>
      </trkpt>
      <trkpt lat="49.67235" lon="-1.26921">
        <ele>4.56</ele>
        <time>2021-08-30T13:15:10.655Z</time>
      </trkpt>
      <trkpt lat="49.67235" lon="-1.26921">
        <ele>4.56</ele>
        <time>2021-08-30T13:15:16.370Z</time>
      </trkpt>
      <trkpt lat="49.67221" lon="-1.26895">
        <ele>4.58</ele>
        <time>2021-08-30T13:15:22.089Z</time>
      </trkpt>
      <trkpt lat="49.67221" lon="-1.26895">
        <ele>4.58</ele>
        <time>2021-08-30T13:15:27.808Z</time>
      </trkpt>
      <trkpt lat="49.6719" lon="-1.26854">
        <ele>4.7</ele>
        <time>2021-08-30T13:15:33.533Z</time>
      </trkpt>
      <trkpt lat="49.6719" lon="-1.26854">
        <ele>4.7</ele>
        <time>2021-08-30T13:15:39.258Z</time>
      </trkpt>
      <trkpt lat="49.67081" lon="-1.26743">
        <ele>4.38</ele>
        <time>2021-08-30T13:15:45.004Z</time>
      </trkpt>
      <trkpt lat="49.67081" lon="-1.26743">
        <ele>4.38</ele>
        <time>2021-08-30T13:15:50.750Z</time>
      </trkpt>
      <trkpt lat="49.67065" lon="-1.26714">
        <ele>4.32</ele>
        <time>2021-08-30T13:15:56.500Z</time>
      </trkpt>
      <trkpt lat="49.67065" lon="-1.26714">
        <ele>4.32</ele>
        <time>2021-08-30T13:16:02.250Z</time>
      </trkpt>
      <trkpt lat="49.67053" lon="-1.26698">
        <ele>4.02</ele>
        <time>2021-08-30T13:16:08.003Z</time>
      </trkpt>
      <trkpt lat="49.67053" lon="-1.26698">
        <ele>4.02</ele>
        <time>2021-08-30T13:16:13.756Z</time>
      </trkpt>
      <trkpt lat="49.67044" lon="-1.26695">
        <ele>3.94</ele>
        <time>2021-08-30T13:16:19.510Z</time>
      </trkpt>
      <trkpt lat="49.67044" lon="-1.26695">
        <ele>3.94</ele>
        <time>2021-08-30T13:16:25.264Z</time>
      </trkpt>
      <trkpt lat="49.67005" lon="-1.26624">
        <ele>3.78</ele>
        <time>2021-08-30T13:16:31.028Z</time>
      </trkpt>
      <trkpt lat="49.67005" lon="-1.26624">
        <ele>3.78</ele>
        <time>2021-08-30T13:16:36.792Z</time>
      </trkpt>
      <trkpt lat="49.66984" lon="-1.26583">
        <ele>4.66</ele>
        <time>2021-08-30T13:16:42.561Z</time>
      </trkpt>
      <trkpt lat="49.66984" lon="-1.26583">
        <ele>4.66</ele>
        <time>2021-08-30T13:16:48.330Z</time>
      </trkpt>
      <trkpt lat="49.66967" lon="-1.2656">
        <ele>4.39</ele>
        <time>2021-08-30T13:16:54.103Z</time>
      </trkpt>
      <trkpt lat="49.66967" lon="-1.2656">
        <ele>4.39</ele>
        <time>2021-08-30T13:16:59.876Z</time>
      </trkpt>
      <trkpt lat="49.67047" lon="-1.26378">
        <ele>2.93</ele>
        <time>2021-08-30T13:17:05.672Z</time>
      </trkpt>
      <trkpt lat="49.67047" lon="-1.26378">
        <ele>2.93</ele>
        <time>2021-08-30T13:17:11.468Z</time>
      </trkpt>
      <trkpt lat="49.67054" lon="-1.2635">
        <ele>2.75</ele>
        <time>2021-08-30T13:17:17.267Z</time>
      </trkpt>
      <trkpt lat="49.67054" lon="-1.2635">
        <ele>2.75</ele>
        <time>2021-08-30T13:17:23.066Z</time>
      </trkpt>
      <trkpt lat="49.66991" lon="-1.26348">
        <ele>2.85</ele>
        <time>2021-08-30T13:17:28.875Z</time>
      </trkpt>
      <trkpt lat="49.66991" lon="-1.26348">
        <ele>2.85</ele>
        <time>2021-08-30T13:17:34.684Z</time>
      </trkpt>
      <trkpt lat="49.6693" lon="-1.26344">
        <ele>2.84</ele>
        <time>2021-08-30T13:17:40.503Z</time>
      </trkpt>
      <trkpt lat="49.6693" lon="-1.26344">
        <ele>2.84</ele>
        <time>2021-08-30T13:17:46.322Z</time>
      </trkpt>
      <trkpt lat="49.66904" lon="-1.26346">
        <ele>2.53</ele>
        <time>2021-08-30T13:17:52.145Z</time>
      </trkpt>
      <trkpt lat="49.66904" lon="-1.26346">
        <ele>2.53</ele>
        <time>2021-08-30T13:17:57.968Z</time>
      </trkpt>
      <trkpt lat="49.66878" lon="-1.26359">
        <ele>2.53</ele>
        <time>2021-08-30T13:18:03.795Z</time>
      </trkpt>
      <trkpt lat="49.66878" lon="-1.26359">
        <ele>2.53</ele>
        <time>2021-08-30T13:18:09.622Z</time>
      </trkpt>
      <trkpt lat="49.66839" lon="-1.26383">
        <ele>2.44</ele>
        <time>2021-08-30T13:18:15.456Z</time>
      </trkpt>
      <trkpt lat="49.66839" lon="-1.26383">
        <ele>2.44</ele>
        <time>2021-08-30T13:18:21.290Z</time>
      </trkpt>
      <trkpt lat="49.6683" lon="-1.26381">
        <ele>2.21</ele>
        <time>2021-08-30T13:18:27.126Z</time>
      </trkpt>
      <trkpt lat="49.6683" lon="-1.26381">
        <ele>2.21</ele>
        <time>2021-08-30T13:18:32.962Z</time>
      </trkpt>
      <trkpt lat="49.66825" lon="-1.26378">
        <ele>2.21</ele>
        <time>2021-08-30T13:18:38.798Z</time>
      </trkpt>
      <trkpt lat="49.66825" lon="-1.26378">
        <ele>2.21</ele>
        <time>2021-08-30T13:18:44.634Z</time>
      </trkpt>
      <trkpt lat="49.6682" lon="-1.26373">
        <ele>2.21</ele>
        <time>2021-08-30T13:18:50.471Z</time>
      </trkpt>
      <trkpt lat="49.6682" lon="-1.26373">
        <ele>2.21</ele>
        <time>2021-08-30T13:18:56.308Z</time>
      </trkpt>
      <trkpt lat="49.66815" lon="-1.26363">
        <ele>2.12</ele>
        <time>2021-08-30T13:19:02.147Z</time>
      </trkpt>
      <trkpt lat="49.66815" lon="-1.26363">
        <ele>2.12</ele>
        <time>2021-08-30T13:19:07.986Z</time>
      </trkpt>
      <trkpt lat="49.66793" lon="-1.26258">
        <ele>2.31</ele>
        <time>2021-08-30T13:19:13.836Z</time>
      </trkpt>
      <trkpt lat="49.66793" lon="-1.26258">
        <ele>2.31</ele>
        <time>2021-08-30T13:19:19.686Z</time>
      </trkpt>
      <trkpt lat="49.66786" lon="-1.26211">
        <ele>2.94</ele>
        <time>2021-08-30T13:19:25.541Z</time>
      </trkpt>
      <trkpt lat="49.66786" lon="-1.26211">
        <ele>2.94</ele>
        <time>2021-08-30T13:19:31.396Z</time>
      </trkpt>
      <trkpt lat="49.66782" lon="-1.26078">
        <ele>3.43</ele>
        <time>2021-08-30T13:19:37.265Z</time>
      </trkpt>
      <trkpt lat="49.66782" lon="-1.26078">
        <ele>3.43</ele>
        <time>2021-08-30T13:19:43.134Z</time>
      </trkpt>
      <trkpt lat="49.6678" lon="-1.26068">
        <ele>3.45</ele>
        <time>2021-08-30T13:19:49.004Z</time>
      </trkpt>
      <trkpt lat="49.6678" lon="-1.26068">
        <ele>3.45</ele>
        <time>2021-08-30T13:19:54.874Z</time>
      </trkpt>
      <trkpt lat="49.66777" lon="-1.2606">
        <ele>3.45</ele>
        <time>2021-08-30T13:20:00.745Z</time>
      </trkpt>
      <trkpt lat="49.66777" lon="-1.2606">
        <ele>3.45</ele>
        <time>2021-08-30T13:20:06.616Z</time>
      </trkpt>
      <trkpt lat="49.66761" lon="-1.26051">
        <ele>3.5</ele>
        <time>2021-08-30T13:20:12.490Z</time>
      </trkpt>
      <trkpt lat="49.66761" lon="-1.26051">
        <ele>3.5</ele>
        <time>2021-08-30T13:20:18.364Z</time>
      </trkpt>
      <trkpt lat="49.66722" lon="-1.26047">
        <ele>3.82</ele>
        <time>2021-08-30T13:20:24.244Z</time>
      </trkpt>
      <trkpt lat="49.66722" lon="-1.26047">
        <ele>3.82</ele>
        <time>2021-08-30T13:20:30.124Z</time>
      </trkpt>
      <trkpt lat="49.66718" lon="-1.26041">
        <ele>3.82</ele>
        <time>2021-08-30T13:20:36.005Z</time>
      </trkpt>
      <trkpt lat="49.66718" lon="-1.26041">
        <ele>3.82</ele>
        <time>2021-08-30T13:20:41.886Z</time>
      </trkpt>
      <trkpt lat="49.66711" lon="-1.26014">
        <ele>4.14</ele>
        <time>2021-08-30T13:20:47.770Z</time>
      </trkpt>
      <trkpt lat="49.66711" lon="-1.26014">
        <ele>4.14</ele>
        <time>2021-08-30T13:20:53.654Z</time>
      </trkpt>
      <trkpt lat="49.66699" lon="-1.2599">
        <ele>4.14</ele>
        <time>2021-08-30T13:20:59.541Z</time>
      </trkpt>
      <trkpt lat="49.66699" lon="-1.2599">
        <ele>4.14</ele>
        <time>2021-08-30T13:21:05.428Z</time>
      </trkpt>
      <trkpt lat="49.66637" lon="-1.25905">
        <ele>4.94</ele>
        <time>2021-08-30T13:21:11.328Z</time>
      </trkpt>
      <trkpt lat="49.66637" lon="-1.25905">
        <ele>4.94</ele>
        <time>2021-08-30T13:21:17.228Z</time>
      </trkpt>
      <trkpt lat="49.66614" lon="-1.25881">
        <ele>5.17</ele>
        <time>2021-08-30T13:21:23.133Z</time>
      </trkpt>
      <trkpt lat="49.66614" lon="-1.25881">
        <ele>5.17</ele>
        <time>2021-08-30T13:21:29.038Z</time>
      </trkpt>
      <trkpt lat="49.66587" lon="-1.25861">
        <ele>5.17</ele>
        <time>2021-08-30T13:21:34.948Z</time>
      </trkpt>
      <trkpt lat="49.66587" lon="-1.25861">
        <ele>5.17</ele>
        <time>2021-08-30T13:21:40.858Z</time>
      </trkpt>
      <trkpt lat="49.66546" lon="-1.25837">
        <ele>5.67</ele>
        <time>2021-08-30T13:21:46.775Z</time>
      </trkpt>
      <trkpt lat="49.66546" lon="-1.25837">
        <ele>5.67</ele>
        <time>2021-08-30T13:21:52.692Z</time>
      </trkpt>
      <trkpt lat="49.66536" lon="-1.25833">
        <ele>5.72</ele>
        <time>2021-08-30T13:21:58.610Z</time>
      </trkpt>
      <trkpt lat="49.66536" lon="-1.25833">
        <ele>5.72</ele>
        <time>2021-08-30T13:22:04.528Z</time>
      </trkpt>
      <trkpt lat="49.66514" lon="-1.25821">
        <ele>5.79</ele>
        <time>2021-08-30T13:22:10.450Z</time>
      </trkpt>
      <trkpt lat="49.66514" lon="-1.25821">
        <ele>5.79</ele>
        <time>2021-08-30T13:22:16.372Z</time>
      </trkpt>
      <trkpt lat="49.66434" lon="-1.2577">
        <ele>6.79</ele>
        <time>2021-08-30T13:22:22.308Z</time>
      </trkpt>
      <trkpt lat="49.66434" lon="-1.2577">
        <ele>6.79</ele>
        <time>2021-08-30T13:22:28.244Z</time>
      </trkpt>
      <trkpt lat="49.66407" lon="-1.25749">
        <ele>6.96</ele>
        <time>2021-08-30T13:22:34.185Z</time>
      </trkpt>
      <trkpt lat="49.66407" lon="-1.25749">
        <ele>6.96</ele>
        <time>2021-08-30T13:22:40.126Z</time>
      </trkpt>
      <trkpt lat="49.66361" lon="-1.25709">
        <ele>7.11</ele>
        <time>2021-08-30T13:22:46.075Z</time>
      </trkpt>
      <trkpt lat="49.66361" lon="-1.25709">
        <ele>7.11</ele>
        <time>2021-08-30T13:22:52.024Z</time>
      </trkpt>
      <trkpt lat="49.66321" lon="-1.25681">
        <ele>6.99</ele>
        <time>2021-08-30T13:22:57.980Z</time>
      </trkpt>
      <trkpt lat="49.66321" lon="-1.25681">
        <ele>6.99</ele>
        <time>2021-08-30T13:23:03.936Z</time>
      </trkpt>
      <trkpt lat="49.66207" lon="-1.25614">
        <ele>5.22</ele>
        <time>2021-08-30T13:23:09.912Z</time>
      </trkpt>
      <trkpt lat="49.66207" lon="-1.25614">
        <ele>5.22</ele>
        <time>2021-08-30T13:23:15.888Z</time>
      </trkpt>
      <trkpt lat="49.66157" lon="-1.25591">
        <ele>4.66</ele>
        <time>2021-08-30T13:23:21.872Z</time>
      </trkpt>
      <trkpt lat="49.66157" lon="-1.25591">
        <ele>4.66</ele>
        <time>2021-08-30T13:23:27.856Z</time>
      </trkpt>
      <trkpt lat="49.66109" lon="-1.25573">
        <ele>5.13</ele>
        <time>2021-08-30T13:23:33.848Z</time>
      </trkpt>
      <trkpt lat="49.66109" lon="-1.25573">
        <ele>5.13</ele>
        <time>2021-08-30T13:23:39.840Z</time>
      </trkpt>
      <trkpt lat="49.66092" lon="-1.25563">
        <ele>5.38</ele>
        <time>2021-08-30T13:23:45.835Z</time>
      </trkpt>
      <trkpt lat="49.66092" lon="-1.25563">
        <ele>5.38</ele>
        <time>2021-08-30T13:23:51.830Z</time>
      </trkpt>
      <trkpt lat="49.66029" lon="-1.25522">
        <ele>5.55</ele>
        <time>2021-08-30T13:23:57.836Z</time>
      </trkpt>
      <trkpt lat="49.66029" lon="-1.25522">
        <ele>5.55</ele>
        <time>2021-08-30T13:24:03.842Z</time>
      </trkpt>
      <trkpt lat="49.65991" lon="-1.25495">
        <ele>5.77</ele>
        <time>2021-08-30T13:24:09.855Z</time>
      </trkpt>
      <trkpt lat="49.65991" lon="-1.25495">
        <ele>5.77</ele>
        <time>2021-08-30T13:24:15.868Z</time>
      </trkpt>
      <trkpt lat="49.65956" lon="-1.25462">
        <ele>6.01</ele>
        <time>2021-08-30T13:24:21.887Z</time>
      </trkpt>
      <trkpt lat="49.65956" lon="-1.25462">
        <ele>6.01</ele>
        <time>2021-08-30T13:24:27.906Z</time>
      </trkpt>
      <trkpt lat="49.65917" lon="-1.2541">
        <ele>6.42</ele>
        <time>2021-08-30T13:24:33.933Z</time>
      </trkpt>
      <trkpt lat="49.65917" lon="-1.2541">
        <ele>6.42</ele>
        <time>2021-08-30T13:24:39.960Z</time>
      </trkpt>
      <trkpt lat="49.65896" lon="-1.25366">
        <ele>6.57</ele>
        <time>2021-08-30T13:24:45.993Z</time>
      </trkpt>
      <trkpt lat="49.65896" lon="-1.25366">
        <ele>6.57</ele>
        <time>2021-08-30T13:24:52.026Z</time>
      </trkpt>
      <trkpt lat="49.65882" lon="-1.25326">
        <ele>6.57</ele>
        <time>2021-08-30T13:24:58.064Z</time>
      </trkpt>
      <trkpt lat="49.65882" lon="-1.25326">
        <ele>6.57</ele>
        <time>2021-08-30T13:25:04.102Z</time>
      </trkpt>
      <trkpt lat="49.65829" lon="-1.25116">
        <ele>5.16</ele>
        <time>2021-08-30T13:25:10.163Z</time>
      </trkpt>
      <trkpt lat="49.65829" lon="-1.25116">
        <ele>5.16</ele>
        <time>2021-08-30T13:25:16.224Z</time>
      </trkpt>
      <trkpt lat="49.65815" lon="-1.25071">
        <ele>4.87</ele>
        <time>2021-08-30T13:25:22.290Z</time>
      </trkpt>
      <trkpt lat="49.65815" lon="-1.25071">
        <ele>4.87</ele>
        <time>2021-08-30T13:25:28.356Z</time>
      </trkpt>
      <trkpt lat="49.65801" lon="-1.25038">
        <ele>4.86</ele>
        <time>2021-08-30T13:25:34.427Z</time>
      </trkpt>
      <trkpt lat="49.65801" lon="-1.25038">
        <ele>4.86</ele>
        <time>2021-08-30T13:25:40.498Z</time>
      </trkpt>
      <trkpt lat="49.6578" lon="-1.25">
        <ele>5.16</ele>
        <time>2021-08-30T13:25:46.574Z</time>
      </trkpt>
      <trkpt lat="49.6578" lon="-1.25">
        <ele>5.16</ele>
        <time>2021-08-30T13:25:52.650Z</time>
      </trkpt>
      <trkpt lat="49.65739" lon="-1.24949">
        <ele>6.31</ele>
        <time>2021-08-30T13:25:58.734Z</time>
      </trkpt>
      <trkpt lat="49.65739" lon="-1.24949">
        <ele>6.31</ele>
        <time>2021-08-30T13:26:04.818Z</time>
      </trkpt>
      <trkpt lat="49.65721" lon="-1.24933">
        <ele>6.96</ele>
        <time>2021-08-30T13:26:10.906Z</time>
      </trkpt>
      <trkpt lat="49.65721" lon="-1.24933">
        <ele>6.96</ele>
        <time>2021-08-30T13:26:16.994Z</time>
      </trkpt>
      <trkpt lat="49.65703" lon="-1.24922">
        <ele>7.22</ele>
        <time>2021-08-30T13:26:23.085Z</time>
      </trkpt>
      <trkpt lat="49.65703" lon="-1.24922">
        <ele>7.22</ele>
        <time>2021-08-30T13:26:29.176Z</time>
      </trkpt>
      <trkpt lat="49.65684" lon="-1.24912">
        <ele>7.43</ele>
        <time>2021-08-30T13:26:35.270Z</time>
      </trkpt>
      <trkpt lat="49.65684" lon="-1.24912">
        <ele>7.43</ele>
        <time>2021-08-30T13:26:41.364Z</time>
      </trkpt>
      <trkpt lat="49.65623" lon="-1.24896">
        <ele>6.84</ele>
        <time>2021-08-30T13:26:47.468Z</time>
      </trkpt>
      <trkpt lat="49.65623" lon="-1.24896">
        <ele>6.84</ele>
        <time>2021-08-30T13:26:53.572Z</time>
      </trkpt>
      <trkpt lat="49.65584" lon="-1.2488">
        <ele>6.68</ele>
        <time>2021-08-30T13:26:59.682Z</time>
      </trkpt>
      <trkpt lat="49.65584" lon="-1.2488">
        <ele>6.68</ele>
        <time>2021-08-30T13:27:05.792Z</time>
      </trkpt>
      <trkpt lat="49.65527" lon="-1.24848">
        <ele>6.24</ele>
        <time>2021-08-30T13:27:11.912Z</time>
      </trkpt>
      <trkpt lat="49.65527" lon="-1.24848">
        <ele>6.24</ele>
        <time>2021-08-30T13:27:18.032Z</time>
      </trkpt>
      <trkpt lat="49.65412" lon="-1.24794">
        <ele>6.96</ele>
        <time>2021-08-30T13:27:24.171Z</time>
      </trkpt>
      <trkpt lat="49.65412" lon="-1.24794">
        <ele>6.96</ele>
        <time>2021-08-30T13:27:30.310Z</time>
      </trkpt>
      <trkpt lat="49.6534" lon="-1.24756">
        <ele>7.15</ele>
        <time>2021-08-30T13:27:36.461Z</time>
      </trkpt>
      <trkpt lat="49.6534" lon="-1.24756">
        <ele>7.15</ele>
        <time>2021-08-30T13:27:42.612Z</time>
      </trkpt>
      <trkpt lat="49.65304" lon="-1.24733">
        <ele>6.81</ele>
        <time>2021-08-30T13:27:48.770Z</time>
      </trkpt>
      <trkpt lat="49.65304" lon="-1.24733">
        <ele>6.81</ele>
        <time>2021-08-30T13:27:54.928Z</time>
      </trkpt>
      <trkpt lat="49.65177" lon="-1.24641">
        <ele>5.91</ele>
        <time>2021-08-30T13:28:01.108Z</time>
      </trkpt>
      <trkpt lat="49.65177" lon="-1.24641">
        <ele>5.91</ele>
        <time>2021-08-30T13:28:07.288Z</time>
      </trkpt>
      <trkpt lat="49.6507" lon="-1.24543">
        <ele>4.99</ele>
        <time>2021-08-30T13:28:13.488Z</time>
      </trkpt>
      <trkpt lat="49.6507" lon="-1.24543">
        <ele>4.99</ele>
        <time>2021-08-30T13:28:19.688Z</time>
      </trkpt>
      <trkpt lat="49.64992" lon="-1.24485">
        <ele>6.5</ele>
        <time>2021-08-30T13:28:25.902Z</time>
      </trkpt>
      <trkpt lat="49.64992" lon="-1.24485">
        <ele>6.5</ele>
        <time>2021-08-30T13:28:32.116Z</time>
      </trkpt>
      <trkpt lat="49.64925" lon="-1.24441">
        <ele>6.92</ele>
        <time>2021-08-30T13:28:38.342Z</time>
      </trkpt>
      <trkpt lat="49.64925" lon="-1.24441">
        <ele>6.92</ele>
        <time>2021-08-30T13:28:44.568Z</time>
      </trkpt>
      <trkpt lat="49.64902" lon="-1.244">
        <ele>4.8</ele>
        <time>2021-08-30T13:28:50.799Z</time>
      </trkpt>
      <trkpt lat="49.64902" lon="-1.244">
        <ele>4.8</ele>
        <time>2021-08-30T13:28:57.030Z</time>
      </trkpt>
      <trkpt lat="49.64889" lon="-1.24387">
        <ele>4.34</ele>
        <time>2021-08-30T13:29:03.264Z</time>
      </trkpt>
      <trkpt lat="49.64889" lon="-1.24387">
        <ele>4.34</ele>
        <time>2021-08-30T13:29:09.498Z</time>
      </trkpt>
      <trkpt lat="49.64881" lon="-1.24384">
        <ele>3.93</ele>
        <time>2021-08-30T13:29:15.733Z</time>
      </trkpt>
      <trkpt lat="49.64881" lon="-1.24384">
        <ele>3.93</ele>
        <time>2021-08-30T13:29:21.968Z</time>
      </trkpt>
      <trkpt lat="49.64837" lon="-1.24394">
        <ele>2.9</ele>
        <time>2021-08-30T13:29:28.210Z</time>
      </trkpt>
      <trkpt lat="49.64837" lon="-1.24394">
        <ele>2.9</ele>
        <time>2021-08-30T13:29:34.452Z</time>
      </trkpt>
      <trkpt lat="49.64829" lon="-1.24394">
        <ele>2.9</ele>
        <time>2021-08-30T13:29:40.695Z</time>
      </trkpt>
      <trkpt lat="49.64829" lon="-1.24394">
        <ele>2.9</ele>
        <time>2021-08-30T13:29:46.938Z</time>
      </trkpt>
      <trkpt lat="49.64789" lon="-1.2437">
        <ele>2.86</ele>
        <time>2021-08-30T13:29:53.188Z</time>
      </trkpt>
      <trkpt lat="49.64789" lon="-1.2437">
        <ele>2.86</ele>
        <time>2021-08-30T13:29:59.438Z</time>
      </trkpt>
      <trkpt lat="49.64778" lon="-1.24367">
        <ele>2.86</ele>
        <time>2021-08-30T13:30:05.690Z</time>
      </trkpt>
      <trkpt lat="49.64778" lon="-1.24367">
        <ele>2.86</ele>
        <time>2021-08-30T13:30:11.942Z</time>
      </trkpt>
      <trkpt lat="49.6477" lon="-1.24369">
        <ele>2.86</ele>
        <time>2021-08-30T13:30:18.195Z</time>
      </trkpt>
      <trkpt lat="49.6477" lon="-1.24369">
        <ele>2.86</ele>
        <time>2021-08-30T13:30:24.448Z</time>
      </trkpt>
      <trkpt lat="49.64764" lon="-1.24374">
        <ele>2.91</ele>
        <time>2021-08-30T13:30:30.702Z</time>
      </trkpt>
      <trkpt lat="49.64764" lon="-1.24374">
        <ele>2.91</ele>
        <time>2021-08-30T13:30:36.956Z</time>
      </trkpt>
      <trkpt lat="49.64658" lon="-1.24506">
        <ele>4.67</ele>
        <time>2021-08-30T13:30:43.232Z</time>
      </trkpt>
      <trkpt lat="49.64658" lon="-1.24506">
        <ele>4.67</ele>
        <time>2021-08-30T13:30:49.508Z</time>
      </trkpt>
      <trkpt lat="49.64636" lon="-1.2455">
        <ele>4.8</ele>
        <time>2021-08-30T13:30:55.790Z</time>
      </trkpt>
      <trkpt lat="49.64636" lon="-1.2455">
        <ele>4.8</ele>
        <time>2021-08-30T13:31:02.072Z</time>
      </trkpt>
      <trkpt lat="49.64541" lon="-1.24773">
        <ele>6.29</ele>
        <time>2021-08-30T13:31:08.382Z</time>
      </trkpt>
      <trkpt lat="49.64541" lon="-1.24773">
        <ele>6.29</ele>
        <time>2021-08-30T13:31:14.692Z</time>
      </trkpt>
      <trkpt lat="49.64529" lon="-1.2479">
        <ele>5.82</ele>
        <time>2021-08-30T13:31:21.004Z</time>
      </trkpt>
      <trkpt lat="49.64529" lon="-1.2479">
        <ele>5.82</ele>
        <time>2021-08-30T13:31:27.316Z</time>
      </trkpt>
      <trkpt lat="49.64514" lon="-1.248">
        <ele>5.82</ele>
        <time>2021-08-30T13:31:33.631Z</time>
      </trkpt>
      <trkpt lat="49.64514" lon="-1.248">
        <ele>5.82</ele>
        <time>2021-08-30T13:31:39.946Z</time>
      </trkpt>
      <trkpt lat="49.64452" lon="-1.24821">
        <ele>4.14</ele>
        <time>2021-08-30T13:31:46.271Z</time>
      </trkpt>
      <trkpt lat="49.64452" lon="-1.24821">
        <ele>4.14</ele>
        <time>2021-08-30T13:31:52.596Z</time>
      </trkpt>
      <trkpt lat="49.64434" lon="-1.24831">
        <ele>4.14</ele>
        <time>2021-08-30T13:31:58.924Z</time>
      </trkpt>
      <trkpt lat="49.64434" lon="-1.24831">
        <ele>4.14</ele>
        <time>2021-08-30T13:32:05.252Z</time>
      </trkpt>
      <trkpt lat="49.64422" lon="-1.24838">
        <ele>3.96</ele>
        <time>2021-08-30T13:32:11.582Z</time>
      </trkpt>
      <trkpt lat="49.64422" lon="-1.24838">
        <ele>3.96</ele>
        <time>2021-08-30T13:32:17.912Z</time>
      </trkpt>
      <trkpt lat="49.64395" lon="-1.24865">
        <ele>3.96</ele>
        <time>2021-08-30T13:32:24.247Z</time>
      </trkpt>
      <trkpt lat="49.64395" lon="-1.24865">
        <ele>3.96</ele>
        <time>2021-08-30T13:32:30.582Z</time>
      </trkpt>
      <trkpt lat="49.64259" lon="-1.25017">
        <ele>4.87</ele>
        <time>2021-08-30T13:32:36.944Z</time>
      </trkpt>
      <trkpt lat="49.64259" lon="-1.25017">
        <ele>4.87</ele>
        <time>2021-08-30T13:32:43.306Z</time>
      </trkpt>
      <trkpt lat="49.6415" lon="-1.25106">
        <ele>5.1</ele>
        <time>2021-08-30T13:32:49.688Z</time>
      </trkpt>
      <trkpt lat="49.6415" lon="-1.25106">
        <ele>5.1</ele>
        <time>2021-08-30T13:32:56.070Z</time>
      </trkpt>
      <trkpt lat="49.64132" lon="-1.25125">
        <ele>5.17</ele>
        <time>2021-08-30T13:33:02.456Z</time>
      </trkpt>
      <trkpt lat="49.64132" lon="-1.25125">
        <ele>5.17</ele>
        <time>2021-08-30T13:33:08.842Z</time>
      </trkpt>
      <trkpt lat="49.64108" lon="-1.25156">
        <ele>5.22</ele>
        <time>2021-08-30T13:33:15.233Z</time>
      </trkpt>
      <trkpt lat="49.64108" lon="-1.25156">
        <ele>5.22</ele>
        <time>2021-08-30T13:33:21.624Z</time>
      </trkpt>
      <trkpt lat="49.64019" lon="-1.25292">
        <ele>5.16</ele>
        <time>2021-08-30T13:33:28.035Z</time>
      </trkpt>
      <trkpt lat="49.64019" lon="-1.25292">
        <ele>5.16</ele>
        <time>2021-08-30T13:33:34.446Z</time>
      </trkpt>
      <trkpt lat="49.63983" lon="-1.25337">
        <ele>5.24</ele>
        <time>2021-08-30T13:33:40.864Z</time>
      </trkpt>
      <trkpt lat="49.63983" lon="-1.25337">
        <ele>5.24</ele>
        <time>2021-08-30T13:33:47.282Z</time>
      </trkpt>
      <trkpt lat="49.63949" lon="-1.2536">
        <ele>5.24</ele>
        <time>2021-08-30T13:33:53.706Z</time>
      </trkpt>
      <trkpt lat="49.63949" lon="-1.2536">
        <ele>5.24</ele>
        <time>2021-08-30T13:34:00.130Z</time>
      </trkpt>
      <trkpt lat="49.63862" lon="-1.25457">
        <ele>5.25</ele>
        <time>2021-08-30T13:34:06.571Z</time>
      </trkpt>
      <trkpt lat="49.63862" lon="-1.25457">
        <ele>5.25</ele>
        <time>2021-08-30T13:34:13.012Z</time>
      </trkpt>
      <trkpt lat="49.63843" lon="-1.25407">
        <ele>5</ele>
        <time>2021-08-30T13:34:19.459Z</time>
      </trkpt>
      <trkpt lat="49.63843" lon="-1.25407">
        <ele>5</ele>
        <time>2021-08-30T13:34:25.906Z</time>
      </trkpt>
      <trkpt lat="49.63829" lon="-1.25343">
        <ele>4.92</ele>
        <time>2021-08-30T13:34:32.360Z</time>
      </trkpt>
      <trkpt lat="49.63829" lon="-1.25343">
        <ele>4.92</ele>
        <time>2021-08-30T13:34:38.814Z</time>
      </trkpt>
      <trkpt lat="49.6382" lon="-1.25312">
        <ele>4.74</ele>
        <time>2021-08-30T13:34:45.272Z</time>
      </trkpt>
      <trkpt lat="49.6382" lon="-1.25312">
        <ele>4.74</ele>
        <time>2021-08-30T13:34:51.730Z</time>
      </trkpt>
      <trkpt lat="49.63792" lon="-1.25248">
        <ele>4.54</ele>
        <time>2021-08-30T13:34:58.196Z</time>
      </trkpt>
      <trkpt lat="49.63792" lon="-1.25248">
        <ele>4.54</ele>
        <time>2021-08-30T13:35:04.662Z</time>
      </trkpt>
      <trkpt lat="49.63788" lon="-1.25228">
        <ele>4.66</ele>
        <time>2021-08-30T13:35:11.130Z</time>
      </trkpt>
      <trkpt lat="49.63788" lon="-1.25228">
        <ele>4.66</ele>
        <time>2021-08-30T13:35:17.598Z</time>
      </trkpt>
      <trkpt lat="49.63789" lon="-1.2519">
        <ele>4.72</ele>
        <time>2021-08-30T13:35:24.070Z</time>
      </trkpt>
      <trkpt lat="49.63789" lon="-1.2519">
        <ele>4.72</ele>
        <time>2021-08-30T13:35:30.542Z</time>
      </trkpt>
      <trkpt lat="49.63772" lon="-1.25075">
        <ele>5.32</ele>
        <time>2021-08-30T13:35:37.026Z</time>
      </trkpt>
      <trkpt lat="49.63772" lon="-1.25075">
        <ele>5.32</ele>
        <time>2021-08-30T13:35:43.510Z</time>
      </trkpt>
      <trkpt lat="49.63765" lon="-1.25017">
        <ele>5.27</ele>
        <time>2021-08-30T13:35:50.000Z</time>
      </trkpt>
      <trkpt lat="49.63765" lon="-1.25017">
        <ele>5.27</ele>
        <time>2021-08-30T13:35:56.490Z</time>
      </trkpt>
      <trkpt lat="49.63734" lon="-1.24875">
        <ele>5.18</ele>
        <time>2021-08-30T13:36:02.996Z</time>
      </trkpt>
      <trkpt lat="49.63734" lon="-1.24875">
        <ele>5.18</ele>
        <time>2021-08-30T13:36:09.502Z</time>
      </trkpt>
      <trkpt lat="49.63717" lon="-1.24808">
        <ele>5.15</ele>
        <time>2021-08-30T13:36:16.016Z</time>
      </trkpt>
      <trkpt lat="49.63717" lon="-1.24808">
        <ele>5.15</ele>
        <time>2021-08-30T13:36:22.530Z</time>
      </trkpt>
      <trkpt lat="49.6375" lon="-1.24766">
        <ele>5.36</ele>
        <time>2021-08-30T13:36:29.050Z</time>
      </trkpt>
      <trkpt lat="49.6375" lon="-1.24766">
        <ele>5.36</ele>
        <time>2021-08-30T13:36:35.570Z</time>
      </trkpt>
      <trkpt lat="49.63738" lon="-1.24739">
        <ele>5.63</ele>
        <time>2021-08-30T13:36:42.094Z</time>
      </trkpt>
      <trkpt lat="49.63738" lon="-1.24739">
        <ele>5.63</ele>
        <time>2021-08-30T13:36:48.618Z</time>
      </trkpt>
      <trkpt lat="49.63733" lon="-1.24709">
        <ele>6.29</ele>
        <time>2021-08-30T13:36:55.145Z</time>
      </trkpt>
      <trkpt lat="49.63733" lon="-1.24709">
        <ele>6.29</ele>
        <time>2021-08-30T13:37:01.672Z</time>
      </trkpt>
      <trkpt lat="49.63732" lon="-1.24682">
        <ele>6.64</ele>
        <time>2021-08-30T13:37:08.202Z</time>
      </trkpt>
      <trkpt lat="49.63732" lon="-1.24682">
        <ele>6.64</ele>
        <time>2021-08-30T13:37:14.732Z</time>
      </trkpt>
      <trkpt lat="49.63735" lon="-1.24645">
        <ele>8.06</ele>
        <time>2021-08-30T13:37:21.266Z</time>
      </trkpt>
      <trkpt lat="49.63735" lon="-1.24645">
        <ele>8.06</ele>
        <time>2021-08-30T13:37:27.800Z</time>
      </trkpt>
      <trkpt lat="49.63732" lon="-1.246">
        <ele>9.12</ele>
        <time>2021-08-30T13:37:34.338Z</time>
      </trkpt>
      <trkpt lat="49.63732" lon="-1.246">
        <ele>9.12</ele>
        <time>2021-08-30T13:37:40.876Z</time>
      </trkpt>
      <trkpt lat="49.63734" lon="-1.24577">
        <ele>10.45</ele>
        <time>2021-08-30T13:37:47.417Z</time>
      </trkpt>
      <trkpt lat="49.63734" lon="-1.24577">
        <ele>10.45</ele>
        <time>2021-08-30T13:37:53.958Z</time>
      </trkpt>
      <trkpt lat="49.63741" lon="-1.24567">
        <ele>10.71</ele>
        <time>2021-08-30T13:38:00.500Z</time>
      </trkpt>
      <trkpt lat="49.63741" lon="-1.24567">
        <ele>10.71</ele>
        <time>2021-08-30T13:38:07.042Z</time>
      </trkpt>
      <trkpt lat="49.63762" lon="-1.24549">
        <ele>10.89</ele>
        <time>2021-08-30T13:38:13.588Z</time>
      </trkpt>
      <trkpt lat="49.63762" lon="-1.24549">
        <ele>10.89</ele>
        <time>2021-08-30T13:38:20.134Z</time>
      </trkpt>
      <trkpt lat="49.63765" lon="-1.24539">
        <ele>10.89</ele>
        <time>2021-08-30T13:38:26.681Z</time>
      </trkpt>
      <trkpt lat="49.63765" lon="-1.24539">
        <ele>10.89</ele>
        <time>2021-08-30T13:38:33.228Z</time>
      </trkpt>
      <trkpt lat="49.63765" lon="-1.24532">
        <ele>10.89</ele>
        <time>2021-08-30T13:38:39.776Z</time>
      </trkpt>
      <trkpt lat="49.63765" lon="-1.24532">
        <ele>10.89</ele>
        <time>2021-08-30T13:38:46.324Z</time>
      </trkpt>
      <trkpt lat="49.63722" lon="-1.244">
        <ele>10.41</ele>
        <time>2021-08-30T13:38:52.887Z</time>
      </trkpt>
      <trkpt lat="49.63722" lon="-1.244">
        <ele>10.41</ele>
        <time>2021-08-30T13:38:59.450Z</time>
      </trkpt>
      <trkpt lat="49.63699" lon="-1.24367">
        <ele>9.65</ele>
        <time>2021-08-30T13:39:06.018Z</time>
      </trkpt>
      <trkpt lat="49.63699" lon="-1.24367">
        <ele>9.65</ele>
        <time>2021-08-30T13:39:12.586Z</time>
      </trkpt>
      <trkpt lat="49.63691" lon="-1.2435">
        <ele>9.35</ele>
        <time>2021-08-30T13:39:19.157Z</time>
      </trkpt>
      <trkpt lat="49.63691" lon="-1.2435">
        <ele>9.35</ele>
        <time>2021-08-30T13:39:25.728Z</time>
      </trkpt>
      <trkpt lat="49.63685" lon="-1.24326">
        <ele>9.2</ele>
        <time>2021-08-30T13:39:32.301Z</time>
      </trkpt>
      <trkpt lat="49.63685" lon="-1.24326">
        <ele>9.2</ele>
        <time>2021-08-30T13:39:38.874Z</time>
      </trkpt>
      <trkpt lat="49.63681" lon="-1.24299">
        <ele>9.09</ele>
        <time>2021-08-30T13:39:45.450Z</time>
      </trkpt>
      <trkpt lat="49.63681" lon="-1.24299">
        <ele>9.09</ele>
        <time>2021-08-30T13:39:52.026Z</time>
      </trkpt>
      <trkpt lat="49.63684" lon="-1.2416">
        <ele>8.78</ele>
        <time>2021-08-30T13:39:58.617Z</time>
      </trkpt>
      <trkpt lat="49.63684" lon="-1.2416">
        <ele>8.78</ele>
        <time>2021-08-30T13:40:05.208Z</time>
      </trkpt>
      <trkpt lat="49.63686" lon="-1.24143">
        <ele>8.81</ele>
        <time>2021-08-30T13:40:11.800Z</time>
      </trkpt>
      <trkpt lat="49.63686" lon="-1.24143">
        <ele>8.81</ele>
        <time>2021-08-30T13:40:18.392Z</time>
      </trkpt>
      <trkpt lat="49.63655" lon="-1.24143">
        <ele>9.12</ele>
        <time>2021-08-30T13:40:24.989Z</time>
      </trkpt>
      <trkpt lat="49.63655" lon="-1.24143">
        <ele>9.12</ele>
        <time>2021-08-30T13:40:31.586Z</time>
      </trkpt>
      <trkpt lat="49.63644" lon="-1.24149">
        <ele>9.15</ele>
        <time>2021-08-30T13:40:38.185Z</time>
      </trkpt>
      <trkpt lat="49.63644" lon="-1.24149">
        <ele>9.15</ele>
        <time>2021-08-30T13:40:44.784Z</time>
      </trkpt>
      <trkpt lat="49.63608" lon="-1.24177">
        <ele>9.05</ele>
        <time>2021-08-30T13:40:51.390Z</time>
      </trkpt>
      <trkpt lat="49.63608" lon="-1.24177">
        <ele>9.05</ele>
        <time>2021-08-30T13:40:57.996Z</time>
      </trkpt>
      <trkpt lat="49.6359" lon="-1.24187">
        <ele>8.97</ele>
        <time>2021-08-30T13:41:04.605Z</time>
      </trkpt>
      <trkpt lat="49.6359" lon="-1.24187">
        <ele>8.97</ele>
        <time>2021-08-30T13:41:11.214Z</time>
      </trkpt>
      <trkpt lat="49.63555" lon="-1.24204">
        <ele>8.7</ele>
        <time>2021-08-30T13:41:17.829Z</time>
      </trkpt>
      <trkpt lat="49.63555" lon="-1.24204">
        <ele>8.7</ele>
        <time>2021-08-30T13:41:24.444Z</time>
      </trkpt>
      <trkpt lat="49.63437" lon="-1.24251">
        <ele>8.21</ele>
        <time>2021-08-30T13:41:31.078Z</time>
      </trkpt>
      <trkpt lat="49.63437" lon="-1.24251">
        <ele>8.21</ele>
        <time>2021-08-30T13:41:37.712Z</time>
      </trkpt>
      <trkpt lat="49.63377" lon="-1.24261">
        <ele>9.51</ele>
        <time>2021-08-30T13:41:44.356Z</time>
      </trkpt>
      <trkpt lat="49.63377" lon="-1.24261">
        <ele>9.51</ele>
        <time>2021-08-30T13:41:51.000Z</time>
      </trkpt>
      <trkpt lat="49.63312" lon="-1.24278">
        <ele>9.77</ele>
        <time>2021-08-30T13:41:57.654Z</time>
      </trkpt>
      <trkpt lat="49.63312" lon="-1.24278">
        <ele>9.77</ele>
        <time>2021-08-30T13:42:04.308Z</time>
      </trkpt>
      <trkpt lat="49.63258" lon="-1.24302">
        <ele>9.5</ele>
        <time>2021-08-30T13:42:10.971Z</time>
      </trkpt>
      <trkpt lat="49.63258" lon="-1.24302">
        <ele>9.5</ele>
        <time>2021-08-30T13:42:17.634Z</time>
      </trkpt>
      <trkpt lat="49.63253" lon="-1.24301">
        <ele>9.32</ele>
        <time>2021-08-30T13:42:24.298Z</time>
      </trkpt>
      <trkpt lat="49.63253" lon="-1.24301">
        <ele>9.32</ele>
        <time>2021-08-30T13:42:30.962Z</time>
      </trkpt>
      <trkpt lat="49.63212" lon="-1.24316">
        <ele>7.59</ele>
        <time>2021-08-30T13:42:37.633Z</time>
      </trkpt>
      <trkpt lat="49.63212" lon="-1.24316">
        <ele>7.59</ele>
        <time>2021-08-30T13:42:44.304Z</time>
      </trkpt>
      <trkpt lat="49.63176" lon="-1.24336">
        <ele>7.41</ele>
        <time>2021-08-30T13:42:50.981Z</time>
      </trkpt>
      <trkpt lat="49.63176" lon="-1.24336">
        <ele>7.41</ele>
        <time>2021-08-30T13:42:57.658Z</time>
      </trkpt>
      <trkpt lat="49.63162" lon="-1.24339">
        <ele>7.57</ele>
        <time>2021-08-30T13:43:04.337Z</time>
      </trkpt>
      <trkpt lat="49.63162" lon="-1.24339">
        <ele>7.57</ele>
        <time>2021-08-30T13:43:11.016Z</time>
      </trkpt>
      <trkpt lat="49.63136" lon="-1.2435">
        <ele>8.14</ele>
        <time>2021-08-30T13:43:17.700Z</time>
      </trkpt>
      <trkpt lat="49.63136" lon="-1.2435">
        <ele>8.14</ele>
        <time>2021-08-30T13:43:24.384Z</time>
      </trkpt>
      <trkpt lat="49.63123" lon="-1.24384">
        <ele>9.28</ele>
        <time>2021-08-30T13:43:31.072Z</time>
      </trkpt>
      <trkpt lat="49.63123" lon="-1.24384">
        <ele>9.28</ele>
        <time>2021-08-30T13:43:37.760Z</time>
      </trkpt>
      <trkpt lat="49.63116" lon="-1.2439">
        <ele>9.35</ele>
        <time>2021-08-30T13:43:44.449Z</time>
      </trkpt>
      <trkpt lat="49.63116" lon="-1.2439">
        <ele>9.35</ele>
        <time>2021-08-30T13:43:51.138Z</time>
      </trkpt>
      <trkpt lat="49.63106" lon="-1.24391">
        <ele>9.24</ele>
        <time>2021-08-30T13:43:57.829Z</time>
      </trkpt>
      <trkpt lat="49.63106" lon="-1.24391">
        <ele>9.24</ele>
        <time>2021-08-30T13:44:04.520Z</time>
      </trkpt>
      <trkpt lat="49.63094" lon="-1.2439">
        <ele>8.52</ele>
        <time>2021-08-30T13:44:11.213Z</time>
      </trkpt>
      <trkpt lat="49.63094" lon="-1.2439">
        <ele>8.52</ele>
        <time>2021-08-30T13:44:17.906Z</time>
      </trkpt>
      <trkpt lat="49.63033" lon="-1.24373">
        <ele>6.36</ele>
        <time>2021-08-30T13:44:24.609Z</time>
      </trkpt>
      <trkpt lat="49.63033" lon="-1.24373">
        <ele>6.36</ele>
        <time>2021-08-30T13:44:31.312Z</time>
      </trkpt>
      <trkpt lat="49.62905" lon="-1.24343">
        <ele>5.93</ele>
        <time>2021-08-30T13:44:38.035Z</time>
      </trkpt>
      <trkpt lat="49.62905" lon="-1.24343">
        <ele>5.93</ele>
        <time>2021-08-30T13:44:44.758Z</time>
      </trkpt>
      <trkpt lat="49.62897" lon="-1.24343">
        <ele>6.07</ele>
        <time>2021-08-30T13:44:51.483Z</time>
      </trkpt>
      <trkpt lat="49.62897" lon="-1.24343">
        <ele>6.07</ele>
        <time>2021-08-30T13:44:58.208Z</time>
      </trkpt>
      <trkpt lat="49.62889" lon="-1.24346">
        <ele>6.26</ele>
        <time>2021-08-30T13:45:04.934Z</time>
      </trkpt>
      <trkpt lat="49.62889" lon="-1.24346">
        <ele>6.26</ele>
        <time>2021-08-30T13:45:11.660Z</time>
      </trkpt>
      <trkpt lat="49.62863" lon="-1.2437">
        <ele>6.76</ele>
        <time>2021-08-30T13:45:18.391Z</time>
      </trkpt>
      <trkpt lat="49.62863" lon="-1.2437">
        <ele>6.76</ele>
        <time>2021-08-30T13:45:25.122Z</time>
      </trkpt>
      <trkpt lat="49.62807" lon="-1.24377">
        <ele>7.72</ele>
        <time>2021-08-30T13:45:31.862Z</time>
      </trkpt>
      <trkpt lat="49.62807" lon="-1.24377">
        <ele>7.72</ele>
        <time>2021-08-30T13:45:38.602Z</time>
      </trkpt>
      <trkpt lat="49.62791" lon="-1.24374">
        <ele>7.61</ele>
        <time>2021-08-30T13:45:45.344Z</time>
      </trkpt>
      <trkpt lat="49.62791" lon="-1.24374">
        <ele>7.61</ele>
        <time>2021-08-30T13:45:52.086Z</time>
      </trkpt>
      <trkpt lat="49.62753" lon="-1.24361">
        <ele>7.65</ele>
        <time>2021-08-30T13:45:58.835Z</time>
      </trkpt>
      <trkpt lat="49.62753" lon="-1.24361">
        <ele>7.65</ele>
        <time>2021-08-30T13:46:05.584Z</time>
      </trkpt>
      <trkpt lat="49.62674" lon="-1.24333">
        <ele>8.23</ele>
        <time>2021-08-30T13:46:12.346Z</time>
      </trkpt>
      <trkpt lat="49.62674" lon="-1.24333">
        <ele>8.23</ele>
        <time>2021-08-30T13:46:19.108Z</time>
      </trkpt>
      <trkpt lat="49.62641" lon="-1.24313">
        <ele>8.24</ele>
        <time>2021-08-30T13:46:25.875Z</time>
      </trkpt>
      <trkpt lat="49.62641" lon="-1.24313">
        <ele>8.24</ele>
        <time>2021-08-30T13:46:32.642Z</time>
      </trkpt>
      <trkpt lat="49.62601" lon="-1.24295">
        <ele>7.38</ele>
        <time>2021-08-30T13:46:39.416Z</time>
      </trkpt>
      <trkpt lat="49.62601" lon="-1.24295">
        <ele>7.38</ele>
        <time>2021-08-30T13:46:46.190Z</time>
      </trkpt>
      <trkpt lat="49.62585" lon="-1.24282">
        <ele>7.05</ele>
        <time>2021-08-30T13:46:52.967Z</time>
      </trkpt>
      <trkpt lat="49.62585" lon="-1.24282">
        <ele>7.05</ele>
        <time>2021-08-30T13:46:59.744Z</time>
      </trkpt>
      <trkpt lat="49.62575" lon="-1.24282">
        <ele>6.97</ele>
        <time>2021-08-30T13:47:06.522Z</time>
      </trkpt>
      <trkpt lat="49.62575" lon="-1.24282">
        <ele>6.97</ele>
        <time>2021-08-30T13:47:13.300Z</time>
      </trkpt>
      <trkpt lat="49.62545" lon="-1.24302">
        <ele>6.39</ele>
        <time>2021-08-30T13:47:20.084Z</time>
      </trkpt>
      <trkpt lat="49.62545" lon="-1.24302">
        <ele>6.39</ele>
        <time>2021-08-30T13:47:26.868Z</time>
      </trkpt>
      <trkpt lat="49.62537" lon="-1.24305">
        <ele>6.39</ele>
        <time>2021-08-30T13:47:33.653Z</time>
      </trkpt>
      <trkpt lat="49.62537" lon="-1.24305">
        <ele>6.39</ele>
        <time>2021-08-30T13:47:40.438Z</time>
      </trkpt>
      <trkpt lat="49.62518" lon="-1.243">
        <ele>5.77</ele>
        <time>2021-08-30T13:47:47.226Z</time>
      </trkpt>
      <trkpt lat="49.62518" lon="-1.243">
        <ele>5.77</ele>
        <time>2021-08-30T13:47:54.014Z</time>
      </trkpt>
      <trkpt lat="49.62511" lon="-1.24322">
        <ele>4.97</ele>
        <time>2021-08-30T13:48:00.805Z</time>
      </trkpt>
      <trkpt lat="49.62511" lon="-1.24322">
        <ele>4.97</ele>
        <time>2021-08-30T13:48:07.596Z</time>
      </trkpt>
      <trkpt lat="49.62483" lon="-1.24377">
        <ele>4.46</ele>
        <time>2021-08-30T13:48:14.394Z</time>
      </trkpt>
      <trkpt lat="49.62483" lon="-1.24377">
        <ele>4.46</ele>
        <time>2021-08-30T13:48:21.192Z</time>
      </trkpt>
      <trkpt lat="49.62479" lon="-1.24395">
        <ele>4.31</ele>
        <time>2021-08-30T13:48:27.992Z</time>
      </trkpt>
      <trkpt lat="49.62479" lon="-1.24395">
        <ele>4.31</ele>
        <time>2021-08-30T13:48:34.792Z</time>
      </trkpt>
      <trkpt lat="49.62469" lon="-1.24397">
        <ele>4.3</ele>
        <time>2021-08-30T13:48:41.593Z</time>
      </trkpt>
      <trkpt lat="49.62469" lon="-1.24397">
        <ele>4.3</ele>
        <time>2021-08-30T13:48:48.394Z</time>
      </trkpt>
      <trkpt lat="49.62454" lon="-1.24404">
        <ele>4.33</ele>
        <time>2021-08-30T13:48:55.198Z</time>
      </trkpt>
      <trkpt lat="49.62454" lon="-1.24404">
        <ele>4.33</ele>
        <time>2021-08-30T13:49:02.002Z</time>
      </trkpt>
      <trkpt lat="49.62435" lon="-1.24418">
        <ele>4.61</ele>
        <time>2021-08-30T13:49:08.809Z</time>
      </trkpt>
      <trkpt lat="49.62435" lon="-1.24418">
        <ele>4.61</ele>
        <time>2021-08-30T13:49:15.616Z</time>
      </trkpt>
      <trkpt lat="49.62398" lon="-1.24441">
        <ele>6.07</ele>
        <time>2021-08-30T13:49:22.430Z</time>
      </trkpt>
      <trkpt lat="49.62398" lon="-1.24441">
        <ele>6.07</ele>
        <time>2021-08-30T13:49:29.244Z</time>
      </trkpt>
      <trkpt lat="49.62377" lon="-1.24448">
        <ele>7.22</ele>
        <time>2021-08-30T13:49:36.061Z</time>
      </trkpt>
      <trkpt lat="49.62377" lon="-1.24448">
        <ele>7.22</ele>
        <time>2021-08-30T13:49:42.878Z</time>
      </trkpt>
      <trkpt lat="49.62365" lon="-1.24448">
        <ele>7.31</ele>
        <time>2021-08-30T13:49:49.697Z</time>
      </trkpt>
      <trkpt lat="49.62365" lon="-1.24448">
        <ele>7.31</ele>
        <time>2021-08-30T13:49:56.516Z</time>
      </trkpt>
      <trkpt lat="49.62346" lon="-1.24441">
        <ele>7.82</ele>
        <time>2021-08-30T13:50:03.338Z</time>
      </trkpt>
      <trkpt lat="49.62346" lon="-1.24441">
        <ele>7.82</ele>
        <time>2021-08-30T13:50:10.160Z</time>
      </trkpt>
      <trkpt lat="49.6234" lon="-1.24445">
        <ele>7.82</ele>
        <time>2021-08-30T13:50:16.983Z</time>
      </trkpt>
      <trkpt lat="49.6234" lon="-1.24445">
        <ele>7.82</ele>
        <time>2021-08-30T13:50:23.806Z</time>
      </trkpt>
      <trkpt lat="49.62323" lon="-1.24472">
        <ele>7.86</ele>
        <time>2021-08-30T13:50:30.633Z</time>
      </trkpt>
      <trkpt lat="49.62323" lon="-1.24472">
        <ele>7.86</ele>
        <time>2021-08-30T13:50:37.460Z</time>
      </trkpt>
      <trkpt lat="49.62316" lon="-1.24477">
        <ele>6.93</ele>
        <time>2021-08-30T13:50:44.288Z</time>
      </trkpt>
      <trkpt lat="49.62316" lon="-1.24477">
        <ele>6.93</ele>
        <time>2021-08-30T13:50:51.116Z</time>
      </trkpt>
      <trkpt lat="49.62307" lon="-1.24478">
        <ele>6.93</ele>
        <time>2021-08-30T13:50:57.946Z</time>
      </trkpt>
      <trkpt lat="49.62307" lon="-1.24478">
        <ele>6.93</ele>
        <time>2021-08-30T13:51:04.776Z</time>
      </trkpt>
      <trkpt lat="49.62296" lon="-1.24472">
        <ele>6.6</ele>
        <time>2021-08-30T13:51:11.608Z</time>
      </trkpt>
      <trkpt lat="49.62296" lon="-1.24472">
        <ele>6.6</ele>
        <time>2021-08-30T13:51:18.440Z</time>
      </trkpt>
      <trkpt lat="49.62243" lon="-1.24421">
        <ele>5.46</ele>
        <time>2021-08-30T13:51:25.282Z</time>
      </trkpt>
      <trkpt lat="49.62243" lon="-1.24421">
        <ele>5.46</ele>
        <time>2021-08-30T13:51:32.124Z</time>
      </trkpt>
      <trkpt lat="49.62237" lon="-1.24421">
        <ele>5.46</ele>
        <time>2021-08-30T13:51:38.967Z</time>
      </trkpt>
      <trkpt lat="49.62237" lon="-1.24421">
        <ele>5.46</ele>
        <time>2021-08-30T13:51:45.810Z</time>
      </trkpt>
      <trkpt lat="49.62225" lon="-1.24427">
        <ele>5.52</ele>
        <time>2021-08-30T13:51:52.655Z</time>
      </trkpt>
      <trkpt lat="49.62225" lon="-1.24427">
        <ele>5.52</ele>
        <time>2021-08-30T13:51:59.500Z</time>
      </trkpt>
      <trkpt lat="49.62175" lon="-1.24506">
        <ele>5.76</ele>
        <time>2021-08-30T13:52:06.356Z</time>
      </trkpt>
      <trkpt lat="49.62175" lon="-1.24506">
        <ele>5.76</ele>
        <time>2021-08-30T13:52:13.212Z</time>
      </trkpt>
      <trkpt lat="49.62164" lon="-1.24522">
        <ele>5.76</ele>
        <time>2021-08-30T13:52:20.071Z</time>
      </trkpt>
      <trkpt lat="49.62164" lon="-1.24522">
        <ele>5.76</ele>
        <time>2021-08-30T13:52:26.930Z</time>
      </trkpt>
      <trkpt lat="49.62049" lon="-1.24598">
        <ele>5.8</ele>
        <time>2021-08-30T13:52:33.809Z</time>
      </trkpt>
      <trkpt lat="49.62049" lon="-1.24598">
        <ele>5.8</ele>
        <time>2021-08-30T13:52:40.688Z</time>
      </trkpt>
      <trkpt lat="49.61984" lon="-1.24675">
        <ele>5.4</ele>
        <time>2021-08-30T13:52:47.580Z</time>
      </trkpt>
      <trkpt lat="49.61984" lon="-1.24675">
        <ele>5.4</ele>
        <time>2021-08-30T13:52:54.472Z</time>
      </trkpt>
      <trkpt lat="49.61938" lon="-1.24719">
        <ele>5.42</ele>
        <time>2021-08-30T13:53:01.372Z</time>
      </trkpt>
      <trkpt lat="49.61938" lon="-1.24719">
        <ele>5.42</ele>
        <time>2021-08-30T13:53:08.272Z</time>
      </trkpt>
      <trkpt lat="49.61914" lon="-1.24728">
        <ele>5.79</ele>
        <time>2021-08-30T13:53:15.176Z</time>
      </trkpt>
      <trkpt lat="49.61914" lon="-1.24728">
        <ele>5.79</ele>
        <time>2021-08-30T13:53:22.080Z</time>
      </trkpt>
      <trkpt lat="49.61907" lon="-1.24733">
        <ele>5.79</ele>
        <time>2021-08-30T13:53:28.986Z</time>
      </trkpt>
      <trkpt lat="49.61907" lon="-1.24733">
        <ele>5.79</ele>
        <time>2021-08-30T13:53:35.892Z</time>
      </trkpt>
      <trkpt lat="49.6188" lon="-1.24736">
        <ele>5.93</ele>
        <time>2021-08-30T13:53:42.802Z</time>
      </trkpt>
      <trkpt lat="49.6188" lon="-1.24736">
        <ele>5.93</ele>
        <time>2021-08-30T13:53:49.712Z</time>
      </trkpt>
      <trkpt lat="49.61743" lon="-1.24716">
        <ele>5.32</ele>
        <time>2021-08-30T13:53:56.644Z</time>
      </trkpt>
      <trkpt lat="49.61743" lon="-1.24716">
        <ele>5.32</ele>
        <time>2021-08-30T13:54:03.576Z</time>
      </trkpt>
      <trkpt lat="49.61642" lon="-1.24702">
        <ele>4.78</ele>
        <time>2021-08-30T13:54:10.524Z</time>
      </trkpt>
      <trkpt lat="49.61642" lon="-1.24702">
        <ele>4.78</ele>
        <time>2021-08-30T13:54:17.472Z</time>
      </trkpt>
      <trkpt lat="49.61612" lon="-1.24709">
        <ele>4.78</ele>
        <time>2021-08-30T13:54:24.425Z</time>
      </trkpt>
      <trkpt lat="49.61612" lon="-1.24709">
        <ele>4.78</ele>
        <time>2021-08-30T13:54:31.378Z</time>
      </trkpt>
      <trkpt lat="49.61582" lon="-1.24722">
        <ele>4.86</ele>
        <time>2021-08-30T13:54:38.336Z</time>
      </trkpt>
      <trkpt lat="49.61582" lon="-1.24722">
        <ele>4.86</ele>
        <time>2021-08-30T13:54:45.294Z</time>
      </trkpt>
      <trkpt lat="49.61491" lon="-1.2477">
        <ele>4.39</ele>
        <time>2021-08-30T13:54:52.268Z</time>
      </trkpt>
      <trkpt lat="49.61491" lon="-1.2477">
        <ele>4.39</ele>
        <time>2021-08-30T13:54:59.242Z</time>
      </trkpt>
      <trkpt lat="49.6144" lon="-1.2479">
        <ele>3.44</ele>
        <time>2021-08-30T13:55:06.224Z</time>
      </trkpt>
      <trkpt lat="49.6144" lon="-1.2479">
        <ele>3.44</ele>
        <time>2021-08-30T13:55:13.206Z</time>
      </trkpt>
      <trkpt lat="49.61411" lon="-1.24809">
        <ele>3.13</ele>
        <time>2021-08-30T13:55:20.193Z</time>
      </trkpt>
      <trkpt lat="49.61411" lon="-1.24809">
        <ele>3.13</ele>
        <time>2021-08-30T13:55:27.180Z</time>
      </trkpt>
      <trkpt lat="49.61344" lon="-1.24834">
        <ele>2.53</ele>
        <time>2021-08-30T13:55:34.178Z</time>
      </trkpt>
      <trkpt lat="49.61344" lon="-1.24834">
        <ele>2.53</ele>
        <time>2021-08-30T13:55:41.176Z</time>
      </trkpt>
      <trkpt lat="49.61293" lon="-1.24872">
        <ele>2.42</ele>
        <time>2021-08-30T13:55:48.183Z</time>
      </trkpt>
      <trkpt lat="49.61293" lon="-1.24872">
        <ele>2.42</ele>
        <time>2021-08-30T13:55:55.190Z</time>
      </trkpt>
      <trkpt lat="49.61285" lon="-1.2488">
        <ele>2.42</ele>
        <time>2021-08-30T13:56:02.199Z</time>
      </trkpt>
      <trkpt lat="49.61285" lon="-1.2488">
        <ele>2.42</ele>
        <time>2021-08-30T13:56:09.208Z</time>
      </trkpt>
      <trkpt lat="49.61291" lon="-1.24873">
        <ele>2.42</ele>
        <time>2021-08-30T13:56:16.218Z</time>
      </trkpt>
      <trkpt lat="49.61291" lon="-1.24873">
        <ele>2.42</ele>
        <time>2021-08-30T13:56:23.228Z</time>
      </trkpt>
      <trkpt lat="49.61281" lon="-1.24885">
        <ele>2.35</ele>
        <time>2021-08-30T13:56:30.240Z</time>
      </trkpt>
      <trkpt lat="49.61281" lon="-1.24885">
        <ele>2.35</ele>
        <time>2021-08-30T13:56:37.252Z</time>
      </trkpt>
      <trkpt lat="49.61274" lon="-1.24895">
        <ele>2.35</ele>
        <time>2021-08-30T13:56:44.265Z</time>
      </trkpt>
      <trkpt lat="49.61274" lon="-1.24895">
        <ele>2.35</ele>
        <time>2021-08-30T13:56:51.278Z</time>
      </trkpt>
      <trkpt lat="49.61272" lon="-1.24902">
        <ele>2.35</ele>
        <time>2021-08-30T13:56:58.292Z</time>
      </trkpt>
      <trkpt lat="49.61272" lon="-1.24902">
        <ele>2.35</ele>
        <time>2021-08-30T13:57:05.306Z</time>
      </trkpt>
      <trkpt lat="49.61268" lon="-1.24987">
        <ele>2.34</ele>
        <time>2021-08-30T13:57:12.329Z</time>
      </trkpt>
      <trkpt lat="49.61268" lon="-1.24987">
        <ele>2.34</ele>
        <time>2021-08-30T13:57:19.352Z</time>
      </trkpt>
      <trkpt lat="49.61257" lon="-1.25112">
        <ele>2.71</ele>
        <time>2021-08-30T13:57:26.388Z</time>
      </trkpt>
      <trkpt lat="49.61257" lon="-1.25112">
        <ele>2.71</ele>
        <time>2021-08-30T13:57:33.424Z</time>
      </trkpt>
      <trkpt lat="49.61255" lon="-1.25197">
        <ele>2.57</ele>
        <time>2021-08-30T13:57:40.469Z</time>
      </trkpt>
      <trkpt lat="49.61255" lon="-1.25197">
        <ele>2.57</ele>
        <time>2021-08-30T13:57:47.514Z</time>
      </trkpt>
      <trkpt lat="49.61258" lon="-1.25295">
        <ele>2.52</ele>
        <time>2021-08-30T13:57:54.569Z</time>
      </trkpt>
      <trkpt lat="49.61258" lon="-1.25295">
        <ele>2.52</ele>
        <time>2021-08-30T13:58:01.624Z</time>
      </trkpt>
      <trkpt lat="49.61262" lon="-1.2536">
        <ele>2.33</ele>
        <time>2021-08-30T13:58:08.686Z</time>
      </trkpt>
      <trkpt lat="49.61262" lon="-1.2536">
        <ele>2.33</ele>
        <time>2021-08-30T13:58:15.748Z</time>
      </trkpt>
      <trkpt lat="49.61265" lon="-1.2538">
        <ele>2.33</ele>
        <time>2021-08-30T13:58:22.812Z</time>
      </trkpt>
      <trkpt lat="49.61265" lon="-1.2538">
        <ele>2.33</ele>
        <time>2021-08-30T13:58:29.876Z</time>
      </trkpt>
      <trkpt lat="49.6128" lon="-1.25448">
        <ele>2.41</ele>
        <time>2021-08-30T13:58:36.948Z</time>
      </trkpt>
      <trkpt lat="49.6128" lon="-1.25448">
        <ele>2.41</ele>
        <time>2021-08-30T13:58:44.020Z</time>
      </trkpt>
      <trkpt lat="49.61307" lon="-1.2558">
        <ele>3.24</ele>
        <time>2021-08-30T13:58:51.106Z</time>
      </trkpt>
      <trkpt lat="49.61307" lon="-1.2558">
        <ele>3.24</ele>
        <time>2021-08-30T13:58:58.192Z</time>
      </trkpt>
      <trkpt lat="49.61306" lon="-1.25592">
        <ele>3.24</ele>
        <time>2021-08-30T13:59:05.279Z</time>
      </trkpt>
      <trkpt lat="49.61306" lon="-1.25592">
        <ele>3.24</ele>
        <time>2021-08-30T13:59:12.366Z</time>
      </trkpt>
      <trkpt lat="49.61288" lon="-1.2559">
        <ele>3.24</ele>
        <time>2021-08-30T13:59:19.456Z</time>
      </trkpt>
      <trkpt lat="49.61288" lon="-1.2559">
        <ele>3.24</ele>
        <time>2021-08-30T13:59:26.546Z</time>
      </trkpt>
      <trkpt lat="49.61167" lon="-1.25628">
        <ele>2.75</ele>
        <time>2021-08-30T13:59:33.656Z</time>
      </trkpt>
      <trkpt lat="49.61167" lon="-1.25628">
        <ele>2.75</ele>
        <time>2021-08-30T13:59:40.766Z</time>
      </trkpt>
      <trkpt lat="49.60894" lon="-1.25736">
        <ele>2.98</ele>
        <time>2021-08-30T13:59:47.921Z</time>
      </trkpt>
      <trkpt lat="49.60894" lon="-1.25736">
        <ele>2.98</ele>
        <time>2021-08-30T13:59:55.076Z</time>
      </trkpt>
      <trkpt lat="49.60455" lon="-1.25905">
        <ele>2.06</ele>
        <time>2021-08-30T14:00:02.304Z</time>
      </trkpt>
      <trkpt lat="49.60455" lon="-1.25905">
        <ele>2.06</ele>
        <time>2021-08-30T14:00:09.532Z</time>
      </trkpt>
      <trkpt lat="49.60394" lon="-1.25942">
        <ele>2.17</ele>
        <time>2021-08-30T14:00:16.770Z</time>
      </trkpt>
      <trkpt lat="49.60394" lon="-1.25942">
        <ele>2.17</ele>
        <time>2021-08-30T14:00:24.008Z</time>
      </trkpt>
      <trkpt lat="49.60319" lon="-1.2599">
        <ele>2.41</ele>
        <time>2021-08-30T14:00:31.259Z</time>
      </trkpt>
      <trkpt lat="49.60319" lon="-1.2599">
        <ele>2.41</ele>
        <time>2021-08-30T14:00:38.510Z</time>
      </trkpt>
      <trkpt lat="49.60242" lon="-1.26043">
        <ele>2.38</ele>
        <time>2021-08-30T14:00:45.775Z</time>
      </trkpt>
      <trkpt lat="49.60242" lon="-1.26043">
        <ele>2.38</ele>
        <time>2021-08-30T14:00:53.040Z</time>
      </trkpt>
      <trkpt lat="49.60113" lon="-1.26127">
        <ele>2.19</ele>
        <time>2021-08-30T14:01:00.327Z</time>
      </trkpt>
      <trkpt lat="49.60113" lon="-1.26127">
        <ele>2.19</ele>
        <time>2021-08-30T14:01:07.614Z</time>
      </trkpt>
      <trkpt lat="49.59927" lon="-1.26285">
        <ele>2.08</ele>
        <time>2021-08-30T14:01:14.935Z</time>
      </trkpt>
      <trkpt lat="49.59927" lon="-1.26285">
        <ele>2.08</ele>
        <time>2021-08-30T14:01:22.256Z</time>
      </trkpt>
      <trkpt lat="49.59876" lon="-1.26317">
        <ele>2.01</ele>
        <time>2021-08-30T14:01:29.586Z</time>
      </trkpt>
      <trkpt lat="49.59876" lon="-1.26317">
        <ele>2.01</ele>
        <time>2021-08-30T14:01:36.916Z</time>
      </trkpt>
      <trkpt lat="49.59358" lon="-1.26637">
        <ele>1.91</ele>
        <time>2021-08-30T14:01:44.335Z</time>
      </trkpt>
      <trkpt lat="49.59358" lon="-1.26637">
        <ele>1.91</ele>
        <time>2021-08-30T14:01:51.754Z</time>
      </trkpt>
      <trkpt lat="49.59303" lon="-1.26671">
        <ele>2.25</ele>
        <time>2021-08-30T14:01:59.183Z</time>
      </trkpt>
      <trkpt lat="49.59303" lon="-1.26671">
        <ele>2.25</ele>
        <time>2021-08-30T14:02:06.612Z</time>
      </trkpt>
      <trkpt lat="49.59282" lon="-1.26681">
        <ele>2.25</ele>
        <time>2021-08-30T14:02:14.044Z</time>
      </trkpt>
      <trkpt lat="49.59282" lon="-1.26681">
        <ele>2.25</ele>
        <time>2021-08-30T14:02:21.476Z</time>
      </trkpt>
      <trkpt lat="49.59266" lon="-1.26685">
        <ele>2.35</ele>
        <time>2021-08-30T14:02:28.911Z</time>
      </trkpt>
      <trkpt lat="49.59266" lon="-1.26685">
        <ele>2.35</ele>
        <time>2021-08-30T14:02:36.346Z</time>
      </trkpt>
      <trkpt lat="49.59223" lon="-1.26681">
        <ele>2.56</ele>
        <time>2021-08-30T14:02:43.788Z</time>
      </trkpt>
      <trkpt lat="49.59223" lon="-1.26681">
        <ele>2.56</ele>
        <time>2021-08-30T14:02:51.230Z</time>
      </trkpt>
      <trkpt lat="49.59133" lon="-1.26666">
        <ele>2.9</ele>
        <time>2021-08-30T14:02:58.686Z</time>
      </trkpt>
      <trkpt lat="49.59133" lon="-1.26666">
        <ele>2.9</ele>
        <time>2021-08-30T14:03:06.142Z</time>
      </trkpt>
      <trkpt lat="49.59071" lon="-1.26659">
        <ele>3.02</ele>
        <time>2021-08-30T14:03:13.608Z</time>
      </trkpt>
      <trkpt lat="49.59071" lon="-1.26659">
        <ele>3.02</ele>
        <time>2021-08-30T14:03:21.074Z</time>
      </trkpt>
      <trkpt lat="49.5901" lon="-1.2665">
        <ele>3.06</ele>
        <time>2021-08-30T14:03:28.550Z</time>
      </trkpt>
      <trkpt lat="49.5901" lon="-1.2665">
        <ele>3.06</ele>
        <time>2021-08-30T14:03:36.026Z</time>
      </trkpt>
      <trkpt lat="49.59002" lon="-1.26651">
        <ele>3.06</ele>
        <time>2021-08-30T14:03:43.503Z</time>
      </trkpt>
      <trkpt lat="49.59002" lon="-1.26651">
        <ele>3.06</ele>
        <time>2021-08-30T14:03:50.980Z</time>
      </trkpt>
      <trkpt lat="49.58991" lon="-1.26644">
        <ele>3.14</ele>
        <time>2021-08-30T14:03:58.459Z</time>
      </trkpt>
      <trkpt lat="49.58991" lon="-1.26644">
        <ele>3.14</ele>
        <time>2021-08-30T14:04:05.938Z</time>
      </trkpt>
      <trkpt lat="49.58964" lon="-1.2662">
        <ele>3.08</ele>
        <time>2021-08-30T14:04:13.422Z</time>
      </trkpt>
      <trkpt lat="49.58964" lon="-1.2662">
        <ele>3.08</ele>
        <time>2021-08-30T14:04:20.906Z</time>
      </trkpt>
      <trkpt lat="49.5896" lon="-1.26618">
        <ele>3.08</ele>
        <time>2021-08-30T14:04:28.391Z</time>
      </trkpt>
      <trkpt lat="49.5896" lon="-1.26618">
        <ele>3.08</ele>
        <time>2021-08-30T14:04:35.876Z</time>
      </trkpt>
      <trkpt lat="49.58952" lon="-1.26621">
        <ele>3.08</ele>
        <time>2021-08-30T14:04:43.362Z</time>
      </trkpt>
      <trkpt lat="49.58952" lon="-1.26621">
        <ele>3.08</ele>
        <time>2021-08-30T14:04:50.848Z</time>
      </trkpt>
      <trkpt lat="49.58943" lon="-1.26627">
        <ele>3.08</ele>
        <time>2021-08-30T14:04:58.336Z</time>
      </trkpt>
      <trkpt lat="49.58943" lon="-1.26627">
        <ele>3.08</ele>
        <time>2021-08-30T14:05:05.824Z</time>
      </trkpt>
      <trkpt lat="49.58936" lon="-1.26627">
        <ele>3.08</ele>
        <time>2021-08-30T14:05:13.313Z</time>
      </trkpt>
      <trkpt lat="49.58936" lon="-1.26627">
        <ele>3.08</ele>
        <time>2021-08-30T14:05:20.802Z</time>
      </trkpt>
      <trkpt lat="49.58919" lon="-1.26622">
        <ele>3.06</ele>
        <time>2021-08-30T14:05:28.294Z</time>
      </trkpt>
      <trkpt lat="49.58919" lon="-1.26622">
        <ele>3.06</ele>
        <time>2021-08-30T14:05:35.786Z</time>
      </trkpt>
      <trkpt lat="49.58894" lon="-1.26617">
        <ele>3.07</ele>
        <time>2021-08-30T14:05:43.282Z</time>
      </trkpt>
      <trkpt lat="49.58894" lon="-1.26617">
        <ele>3.07</ele>
        <time>2021-08-30T14:05:50.778Z</time>
      </trkpt>
      <trkpt lat="49.58856" lon="-1.26621">
        <ele>3.19</ele>
        <time>2021-08-30T14:05:58.280Z</time>
      </trkpt>
      <trkpt lat="49.58856" lon="-1.26621">
        <ele>3.19</ele>
        <time>2021-08-30T14:06:05.782Z</time>
      </trkpt>
      <trkpt lat="49.58846" lon="-1.26615">
        <ele>3.27</ele>
        <time>2021-08-30T14:06:13.286Z</time>
      </trkpt>
      <trkpt lat="49.58846" lon="-1.26615">
        <ele>3.27</ele>
        <time>2021-08-30T14:06:20.790Z</time>
      </trkpt>
      <trkpt lat="49.58818" lon="-1.26583">
        <ele>3.42</ele>
        <time>2021-08-30T14:06:28.299Z</time>
      </trkpt>
      <trkpt lat="49.58818" lon="-1.26583">
        <ele>3.42</ele>
        <time>2021-08-30T14:06:35.808Z</time>
      </trkpt>
      <trkpt lat="49.58794" lon="-1.26563">
        <ele>3.42</ele>
        <time>2021-08-30T14:06:43.322Z</time>
      </trkpt>
      <trkpt lat="49.58794" lon="-1.26563">
        <ele>3.42</ele>
        <time>2021-08-30T14:06:50.836Z</time>
      </trkpt>
      <trkpt lat="49.58718" lon="-1.26507">
        <ele>3.56</ele>
        <time>2021-08-30T14:06:58.363Z</time>
      </trkpt>
      <trkpt lat="49.58718" lon="-1.26507">
        <ele>3.56</ele>
        <time>2021-08-30T14:07:05.890Z</time>
      </trkpt>
      <trkpt lat="49.58638" lon="-1.26447">
        <ele>3.51</ele>
        <time>2021-08-30T14:07:13.431Z</time>
      </trkpt>
      <trkpt lat="49.58638" lon="-1.26447">
        <ele>3.51</ele>
        <time>2021-08-30T14:07:20.972Z</time>
      </trkpt>
      <trkpt lat="49.58626" lon="-1.26444">
        <ele>3.48</ele>
        <time>2021-08-30T14:07:28.515Z</time>
      </trkpt>
      <trkpt lat="49.58626" lon="-1.26444">
        <ele>3.48</ele>
        <time>2021-08-30T14:07:36.058Z</time>
      </trkpt>
      <trkpt lat="49.58621" lon="-1.26445">
        <ele>3.48</ele>
        <time>2021-08-30T14:07:43.602Z</time>
      </trkpt>
      <trkpt lat="49.58621" lon="-1.26445">
        <ele>3.48</ele>
        <time>2021-08-30T14:07:51.146Z</time>
      </trkpt>
      <trkpt lat="49.58619" lon="-1.26454">
        <ele>3.48</ele>
        <time>2021-08-30T14:07:58.691Z</time>
      </trkpt>
      <trkpt lat="49.58619" lon="-1.26454">
        <ele>3.48</ele>
        <time>2021-08-30T14:08:06.236Z</time>
      </trkpt>
      <trkpt lat="49.58615" lon="-1.26457">
        <ele>3.1</ele>
        <time>2021-08-30T14:08:13.782Z</time>
      </trkpt>
      <trkpt lat="49.58615" lon="-1.26457">
        <ele>3.1</ele>
        <time>2021-08-30T14:08:21.328Z</time>
      </trkpt>
      <trkpt lat="49.5861" lon="-1.26458">
        <ele>3.1</ele>
        <time>2021-08-30T14:08:28.875Z</time>
      </trkpt>
      <trkpt lat="49.5861" lon="-1.26458">
        <ele>3.1</ele>
        <time>2021-08-30T14:08:36.422Z</time>
      </trkpt>
      <trkpt lat="49.58604" lon="-1.26449">
        <ele>3.1</ele>
        <time>2021-08-30T14:08:43.970Z</time>
      </trkpt>
      <trkpt lat="49.58604" lon="-1.26449">
        <ele>3.1</ele>
        <time>2021-08-30T14:08:51.518Z</time>
      </trkpt>
      <trkpt lat="49.58592" lon="-1.26454">
        <ele>2.95</ele>
        <time>2021-08-30T14:08:59.068Z</time>
      </trkpt>
      <trkpt lat="49.58592" lon="-1.26454">
        <ele>2.95</ele>
        <time>2021-08-30T14:09:06.618Z</time>
      </trkpt>
      <trkpt lat="49.58556" lon="-1.26458">
        <ele>2.87</ele>
        <time>2021-08-30T14:09:14.174Z</time>
      </trkpt>
      <trkpt lat="49.58556" lon="-1.26458">
        <ele>2.87</ele>
        <time>2021-08-30T14:09:21.730Z</time>
      </trkpt>
      <trkpt lat="49.5852" lon="-1.26471">
        <ele>2.55</ele>
        <time>2021-08-30T14:09:29.292Z</time>
      </trkpt>
      <trkpt lat="49.5852" lon="-1.26471">
        <ele>2.55</ele>
        <time>2021-08-30T14:09:36.854Z</time>
      </trkpt>
      <trkpt lat="49.58512" lon="-1.26478">
        <ele>2.55</ele>
        <time>2021-08-30T14:09:44.417Z</time>
      </trkpt>
      <trkpt lat="49.58512" lon="-1.26478">
        <ele>2.55</ele>
        <time>2021-08-30T14:09:51.980Z</time>
      </trkpt>
      <trkpt lat="49.58511" lon="-1.26495">
        <ele>2.45</ele>
        <time>2021-08-30T14:09:59.545Z</time>
      </trkpt>
      <trkpt lat="49.58511" lon="-1.26495">
        <ele>2.45</ele>
        <time>2021-08-30T14:10:07.110Z</time>
      </trkpt>
      <trkpt lat="49.58513" lon="-1.26525">
        <ele>2.34</ele>
        <time>2021-08-30T14:10:14.678Z</time>
      </trkpt>
      <trkpt lat="49.58513" lon="-1.26525">
        <ele>2.34</ele>
        <time>2021-08-30T14:10:22.246Z</time>
      </trkpt>
      <trkpt lat="49.58511" lon="-1.2659">
        <ele>2.44</ele>
        <time>2021-08-30T14:10:29.821Z</time>
      </trkpt>
      <trkpt lat="49.58511" lon="-1.2659">
        <ele>2.44</ele>
        <time>2021-08-30T14:10:37.396Z</time>
      </trkpt>
      <trkpt lat="49.58505" lon="-1.26617">
        <ele>2.39</ele>
        <time>2021-08-30T14:10:44.974Z</time>
      </trkpt>
      <trkpt lat="49.58505" lon="-1.26617">
        <ele>2.39</ele>
        <time>2021-08-30T14:10:52.552Z</time>
      </trkpt>
      <trkpt lat="49.58497" lon="-1.26625">
        <ele>2.39</ele>
        <time>2021-08-30T14:11:00.131Z</time>
      </trkpt>
      <trkpt lat="49.58497" lon="-1.26625">
        <ele>2.39</ele>
        <time>2021-08-30T14:11:07.710Z</time>
      </trkpt>
      <trkpt lat="49.58464" lon="-1.26631">
        <ele>2.56</ele>
        <time>2021-08-30T14:11:15.295Z</time>
      </trkpt>
      <trkpt lat="49.58464" lon="-1.26631">
        <ele>2.56</ele>
        <time>2021-08-30T14:11:22.880Z</time>
      </trkpt>
      <trkpt lat="49.58442" lon="-1.26606">
        <ele>2.47</ele>
        <time>2021-08-30T14:11:30.469Z</time>
      </trkpt>
      <trkpt lat="49.58442" lon="-1.26606">
        <ele>2.47</ele>
        <time>2021-08-30T14:11:38.058Z</time>
      </trkpt>
      <trkpt lat="49.58424" lon="-1.2659">
        <ele>2.43</ele>
        <time>2021-08-30T14:11:45.650Z</time>
      </trkpt>
      <trkpt lat="49.58424" lon="-1.2659">
        <ele>2.43</ele>
        <time>2021-08-30T14:11:53.242Z</time>
      </trkpt>
      <trkpt lat="49.5841" lon="-1.26583">
        <ele>2.49</ele>
        <time>2021-08-30T14:12:00.837Z</time>
      </trkpt>
      <trkpt lat="49.5841" lon="-1.26583">
        <ele>2.49</ele>
        <time>2021-08-30T14:12:08.432Z</time>
      </trkpt>
      <trkpt lat="49.58395" lon="-1.2658">
        <ele>2.73</ele>
        <time>2021-08-30T14:12:16.029Z</time>
      </trkpt>
      <trkpt lat="49.58395" lon="-1.2658">
        <ele>2.73</ele>
        <time>2021-08-30T14:12:23.626Z</time>
      </trkpt>
      <trkpt lat="49.58364" lon="-1.26593">
        <ele>2.78</ele>
        <time>2021-08-30T14:12:31.228Z</time>
      </trkpt>
      <trkpt lat="49.58364" lon="-1.26593">
        <ele>2.78</ele>
        <time>2021-08-30T14:12:38.830Z</time>
      </trkpt>
      <trkpt lat="49.58344" lon="-1.2661">
        <ele>2.65</ele>
        <time>2021-08-30T14:12:46.436Z</time>
      </trkpt>
      <trkpt lat="49.58344" lon="-1.2661">
        <ele>2.65</ele>
        <time>2021-08-30T14:12:54.042Z</time>
      </trkpt>
      <trkpt lat="49.5824" lon="-1.26755">
        <ele>2.65</ele>
        <time>2021-08-30T14:13:01.670Z</time>
      </trkpt>
      <trkpt lat="49.5824" lon="-1.26755">
        <ele>2.65</ele>
        <time>2021-08-30T14:13:09.298Z</time>
      </trkpt>
      <trkpt lat="49.58243" lon="-1.26763">
        <ele>2.65</ele>
        <time>2021-08-30T14:13:16.927Z</time>
      </trkpt>
      <trkpt lat="49.58243" lon="-1.26763">
        <ele>2.65</ele>
        <time>2021-08-30T14:13:24.556Z</time>
      </trkpt>
      <trkpt lat="49.58239" lon="-1.26789">
        <ele>2.65</ele>
        <time>2021-08-30T14:13:32.188Z</time>
      </trkpt>
      <trkpt lat="49.58239" lon="-1.26789">
        <ele>2.65</ele>
        <time>2021-08-30T14:13:39.820Z</time>
      </trkpt>
      <trkpt lat="49.58232" lon="-1.26793">
        <ele>2.65</ele>
        <time>2021-08-30T14:13:47.453Z</time>
      </trkpt>
      <trkpt lat="49.58232" lon="-1.26793">
        <ele>2.65</ele>
        <time>2021-08-30T14:13:55.086Z</time>
      </trkpt>
      <trkpt lat="49.582" lon="-1.26838">
        <ele>2.57</ele>
        <time>2021-08-30T14:14:02.726Z</time>
      </trkpt>
      <trkpt lat="49.582" lon="-1.26838">
        <ele>2.57</ele>
        <time>2021-08-30T14:14:10.366Z</time>
      </trkpt>
      <trkpt lat="49.58184" lon="-1.26858">
        <ele>2.72</ele>
        <time>2021-08-30T14:14:18.010Z</time>
      </trkpt>
      <trkpt lat="49.58184" lon="-1.26858">
        <ele>2.72</ele>
        <time>2021-08-30T14:14:25.654Z</time>
      </trkpt>
      <trkpt lat="49.58179" lon="-1.26856">
        <ele>2.72</ele>
        <time>2021-08-30T14:14:33.298Z</time>
      </trkpt>
      <trkpt lat="49.58179" lon="-1.26856">
        <ele>2.72</ele>
        <time>2021-08-30T14:14:40.942Z</time>
      </trkpt>
      <trkpt lat="49.58048" lon="-1.26966">
        <ele>2.81</ele>
        <time>2021-08-30T14:14:48.610Z</time>
      </trkpt>
      <trkpt lat="49.58048" lon="-1.26966">
        <ele>2.81</ele>
        <time>2021-08-30T14:14:56.278Z</time>
      </trkpt>
      <trkpt lat="49.5792" lon="-1.27081">
        <ele>3.44</ele>
        <time>2021-08-30T14:15:03.970Z</time>
      </trkpt>
      <trkpt lat="49.5792" lon="-1.27081">
        <ele>3.44</ele>
        <time>2021-08-30T14:15:11.662Z</time>
      </trkpt>
      <trkpt lat="49.57902" lon="-1.27105">
        <ele>3.75</ele>
        <time>2021-08-30T14:15:19.358Z</time>
      </trkpt>
      <trkpt lat="49.57902" lon="-1.27105">
        <ele>3.75</ele>
        <time>2021-08-30T14:15:27.054Z</time>
      </trkpt>
      <trkpt lat="49.57888" lon="-1.2712">
        <ele>3.75</ele>
        <time>2021-08-30T14:15:34.753Z</time>
      </trkpt>
      <trkpt lat="49.57888" lon="-1.2712">
        <ele>3.75</ele>
        <time>2021-08-30T14:15:42.452Z</time>
      </trkpt>
      <trkpt lat="49.57758" lon="-1.27238">
        <ele>3.2</ele>
        <time>2021-08-30T14:15:50.175Z</time>
      </trkpt>
      <trkpt lat="49.57758" lon="-1.27238">
        <ele>3.2</ele>
        <time>2021-08-30T14:15:57.898Z</time>
      </trkpt>
      <trkpt lat="49.57749" lon="-1.27244">
        <ele>3.03</ele>
        <time>2021-08-30T14:16:05.622Z</time>
      </trkpt>
      <trkpt lat="49.57749" lon="-1.27244">
        <ele>3.03</ele>
        <time>2021-08-30T14:16:13.346Z</time>
      </trkpt>
      <trkpt lat="49.57735" lon="-1.2725">
        <ele>2.94</ele>
        <time>2021-08-30T14:16:21.073Z</time>
      </trkpt>
      <trkpt lat="49.57735" lon="-1.2725">
        <ele>2.94</ele>
        <time>2021-08-30T14:16:28.800Z</time>
      </trkpt>
      <trkpt lat="49.57731" lon="-1.27388">
        <ele>2.84</ele>
        <time>2021-08-30T14:16:36.541Z</time>
      </trkpt>
      <trkpt lat="49.57731" lon="-1.27388">
        <ele>2.84</ele>
        <time>2021-08-30T14:16:44.282Z</time>
      </trkpt>
      <trkpt lat="49.57735" lon="-1.2725">
        <ele>3.36</ele>
        <time>2021-08-30T14:16:52.037Z</time>
      </trkpt>
      <trkpt lat="49.57735" lon="-1.2725">
        <ele>3.36</ele>
        <time>2021-08-30T14:16:59.792Z</time>
      </trkpt>
      <trkpt lat="49.57749" lon="-1.27244">
        <ele>3.36</ele>
        <time>2021-08-30T14:17:07.550Z</time>
      </trkpt>
      <trkpt lat="49.57749" lon="-1.27244">
        <ele>3.36</ele>
        <time>2021-08-30T14:17:15.308Z</time>
      </trkpt>
      <trkpt lat="49.57758" lon="-1.27238">
        <ele>3.49</ele>
        <time>2021-08-30T14:17:23.067Z</time>
      </trkpt>
      <trkpt lat="49.57758" lon="-1.27238">
        <ele>3.49</ele>
        <time>2021-08-30T14:17:30.826Z</time>
      </trkpt>
      <trkpt lat="49.57888" lon="-1.2712">
        <ele>3.44</ele>
        <time>2021-08-30T14:17:38.610Z</time>
      </trkpt>
      <trkpt lat="49.57888" lon="-1.2712">
        <ele>3.44</ele>
        <time>2021-08-30T14:17:46.394Z</time>
      </trkpt>
      <trkpt lat="49.57902" lon="-1.27105">
        <ele>3.33</ele>
        <time>2021-08-30T14:17:54.180Z</time>
      </trkpt>
      <trkpt lat="49.57902" lon="-1.27105">
        <ele>3.33</ele>
        <time>2021-08-30T14:18:01.966Z</time>
      </trkpt>
      <trkpt lat="49.5792" lon="-1.27081">
        <ele>3.33</ele>
        <time>2021-08-30T14:18:09.756Z</time>
      </trkpt>
      <trkpt lat="49.5792" lon="-1.27081">
        <ele>3.33</ele>
        <time>2021-08-30T14:18:17.546Z</time>
      </trkpt>
      <trkpt lat="49.58048" lon="-1.26966">
        <ele>2.56</ele>
        <time>2021-08-30T14:18:25.360Z</time>
      </trkpt>
      <trkpt lat="49.58048" lon="-1.26966">
        <ele>2.56</ele>
        <time>2021-08-30T14:18:33.174Z</time>
      </trkpt>
      <trkpt lat="49.58179" lon="-1.26856">
        <ele>2.57</ele>
        <time>2021-08-30T14:18:41.012Z</time>
      </trkpt>
      <trkpt lat="49.58179" lon="-1.26856">
        <ele>2.57</ele>
        <time>2021-08-30T14:18:48.850Z</time>
      </trkpt>
      <trkpt lat="49.58184" lon="-1.26858">
        <ele>2.57</ele>
        <time>2021-08-30T14:18:56.689Z</time>
      </trkpt>
      <trkpt lat="49.58184" lon="-1.26858">
        <ele>2.57</ele>
        <time>2021-08-30T14:19:04.528Z</time>
      </trkpt>
      <trkpt lat="49.582" lon="-1.26838">
        <ele>2.65</ele>
        <time>2021-08-30T14:19:12.370Z</time>
      </trkpt>
      <trkpt lat="49.582" lon="-1.26838">
        <ele>2.65</ele>
        <time>2021-08-30T14:19:20.212Z</time>
      </trkpt>
      <trkpt lat="49.58232" lon="-1.26793">
        <ele>2.61</ele>
        <time>2021-08-30T14:19:28.061Z</time>
      </trkpt>
      <trkpt lat="49.58232" lon="-1.26793">
        <ele>2.61</ele>
        <time>2021-08-30T14:19:35.910Z</time>
      </trkpt>
      <trkpt lat="49.58239" lon="-1.26789">
        <ele>2.64</ele>
        <time>2021-08-30T14:19:43.760Z</time>
      </trkpt>
      <trkpt lat="49.58239" lon="-1.26789">
        <ele>2.64</ele>
        <time>2021-08-30T14:19:51.610Z</time>
      </trkpt>
      <trkpt lat="49.58255" lon="-1.26793">
        <ele>2.83</ele>
        <time>2021-08-30T14:19:59.463Z</time>
      </trkpt>
      <trkpt lat="49.58255" lon="-1.26793">
        <ele>2.83</ele>
        <time>2021-08-30T14:20:07.316Z</time>
      </trkpt>
      <trkpt lat="49.58267" lon="-1.26803">
        <ele>2.89</ele>
        <time>2021-08-30T14:20:15.171Z</time>
      </trkpt>
      <trkpt lat="49.58267" lon="-1.26803">
        <ele>2.89</ele>
        <time>2021-08-30T14:20:23.026Z</time>
      </trkpt>
      <trkpt lat="49.58307" lon="-1.26858">
        <ele>2.74</ele>
        <time>2021-08-30T14:20:30.889Z</time>
      </trkpt>
      <trkpt lat="49.58307" lon="-1.26858">
        <ele>2.74</ele>
        <time>2021-08-30T14:20:38.752Z</time>
      </trkpt>
      <trkpt lat="49.58365" lon="-1.26963">
        <ele>3.4</ele>
        <time>2021-08-30T14:20:46.630Z</time>
      </trkpt>
      <trkpt lat="49.58365" lon="-1.26963">
        <ele>3.4</ele>
        <time>2021-08-30T14:20:54.508Z</time>
      </trkpt>
      <trkpt lat="49.5838" lon="-1.26976">
        <ele>3.49</ele>
        <time>2021-08-30T14:21:02.388Z</time>
      </trkpt>
      <trkpt lat="49.5838" lon="-1.26976">
        <ele>3.49</ele>
        <time>2021-08-30T14:21:10.268Z</time>
      </trkpt>
      <trkpt lat="49.58382" lon="-1.26997">
        <ele>3.47</ele>
        <time>2021-08-30T14:21:18.151Z</time>
      </trkpt>
      <trkpt lat="49.58382" lon="-1.26997">
        <ele>3.47</ele>
        <time>2021-08-30T14:21:26.034Z</time>
      </trkpt>
      <trkpt lat="49.58415" lon="-1.27071">
        <ele>2.41</ele>
        <time>2021-08-30T14:21:33.926Z</time>
      </trkpt>
      <trkpt lat="49.58415" lon="-1.27071">
        <ele>2.41</ele>
        <time>2021-08-30T14:21:41.818Z</time>
      </trkpt>
      <trkpt lat="49.58422" lon="-1.27075">
        <ele>2.08</ele>
        <time>2021-08-30T14:21:49.711Z</time>
      </trkpt>
      <trkpt lat="49.58422" lon="-1.27075">
        <ele>2.08</ele>
        <time>2021-08-30T14:21:57.604Z</time>
      </trkpt>
      <trkpt lat="49.58533" lon="-1.27009">
        <ele>2.41</ele>
        <time>2021-08-30T14:22:05.516Z</time>
      </trkpt>
      <trkpt lat="49.58533" lon="-1.27009">
        <ele>2.41</ele>
        <time>2021-08-30T14:22:13.428Z</time>
      </trkpt>
      <trkpt lat="49.58552" lon="-1.27054">
        <ele>2.54</ele>
        <time>2021-08-30T14:22:21.346Z</time>
      </trkpt>
      <trkpt lat="49.58552" lon="-1.27054">
        <ele>2.54</ele>
        <time>2021-08-30T14:22:29.264Z</time>
      </trkpt>
      <trkpt lat="49.5857" lon="-1.27046">
        <ele>2.54</ele>
        <time>2021-08-30T14:22:37.185Z</time>
      </trkpt>
      <trkpt lat="49.5857" lon="-1.27046">
        <ele>2.54</ele>
        <time>2021-08-30T14:22:45.106Z</time>
      </trkpt>
      <trkpt lat="49.58586" lon="-1.2711">
        <ele>2.61</ele>
        <time>2021-08-30T14:22:53.034Z</time>
      </trkpt>
      <trkpt lat="49.58586" lon="-1.2711">
        <ele>2.61</ele>
        <time>2021-08-30T14:23:00.962Z</time>
      </trkpt>
      <trkpt lat="49.5863" lon="-1.2722">
        <ele>2.77</ele>
        <time>2021-08-30T14:23:08.903Z</time>
      </trkpt>
      <trkpt lat="49.5863" lon="-1.2722">
        <ele>2.77</ele>
        <time>2021-08-30T14:23:16.844Z</time>
      </trkpt>
      <trkpt lat="49.58642" lon="-1.27248">
        <ele>2.86</ele>
        <time>2021-08-30T14:23:24.789Z</time>
      </trkpt>
      <trkpt lat="49.58642" lon="-1.27248">
        <ele>2.86</ele>
        <time>2021-08-30T14:23:32.734Z</time>
      </trkpt>
      <trkpt lat="49.58657" lon="-1.27271">
        <ele>2.86</ele>
        <time>2021-08-30T14:23:40.682Z</time>
      </trkpt>
      <trkpt lat="49.58657" lon="-1.27271">
        <ele>2.86</ele>
        <time>2021-08-30T14:23:48.630Z</time>
      </trkpt>
      <trkpt lat="49.58699" lon="-1.27319">
        <ele>3.43</ele>
        <time>2021-08-30T14:23:56.587Z</time>
      </trkpt>
      <trkpt lat="49.58699" lon="-1.27319">
        <ele>3.43</ele>
        <time>2021-08-30T14:24:04.544Z</time>
      </trkpt>
      <trkpt lat="49.58717" lon="-1.27336">
        <ele>3.73</ele>
        <time>2021-08-30T14:24:12.504Z</time>
      </trkpt>
      <trkpt lat="49.58717" lon="-1.27336">
        <ele>3.73</ele>
        <time>2021-08-30T14:24:20.464Z</time>
      </trkpt>
      <trkpt lat="49.58763" lon="-1.27357">
        <ele>3.54</ele>
        <time>2021-08-30T14:24:28.432Z</time>
      </trkpt>
      <trkpt lat="49.58763" lon="-1.27357">
        <ele>3.54</ele>
        <time>2021-08-30T14:24:36.400Z</time>
      </trkpt>
      <trkpt lat="49.58831" lon="-1.27751">
        <ele>3.58</ele>
        <time>2021-08-30T14:24:44.410Z</time>
      </trkpt>
      <trkpt lat="49.58831" lon="-1.27751">
        <ele>3.58</ele>
        <time>2021-08-30T14:24:52.420Z</time>
      </trkpt>
      <trkpt lat="49.58867" lon="-1.27966">
        <ele>3.49</ele>
        <time>2021-08-30T14:25:00.453Z</time>
      </trkpt>
      <trkpt lat="49.58867" lon="-1.27966">
        <ele>3.49</ele>
        <time>2021-08-30T14:25:08.486Z</time>
      </trkpt>
      <trkpt lat="49.58894" lon="-1.28054">
        <ele>3.6</ele>
        <time>2021-08-30T14:25:16.530Z</time>
      </trkpt>
      <trkpt lat="49.58894" lon="-1.28054">
        <ele>3.6</ele>
        <time>2021-08-30T14:25:24.574Z</time>
      </trkpt>
      <trkpt lat="49.58903" lon="-1.28054">
        <ele>3.63</ele>
        <time>2021-08-30T14:25:32.619Z</time>
      </trkpt>
      <trkpt lat="49.58903" lon="-1.28054">
        <ele>3.63</ele>
        <time>2021-08-30T14:25:40.664Z</time>
      </trkpt>
      <trkpt lat="49.58909" lon="-1.28064">
        <ele>3.53</ele>
        <time>2021-08-30T14:25:48.710Z</time>
      </trkpt>
      <trkpt lat="49.58909" lon="-1.28064">
        <ele>3.53</ele>
        <time>2021-08-30T14:25:56.756Z</time>
      </trkpt>
      <trkpt lat="49.58907" lon="-1.28078">
        <ele>3.53</ele>
        <time>2021-08-30T14:26:04.804Z</time>
      </trkpt>
      <trkpt lat="49.58907" lon="-1.28078">
        <ele>3.53</ele>
        <time>2021-08-30T14:26:12.852Z</time>
      </trkpt>
      <trkpt lat="49.58901" lon="-1.28085">
        <ele>3.47</ele>
        <time>2021-08-30T14:26:20.901Z</time>
      </trkpt>
      <trkpt lat="49.58901" lon="-1.28085">
        <ele>3.47</ele>
        <time>2021-08-30T14:26:28.950Z</time>
      </trkpt>
      <trkpt lat="49.58898" lon="-1.28083">
        <ele>3.47</ele>
        <time>2021-08-30T14:26:37.000Z</time>
      </trkpt>
      <trkpt lat="49.58898" lon="-1.28083">
        <ele>3.47</ele>
        <time>2021-08-30T14:26:45.050Z</time>
      </trkpt>
      <trkpt lat="49.58903" lon="-1.28136">
        <ele>3.43</ele>
        <time>2021-08-30T14:26:53.105Z</time>
      </trkpt>
      <trkpt lat="49.58903" lon="-1.28136">
        <ele>3.43</ele>
        <time>2021-08-30T14:27:01.160Z</time>
      </trkpt>
      <trkpt lat="49.58904" lon="-1.28179">
        <ele>3.58</ele>
        <time>2021-08-30T14:27:09.220Z</time>
      </trkpt>
      <trkpt lat="49.58904" lon="-1.28179">
        <ele>3.58</ele>
        <time>2021-08-30T14:27:17.280Z</time>
      </trkpt>
      <trkpt lat="49.58997" lon="-1.28721">
        <ele>3.63</ele>
        <time>2021-08-30T14:27:25.398Z</time>
      </trkpt>
      <trkpt lat="49.58997" lon="-1.28721">
        <ele>3.63</ele>
        <time>2021-08-30T14:27:33.516Z</time>
      </trkpt>
      <trkpt lat="49.59016" lon="-1.28756">
        <ele>3.72</ele>
        <time>2021-08-30T14:27:41.639Z</time>
      </trkpt>
      <trkpt lat="49.59016" lon="-1.28756">
        <ele>3.72</ele>
        <time>2021-08-30T14:27:49.762Z</time>
      </trkpt>
      <trkpt lat="49.5902" lon="-1.28759">
        <ele>3.72</ele>
        <time>2021-08-30T14:27:57.885Z</time>
      </trkpt>
      <trkpt lat="49.5902" lon="-1.28759">
        <ele>3.72</ele>
        <time>2021-08-30T14:28:06.008Z</time>
      </trkpt>
      <trkpt lat="49.59023" lon="-1.28769">
        <ele>3.72</ele>
        <time>2021-08-30T14:28:14.133Z</time>
      </trkpt>
      <trkpt lat="49.59023" lon="-1.28769">
        <ele>3.72</ele>
        <time>2021-08-30T14:28:22.258Z</time>
      </trkpt>
      <trkpt lat="49.59024" lon="-1.28776">
        <ele>3.72</ele>
        <time>2021-08-30T14:28:30.383Z</time>
      </trkpt>
      <trkpt lat="49.59024" lon="-1.28776">
        <ele>3.72</ele>
        <time>2021-08-30T14:28:38.508Z</time>
      </trkpt>
      <trkpt lat="49.5902" lon="-1.28783">
        <ele>3.72</ele>
        <time>2021-08-30T14:28:46.634Z</time>
      </trkpt>
      <trkpt lat="49.5902" lon="-1.28783">
        <ele>3.72</ele>
        <time>2021-08-30T14:28:54.760Z</time>
      </trkpt>
      <trkpt lat="49.59014" lon="-1.28819">
        <ele>3.67</ele>
        <time>2021-08-30T14:29:02.890Z</time>
      </trkpt>
      <trkpt lat="49.59014" lon="-1.28819">
        <ele>3.67</ele>
        <time>2021-08-30T14:29:11.020Z</time>
      </trkpt>
      <trkpt lat="49.59022" lon="-1.28884">
        <ele>3.67</ele>
        <time>2021-08-30T14:29:19.157Z</time>
      </trkpt>
      <trkpt lat="49.59022" lon="-1.28884">
        <ele>3.67</ele>
        <time>2021-08-30T14:29:27.294Z</time>
      </trkpt>
      <trkpt lat="49.59116" lon="-1.2943">
        <ele>5.22</ele>
        <time>2021-08-30T14:29:35.490Z</time>
      </trkpt>
      <trkpt lat="49.59116" lon="-1.2943">
        <ele>5.22</ele>
        <time>2021-08-30T14:29:43.686Z</time>
      </trkpt>
      <trkpt lat="49.59124" lon="-1.29468">
        <ele>5.58</ele>
        <time>2021-08-30T14:29:51.886Z</time>
      </trkpt>
      <trkpt lat="49.59124" lon="-1.29468">
        <ele>5.58</ele>
        <time>2021-08-30T14:30:00.086Z</time>
      </trkpt>
      <trkpt lat="49.59134" lon="-1.29504">
        <ele>5.68</ele>
        <time>2021-08-30T14:30:08.290Z</time>
      </trkpt>
      <trkpt lat="49.59134" lon="-1.29504">
        <ele>5.68</ele>
        <time>2021-08-30T14:30:16.494Z</time>
      </trkpt>
      <trkpt lat="49.59137" lon="-1.29502">
        <ele>5.68</ele>
        <time>2021-08-30T14:30:24.699Z</time>
      </trkpt>
      <trkpt lat="49.59137" lon="-1.29502">
        <ele>5.68</ele>
        <time>2021-08-30T14:30:32.904Z</time>
      </trkpt>
      <trkpt lat="49.59141" lon="-1.29502">
        <ele>5.68</ele>
        <time>2021-08-30T14:30:41.109Z</time>
      </trkpt>
      <trkpt lat="49.59141" lon="-1.29502">
        <ele>5.68</ele>
        <time>2021-08-30T14:30:49.314Z</time>
      </trkpt>
      <trkpt lat="49.59147" lon="-1.29514">
        <ele>6.06</ele>
        <time>2021-08-30T14:30:57.521Z</time>
      </trkpt>
      <trkpt lat="49.59147" lon="-1.29514">
        <ele>6.06</ele>
        <time>2021-08-30T14:31:05.728Z</time>
      </trkpt>
      <trkpt lat="49.59136" lon="-1.29559">
        <ele>6.06</ele>
        <time>2021-08-30T14:31:13.940Z</time>
      </trkpt>
      <trkpt lat="49.59136" lon="-1.29559">
        <ele>6.06</ele>
        <time>2021-08-30T14:31:22.152Z</time>
      </trkpt>
      <trkpt lat="49.59133" lon="-1.29564">
        <ele>6.06</ele>
        <time>2021-08-30T14:31:30.365Z</time>
      </trkpt>
      <trkpt lat="49.59133" lon="-1.29564">
        <ele>6.06</ele>
        <time>2021-08-30T14:31:38.578Z</time>
      </trkpt>
      <trkpt lat="49.59147" lon="-1.29601">
        <ele>6.53</ele>
        <time>2021-08-30T14:31:46.795Z</time>
      </trkpt>
      <trkpt lat="49.59147" lon="-1.29601">
        <ele>6.53</ele>
        <time>2021-08-30T14:31:55.012Z</time>
      </trkpt>
      <trkpt lat="49.59231" lon="-1.30088">
        <ele>11.21</ele>
        <time>2021-08-30T14:32:03.282Z</time>
      </trkpt>
      <trkpt lat="49.59231" lon="-1.30088">
        <ele>11.21</ele>
        <time>2021-08-30T14:32:11.552Z</time>
      </trkpt>
      <trkpt lat="49.59231" lon="-1.30162">
        <ele>11.36</ele>
        <time>2021-08-30T14:32:19.829Z</time>
      </trkpt>
      <trkpt lat="49.59231" lon="-1.30162">
        <ele>11.36</ele>
        <time>2021-08-30T14:32:28.106Z</time>
      </trkpt>
      <trkpt lat="49.59229" lon="-1.30163">
        <ele>10.94</ele>
        <time>2021-08-30T14:32:36.384Z</time>
      </trkpt>
      <trkpt lat="49.59229" lon="-1.30163">
        <ele>10.94</ele>
        <time>2021-08-30T14:32:44.662Z</time>
      </trkpt>
      <trkpt lat="49.59229" lon="-1.30168">
        <ele>10.94</ele>
        <time>2021-08-30T14:32:52.940Z</time>
      </trkpt>
      <trkpt lat="49.59229" lon="-1.30168">
        <ele>10.94</ele>
        <time>2021-08-30T14:33:01.218Z</time>
      </trkpt>
      <trkpt lat="49.59098" lon="-1.30203">
        <ele>10.2</ele>
        <time>2021-08-30T14:33:09.517Z</time>
      </trkpt>
      <trkpt lat="49.59098" lon="-1.30203">
        <ele>10.2</ele>
        <time>2021-08-30T14:33:17.816Z</time>
      </trkpt>
      <trkpt lat="49.59049" lon="-1.30218">
        <ele>9.91</ele>
        <time>2021-08-30T14:33:26.123Z</time>
      </trkpt>
      <trkpt lat="49.59049" lon="-1.30218">
        <ele>9.91</ele>
        <time>2021-08-30T14:33:34.430Z</time>
      </trkpt>
      <trkpt lat="49.58967" lon="-1.30234">
        <ele>9.84</ele>
        <time>2021-08-30T14:33:42.751Z</time>
      </trkpt>
      <trkpt lat="49.58967" lon="-1.30234">
        <ele>9.84</ele>
        <time>2021-08-30T14:33:51.072Z</time>
      </trkpt>
      <trkpt lat="49.58862" lon="-1.30243">
        <ele>9.46</ele>
        <time>2021-08-30T14:33:59.409Z</time>
      </trkpt>
      <trkpt lat="49.58862" lon="-1.30243">
        <ele>9.46</ele>
        <time>2021-08-30T14:34:07.746Z</time>
      </trkpt>
      <trkpt lat="49.5881" lon="-1.30258">
        <ele>9.28</ele>
        <time>2021-08-30T14:34:16.092Z</time>
      </trkpt>
      <trkpt lat="49.5881" lon="-1.30258">
        <ele>9.28</ele>
        <time>2021-08-30T14:34:24.438Z</time>
      </trkpt>
      <trkpt lat="49.58798" lon="-1.30263">
        <ele>9.28</ele>
        <time>2021-08-30T14:34:32.786Z</time>
      </trkpt>
      <trkpt lat="49.58798" lon="-1.30263">
        <ele>9.28</ele>
        <time>2021-08-30T14:34:41.134Z</time>
      </trkpt>
      <trkpt lat="49.5875" lon="-1.30292">
        <ele>9.27</ele>
        <time>2021-08-30T14:34:49.490Z</time>
      </trkpt>
      <trkpt lat="49.5875" lon="-1.30292">
        <ele>9.27</ele>
        <time>2021-08-30T14:34:57.846Z</time>
      </trkpt>
      <trkpt lat="49.58722" lon="-1.30312">
        <ele>9.29</ele>
        <time>2021-08-30T14:35:06.207Z</time>
      </trkpt>
      <trkpt lat="49.58722" lon="-1.30312">
        <ele>9.29</ele>
        <time>2021-08-30T14:35:14.568Z</time>
      </trkpt>
      <trkpt lat="49.5867" lon="-1.30333">
        <ele>9.43</ele>
        <time>2021-08-30T14:35:22.938Z</time>
      </trkpt>
      <trkpt lat="49.5867" lon="-1.30333">
        <ele>9.43</ele>
        <time>2021-08-30T14:35:31.308Z</time>
      </trkpt>
      <trkpt lat="49.58575" lon="-1.30362">
        <ele>9.92</ele>
        <time>2021-08-30T14:35:39.693Z</time>
      </trkpt>
      <trkpt lat="49.58575" lon="-1.30362">
        <ele>9.92</ele>
        <time>2021-08-30T14:35:48.078Z</time>
      </trkpt>
      <trkpt lat="49.58475" lon="-1.30411">
        <ele>9.83</ele>
        <time>2021-08-30T14:35:56.480Z</time>
      </trkpt>
      <trkpt lat="49.58475" lon="-1.30411">
        <ele>9.83</ele>
        <time>2021-08-30T14:36:04.882Z</time>
      </trkpt>
      <trkpt lat="49.58361" lon="-1.30474">
        <ele>9.83</ele>
        <time>2021-08-30T14:36:13.303Z</time>
      </trkpt>
      <trkpt lat="49.58361" lon="-1.30474">
        <ele>9.83</ele>
        <time>2021-08-30T14:36:21.724Z</time>
      </trkpt>
      <trkpt lat="49.58276" lon="-1.30518">
        <ele>9.91</ele>
        <time>2021-08-30T14:36:30.160Z</time>
      </trkpt>
      <trkpt lat="49.58276" lon="-1.30518">
        <ele>9.91</ele>
        <time>2021-08-30T14:36:38.596Z</time>
      </trkpt>
      <trkpt lat="49.58235" lon="-1.30545">
        <ele>9.88</ele>
        <time>2021-08-30T14:36:47.039Z</time>
      </trkpt>
      <trkpt lat="49.58235" lon="-1.30545">
        <ele>9.88</ele>
        <time>2021-08-30T14:36:55.482Z</time>
      </trkpt>
      <trkpt lat="49.58194" lon="-1.30573">
        <ele>10.03</ele>
        <time>2021-08-30T14:37:03.932Z</time>
      </trkpt>
      <trkpt lat="49.58194" lon="-1.30573">
        <ele>10.03</ele>
        <time>2021-08-30T14:37:12.382Z</time>
      </trkpt>
      <trkpt lat="49.58113" lon="-1.30644">
        <ele>10.43</ele>
        <time>2021-08-30T14:37:20.847Z</time>
      </trkpt>
      <trkpt lat="49.58113" lon="-1.30644">
        <ele>10.43</ele>
        <time>2021-08-30T14:37:29.312Z</time>
      </trkpt>
      <trkpt lat="49.5803" lon="-1.30711">
        <ele>10.86</ele>
        <time>2021-08-30T14:37:37.792Z</time>
      </trkpt>
      <trkpt lat="49.5803" lon="-1.30711">
        <ele>10.86</ele>
        <time>2021-08-30T14:37:46.272Z</time>
      </trkpt>
      <trkpt lat="49.57987" lon="-1.3074">
        <ele>11.2</ele>
        <time>2021-08-30T14:37:54.760Z</time>
      </trkpt>
      <trkpt lat="49.57987" lon="-1.3074">
        <ele>11.2</ele>
        <time>2021-08-30T14:38:03.248Z</time>
      </trkpt>
      <trkpt lat="49.57953" lon="-1.30773">
        <ele>11.4</ele>
        <time>2021-08-30T14:38:11.742Z</time>
      </trkpt>
      <trkpt lat="49.57953" lon="-1.30773">
        <ele>11.4</ele>
        <time>2021-08-30T14:38:20.236Z</time>
      </trkpt>
      <trkpt lat="49.57869" lon="-1.30867">
        <ele>12.78</ele>
        <time>2021-08-30T14:38:28.747Z</time>
      </trkpt>
      <trkpt lat="49.57869" lon="-1.30867">
        <ele>12.78</ele>
        <time>2021-08-30T14:38:37.258Z</time>
      </trkpt>
      <trkpt lat="49.5779" lon="-1.30942">
        <ele>12.03</ele>
        <time>2021-08-30T14:38:45.784Z</time>
      </trkpt>
      <trkpt lat="49.5779" lon="-1.30942">
        <ele>12.03</ele>
        <time>2021-08-30T14:38:54.310Z</time>
      </trkpt>
      <trkpt lat="49.57777" lon="-1.30959">
        <ele>12.03</ele>
        <time>2021-08-30T14:39:02.838Z</time>
      </trkpt>
      <trkpt lat="49.57777" lon="-1.30959">
        <ele>12.03</ele>
        <time>2021-08-30T14:39:11.366Z</time>
      </trkpt>
      <trkpt lat="49.57743" lon="-1.31019">
        <ele>10.78</ele>
        <time>2021-08-30T14:39:19.903Z</time>
      </trkpt>
      <trkpt lat="49.57743" lon="-1.31019">
        <ele>10.78</ele>
        <time>2021-08-30T14:39:28.440Z</time>
      </trkpt>
      <trkpt lat="49.57713" lon="-1.3104">
        <ele>10.33</ele>
        <time>2021-08-30T14:39:36.982Z</time>
      </trkpt>
      <trkpt lat="49.57713" lon="-1.3104">
        <ele>10.33</ele>
        <time>2021-08-30T14:39:45.524Z</time>
      </trkpt>
      <trkpt lat="49.57689" lon="-1.31061">
        <ele>9.72</ele>
        <time>2021-08-30T14:39:54.070Z</time>
      </trkpt>
      <trkpt lat="49.57689" lon="-1.31061">
        <ele>9.72</ele>
        <time>2021-08-30T14:40:02.616Z</time>
      </trkpt>
      <trkpt lat="49.57657" lon="-1.31091">
        <ele>9.39</ele>
        <time>2021-08-30T14:40:11.168Z</time>
      </trkpt>
      <trkpt lat="49.57657" lon="-1.31091">
        <ele>9.39</ele>
        <time>2021-08-30T14:40:19.720Z</time>
      </trkpt>
      <trkpt lat="49.57646" lon="-1.31099">
        <ele>9.39</ele>
        <time>2021-08-30T14:40:28.274Z</time>
      </trkpt>
      <trkpt lat="49.57646" lon="-1.31099">
        <ele>9.39</ele>
        <time>2021-08-30T14:40:36.828Z</time>
      </trkpt>
      <trkpt lat="49.57584" lon="-1.31129">
        <ele>9.72</ele>
        <time>2021-08-30T14:40:45.393Z</time>
      </trkpt>
      <trkpt lat="49.57584" lon="-1.31129">
        <ele>9.72</ele>
        <time>2021-08-30T14:40:53.958Z</time>
      </trkpt>
      <trkpt lat="49.5754" lon="-1.31148">
        <ele>11.05</ele>
        <time>2021-08-30T14:41:02.530Z</time>
      </trkpt>
      <trkpt lat="49.5754" lon="-1.31148">
        <ele>11.05</ele>
        <time>2021-08-30T14:41:11.102Z</time>
      </trkpt>
      <trkpt lat="49.57453" lon="-1.3118">
        <ele>13.96</ele>
        <time>2021-08-30T14:41:19.688Z</time>
      </trkpt>
      <trkpt lat="49.57453" lon="-1.3118">
        <ele>13.96</ele>
        <time>2021-08-30T14:41:28.274Z</time>
      </trkpt>
      <trkpt lat="49.57432" lon="-1.3119">
        <ele>14.93</ele>
        <time>2021-08-30T14:41:36.864Z</time>
      </trkpt>
      <trkpt lat="49.57432" lon="-1.3119">
        <ele>14.93</ele>
        <time>2021-08-30T14:41:45.454Z</time>
      </trkpt>
      <trkpt lat="49.57336" lon="-1.31245">
        <ele>17.92</ele>
        <time>2021-08-30T14:41:54.060Z</time>
      </trkpt>
      <trkpt lat="49.57336" lon="-1.31245">
        <ele>17.92</ele>
        <time>2021-08-30T14:42:02.666Z</time>
      </trkpt>
      <trkpt lat="49.57321" lon="-1.3125">
        <ele>17.99</ele>
        <time>2021-08-30T14:42:11.275Z</time>
      </trkpt>
      <trkpt lat="49.57321" lon="-1.3125">
        <ele>17.99</ele>
        <time>2021-08-30T14:42:19.884Z</time>
      </trkpt>
      <trkpt lat="49.57272" lon="-1.3126">
        <ele>17.75</ele>
        <time>2021-08-30T14:42:28.501Z</time>
      </trkpt>
      <trkpt lat="49.57272" lon="-1.3126">
        <ele>17.75</ele>
        <time>2021-08-30T14:42:37.118Z</time>
      </trkpt>
      <trkpt lat="49.57257" lon="-1.31267">
        <ele>17.5</ele>
        <time>2021-08-30T14:42:45.737Z</time>
      </trkpt>
      <trkpt lat="49.57257" lon="-1.31267">
        <ele>17.5</ele>
        <time>2021-08-30T14:42:54.356Z</time>
      </trkpt>
      <trkpt lat="49.57215" lon="-1.31289">
        <ele>16.97</ele>
        <time>2021-08-30T14:43:02.982Z</time>
      </trkpt>
      <trkpt lat="49.57215" lon="-1.31289">
        <ele>16.97</ele>
        <time>2021-08-30T14:43:11.608Z</time>
      </trkpt>
      <trkpt lat="49.57123" lon="-1.31361">
        <ele>15.41</ele>
        <time>2021-08-30T14:43:20.251Z</time>
      </trkpt>
      <trkpt lat="49.57123" lon="-1.31361">
        <ele>15.41</ele>
        <time>2021-08-30T14:43:28.894Z</time>
      </trkpt>
      <trkpt lat="49.5707" lon="-1.31396">
        <ele>15.45</ele>
        <time>2021-08-30T14:43:37.546Z</time>
      </trkpt>
      <trkpt lat="49.5707" lon="-1.31396">
        <ele>15.45</ele>
        <time>2021-08-30T14:43:46.198Z</time>
      </trkpt>
      <trkpt lat="49.57027" lon="-1.31417">
        <ele>15.55</ele>
        <time>2021-08-30T14:43:54.857Z</time>
      </trkpt>
      <trkpt lat="49.57027" lon="-1.31417">
        <ele>15.55</ele>
        <time>2021-08-30T14:44:03.516Z</time>
      </trkpt>
      <trkpt lat="49.56977" lon="-1.3143">
        <ele>15.94</ele>
        <time>2021-08-30T14:44:12.183Z</time>
      </trkpt>
      <trkpt lat="49.56977" lon="-1.3143">
        <ele>15.94</ele>
        <time>2021-08-30T14:44:20.850Z</time>
      </trkpt>
      <trkpt lat="49.56952" lon="-1.31433">
        <ele>16.19</ele>
        <time>2021-08-30T14:44:29.521Z</time>
      </trkpt>
      <trkpt lat="49.56952" lon="-1.31433">
        <ele>16.19</ele>
        <time>2021-08-30T14:44:38.192Z</time>
      </trkpt>
      <trkpt lat="49.56927" lon="-1.31433">
        <ele>16.19</ele>
        <time>2021-08-30T14:44:46.867Z</time>
      </trkpt>
      <trkpt lat="49.56927" lon="-1.31433">
        <ele>16.19</ele>
        <time>2021-08-30T14:44:55.542Z</time>
      </trkpt>
      <trkpt lat="49.56873" lon="-1.31437">
        <ele>16.67</ele>
        <time>2021-08-30T14:45:04.226Z</time>
      </trkpt>
      <trkpt lat="49.56873" lon="-1.31437">
        <ele>16.67</ele>
        <time>2021-08-30T14:45:12.910Z</time>
      </trkpt>
      <trkpt lat="49.56804" lon="-1.31448">
        <ele>17.31</ele>
        <time>2021-08-30T14:45:21.605Z</time>
      </trkpt>
      <trkpt lat="49.56804" lon="-1.31448">
        <ele>17.31</ele>
        <time>2021-08-30T14:45:30.300Z</time>
      </trkpt>
      <trkpt lat="49.56723" lon="-1.31472">
        <ele>17.54</ele>
        <time>2021-08-30T14:45:39.008Z</time>
      </trkpt>
      <trkpt lat="49.56723" lon="-1.31472">
        <ele>17.54</ele>
        <time>2021-08-30T14:45:47.716Z</time>
      </trkpt>
      <trkpt lat="49.56686" lon="-1.31486">
        <ele>17.69</ele>
        <time>2021-08-30T14:45:56.430Z</time>
      </trkpt>
      <trkpt lat="49.56686" lon="-1.31486">
        <ele>17.69</ele>
        <time>2021-08-30T14:46:05.144Z</time>
      </trkpt>
      <trkpt lat="49.56663" lon="-1.31498">
        <ele>17.75</ele>
        <time>2021-08-30T14:46:13.862Z</time>
      </trkpt>
      <trkpt lat="49.56663" lon="-1.31498">
        <ele>17.75</ele>
        <time>2021-08-30T14:46:22.580Z</time>
      </trkpt>
      <trkpt lat="49.56633" lon="-1.31518">
        <ele>18.15</ele>
        <time>2021-08-30T14:46:31.304Z</time>
      </trkpt>
      <trkpt lat="49.56633" lon="-1.31518">
        <ele>18.15</ele>
        <time>2021-08-30T14:46:40.028Z</time>
      </trkpt>
      <trkpt lat="49.56529" lon="-1.31597">
        <ele>19.31</ele>
        <time>2021-08-30T14:46:48.770Z</time>
      </trkpt>
      <trkpt lat="49.56529" lon="-1.31597">
        <ele>19.31</ele>
        <time>2021-08-30T14:46:57.512Z</time>
      </trkpt>
      <trkpt lat="49.56478" lon="-1.31625">
        <ele>20.53</ele>
        <time>2021-08-30T14:47:06.263Z</time>
      </trkpt>
      <trkpt lat="49.56478" lon="-1.31625">
        <ele>20.53</ele>
        <time>2021-08-30T14:47:15.014Z</time>
      </trkpt>
      <trkpt lat="49.5643" lon="-1.31645">
        <ele>21.21</ele>
        <time>2021-08-30T14:47:23.773Z</time>
      </trkpt>
      <trkpt lat="49.5643" lon="-1.31645">
        <ele>21.21</ele>
        <time>2021-08-30T14:47:32.532Z</time>
      </trkpt>
      <trkpt lat="49.56383" lon="-1.31661">
        <ele>22.12</ele>
        <time>2021-08-30T14:47:41.298Z</time>
      </trkpt>
      <trkpt lat="49.56383" lon="-1.31661">
        <ele>22.12</ele>
        <time>2021-08-30T14:47:50.064Z</time>
      </trkpt>
      <trkpt lat="49.56334" lon="-1.31668">
        <ele>22.38</ele>
        <time>2021-08-30T14:47:58.838Z</time>
      </trkpt>
      <trkpt lat="49.56334" lon="-1.31668">
        <ele>22.38</ele>
        <time>2021-08-30T14:48:07.612Z</time>
      </trkpt>
      <trkpt lat="49.56247" lon="-1.31678">
        <ele>21.45</ele>
        <time>2021-08-30T14:48:16.400Z</time>
      </trkpt>
      <trkpt lat="49.56247" lon="-1.31678">
        <ele>21.45</ele>
        <time>2021-08-30T14:48:25.188Z</time>
      </trkpt>
      <trkpt lat="49.56211" lon="-1.31675">
        <ele>20.88</ele>
        <time>2021-08-30T14:48:33.982Z</time>
      </trkpt>
      <trkpt lat="49.56211" lon="-1.31675">
        <ele>20.88</ele>
        <time>2021-08-30T14:48:42.776Z</time>
      </trkpt>
      <trkpt lat="49.56092" lon="-1.31654">
        <ele>23.26</ele>
        <time>2021-08-30T14:48:51.589Z</time>
      </trkpt>
      <trkpt lat="49.56092" lon="-1.31654">
        <ele>23.26</ele>
        <time>2021-08-30T14:49:00.402Z</time>
      </trkpt>
      <trkpt lat="49.56072" lon="-1.31654">
        <ele>23.26</ele>
        <time>2021-08-30T14:49:09.218Z</time>
      </trkpt>
      <trkpt lat="49.56072" lon="-1.31654">
        <ele>23.26</ele>
        <time>2021-08-30T14:49:18.034Z</time>
      </trkpt>
      <trkpt lat="49.55958" lon="-1.31671">
        <ele>25.06</ele>
        <time>2021-08-30T14:49:26.869Z</time>
      </trkpt>
      <trkpt lat="49.55958" lon="-1.31671">
        <ele>25.06</ele>
        <time>2021-08-30T14:49:35.704Z</time>
      </trkpt>
      <trkpt lat="49.55931" lon="-1.31672">
        <ele>24.38</ele>
        <time>2021-08-30T14:49:44.543Z</time>
      </trkpt>
      <trkpt lat="49.55931" lon="-1.31672">
        <ele>24.38</ele>
        <time>2021-08-30T14:49:53.382Z</time>
      </trkpt>
      <trkpt lat="49.55903" lon="-1.31671">
        <ele>23.49</ele>
        <time>2021-08-30T14:50:02.226Z</time>
      </trkpt>
      <trkpt lat="49.55903" lon="-1.31671">
        <ele>23.49</ele>
        <time>2021-08-30T14:50:11.070Z</time>
      </trkpt>
      <trkpt lat="49.55723" lon="-1.31627">
        <ele>14.91</ele>
        <time>2021-08-30T14:50:19.943Z</time>
      </trkpt>
      <trkpt lat="49.55723" lon="-1.31627">
        <ele>14.91</ele>
        <time>2021-08-30T14:50:28.816Z</time>
      </trkpt>
      <trkpt lat="49.5569" lon="-1.3162">
        <ele>14.91</ele>
        <time>2021-08-30T14:50:37.694Z</time>
      </trkpt>
      <trkpt lat="49.5569" lon="-1.3162">
        <ele>14.91</ele>
        <time>2021-08-30T14:50:46.572Z</time>
      </trkpt>
      <trkpt lat="49.55668" lon="-1.31618">
        <ele>15.29</ele>
        <time>2021-08-30T14:50:55.454Z</time>
      </trkpt>
      <trkpt lat="49.55668" lon="-1.31618">
        <ele>15.29</ele>
        <time>2021-08-30T14:51:04.336Z</time>
      </trkpt>
      <trkpt lat="49.55646" lon="-1.3162">
        <ele>15.29</ele>
        <time>2021-08-30T14:51:13.221Z</time>
      </trkpt>
      <trkpt lat="49.55646" lon="-1.3162">
        <ele>15.29</ele>
        <time>2021-08-30T14:51:22.106Z</time>
      </trkpt>
      <trkpt lat="49.55401" lon="-1.31675">
        <ele>16.91</ele>
        <time>2021-08-30T14:51:31.031Z</time>
      </trkpt>
      <trkpt lat="49.55401" lon="-1.31675">
        <ele>16.91</ele>
        <time>2021-08-30T14:51:39.956Z</time>
      </trkpt>
      <trkpt lat="49.55296" lon="-1.31691">
        <ele>15.46</ele>
        <time>2021-08-30T14:51:48.898Z</time>
      </trkpt>
      <trkpt lat="49.55296" lon="-1.31691">
        <ele>15.46</ele>
        <time>2021-08-30T14:51:57.840Z</time>
      </trkpt>
      <trkpt lat="49.552" lon="-1.31708">
        <ele>14.21</ele>
        <time>2021-08-30T14:52:06.797Z</time>
      </trkpt>
      <trkpt lat="49.552" lon="-1.31708">
        <ele>14.21</ele>
        <time>2021-08-30T14:52:15.754Z</time>
      </trkpt>
      <trkpt lat="49.55163" lon="-1.31723">
        <ele>13.41</ele>
        <time>2021-08-30T14:52:24.717Z</time>
      </trkpt>
      <trkpt lat="49.55163" lon="-1.31723">
        <ele>13.41</ele>
        <time>2021-08-30T14:52:33.680Z</time>
      </trkpt>
      <trkpt lat="49.55142" lon="-1.31735">
        <ele>13.13</ele>
        <time>2021-08-30T14:52:42.647Z</time>
      </trkpt>
      <trkpt lat="49.55142" lon="-1.31735">
        <ele>13.13</ele>
        <time>2021-08-30T14:52:51.614Z</time>
      </trkpt>
      <trkpt lat="49.55095" lon="-1.3178">
        <ele>13.22</ele>
        <time>2021-08-30T14:53:00.590Z</time>
      </trkpt>
      <trkpt lat="49.55095" lon="-1.3178">
        <ele>13.22</ele>
        <time>2021-08-30T14:53:09.566Z</time>
      </trkpt>
      <trkpt lat="49.54975" lon="-1.31907">
        <ele>14.73</ele>
        <time>2021-08-30T14:53:18.565Z</time>
      </trkpt>
      <trkpt lat="49.54975" lon="-1.31907">
        <ele>14.73</ele>
        <time>2021-08-30T14:53:27.564Z</time>
      </trkpt>
      <trkpt lat="49.54926" lon="-1.3195">
        <ele>13.91</ele>
        <time>2021-08-30T14:53:36.572Z</time>
      </trkpt>
      <trkpt lat="49.54926" lon="-1.3195">
        <ele>13.91</ele>
        <time>2021-08-30T14:53:45.580Z</time>
      </trkpt>
      <trkpt lat="49.54884" lon="-1.31989">
        <ele>13.06</ele>
        <time>2021-08-30T14:53:54.596Z</time>
      </trkpt>
      <trkpt lat="49.54884" lon="-1.31989">
        <ele>13.06</ele>
        <time>2021-08-30T14:54:03.612Z</time>
      </trkpt>
      <trkpt lat="49.54817" lon="-1.32037">
        <ele>12.07</ele>
        <time>2021-08-30T14:54:12.640Z</time>
      </trkpt>
      <trkpt lat="49.54817" lon="-1.32037">
        <ele>12.07</ele>
        <time>2021-08-30T14:54:21.668Z</time>
      </trkpt>
      <trkpt lat="49.54794" lon="-1.32048">
        <ele>12.06</ele>
        <time>2021-08-30T14:54:30.700Z</time>
      </trkpt>
      <trkpt lat="49.54794" lon="-1.32048">
        <ele>12.06</ele>
        <time>2021-08-30T14:54:39.732Z</time>
      </trkpt>
      <trkpt lat="49.54779" lon="-1.32058">
        <ele>12.18</ele>
        <time>2021-08-30T14:54:48.766Z</time>
      </trkpt>
      <trkpt lat="49.54779" lon="-1.32058">
        <ele>12.18</ele>
        <time>2021-08-30T14:54:57.800Z</time>
      </trkpt>
      <trkpt lat="49.54729" lon="-1.32074">
        <ele>12.42</ele>
        <time>2021-08-30T14:55:06.843Z</time>
      </trkpt>
      <trkpt lat="49.54729" lon="-1.32074">
        <ele>12.42</ele>
        <time>2021-08-30T14:55:15.886Z</time>
      </trkpt>
      <trkpt lat="49.54682" lon="-1.32084">
        <ele>13.21</ele>
        <time>2021-08-30T14:55:24.936Z</time>
      </trkpt>
      <trkpt lat="49.54682" lon="-1.32084">
        <ele>13.21</ele>
        <time>2021-08-30T14:55:33.986Z</time>
      </trkpt>
      <trkpt lat="49.54567" lon="-1.32096">
        <ele>14.23</ele>
        <time>2021-08-30T14:55:43.055Z</time>
      </trkpt>
      <trkpt lat="49.54567" lon="-1.32096">
        <ele>14.23</ele>
        <time>2021-08-30T14:55:52.124Z</time>
      </trkpt>
      <trkpt lat="49.54444" lon="-1.32123">
        <ele>15.28</ele>
        <time>2021-08-30T14:56:01.213Z</time>
      </trkpt>
      <trkpt lat="49.54444" lon="-1.32123">
        <ele>15.28</ele>
        <time>2021-08-30T14:56:10.302Z</time>
      </trkpt>
      <trkpt lat="49.54315" lon="-1.32155">
        <ele>16.9</ele>
        <time>2021-08-30T14:56:19.411Z</time>
      </trkpt>
      <trkpt lat="49.54315" lon="-1.32155">
        <ele>16.9</ele>
        <time>2021-08-30T14:56:28.520Z</time>
      </trkpt>
      <trkpt lat="49.54256" lon="-1.32149">
        <ele>16.76</ele>
        <time>2021-08-30T14:56:37.639Z</time>
      </trkpt>
      <trkpt lat="49.54256" lon="-1.32149">
        <ele>16.76</ele>
        <time>2021-08-30T14:56:46.758Z</time>
      </trkpt>
      <trkpt lat="49.54175" lon="-1.32132">
        <ele>16.12</ele>
        <time>2021-08-30T14:56:55.890Z</time>
      </trkpt>
      <trkpt lat="49.54175" lon="-1.32132">
        <ele>16.12</ele>
        <time>2021-08-30T14:57:05.022Z</time>
      </trkpt>
      <trkpt lat="49.54018" lon="-1.32109">
        <ele>15.41</ele>
        <time>2021-08-30T14:57:14.179Z</time>
      </trkpt>
      <trkpt lat="49.54018" lon="-1.32109">
        <ele>15.41</ele>
        <time>2021-08-30T14:57:23.336Z</time>
      </trkpt>
      <trkpt lat="49.53974" lon="-1.32105">
        <ele>13.86</ele>
        <time>2021-08-30T14:57:32.500Z</time>
      </trkpt>
      <trkpt lat="49.53974" lon="-1.32105">
        <ele>13.86</ele>
        <time>2021-08-30T14:57:41.664Z</time>
      </trkpt>
      <trkpt lat="49.53966" lon="-1.32105">
        <ele>13.39</ele>
        <time>2021-08-30T14:57:50.830Z</time>
      </trkpt>
      <trkpt lat="49.53966" lon="-1.32105">
        <ele>13.39</ele>
        <time>2021-08-30T14:57:59.996Z</time>
      </trkpt>
      <trkpt lat="49.53853" lon="-1.32078">
        <ele>13.81</ele>
        <time>2021-08-30T14:58:09.180Z</time>
      </trkpt>
      <trkpt lat="49.53853" lon="-1.32078">
        <ele>13.81</ele>
        <time>2021-08-30T14:58:18.364Z</time>
      </trkpt>
      <trkpt lat="49.53804" lon="-1.32078">
        <ele>15.24</ele>
        <time>2021-08-30T14:58:27.556Z</time>
      </trkpt>
      <trkpt lat="49.53804" lon="-1.32078">
        <ele>15.24</ele>
        <time>2021-08-30T14:58:36.748Z</time>
      </trkpt>
      <trkpt lat="49.53779" lon="-1.32084">
        <ele>16.44</ele>
        <time>2021-08-30T14:58:45.944Z</time>
      </trkpt>
      <trkpt lat="49.53779" lon="-1.32084">
        <ele>16.44</ele>
        <time>2021-08-30T14:58:55.140Z</time>
      </trkpt>
      <trkpt lat="49.53698" lon="-1.3211">
        <ele>17.85</ele>
        <time>2021-08-30T14:59:04.349Z</time>
      </trkpt>
      <trkpt lat="49.53698" lon="-1.3211">
        <ele>17.85</ele>
        <time>2021-08-30T14:59:13.558Z</time>
      </trkpt>
      <trkpt lat="49.53466" lon="-1.32196">
        <ele>19.6</ele>
        <time>2021-08-30T14:59:22.805Z</time>
      </trkpt>
      <trkpt lat="49.53466" lon="-1.32196">
        <ele>19.6</ele>
        <time>2021-08-30T14:59:32.052Z</time>
      </trkpt>
      <trkpt lat="49.53426" lon="-1.32207">
        <ele>18.37</ele>
        <time>2021-08-30T14:59:41.306Z</time>
      </trkpt>
      <trkpt lat="49.53426" lon="-1.32207">
        <ele>18.37</ele>
        <time>2021-08-30T14:59:50.560Z</time>
      </trkpt>
      <trkpt lat="49.53366" lon="-1.32206">
        <ele>17.35</ele>
        <time>2021-08-30T14:59:59.823Z</time>
      </trkpt>
      <trkpt lat="49.53366" lon="-1.32206">
        <ele>17.35</ele>
        <time>2021-08-30T15:00:09.086Z</time>
      </trkpt>
      <trkpt lat="49.53308" lon="-1.32197">
        <ele>17.73</ele>
        <time>2021-08-30T15:00:18.359Z</time>
      </trkpt>
      <trkpt lat="49.53308" lon="-1.32197">
        <ele>17.73</ele>
        <time>2021-08-30T15:00:27.632Z</time>
      </trkpt>
      <trkpt lat="49.53232" lon="-1.32169">
        <ele>19.6</ele>
        <time>2021-08-30T15:00:36.917Z</time>
      </trkpt>
      <trkpt lat="49.53232" lon="-1.32169">
        <ele>19.6</ele>
        <time>2021-08-30T15:00:46.202Z</time>
      </trkpt>
      <trkpt lat="49.53215" lon="-1.32156">
        <ele>20.15</ele>
        <time>2021-08-30T15:00:55.490Z</time>
      </trkpt>
      <trkpt lat="49.53215" lon="-1.32156">
        <ele>20.15</ele>
        <time>2021-08-30T15:01:04.778Z</time>
      </trkpt>
      <trkpt lat="49.53088" lon="-1.32074">
        <ele>20.39</ele>
        <time>2021-08-30T15:01:14.088Z</time>
      </trkpt>
      <trkpt lat="49.53088" lon="-1.32074">
        <ele>20.39</ele>
        <time>2021-08-30T15:01:23.398Z</time>
      </trkpt>
      <trkpt lat="49.53014" lon="-1.32034">
        <ele>20.26</ele>
        <time>2021-08-30T15:01:32.721Z</time>
      </trkpt>
      <trkpt lat="49.53014" lon="-1.32034">
        <ele>20.26</ele>
        <time>2021-08-30T15:01:42.044Z</time>
      </trkpt>
      <trkpt lat="49.52839" lon="-1.31945">
        <ele>22.86</ele>
        <time>2021-08-30T15:01:51.396Z</time>
      </trkpt>
      <trkpt lat="49.52839" lon="-1.31945">
        <ele>22.86</ele>
        <time>2021-08-30T15:02:00.748Z</time>
      </trkpt>
      <trkpt lat="49.52707" lon="-1.31874">
        <ele>25.75</ele>
        <time>2021-08-30T15:02:10.123Z</time>
      </trkpt>
      <trkpt lat="49.52707" lon="-1.31874">
        <ele>25.75</ele>
        <time>2021-08-30T15:02:19.498Z</time>
      </trkpt>
      <trkpt lat="49.52667" lon="-1.31847">
        <ele>26.18</ele>
        <time>2021-08-30T15:02:28.880Z</time>
      </trkpt>
      <trkpt lat="49.52667" lon="-1.31847">
        <ele>26.18</ele>
        <time>2021-08-30T15:02:38.262Z</time>
      </trkpt>
      <trkpt lat="49.52602" lon="-1.31798">
        <ele>26.61</ele>
        <time>2021-08-30T15:02:47.655Z</time>
      </trkpt>
      <trkpt lat="49.52602" lon="-1.31798">
        <ele>26.61</ele>
        <time>2021-08-30T15:02:57.048Z</time>
      </trkpt>
      <trkpt lat="49.52505" lon="-1.31728">
        <ele>26.13</ele>
        <time>2021-08-30T15:03:06.459Z</time>
      </trkpt>
      <trkpt lat="49.52505" lon="-1.31728">
        <ele>26.13</ele>
        <time>2021-08-30T15:03:15.870Z</time>
      </trkpt>
      <trkpt lat="49.52472" lon="-1.3171">
        <ele>25.87</ele>
        <time>2021-08-30T15:03:25.286Z</time>
      </trkpt>
      <trkpt lat="49.52472" lon="-1.3171">
        <ele>25.87</ele>
        <time>2021-08-30T15:03:34.702Z</time>
      </trkpt>
      <trkpt lat="49.52437" lon="-1.31699">
        <ele>25.22</ele>
        <time>2021-08-30T15:03:44.124Z</time>
      </trkpt>
      <trkpt lat="49.52437" lon="-1.31699">
        <ele>25.22</ele>
        <time>2021-08-30T15:03:53.546Z</time>
      </trkpt>
      <trkpt lat="49.52402" lon="-1.31696">
        <ele>24.71</ele>
        <time>2021-08-30T15:04:02.974Z</time>
      </trkpt>
      <trkpt lat="49.52402" lon="-1.31696">
        <ele>24.71</ele>
        <time>2021-08-30T15:04:12.402Z</time>
      </trkpt>
      <trkpt lat="49.52372" lon="-1.31699">
        <ele>23.64</ele>
        <time>2021-08-30T15:04:21.834Z</time>
      </trkpt>
      <trkpt lat="49.52372" lon="-1.31699">
        <ele>23.64</ele>
        <time>2021-08-30T15:04:31.266Z</time>
      </trkpt>
      <trkpt lat="49.5232" lon="-1.31713">
        <ele>23.11</ele>
        <time>2021-08-30T15:04:40.707Z</time>
      </trkpt>
      <trkpt lat="49.5232" lon="-1.31713">
        <ele>23.11</ele>
        <time>2021-08-30T15:04:50.148Z</time>
      </trkpt>
      <trkpt lat="49.52139" lon="-1.3178">
        <ele>18.12</ele>
        <time>2021-08-30T15:04:59.619Z</time>
      </trkpt>
      <trkpt lat="49.52139" lon="-1.3178">
        <ele>18.12</ele>
        <time>2021-08-30T15:05:09.090Z</time>
      </trkpt>
      <trkpt lat="49.52134" lon="-1.31755">
        <ele>17.28</ele>
        <time>2021-08-30T15:05:18.563Z</time>
      </trkpt>
      <trkpt lat="49.52134" lon="-1.31755">
        <ele>17.28</ele>
        <time>2021-08-30T15:05:28.036Z</time>
      </trkpt>
      <trkpt lat="49.52113" lon="-1.31694">
        <ele>16.67</ele>
        <time>2021-08-30T15:05:37.517Z</time>
      </trkpt>
      <trkpt lat="49.52113" lon="-1.31694">
        <ele>16.67</ele>
        <time>2021-08-30T15:05:46.998Z</time>
      </trkpt>
      <trkpt lat="49.52066" lon="-1.316">
        <ele>15.8</ele>
        <time>2021-08-30T15:05:56.491Z</time>
      </trkpt>
      <trkpt lat="49.52066" lon="-1.316">
        <ele>15.8</ele>
        <time>2021-08-30T15:06:05.984Z</time>
      </trkpt>
      <trkpt lat="49.51998" lon="-1.31479">
        <ele>15.67</ele>
        <time>2021-08-30T15:06:15.494Z</time>
      </trkpt>
      <trkpt lat="49.51998" lon="-1.31479">
        <ele>15.67</ele>
        <time>2021-08-30T15:06:25.004Z</time>
      </trkpt>
      <trkpt lat="49.51984" lon="-1.31447">
        <ele>15.94</ele>
        <time>2021-08-30T15:06:34.518Z</time>
      </trkpt>
      <trkpt lat="49.51984" lon="-1.31447">
        <ele>15.94</ele>
        <time>2021-08-30T15:06:44.032Z</time>
      </trkpt>
      <trkpt lat="49.5197" lon="-1.31427">
        <ele>16.02</ele>
        <time>2021-08-30T15:06:53.549Z</time>
      </trkpt>
      <trkpt lat="49.5197" lon="-1.31427">
        <ele>16.02</ele>
        <time>2021-08-30T15:07:03.066Z</time>
      </trkpt>
      <trkpt lat="49.51936" lon="-1.31379">
        <ele>16.04</ele>
        <time>2021-08-30T15:07:12.590Z</time>
      </trkpt>
      <trkpt lat="49.51936" lon="-1.31379">
        <ele>16.04</ele>
        <time>2021-08-30T15:07:22.114Z</time>
      </trkpt>
      <trkpt lat="49.51932" lon="-1.31366">
        <ele>16.04</ele>
        <time>2021-08-30T15:07:31.640Z</time>
      </trkpt>
      <trkpt lat="49.51932" lon="-1.31366">
        <ele>16.04</ele>
        <time>2021-08-30T15:07:41.166Z</time>
      </trkpt>
      <trkpt lat="49.51928" lon="-1.31339">
        <ele>16.51</ele>
        <time>2021-08-30T15:07:50.694Z</time>
      </trkpt>
      <trkpt lat="49.51928" lon="-1.31339">
        <ele>16.51</ele>
        <time>2021-08-30T15:08:00.222Z</time>
      </trkpt>
      <trkpt lat="49.5193" lon="-1.31281">
        <ele>16.6</ele>
        <time>2021-08-30T15:08:09.757Z</time>
      </trkpt>
      <trkpt lat="49.5193" lon="-1.31281">
        <ele>16.6</ele>
        <time>2021-08-30T15:08:19.292Z</time>
      </trkpt>
      <trkpt lat="49.51938" lon="-1.31254">
        <ele>16.79</ele>
        <time>2021-08-30T15:08:28.830Z</time>
      </trkpt>
      <trkpt lat="49.51938" lon="-1.31254">
        <ele>16.79</ele>
        <time>2021-08-30T15:08:38.368Z</time>
      </trkpt>
      <trkpt lat="49.5195" lon="-1.31233">
        <ele>16.75</ele>
        <time>2021-08-30T15:08:47.909Z</time>
      </trkpt>
      <trkpt lat="49.5195" lon="-1.31233">
        <ele>16.75</ele>
        <time>2021-08-30T15:08:57.450Z</time>
      </trkpt>
      <trkpt lat="49.51958" lon="-1.3121">
        <ele>16.4</ele>
        <time>2021-08-30T15:09:06.993Z</time>
      </trkpt>
      <trkpt lat="49.51958" lon="-1.3121">
        <ele>16.4</ele>
        <time>2021-08-30T15:09:16.536Z</time>
      </trkpt>
      <trkpt lat="49.51976" lon="-1.31146">
        <ele>14.79</ele>
        <time>2021-08-30T15:09:26.087Z</time>
      </trkpt>
      <trkpt lat="49.51976" lon="-1.31146">
        <ele>14.79</ele>
        <time>2021-08-30T15:09:35.638Z</time>
      </trkpt>
      <trkpt lat="49.51978" lon="-1.31122">
        <ele>13.91</ele>
        <time>2021-08-30T15:09:45.191Z</time>
      </trkpt>
      <trkpt lat="49.51978" lon="-1.31122">
        <ele>13.91</ele>
        <time>2021-08-30T15:09:54.744Z</time>
      </trkpt>
      <trkpt lat="49.5198" lon="-1.30979">
        <ele>7.85</ele>
        <time>2021-08-30T15:10:04.312Z</time>
      </trkpt>
      <trkpt lat="49.5198" lon="-1.30979">
        <ele>7.85</ele>
        <time>2021-08-30T15:10:13.880Z</time>
      </trkpt>
      <trkpt lat="49.51977" lon="-1.30949">
        <ele>6.93</ele>
        <time>2021-08-30T15:10:23.451Z</time>
      </trkpt>
      <trkpt lat="49.51977" lon="-1.30949">
        <ele>6.93</ele>
        <time>2021-08-30T15:10:33.022Z</time>
      </trkpt>
      <trkpt lat="49.51973" lon="-1.30932">
        <ele>6.93</ele>
        <time>2021-08-30T15:10:42.595Z</time>
      </trkpt>
      <trkpt lat="49.51973" lon="-1.30932">
        <ele>6.93</ele>
        <time>2021-08-30T15:10:52.168Z</time>
      </trkpt>
      <trkpt lat="49.51957" lon="-1.30905">
        <ele>6.23</ele>
        <time>2021-08-30T15:11:01.745Z</time>
      </trkpt>
      <trkpt lat="49.51957" lon="-1.30905">
        <ele>6.23</ele>
        <time>2021-08-30T15:11:11.322Z</time>
      </trkpt>
      <trkpt lat="49.51856" lon="-1.30817">
        <ele>5.25</ele>
        <time>2021-08-30T15:11:20.917Z</time>
      </trkpt>
      <trkpt lat="49.51856" lon="-1.30817">
        <ele>5.25</ele>
        <time>2021-08-30T15:11:30.512Z</time>
      </trkpt>
      <trkpt lat="49.51826" lon="-1.30776">
        <ele>4.94</ele>
        <time>2021-08-30T15:11:40.114Z</time>
      </trkpt>
      <trkpt lat="49.51826" lon="-1.30776">
        <ele>4.94</ele>
        <time>2021-08-30T15:11:49.716Z</time>
      </trkpt>
      <trkpt lat="49.51803" lon="-1.30725">
        <ele>4.58</ele>
        <time>2021-08-30T15:11:59.324Z</time>
      </trkpt>
      <trkpt lat="49.51803" lon="-1.30725">
        <ele>4.58</ele>
        <time>2021-08-30T15:12:08.932Z</time>
      </trkpt>
      <trkpt lat="49.51574" lon="-1.30159">
        <ele>6.29</ele>
        <time>2021-08-30T15:12:18.610Z</time>
      </trkpt>
      <trkpt lat="49.51574" lon="-1.30159">
        <ele>6.29</ele>
        <time>2021-08-30T15:12:28.288Z</time>
      </trkpt>
      <trkpt lat="49.51556" lon="-1.30108">
        <ele>5.57</ele>
        <time>2021-08-30T15:12:37.972Z</time>
      </trkpt>
      <trkpt lat="49.51556" lon="-1.30108">
        <ele>5.57</ele>
        <time>2021-08-30T15:12:47.656Z</time>
      </trkpt>
      <trkpt lat="49.51548" lon="-1.30064">
        <ele>5.08</ele>
        <time>2021-08-30T15:12:57.345Z</time>
      </trkpt>
      <trkpt lat="49.51548" lon="-1.30064">
        <ele>5.08</ele>
        <time>2021-08-30T15:13:07.034Z</time>
      </trkpt>
      <trkpt lat="49.51547" lon="-1.3003">
        <ele>4.62</ele>
        <time>2021-08-30T15:13:16.726Z</time>
      </trkpt>
      <trkpt lat="49.51547" lon="-1.3003">
        <ele>4.62</ele>
        <time>2021-08-30T15:13:26.418Z</time>
      </trkpt>
      <trkpt lat="49.51566" lon="-1.29773">
        <ele>2.33</ele>
        <time>2021-08-30T15:13:36.137Z</time>
      </trkpt>
      <trkpt lat="49.51566" lon="-1.29773">
        <ele>2.33</ele>
        <time>2021-08-30T15:13:45.856Z</time>
      </trkpt>
      <trkpt lat="49.51565" lon="-1.29732">
        <ele>1.96</ele>
        <time>2021-08-30T15:13:55.579Z</time>
      </trkpt>
      <trkpt lat="49.51565" lon="-1.29732">
        <ele>1.96</ele>
        <time>2021-08-30T15:14:05.302Z</time>
      </trkpt>
      <trkpt lat="49.51561" lon="-1.29691">
        <ele>1.91</ele>
        <time>2021-08-30T15:14:15.030Z</time>
      </trkpt>
      <trkpt lat="49.51561" lon="-1.29691">
        <ele>1.91</ele>
        <time>2021-08-30T15:14:24.758Z</time>
      </trkpt>
      <trkpt lat="49.51551" lon="-1.29637">
        <ele>1.95</ele>
        <time>2021-08-30T15:14:34.492Z</time>
      </trkpt>
      <trkpt lat="49.51551" lon="-1.29637">
        <ele>1.95</ele>
        <time>2021-08-30T15:14:44.226Z</time>
      </trkpt>
      <trkpt lat="49.51549" lon="-1.2961">
        <ele>1.95</ele>
        <time>2021-08-30T15:14:53.962Z</time>
      </trkpt>
      <trkpt lat="49.51549" lon="-1.2961">
        <ele>1.95</ele>
        <time>2021-08-30T15:15:03.698Z</time>
      </trkpt>
      <trkpt lat="49.51548" lon="-1.29586">
        <ele>2.14</ele>
        <time>2021-08-30T15:15:13.437Z</time>
      </trkpt>
      <trkpt lat="49.51548" lon="-1.29586">
        <ele>2.14</ele>
        <time>2021-08-30T15:15:23.176Z</time>
      </trkpt>
      <trkpt lat="49.51552" lon="-1.29529">
        <ele>2.15</ele>
        <time>2021-08-30T15:15:32.921Z</time>
      </trkpt>
      <trkpt lat="49.51552" lon="-1.29529">
        <ele>2.15</ele>
        <time>2021-08-30T15:15:42.666Z</time>
      </trkpt>
      <trkpt lat="49.51552" lon="-1.29471">
        <ele>2.23</ele>
        <time>2021-08-30T15:15:52.417Z</time>
      </trkpt>
      <trkpt lat="49.51552" lon="-1.29471">
        <ele>2.23</ele>
        <time>2021-08-30T15:16:02.168Z</time>
      </trkpt>
      <trkpt lat="49.51543" lon="-1.2934">
        <ele>2.5</ele>
        <time>2021-08-30T15:16:11.933Z</time>
      </trkpt>
      <trkpt lat="49.51543" lon="-1.2934">
        <ele>2.5</ele>
        <time>2021-08-30T15:16:21.698Z</time>
      </trkpt>
      <trkpt lat="49.51534" lon="-1.2925">
        <ele>2.76</ele>
        <time>2021-08-30T15:16:31.472Z</time>
      </trkpt>
      <trkpt lat="49.51534" lon="-1.2925">
        <ele>2.76</ele>
        <time>2021-08-30T15:16:41.246Z</time>
      </trkpt>
      <trkpt lat="49.51484" lon="-1.29146">
        <ele>2.81</ele>
        <time>2021-08-30T15:16:51.034Z</time>
      </trkpt>
      <trkpt lat="49.51484" lon="-1.29146">
        <ele>2.81</ele>
        <time>2021-08-30T15:17:00.822Z</time>
      </trkpt>
      <trkpt lat="49.51476" lon="-1.29122">
        <ele>2.79</ele>
        <time>2021-08-30T15:17:10.612Z</time>
      </trkpt>
      <trkpt lat="49.51476" lon="-1.29122">
        <ele>2.79</ele>
        <time>2021-08-30T15:17:20.402Z</time>
      </trkpt>
      <trkpt lat="49.51472" lon="-1.29095">
        <ele>2.85</ele>
        <time>2021-08-30T15:17:30.195Z</time>
      </trkpt>
      <trkpt lat="49.51472" lon="-1.29095">
        <ele>2.85</ele>
        <time>2021-08-30T15:17:39.988Z</time>
      </trkpt>
      <trkpt lat="49.51459" lon="-1.28956">
        <ele>3.07</ele>
        <time>2021-08-30T15:17:49.796Z</time>
      </trkpt>
      <trkpt lat="49.51459" lon="-1.28956">
        <ele>3.07</ele>
        <time>2021-08-30T15:17:59.604Z</time>
      </trkpt>
      <trkpt lat="49.51459" lon="-1.28943">
        <ele>3.07</ele>
        <time>2021-08-30T15:18:09.413Z</time>
      </trkpt>
      <trkpt lat="49.51459" lon="-1.28943">
        <ele>3.07</ele>
        <time>2021-08-30T15:18:19.222Z</time>
      </trkpt>
      <trkpt lat="49.51461" lon="-1.28929">
        <ele>3.02</ele>
        <time>2021-08-30T15:18:29.033Z</time>
      </trkpt>
      <trkpt lat="49.51461" lon="-1.28929">
        <ele>3.02</ele>
        <time>2021-08-30T15:18:38.844Z</time>
      </trkpt>
      <trkpt lat="49.51491" lon="-1.28789">
        <ele>3.08</ele>
        <time>2021-08-30T15:18:48.670Z</time>
      </trkpt>
      <trkpt lat="49.51491" lon="-1.28789">
        <ele>3.08</ele>
        <time>2021-08-30T15:18:58.496Z</time>
      </trkpt>
      <trkpt lat="49.51477" lon="-1.2878">
        <ele>2.96</ele>
        <time>2021-08-30T15:19:08.325Z</time>
      </trkpt>
      <trkpt lat="49.51477" lon="-1.2878">
        <ele>2.96</ele>
        <time>2021-08-30T15:19:18.154Z</time>
      </trkpt>
      <trkpt lat="49.51473" lon="-1.28776">
        <ele>2.92</ele>
        <time>2021-08-30T15:19:27.983Z</time>
      </trkpt>
      <trkpt lat="49.51473" lon="-1.28776">
        <ele>2.92</ele>
        <time>2021-08-30T15:19:37.812Z</time>
      </trkpt>
      <trkpt lat="49.51437" lon="-1.28705">
        <ele>2.77</ele>
        <time>2021-08-30T15:19:47.651Z</time>
      </trkpt>
      <trkpt lat="49.51437" lon="-1.28705">
        <ele>2.77</ele>
        <time>2021-08-30T15:19:57.490Z</time>
      </trkpt>
      <trkpt lat="49.51376" lon="-1.28603">
        <ele>2.85</ele>
        <time>2021-08-30T15:20:07.343Z</time>
      </trkpt>
      <trkpt lat="49.51376" lon="-1.28603">
        <ele>2.85</ele>
        <time>2021-08-30T15:20:17.196Z</time>
      </trkpt>
      <trkpt lat="49.51318" lon="-1.28533">
        <ele>3.13</ele>
        <time>2021-08-30T15:20:27.061Z</time>
      </trkpt>
      <trkpt lat="49.51318" lon="-1.28533">
        <ele>3.13</ele>
        <time>2021-08-30T15:20:36.926Z</time>
      </trkpt>
      <trkpt lat="49.51231" lon="-1.28407">
        <ele>3.56</ele>
        <time>2021-08-30T15:20:46.810Z</time>
      </trkpt>
      <trkpt lat="49.51231" lon="-1.28407">
        <ele>3.56</ele>
        <time>2021-08-30T15:20:56.694Z</time>
      </trkpt>
      <trkpt lat="49.51198" lon="-1.28362">
        <ele>3.64</ele>
        <time>2021-08-30T15:21:06.585Z</time>
      </trkpt>
      <trkpt lat="49.51198" lon="-1.28362">
        <ele>3.64</ele>
        <time>2021-08-30T15:21:16.476Z</time>
      </trkpt>
      <trkpt lat="49.51185" lon="-1.28346">
        <ele>3.64</ele>
        <time>2021-08-30T15:21:26.370Z</time>
      </trkpt>
      <trkpt lat="49.51185" lon="-1.28346">
        <ele>3.64</ele>
        <time>2021-08-30T15:21:36.264Z</time>
      </trkpt>
      <trkpt lat="49.51123" lon="-1.28287">
        <ele>3.63</ele>
        <time>2021-08-30T15:21:46.170Z</time>
      </trkpt>
      <trkpt lat="49.51123" lon="-1.28287">
        <ele>3.63</ele>
        <time>2021-08-30T15:21:56.076Z</time>
      </trkpt>
      <trkpt lat="49.51051" lon="-1.28224">
        <ele>3.38</ele>
        <time>2021-08-30T15:22:05.995Z</time>
      </trkpt>
      <trkpt lat="49.51051" lon="-1.28224">
        <ele>3.38</ele>
        <time>2021-08-30T15:22:15.914Z</time>
      </trkpt>
      <trkpt lat="49.51008" lon="-1.28181">
        <ele>3.22</ele>
        <time>2021-08-30T15:22:25.841Z</time>
      </trkpt>
      <trkpt lat="49.51008" lon="-1.28181">
        <ele>3.22</ele>
        <time>2021-08-30T15:22:35.768Z</time>
      </trkpt>
      <trkpt lat="49.5095" lon="-1.28136">
        <ele>3.12</ele>
        <time>2021-08-30T15:22:45.706Z</time>
      </trkpt>
      <trkpt lat="49.5095" lon="-1.28136">
        <ele>3.12</ele>
        <time>2021-08-30T15:22:55.644Z</time>
      </trkpt>
      <trkpt lat="49.50846" lon="-1.28044">
        <ele>3.53</ele>
        <time>2021-08-30T15:23:05.601Z</time>
      </trkpt>
      <trkpt lat="49.50846" lon="-1.28044">
        <ele>3.53</ele>
        <time>2021-08-30T15:23:15.558Z</time>
      </trkpt>
      <trkpt lat="49.50814" lon="-1.28">
        <ele>3.69</ele>
        <time>2021-08-30T15:23:25.522Z</time>
      </trkpt>
      <trkpt lat="49.50814" lon="-1.28">
        <ele>3.69</ele>
        <time>2021-08-30T15:23:35.486Z</time>
      </trkpt>
      <trkpt lat="49.50741" lon="-1.27844">
        <ele>4.83</ele>
        <time>2021-08-30T15:23:45.470Z</time>
      </trkpt>
      <trkpt lat="49.50741" lon="-1.27844">
        <ele>4.83</ele>
        <time>2021-08-30T15:23:55.454Z</time>
      </trkpt>
      <trkpt lat="49.50703" lon="-1.27787">
        <ele>5.2</ele>
        <time>2021-08-30T15:24:05.446Z</time>
      </trkpt>
      <trkpt lat="49.50703" lon="-1.27787">
        <ele>5.2</ele>
        <time>2021-08-30T15:24:15.438Z</time>
      </trkpt>
      <trkpt lat="49.50386" lon="-1.27435">
        <ele>4.57</ele>
        <time>2021-08-30T15:24:25.493Z</time>
      </trkpt>
      <trkpt lat="49.50386" lon="-1.27435">
        <ele>4.57</ele>
        <time>2021-08-30T15:24:35.548Z</time>
      </trkpt>
      <trkpt lat="49.50081" lon="-1.27078">
        <ele>4.7</ele>
        <time>2021-08-30T15:24:45.664Z</time>
      </trkpt>
      <trkpt lat="49.50081" lon="-1.27078">
        <ele>4.7</ele>
        <time>2021-08-30T15:24:55.780Z</time>
      </trkpt>
      <trkpt lat="49.49983" lon="-1.2697">
        <ele>4.36</ele>
        <time>2021-08-30T15:25:05.916Z</time>
      </trkpt>
      <trkpt lat="49.49983" lon="-1.2697">
        <ele>4.36</ele>
        <time>2021-08-30T15:25:16.052Z</time>
      </trkpt>
      <trkpt lat="49.4994" lon="-1.26931">
        <ele>4.52</ele>
        <time>2021-08-30T15:25:26.196Z</time>
      </trkpt>
      <trkpt lat="49.4994" lon="-1.26931">
        <ele>4.52</ele>
        <time>2021-08-30T15:25:36.340Z</time>
      </trkpt>
      <trkpt lat="49.49829" lon="-1.26834">
        <ele>4.55</ele>
        <time>2021-08-30T15:25:46.504Z</time>
      </trkpt>
      <trkpt lat="49.49829" lon="-1.26834">
        <ele>4.55</ele>
        <time>2021-08-30T15:25:56.668Z</time>
      </trkpt>
      <trkpt lat="49.49726" lon="-1.26749">
        <ele>4.12</ele>
        <time>2021-08-30T15:26:06.851Z</time>
      </trkpt>
      <trkpt lat="49.49726" lon="-1.26749">
        <ele>4.12</ele>
        <time>2021-08-30T15:26:17.034Z</time>
      </trkpt>
      <trkpt lat="49.49655" lon="-1.26694">
        <ele>4.09</ele>
        <time>2021-08-30T15:26:27.229Z</time>
      </trkpt>
      <trkpt lat="49.49655" lon="-1.26694">
        <ele>4.09</ele>
        <time>2021-08-30T15:26:37.424Z</time>
      </trkpt>
      <trkpt lat="49.49497" lon="-1.26566">
        <ele>4.34</ele>
        <time>2021-08-30T15:26:47.648Z</time>
      </trkpt>
      <trkpt lat="49.49497" lon="-1.26566">
        <ele>4.34</ele>
        <time>2021-08-30T15:26:57.872Z</time>
      </trkpt>
      <trkpt lat="49.4942" lon="-1.26515">
        <ele>3.71</ele>
        <time>2021-08-30T15:27:08.110Z</time>
      </trkpt>
      <trkpt lat="49.4942" lon="-1.26515">
        <ele>3.71</ele>
        <time>2021-08-30T15:27:18.348Z</time>
      </trkpt>
      <trkpt lat="49.49321" lon="-1.26428">
        <ele>3.55</ele>
        <time>2021-08-30T15:27:28.604Z</time>
      </trkpt>
      <trkpt lat="49.49321" lon="-1.26428">
        <ele>3.55</ele>
        <time>2021-08-30T15:27:38.860Z</time>
      </trkpt>
      <trkpt lat="49.49219" lon="-1.26342">
        <ele>3.51</ele>
        <time>2021-08-30T15:27:49.134Z</time>
      </trkpt>
      <trkpt lat="49.49219" lon="-1.26342">
        <ele>3.51</ele>
        <time>2021-08-30T15:27:59.408Z</time>
      </trkpt>
      <trkpt lat="49.49162" lon="-1.26295">
        <ele>3.55</ele>
        <time>2021-08-30T15:28:09.693Z</time>
      </trkpt>
      <trkpt lat="49.49162" lon="-1.26295">
        <ele>3.55</ele>
        <time>2021-08-30T15:28:19.978Z</time>
      </trkpt>
      <trkpt lat="49.48954" lon="-1.26105">
        <ele>3.68</ele>
        <time>2021-08-30T15:28:30.302Z</time>
      </trkpt>
      <trkpt lat="49.48954" lon="-1.26105">
        <ele>3.68</ele>
        <time>2021-08-30T15:28:40.626Z</time>
      </trkpt>
      <trkpt lat="49.48914" lon="-1.26075">
        <ele>3.38</ele>
        <time>2021-08-30T15:28:50.957Z</time>
      </trkpt>
      <trkpt lat="49.48914" lon="-1.26075">
        <ele>3.38</ele>
        <time>2021-08-30T15:29:01.288Z</time>
      </trkpt>
      <trkpt lat="49.48897" lon="-1.26065">
        <ele>3.22</ele>
        <time>2021-08-30T15:29:11.622Z</time>
      </trkpt>
      <trkpt lat="49.48897" lon="-1.26065">
        <ele>3.22</ele>
        <time>2021-08-30T15:29:21.956Z</time>
      </trkpt>
      <trkpt lat="49.48863" lon="-1.26051">
        <ele>2.94</ele>
        <time>2021-08-30T15:29:32.295Z</time>
      </trkpt>
      <trkpt lat="49.48863" lon="-1.26051">
        <ele>2.94</ele>
        <time>2021-08-30T15:29:42.634Z</time>
      </trkpt>
      <trkpt lat="49.4883" lon="-1.26044">
        <ele>2.89</ele>
        <time>2021-08-30T15:29:52.979Z</time>
      </trkpt>
      <trkpt lat="49.4883" lon="-1.26044">
        <ele>2.89</ele>
        <time>2021-08-30T15:30:03.324Z</time>
      </trkpt>
      <trkpt lat="49.48797" lon="-1.26034">
        <ele>2.94</ele>
        <time>2021-08-30T15:30:13.674Z</time>
      </trkpt>
      <trkpt lat="49.48797" lon="-1.26034">
        <ele>2.94</ele>
        <time>2021-08-30T15:30:24.024Z</time>
      </trkpt>
      <trkpt lat="49.48781" lon="-1.26027">
        <ele>2.96</ele>
        <time>2021-08-30T15:30:34.377Z</time>
      </trkpt>
      <trkpt lat="49.48781" lon="-1.26027">
        <ele>2.96</ele>
        <time>2021-08-30T15:30:44.730Z</time>
      </trkpt>
      <trkpt lat="49.48704" lon="-1.25971">
        <ele>3.01</ele>
        <time>2021-08-30T15:30:55.096Z</time>
      </trkpt>
      <trkpt lat="49.48704" lon="-1.25971">
        <ele>3.01</ele>
        <time>2021-08-30T15:31:05.462Z</time>
      </trkpt>
      <trkpt lat="49.48682" lon="-1.2596">
        <ele>2.9</ele>
        <time>2021-08-30T15:31:15.832Z</time>
      </trkpt>
      <trkpt lat="49.48682" lon="-1.2596">
        <ele>2.9</ele>
        <time>2021-08-30T15:31:26.202Z</time>
      </trkpt>
      <trkpt lat="49.48669" lon="-1.25959">
        <ele>2.9</ele>
        <time>2021-08-30T15:31:36.574Z</time>
      </trkpt>
      <trkpt lat="49.48669" lon="-1.25959">
        <ele>2.9</ele>
        <time>2021-08-30T15:31:46.946Z</time>
      </trkpt>
      <trkpt lat="49.48654" lon="-1.2596">
        <ele>2.86</ele>
        <time>2021-08-30T15:31:57.320Z</time>
      </trkpt>
      <trkpt lat="49.48654" lon="-1.2596">
        <ele>2.86</ele>
        <time>2021-08-30T15:32:07.694Z</time>
      </trkpt>
      <trkpt lat="49.48606" lon="-1.25977">
        <ele>2.79</ele>
        <time>2021-08-30T15:32:18.076Z</time>
      </trkpt>
      <trkpt lat="49.48606" lon="-1.25977">
        <ele>2.79</ele>
        <time>2021-08-30T15:32:28.458Z</time>
      </trkpt>
      <trkpt lat="49.48578" lon="-1.25983">
        <ele>2.8</ele>
        <time>2021-08-30T15:32:38.845Z</time>
      </trkpt>
      <trkpt lat="49.48578" lon="-1.25983">
        <ele>2.8</ele>
        <time>2021-08-30T15:32:49.232Z</time>
      </trkpt>
      <trkpt lat="49.48559" lon="-1.25984">
        <ele>2.9</ele>
        <time>2021-08-30T15:32:59.622Z</time>
      </trkpt>
      <trkpt lat="49.48559" lon="-1.25984">
        <ele>2.9</ele>
        <time>2021-08-30T15:33:10.012Z</time>
      </trkpt>
      <trkpt lat="49.48545" lon="-1.25983">
        <ele>2.9</ele>
        <time>2021-08-30T15:33:20.404Z</time>
      </trkpt>
      <trkpt lat="49.48545" lon="-1.25983">
        <ele>2.9</ele>
        <time>2021-08-30T15:33:30.796Z</time>
      </trkpt>
      <trkpt lat="49.48526" lon="-1.2598">
        <ele>2.9</ele>
        <time>2021-08-30T15:33:41.191Z</time>
      </trkpt>
      <trkpt lat="49.48526" lon="-1.2598">
        <ele>2.9</ele>
        <time>2021-08-30T15:33:51.586Z</time>
      </trkpt>
      <trkpt lat="49.48502" lon="-1.2597">
        <ele>2.94</ele>
        <time>2021-08-30T15:34:01.985Z</time>
      </trkpt>
      <trkpt lat="49.48502" lon="-1.2597">
        <ele>2.94</ele>
        <time>2021-08-30T15:34:12.384Z</time>
      </trkpt>
      <trkpt lat="49.48409" lon="-1.25929">
        <ele>3.01</ele>
        <time>2021-08-30T15:34:22.799Z</time>
      </trkpt>
      <trkpt lat="49.48409" lon="-1.25929">
        <ele>3.01</ele>
        <time>2021-08-30T15:34:33.214Z</time>
      </trkpt>
      <trkpt lat="49.48362" lon="-1.25912">
        <ele>3.02</ele>
        <time>2021-08-30T15:34:43.636Z</time>
      </trkpt>
      <trkpt lat="49.48362" lon="-1.25912">
        <ele>3.02</ele>
        <time>2021-08-30T15:34:54.058Z</time>
      </trkpt>
      <trkpt lat="49.4835" lon="-1.25909">
        <ele>3.02</ele>
        <time>2021-08-30T15:35:04.482Z</time>
      </trkpt>
      <trkpt lat="49.4835" lon="-1.25909">
        <ele>3.02</ele>
        <time>2021-08-30T15:35:14.906Z</time>
      </trkpt>
      <trkpt lat="49.4832" lon="-1.25903">
        <ele>3.02</ele>
        <time>2021-08-30T15:35:25.335Z</time>
      </trkpt>
      <trkpt lat="49.4832" lon="-1.25903">
        <ele>3.02</ele>
        <time>2021-08-30T15:35:35.764Z</time>
      </trkpt>
      <trkpt lat="49.48255" lon="-1.25906">
        <ele>2.73</ele>
        <time>2021-08-30T15:35:46.204Z</time>
      </trkpt>
      <trkpt lat="49.48255" lon="-1.25906">
        <ele>2.73</ele>
        <time>2021-08-30T15:35:56.644Z</time>
      </trkpt>
      <trkpt lat="49.48231" lon="-1.25912">
        <ele>2.73</ele>
        <time>2021-08-30T15:36:07.088Z</time>
      </trkpt>
      <trkpt lat="49.48231" lon="-1.25912">
        <ele>2.73</ele>
        <time>2021-08-30T15:36:17.532Z</time>
      </trkpt>
      <trkpt lat="49.48194" lon="-1.25915">
        <ele>2.82</ele>
        <time>2021-08-30T15:36:27.981Z</time>
      </trkpt>
      <trkpt lat="49.48194" lon="-1.25915">
        <ele>2.82</ele>
        <time>2021-08-30T15:36:38.430Z</time>
      </trkpt>
      <trkpt lat="49.48168" lon="-1.25909">
        <ele>2.79</ele>
        <time>2021-08-30T15:36:48.884Z</time>
      </trkpt>
      <trkpt lat="49.48168" lon="-1.25909">
        <ele>2.79</ele>
        <time>2021-08-30T15:36:59.338Z</time>
      </trkpt>
      <trkpt lat="49.48119" lon="-1.25885">
        <ele>2.76</ele>
        <time>2021-08-30T15:37:09.800Z</time>
      </trkpt>
      <trkpt lat="49.48119" lon="-1.25885">
        <ele>2.76</ele>
        <time>2021-08-30T15:37:20.262Z</time>
      </trkpt>
      <trkpt lat="49.48086" lon="-1.25858">
        <ele>2.6</ele>
        <time>2021-08-30T15:37:30.730Z</time>
      </trkpt>
      <trkpt lat="49.48086" lon="-1.25858">
        <ele>2.6</ele>
        <time>2021-08-30T15:37:41.198Z</time>
      </trkpt>
      <trkpt lat="49.4784" lon="-1.25549">
        <ele>2.24</ele>
        <time>2021-08-30T15:37:51.717Z</time>
      </trkpt>
      <trkpt lat="49.4784" lon="-1.25549">
        <ele>2.24</ele>
        <time>2021-08-30T15:38:02.236Z</time>
      </trkpt>
      <trkpt lat="49.47766" lon="-1.25465">
        <ele>2.32</ele>
        <time>2021-08-30T15:38:12.770Z</time>
      </trkpt>
      <trkpt lat="49.47766" lon="-1.25465">
        <ele>2.32</ele>
        <time>2021-08-30T15:38:23.304Z</time>
      </trkpt>
      <trkpt lat="49.47682" lon="-1.25383">
        <ele>2.28</ele>
        <time>2021-08-30T15:38:33.854Z</time>
      </trkpt>
      <trkpt lat="49.47682" lon="-1.25383">
        <ele>2.28</ele>
        <time>2021-08-30T15:38:44.404Z</time>
      </trkpt>
      <trkpt lat="49.4757" lon="-1.25288">
        <ele>2.24</ele>
        <time>2021-08-30T15:38:54.974Z</time>
      </trkpt>
      <trkpt lat="49.4757" lon="-1.25288">
        <ele>2.24</ele>
        <time>2021-08-30T15:39:05.544Z</time>
      </trkpt>
      <trkpt lat="49.47474" lon="-1.25224">
        <ele>2.02</ele>
        <time>2021-08-30T15:39:16.131Z</time>
      </trkpt>
      <trkpt lat="49.47474" lon="-1.25224">
        <ele>2.02</ele>
        <time>2021-08-30T15:39:26.718Z</time>
      </trkpt>
      <trkpt lat="49.47264" lon="-1.25088">
        <ele>1.83</ele>
        <time>2021-08-30T15:39:37.341Z</time>
      </trkpt>
      <trkpt lat="49.47264" lon="-1.25088">
        <ele>1.83</ele>
        <time>2021-08-30T15:39:47.964Z</time>
      </trkpt>
      <trkpt lat="49.47205" lon="-1.25038">
        <ele>1.58</ele>
        <time>2021-08-30T15:39:58.598Z</time>
      </trkpt>
      <trkpt lat="49.47205" lon="-1.25038">
        <ele>1.58</ele>
        <time>2021-08-30T15:40:09.232Z</time>
      </trkpt>
      <trkpt lat="49.47158" lon="-1.24977">
        <ele>1.79</ele>
        <time>2021-08-30T15:40:19.876Z</time>
      </trkpt>
      <trkpt lat="49.47158" lon="-1.24977">
        <ele>1.79</ele>
        <time>2021-08-30T15:40:30.520Z</time>
      </trkpt>
      <trkpt lat="49.47135" lon="-1.24943">
        <ele>1.94</ele>
        <time>2021-08-30T15:40:41.169Z</time>
      </trkpt>
      <trkpt lat="49.47135" lon="-1.24943">
        <ele>1.94</ele>
        <time>2021-08-30T15:40:51.818Z</time>
      </trkpt>
      <trkpt lat="49.47098" lon="-1.24895">
        <ele>2.32</ele>
        <time>2021-08-30T15:41:02.475Z</time>
      </trkpt>
      <trkpt lat="49.47098" lon="-1.24895">
        <ele>2.32</ele>
        <time>2021-08-30T15:41:13.132Z</time>
      </trkpt>
      <trkpt lat="49.47264" lon="-1.24537">
        <ele>2.65</ele>
        <time>2021-08-30T15:41:23.835Z</time>
      </trkpt>
      <trkpt lat="49.47264" lon="-1.24537">
        <ele>2.65</ele>
        <time>2021-08-30T15:41:34.538Z</time>
      </trkpt>
      <trkpt lat="49.47225" lon="-1.24339">
        <ele>2.95</ele>
        <time>2021-08-30T15:41:45.262Z</time>
      </trkpt>
      <trkpt lat="49.47225" lon="-1.24339">
        <ele>2.95</ele>
        <time>2021-08-30T15:41:55.986Z</time>
      </trkpt>
      <trkpt lat="49.47216" lon="-1.24248">
        <ele>3.26</ele>
        <time>2021-08-30T15:42:06.720Z</time>
      </trkpt>
      <trkpt lat="49.47216" lon="-1.24248">
        <ele>3.26</ele>
        <time>2021-08-30T15:42:17.454Z</time>
      </trkpt>
      <trkpt lat="49.47203" lon="-1.24163">
        <ele>3.57</ele>
        <time>2021-08-30T15:42:28.197Z</time>
      </trkpt>
      <trkpt lat="49.47203" lon="-1.24163">
        <ele>3.57</ele>
        <time>2021-08-30T15:42:38.940Z</time>
      </trkpt>
      <trkpt lat="49.47187" lon="-1.24112">
        <ele>3.62</ele>
        <time>2021-08-30T15:42:49.689Z</time>
      </trkpt>
      <trkpt lat="49.47187" lon="-1.24112">
        <ele>3.62</ele>
        <time>2021-08-30T15:43:00.438Z</time>
      </trkpt>
      <trkpt lat="49.47173" lon="-1.24089">
        <ele>3.91</ele>
        <time>2021-08-30T15:43:11.190Z</time>
      </trkpt>
      <trkpt lat="49.47173" lon="-1.24089">
        <ele>3.91</ele>
        <time>2021-08-30T15:43:21.942Z</time>
      </trkpt>
      <trkpt lat="49.47106" lon="-1.24">
        <ele>3.76</ele>
        <time>2021-08-30T15:43:32.708Z</time>
      </trkpt>
      <trkpt lat="49.47106" lon="-1.24">
        <ele>3.76</ele>
        <time>2021-08-30T15:43:43.474Z</time>
      </trkpt>
      <trkpt lat="49.46802" lon="-1.23668">
        <ele>3.68</ele>
        <time>2021-08-30T15:43:54.300Z</time>
      </trkpt>
      <trkpt lat="49.46802" lon="-1.23668">
        <ele>3.68</ele>
        <time>2021-08-30T15:44:05.126Z</time>
      </trkpt>
      <trkpt lat="49.46662" lon="-1.23511">
        <ele>3.57</ele>
        <time>2021-08-30T15:44:15.980Z</time>
      </trkpt>
      <trkpt lat="49.46662" lon="-1.23511">
        <ele>3.57</ele>
        <time>2021-08-30T15:44:26.834Z</time>
      </trkpt>
      <trkpt lat="49.46537" lon="-1.23381">
        <ele>3.68</ele>
        <time>2021-08-30T15:44:37.712Z</time>
      </trkpt>
      <trkpt lat="49.46537" lon="-1.23381">
        <ele>3.68</ele>
        <time>2021-08-30T15:44:48.590Z</time>
      </trkpt>
      <trkpt lat="49.46339" lon="-1.23158">
        <ele>3.41</ele>
        <time>2021-08-30T15:44:59.507Z</time>
      </trkpt>
      <trkpt lat="49.46339" lon="-1.23158">
        <ele>3.41</ele>
        <time>2021-08-30T15:45:10.424Z</time>
      </trkpt>
      <trkpt lat="49.46264" lon="-1.23075">
        <ele>3.24</ele>
        <time>2021-08-30T15:45:21.356Z</time>
      </trkpt>
      <trkpt lat="49.46264" lon="-1.23075">
        <ele>3.24</ele>
        <time>2021-08-30T15:45:32.288Z</time>
      </trkpt>
      <trkpt lat="49.46174" lon="-1.22964">
        <ele>3.43</ele>
        <time>2021-08-30T15:45:43.239Z</time>
      </trkpt>
      <trkpt lat="49.46174" lon="-1.22964">
        <ele>3.43</ele>
        <time>2021-08-30T15:45:54.190Z</time>
      </trkpt>
      <trkpt lat="49.45918" lon="-1.22687">
        <ele>3.65</ele>
        <time>2021-08-30T15:46:05.191Z</time>
      </trkpt>
      <trkpt lat="49.45918" lon="-1.22687">
        <ele>3.65</ele>
        <time>2021-08-30T15:46:16.192Z</time>
      </trkpt>
      <trkpt lat="49.45683" lon="-1.22441">
        <ele>3.75</ele>
        <time>2021-08-30T15:46:27.238Z</time>
      </trkpt>
      <trkpt lat="49.45683" lon="-1.22441">
        <ele>3.75</ele>
        <time>2021-08-30T15:46:38.284Z</time>
      </trkpt>
      <trkpt lat="49.45474" lon="-1.22191">
        <ele>3.73</ele>
        <time>2021-08-30T15:46:49.373Z</time>
      </trkpt>
      <trkpt lat="49.45474" lon="-1.22191">
        <ele>3.73</ele>
        <time>2021-08-30T15:47:00.462Z</time>
      </trkpt>
      <trkpt lat="49.45434" lon="-1.22133">
        <ele>3.44</ele>
        <time>2021-08-30T15:47:11.560Z</time>
      </trkpt>
      <trkpt lat="49.45434" lon="-1.22133">
        <ele>3.44</ele>
        <time>2021-08-30T15:47:22.658Z</time>
      </trkpt>
      <trkpt lat="49.45325" lon="-1.22015">
        <ele>3.39</ele>
        <time>2021-08-30T15:47:33.777Z</time>
      </trkpt>
      <trkpt lat="49.45325" lon="-1.22015">
        <ele>3.39</ele>
        <time>2021-08-30T15:47:44.896Z</time>
      </trkpt>
      <trkpt lat="49.4507" lon="-1.2173">
        <ele>3.63</ele>
        <time>2021-08-30T15:47:56.066Z</time>
      </trkpt>
      <trkpt lat="49.4507" lon="-1.2173">
        <ele>3.63</ele>
        <time>2021-08-30T15:48:07.236Z</time>
      </trkpt>
      <trkpt lat="49.44963" lon="-1.21655">
        <ele>3.64</ele>
        <time>2021-08-30T15:48:18.424Z</time>
      </trkpt>
      <trkpt lat="49.44963" lon="-1.21655">
        <ele>3.64</ele>
        <time>2021-08-30T15:48:29.612Z</time>
      </trkpt>
      <trkpt lat="49.4478" lon="-1.2153">
        <ele>2.58</ele>
        <time>2021-08-30T15:48:40.833Z</time>
      </trkpt>
      <trkpt lat="49.4478" lon="-1.2153">
        <ele>2.58</ele>
        <time>2021-08-30T15:48:52.054Z</time>
      </trkpt>
      <trkpt lat="49.4475" lon="-1.21502">
        <ele>2.44</ele>
        <time>2021-08-30T15:49:03.280Z</time>
      </trkpt>
      <trkpt lat="49.4475" lon="-1.21502">
        <ele>2.44</ele>
        <time>2021-08-30T15:49:14.506Z</time>
      </trkpt>
      <trkpt lat="49.44684" lon="-1.21418">
        <ele>2.61</ele>
        <time>2021-08-30T15:49:25.746Z</time>
      </trkpt>
      <trkpt lat="49.44684" lon="-1.21418">
        <ele>2.61</ele>
        <time>2021-08-30T15:49:36.986Z</time>
      </trkpt>
      <trkpt lat="49.44625" lon="-1.21369">
        <ele>2.65</ele>
        <time>2021-08-30T15:49:48.237Z</time>
      </trkpt>
      <trkpt lat="49.44625" lon="-1.21369">
        <ele>2.65</ele>
        <time>2021-08-30T15:49:59.488Z</time>
      </trkpt>
      <trkpt lat="49.44546" lon="-1.21323">
        <ele>2.51</ele>
        <time>2021-08-30T15:50:10.752Z</time>
      </trkpt>
      <trkpt lat="49.44546" lon="-1.21323">
        <ele>2.51</ele>
        <time>2021-08-30T15:50:22.016Z</time>
      </trkpt>
      <trkpt lat="49.44522" lon="-1.21316">
        <ele>2.57</ele>
        <time>2021-08-30T15:50:33.284Z</time>
      </trkpt>
      <trkpt lat="49.44522" lon="-1.21316">
        <ele>2.57</ele>
        <time>2021-08-30T15:50:44.552Z</time>
      </trkpt>
      <trkpt lat="49.44433" lon="-1.21293">
        <ele>2.67</ele>
        <time>2021-08-30T15:50:55.835Z</time>
      </trkpt>
      <trkpt lat="49.44433" lon="-1.21293">
        <ele>2.67</ele>
        <time>2021-08-30T15:51:07.118Z</time>
      </trkpt>
      <trkpt lat="49.44416" lon="-1.21286">
        <ele>2.67</ele>
        <time>2021-08-30T15:51:18.403Z</time>
      </trkpt>
      <trkpt lat="49.44416" lon="-1.21286">
        <ele>2.67</ele>
        <time>2021-08-30T15:51:29.688Z</time>
      </trkpt>
      <trkpt lat="49.44401" lon="-1.21274">
        <ele>2.67</ele>
        <time>2021-08-30T15:51:40.976Z</time>
      </trkpt>
      <trkpt lat="49.44401" lon="-1.21274">
        <ele>2.67</ele>
        <time>2021-08-30T15:51:52.264Z</time>
      </trkpt>
      <trkpt lat="49.44394" lon="-1.21265">
        <ele>2.77</ele>
        <time>2021-08-30T15:52:03.554Z</time>
      </trkpt>
      <trkpt lat="49.44394" lon="-1.21265">
        <ele>2.77</ele>
        <time>2021-08-30T15:52:14.844Z</time>
      </trkpt>
      <trkpt lat="49.44382" lon="-1.21235">
        <ele>2.77</ele>
        <time>2021-08-30T15:52:26.137Z</time>
      </trkpt>
      <trkpt lat="49.44382" lon="-1.21235">
        <ele>2.77</ele>
        <time>2021-08-30T15:52:37.430Z</time>
      </trkpt>
      <trkpt lat="49.44379" lon="-1.21221">
        <ele>2.71</ele>
        <time>2021-08-30T15:52:48.725Z</time>
      </trkpt>
      <trkpt lat="49.44379" lon="-1.21221">
        <ele>2.71</ele>
        <time>2021-08-30T15:53:00.020Z</time>
      </trkpt>
      <trkpt lat="49.44377" lon="-1.21184">
        <ele>2.66</ele>
        <time>2021-08-30T15:53:11.319Z</time>
      </trkpt>
      <trkpt lat="49.44377" lon="-1.21184">
        <ele>2.66</ele>
        <time>2021-08-30T15:53:22.618Z</time>
      </trkpt>
      <trkpt lat="49.44387" lon="-1.2113">
        <ele>2.7</ele>
        <time>2021-08-30T15:53:33.922Z</time>
      </trkpt>
      <trkpt lat="49.44387" lon="-1.2113">
        <ele>2.7</ele>
        <time>2021-08-30T15:53:45.226Z</time>
      </trkpt>
      <trkpt lat="49.44388" lon="-1.21089">
        <ele>2.7</ele>
        <time>2021-08-30T15:53:56.535Z</time>
      </trkpt>
      <trkpt lat="49.44388" lon="-1.21089">
        <ele>2.7</ele>
        <time>2021-08-30T15:54:07.844Z</time>
      </trkpt>
      <trkpt lat="49.44384" lon="-1.21062">
        <ele>2.82</ele>
        <time>2021-08-30T15:54:19.156Z</time>
      </trkpt>
      <trkpt lat="49.44384" lon="-1.21062">
        <ele>2.82</ele>
        <time>2021-08-30T15:54:30.468Z</time>
      </trkpt>
      <trkpt lat="49.44377" lon="-1.21035">
        <ele>2.82</ele>
        <time>2021-08-30T15:54:41.783Z</time>
      </trkpt>
      <trkpt lat="49.44377" lon="-1.21035">
        <ele>2.82</ele>
        <time>2021-08-30T15:54:53.098Z</time>
      </trkpt>
      <trkpt lat="49.44365" lon="-1.21011">
        <ele>2.84</ele>
        <time>2021-08-30T15:55:04.416Z</time>
      </trkpt>
      <trkpt lat="49.44365" lon="-1.21011">
        <ele>2.84</ele>
        <time>2021-08-30T15:55:15.734Z</time>
      </trkpt>
      <trkpt lat="49.44341" lon="-1.20982">
        <ele>2.95</ele>
        <time>2021-08-30T15:55:27.057Z</time>
      </trkpt>
      <trkpt lat="49.44341" lon="-1.20982">
        <ele>2.95</ele>
        <time>2021-08-30T15:55:38.380Z</time>
      </trkpt>
      <trkpt lat="49.44296" lon="-1.20943">
        <ele>3</ele>
        <time>2021-08-30T15:55:49.711Z</time>
      </trkpt>
      <trkpt lat="49.44296" lon="-1.20943">
        <ele>3</ele>
        <time>2021-08-30T15:56:01.042Z</time>
      </trkpt>
      <trkpt lat="49.44197" lon="-1.20872">
        <ele>2.69</ele>
        <time>2021-08-30T15:56:12.391Z</time>
      </trkpt>
      <trkpt lat="49.44197" lon="-1.20872">
        <ele>2.69</ele>
        <time>2021-08-30T15:56:23.740Z</time>
      </trkpt>
      <trkpt lat="49.44153" lon="-1.20834">
        <ele>2.62</ele>
        <time>2021-08-30T15:56:35.097Z</time>
      </trkpt>
      <trkpt lat="49.44153" lon="-1.20834">
        <ele>2.62</ele>
        <time>2021-08-30T15:56:46.454Z</time>
      </trkpt>
      <trkpt lat="49.44125" lon="-1.20804">
        <ele>2.79</ele>
        <time>2021-08-30T15:56:57.816Z</time>
      </trkpt>
      <trkpt lat="49.44125" lon="-1.20804">
        <ele>2.79</ele>
        <time>2021-08-30T15:57:09.178Z</time>
      </trkpt>
      <trkpt lat="49.44098" lon="-1.20787">
        <ele>2.7</ele>
        <time>2021-08-30T15:57:20.545Z</time>
      </trkpt>
      <trkpt lat="49.44098" lon="-1.20787">
        <ele>2.7</ele>
        <time>2021-08-30T15:57:31.912Z</time>
      </trkpt>
      <trkpt lat="49.43943" lon="-1.20716">
        <ele>2.07</ele>
        <time>2021-08-30T15:57:43.305Z</time>
      </trkpt>
      <trkpt lat="49.43943" lon="-1.20716">
        <ele>2.07</ele>
        <time>2021-08-30T15:57:54.698Z</time>
      </trkpt>
      <trkpt lat="49.43842" lon="-1.20672">
        <ele>2.41</ele>
        <time>2021-08-30T15:58:06.107Z</time>
      </trkpt>
      <trkpt lat="49.43842" lon="-1.20672">
        <ele>2.41</ele>
        <time>2021-08-30T15:58:17.516Z</time>
      </trkpt>
      <trkpt lat="49.43824" lon="-1.20662">
        <ele>2.4</ele>
        <time>2021-08-30T15:58:28.929Z</time>
      </trkpt>
      <trkpt lat="49.43824" lon="-1.20662">
        <ele>2.4</ele>
        <time>2021-08-30T15:58:40.342Z</time>
      </trkpt>
      <trkpt lat="49.43804" lon="-1.20645">
        <ele>2.41</ele>
        <time>2021-08-30T15:58:51.758Z</time>
      </trkpt>
      <trkpt lat="49.43804" lon="-1.20645">
        <ele>2.41</ele>
        <time>2021-08-30T15:59:03.174Z</time>
      </trkpt>
      <trkpt lat="49.43773" lon="-1.20601">
        <ele>2.2</ele>
        <time>2021-08-30T15:59:14.597Z</time>
      </trkpt>
      <trkpt lat="49.43773" lon="-1.20601">
        <ele>2.2</ele>
        <time>2021-08-30T15:59:26.020Z</time>
      </trkpt>
      <trkpt lat="49.43704" lon="-1.20479">
        <ele>2.18</ele>
        <time>2021-08-30T15:59:37.460Z</time>
      </trkpt>
      <trkpt lat="49.43704" lon="-1.20479">
        <ele>2.18</ele>
        <time>2021-08-30T15:59:48.900Z</time>
      </trkpt>
      <trkpt lat="49.43694" lon="-1.20455">
        <ele>2.52</ele>
        <time>2021-08-30T16:00:00.343Z</time>
      </trkpt>
      <trkpt lat="49.43694" lon="-1.20455">
        <ele>2.52</ele>
        <time>2021-08-30T16:00:11.786Z</time>
      </trkpt>
      <trkpt lat="49.43672" lon="-1.20387">
        <ele>2.75</ele>
        <time>2021-08-30T16:00:23.237Z</time>
      </trkpt>
      <trkpt lat="49.43672" lon="-1.20387">
        <ele>2.75</ele>
        <time>2021-08-30T16:00:34.688Z</time>
      </trkpt>
      <trkpt lat="49.43653" lon="-1.20299">
        <ele>2.95</ele>
        <time>2021-08-30T16:00:46.148Z</time>
      </trkpt>
      <trkpt lat="49.43653" lon="-1.20299">
        <ele>2.95</ele>
        <time>2021-08-30T16:00:57.608Z</time>
      </trkpt>
      <trkpt lat="49.43638" lon="-1.20259">
        <ele>2.92</ele>
        <time>2021-08-30T16:01:09.073Z</time>
      </trkpt>
      <trkpt lat="49.43638" lon="-1.20259">
        <ele>2.92</ele>
        <time>2021-08-30T16:01:20.538Z</time>
      </trkpt>
      <trkpt lat="49.43629" lon="-1.20242">
        <ele>2.71</ele>
        <time>2021-08-30T16:01:32.006Z</time>
      </trkpt>
      <trkpt lat="49.43629" lon="-1.20242">
        <ele>2.71</ele>
        <time>2021-08-30T16:01:43.474Z</time>
      </trkpt>
      <trkpt lat="49.43614" lon="-1.20218">
        <ele>2.64</ele>
        <time>2021-08-30T16:01:54.945Z</time>
      </trkpt>
      <trkpt lat="49.43614" lon="-1.20218">
        <ele>2.64</ele>
        <time>2021-08-30T16:02:06.416Z</time>
      </trkpt>
      <trkpt lat="49.43539" lon="-1.2014">
        <ele>2.59</ele>
        <time>2021-08-30T16:02:17.902Z</time>
      </trkpt>
      <trkpt lat="49.43539" lon="-1.2014">
        <ele>2.59</ele>
        <time>2021-08-30T16:02:29.388Z</time>
      </trkpt>
      <trkpt lat="49.43525" lon="-1.20116">
        <ele>2.55</ele>
        <time>2021-08-30T16:02:40.877Z</time>
      </trkpt>
      <trkpt lat="49.43525" lon="-1.20116">
        <ele>2.55</ele>
        <time>2021-08-30T16:02:52.366Z</time>
      </trkpt>
      <trkpt lat="49.43513" lon="-1.20089">
        <ele>2.45</ele>
        <time>2021-08-30T16:03:03.858Z</time>
      </trkpt>
      <trkpt lat="49.43513" lon="-1.20089">
        <ele>2.45</ele>
        <time>2021-08-30T16:03:15.350Z</time>
      </trkpt>
      <trkpt lat="49.43496" lon="-1.20039">
        <ele>2.4</ele>
        <time>2021-08-30T16:03:26.848Z</time>
      </trkpt>
      <trkpt lat="49.43496" lon="-1.20039">
        <ele>2.4</ele>
        <time>2021-08-30T16:03:38.346Z</time>
      </trkpt>
      <trkpt lat="49.43477" lon="-1.19991">
        <ele>2.58</ele>
        <time>2021-08-30T16:03:49.850Z</time>
      </trkpt>
      <trkpt lat="49.43477" lon="-1.19991">
        <ele>2.58</ele>
        <time>2021-08-30T16:04:01.354Z</time>
      </trkpt>
      <trkpt lat="49.43461" lon="-1.1996">
        <ele>2.58</ele>
        <time>2021-08-30T16:04:12.862Z</time>
      </trkpt>
      <trkpt lat="49.43461" lon="-1.1996">
        <ele>2.58</ele>
        <time>2021-08-30T16:04:24.370Z</time>
      </trkpt>
      <trkpt lat="49.43442" lon="-1.19927">
        <ele>2.86</ele>
        <time>2021-08-30T16:04:35.883Z</time>
      </trkpt>
      <trkpt lat="49.43442" lon="-1.19927">
        <ele>2.86</ele>
        <time>2021-08-30T16:04:47.396Z</time>
      </trkpt>
      <trkpt lat="49.43373" lon="-1.19839">
        <ele>2.9</ele>
        <time>2021-08-30T16:04:58.923Z</time>
      </trkpt>
      <trkpt lat="49.43373" lon="-1.19839">
        <ele>2.9</ele>
        <time>2021-08-30T16:05:10.450Z</time>
      </trkpt>
      <trkpt lat="49.43354" lon="-1.19821">
        <ele>2.9</ele>
        <time>2021-08-30T16:05:21.981Z</time>
      </trkpt>
      <trkpt lat="49.43354" lon="-1.19821">
        <ele>2.9</ele>
        <time>2021-08-30T16:05:33.512Z</time>
      </trkpt>
      <trkpt lat="49.43335" lon="-1.19808">
        <ele>2.76</ele>
        <time>2021-08-30T16:05:45.046Z</time>
      </trkpt>
      <trkpt lat="49.43335" lon="-1.19808">
        <ele>2.76</ele>
        <time>2021-08-30T16:05:56.580Z</time>
      </trkpt>
      <trkpt lat="49.43262" lon="-1.19767">
        <ele>3.01</ele>
        <time>2021-08-30T16:06:08.127Z</time>
      </trkpt>
      <trkpt lat="49.43262" lon="-1.19767">
        <ele>3.01</ele>
        <time>2021-08-30T16:06:19.674Z</time>
      </trkpt>
      <trkpt lat="49.43243" lon="-1.19754">
        <ele>3.01</ele>
        <time>2021-08-30T16:06:31.224Z</time>
      </trkpt>
      <trkpt lat="49.43243" lon="-1.19754">
        <ele>3.01</ele>
        <time>2021-08-30T16:06:42.774Z</time>
      </trkpt>
      <trkpt lat="49.43226" lon="-1.1974">
        <ele>3.06</ele>
        <time>2021-08-30T16:06:54.327Z</time>
      </trkpt>
      <trkpt lat="49.43226" lon="-1.1974">
        <ele>3.06</ele>
        <time>2021-08-30T16:07:05.880Z</time>
      </trkpt>
      <trkpt lat="49.43202" lon="-1.19713">
        <ele>3.06</ele>
        <time>2021-08-30T16:07:17.438Z</time>
      </trkpt>
      <trkpt lat="49.43202" lon="-1.19713">
        <ele>3.06</ele>
        <time>2021-08-30T16:07:28.996Z</time>
      </trkpt>
      <trkpt lat="49.42975" lon="-1.19435">
        <ele>3.34</ele>
        <time>2021-08-30T16:07:40.600Z</time>
      </trkpt>
      <trkpt lat="49.42975" lon="-1.19435">
        <ele>3.34</ele>
        <time>2021-08-30T16:07:52.204Z</time>
      </trkpt>
      <trkpt lat="49.42954" lon="-1.19398">
        <ele>3.28</ele>
        <time>2021-08-30T16:08:03.813Z</time>
      </trkpt>
      <trkpt lat="49.42954" lon="-1.19398">
        <ele>3.28</ele>
        <time>2021-08-30T16:08:15.422Z</time>
      </trkpt>
      <trkpt lat="49.42939" lon="-1.19357">
        <ele>3.18</ele>
        <time>2021-08-30T16:08:27.036Z</time>
      </trkpt>
      <trkpt lat="49.42939" lon="-1.19357">
        <ele>3.18</ele>
        <time>2021-08-30T16:08:38.650Z</time>
      </trkpt>
      <trkpt lat="49.42885" lon="-1.19082">
        <ele>2.92</ele>
        <time>2021-08-30T16:08:50.294Z</time>
      </trkpt>
      <trkpt lat="49.42885" lon="-1.19082">
        <ele>2.92</ele>
        <time>2021-08-30T16:09:01.938Z</time>
      </trkpt>
      <trkpt lat="49.42875" lon="-1.19032">
        <ele>2.92</ele>
        <time>2021-08-30T16:09:13.588Z</time>
      </trkpt>
      <trkpt lat="49.42875" lon="-1.19032">
        <ele>2.92</ele>
        <time>2021-08-30T16:09:25.238Z</time>
      </trkpt>
      <trkpt lat="49.42856" lon="-1.18957">
        <ele>3.44</ele>
        <time>2021-08-30T16:09:36.896Z</time>
      </trkpt>
      <trkpt lat="49.42856" lon="-1.18957">
        <ele>3.44</ele>
        <time>2021-08-30T16:09:48.554Z</time>
      </trkpt>
      <trkpt lat="49.42844" lon="-1.18927">
        <ele>3.44</ele>
        <time>2021-08-30T16:10:00.216Z</time>
      </trkpt>
      <trkpt lat="49.42844" lon="-1.18927">
        <ele>3.44</ele>
        <time>2021-08-30T16:10:11.878Z</time>
      </trkpt>
      <trkpt lat="49.42811" lon="-1.18869">
        <ele>3.95</ele>
        <time>2021-08-30T16:10:23.548Z</time>
      </trkpt>
      <trkpt lat="49.42811" lon="-1.18869">
        <ele>3.95</ele>
        <time>2021-08-30T16:10:35.218Z</time>
      </trkpt>
      <trkpt lat="49.42794" lon="-1.18849">
        <ele>3.98</ele>
        <time>2021-08-30T16:10:46.891Z</time>
      </trkpt>
      <trkpt lat="49.42794" lon="-1.18849">
        <ele>3.98</ele>
        <time>2021-08-30T16:10:58.564Z</time>
      </trkpt>
      <trkpt lat="49.42593" lon="-1.18642">
        <ele>3.07</ele>
        <time>2021-08-30T16:11:10.276Z</time>
      </trkpt>
      <trkpt lat="49.42593" lon="-1.18642">
        <ele>3.07</ele>
        <time>2021-08-30T16:11:21.988Z</time>
      </trkpt>
      <trkpt lat="49.42295" lon="-1.1832">
        <ele>3.37</ele>
        <time>2021-08-30T16:11:33.758Z</time>
      </trkpt>
      <trkpt lat="49.42295" lon="-1.1832">
        <ele>3.37</ele>
        <time>2021-08-30T16:11:45.528Z</time>
      </trkpt>
      <trkpt lat="49.42239" lon="-1.18268">
        <ele>2.87</ele>
        <time>2021-08-30T16:11:57.309Z</time>
      </trkpt>
      <trkpt lat="49.42239" lon="-1.18268">
        <ele>2.87</ele>
        <time>2021-08-30T16:12:09.090Z</time>
      </trkpt>
      <trkpt lat="49.42168" lon="-1.18205">
        <ele>2.87</ele>
        <time>2021-08-30T16:12:20.884Z</time>
      </trkpt>
      <trkpt lat="49.42168" lon="-1.18205">
        <ele>2.87</ele>
        <time>2021-08-30T16:12:32.678Z</time>
      </trkpt>
      <trkpt lat="49.42148" lon="-1.18184">
        <ele>3.03</ele>
        <time>2021-08-30T16:12:44.476Z</time>
      </trkpt>
      <trkpt lat="49.42148" lon="-1.18184">
        <ele>3.03</ele>
        <time>2021-08-30T16:12:56.274Z</time>
      </trkpt>
      <trkpt lat="49.42045" lon="-1.18047">
        <ele>3.52</ele>
        <time>2021-08-30T16:13:08.094Z</time>
      </trkpt>
      <trkpt lat="49.42045" lon="-1.18047">
        <ele>3.52</ele>
        <time>2021-08-30T16:13:19.914Z</time>
      </trkpt>
      <trkpt lat="49.42012" lon="-1.18006">
        <ele>3.53</ele>
        <time>2021-08-30T16:13:31.741Z</time>
      </trkpt>
      <trkpt lat="49.42012" lon="-1.18006">
        <ele>3.53</ele>
        <time>2021-08-30T16:13:43.568Z</time>
      </trkpt>
      <trkpt lat="49.4167" lon="-1.1768">
        <ele>3.5</ele>
        <time>2021-08-30T16:13:55.459Z</time>
      </trkpt>
      <trkpt lat="49.4167" lon="-1.1768">
        <ele>3.5</ele>
        <time>2021-08-30T16:14:07.350Z</time>
      </trkpt>
      <trkpt lat="49.41663" lon="-1.17676">
        <ele>3.42</ele>
        <time>2021-08-30T16:14:19.242Z</time>
      </trkpt>
      <trkpt lat="49.41663" lon="-1.17676">
        <ele>3.42</ele>
        <time>2021-08-30T16:14:31.134Z</time>
      </trkpt>
      <trkpt lat="49.41657" lon="-1.17676">
        <ele>3.42</ele>
        <time>2021-08-30T16:14:43.027Z</time>
      </trkpt>
      <trkpt lat="49.41657" lon="-1.17676">
        <ele>3.42</ele>
        <time>2021-08-30T16:14:54.920Z</time>
      </trkpt>
      <trkpt lat="49.41645" lon="-1.17683">
        <ele>3.38</ele>
        <time>2021-08-30T16:15:06.815Z</time>
      </trkpt>
      <trkpt lat="49.41645" lon="-1.17683">
        <ele>3.38</ele>
        <time>2021-08-30T16:15:18.710Z</time>
      </trkpt>
      <trkpt lat="49.41639" lon="-1.17692">
        <ele>3.38</ele>
        <time>2021-08-30T16:15:30.607Z</time>
      </trkpt>
      <trkpt lat="49.41639" lon="-1.17692">
        <ele>3.38</ele>
        <time>2021-08-30T16:15:42.504Z</time>
      </trkpt>
      <trkpt lat="49.41614" lon="-1.17754">
        <ele>3.17</ele>
        <time>2021-08-30T16:15:54.408Z</time>
      </trkpt>
      <trkpt lat="49.41614" lon="-1.17754">
        <ele>3.17</ele>
        <time>2021-08-30T16:16:06.312Z</time>
      </trkpt>
      <trkpt lat="49.41598" lon="-1.17764">
        <ele>3.12</ele>
        <time>2021-08-30T16:16:18.219Z</time>
      </trkpt>
      <trkpt lat="49.41598" lon="-1.17764">
        <ele>3.12</ele>
        <time>2021-08-30T16:16:30.126Z</time>
      </trkpt>
      <trkpt lat="49.41587" lon="-1.17757">
        <ele>3.12</ele>
        <time>2021-08-30T16:16:42.035Z</time>
      </trkpt>
      <trkpt lat="49.41587" lon="-1.17757">
        <ele>3.12</ele>
        <time>2021-08-30T16:16:53.944Z</time>
      </trkpt>
      <trkpt lat="49.41504" lon="-1.17683">
        <ele>3</ele>
        <time>2021-08-30T16:17:05.868Z</time>
      </trkpt>
      <trkpt lat="49.41504" lon="-1.17683">
        <ele>3</ele>
        <time>2021-08-30T16:17:17.792Z</time>
      </trkpt>
      <trkpt lat="49.41477" lon="-1.17655">
        <ele>2.89</ele>
        <time>2021-08-30T16:17:29.722Z</time>
      </trkpt>
      <trkpt lat="49.41477" lon="-1.17655">
        <ele>2.89</ele>
        <time>2021-08-30T16:17:41.652Z</time>
      </trkpt>
      <trkpt lat="49.41471" lon="-1.17635">
        <ele>2.89</ele>
        <time>2021-08-30T16:17:53.584Z</time>
      </trkpt>
      <trkpt lat="49.41471" lon="-1.17635">
        <ele>2.89</ele>
        <time>2021-08-30T16:18:05.516Z</time>
      </trkpt>
      <trkpt lat="49.41454" lon="-1.17619">
        <ele>2.89</ele>
        <time>2021-08-30T16:18:17.451Z</time>
      </trkpt>
      <trkpt lat="49.41454" lon="-1.17619">
        <ele>2.89</ele>
        <time>2021-08-30T16:18:29.386Z</time>
      </trkpt>
      <trkpt lat="49.41419" lon="-1.17598">
        <ele>2.7</ele>
        <time>2021-08-30T16:18:41.327Z</time>
      </trkpt>
      <trkpt lat="49.41419" lon="-1.17598">
        <ele>2.7</ele>
        <time>2021-08-30T16:18:53.268Z</time>
      </trkpt>
      <trkpt lat="49.41409" lon="-1.17581">
        <ele>2.62</ele>
        <time>2021-08-30T16:19:05.211Z</time>
      </trkpt>
      <trkpt lat="49.41409" lon="-1.17581">
        <ele>2.62</ele>
        <time>2021-08-30T16:19:17.154Z</time>
      </trkpt>
      <trkpt lat="49.41405" lon="-1.17554">
        <ele>2.8</ele>
        <time>2021-08-30T16:19:29.100Z</time>
      </trkpt>
      <trkpt lat="49.41405" lon="-1.17554">
        <ele>2.8</ele>
        <time>2021-08-30T16:19:41.046Z</time>
      </trkpt>
      <trkpt lat="49.4141" lon="-1.17527">
        <ele>2.97</ele>
        <time>2021-08-30T16:19:52.995Z</time>
      </trkpt>
      <trkpt lat="49.4141" lon="-1.17527">
        <ele>2.97</ele>
        <time>2021-08-30T16:20:04.944Z</time>
      </trkpt>
      <trkpt lat="49.41434" lon="-1.17459">
        <ele>3.36</ele>
        <time>2021-08-30T16:20:16.901Z</time>
      </trkpt>
      <trkpt lat="49.41434" lon="-1.17459">
        <ele>3.36</ele>
        <time>2021-08-30T16:20:28.858Z</time>
      </trkpt>
      <trkpt lat="49.41432" lon="-1.17445">
        <ele>3.44</ele>
        <time>2021-08-30T16:20:40.817Z</time>
      </trkpt>
      <trkpt lat="49.41432" lon="-1.17445">
        <ele>3.44</ele>
        <time>2021-08-30T16:20:52.776Z</time>
      </trkpt>
      <trkpt lat="49.41423" lon="-1.17435">
        <ele>3.44</ele>
        <time>2021-08-30T16:21:04.737Z</time>
      </trkpt>
      <trkpt lat="49.41423" lon="-1.17435">
        <ele>3.44</ele>
        <time>2021-08-30T16:21:16.698Z</time>
      </trkpt>
      <trkpt lat="49.41361" lon="-1.17389">
        <ele>3.42</ele>
        <time>2021-08-30T16:21:28.670Z</time>
      </trkpt>
      <trkpt lat="49.41361" lon="-1.17389">
        <ele>3.42</ele>
        <time>2021-08-30T16:21:40.642Z</time>
      </trkpt>
      <trkpt lat="49.41311" lon="-1.17357">
        <ele>3.04</ele>
        <time>2021-08-30T16:21:52.622Z</time>
      </trkpt>
      <trkpt lat="49.41311" lon="-1.17357">
        <ele>3.04</ele>
        <time>2021-08-30T16:22:04.602Z</time>
      </trkpt>
      <trkpt lat="49.41295" lon="-1.17347">
        <ele>3.04</ele>
        <time>2021-08-30T16:22:16.585Z</time>
      </trkpt>
      <trkpt lat="49.41295" lon="-1.17347">
        <ele>3.04</ele>
        <time>2021-08-30T16:22:28.568Z</time>
      </trkpt>
      <trkpt lat="49.41275" lon="-1.17344">
        <ele>3</ele>
        <time>2021-08-30T16:22:40.554Z</time>
      </trkpt>
      <trkpt lat="49.41275" lon="-1.17344">
        <ele>3</ele>
        <time>2021-08-30T16:22:52.540Z</time>
      </trkpt>
      <trkpt lat="49.41189" lon="-1.17354">
        <ele>2.87</ele>
        <time>2021-08-30T16:23:04.540Z</time>
      </trkpt>
      <trkpt lat="49.41189" lon="-1.17354">
        <ele>2.87</ele>
        <time>2021-08-30T16:23:16.540Z</time>
      </trkpt>
      <trkpt lat="49.41106" lon="-1.17368">
        <ele>3.09</ele>
        <time>2021-08-30T16:23:28.554Z</time>
      </trkpt>
      <trkpt lat="49.41106" lon="-1.17368">
        <ele>3.09</ele>
        <time>2021-08-30T16:23:40.568Z</time>
      </trkpt>
      <trkpt lat="49.40961" lon="-1.17384">
        <ele>3.49</ele>
        <time>2021-08-30T16:23:52.605Z</time>
      </trkpt>
      <trkpt lat="49.40961" lon="-1.17384">
        <ele>3.49</ele>
        <time>2021-08-30T16:24:04.642Z</time>
      </trkpt>
      <trkpt lat="49.40799" lon="-1.17411">
        <ele>2.96</ele>
        <time>2021-08-30T16:24:16.705Z</time>
      </trkpt>
      <trkpt lat="49.40799" lon="-1.17411">
        <ele>2.96</ele>
        <time>2021-08-30T16:24:28.768Z</time>
      </trkpt>
      <trkpt lat="49.40219" lon="-1.17408">
        <ele>2.97</ele>
        <time>2021-08-30T16:24:40.924Z</time>
      </trkpt>
      <trkpt lat="49.40219" lon="-1.17408">
        <ele>2.97</ele>
        <time>2021-08-30T16:24:53.080Z</time>
      </trkpt>
      <trkpt lat="49.4014" lon="-1.17415">
        <ele>3.03</ele>
        <time>2021-08-30T16:25:05.248Z</time>
      </trkpt>
      <trkpt lat="49.4014" lon="-1.17415">
        <ele>3.03</ele>
        <time>2021-08-30T16:25:17.416Z</time>
      </trkpt>
      <trkpt lat="49.40044" lon="-1.17455">
        <ele>3.08</ele>
        <time>2021-08-30T16:25:29.600Z</time>
      </trkpt>
      <trkpt lat="49.40044" lon="-1.17455">
        <ele>3.08</ele>
        <time>2021-08-30T16:25:41.784Z</time>
      </trkpt>
      <trkpt lat="49.39987" lon="-1.1747">
        <ele>3.03</ele>
        <time>2021-08-30T16:25:53.978Z</time>
      </trkpt>
      <trkpt lat="49.39987" lon="-1.1747">
        <ele>3.03</ele>
        <time>2021-08-30T16:26:06.172Z</time>
      </trkpt>
      <trkpt lat="49.39821" lon="-1.17524">
        <ele>2.96</ele>
        <time>2021-08-30T16:26:18.393Z</time>
      </trkpt>
      <trkpt lat="49.39821" lon="-1.17524">
        <ele>2.96</ele>
        <time>2021-08-30T16:26:30.614Z</time>
      </trkpt>
      <trkpt lat="49.39558" lon="-1.17581">
        <ele>3.14</ele>
        <time>2021-08-30T16:26:42.877Z</time>
      </trkpt>
      <trkpt lat="49.39558" lon="-1.17581">
        <ele>3.14</ele>
        <time>2021-08-30T16:26:55.140Z</time>
      </trkpt>
      <trkpt lat="49.39446" lon="-1.17584">
        <ele>3.12</ele>
        <time>2021-08-30T16:27:07.421Z</time>
      </trkpt>
      <trkpt lat="49.39446" lon="-1.17584">
        <ele>3.12</ele>
        <time>2021-08-30T16:27:19.702Z</time>
      </trkpt>
      <trkpt lat="49.3931" lon="-1.17578">
        <ele>3.5</ele>
        <time>2021-08-30T16:27:32.005Z</time>
      </trkpt>
      <trkpt lat="49.3931" lon="-1.17578">
        <ele>3.5</ele>
        <time>2021-08-30T16:27:44.308Z</time>
      </trkpt>
      <trkpt lat="49.39196" lon="-1.17581">
        <ele>2.89</ele>
        <time>2021-08-30T16:27:56.629Z</time>
      </trkpt>
      <trkpt lat="49.39196" lon="-1.17581">
        <ele>2.89</ele>
        <time>2021-08-30T16:28:08.950Z</time>
      </trkpt>
      <trkpt lat="49.39105" lon="-1.17594">
        <ele>2.73</ele>
        <time>2021-08-30T16:28:21.286Z</time>
      </trkpt>
      <trkpt lat="49.39105" lon="-1.17594">
        <ele>2.73</ele>
        <time>2021-08-30T16:28:33.622Z</time>
      </trkpt>
      <trkpt lat="49.39076" lon="-1.17608">
        <ele>2.8</ele>
        <time>2021-08-30T16:28:45.963Z</time>
      </trkpt>
      <trkpt lat="49.39076" lon="-1.17608">
        <ele>2.8</ele>
        <time>2021-08-30T16:28:58.304Z</time>
      </trkpt>
      <trkpt lat="49.39047" lon="-1.17618">
        <ele>2.63</ele>
        <time>2021-08-30T16:29:10.650Z</time>
      </trkpt>
      <trkpt lat="49.39047" lon="-1.17618">
        <ele>2.63</ele>
        <time>2021-08-30T16:29:22.996Z</time>
      </trkpt>
      <trkpt lat="49.39024" lon="-1.17629">
        <ele>2.58</ele>
        <time>2021-08-30T16:29:35.345Z</time>
      </trkpt>
      <trkpt lat="49.39024" lon="-1.17629">
        <ele>2.58</ele>
        <time>2021-08-30T16:29:47.694Z</time>
      </trkpt>
      <trkpt lat="49.39005" lon="-1.17729">
        <ele>2.71</ele>
        <time>2021-08-30T16:30:00.054Z</time>
      </trkpt>
      <trkpt lat="49.39005" lon="-1.17729">
        <ele>2.71</ele>
        <time>2021-08-30T16:30:12.414Z</time>
      </trkpt>
      <trkpt lat="49.39005" lon="-1.1773">
        <ele>2.71</ele>
        <time>2021-08-30T16:30:24.774Z</time>
      </trkpt>
      <trkpt lat="49.39005" lon="-1.1773">
        <ele>2.71</ele>
        <time>2021-08-30T16:30:37.134Z</time>
      </trkpt>
      <trkpt lat="49.38971" lon="-1.17919">
        <ele>2.56</ele>
        <time>2021-08-30T16:30:49.515Z</time>
      </trkpt>
      <trkpt lat="49.38971" lon="-1.17919">
        <ele>2.56</ele>
        <time>2021-08-30T16:31:01.896Z</time>
      </trkpt>
      <trkpt lat="49.38937" lon="-1.18089">
        <ele>1.8</ele>
        <time>2021-08-30T16:31:14.296Z</time>
      </trkpt>
      <trkpt lat="49.38937" lon="-1.18089">
        <ele>1.8</ele>
        <time>2021-08-30T16:31:26.696Z</time>
      </trkpt>
      <trkpt lat="49.38893" lon="-1.18263">
        <ele>1.06</ele>
        <time>2021-08-30T16:31:39.115Z</time>
      </trkpt>
      <trkpt lat="49.38893" lon="-1.18263">
        <ele>1.06</ele>
        <time>2021-08-30T16:31:51.534Z</time>
      </trkpt>
      <trkpt lat="49.38872" lon="-1.1831">
        <ele>1.14</ele>
        <time>2021-08-30T16:32:03.959Z</time>
      </trkpt>
      <trkpt lat="49.38872" lon="-1.1831">
        <ele>1.14</ele>
        <time>2021-08-30T16:32:16.384Z</time>
      </trkpt>
      <trkpt lat="49.38855" lon="-1.18333">
        <ele>1.39</ele>
        <time>2021-08-30T16:32:28.813Z</time>
      </trkpt>
      <trkpt lat="49.38855" lon="-1.18333">
        <ele>1.39</ele>
        <time>2021-08-30T16:32:41.242Z</time>
      </trkpt>
      <trkpt lat="49.38828" lon="-1.18361">
        <ele>1.56</ele>
        <time>2021-08-30T16:32:53.676Z</time>
      </trkpt>
      <trkpt lat="49.38828" lon="-1.18361">
        <ele>1.56</ele>
        <time>2021-08-30T16:33:06.110Z</time>
      </trkpt>
      <trkpt lat="49.38815" lon="-1.18385">
        <ele>1.27</ele>
        <time>2021-08-30T16:33:18.547Z</time>
      </trkpt>
      <trkpt lat="49.38815" lon="-1.18385">
        <ele>1.27</ele>
        <time>2021-08-30T16:33:30.984Z</time>
      </trkpt>
      <trkpt lat="49.38747" lon="-1.18567">
        <ele>1.09</ele>
        <time>2021-08-30T16:33:43.443Z</time>
      </trkpt>
      <trkpt lat="49.38747" lon="-1.18567">
        <ele>1.09</ele>
        <time>2021-08-30T16:33:55.902Z</time>
      </trkpt>
      <trkpt lat="49.3866" lon="-1.18737">
        <ele>1.25</ele>
        <time>2021-08-30T16:34:08.384Z</time>
      </trkpt>
      <trkpt lat="49.3866" lon="-1.18737">
        <ele>1.25</ele>
        <time>2021-08-30T16:34:20.866Z</time>
      </trkpt>
      <trkpt lat="49.38548" lon="-1.18937">
        <ele>2.54</ele>
        <time>2021-08-30T16:34:33.375Z</time>
      </trkpt>
      <trkpt lat="49.38548" lon="-1.18937">
        <ele>2.54</ele>
        <time>2021-08-30T16:34:45.884Z</time>
      </trkpt>
      <trkpt lat="49.38498" lon="-1.19021">
        <ele>4.11</ele>
        <time>2021-08-30T16:34:58.405Z</time>
      </trkpt>
      <trkpt lat="49.38498" lon="-1.19021">
        <ele>4.11</ele>
        <time>2021-08-30T16:35:10.926Z</time>
      </trkpt>
      <trkpt lat="49.38452" lon="-1.19086">
        <ele>5.36</ele>
        <time>2021-08-30T16:35:23.457Z</time>
      </trkpt>
      <trkpt lat="49.38452" lon="-1.19086">
        <ele>5.36</ele>
        <time>2021-08-30T16:35:35.988Z</time>
      </trkpt>
      <trkpt lat="49.38399" lon="-1.19187">
        <ele>9.91</ele>
        <time>2021-08-30T16:35:48.533Z</time>
      </trkpt>
      <trkpt lat="49.38399" lon="-1.19187">
        <ele>9.91</ele>
        <time>2021-08-30T16:36:01.078Z</time>
      </trkpt>
      <trkpt lat="49.38381" lon="-1.19218">
        <ele>10.66</ele>
        <time>2021-08-30T16:36:13.627Z</time>
      </trkpt>
      <trkpt lat="49.38381" lon="-1.19218">
        <ele>10.66</ele>
        <time>2021-08-30T16:36:26.176Z</time>
      </trkpt>
      <trkpt lat="49.38369" lon="-1.19245">
        <ele>11.3</ele>
        <time>2021-08-30T16:36:38.728Z</time>
      </trkpt>
      <trkpt lat="49.38369" lon="-1.19245">
        <ele>11.3</ele>
        <time>2021-08-30T16:36:51.280Z</time>
      </trkpt>
      <trkpt lat="49.38336" lon="-1.19337">
        <ele>12.21</ele>
        <time>2021-08-30T16:37:03.843Z</time>
      </trkpt>
      <trkpt lat="49.38336" lon="-1.19337">
        <ele>12.21</ele>
        <time>2021-08-30T16:37:16.406Z</time>
      </trkpt>
      <trkpt lat="49.3832" lon="-1.19374">
        <ele>12.47</ele>
        <time>2021-08-30T16:37:28.974Z</time>
      </trkpt>
      <trkpt lat="49.3832" lon="-1.19374">
        <ele>12.47</ele>
        <time>2021-08-30T16:37:41.542Z</time>
      </trkpt>
      <trkpt lat="49.38302" lon="-1.19408">
        <ele>12.64</ele>
        <time>2021-08-30T16:37:54.115Z</time>
      </trkpt>
      <trkpt lat="49.38302" lon="-1.19408">
        <ele>12.64</ele>
        <time>2021-08-30T16:38:06.688Z</time>
      </trkpt>
      <trkpt lat="49.38224" lon="-1.19533">
        <ele>13.58</ele>
        <time>2021-08-30T16:38:19.279Z</time>
      </trkpt>
      <trkpt lat="49.38224" lon="-1.19533">
        <ele>13.58</ele>
        <time>2021-08-30T16:38:31.870Z</time>
      </trkpt>
      <trkpt lat="49.38203" lon="-1.19574">
        <ele>14.18</ele>
        <time>2021-08-30T16:38:44.466Z</time>
      </trkpt>
      <trkpt lat="49.38203" lon="-1.19574">
        <ele>14.18</ele>
        <time>2021-08-30T16:38:57.062Z</time>
      </trkpt>
      <trkpt lat="49.38189" lon="-1.19615">
        <ele>14.53</ele>
        <time>2021-08-30T16:39:09.663Z</time>
      </trkpt>
      <trkpt lat="49.38189" lon="-1.19615">
        <ele>14.53</ele>
        <time>2021-08-30T16:39:22.264Z</time>
      </trkpt>
      <trkpt lat="49.38151" lon="-1.1975">
        <ele>14.79</ele>
        <time>2021-08-30T16:39:34.880Z</time>
      </trkpt>
      <trkpt lat="49.38151" lon="-1.1975">
        <ele>14.79</ele>
        <time>2021-08-30T16:39:47.496Z</time>
      </trkpt>
      <trkpt lat="49.38139" lon="-1.19784">
        <ele>14.82</ele>
        <time>2021-08-30T16:40:00.116Z</time>
      </trkpt>
      <trkpt lat="49.38139" lon="-1.19784">
        <ele>14.82</ele>
        <time>2021-08-30T16:40:12.736Z</time>
      </trkpt>
      <trkpt lat="49.38108" lon="-1.19856">
        <ele>15.13</ele>
        <time>2021-08-30T16:40:25.365Z</time>
      </trkpt>
      <trkpt lat="49.38108" lon="-1.19856">
        <ele>15.13</ele>
        <time>2021-08-30T16:40:37.994Z</time>
      </trkpt>
      <trkpt lat="49.38049" lon="-1.19986">
        <ele>15.89</ele>
        <time>2021-08-30T16:40:50.640Z</time>
      </trkpt>
      <trkpt lat="49.38049" lon="-1.19986">
        <ele>15.89</ele>
        <time>2021-08-30T16:41:03.286Z</time>
      </trkpt>
      <trkpt lat="49.38041" lon="-1.19961">
        <ele>15.77</ele>
        <time>2021-08-30T16:41:15.935Z</time>
      </trkpt>
      <trkpt lat="49.38041" lon="-1.19961">
        <ele>15.77</ele>
        <time>2021-08-30T16:41:28.584Z</time>
      </trkpt>
      <trkpt lat="49.37992" lon="-1.19774">
        <ele>13.53</ele>
        <time>2021-08-30T16:41:41.254Z</time>
      </trkpt>
      <trkpt lat="49.37992" lon="-1.19774">
        <ele>13.53</ele>
        <time>2021-08-30T16:41:53.924Z</time>
      </trkpt>
      <trkpt lat="49.37956" lon="-1.19692">
        <ele>12.76</ele>
        <time>2021-08-30T16:42:06.604Z</time>
      </trkpt>
      <trkpt lat="49.37956" lon="-1.19692">
        <ele>12.76</ele>
        <time>2021-08-30T16:42:19.284Z</time>
      </trkpt>
      <trkpt lat="49.37904" lon="-1.19594">
        <ele>11.56</ele>
        <time>2021-08-30T16:42:31.977Z</time>
      </trkpt>
      <trkpt lat="49.37904" lon="-1.19594">
        <ele>11.56</ele>
        <time>2021-08-30T16:42:44.670Z</time>
      </trkpt>
      <trkpt lat="49.37703" lon="-1.19195">
        <ele>5.54</ele>
        <time>2021-08-30T16:42:57.416Z</time>
      </trkpt>
      <trkpt lat="49.37703" lon="-1.19195">
        <ele>5.54</ele>
        <time>2021-08-30T16:43:10.162Z</time>
      </trkpt>
      <trkpt lat="49.37606" lon="-1.18977">
        <ele>4.91</ele>
        <time>2021-08-30T16:43:22.936Z</time>
      </trkpt>
      <trkpt lat="49.37606" lon="-1.18977">
        <ele>4.91</ele>
        <time>2021-08-30T16:43:35.710Z</time>
      </trkpt>
      <trkpt lat="49.37556" lon="-1.18876">
        <ele>5.01</ele>
        <time>2021-08-30T16:43:48.497Z</time>
      </trkpt>
      <trkpt lat="49.37556" lon="-1.18876">
        <ele>5.01</ele>
        <time>2021-08-30T16:44:01.284Z</time>
      </trkpt>
      <trkpt lat="49.37483" lon="-1.18689">
        <ele>4.16</ele>
        <time>2021-08-30T16:44:14.094Z</time>
      </trkpt>
      <trkpt lat="49.37483" lon="-1.18689">
        <ele>4.16</ele>
        <time>2021-08-30T16:44:26.904Z</time>
      </trkpt>
      <trkpt lat="49.37423" lon="-1.18598">
        <ele>3.39</ele>
        <time>2021-08-30T16:44:39.727Z</time>
      </trkpt>
      <trkpt lat="49.37423" lon="-1.18598">
        <ele>3.39</ele>
        <time>2021-08-30T16:44:52.550Z</time>
      </trkpt>
      <trkpt lat="49.37347" lon="-1.18422">
        <ele>4.48</ele>
        <time>2021-08-30T16:45:05.395Z</time>
      </trkpt>
      <trkpt lat="49.37347" lon="-1.18422">
        <ele>4.48</ele>
        <time>2021-08-30T16:45:18.240Z</time>
      </trkpt>
      <trkpt lat="49.37319" lon="-1.18374">
        <ele>4.98</ele>
        <time>2021-08-30T16:45:31.092Z</time>
      </trkpt>
      <trkpt lat="49.37319" lon="-1.18374">
        <ele>4.98</ele>
        <time>2021-08-30T16:45:43.944Z</time>
      </trkpt>
      <trkpt lat="49.37234" lon="-1.18249">
        <ele>5.01</ele>
        <time>2021-08-30T16:45:56.815Z</time>
      </trkpt>
      <trkpt lat="49.37234" lon="-1.18249">
        <ele>5.01</ele>
        <time>2021-08-30T16:46:09.686Z</time>
      </trkpt>
      <trkpt lat="49.37183" lon="-1.18154">
        <ele>4.88</ele>
        <time>2021-08-30T16:46:22.570Z</time>
      </trkpt>
      <trkpt lat="49.37183" lon="-1.18154">
        <ele>4.88</ele>
        <time>2021-08-30T16:46:35.454Z</time>
      </trkpt>
      <trkpt lat="49.37162" lon="-1.18123">
        <ele>5.05</ele>
        <time>2021-08-30T16:46:48.343Z</time>
      </trkpt>
      <trkpt lat="49.37162" lon="-1.18123">
        <ele>5.05</ele>
        <time>2021-08-30T16:47:01.232Z</time>
      </trkpt>
      <trkpt lat="49.37138" lon="-1.181">
        <ele>5.18</ele>
        <time>2021-08-30T16:47:14.125Z</time>
      </trkpt>
      <trkpt lat="49.37138" lon="-1.181">
        <ele>5.18</ele>
        <time>2021-08-30T16:47:27.018Z</time>
      </trkpt>
      <trkpt lat="49.37087" lon="-1.18056">
        <ele>5.42</ele>
        <time>2021-08-30T16:47:39.920Z</time>
      </trkpt>
      <trkpt lat="49.37087" lon="-1.18056">
        <ele>5.42</ele>
        <time>2021-08-30T16:47:52.822Z</time>
      </trkpt>
      <trkpt lat="49.3707" lon="-1.18039">
        <ele>5.46</ele>
        <time>2021-08-30T16:48:05.728Z</time>
      </trkpt>
      <trkpt lat="49.3707" lon="-1.18039">
        <ele>5.46</ele>
        <time>2021-08-30T16:48:18.634Z</time>
      </trkpt>
      <trkpt lat="49.37044" lon="-1.18008">
        <ele>5.62</ele>
        <time>2021-08-30T16:48:31.545Z</time>
      </trkpt>
      <trkpt lat="49.37044" lon="-1.18008">
        <ele>5.62</ele>
        <time>2021-08-30T16:48:44.456Z</time>
      </trkpt>
      <trkpt lat="49.37008" lon="-1.17951">
        <ele>5.76</ele>
        <time>2021-08-30T16:48:57.375Z</time>
      </trkpt>
      <trkpt lat="49.37008" lon="-1.17951">
        <ele>5.76</ele>
        <time>2021-08-30T16:49:10.294Z</time>
      </trkpt>
      <trkpt lat="49.36969" lon="-1.17893">
        <ele>6.09</ele>
        <time>2021-08-30T16:49:23.222Z</time>
      </trkpt>
      <trkpt lat="49.36969" lon="-1.17893">
        <ele>6.09</ele>
        <time>2021-08-30T16:49:36.150Z</time>
      </trkpt>
      <trkpt lat="49.36894" lon="-1.17795">
        <ele>5.26</ele>
        <time>2021-08-30T16:49:49.094Z</time>
      </trkpt>
      <trkpt lat="49.36894" lon="-1.17795">
        <ele>5.26</ele>
        <time>2021-08-30T16:50:02.038Z</time>
      </trkpt>
      <trkpt lat="49.3684" lon="-1.17733">
        <ele>4.58</ele>
        <time>2021-08-30T16:50:14.993Z</time>
      </trkpt>
      <trkpt lat="49.3684" lon="-1.17733">
        <ele>4.58</ele>
        <time>2021-08-30T16:50:27.948Z</time>
      </trkpt>
      <trkpt lat="49.36809" lon="-1.17706">
        <ele>3.96</ele>
        <time>2021-08-30T16:50:40.908Z</time>
      </trkpt>
      <trkpt lat="49.36809" lon="-1.17706">
        <ele>3.96</ele>
        <time>2021-08-30T16:50:53.868Z</time>
      </trkpt>
      <trkpt lat="49.36747" lon="-1.17693">
        <ele>3.7</ele>
        <time>2021-08-30T16:51:06.838Z</time>
      </trkpt>
      <trkpt lat="49.36747" lon="-1.17693">
        <ele>3.7</ele>
        <time>2021-08-30T16:51:19.808Z</time>
      </trkpt>
      <trkpt lat="49.36729" lon="-1.17686">
        <ele>3.56</ele>
        <time>2021-08-30T16:51:32.781Z</time>
      </trkpt>
      <trkpt lat="49.36729" lon="-1.17686">
        <ele>3.56</ele>
        <time>2021-08-30T16:51:45.754Z</time>
      </trkpt>
      <trkpt lat="49.36698" lon="-1.17668">
        <ele>3.57</ele>
        <time>2021-08-30T16:51:58.733Z</time>
      </trkpt>
      <trkpt lat="49.36698" lon="-1.17668">
        <ele>3.57</ele>
        <time>2021-08-30T16:52:11.712Z</time>
      </trkpt>
      <trkpt lat="49.36667" lon="-1.17679">
        <ele>3.41</ele>
        <time>2021-08-30T16:52:24.696Z</time>
      </trkpt>
      <trkpt lat="49.36667" lon="-1.17679">
        <ele>3.41</ele>
        <time>2021-08-30T16:52:37.680Z</time>
      </trkpt>
      <trkpt lat="49.36593" lon="-1.17716">
        <ele>3.18</ele>
        <time>2021-08-30T16:52:50.676Z</time>
      </trkpt>
      <trkpt lat="49.36593" lon="-1.17716">
        <ele>3.18</ele>
        <time>2021-08-30T16:53:03.672Z</time>
      </trkpt>
      <trkpt lat="49.36565" lon="-1.17733">
        <ele>3</ele>
        <time>2021-08-30T16:53:16.673Z</time>
      </trkpt>
      <trkpt lat="49.36565" lon="-1.17733">
        <ele>3</ele>
        <time>2021-08-30T16:53:29.674Z</time>
      </trkpt>
      <trkpt lat="49.36535" lon="-1.17764">
        <ele>2.86</ele>
        <time>2021-08-30T16:53:42.681Z</time>
      </trkpt>
      <trkpt lat="49.36535" lon="-1.17764">
        <ele>2.86</ele>
        <time>2021-08-30T16:53:55.688Z</time>
      </trkpt>
      <trkpt lat="49.36533" lon="-1.17771">
        <ele>2.86</ele>
        <time>2021-08-30T16:54:08.696Z</time>
      </trkpt>
      <trkpt lat="49.36533" lon="-1.17771">
        <ele>2.86</ele>
        <time>2021-08-30T16:54:21.704Z</time>
      </trkpt>
      <trkpt lat="49.36521" lon="-1.17845">
        <ele>2.83</ele>
        <time>2021-08-30T16:54:34.720Z</time>
      </trkpt>
      <trkpt lat="49.36521" lon="-1.17845">
        <ele>2.83</ele>
        <time>2021-08-30T16:54:47.736Z</time>
      </trkpt>
      <trkpt lat="49.36515" lon="-1.18001">
        <ele>2.6</ele>
        <time>2021-08-30T16:55:00.768Z</time>
      </trkpt>
      <trkpt lat="49.36515" lon="-1.18001">
        <ele>2.6</ele>
        <time>2021-08-30T16:55:13.800Z</time>
      </trkpt>
      <trkpt lat="49.36513" lon="-1.18018">
        <ele>2.45</ele>
        <time>2021-08-30T16:55:26.834Z</time>
      </trkpt>
      <trkpt lat="49.36513" lon="-1.18018">
        <ele>2.45</ele>
        <time>2021-08-30T16:55:39.868Z</time>
      </trkpt>
      <trkpt lat="49.36509" lon="-1.18035">
        <ele>2.45</ele>
        <time>2021-08-30T16:55:52.904Z</time>
      </trkpt>
      <trkpt lat="49.36509" lon="-1.18035">
        <ele>2.45</ele>
        <time>2021-08-30T16:56:05.940Z</time>
      </trkpt>
      <trkpt lat="49.36499" lon="-1.18066">
        <ele>2.37</ele>
        <time>2021-08-30T16:56:18.979Z</time>
      </trkpt>
      <trkpt lat="49.36499" lon="-1.18066">
        <ele>2.37</ele>
        <time>2021-08-30T16:56:32.018Z</time>
      </trkpt>
      <trkpt lat="49.36451" lon="-1.18171">
        <ele>1.85</ele>
        <time>2021-08-30T16:56:45.071Z</time>
      </trkpt>
      <trkpt lat="49.36451" lon="-1.18171">
        <ele>1.85</ele>
        <time>2021-08-30T16:56:58.124Z</time>
      </trkpt>
      <trkpt lat="49.36441" lon="-1.18211">
        <ele>1.86</ele>
        <time>2021-08-30T16:57:11.181Z</time>
      </trkpt>
      <trkpt lat="49.36441" lon="-1.18211">
        <ele>1.86</ele>
        <time>2021-08-30T16:57:24.238Z</time>
      </trkpt>
      <trkpt lat="49.36441" lon="-1.18255">
        <ele>1.86</ele>
        <time>2021-08-30T16:57:37.300Z</time>
      </trkpt>
      <trkpt lat="49.36441" lon="-1.18255">
        <ele>1.86</ele>
        <time>2021-08-30T16:57:50.362Z</time>
      </trkpt>
      <trkpt lat="49.36444" lon="-1.18263">
        <ele>1.79</ele>
        <time>2021-08-30T16:58:03.425Z</time>
      </trkpt>
      <trkpt lat="49.36444" lon="-1.18263">
        <ele>1.79</ele>
        <time>2021-08-30T16:58:16.488Z</time>
      </trkpt>
      <trkpt lat="49.36445" lon="-1.18283">
        <ele>1.79</ele>
        <time>2021-08-30T16:58:29.553Z</time>
      </trkpt>
      <trkpt lat="49.36445" lon="-1.18283">
        <ele>1.79</ele>
        <time>2021-08-30T16:58:42.618Z</time>
      </trkpt>
      <trkpt lat="49.3646" lon="-1.1834">
        <ele>1.84</ele>
        <time>2021-08-30T16:58:55.689Z</time>
      </trkpt>
      <trkpt lat="49.3646" lon="-1.1834">
        <ele>1.84</ele>
        <time>2021-08-30T16:59:08.760Z</time>
      </trkpt>
      <trkpt lat="49.36468" lon="-1.18381">
        <ele>1.74</ele>
        <time>2021-08-30T16:59:21.836Z</time>
      </trkpt>
      <trkpt lat="49.36468" lon="-1.18381">
        <ele>1.74</ele>
        <time>2021-08-30T16:59:34.912Z</time>
      </trkpt>
      <trkpt lat="49.36492" lon="-1.18568">
        <ele>1.58</ele>
        <time>2021-08-30T16:59:48.008Z</time>
      </trkpt>
      <trkpt lat="49.36492" lon="-1.18568">
        <ele>1.58</ele>
        <time>2021-08-30T17:00:01.104Z</time>
      </trkpt>
      <trkpt lat="49.36493" lon="-1.18588">
        <ele>1.55</ele>
        <time>2021-08-30T17:00:14.202Z</time>
      </trkpt>
      <trkpt lat="49.36493" lon="-1.18588">
        <ele>1.55</ele>
        <time>2021-08-30T17:00:27.300Z</time>
      </trkpt>
      <trkpt lat="49.36492" lon="-1.18608">
        <ele>1.55</ele>
        <time>2021-08-30T17:00:40.400Z</time>
      </trkpt>
      <trkpt lat="49.36492" lon="-1.18608">
        <ele>1.55</ele>
        <time>2021-08-30T17:00:53.500Z</time>
      </trkpt>
      <trkpt lat="49.36473" lon="-1.18672">
        <ele>1.59</ele>
        <time>2021-08-30T17:01:06.607Z</time>
      </trkpt>
      <trkpt lat="49.36473" lon="-1.18672">
        <ele>1.59</ele>
        <time>2021-08-30T17:01:19.714Z</time>
      </trkpt>
      <trkpt lat="49.36464" lon="-1.18713">
        <ele>1.67</ele>
        <time>2021-08-30T17:01:32.826Z</time>
      </trkpt>
      <trkpt lat="49.36464" lon="-1.18713">
        <ele>1.67</ele>
        <time>2021-08-30T17:01:45.938Z</time>
      </trkpt>
      <trkpt lat="49.36461" lon="-1.1875">
        <ele>1.64</ele>
        <time>2021-08-30T17:01:59.054Z</time>
      </trkpt>
      <trkpt lat="49.36461" lon="-1.1875">
        <ele>1.64</ele>
        <time>2021-08-30T17:02:12.170Z</time>
      </trkpt>
      <trkpt lat="49.36458" lon="-1.18825">
        <ele>1.76</ele>
        <time>2021-08-30T17:02:25.293Z</time>
      </trkpt>
      <trkpt lat="49.36458" lon="-1.18825">
        <ele>1.76</ele>
        <time>2021-08-30T17:02:38.416Z</time>
      </trkpt>
      <trkpt lat="49.36454" lon="-1.18856">
        <ele>1.76</ele>
        <time>2021-08-30T17:02:51.543Z</time>
      </trkpt>
      <trkpt lat="49.36454" lon="-1.18856">
        <ele>1.76</ele>
        <time>2021-08-30T17:03:04.670Z</time>
      </trkpt>
      <trkpt lat="49.36445" lon="-1.18893">
        <ele>1.78</ele>
        <time>2021-08-30T17:03:17.801Z</time>
      </trkpt>
      <trkpt lat="49.36445" lon="-1.18893">
        <ele>1.78</ele>
        <time>2021-08-30T17:03:30.932Z</time>
      </trkpt>
      <trkpt lat="49.36428" lon="-1.18933">
        <ele>1.76</ele>
        <time>2021-08-30T17:03:44.068Z</time>
      </trkpt>
      <trkpt lat="49.36428" lon="-1.18933">
        <ele>1.76</ele>
        <time>2021-08-30T17:03:57.204Z</time>
      </trkpt>
      <trkpt lat="49.36416" lon="-1.18954">
        <ele>1.74</ele>
        <time>2021-08-30T17:04:10.343Z</time>
      </trkpt>
      <trkpt lat="49.36416" lon="-1.18954">
        <ele>1.74</ele>
        <time>2021-08-30T17:04:23.482Z</time>
      </trkpt>
      <trkpt lat="49.36375" lon="-1.19011">
        <ele>1.47</ele>
        <time>2021-08-30T17:04:36.630Z</time>
      </trkpt>
      <trkpt lat="49.36375" lon="-1.19011">
        <ele>1.47</ele>
        <time>2021-08-30T17:04:49.778Z</time>
      </trkpt>
      <trkpt lat="49.36228" lon="-1.19235">
        <ele>1.65</ele>
        <time>2021-08-30T17:05:02.959Z</time>
      </trkpt>
      <trkpt lat="49.36228" lon="-1.19235">
        <ele>1.65</ele>
        <time>2021-08-30T17:05:16.140Z</time>
      </trkpt>
      <trkpt lat="49.36184" lon="-1.19299">
        <ele>1.71</ele>
        <time>2021-08-30T17:05:29.331Z</time>
      </trkpt>
      <trkpt lat="49.36184" lon="-1.19299">
        <ele>1.71</ele>
        <time>2021-08-30T17:05:42.522Z</time>
      </trkpt>
      <trkpt lat="49.36174" lon="-1.1932">
        <ele>1.75</ele>
        <time>2021-08-30T17:05:55.715Z</time>
      </trkpt>
      <trkpt lat="49.36174" lon="-1.1932">
        <ele>1.75</ele>
        <time>2021-08-30T17:06:08.908Z</time>
      </trkpt>
      <trkpt lat="49.3617" lon="-1.19344">
        <ele>1.75</ele>
        <time>2021-08-30T17:06:22.104Z</time>
      </trkpt>
      <trkpt lat="49.3617" lon="-1.19344">
        <ele>1.75</ele>
        <time>2021-08-30T17:06:35.300Z</time>
      </trkpt>
      <trkpt lat="49.36176" lon="-1.19415">
        <ele>1.86</ele>
        <time>2021-08-30T17:06:48.503Z</time>
      </trkpt>
      <trkpt lat="49.36176" lon="-1.19415">
        <ele>1.86</ele>
        <time>2021-08-30T17:07:01.706Z</time>
      </trkpt>
      <trkpt lat="49.36173" lon="-1.19442">
        <ele>1.84</ele>
        <time>2021-08-30T17:07:14.912Z</time>
      </trkpt>
      <trkpt lat="49.36173" lon="-1.19442">
        <ele>1.84</ele>
        <time>2021-08-30T17:07:28.118Z</time>
      </trkpt>
      <trkpt lat="49.36163" lon="-1.19506">
        <ele>1.97</ele>
        <time>2021-08-30T17:07:41.331Z</time>
      </trkpt>
      <trkpt lat="49.36163" lon="-1.19506">
        <ele>1.97</ele>
        <time>2021-08-30T17:07:54.544Z</time>
      </trkpt>
      <trkpt lat="49.36135" lon="-1.19567">
        <ele>2.03</ele>
        <time>2021-08-30T17:08:07.765Z</time>
      </trkpt>
      <trkpt lat="49.36135" lon="-1.19567">
        <ele>2.03</ele>
        <time>2021-08-30T17:08:20.986Z</time>
      </trkpt>
      <trkpt lat="49.36114" lon="-1.19594">
        <ele>2.09</ele>
        <time>2021-08-30T17:08:34.211Z</time>
      </trkpt>
      <trkpt lat="49.36114" lon="-1.19594">
        <ele>2.09</ele>
        <time>2021-08-30T17:08:47.436Z</time>
      </trkpt>
      <trkpt lat="49.36072" lon="-1.19638">
        <ele>2.06</ele>
        <time>2021-08-30T17:09:00.669Z</time>
      </trkpt>
      <trkpt lat="49.36072" lon="-1.19638">
        <ele>2.06</ele>
        <time>2021-08-30T17:09:13.902Z</time>
      </trkpt>
      <trkpt lat="49.36053" lon="-1.19659">
        <ele>2.06</ele>
        <time>2021-08-30T17:09:27.139Z</time>
      </trkpt>
      <trkpt lat="49.36053" lon="-1.19659">
        <ele>2.06</ele>
        <time>2021-08-30T17:09:40.376Z</time>
      </trkpt>
      <trkpt lat="49.35979" lon="-1.1972">
        <ele>1.87</ele>
        <time>2021-08-30T17:09:53.627Z</time>
      </trkpt>
      <trkpt lat="49.35979" lon="-1.1972">
        <ele>1.87</ele>
        <time>2021-08-30T17:10:06.878Z</time>
      </trkpt>
      <trkpt lat="49.35967" lon="-1.19735">
        <ele>1.87</ele>
        <time>2021-08-30T17:10:20.131Z</time>
      </trkpt>
      <trkpt lat="49.35967" lon="-1.19735">
        <ele>1.87</ele>
        <time>2021-08-30T17:10:33.384Z</time>
      </trkpt>
      <trkpt lat="49.35955" lon="-1.1974">
        <ele>1.87</ele>
        <time>2021-08-30T17:10:46.639Z</time>
      </trkpt>
      <trkpt lat="49.35955" lon="-1.1974">
        <ele>1.87</ele>
        <time>2021-08-30T17:10:59.894Z</time>
      </trkpt>
      <trkpt lat="49.35927" lon="-1.19744">
        <ele>1.72</ele>
        <time>2021-08-30T17:11:13.154Z</time>
      </trkpt>
      <trkpt lat="49.35927" lon="-1.19744">
        <ele>1.72</ele>
        <time>2021-08-30T17:11:26.414Z</time>
      </trkpt>
      <trkpt lat="49.35876" lon="-1.19757">
        <ele>1.69</ele>
        <time>2021-08-30T17:11:39.682Z</time>
      </trkpt>
      <trkpt lat="49.35876" lon="-1.19757">
        <ele>1.69</ele>
        <time>2021-08-30T17:11:52.950Z</time>
      </trkpt>
      <trkpt lat="49.35848" lon="-1.1977">
        <ele>1.69</ele>
        <time>2021-08-30T17:12:06.223Z</time>
      </trkpt>
      <trkpt lat="49.35848" lon="-1.1977">
        <ele>1.69</ele>
        <time>2021-08-30T17:12:19.496Z</time>
      </trkpt>
      <trkpt lat="49.35834" lon="-1.19784">
        <ele>1.64</ele>
        <time>2021-08-30T17:12:32.771Z</time>
      </trkpt>
      <trkpt lat="49.35834" lon="-1.19784">
        <ele>1.64</ele>
        <time>2021-08-30T17:12:46.046Z</time>
      </trkpt>
      <trkpt lat="49.35737" lon="-1.19944">
        <ele>1.67</ele>
        <time>2021-08-30T17:12:59.344Z</time>
      </trkpt>
      <trkpt lat="49.35737" lon="-1.19944">
        <ele>1.67</ele>
        <time>2021-08-30T17:13:12.642Z</time>
      </trkpt>
      <trkpt lat="49.35708" lon="-1.20005">
        <ele>1.68</ele>
        <time>2021-08-30T17:13:25.948Z</time>
      </trkpt>
      <trkpt lat="49.35708" lon="-1.20005">
        <ele>1.68</ele>
        <time>2021-08-30T17:13:39.254Z</time>
      </trkpt>
      <trkpt lat="49.35694" lon="-1.20048">
        <ele>1.73</ele>
        <time>2021-08-30T17:13:52.565Z</time>
      </trkpt>
      <trkpt lat="49.35694" lon="-1.20048">
        <ele>1.73</ele>
        <time>2021-08-30T17:14:05.876Z</time>
      </trkpt>
      <trkpt lat="49.35687" lon="-1.20086">
        <ele>1.9</ele>
        <time>2021-08-30T17:14:19.191Z</time>
      </trkpt>
      <trkpt lat="49.35687" lon="-1.20086">
        <ele>1.9</ele>
        <time>2021-08-30T17:14:32.506Z</time>
      </trkpt>
      <trkpt lat="49.35675" lon="-1.20119">
        <ele>1.92</ele>
        <time>2021-08-30T17:14:45.825Z</time>
      </trkpt>
      <trkpt lat="49.35675" lon="-1.20119">
        <ele>1.92</ele>
        <time>2021-08-30T17:14:59.144Z</time>
      </trkpt>
      <trkpt lat="49.35644" lon="-1.2016">
        <ele>1.93</ele>
        <time>2021-08-30T17:15:12.470Z</time>
      </trkpt>
      <trkpt lat="49.35644" lon="-1.2016">
        <ele>1.93</ele>
        <time>2021-08-30T17:15:25.796Z</time>
      </trkpt>
      <trkpt lat="49.35617" lon="-1.20201">
        <ele>2.06</ele>
        <time>2021-08-30T17:15:39.128Z</time>
      </trkpt>
      <trkpt lat="49.35617" lon="-1.20201">
        <ele>2.06</ele>
        <time>2021-08-30T17:15:52.460Z</time>
      </trkpt>
      <trkpt lat="49.35474" lon="-1.20346">
        <ele>2.01</ele>
        <time>2021-08-30T17:16:05.819Z</time>
      </trkpt>
      <trkpt lat="49.35474" lon="-1.20346">
        <ele>2.01</ele>
        <time>2021-08-30T17:16:19.178Z</time>
      </trkpt>
      <trkpt lat="49.35318" lon="-1.20496">
        <ele>1.92</ele>
        <time>2021-08-30T17:16:32.567Z</time>
      </trkpt>
      <trkpt lat="49.35318" lon="-1.20496">
        <ele>1.92</ele>
        <time>2021-08-30T17:16:45.956Z</time>
      </trkpt>
      <trkpt lat="49.35302" lon="-1.20508">
        <ele>1.92</ele>
        <time>2021-08-30T17:16:59.348Z</time>
      </trkpt>
      <trkpt lat="49.35302" lon="-1.20508">
        <ele>1.92</ele>
        <time>2021-08-30T17:17:12.740Z</time>
      </trkpt>
      <trkpt lat="49.35208" lon="-1.20581">
        <ele>2.17</ele>
        <time>2021-08-30T17:17:26.148Z</time>
      </trkpt>
      <trkpt lat="49.35208" lon="-1.20581">
        <ele>2.17</ele>
        <time>2021-08-30T17:17:39.556Z</time>
      </trkpt>
      <trkpt lat="49.35158" lon="-1.20594">
        <ele>2.09</ele>
        <time>2021-08-30T17:17:52.973Z</time>
      </trkpt>
      <trkpt lat="49.35158" lon="-1.20594">
        <ele>2.09</ele>
        <time>2021-08-30T17:18:06.390Z</time>
      </trkpt>
      <trkpt lat="49.35061" lon="-1.20648">
        <ele>1.93</ele>
        <time>2021-08-30T17:18:19.823Z</time>
      </trkpt>
      <trkpt lat="49.35061" lon="-1.20648">
        <ele>1.93</ele>
        <time>2021-08-30T17:18:33.256Z</time>
      </trkpt>
      <trkpt lat="49.3494" lon="-1.20744">
        <ele>2</ele>
        <time>2021-08-30T17:18:46.711Z</time>
      </trkpt>
      <trkpt lat="49.3494" lon="-1.20744">
        <ele>2</ele>
        <time>2021-08-30T17:19:00.166Z</time>
      </trkpt>
      <trkpt lat="49.34915" lon="-1.2076">
        <ele>2.06</ele>
        <time>2021-08-30T17:19:13.625Z</time>
      </trkpt>
      <trkpt lat="49.34915" lon="-1.2076">
        <ele>2.06</ele>
        <time>2021-08-30T17:19:27.084Z</time>
      </trkpt>
      <trkpt lat="49.34877" lon="-1.20764">
        <ele>2.05</ele>
        <time>2021-08-30T17:19:40.549Z</time>
      </trkpt>
      <trkpt lat="49.34877" lon="-1.20764">
        <ele>2.05</ele>
        <time>2021-08-30T17:19:54.014Z</time>
      </trkpt>
      <trkpt lat="49.34816" lon="-1.20797">
        <ele>2.12</ele>
        <time>2021-08-30T17:20:07.490Z</time>
      </trkpt>
      <trkpt lat="49.34816" lon="-1.20797">
        <ele>2.12</ele>
        <time>2021-08-30T17:20:20.966Z</time>
      </trkpt>
      <trkpt lat="49.34759" lon="-1.20818">
        <ele>1.94</ele>
        <time>2021-08-30T17:20:34.451Z</time>
      </trkpt>
      <trkpt lat="49.34759" lon="-1.20818">
        <ele>1.94</ele>
        <time>2021-08-30T17:20:47.936Z</time>
      </trkpt>
      <trkpt lat="49.34735" lon="-1.20841">
        <ele>2.03</ele>
        <time>2021-08-30T17:21:01.426Z</time>
      </trkpt>
      <trkpt lat="49.34735" lon="-1.20841">
        <ele>2.03</ele>
        <time>2021-08-30T17:21:14.916Z</time>
      </trkpt>
      <trkpt lat="49.34695" lon="-1.20886">
        <ele>2.2</ele>
        <time>2021-08-30T17:21:28.414Z</time>
      </trkpt>
      <trkpt lat="49.34695" lon="-1.20886">
        <ele>2.2</ele>
        <time>2021-08-30T17:21:41.912Z</time>
      </trkpt>
      <trkpt lat="49.3466" lon="-1.2093">
        <ele>2.2</ele>
        <time>2021-08-30T17:21:55.417Z</time>
      </trkpt>
      <trkpt lat="49.3466" lon="-1.2093">
        <ele>2.2</ele>
        <time>2021-08-30T17:22:08.922Z</time>
      </trkpt>
      <trkpt lat="49.3462" lon="-1.20997">
        <ele>2.04</ele>
        <time>2021-08-30T17:22:22.436Z</time>
      </trkpt>
      <trkpt lat="49.3462" lon="-1.20997">
        <ele>2.04</ele>
        <time>2021-08-30T17:22:35.950Z</time>
      </trkpt>
      <trkpt lat="49.34561" lon="-1.21102">
        <ele>2.01</ele>
        <time>2021-08-30T17:22:49.479Z</time>
      </trkpt>
      <trkpt lat="49.34561" lon="-1.21102">
        <ele>2.01</ele>
        <time>2021-08-30T17:23:03.008Z</time>
      </trkpt>
      <trkpt lat="49.34516" lon="-1.21177">
        <ele>2.01</ele>
        <time>2021-08-30T17:23:16.548Z</time>
      </trkpt>
      <trkpt lat="49.34516" lon="-1.21177">
        <ele>2.01</ele>
        <time>2021-08-30T17:23:30.088Z</time>
      </trkpt>
      <trkpt lat="49.34474" lon="-1.21197">
        <ele>1.94</ele>
        <time>2021-08-30T17:23:43.635Z</time>
      </trkpt>
      <trkpt lat="49.34474" lon="-1.21197">
        <ele>1.94</ele>
        <time>2021-08-30T17:23:57.182Z</time>
      </trkpt>
      <trkpt lat="49.34194" lon="-1.21502">
        <ele>1.62</ele>
        <time>2021-08-30T17:24:10.784Z</time>
      </trkpt>
      <trkpt lat="49.34194" lon="-1.21502">
        <ele>1.62</ele>
        <time>2021-08-30T17:24:24.386Z</time>
      </trkpt>
      <trkpt lat="49.34156" lon="-1.21526">
        <ele>1.62</ele>
        <time>2021-08-30T17:24:37.994Z</time>
      </trkpt>
      <trkpt lat="49.34156" lon="-1.21526">
        <ele>1.62</ele>
        <time>2021-08-30T17:24:51.602Z</time>
      </trkpt>
      <trkpt lat="49.341" lon="-1.21548">
        <ele>1.66</ele>
        <time>2021-08-30T17:25:05.219Z</time>
      </trkpt>
      <trkpt lat="49.341" lon="-1.21548">
        <ele>1.66</ele>
        <time>2021-08-30T17:25:18.836Z</time>
      </trkpt>
      <trkpt lat="49.33965" lon="-1.21608">
        <ele>1.89</ele>
        <time>2021-08-30T17:25:32.476Z</time>
      </trkpt>
      <trkpt lat="49.33965" lon="-1.21608">
        <ele>1.89</ele>
        <time>2021-08-30T17:25:46.116Z</time>
      </trkpt>
      <trkpt lat="49.33904" lon="-1.21668">
        <ele>1.98</ele>
        <time>2021-08-30T17:25:59.768Z</time>
      </trkpt>
      <trkpt lat="49.33904" lon="-1.21668">
        <ele>1.98</ele>
        <time>2021-08-30T17:26:13.420Z</time>
      </trkpt>
      <trkpt lat="49.3389" lon="-1.21689">
        <ele>1.81</ele>
        <time>2021-08-30T17:26:27.075Z</time>
      </trkpt>
      <trkpt lat="49.3389" lon="-1.21689">
        <ele>1.81</ele>
        <time>2021-08-30T17:26:40.730Z</time>
      </trkpt>
      <trkpt lat="49.33881" lon="-1.21733">
        <ele>1.75</ele>
        <time>2021-08-30T17:26:54.390Z</time>
      </trkpt>
      <trkpt lat="49.33881" lon="-1.21733">
        <ele>1.75</ele>
        <time>2021-08-30T17:27:08.050Z</time>
      </trkpt>
      <trkpt lat="49.33877" lon="-1.21784">
        <ele>1.76</ele>
        <time>2021-08-30T17:27:21.715Z</time>
      </trkpt>
      <trkpt lat="49.33877" lon="-1.21784">
        <ele>1.76</ele>
        <time>2021-08-30T17:27:35.380Z</time>
      </trkpt>
      <trkpt lat="49.33871" lon="-1.21815">
        <ele>1.84</ele>
        <time>2021-08-30T17:27:49.048Z</time>
      </trkpt>
      <trkpt lat="49.33871" lon="-1.21815">
        <ele>1.84</ele>
        <time>2021-08-30T17:28:02.716Z</time>
      </trkpt>
      <trkpt lat="49.33862" lon="-1.21848">
        <ele>1.84</ele>
        <time>2021-08-30T17:28:16.388Z</time>
      </trkpt>
      <trkpt lat="49.33862" lon="-1.21848">
        <ele>1.84</ele>
        <time>2021-08-30T17:28:30.060Z</time>
      </trkpt>
      <trkpt lat="49.33836" lon="-1.21885">
        <ele>1.61</ele>
        <time>2021-08-30T17:28:43.738Z</time>
      </trkpt>
      <trkpt lat="49.33836" lon="-1.21885">
        <ele>1.61</ele>
        <time>2021-08-30T17:28:57.416Z</time>
      </trkpt>
      <trkpt lat="49.33637" lon="-1.22082">
        <ele>1.58</ele>
        <time>2021-08-30T17:29:11.132Z</time>
      </trkpt>
      <trkpt lat="49.33637" lon="-1.22082">
        <ele>1.58</ele>
        <time>2021-08-30T17:29:24.848Z</time>
      </trkpt>
      <trkpt lat="49.33581" lon="-1.22113">
        <ele>1.51</ele>
        <time>2021-08-30T17:29:38.573Z</time>
      </trkpt>
      <trkpt lat="49.33581" lon="-1.22113">
        <ele>1.51</ele>
        <time>2021-08-30T17:29:52.298Z</time>
      </trkpt>
      <trkpt lat="49.33477" lon="-1.22153">
        <ele>1.91</ele>
        <time>2021-08-30T17:30:06.040Z</time>
      </trkpt>
      <trkpt lat="49.33477" lon="-1.22153">
        <ele>1.91</ele>
        <time>2021-08-30T17:30:19.782Z</time>
      </trkpt>
      <trkpt lat="49.33444" lon="-1.22157">
        <ele>1.76</ele>
        <time>2021-08-30T17:30:33.530Z</time>
      </trkpt>
      <trkpt lat="49.33444" lon="-1.22157">
        <ele>1.76</ele>
        <time>2021-08-30T17:30:47.278Z</time>
      </trkpt>
      <trkpt lat="49.33343" lon="-1.22141">
        <ele>1.95</ele>
        <time>2021-08-30T17:31:01.042Z</time>
      </trkpt>
      <trkpt lat="49.33343" lon="-1.22141">
        <ele>1.95</ele>
        <time>2021-08-30T17:31:14.806Z</time>
      </trkpt>
      <trkpt lat="49.33315" lon="-1.2214">
        <ele>1.94</ele>
        <time>2021-08-30T17:31:28.574Z</time>
      </trkpt>
      <trkpt lat="49.33315" lon="-1.2214">
        <ele>1.94</ele>
        <time>2021-08-30T17:31:42.342Z</time>
      </trkpt>
      <trkpt lat="49.33175" lon="-1.22177">
        <ele>1.95</ele>
        <time>2021-08-30T17:31:56.133Z</time>
      </trkpt>
      <trkpt lat="49.33175" lon="-1.22177">
        <ele>1.95</ele>
        <time>2021-08-30T17:32:09.924Z</time>
      </trkpt>
      <trkpt lat="49.33094" lon="-1.22191">
        <ele>2.02</ele>
        <time>2021-08-30T17:32:23.728Z</time>
      </trkpt>
      <trkpt lat="49.33094" lon="-1.22191">
        <ele>2.02</ele>
        <time>2021-08-30T17:32:37.532Z</time>
      </trkpt>
      <trkpt lat="49.33065" lon="-1.22201">
        <ele>2.37</ele>
        <time>2021-08-30T17:32:51.341Z</time>
      </trkpt>
      <trkpt lat="49.33065" lon="-1.22201">
        <ele>2.37</ele>
        <time>2021-08-30T17:33:05.150Z</time>
      </trkpt>
      <trkpt lat="49.33012" lon="-1.22235">
        <ele>2.26</ele>
        <time>2021-08-30T17:33:18.968Z</time>
      </trkpt>
      <trkpt lat="49.33012" lon="-1.22235">
        <ele>2.26</ele>
        <time>2021-08-30T17:33:32.786Z</time>
      </trkpt>
      <trkpt lat="49.32961" lon="-1.22272">
        <ele>2.31</ele>
        <time>2021-08-30T17:33:46.613Z</time>
      </trkpt>
      <trkpt lat="49.32961" lon="-1.22272">
        <ele>2.31</ele>
        <time>2021-08-30T17:34:00.440Z</time>
      </trkpt>
      <trkpt lat="49.32943" lon="-1.22299">
        <ele>2.35</ele>
        <time>2021-08-30T17:34:14.271Z</time>
      </trkpt>
      <trkpt lat="49.32943" lon="-1.22299">
        <ele>2.35</ele>
        <time>2021-08-30T17:34:28.102Z</time>
      </trkpt>
      <trkpt lat="49.32935" lon="-1.22326">
        <ele>2.32</ele>
        <time>2021-08-30T17:34:41.936Z</time>
      </trkpt>
      <trkpt lat="49.32935" lon="-1.22326">
        <ele>2.32</ele>
        <time>2021-08-30T17:34:55.770Z</time>
      </trkpt>
      <trkpt lat="49.32934" lon="-1.22374">
        <ele>2.33</ele>
        <time>2021-08-30T17:35:09.609Z</time>
      </trkpt>
      <trkpt lat="49.32934" lon="-1.22374">
        <ele>2.33</ele>
        <time>2021-08-30T17:35:23.448Z</time>
      </trkpt>
      <trkpt lat="49.32927" lon="-1.22458">
        <ele>1.92</ele>
        <time>2021-08-30T17:35:37.296Z</time>
      </trkpt>
      <trkpt lat="49.32927" lon="-1.22458">
        <ele>1.92</ele>
        <time>2021-08-30T17:35:51.144Z</time>
      </trkpt>
      <trkpt lat="49.32915" lon="-1.22516">
        <ele>1.79</ele>
        <time>2021-08-30T17:36:04.999Z</time>
      </trkpt>
      <trkpt lat="49.32915" lon="-1.22516">
        <ele>1.79</ele>
        <time>2021-08-30T17:36:18.854Z</time>
      </trkpt>
      <trkpt lat="49.32902" lon="-1.22557">
        <ele>1.71</ele>
        <time>2021-08-30T17:36:32.713Z</time>
      </trkpt>
      <trkpt lat="49.32902" lon="-1.22557">
        <ele>1.71</ele>
        <time>2021-08-30T17:36:46.572Z</time>
      </trkpt>
      <trkpt lat="49.32897" lon="-1.22598">
        <ele>1.78</ele>
        <time>2021-08-30T17:37:00.436Z</time>
      </trkpt>
      <trkpt lat="49.32897" lon="-1.22598">
        <ele>1.78</ele>
        <time>2021-08-30T17:37:14.300Z</time>
      </trkpt>
      <trkpt lat="49.32897" lon="-1.2265">
        <ele>2.12</ele>
        <time>2021-08-30T17:37:28.169Z</time>
      </trkpt>
      <trkpt lat="49.32897" lon="-1.2265">
        <ele>2.12</ele>
        <time>2021-08-30T17:37:42.038Z</time>
      </trkpt>
      <trkpt lat="49.32894" lon="-1.22675">
        <ele>2.12</ele>
        <time>2021-08-30T17:37:55.910Z</time>
      </trkpt>
      <trkpt lat="49.32894" lon="-1.22675">
        <ele>2.12</ele>
        <time>2021-08-30T17:38:09.782Z</time>
      </trkpt>
      <trkpt lat="49.3283" lon="-1.22855">
        <ele>2.05</ele>
        <time>2021-08-30T17:38:23.675Z</time>
      </trkpt>
      <trkpt lat="49.3283" lon="-1.22855">
        <ele>2.05</ele>
        <time>2021-08-30T17:38:37.568Z</time>
      </trkpt>
      <trkpt lat="49.32788" lon="-1.22925">
        <ele>2.16</ele>
        <time>2021-08-30T17:38:51.471Z</time>
      </trkpt>
      <trkpt lat="49.32788" lon="-1.22925">
        <ele>2.16</ele>
        <time>2021-08-30T17:39:05.374Z</time>
      </trkpt>
      <trkpt lat="49.32764" lon="-1.22991">
        <ele>2.05</ele>
        <time>2021-08-30T17:39:19.285Z</time>
      </trkpt>
      <trkpt lat="49.32764" lon="-1.22991">
        <ele>2.05</ele>
        <time>2021-08-30T17:39:33.196Z</time>
      </trkpt>
      <trkpt lat="49.32752" lon="-1.23014">
        <ele>2.24</ele>
        <time>2021-08-30T17:39:47.110Z</time>
      </trkpt>
      <trkpt lat="49.32752" lon="-1.23014">
        <ele>2.24</ele>
        <time>2021-08-30T17:40:01.024Z</time>
      </trkpt>
      <trkpt lat="49.32738" lon="-1.23031">
        <ele>2.47</ele>
        <time>2021-08-30T17:40:14.941Z</time>
      </trkpt>
      <trkpt lat="49.32738" lon="-1.23031">
        <ele>2.47</ele>
        <time>2021-08-30T17:40:28.858Z</time>
      </trkpt>
      <trkpt lat="49.32724" lon="-1.23051">
        <ele>2.54</ele>
        <time>2021-08-30T17:40:42.778Z</time>
      </trkpt>
      <trkpt lat="49.32724" lon="-1.23051">
        <ele>2.54</ele>
        <time>2021-08-30T17:40:56.698Z</time>
      </trkpt>
      <trkpt lat="49.32678" lon="-1.23181">
        <ele>2.28</ele>
        <time>2021-08-30T17:41:10.634Z</time>
      </trkpt>
      <trkpt lat="49.32678" lon="-1.23181">
        <ele>2.28</ele>
        <time>2021-08-30T17:41:24.570Z</time>
      </trkpt>
      <trkpt lat="49.32652" lon="-1.23346">
        <ele>2.07</ele>
        <time>2021-08-30T17:41:38.523Z</time>
      </trkpt>
      <trkpt lat="49.32652" lon="-1.23346">
        <ele>2.07</ele>
        <time>2021-08-30T17:41:52.476Z</time>
      </trkpt>
      <trkpt lat="49.32649" lon="-1.23377">
        <ele>1.98</ele>
        <time>2021-08-30T17:42:06.433Z</time>
      </trkpt>
      <trkpt lat="49.32649" lon="-1.23377">
        <ele>1.98</ele>
        <time>2021-08-30T17:42:20.390Z</time>
      </trkpt>
      <trkpt lat="49.32649" lon="-1.23394">
        <ele>1.98</ele>
        <time>2021-08-30T17:42:34.349Z</time>
      </trkpt>
      <trkpt lat="49.32649" lon="-1.23394">
        <ele>1.98</ele>
        <time>2021-08-30T17:42:48.308Z</time>
      </trkpt>
      <trkpt lat="49.32652" lon="-1.23411">
        <ele>1.98</ele>
        <time>2021-08-30T17:43:02.268Z</time>
      </trkpt>
      <trkpt lat="49.32652" lon="-1.23411">
        <ele>1.98</ele>
        <time>2021-08-30T17:43:16.228Z</time>
      </trkpt>
      <trkpt lat="49.32705" lon="-1.23611">
        <ele>2.29</ele>
        <time>2021-08-30T17:43:30.211Z</time>
      </trkpt>
      <trkpt lat="49.32705" lon="-1.23611">
        <ele>2.29</ele>
        <time>2021-08-30T17:43:44.194Z</time>
      </trkpt>
      <trkpt lat="49.32718" lon="-1.23638">
        <ele>2.12</ele>
        <time>2021-08-30T17:43:58.180Z</time>
      </trkpt>
      <trkpt lat="49.32718" lon="-1.23638">
        <ele>2.12</ele>
        <time>2021-08-30T17:44:12.166Z</time>
      </trkpt>
      <trkpt lat="49.32724" lon="-1.23644">
        <ele>2.12</ele>
        <time>2021-08-30T17:44:26.154Z</time>
      </trkpt>
      <trkpt lat="49.32724" lon="-1.23644">
        <ele>2.12</ele>
        <time>2021-08-30T17:44:40.142Z</time>
      </trkpt>
      <trkpt lat="49.32739" lon="-1.23648">
        <ele>2.05</ele>
        <time>2021-08-30T17:44:54.132Z</time>
      </trkpt>
      <trkpt lat="49.32739" lon="-1.23648">
        <ele>2.05</ele>
        <time>2021-08-30T17:45:08.122Z</time>
      </trkpt>
      <trkpt lat="49.32772" lon="-1.23651">
        <ele>1.81</ele>
        <time>2021-08-30T17:45:22.117Z</time>
      </trkpt>
      <trkpt lat="49.32772" lon="-1.23651">
        <ele>1.81</ele>
        <time>2021-08-30T17:45:36.112Z</time>
      </trkpt>
      <trkpt lat="49.3281" lon="-1.23662">
        <ele>1.83</ele>
        <time>2021-08-30T17:45:50.114Z</time>
      </trkpt>
      <trkpt lat="49.3281" lon="-1.23662">
        <ele>1.83</ele>
        <time>2021-08-30T17:46:04.116Z</time>
      </trkpt>
      <trkpt lat="49.3282" lon="-1.23668">
        <ele>1.83</ele>
        <time>2021-08-30T17:46:18.119Z</time>
      </trkpt>
      <trkpt lat="49.3282" lon="-1.23668">
        <ele>1.83</ele>
        <time>2021-08-30T17:46:32.122Z</time>
      </trkpt>
      <trkpt lat="49.32827" lon="-1.23677">
        <ele>1.83</ele>
        <time>2021-08-30T17:46:46.127Z</time>
      </trkpt>
      <trkpt lat="49.32827" lon="-1.23677">
        <ele>1.83</ele>
        <time>2021-08-30T17:47:00.132Z</time>
      </trkpt>
      <trkpt lat="49.32834" lon="-1.23699">
        <ele>1.78</ele>
        <time>2021-08-30T17:47:14.139Z</time>
      </trkpt>
      <trkpt lat="49.32834" lon="-1.23699">
        <ele>1.78</ele>
        <time>2021-08-30T17:47:28.146Z</time>
      </trkpt>
      <trkpt lat="49.3285" lon="-1.2377">
        <ele>1.87</ele>
        <time>2021-08-30T17:47:42.161Z</time>
      </trkpt>
      <trkpt lat="49.3285" lon="-1.2377">
        <ele>1.87</ele>
        <time>2021-08-30T17:47:56.176Z</time>
      </trkpt>
      <trkpt lat="49.32865" lon="-1.23814">
        <ele>1.74</ele>
        <time>2021-08-30T17:48:10.196Z</time>
      </trkpt>
      <trkpt lat="49.32865" lon="-1.23814">
        <ele>1.74</ele>
        <time>2021-08-30T17:48:24.216Z</time>
      </trkpt>
      <trkpt lat="49.32883" lon="-1.23855">
        <ele>1.76</ele>
        <time>2021-08-30T17:48:38.241Z</time>
      </trkpt>
      <trkpt lat="49.32883" lon="-1.23855">
        <ele>1.76</ele>
        <time>2021-08-30T17:48:52.266Z</time>
      </trkpt>
      <trkpt lat="49.32905" lon="-1.23895">
        <ele>1.64</ele>
        <time>2021-08-30T17:49:06.297Z</time>
      </trkpt>
      <trkpt lat="49.32905" lon="-1.23895">
        <ele>1.64</ele>
        <time>2021-08-30T17:49:20.328Z</time>
      </trkpt>
      <trkpt lat="49.32911" lon="-1.23909">
        <ele>1.62</ele>
        <time>2021-08-30T17:49:34.361Z</time>
      </trkpt>
      <trkpt lat="49.32911" lon="-1.23909">
        <ele>1.62</ele>
        <time>2021-08-30T17:49:48.394Z</time>
      </trkpt>
      <trkpt lat="49.3292" lon="-1.2395">
        <ele>1.29</ele>
        <time>2021-08-30T17:50:02.431Z</time>
      </trkpt>
      <trkpt lat="49.3292" lon="-1.2395">
        <ele>1.29</ele>
        <time>2021-08-30T17:50:16.468Z</time>
      </trkpt>
      <trkpt lat="49.32919" lon="-1.23963">
        <ele>1.29</ele>
        <time>2021-08-30T17:50:30.507Z</time>
      </trkpt>
      <trkpt lat="49.32919" lon="-1.23963">
        <ele>1.29</ele>
        <time>2021-08-30T17:50:44.546Z</time>
      </trkpt>
      <trkpt lat="49.3291" lon="-1.24004">
        <ele>1.24</ele>
        <time>2021-08-30T17:50:58.589Z</time>
      </trkpt>
      <trkpt lat="49.3291" lon="-1.24004">
        <ele>1.24</ele>
        <time>2021-08-30T17:51:12.632Z</time>
      </trkpt>
      <trkpt lat="49.32907" lon="-1.24028">
        <ele>1.24</ele>
        <time>2021-08-30T17:51:26.678Z</time>
      </trkpt>
      <trkpt lat="49.32907" lon="-1.24028">
        <ele>1.24</ele>
        <time>2021-08-30T17:51:40.724Z</time>
      </trkpt>
      <trkpt lat="49.32915" lon="-1.24101">
        <ele>1.36</ele>
        <time>2021-08-30T17:51:54.777Z</time>
      </trkpt>
      <trkpt lat="49.32915" lon="-1.24101">
        <ele>1.36</ele>
        <time>2021-08-30T17:52:08.830Z</time>
      </trkpt>
      <trkpt lat="49.32913" lon="-1.24133">
        <ele>1.36</ele>
        <time>2021-08-30T17:52:22.887Z</time>
      </trkpt>
      <trkpt lat="49.32913" lon="-1.24133">
        <ele>1.36</ele>
        <time>2021-08-30T17:52:36.944Z</time>
      </trkpt>
      <trkpt lat="49.32909" lon="-1.24153">
        <ele>1.5</ele>
        <time>2021-08-30T17:52:51.003Z</time>
      </trkpt>
      <trkpt lat="49.32909" lon="-1.24153">
        <ele>1.5</ele>
        <time>2021-08-30T17:53:05.062Z</time>
      </trkpt>
      <trkpt lat="49.32852" lon="-1.24343">
        <ele>1.45</ele>
        <time>2021-08-30T17:53:19.143Z</time>
      </trkpt>
      <trkpt lat="49.32852" lon="-1.24343">
        <ele>1.45</ele>
        <time>2021-08-30T17:53:33.224Z</time>
      </trkpt>
      <trkpt lat="49.32835" lon="-1.24417">
        <ele>1.7</ele>
        <time>2021-08-30T17:53:47.313Z</time>
      </trkpt>
      <trkpt lat="49.32835" lon="-1.24417">
        <ele>1.7</ele>
        <time>2021-08-30T17:54:01.402Z</time>
      </trkpt>
      <trkpt lat="49.32786" lon="-1.24592">
        <ele>1.65</ele>
        <time>2021-08-30T17:54:15.511Z</time>
      </trkpt>
      <trkpt lat="49.32786" lon="-1.24592">
        <ele>1.65</ele>
        <time>2021-08-30T17:54:29.620Z</time>
      </trkpt>
      <trkpt lat="49.32757" lon="-1.24703">
        <ele>1.25</ele>
        <time>2021-08-30T17:54:43.742Z</time>
      </trkpt>
      <trkpt lat="49.32757" lon="-1.24703">
        <ele>1.25</ele>
        <time>2021-08-30T17:54:57.864Z</time>
      </trkpt>
      <trkpt lat="49.32744" lon="-1.24739">
        <ele>1.18</ele>
        <time>2021-08-30T17:55:11.990Z</time>
      </trkpt>
      <trkpt lat="49.32744" lon="-1.24739">
        <ele>1.18</ele>
        <time>2021-08-30T17:55:26.116Z</time>
      </trkpt>
      <trkpt lat="49.32717" lon="-1.24784">
        <ele>1.19</ele>
        <time>2021-08-30T17:55:40.248Z</time>
      </trkpt>
      <trkpt lat="49.32717" lon="-1.24784">
        <ele>1.19</ele>
        <time>2021-08-30T17:55:54.380Z</time>
      </trkpt>
      <trkpt lat="49.32711" lon="-1.24814">
        <ele>1.17</ele>
        <time>2021-08-30T17:56:08.516Z</time>
      </trkpt>
      <trkpt lat="49.32711" lon="-1.24814">
        <ele>1.17</ele>
        <time>2021-08-30T17:56:22.652Z</time>
      </trkpt>
      <trkpt lat="49.32699" lon="-1.24895">
        <ele>1.29</ele>
        <time>2021-08-30T17:56:36.796Z</time>
      </trkpt>
      <trkpt lat="49.32699" lon="-1.24895">
        <ele>1.29</ele>
        <time>2021-08-30T17:56:50.940Z</time>
      </trkpt>
      <trkpt lat="49.32665" lon="-1.25065">
        <ele>1.4</ele>
        <time>2021-08-30T17:57:05.103Z</time>
      </trkpt>
      <trkpt lat="49.32665" lon="-1.25065">
        <ele>1.4</ele>
        <time>2021-08-30T17:57:19.266Z</time>
      </trkpt>
      <trkpt lat="49.32661" lon="-1.25095">
        <ele>1.62</ele>
        <time>2021-08-30T17:57:33.432Z</time>
      </trkpt>
      <trkpt lat="49.32661" lon="-1.25095">
        <ele>1.62</ele>
        <time>2021-08-30T17:57:47.598Z</time>
      </trkpt>
      <trkpt lat="49.32663" lon="-1.25126">
        <ele>1.68</ele>
        <time>2021-08-30T17:58:01.767Z</time>
      </trkpt>
      <trkpt lat="49.32663" lon="-1.25126">
        <ele>1.68</ele>
        <time>2021-08-30T17:58:15.936Z</time>
      </trkpt>
      <trkpt lat="49.32671" lon="-1.2515">
        <ele>1.6</ele>
        <time>2021-08-30T17:58:30.108Z</time>
      </trkpt>
      <trkpt lat="49.32671" lon="-1.2515">
        <ele>1.6</ele>
        <time>2021-08-30T17:58:44.280Z</time>
      </trkpt>
      <trkpt lat="49.32688" lon="-1.25176">
        <ele>1.57</ele>
        <time>2021-08-30T17:58:58.456Z</time>
      </trkpt>
      <trkpt lat="49.32688" lon="-1.25176">
        <ele>1.57</ele>
        <time>2021-08-30T17:59:12.632Z</time>
      </trkpt>
      <trkpt lat="49.32845" lon="-1.25394">
        <ele>1.87</ele>
        <time>2021-08-30T17:59:26.842Z</time>
      </trkpt>
      <trkpt lat="49.32845" lon="-1.25394">
        <ele>1.87</ele>
        <time>2021-08-30T17:59:41.052Z</time>
      </trkpt>
      <trkpt lat="49.33011" lon="-1.25614">
        <ele>1.53</ele>
        <time>2021-08-30T17:59:55.297Z</time>
      </trkpt>
      <trkpt lat="49.33011" lon="-1.25614">
        <ele>1.53</ele>
        <time>2021-08-30T18:00:09.542Z</time>
      </trkpt>
      <trkpt lat="49.33195" lon="-1.25845">
        <ele>3.17</ele>
        <time>2021-08-30T18:00:23.825Z</time>
      </trkpt>
      <trkpt lat="49.33195" lon="-1.25845">
        <ele>3.17</ele>
        <time>2021-08-30T18:00:38.108Z</time>
      </trkpt>
      <trkpt lat="49.33223" lon="-1.2587">
        <ele>3.18</ele>
        <time>2021-08-30T18:00:52.396Z</time>
      </trkpt>
      <trkpt lat="49.33223" lon="-1.2587">
        <ele>3.18</ele>
        <time>2021-08-30T18:01:06.684Z</time>
      </trkpt>
      <trkpt lat="49.33217" lon="-1.25903">
        <ele>3.26</ele>
        <time>2021-08-30T18:01:20.976Z</time>
      </trkpt>
      <trkpt lat="49.33217" lon="-1.25903">
        <ele>3.26</ele>
        <time>2021-08-30T18:01:35.268Z</time>
      </trkpt>
      <trkpt lat="49.33205" lon="-1.25947">
        <ele>4.98</ele>
        <time>2021-08-30T18:01:49.565Z</time>
      </trkpt>
      <trkpt lat="49.33205" lon="-1.25947">
        <ele>4.98</ele>
        <time>2021-08-30T18:02:03.862Z</time>
      </trkpt>
      <trkpt lat="49.33186" lon="-1.26011">
        <ele>6.21</ele>
        <time>2021-08-30T18:02:18.166Z</time>
      </trkpt>
      <trkpt lat="49.33186" lon="-1.26011">
        <ele>6.21</ele>
        <time>2021-08-30T18:02:32.470Z</time>
      </trkpt>
      <trkpt lat="49.33117" lon="-1.26175">
        <ele>7.52</ele>
        <time>2021-08-30T18:02:46.795Z</time>
      </trkpt>
      <trkpt lat="49.33117" lon="-1.26175">
        <ele>7.52</ele>
        <time>2021-08-30T18:03:01.120Z</time>
      </trkpt>
      <trkpt lat="49.33106" lon="-1.2622">
        <ele>7.75</ele>
        <time>2021-08-30T18:03:15.450Z</time>
      </trkpt>
      <trkpt lat="49.33106" lon="-1.2622">
        <ele>7.75</ele>
        <time>2021-08-30T18:03:29.780Z</time>
      </trkpt>
      <trkpt lat="49.3308" lon="-1.26282">
        <ele>7.38</ele>
        <time>2021-08-30T18:03:44.117Z</time>
      </trkpt>
      <trkpt lat="49.3308" lon="-1.26282">
        <ele>7.38</ele>
        <time>2021-08-30T18:03:58.454Z</time>
      </trkpt>
      <trkpt lat="49.32845" lon="-1.2675">
        <ele>8.72</ele>
        <time>2021-08-30T18:04:12.853Z</time>
      </trkpt>
      <trkpt lat="49.32845" lon="-1.2675">
        <ele>8.72</ele>
        <time>2021-08-30T18:04:27.252Z</time>
      </trkpt>
      <trkpt lat="49.32828" lon="-1.26793">
        <ele>10.96</ele>
        <time>2021-08-30T18:04:41.657Z</time>
      </trkpt>
      <trkpt lat="49.32828" lon="-1.26793">
        <ele>10.96</ele>
        <time>2021-08-30T18:04:56.062Z</time>
      </trkpt>
      <trkpt lat="49.32823" lon="-1.26848">
        <ele>10.39</ele>
        <time>2021-08-30T18:05:10.472Z</time>
      </trkpt>
      <trkpt lat="49.32823" lon="-1.26848">
        <ele>10.39</ele>
        <time>2021-08-30T18:05:24.882Z</time>
      </trkpt>
      <trkpt lat="49.32801" lon="-1.26851">
        <ele>8.59</ele>
        <time>2021-08-30T18:05:39.296Z</time>
      </trkpt>
      <trkpt lat="49.32801" lon="-1.26851">
        <ele>8.59</ele>
        <time>2021-08-30T18:05:53.710Z</time>
      </trkpt>
      <trkpt lat="49.32784" lon="-1.26851">
        <ele>8.59</ele>
        <time>2021-08-30T18:06:08.127Z</time>
      </trkpt>
      <trkpt lat="49.32784" lon="-1.26851">
        <ele>8.59</ele>
        <time>2021-08-30T18:06:22.544Z</time>
      </trkpt>
      <trkpt lat="49.32763" lon="-1.26844">
        <ele>6.61</ele>
        <time>2021-08-30T18:06:36.964Z</time>
      </trkpt>
      <trkpt lat="49.32763" lon="-1.26844">
        <ele>6.61</ele>
        <time>2021-08-30T18:06:51.384Z</time>
      </trkpt>
      <trkpt lat="49.32699" lon="-1.26817">
        <ele>3.6</ele>
        <time>2021-08-30T18:07:05.815Z</time>
      </trkpt>
      <trkpt lat="49.32699" lon="-1.26817">
        <ele>3.6</ele>
        <time>2021-08-30T18:07:20.246Z</time>
      </trkpt>
      <trkpt lat="49.32309" lon="-1.26637">
        <ele>2.01</ele>
        <time>2021-08-30T18:07:34.742Z</time>
      </trkpt>
      <trkpt lat="49.32309" lon="-1.26637">
        <ele>2.01</ele>
        <time>2021-08-30T18:07:49.238Z</time>
      </trkpt>
      <trkpt lat="49.32257" lon="-1.2661">
        <ele>2.35</ele>
        <time>2021-08-30T18:08:03.743Z</time>
      </trkpt>
      <trkpt lat="49.32257" lon="-1.2661">
        <ele>2.35</ele>
        <time>2021-08-30T18:08:18.248Z</time>
      </trkpt>
      <trkpt lat="49.32098" lon="-1.2649">
        <ele>3.12</ele>
        <time>2021-08-30T18:08:32.781Z</time>
      </trkpt>
      <trkpt lat="49.32098" lon="-1.2649">
        <ele>3.12</ele>
        <time>2021-08-30T18:08:47.314Z</time>
      </trkpt>
      <trkpt lat="49.32075" lon="-1.2647">
        <ele>3.11</ele>
        <time>2021-08-30T18:09:01.851Z</time>
      </trkpt>
      <trkpt lat="49.32075" lon="-1.2647">
        <ele>3.11</ele>
        <time>2021-08-30T18:09:16.388Z</time>
      </trkpt>
      <trkpt lat="49.31991" lon="-1.26404">
        <ele>3.27</ele>
        <time>2021-08-30T18:09:30.940Z</time>
      </trkpt>
      <trkpt lat="49.31991" lon="-1.26404">
        <ele>3.27</ele>
        <time>2021-08-30T18:09:45.492Z</time>
      </trkpt>
      <trkpt lat="49.31933" lon="-1.26367">
        <ele>3.28</ele>
        <time>2021-08-30T18:10:00.055Z</time>
      </trkpt>
      <trkpt lat="49.31933" lon="-1.26367">
        <ele>3.28</ele>
        <time>2021-08-30T18:10:14.618Z</time>
      </trkpt>
      <trkpt lat="49.31908" lon="-1.26347">
        <ele>3.19</ele>
        <time>2021-08-30T18:10:29.185Z</time>
      </trkpt>
      <trkpt lat="49.31908" lon="-1.26347">
        <ele>3.19</ele>
        <time>2021-08-30T18:10:43.752Z</time>
      </trkpt>
      <trkpt lat="49.31879" lon="-1.26329">
        <ele>3.1</ele>
        <time>2021-08-30T18:10:58.324Z</time>
      </trkpt>
      <trkpt lat="49.31879" lon="-1.26329">
        <ele>3.1</ele>
        <time>2021-08-30T18:11:12.896Z</time>
      </trkpt>
      <trkpt lat="49.31798" lon="-1.2626">
        <ele>2.57</ele>
        <time>2021-08-30T18:11:27.483Z</time>
      </trkpt>
      <trkpt lat="49.31798" lon="-1.2626">
        <ele>2.57</ele>
        <time>2021-08-30T18:11:42.070Z</time>
      </trkpt>
      <trkpt lat="49.3152" lon="-1.2601">
        <ele>2.64</ele>
        <time>2021-08-30T18:11:56.709Z</time>
      </trkpt>
      <trkpt lat="49.3152" lon="-1.2601">
        <ele>2.64</ele>
        <time>2021-08-30T18:12:11.348Z</time>
      </trkpt>
      <trkpt lat="49.3149" lon="-1.25978">
        <ele>2.46</ele>
        <time>2021-08-30T18:12:25.992Z</time>
      </trkpt>
      <trkpt lat="49.3149" lon="-1.25978">
        <ele>2.46</ele>
        <time>2021-08-30T18:12:40.636Z</time>
      </trkpt>
      <trkpt lat="49.31473" lon="-1.25962">
        <ele>2.43</ele>
        <time>2021-08-30T18:12:55.284Z</time>
      </trkpt>
      <trkpt lat="49.31473" lon="-1.25962">
        <ele>2.43</ele>
        <time>2021-08-30T18:13:09.932Z</time>
      </trkpt>
      <trkpt lat="49.31449" lon="-1.25949">
        <ele>2.29</ele>
        <time>2021-08-30T18:13:24.584Z</time>
      </trkpt>
      <trkpt lat="49.31449" lon="-1.25949">
        <ele>2.29</ele>
        <time>2021-08-30T18:13:39.236Z</time>
      </trkpt>
      <trkpt lat="49.31436" lon="-1.25949">
        <ele>2.12</ele>
        <time>2021-08-30T18:13:53.890Z</time>
      </trkpt>
      <trkpt lat="49.31436" lon="-1.25949">
        <ele>2.12</ele>
        <time>2021-08-30T18:14:08.544Z</time>
      </trkpt>
      <trkpt lat="49.3143" lon="-1.25959">
        <ele>2.12</ele>
        <time>2021-08-30T18:14:23.199Z</time>
      </trkpt>
      <trkpt lat="49.3143" lon="-1.25959">
        <ele>2.12</ele>
        <time>2021-08-30T18:14:37.854Z</time>
      </trkpt>
      <trkpt lat="49.31422" lon="-1.25963">
        <ele>2.18</ele>
        <time>2021-08-30T18:14:52.511Z</time>
      </trkpt>
      <trkpt lat="49.31422" lon="-1.25963">
        <ele>2.18</ele>
        <time>2021-08-30T18:15:07.168Z</time>
      </trkpt>
      <trkpt lat="49.31413" lon="-1.25963">
        <ele>2.18</ele>
        <time>2021-08-30T18:15:21.826Z</time>
      </trkpt>
      <trkpt lat="49.31413" lon="-1.25963">
        <ele>2.18</ele>
        <time>2021-08-30T18:15:36.484Z</time>
      </trkpt>
      <trkpt lat="49.31397" lon="-1.25956">
        <ele>2.29</ele>
        <time>2021-08-30T18:15:51.145Z</time>
      </trkpt>
      <trkpt lat="49.31397" lon="-1.25956">
        <ele>2.29</ele>
        <time>2021-08-30T18:16:05.806Z</time>
      </trkpt>
      <trkpt lat="49.31391" lon="-1.25946">
        <ele>2.26</ele>
        <time>2021-08-30T18:16:20.468Z</time>
      </trkpt>
      <trkpt lat="49.31391" lon="-1.25946">
        <ele>2.26</ele>
        <time>2021-08-30T18:16:35.130Z</time>
      </trkpt>
      <trkpt lat="49.31387" lon="-1.25935">
        <ele>2.26</ele>
        <time>2021-08-30T18:16:49.793Z</time>
      </trkpt>
      <trkpt lat="49.31387" lon="-1.25935">
        <ele>2.26</ele>
        <time>2021-08-30T18:17:04.456Z</time>
      </trkpt>
      <trkpt lat="49.31384" lon="-1.25913">
        <ele>2.35</ele>
        <time>2021-08-30T18:17:19.122Z</time>
      </trkpt>
      <trkpt lat="49.31384" lon="-1.25913">
        <ele>2.35</ele>
        <time>2021-08-30T18:17:33.788Z</time>
      </trkpt>
      <trkpt lat="49.31378" lon="-1.25899">
        <ele>2.35</ele>
        <time>2021-08-30T18:17:48.455Z</time>
      </trkpt>
      <trkpt lat="49.31378" lon="-1.25899">
        <ele>2.35</ele>
        <time>2021-08-30T18:18:03.122Z</time>
      </trkpt>
      <trkpt lat="49.31352" lon="-1.25861">
        <ele>2.35</ele>
        <time>2021-08-30T18:18:17.795Z</time>
      </trkpt>
      <trkpt lat="49.31352" lon="-1.25861">
        <ele>2.35</ele>
        <time>2021-08-30T18:18:32.468Z</time>
      </trkpt>
      <trkpt lat="49.31252" lon="-1.25767">
        <ele>2.52</ele>
        <time>2021-08-30T18:18:47.160Z</time>
      </trkpt>
      <trkpt lat="49.31252" lon="-1.25767">
        <ele>2.52</ele>
        <time>2021-08-30T18:19:01.852Z</time>
      </trkpt>
      <trkpt lat="49.31232" lon="-1.25759">
        <ele>2.42</ele>
        <time>2021-08-30T18:19:16.547Z</time>
      </trkpt>
      <trkpt lat="49.31232" lon="-1.25759">
        <ele>2.42</ele>
        <time>2021-08-30T18:19:31.242Z</time>
      </trkpt>
      <trkpt lat="49.31228" lon="-1.25761">
        <ele>2.42</ele>
        <time>2021-08-30T18:19:45.938Z</time>
      </trkpt>
      <trkpt lat="49.31228" lon="-1.25761">
        <ele>2.42</ele>
        <time>2021-08-30T18:20:00.634Z</time>
      </trkpt>
      <trkpt lat="49.31223" lon="-1.2576">
        <ele>2.42</ele>
        <time>2021-08-30T18:20:15.331Z</time>
      </trkpt>
      <trkpt lat="49.31223" lon="-1.2576">
        <ele>2.42</ele>
        <time>2021-08-30T18:20:30.028Z</time>
      </trkpt>
      <trkpt lat="49.31219" lon="-1.25754">
        <ele>2.36</ele>
        <time>2021-08-30T18:20:44.726Z</time>
      </trkpt>
      <trkpt lat="49.31219" lon="-1.25754">
        <ele>2.36</ele>
        <time>2021-08-30T18:20:59.424Z</time>
      </trkpt>
      <trkpt lat="49.31217" lon="-1.25746">
        <ele>2.36</ele>
        <time>2021-08-30T18:21:14.123Z</time>
      </trkpt>
      <trkpt lat="49.31217" lon="-1.25746">
        <ele>2.36</ele>
        <time>2021-08-30T18:21:28.822Z</time>
      </trkpt>
      <trkpt lat="49.31203" lon="-1.25723">
        <ele>2.35</ele>
        <time>2021-08-30T18:21:43.524Z</time>
      </trkpt>
      <trkpt lat="49.31203" lon="-1.25723">
        <ele>2.35</ele>
        <time>2021-08-30T18:21:58.226Z</time>
      </trkpt>
      <trkpt lat="49.30971" lon="-1.25516">
        <ele>2.9</ele>
        <time>2021-08-30T18:22:12.971Z</time>
      </trkpt>
      <trkpt lat="49.30971" lon="-1.25516">
        <ele>2.9</ele>
        <time>2021-08-30T18:22:27.716Z</time>
      </trkpt>
      <trkpt lat="49.30619" lon="-1.25197">
        <ele>4.47</ele>
        <time>2021-08-30T18:22:42.526Z</time>
      </trkpt>
      <trkpt lat="49.30619" lon="-1.25197">
        <ele>4.47</ele>
        <time>2021-08-30T18:22:57.336Z</time>
      </trkpt>
      <trkpt lat="49.30548" lon="-1.25135">
        <ele>5.96</ele>
        <time>2021-08-30T18:23:12.160Z</time>
      </trkpt>
      <trkpt lat="49.30548" lon="-1.25135">
        <ele>5.96</ele>
        <time>2021-08-30T18:23:26.984Z</time>
      </trkpt>
      <trkpt lat="49.30499" lon="-1.25092">
        <ele>6.92</ele>
        <time>2021-08-30T18:23:41.817Z</time>
      </trkpt>
      <trkpt lat="49.30499" lon="-1.25092">
        <ele>6.92</ele>
        <time>2021-08-30T18:23:56.650Z</time>
      </trkpt>
      <trkpt lat="49.3048" lon="-1.2507">
        <ele>7.19</ele>
        <time>2021-08-30T18:24:11.486Z</time>
      </trkpt>
      <trkpt lat="49.3048" lon="-1.2507">
        <ele>7.19</ele>
        <time>2021-08-30T18:24:26.322Z</time>
      </trkpt>
      <trkpt lat="49.30459" lon="-1.25048">
        <ele>7.49</ele>
        <time>2021-08-30T18:24:41.162Z</time>
      </trkpt>
      <trkpt lat="49.30459" lon="-1.25048">
        <ele>7.49</ele>
        <time>2021-08-30T18:24:56.002Z</time>
      </trkpt>
      <trkpt lat="49.3041" lon="-1.2497">
        <ele>7.22</ele>
        <time>2021-08-30T18:25:10.854Z</time>
      </trkpt>
      <trkpt lat="49.3041" lon="-1.2497">
        <ele>7.22</ele>
        <time>2021-08-30T18:25:25.706Z</time>
      </trkpt>
      <trkpt lat="49.30315" lon="-1.24772">
        <ele>6.43</ele>
        <time>2021-08-30T18:25:40.584Z</time>
      </trkpt>
      <trkpt lat="49.30315" lon="-1.24772">
        <ele>6.43</ele>
        <time>2021-08-30T18:25:55.462Z</time>
      </trkpt>
      <trkpt lat="49.30309" lon="-1.24774">
        <ele>6.43</ele>
        <time>2021-08-30T18:26:10.341Z</time>
      </trkpt>
      <trkpt lat="49.30309" lon="-1.24774">
        <ele>6.43</ele>
        <time>2021-08-30T18:26:25.220Z</time>
      </trkpt>
      <trkpt lat="49.30306" lon="-1.2477">
        <ele>6.43</ele>
        <time>2021-08-30T18:26:40.099Z</time>
      </trkpt>
      <trkpt lat="49.30306" lon="-1.2477">
        <ele>6.43</ele>
        <time>2021-08-30T18:26:54.978Z</time>
      </trkpt>
      <trkpt lat="49.30305" lon="-1.24766">
        <ele>6.43</ele>
        <time>2021-08-30T18:27:09.858Z</time>
      </trkpt>
      <trkpt lat="49.30305" lon="-1.24766">
        <ele>6.43</ele>
        <time>2021-08-30T18:27:24.738Z</time>
      </trkpt>
      <trkpt lat="49.30308" lon="-1.24757">
        <ele>6.43</ele>
        <time>2021-08-30T18:27:39.619Z</time>
      </trkpt>
      <trkpt lat="49.30308" lon="-1.24757">
        <ele>6.43</ele>
        <time>2021-08-30T18:27:54.500Z</time>
      </trkpt>
      <trkpt lat="49.30295" lon="-1.24716">
        <ele>6.32</ele>
        <time>2021-08-30T18:28:09.385Z</time>
      </trkpt>
      <trkpt lat="49.30295" lon="-1.24716">
        <ele>6.32</ele>
        <time>2021-08-30T18:28:24.270Z</time>
      </trkpt>
      <trkpt lat="49.30283" lon="-1.24663">
        <ele>6.26</ele>
        <time>2021-08-30T18:28:39.161Z</time>
      </trkpt>
      <trkpt lat="49.30283" lon="-1.24663">
        <ele>6.26</ele>
        <time>2021-08-30T18:28:54.052Z</time>
      </trkpt>
      <trkpt lat="49.3027" lon="-1.24565">
        <ele>6.35</ele>
        <time>2021-08-30T18:29:08.954Z</time>
      </trkpt>
      <trkpt lat="49.3027" lon="-1.24565">
        <ele>6.35</ele>
        <time>2021-08-30T18:29:23.856Z</time>
      </trkpt>
      <trkpt lat="49.30263" lon="-1.2455">
        <ele>6.29</ele>
        <time>2021-08-30T18:29:38.760Z</time>
      </trkpt>
      <trkpt lat="49.30263" lon="-1.2455">
        <ele>6.29</ele>
        <time>2021-08-30T18:29:53.664Z</time>
      </trkpt>
      <trkpt lat="49.30251" lon="-1.24461">
        <ele>5.52</ele>
        <time>2021-08-30T18:30:08.577Z</time>
      </trkpt>
      <trkpt lat="49.30251" lon="-1.24461">
        <ele>5.52</ele>
        <time>2021-08-30T18:30:23.490Z</time>
      </trkpt>
      <trkpt lat="49.3025" lon="-1.24414">
        <ele>4.58</ele>
        <time>2021-08-30T18:30:38.408Z</time>
      </trkpt>
      <trkpt lat="49.3025" lon="-1.24414">
        <ele>4.58</ele>
        <time>2021-08-30T18:30:53.326Z</time>
      </trkpt>
      <trkpt lat="49.30237" lon="-1.24282">
        <ele>3.74</ele>
        <time>2021-08-30T18:31:08.258Z</time>
      </trkpt>
      <trkpt lat="49.30237" lon="-1.24282">
        <ele>3.74</ele>
        <time>2021-08-30T18:31:23.190Z</time>
      </trkpt>
      <trkpt lat="49.30234" lon="-1.24205">
        <ele>3.35</ele>
        <time>2021-08-30T18:31:38.130Z</time>
      </trkpt>
      <trkpt lat="49.30234" lon="-1.24205">
        <ele>3.35</ele>
        <time>2021-08-30T18:31:53.070Z</time>
      </trkpt>
      <trkpt lat="49.30215" lon="-1.23969">
        <ele>2.33</ele>
        <time>2021-08-30T18:32:08.035Z</time>
      </trkpt>
      <trkpt lat="49.30215" lon="-1.23969">
        <ele>2.33</ele>
        <time>2021-08-30T18:32:23.000Z</time>
      </trkpt>
      <trkpt lat="49.30208" lon="-1.23762">
        <ele>1.83</ele>
        <time>2021-08-30T18:32:37.987Z</time>
      </trkpt>
      <trkpt lat="49.30208" lon="-1.23762">
        <ele>1.83</ele>
        <time>2021-08-30T18:32:52.974Z</time>
      </trkpt>
      <trkpt lat="49.30211" lon="-1.23626">
        <ele>2.4</ele>
        <time>2021-08-30T18:33:07.975Z</time>
      </trkpt>
      <trkpt lat="49.30211" lon="-1.23626">
        <ele>2.4</ele>
        <time>2021-08-30T18:33:22.976Z</time>
      </trkpt>
      <trkpt lat="49.30218" lon="-1.23534">
        <ele>3.45</ele>
        <time>2021-08-30T18:33:37.987Z</time>
      </trkpt>
      <trkpt lat="49.30218" lon="-1.23534">
        <ele>3.45</ele>
        <time>2021-08-30T18:33:52.998Z</time>
      </trkpt>
      <trkpt lat="49.30228" lon="-1.23464">
        <ele>3.74</ele>
        <time>2021-08-30T18:34:08.016Z</time>
      </trkpt>
      <trkpt lat="49.30228" lon="-1.23464">
        <ele>3.74</ele>
        <time>2021-08-30T18:34:23.034Z</time>
      </trkpt>
      <trkpt lat="49.30254" lon="-1.23305">
        <ele>2.95</ele>
        <time>2021-08-30T18:34:38.069Z</time>
      </trkpt>
      <trkpt lat="49.30254" lon="-1.23305">
        <ele>2.95</ele>
        <time>2021-08-30T18:34:53.104Z</time>
      </trkpt>
      <trkpt lat="49.30273" lon="-1.23173">
        <ele>2.99</ele>
        <time>2021-08-30T18:35:08.154Z</time>
      </trkpt>
      <trkpt lat="49.30273" lon="-1.23173">
        <ele>2.99</ele>
        <time>2021-08-30T18:35:23.204Z</time>
      </trkpt>
      <trkpt lat="49.30272" lon="-1.23155">
        <ele>3.1</ele>
        <time>2021-08-30T18:35:38.255Z</time>
      </trkpt>
      <trkpt lat="49.30272" lon="-1.23155">
        <ele>3.1</ele>
        <time>2021-08-30T18:35:53.306Z</time>
      </trkpt>
      <trkpt lat="49.30267" lon="-1.23146">
        <ele>3.17</ele>
        <time>2021-08-30T18:36:08.359Z</time>
      </trkpt>
      <trkpt lat="49.30267" lon="-1.23146">
        <ele>3.17</ele>
        <time>2021-08-30T18:36:23.412Z</time>
      </trkpt>
      <trkpt lat="49.30266" lon="-1.23133">
        <ele>3.29</ele>
        <time>2021-08-30T18:36:38.466Z</time>
      </trkpt>
      <trkpt lat="49.30266" lon="-1.23133">
        <ele>3.29</ele>
        <time>2021-08-30T18:36:53.520Z</time>
      </trkpt>
      <trkpt lat="49.30273" lon="-1.23117">
        <ele>3.63</ele>
        <time>2021-08-30T18:37:08.576Z</time>
      </trkpt>
      <trkpt lat="49.30273" lon="-1.23117">
        <ele>3.63</ele>
        <time>2021-08-30T18:37:23.632Z</time>
      </trkpt>
      <trkpt lat="49.30282" lon="-1.23113">
        <ele>4.03</ele>
        <time>2021-08-30T18:37:38.690Z</time>
      </trkpt>
      <trkpt lat="49.30282" lon="-1.23113">
        <ele>4.03</ele>
        <time>2021-08-30T18:37:53.748Z</time>
      </trkpt>
      <trkpt lat="49.30297" lon="-1.2305">
        <ele>5.75</ele>
        <time>2021-08-30T18:38:08.813Z</time>
      </trkpt>
      <trkpt lat="49.30297" lon="-1.2305">
        <ele>5.75</ele>
        <time>2021-08-30T18:38:23.878Z</time>
      </trkpt>
      <trkpt lat="49.30266" lon="-1.22196">
        <ele>20.19</ele>
        <time>2021-08-30T18:38:39.032Z</time>
      </trkpt>
      <trkpt lat="49.30266" lon="-1.22196">
        <ele>20.19</ele>
        <time>2021-08-30T18:38:54.186Z</time>
      </trkpt>
      <trkpt lat="49.30271" lon="-1.22144">
        <ele>20.64</ele>
        <time>2021-08-30T18:39:09.346Z</time>
      </trkpt>
      <trkpt lat="49.30271" lon="-1.22144">
        <ele>20.64</ele>
        <time>2021-08-30T18:39:24.506Z</time>
      </trkpt>
      <trkpt lat="49.30308" lon="-1.21843">
        <ele>22.5</ele>
        <time>2021-08-30T18:39:39.698Z</time>
      </trkpt>
      <trkpt lat="49.30308" lon="-1.21843">
        <ele>22.5</ele>
        <time>2021-08-30T18:39:54.890Z</time>
      </trkpt>
      <trkpt lat="49.30377" lon="-1.2131">
        <ele>25.12</ele>
        <time>2021-08-30T18:40:10.139Z</time>
      </trkpt>
      <trkpt lat="49.30377" lon="-1.2131">
        <ele>25.12</ele>
        <time>2021-08-30T18:40:25.388Z</time>
      </trkpt>
      <trkpt lat="49.30374" lon="-1.21299">
        <ele>25.24</ele>
        <time>2021-08-30T18:40:40.638Z</time>
      </trkpt>
      <trkpt lat="49.30374" lon="-1.21299">
        <ele>25.24</ele>
        <time>2021-08-30T18:40:55.888Z</time>
      </trkpt>
      <trkpt lat="49.30391" lon="-1.2118">
        <ele>25.78</ele>
        <time>2021-08-30T18:41:11.151Z</time>
      </trkpt>
      <trkpt lat="49.30391" lon="-1.2118">
        <ele>25.78</ele>
        <time>2021-08-30T18:41:26.414Z</time>
      </trkpt>
      <trkpt lat="49.30393" lon="-1.2115">
        <ele>25.78</ele>
        <time>2021-08-30T18:41:41.680Z</time>
      </trkpt>
      <trkpt lat="49.30393" lon="-1.2115">
        <ele>25.78</ele>
        <time>2021-08-30T18:41:56.946Z</time>
      </trkpt>
      <trkpt lat="49.3039" lon="-1.21121">
        <ele>26.02</ele>
        <time>2021-08-30T18:42:12.215Z</time>
      </trkpt>
      <trkpt lat="49.3039" lon="-1.21121">
        <ele>26.02</ele>
        <time>2021-08-30T18:42:27.484Z</time>
      </trkpt>
      <trkpt lat="49.30382" lon="-1.2111">
        <ele>26.02</ele>
        <time>2021-08-30T18:42:42.755Z</time>
      </trkpt>
      <trkpt lat="49.30382" lon="-1.2111">
        <ele>26.02</ele>
        <time>2021-08-30T18:42:58.026Z</time>
      </trkpt>
      <trkpt lat="49.30376" lon="-1.21099">
        <ele>26.12</ele>
        <time>2021-08-30T18:43:13.298Z</time>
      </trkpt>
      <trkpt lat="49.30376" lon="-1.21099">
        <ele>26.12</ele>
        <time>2021-08-30T18:43:28.570Z</time>
      </trkpt>
      <trkpt lat="49.30373" lon="-1.21082">
        <ele>26.19</ele>
        <time>2021-08-30T18:43:43.844Z</time>
      </trkpt>
      <trkpt lat="49.30373" lon="-1.21082">
        <ele>26.19</ele>
        <time>2021-08-30T18:43:59.118Z</time>
      </trkpt>
      <trkpt lat="49.30376" lon="-1.21052">
        <ele>26.31</ele>
        <time>2021-08-30T18:44:14.395Z</time>
      </trkpt>
      <trkpt lat="49.30376" lon="-1.21052">
        <ele>26.31</ele>
        <time>2021-08-30T18:44:29.672Z</time>
      </trkpt>
      <trkpt lat="49.30382" lon="-1.21038">
        <ele>26.31</ele>
        <time>2021-08-30T18:44:44.951Z</time>
      </trkpt>
      <trkpt lat="49.30382" lon="-1.21038">
        <ele>26.31</ele>
        <time>2021-08-30T18:45:00.230Z</time>
      </trkpt>
      <trkpt lat="49.30391" lon="-1.21027">
        <ele>26.31</ele>
        <time>2021-08-30T18:45:15.511Z</time>
      </trkpt>
      <trkpt lat="49.30391" lon="-1.21027">
        <ele>26.31</ele>
        <time>2021-08-30T18:45:30.792Z</time>
      </trkpt>
      <trkpt lat="49.30401" lon="-1.21021">
        <ele>26.41</ele>
        <time>2021-08-30T18:45:46.074Z</time>
      </trkpt>
      <trkpt lat="49.30401" lon="-1.21021">
        <ele>26.41</ele>
        <time>2021-08-30T18:46:01.356Z</time>
      </trkpt>
      <trkpt lat="49.30411" lon="-1.21021">
        <ele>26.5</ele>
        <time>2021-08-30T18:46:16.640Z</time>
      </trkpt>
      <trkpt lat="49.30411" lon="-1.21021">
        <ele>26.5</ele>
        <time>2021-08-30T18:46:31.924Z</time>
      </trkpt>
      <trkpt lat="49.30421" lon="-1.21024">
        <ele>26.5</ele>
        <time>2021-08-30T18:46:47.210Z</time>
      </trkpt>
      <trkpt lat="49.30421" lon="-1.21024">
        <ele>26.5</ele>
        <time>2021-08-30T18:47:02.496Z</time>
      </trkpt>
      <trkpt lat="49.30437" lon="-1.21045">
        <ele>26.68</ele>
        <time>2021-08-30T18:47:17.785Z</time>
      </trkpt>
      <trkpt lat="49.30437" lon="-1.21045">
        <ele>26.68</ele>
        <time>2021-08-30T18:47:33.074Z</time>
      </trkpt>
      <trkpt lat="49.30451" lon="-1.21048">
        <ele>26.73</ele>
        <time>2021-08-30T18:47:48.365Z</time>
      </trkpt>
      <trkpt lat="49.30451" lon="-1.21048">
        <ele>26.73</ele>
        <time>2021-08-30T18:48:03.656Z</time>
      </trkpt>
      <trkpt lat="49.30473" lon="-1.21046">
        <ele>26.67</ele>
        <time>2021-08-30T18:48:18.951Z</time>
      </trkpt>
      <trkpt lat="49.30473" lon="-1.21046">
        <ele>26.67</ele>
        <time>2021-08-30T18:48:34.246Z</time>
      </trkpt>
      <trkpt lat="49.30565" lon="-1.21006">
        <ele>26.19</ele>
        <time>2021-08-30T18:48:49.556Z</time>
      </trkpt>
      <trkpt lat="49.30565" lon="-1.21006">
        <ele>26.19</ele>
        <time>2021-08-30T18:49:04.866Z</time>
      </trkpt>
      <trkpt lat="49.30584" lon="-1.20991">
        <ele>25.89</ele>
        <time>2021-08-30T18:49:20.180Z</time>
      </trkpt>
      <trkpt lat="49.30584" lon="-1.20991">
        <ele>25.89</ele>
        <time>2021-08-30T18:49:35.494Z</time>
      </trkpt>
      <trkpt lat="49.30593" lon="-1.20981">
        <ele>25.89</ele>
        <time>2021-08-30T18:49:50.809Z</time>
      </trkpt>
      <trkpt lat="49.30593" lon="-1.20981">
        <ele>25.89</ele>
        <time>2021-08-30T18:50:06.124Z</time>
      </trkpt>
      <trkpt lat="49.30595" lon="-1.20968">
        <ele>25.72</ele>
        <time>2021-08-30T18:50:21.441Z</time>
      </trkpt>
      <trkpt lat="49.30595" lon="-1.20968">
        <ele>25.72</ele>
        <time>2021-08-30T18:50:36.758Z</time>
      </trkpt>
      <trkpt lat="49.30593" lon="-1.20943">
        <ele>25.59</ele>
        <time>2021-08-30T18:50:52.077Z</time>
      </trkpt>
      <trkpt lat="49.30593" lon="-1.20943">
        <ele>25.59</ele>
        <time>2021-08-30T18:51:07.396Z</time>
      </trkpt>
      <trkpt lat="49.30586" lon="-1.20918">
        <ele>25.53</ele>
        <time>2021-08-30T18:51:22.718Z</time>
      </trkpt>
      <trkpt lat="49.30586" lon="-1.20918">
        <ele>25.53</ele>
        <time>2021-08-30T18:51:38.040Z</time>
      </trkpt>
      <trkpt lat="49.30515" lon="-1.20777">
        <ele>25.08</ele>
        <time>2021-08-30T18:51:53.381Z</time>
      </trkpt>
      <trkpt lat="49.30515" lon="-1.20777">
        <ele>25.08</ele>
        <time>2021-08-30T18:52:08.722Z</time>
      </trkpt>
      <trkpt lat="49.305" lon="-1.20736">
        <ele>25.13</ele>
        <time>2021-08-30T18:52:24.068Z</time>
      </trkpt>
      <trkpt lat="49.305" lon="-1.20736">
        <ele>25.13</ele>
        <time>2021-08-30T18:52:39.414Z</time>
      </trkpt>
      <trkpt lat="49.30489" lon="-1.20693">
        <ele>25.39</ele>
        <time>2021-08-30T18:52:54.765Z</time>
      </trkpt>
      <trkpt lat="49.30489" lon="-1.20693">
        <ele>25.39</ele>
        <time>2021-08-30T18:53:10.116Z</time>
      </trkpt>
      <trkpt lat="49.30481" lon="-1.20642">
        <ele>25.64</ele>
        <time>2021-08-30T18:53:25.472Z</time>
      </trkpt>
      <trkpt lat="49.30481" lon="-1.20642">
        <ele>25.64</ele>
        <time>2021-08-30T18:53:40.828Z</time>
      </trkpt>
      <trkpt lat="49.30478" lon="-1.2056">
        <ele>26.05</ele>
        <time>2021-08-30T18:53:56.193Z</time>
      </trkpt>
      <trkpt lat="49.30478" lon="-1.2056">
        <ele>26.05</ele>
        <time>2021-08-30T18:54:11.558Z</time>
      </trkpt>
      <trkpt lat="49.30615" lon="-1.19477">
        <ele>28.34</ele>
        <time>2021-08-30T18:54:27.038Z</time>
      </trkpt>
      <trkpt lat="49.30615" lon="-1.19477">
        <ele>28.34</ele>
        <time>2021-08-30T18:54:42.518Z</time>
      </trkpt>
      <trkpt lat="49.30806" lon="-1.18007">
        <ele>27.19</ele>
        <time>2021-08-30T18:54:58.155Z</time>
      </trkpt>
      <trkpt lat="49.30806" lon="-1.18007">
        <ele>27.19</ele>
        <time>2021-08-30T18:55:13.792Z</time>
      </trkpt>
      <trkpt lat="49.30926" lon="-1.17068">
        <ele>25.26</ele>
        <time>2021-08-30T18:55:29.529Z</time>
      </trkpt>
      <trkpt lat="49.30926" lon="-1.17068">
        <ele>25.26</ele>
        <time>2021-08-30T18:55:45.266Z</time>
      </trkpt>
      <trkpt lat="49.3105" lon="-1.16098">
        <ele>25.94</ele>
        <time>2021-08-30T18:56:01.107Z</time>
      </trkpt>
      <trkpt lat="49.3105" lon="-1.16098">
        <ele>25.94</ele>
        <time>2021-08-30T18:56:16.948Z</time>
      </trkpt>
      <trkpt lat="49.31056" lon="-1.16029">
        <ele>24.95</ele>
        <time>2021-08-30T18:56:32.796Z</time>
      </trkpt>
      <trkpt lat="49.31056" lon="-1.16029">
        <ele>24.95</ele>
        <time>2021-08-30T18:56:48.644Z</time>
      </trkpt>
      <trkpt lat="49.31054" lon="-1.15968">
        <ele>22.62</ele>
        <time>2021-08-30T18:57:04.499Z</time>
      </trkpt>
      <trkpt lat="49.31054" lon="-1.15968">
        <ele>22.62</ele>
        <time>2021-08-30T18:57:20.354Z</time>
      </trkpt>
      <trkpt lat="49.30813" lon="-1.13494">
        <ele>3.79</ele>
        <time>2021-08-30T18:57:36.471Z</time>
      </trkpt>
      <trkpt lat="49.30813" lon="-1.13494">
        <ele>3.79</ele>
        <time>2021-08-30T18:57:52.588Z</time>
      </trkpt>
      <trkpt lat="49.3081" lon="-1.13432">
        <ele>3.85</ele>
        <time>2021-08-30T18:58:08.711Z</time>
      </trkpt>
      <trkpt lat="49.3081" lon="-1.13432">
        <ele>3.85</ele>
        <time>2021-08-30T18:58:24.834Z</time>
      </trkpt>
      <trkpt lat="49.30813" lon="-1.13392">
        <ele>3.76</ele>
        <time>2021-08-30T18:58:40.961Z</time>
      </trkpt>
      <trkpt lat="49.30813" lon="-1.13392">
        <ele>3.76</ele>
        <time>2021-08-30T18:58:57.088Z</time>
      </trkpt>
      <trkpt lat="49.30853" lon="-1.1308">
        <ele>3.21</ele>
        <time>2021-08-30T18:59:13.249Z</time>
      </trkpt>
      <trkpt lat="49.30853" lon="-1.1308">
        <ele>3.21</ele>
        <time>2021-08-30T18:59:29.410Z</time>
      </trkpt>
      <trkpt lat="49.30861" lon="-1.12974">
        <ele>4.73</ele>
        <time>2021-08-30T18:59:45.582Z</time>
      </trkpt>
      <trkpt lat="49.30861" lon="-1.12974">
        <ele>4.73</ele>
        <time>2021-08-30T19:00:01.754Z</time>
      </trkpt>
      <trkpt lat="49.30862" lon="-1.12822">
        <ele>10.15</ele>
        <time>2021-08-30T19:00:17.942Z</time>
      </trkpt>
      <trkpt lat="49.30862" lon="-1.12822">
        <ele>10.15</ele>
        <time>2021-08-30T19:00:34.130Z</time>
      </trkpt>
      <trkpt lat="49.30855" lon="-1.12566">
        <ele>16.21</ele>
        <time>2021-08-30T19:00:50.344Z</time>
      </trkpt>
      <trkpt lat="49.30855" lon="-1.12566">
        <ele>16.21</ele>
        <time>2021-08-30T19:01:06.558Z</time>
      </trkpt>
      <trkpt lat="49.30856" lon="-1.12507">
        <ele>16.25</ele>
        <time>2021-08-30T19:01:22.779Z</time>
      </trkpt>
      <trkpt lat="49.30856" lon="-1.12507">
        <ele>16.25</ele>
        <time>2021-08-30T19:01:39.000Z</time>
      </trkpt>
      <trkpt lat="49.30867" lon="-1.12449">
        <ele>16.46</ele>
        <time>2021-08-30T19:01:55.227Z</time>
      </trkpt>
      <trkpt lat="49.30867" lon="-1.12449">
        <ele>16.46</ele>
        <time>2021-08-30T19:02:11.454Z</time>
      </trkpt>
      <trkpt lat="49.31148" lon="-1.11365">
        <ele>8.21</ele>
        <time>2021-08-30T19:02:27.803Z</time>
      </trkpt>
      <trkpt lat="49.31148" lon="-1.11365">
        <ele>8.21</ele>
        <time>2021-08-30T19:02:44.152Z</time>
      </trkpt>
      <trkpt lat="49.31154" lon="-1.11348">
        <ele>8.05</ele>
        <time>2021-08-30T19:03:00.503Z</time>
      </trkpt>
      <trkpt lat="49.31154" lon="-1.11348">
        <ele>8.05</ele>
        <time>2021-08-30T19:03:16.854Z</time>
      </trkpt>
      <trkpt lat="49.31175" lon="-1.11303">
        <ele>7.97</ele>
        <time>2021-08-30T19:03:33.211Z</time>
      </trkpt>
      <trkpt lat="49.31175" lon="-1.11303">
        <ele>7.97</ele>
        <time>2021-08-30T19:03:49.568Z</time>
      </trkpt>
      <trkpt lat="49.31439" lon="-1.10779">
        <ele>4.79</ele>
        <time>2021-08-30T19:04:05.994Z</time>
      </trkpt>
      <trkpt lat="49.31439" lon="-1.10779">
        <ele>4.79</ele>
        <time>2021-08-30T19:04:22.420Z</time>
      </trkpt>
      <trkpt lat="49.31508" lon="-1.10648">
        <ele>4.36</ele>
        <time>2021-08-30T19:04:38.864Z</time>
      </trkpt>
      <trkpt lat="49.31508" lon="-1.10648">
        <ele>4.36</ele>
        <time>2021-08-30T19:04:55.308Z</time>
      </trkpt>
      <trkpt lat="49.31707" lon="-1.10243">
        <ele>3.77</ele>
        <time>2021-08-30T19:05:11.805Z</time>
      </trkpt>
      <trkpt lat="49.31707" lon="-1.10243">
        <ele>3.77</ele>
        <time>2021-08-30T19:05:28.302Z</time>
      </trkpt>
      <trkpt lat="49.31737" lon="-1.10208">
        <ele>3.79</ele>
        <time>2021-08-30T19:05:44.805Z</time>
      </trkpt>
      <trkpt lat="49.31737" lon="-1.10208">
        <ele>3.79</ele>
        <time>2021-08-30T19:06:01.308Z</time>
      </trkpt>
      <trkpt lat="49.31812" lon="-1.10142">
        <ele>3.27</ele>
        <time>2021-08-30T19:06:17.825Z</time>
      </trkpt>
      <trkpt lat="49.31812" lon="-1.10142">
        <ele>3.27</ele>
        <time>2021-08-30T19:06:34.342Z</time>
      </trkpt>
      <trkpt lat="49.31893" lon="-1.1006">
        <ele>2.93</ele>
        <time>2021-08-30T19:06:50.874Z</time>
      </trkpt>
      <trkpt lat="49.31893" lon="-1.1006">
        <ele>2.93</ele>
        <time>2021-08-30T19:07:07.406Z</time>
      </trkpt>
      <trkpt lat="49.31925" lon="-1.10019">
        <ele>3.08</ele>
        <time>2021-08-30T19:07:23.945Z</time>
      </trkpt>
      <trkpt lat="49.31925" lon="-1.10019">
        <ele>3.08</ele>
        <time>2021-08-30T19:07:40.484Z</time>
      </trkpt>
      <trkpt lat="49.31978" lon="-1.09946">
        <ele>2.41</ele>
        <time>2021-08-30T19:07:57.034Z</time>
      </trkpt>
      <trkpt lat="49.31978" lon="-1.09946">
        <ele>2.41</ele>
        <time>2021-08-30T19:08:13.584Z</time>
      </trkpt>
      <trkpt lat="49.32025" lon="-1.09887">
        <ele>2.06</ele>
        <time>2021-08-30T19:08:30.144Z</time>
      </trkpt>
      <trkpt lat="49.32025" lon="-1.09887">
        <ele>2.06</ele>
        <time>2021-08-30T19:08:46.704Z</time>
      </trkpt>
      <trkpt lat="49.32038" lon="-1.09863">
        <ele>2.02</ele>
        <time>2021-08-30T19:09:03.267Z</time>
      </trkpt>
      <trkpt lat="49.32038" lon="-1.09863">
        <ele>2.02</ele>
        <time>2021-08-30T19:09:19.830Z</time>
      </trkpt>
      <trkpt lat="49.32045" lon="-1.09843">
        <ele>2</ele>
        <time>2021-08-30T19:09:36.396Z</time>
      </trkpt>
      <trkpt lat="49.32045" lon="-1.09843">
        <ele>2</ele>
        <time>2021-08-30T19:09:52.962Z</time>
      </trkpt>
      <trkpt lat="49.32072" lon="-1.0966">
        <ele>2.19</ele>
        <time>2021-08-30T19:10:09.547Z</time>
      </trkpt>
      <trkpt lat="49.32072" lon="-1.0966">
        <ele>2.19</ele>
        <time>2021-08-30T19:10:26.132Z</time>
      </trkpt>
      <trkpt lat="49.32073" lon="-1.0963">
        <ele>2.22</ele>
        <time>2021-08-30T19:10:42.721Z</time>
      </trkpt>
      <trkpt lat="49.32073" lon="-1.0963">
        <ele>2.22</ele>
        <time>2021-08-30T19:10:59.310Z</time>
      </trkpt>
      <trkpt lat="49.32068" lon="-1.09596">
        <ele>2.11</ele>
        <time>2021-08-30T19:11:15.902Z</time>
      </trkpt>
      <trkpt lat="49.32068" lon="-1.09596">
        <ele>2.11</ele>
        <time>2021-08-30T19:11:32.494Z</time>
      </trkpt>
      <trkpt lat="49.32071" lon="-1.09558">
        <ele>2.11</ele>
        <time>2021-08-30T19:11:49.090Z</time>
      </trkpt>
      <trkpt lat="49.32071" lon="-1.09558">
        <ele>2.11</ele>
        <time>2021-08-30T19:12:05.686Z</time>
      </trkpt>
      <trkpt lat="49.32196" lon="-1.09303">
        <ele>2.02</ele>
        <time>2021-08-30T19:12:22.316Z</time>
      </trkpt>
      <trkpt lat="49.32196" lon="-1.09303">
        <ele>2.02</ele>
        <time>2021-08-30T19:12:38.946Z</time>
      </trkpt>
      <trkpt lat="49.32204" lon="-1.09273">
        <ele>2.02</ele>
        <time>2021-08-30T19:12:55.579Z</time>
      </trkpt>
      <trkpt lat="49.32204" lon="-1.09273">
        <ele>2.02</ele>
        <time>2021-08-30T19:13:12.212Z</time>
      </trkpt>
      <trkpt lat="49.32205" lon="-1.09263">
        <ele>2.02</ele>
        <time>2021-08-30T19:13:28.846Z</time>
      </trkpt>
      <trkpt lat="49.32205" lon="-1.09263">
        <ele>2.02</ele>
        <time>2021-08-30T19:13:45.480Z</time>
      </trkpt>
      <trkpt lat="49.32204" lon="-1.09246">
        <ele>2.18</ele>
        <time>2021-08-30T19:14:02.116Z</time>
      </trkpt>
      <trkpt lat="49.32204" lon="-1.09246">
        <ele>2.18</ele>
        <time>2021-08-30T19:14:18.752Z</time>
      </trkpt>
      <trkpt lat="49.322" lon="-1.09236">
        <ele>2.18</ele>
        <time>2021-08-30T19:14:35.389Z</time>
      </trkpt>
      <trkpt lat="49.322" lon="-1.09236">
        <ele>2.18</ele>
        <time>2021-08-30T19:14:52.026Z</time>
      </trkpt>
      <trkpt lat="49.32194" lon="-1.09233">
        <ele>2.18</ele>
        <time>2021-08-30T19:15:08.664Z</time>
      </trkpt>
      <trkpt lat="49.32194" lon="-1.09233">
        <ele>2.18</ele>
        <time>2021-08-30T19:15:25.302Z</time>
      </trkpt>
      <trkpt lat="49.32188" lon="-1.09226">
        <ele>2.18</ele>
        <time>2021-08-30T19:15:41.941Z</time>
      </trkpt>
      <trkpt lat="49.32188" lon="-1.09226">
        <ele>2.18</ele>
        <time>2021-08-30T19:15:58.580Z</time>
      </trkpt>
      <trkpt lat="49.32184" lon="-1.09216">
        <ele>2.18</ele>
        <time>2021-08-30T19:16:15.220Z</time>
      </trkpt>
      <trkpt lat="49.32184" lon="-1.09216">
        <ele>2.18</ele>
        <time>2021-08-30T19:16:31.860Z</time>
      </trkpt>
      <trkpt lat="49.32182" lon="-1.09206">
        <ele>2.18</ele>
        <time>2021-08-30T19:16:48.502Z</time>
      </trkpt>
      <trkpt lat="49.32182" lon="-1.09206">
        <ele>2.18</ele>
        <time>2021-08-30T19:17:05.144Z</time>
      </trkpt>
      <trkpt lat="49.32185" lon="-1.09182">
        <ele>2.14</ele>
        <time>2021-08-30T19:17:21.788Z</time>
      </trkpt>
      <trkpt lat="49.32185" lon="-1.09182">
        <ele>2.14</ele>
        <time>2021-08-30T19:17:38.432Z</time>
      </trkpt>
      <trkpt lat="49.3219" lon="-1.09172">
        <ele>2.14</ele>
        <time>2021-08-30T19:17:55.077Z</time>
      </trkpt>
      <trkpt lat="49.3219" lon="-1.09172">
        <ele>2.14</ele>
        <time>2021-08-30T19:18:11.722Z</time>
      </trkpt>
      <trkpt lat="49.32197" lon="-1.09165">
        <ele>2.14</ele>
        <time>2021-08-30T19:18:28.369Z</time>
      </trkpt>
      <trkpt lat="49.32197" lon="-1.09165">
        <ele>2.14</ele>
        <time>2021-08-30T19:18:45.016Z</time>
      </trkpt>
      <trkpt lat="49.32206" lon="-1.09162">
        <ele>2.02</ele>
        <time>2021-08-30T19:19:01.664Z</time>
      </trkpt>
      <trkpt lat="49.32206" lon="-1.09162">
        <ele>2.02</ele>
        <time>2021-08-30T19:19:18.312Z</time>
      </trkpt>
      <trkpt lat="49.32215" lon="-1.09161">
        <ele>2.02</ele>
        <time>2021-08-30T19:19:34.962Z</time>
      </trkpt>
      <trkpt lat="49.32215" lon="-1.09161">
        <ele>2.02</ele>
        <time>2021-08-30T19:19:51.612Z</time>
      </trkpt>
      <trkpt lat="49.32221" lon="-1.09166">
        <ele>2.02</ele>
        <time>2021-08-30T19:20:08.263Z</time>
      </trkpt>
      <trkpt lat="49.32221" lon="-1.09166">
        <ele>2.02</ele>
        <time>2021-08-30T19:20:24.914Z</time>
      </trkpt>
      <trkpt lat="49.32233" lon="-1.09168">
        <ele>2.02</ele>
        <time>2021-08-30T19:20:41.567Z</time>
      </trkpt>
      <trkpt lat="49.32233" lon="-1.09168">
        <ele>2.02</ele>
        <time>2021-08-30T19:20:58.220Z</time>
      </trkpt>
      <trkpt lat="49.32242" lon="-1.09165">
        <ele>2.02</ele>
        <time>2021-08-30T19:21:14.874Z</time>
      </trkpt>
      <trkpt lat="49.32242" lon="-1.09165">
        <ele>2.02</ele>
        <time>2021-08-30T19:21:31.528Z</time>
      </trkpt>
      <trkpt lat="49.32249" lon="-1.09155">
        <ele>2.14</ele>
        <time>2021-08-30T19:21:48.184Z</time>
      </trkpt>
      <trkpt lat="49.32249" lon="-1.09155">
        <ele>2.14</ele>
        <time>2021-08-30T19:22:04.840Z</time>
      </trkpt>
      <trkpt lat="49.32257" lon="-1.09135">
        <ele>2.14</ele>
        <time>2021-08-30T19:22:21.498Z</time>
      </trkpt>
      <trkpt lat="49.32257" lon="-1.09135">
        <ele>2.14</ele>
        <time>2021-08-30T19:22:38.156Z</time>
      </trkpt>
      <trkpt lat="49.32262" lon="-1.09131">
        <ele>2.21</ele>
        <time>2021-08-30T19:22:54.815Z</time>
      </trkpt>
      <trkpt lat="49.32262" lon="-1.09131">
        <ele>2.21</ele>
        <time>2021-08-30T19:23:11.474Z</time>
      </trkpt>
      <trkpt lat="49.32302" lon="-1.09025">
        <ele>2.35</ele>
        <time>2021-08-30T19:23:28.146Z</time>
      </trkpt>
      <trkpt lat="49.32302" lon="-1.09025">
        <ele>2.35</ele>
        <time>2021-08-30T19:23:44.818Z</time>
      </trkpt>
      <trkpt lat="49.32316" lon="-1.08989">
        <ele>2.35</ele>
        <time>2021-08-30T19:24:01.494Z</time>
      </trkpt>
      <trkpt lat="49.32316" lon="-1.08989">
        <ele>2.35</ele>
        <time>2021-08-30T19:24:18.170Z</time>
      </trkpt>
      <trkpt lat="49.32329" lon="-1.08965">
        <ele>2.32</ele>
        <time>2021-08-30T19:24:34.850Z</time>
      </trkpt>
      <trkpt lat="49.32329" lon="-1.08965">
        <ele>2.32</ele>
        <time>2021-08-30T19:24:51.530Z</time>
      </trkpt>
      <trkpt lat="49.32358" lon="-1.08931">
        <ele>2.36</ele>
        <time>2021-08-30T19:25:08.215Z</time>
      </trkpt>
      <trkpt lat="49.32358" lon="-1.08931">
        <ele>2.36</ele>
        <time>2021-08-30T19:25:24.900Z</time>
      </trkpt>
      <trkpt lat="49.32421" lon="-1.0884">
        <ele>2.21</ele>
        <time>2021-08-30T19:25:41.599Z</time>
      </trkpt>
      <trkpt lat="49.32421" lon="-1.0884">
        <ele>2.21</ele>
        <time>2021-08-30T19:25:58.298Z</time>
      </trkpt>
      <trkpt lat="49.32474" lon="-1.08755">
        <ele>2.41</ele>
        <time>2021-08-30T19:26:15.010Z</time>
      </trkpt>
      <trkpt lat="49.32474" lon="-1.08755">
        <ele>2.41</ele>
        <time>2021-08-30T19:26:31.722Z</time>
      </trkpt>
      <trkpt lat="49.32534" lon="-1.08647">
        <ele>2.48</ele>
        <time>2021-08-30T19:26:48.448Z</time>
      </trkpt>
      <trkpt lat="49.32534" lon="-1.08647">
        <ele>2.48</ele>
        <time>2021-08-30T19:27:05.174Z</time>
      </trkpt>
      <trkpt lat="49.32698" lon="-1.08317">
        <ele>6.01</ele>
        <time>2021-08-30T19:27:21.944Z</time>
      </trkpt>
      <trkpt lat="49.32698" lon="-1.08317">
        <ele>6.01</ele>
        <time>2021-08-30T19:27:38.714Z</time>
      </trkpt>
      <trkpt lat="49.3309" lon="-1.07552">
        <ele>12.44</ele>
        <time>2021-08-30T19:27:55.586Z</time>
      </trkpt>
      <trkpt lat="49.3309" lon="-1.07552">
        <ele>12.44</ele>
        <time>2021-08-30T19:28:12.458Z</time>
      </trkpt>
      <trkpt lat="49.33103" lon="-1.07518">
        <ele>12.51</ele>
        <time>2021-08-30T19:28:29.334Z</time>
      </trkpt>
      <trkpt lat="49.33103" lon="-1.07518">
        <ele>12.51</ele>
        <time>2021-08-30T19:28:46.210Z</time>
      </trkpt>
      <trkpt lat="49.3312" lon="-1.07464">
        <ele>12.71</ele>
        <time>2021-08-30T19:29:03.092Z</time>
      </trkpt>
      <trkpt lat="49.3312" lon="-1.07464">
        <ele>12.71</ele>
        <time>2021-08-30T19:29:19.974Z</time>
      </trkpt>
      <trkpt lat="49.33156" lon="-1.07379">
        <ele>12.93</ele>
        <time>2021-08-30T19:29:36.867Z</time>
      </trkpt>
      <trkpt lat="49.33156" lon="-1.07379">
        <ele>12.93</ele>
        <time>2021-08-30T19:29:53.760Z</time>
      </trkpt>
      <trkpt lat="49.33157" lon="-1.07358">
        <ele>13.17</ele>
        <time>2021-08-30T19:30:10.655Z</time>
      </trkpt>
      <trkpt lat="49.33157" lon="-1.07358">
        <ele>13.17</ele>
        <time>2021-08-30T19:30:27.550Z</time>
      </trkpt>
      <trkpt lat="49.33165" lon="-1.07345">
        <ele>13.17</ele>
        <time>2021-08-30T19:30:44.447Z</time>
      </trkpt>
      <trkpt lat="49.33165" lon="-1.07345">
        <ele>13.17</ele>
        <time>2021-08-30T19:31:01.344Z</time>
      </trkpt>
      <trkpt lat="49.33175" lon="-1.07337">
        <ele>13.18</ele>
        <time>2021-08-30T19:31:18.242Z</time>
      </trkpt>
      <trkpt lat="49.33175" lon="-1.07337">
        <ele>13.18</ele>
        <time>2021-08-30T19:31:35.140Z</time>
      </trkpt>
      <trkpt lat="49.33185" lon="-1.07339">
        <ele>13.18</ele>
        <time>2021-08-30T19:31:52.040Z</time>
      </trkpt>
      <trkpt lat="49.33185" lon="-1.07339">
        <ele>13.18</ele>
        <time>2021-08-30T19:32:08.940Z</time>
      </trkpt>
      <trkpt lat="49.33195" lon="-1.07349">
        <ele>13</ele>
        <time>2021-08-30T19:32:25.842Z</time>
      </trkpt>
      <trkpt lat="49.33195" lon="-1.07349">
        <ele>13</ele>
        <time>2021-08-30T19:32:42.744Z</time>
      </trkpt>
      <trkpt lat="49.33198" lon="-1.07356">
        <ele>13</ele>
        <time>2021-08-30T19:32:59.647Z</time>
      </trkpt>
      <trkpt lat="49.33198" lon="-1.07356">
        <ele>13</ele>
        <time>2021-08-30T19:33:16.550Z</time>
      </trkpt>
      <trkpt lat="49.332" lon="-1.07364">
        <ele>13</ele>
        <time>2021-08-30T19:33:33.454Z</time>
      </trkpt>
      <trkpt lat="49.332" lon="-1.07364">
        <ele>13</ele>
        <time>2021-08-30T19:33:50.358Z</time>
      </trkpt>
      <trkpt lat="49.33199" lon="-1.07383">
        <ele>12.96</ele>
        <time>2021-08-30T19:34:07.264Z</time>
      </trkpt>
      <trkpt lat="49.33199" lon="-1.07383">
        <ele>12.96</ele>
        <time>2021-08-30T19:34:24.170Z</time>
      </trkpt>
      <trkpt lat="49.33197" lon="-1.07391">
        <ele>12.97</ele>
        <time>2021-08-30T19:34:41.077Z</time>
      </trkpt>
      <trkpt lat="49.33197" lon="-1.07391">
        <ele>12.97</ele>
        <time>2021-08-30T19:34:57.984Z</time>
      </trkpt>
      <trkpt lat="49.33196" lon="-1.07413">
        <ele>13.07</ele>
        <time>2021-08-30T19:35:14.893Z</time>
      </trkpt>
      <trkpt lat="49.33196" lon="-1.07413">
        <ele>13.07</ele>
        <time>2021-08-30T19:35:31.802Z</time>
      </trkpt>
      <trkpt lat="49.3321" lon="-1.07488">
        <ele>14.29</ele>
        <time>2021-08-30T19:35:48.719Z</time>
      </trkpt>
      <trkpt lat="49.3321" lon="-1.07488">
        <ele>14.29</ele>
        <time>2021-08-30T19:36:05.636Z</time>
      </trkpt>
      <trkpt lat="49.33226" lon="-1.07552">
        <ele>16.34</ele>
        <time>2021-08-30T19:36:22.560Z</time>
      </trkpt>
      <trkpt lat="49.33226" lon="-1.07552">
        <ele>16.34</ele>
        <time>2021-08-30T19:36:39.484Z</time>
      </trkpt>
      <trkpt lat="49.33238" lon="-1.07586">
        <ele>18.21</ele>
        <time>2021-08-30T19:36:56.412Z</time>
      </trkpt>
      <trkpt lat="49.33238" lon="-1.07586">
        <ele>18.21</ele>
        <time>2021-08-30T19:37:13.340Z</time>
      </trkpt>
      <trkpt lat="49.33256" lon="-1.07626">
        <ele>19.32</ele>
        <time>2021-08-30T19:37:30.273Z</time>
      </trkpt>
      <trkpt lat="49.33256" lon="-1.07626">
        <ele>19.32</ele>
        <time>2021-08-30T19:37:47.206Z</time>
      </trkpt>
      <trkpt lat="49.33277" lon="-1.07657">
        <ele>21.33</ele>
        <time>2021-08-30T19:38:04.144Z</time>
      </trkpt>
      <trkpt lat="49.33277" lon="-1.07657">
        <ele>21.33</ele>
        <time>2021-08-30T19:38:21.082Z</time>
      </trkpt>
      <trkpt lat="49.33302" lon="-1.07684">
        <ele>22.77</ele>
        <time>2021-08-30T19:38:38.025Z</time>
      </trkpt>
      <trkpt lat="49.33302" lon="-1.07684">
        <ele>22.77</ele>
        <time>2021-08-30T19:38:54.968Z</time>
      </trkpt>
      <trkpt lat="49.3332" lon="-1.07697">
        <ele>23.61</ele>
        <time>2021-08-30T19:39:11.914Z</time>
      </trkpt>
      <trkpt lat="49.3332" lon="-1.07697">
        <ele>23.61</ele>
        <time>2021-08-30T19:39:28.860Z</time>
      </trkpt>
      <trkpt lat="49.33366" lon="-1.07711">
        <ele>24.96</ele>
        <time>2021-08-30T19:39:45.814Z</time>
      </trkpt>
      <trkpt lat="49.33366" lon="-1.07711">
        <ele>24.96</ele>
        <time>2021-08-30T19:40:02.768Z</time>
      </trkpt>
      <trkpt lat="49.33401" lon="-1.07708">
        <ele>25.97</ele>
        <time>2021-08-30T19:40:19.727Z</time>
      </trkpt>
      <trkpt lat="49.33401" lon="-1.07708">
        <ele>25.97</ele>
        <time>2021-08-30T19:40:36.686Z</time>
      </trkpt>
      <trkpt lat="49.33501" lon="-1.07654">
        <ele>27.06</ele>
        <time>2021-08-30T19:40:53.662Z</time>
      </trkpt>
      <trkpt lat="49.33501" lon="-1.07654">
        <ele>27.06</ele>
        <time>2021-08-30T19:41:10.638Z</time>
      </trkpt>
      <trkpt lat="49.33544" lon="-1.07636">
        <ele>27.47</ele>
        <time>2021-08-30T19:41:27.621Z</time>
      </trkpt>
      <trkpt lat="49.33544" lon="-1.07636">
        <ele>27.47</ele>
        <time>2021-08-30T19:41:44.604Z</time>
      </trkpt>
      <trkpt lat="49.33585" lon="-1.07623">
        <ele>27.76</ele>
        <time>2021-08-30T19:42:01.594Z</time>
      </trkpt>
      <trkpt lat="49.33585" lon="-1.07623">
        <ele>27.76</ele>
        <time>2021-08-30T19:42:18.584Z</time>
      </trkpt>
      <trkpt lat="49.33649" lon="-1.07613">
        <ele>27.69</ele>
        <time>2021-08-30T19:42:35.584Z</time>
      </trkpt>
      <trkpt lat="49.33649" lon="-1.07613">
        <ele>27.69</ele>
        <time>2021-08-30T19:42:52.584Z</time>
      </trkpt>
      <trkpt lat="49.33776" lon="-1.07599">
        <ele>27.71</ele>
        <time>2021-08-30T19:43:09.605Z</time>
      </trkpt>
      <trkpt lat="49.33776" lon="-1.07599">
        <ele>27.71</ele>
        <time>2021-08-30T19:43:26.626Z</time>
      </trkpt>
      <trkpt lat="49.33835" lon="-1.07596">
        <ele>27.59</ele>
        <time>2021-08-30T19:43:43.656Z</time>
      </trkpt>
      <trkpt lat="49.33835" lon="-1.07596">
        <ele>27.59</ele>
        <time>2021-08-30T19:44:00.686Z</time>
      </trkpt>
      <trkpt lat="49.33869" lon="-1.07599">
        <ele>27.25</ele>
        <time>2021-08-30T19:44:17.722Z</time>
      </trkpt>
      <trkpt lat="49.33869" lon="-1.07599">
        <ele>27.25</ele>
        <time>2021-08-30T19:44:34.758Z</time>
      </trkpt>
      <trkpt lat="49.34033" lon="-1.07633">
        <ele>27.2</ele>
        <time>2021-08-30T19:44:51.820Z</time>
      </trkpt>
      <trkpt lat="49.34033" lon="-1.07633">
        <ele>27.2</ele>
        <time>2021-08-30T19:45:08.882Z</time>
      </trkpt>
      <trkpt lat="49.34106" lon="-1.07643">
        <ele>28.59</ele>
        <time>2021-08-30T19:45:25.956Z</time>
      </trkpt>
      <trkpt lat="49.34106" lon="-1.07643">
        <ele>28.59</ele>
        <time>2021-08-30T19:45:43.030Z</time>
      </trkpt>
      <trkpt lat="49.34326" lon="-1.0763">
        <ele>30.44</ele>
        <time>2021-08-30T19:46:00.139Z</time>
      </trkpt>
      <trkpt lat="49.34326" lon="-1.0763">
        <ele>30.44</ele>
        <time>2021-08-30T19:46:17.248Z</time>
      </trkpt>
      <trkpt lat="49.34471" lon="-1.07611">
        <ele>29.41</ele>
        <time>2021-08-30T19:46:34.381Z</time>
      </trkpt>
      <trkpt lat="49.34471" lon="-1.07611">
        <ele>29.41</ele>
        <time>2021-08-30T19:46:51.514Z</time>
      </trkpt>
      <trkpt lat="49.34524" lon="-1.07613">
        <ele>28.62</ele>
        <time>2021-08-30T19:47:08.655Z</time>
      </trkpt>
      <trkpt lat="49.34524" lon="-1.07613">
        <ele>28.62</ele>
        <time>2021-08-30T19:47:25.796Z</time>
      </trkpt>
      <trkpt lat="49.34571" lon="-1.0762">
        <ele>27.88</ele>
        <time>2021-08-30T19:47:42.945Z</time>
      </trkpt>
      <trkpt lat="49.34571" lon="-1.0762">
        <ele>27.88</ele>
        <time>2021-08-30T19:48:00.094Z</time>
      </trkpt>
      <trkpt lat="49.34673" lon="-1.07644">
        <ele>27.52</ele>
        <time>2021-08-30T19:48:17.259Z</time>
      </trkpt>
      <trkpt lat="49.34673" lon="-1.07644">
        <ele>27.52</ele>
        <time>2021-08-30T19:48:34.424Z</time>
      </trkpt>
      <trkpt lat="49.34719" lon="-1.0765">
        <ele>27.11</ele>
        <time>2021-08-30T19:48:51.597Z</time>
      </trkpt>
      <trkpt lat="49.34719" lon="-1.0765">
        <ele>27.11</ele>
        <time>2021-08-30T19:49:08.770Z</time>
      </trkpt>
      <trkpt lat="49.34788" lon="-1.0765">
        <ele>26.8</ele>
        <time>2021-08-30T19:49:25.954Z</time>
      </trkpt>
      <trkpt lat="49.34788" lon="-1.0765">
        <ele>26.8</ele>
        <time>2021-08-30T19:49:43.138Z</time>
      </trkpt>
      <trkpt lat="49.34872" lon="-1.07636">
        <ele>25.96</ele>
        <time>2021-08-30T19:50:00.335Z</time>
      </trkpt>
      <trkpt lat="49.34872" lon="-1.07636">
        <ele>25.96</ele>
        <time>2021-08-30T19:50:17.532Z</time>
      </trkpt>
      <trkpt lat="49.35072" lon="-1.07565">
        <ele>23.4</ele>
        <time>2021-08-30T19:50:34.762Z</time>
      </trkpt>
      <trkpt lat="49.35072" lon="-1.07565">
        <ele>23.4</ele>
        <time>2021-08-30T19:50:51.992Z</time>
      </trkpt>
      <trkpt lat="49.35154" lon="-1.07541">
        <ele>22.42</ele>
        <time>2021-08-30T19:51:09.235Z</time>
      </trkpt>
      <trkpt lat="49.35154" lon="-1.07541">
        <ele>22.42</ele>
        <time>2021-08-30T19:51:26.478Z</time>
      </trkpt>
      <trkpt lat="49.35215" lon="-1.07532">
        <ele>20.74</ele>
        <time>2021-08-30T19:51:43.731Z</time>
      </trkpt>
      <trkpt lat="49.35215" lon="-1.07532">
        <ele>20.74</ele>
        <time>2021-08-30T19:52:00.984Z</time>
      </trkpt>
      <trkpt lat="49.35294" lon="-1.07525">
        <ele>20.61</ele>
        <time>2021-08-30T19:52:18.250Z</time>
      </trkpt>
      <trkpt lat="49.35294" lon="-1.07525">
        <ele>20.61</ele>
        <time>2021-08-30T19:52:35.516Z</time>
      </trkpt>
      <trkpt lat="49.35373" lon="-1.07511">
        <ele>23.07</ele>
        <time>2021-08-30T19:52:52.795Z</time>
      </trkpt>
      <trkpt lat="49.35373" lon="-1.07511">
        <ele>23.07</ele>
        <time>2021-08-30T19:53:10.074Z</time>
      </trkpt>
      <trkpt lat="49.3545" lon="-1.07481">
        <ele>24.19</ele>
        <time>2021-08-30T19:53:27.365Z</time>
      </trkpt>
      <trkpt lat="49.3545" lon="-1.07481">
        <ele>24.19</ele>
        <time>2021-08-30T19:53:44.656Z</time>
      </trkpt>
      <trkpt lat="49.3569" lon="-1.07366">
        <ele>23.96</ele>
        <time>2021-08-30T19:54:01.988Z</time>
      </trkpt>
      <trkpt lat="49.3569" lon="-1.07366">
        <ele>23.96</ele>
        <time>2021-08-30T19:54:19.320Z</time>
      </trkpt>
      <trkpt lat="49.35741" lon="-1.07338">
        <ele>23.65</ele>
        <time>2021-08-30T19:54:36.660Z</time>
      </trkpt>
      <trkpt lat="49.35741" lon="-1.07338">
        <ele>23.65</ele>
        <time>2021-08-30T19:54:54.000Z</time>
      </trkpt>
      <trkpt lat="49.35792" lon="-1.07301">
        <ele>23.67</ele>
        <time>2021-08-30T19:55:11.349Z</time>
      </trkpt>
      <trkpt lat="49.35792" lon="-1.07301">
        <ele>23.67</ele>
        <time>2021-08-30T19:55:28.698Z</time>
      </trkpt>
      <trkpt lat="49.35843" lon="-1.0726">
        <ele>24.16</ele>
        <time>2021-08-30T19:55:46.057Z</time>
      </trkpt>
      <trkpt lat="49.35843" lon="-1.0726">
        <ele>24.16</ele>
        <time>2021-08-30T19:56:03.416Z</time>
      </trkpt>
      <trkpt lat="49.35893" lon="-1.07209">
        <ele>24.57</ele>
        <time>2021-08-30T19:56:20.784Z</time>
      </trkpt>
      <trkpt lat="49.35893" lon="-1.07209">
        <ele>24.57</ele>
        <time>2021-08-30T19:56:38.152Z</time>
      </trkpt>
      <trkpt lat="49.35985" lon="-1.07095">
        <ele>25.22</ele>
        <time>2021-08-30T19:56:55.539Z</time>
      </trkpt>
      <trkpt lat="49.35985" lon="-1.07095">
        <ele>25.22</ele>
        <time>2021-08-30T19:57:12.926Z</time>
      </trkpt>
      <trkpt lat="49.36015" lon="-1.07054">
        <ele>25.35</ele>
        <time>2021-08-30T19:57:30.320Z</time>
      </trkpt>
      <trkpt lat="49.36015" lon="-1.07054">
        <ele>25.35</ele>
        <time>2021-08-30T19:57:47.714Z</time>
      </trkpt>
      <trkpt lat="49.36062" lon="-1.06986">
        <ele>25.78</ele>
        <time>2021-08-30T19:58:05.118Z</time>
      </trkpt>
      <trkpt lat="49.36062" lon="-1.06986">
        <ele>25.78</ele>
        <time>2021-08-30T19:58:22.522Z</time>
      </trkpt>
      <trkpt lat="49.36101" lon="-1.06942">
        <ele>25.97</ele>
        <time>2021-08-30T19:58:39.934Z</time>
      </trkpt>
      <trkpt lat="49.36101" lon="-1.06942">
        <ele>25.97</ele>
        <time>2021-08-30T19:58:57.346Z</time>
      </trkpt>
      <trkpt lat="49.36146" lon="-1.06901">
        <ele>26.16</ele>
        <time>2021-08-30T19:59:14.766Z</time>
      </trkpt>
      <trkpt lat="49.36146" lon="-1.06901">
        <ele>26.16</ele>
        <time>2021-08-30T19:59:32.186Z</time>
      </trkpt>
      <trkpt lat="49.36264" lon="-1.06799">
        <ele>26.41</ele>
        <time>2021-08-30T19:59:49.628Z</time>
      </trkpt>
      <trkpt lat="49.36264" lon="-1.06799">
        <ele>26.41</ele>
        <time>2021-08-30T20:00:07.070Z</time>
      </trkpt>
      <trkpt lat="49.3632" lon="-1.06742">
        <ele>26.43</ele>
        <time>2021-08-30T20:00:24.522Z</time>
      </trkpt>
      <trkpt lat="49.3632" lon="-1.06742">
        <ele>26.43</ele>
        <time>2021-08-30T20:00:41.974Z</time>
      </trkpt>
      <trkpt lat="49.36375" lon="-1.06677">
        <ele>26.32</ele>
        <time>2021-08-30T20:00:59.438Z</time>
      </trkpt>
      <trkpt lat="49.36375" lon="-1.06677">
        <ele>26.32</ele>
        <time>2021-08-30T20:01:16.902Z</time>
      </trkpt>
      <trkpt lat="49.36631" lon="-1.06335">
        <ele>19.29</ele>
        <time>2021-08-30T20:01:34.420Z</time>
      </trkpt>
      <trkpt lat="49.36631" lon="-1.06335">
        <ele>19.29</ele>
        <time>2021-08-30T20:01:51.938Z</time>
      </trkpt>
      <trkpt lat="49.36709" lon="-1.06213">
        <ele>15.52</ele>
        <time>2021-08-30T20:02:09.474Z</time>
      </trkpt>
      <trkpt lat="49.36709" lon="-1.06213">
        <ele>15.52</ele>
        <time>2021-08-30T20:02:27.010Z</time>
      </trkpt>
      <trkpt lat="49.36729" lon="-1.06179">
        <ele>15.31</ele>
        <time>2021-08-30T20:02:44.551Z</time>
      </trkpt>
      <trkpt lat="49.36729" lon="-1.06179">
        <ele>15.31</ele>
        <time>2021-08-30T20:03:02.092Z</time>
      </trkpt>
      <trkpt lat="49.36747" lon="-1.06159">
        <ele>15.26</ele>
        <time>2021-08-30T20:03:19.636Z</time>
      </trkpt>
      <trkpt lat="49.36747" lon="-1.06159">
        <ele>15.26</ele>
        <time>2021-08-30T20:03:37.180Z</time>
      </trkpt>
      <trkpt lat="49.36766" lon="-1.06145">
        <ele>15.26</ele>
        <time>2021-08-30T20:03:54.728Z</time>
      </trkpt>
      <trkpt lat="49.36766" lon="-1.06145">
        <ele>15.26</ele>
        <time>2021-08-30T20:04:12.276Z</time>
      </trkpt>
      <trkpt lat="49.36784" lon="-1.06138">
        <ele>15.28</ele>
        <time>2021-08-30T20:04:29.827Z</time>
      </trkpt>
      <trkpt lat="49.36784" lon="-1.06138">
        <ele>15.28</ele>
        <time>2021-08-30T20:04:47.378Z</time>
      </trkpt>
      <trkpt lat="49.36812" lon="-1.06138">
        <ele>15.28</ele>
        <time>2021-08-30T20:05:04.933Z</time>
      </trkpt>
      <trkpt lat="49.36812" lon="-1.06138">
        <ele>15.28</ele>
        <time>2021-08-30T20:05:22.488Z</time>
      </trkpt>
      <trkpt lat="49.36869" lon="-1.06152">
        <ele>15.59</ele>
        <time>2021-08-30T20:05:40.052Z</time>
      </trkpt>
      <trkpt lat="49.36869" lon="-1.06152">
        <ele>15.59</ele>
        <time>2021-08-30T20:05:57.616Z</time>
      </trkpt>
      <trkpt lat="49.369" lon="-1.06152">
        <ele>16.02</ele>
        <time>2021-08-30T20:06:15.185Z</time>
      </trkpt>
      <trkpt lat="49.369" lon="-1.06152">
        <ele>16.02</ele>
        <time>2021-08-30T20:06:32.754Z</time>
      </trkpt>
      <trkpt lat="49.36935" lon="-1.06139">
        <ele>16.88</ele>
        <time>2021-08-30T20:06:50.329Z</time>
      </trkpt>
      <trkpt lat="49.36935" lon="-1.06139">
        <ele>16.88</ele>
        <time>2021-08-30T20:07:07.904Z</time>
      </trkpt>
      <trkpt lat="49.37319" lon="-1.05898">
        <ele>18.61</ele>
        <time>2021-08-30T20:07:25.546Z</time>
      </trkpt>
      <trkpt lat="49.37319" lon="-1.05898">
        <ele>18.61</ele>
        <time>2021-08-30T20:07:43.188Z</time>
      </trkpt>
      <trkpt lat="49.37512" lon="-1.05786">
        <ele>21.35</ele>
        <time>2021-08-30T20:08:00.863Z</time>
      </trkpt>
      <trkpt lat="49.37512" lon="-1.05786">
        <ele>21.35</ele>
        <time>2021-08-30T20:08:18.538Z</time>
      </trkpt>
      <trkpt lat="49.37596" lon="-1.05728">
        <ele>23.3</ele>
        <time>2021-08-30T20:08:36.227Z</time>
      </trkpt>
      <trkpt lat="49.37596" lon="-1.05728">
        <ele>23.3</ele>
        <time>2021-08-30T20:08:53.916Z</time>
      </trkpt>
      <trkpt lat="49.37682" lon="-1.05677">
        <ele>24.8</ele>
        <time>2021-08-30T20:09:11.620Z</time>
      </trkpt>
      <trkpt lat="49.37682" lon="-1.05677">
        <ele>24.8</ele>
        <time>2021-08-30T20:09:29.324Z</time>
      </trkpt>
      <trkpt lat="49.37706" lon="-1.05665">
        <ele>24.87</ele>
        <time>2021-08-30T20:09:47.032Z</time>
      </trkpt>
      <trkpt lat="49.37706" lon="-1.05665">
        <ele>24.87</ele>
        <time>2021-08-30T20:10:04.740Z</time>
      </trkpt>
      <trkpt lat="49.37757" lon="-1.0565">
        <ele>24.56</ele>
        <time>2021-08-30T20:10:22.456Z</time>
      </trkpt>
      <trkpt lat="49.37757" lon="-1.0565">
        <ele>24.56</ele>
        <time>2021-08-30T20:10:40.172Z</time>
      </trkpt>
      <trkpt lat="49.37786" lon="-1.05646">
        <ele>23.7</ele>
        <time>2021-08-30T20:10:57.893Z</time>
      </trkpt>
      <trkpt lat="49.37786" lon="-1.05646">
        <ele>23.7</ele>
        <time>2021-08-30T20:11:15.614Z</time>
      </trkpt>
      <trkpt lat="49.37806" lon="-1.05647">
        <ele>23.19</ele>
        <time>2021-08-30T20:11:33.338Z</time>
      </trkpt>
      <trkpt lat="49.37806" lon="-1.05647">
        <ele>23.19</ele>
        <time>2021-08-30T20:11:51.062Z</time>
      </trkpt>
      <trkpt lat="49.38011" lon="-1.05677">
        <ele>20.43</ele>
        <time>2021-08-30T20:12:08.819Z</time>
      </trkpt>
      <trkpt lat="49.38011" lon="-1.05677">
        <ele>20.43</ele>
        <time>2021-08-30T20:12:26.576Z</time>
      </trkpt>
      <trkpt lat="49.38064" lon="-1.05661">
        <ele>20.6</ele>
        <time>2021-08-30T20:12:44.342Z</time>
      </trkpt>
      <trkpt lat="49.38064" lon="-1.05661">
        <ele>20.6</ele>
        <time>2021-08-30T20:13:02.108Z</time>
      </trkpt>
      <trkpt lat="49.38121" lon="-1.05631">
        <ele>20.5</ele>
        <time>2021-08-30T20:13:19.884Z</time>
      </trkpt>
      <trkpt lat="49.38121" lon="-1.05631">
        <ele>20.5</ele>
        <time>2021-08-30T20:13:37.660Z</time>
      </trkpt>
      <trkpt lat="49.38146" lon="-1.05616">
        <ele>20.39</ele>
        <time>2021-08-30T20:13:55.440Z</time>
      </trkpt>
      <trkpt lat="49.38146" lon="-1.05616">
        <ele>20.39</ele>
        <time>2021-08-30T20:14:13.220Z</time>
      </trkpt>
      <trkpt lat="49.38174" lon="-1.0559">
        <ele>19.77</ele>
        <time>2021-08-30T20:14:31.005Z</time>
      </trkpt>
      <trkpt lat="49.38174" lon="-1.0559">
        <ele>19.77</ele>
        <time>2021-08-30T20:14:48.790Z</time>
      </trkpt>
      <trkpt lat="49.38204" lon="-1.05559">
        <ele>19.63</ele>
        <time>2021-08-30T20:15:06.581Z</time>
      </trkpt>
      <trkpt lat="49.38204" lon="-1.05559">
        <ele>19.63</ele>
        <time>2021-08-30T20:15:24.372Z</time>
      </trkpt>
      <trkpt lat="49.38539" lon="-1.05127">
        <ele>10.87</ele>
        <time>2021-08-30T20:15:42.233Z</time>
      </trkpt>
      <trkpt lat="49.38539" lon="-1.05127">
        <ele>10.87</ele>
        <time>2021-08-30T20:16:00.094Z</time>
      </trkpt>
      <trkpt lat="49.38552" lon="-1.05095">
        <ele>10.67</ele>
        <time>2021-08-30T20:16:17.959Z</time>
      </trkpt>
      <trkpt lat="49.38552" lon="-1.05095">
        <ele>10.67</ele>
        <time>2021-08-30T20:16:35.824Z</time>
      </trkpt>
      <trkpt lat="49.3857" lon="-1.05058">
        <ele>10.65</ele>
        <time>2021-08-30T20:16:53.694Z</time>
      </trkpt>
      <trkpt lat="49.3857" lon="-1.05058">
        <ele>10.65</ele>
        <time>2021-08-30T20:17:11.564Z</time>
      </trkpt>
      <trkpt lat="49.38578" lon="-1.0503">
        <ele>9.58</ele>
        <time>2021-08-30T20:17:29.437Z</time>
      </trkpt>
      <trkpt lat="49.38578" lon="-1.0503">
        <ele>9.58</ele>
        <time>2021-08-30T20:17:47.310Z</time>
      </trkpt>
      <trkpt lat="49.38577" lon="-1.0501">
        <ele>9.46</ele>
        <time>2021-08-30T20:18:05.185Z</time>
      </trkpt>
      <trkpt lat="49.38577" lon="-1.0501">
        <ele>9.46</ele>
        <time>2021-08-30T20:18:23.060Z</time>
      </trkpt>
      <trkpt lat="49.3858" lon="-1.05001">
        <ele>9.21</ele>
        <time>2021-08-30T20:18:40.936Z</time>
      </trkpt>
      <trkpt lat="49.3858" lon="-1.05001">
        <ele>9.21</ele>
        <time>2021-08-30T20:18:58.812Z</time>
      </trkpt>
      <trkpt lat="49.38589" lon="-1.04991">
        <ele>8.84</ele>
        <time>2021-08-30T20:19:16.690Z</time>
      </trkpt>
      <trkpt lat="49.38589" lon="-1.04991">
        <ele>8.84</ele>
        <time>2021-08-30T20:19:34.568Z</time>
      </trkpt>
      <trkpt lat="49.38595" lon="-1.0499">
        <ele>8.84</ele>
        <time>2021-08-30T20:19:52.447Z</time>
      </trkpt>
      <trkpt lat="49.38595" lon="-1.0499">
        <ele>8.84</ele>
        <time>2021-08-30T20:20:10.326Z</time>
      </trkpt>
      <trkpt lat="49.38604" lon="-1.04994">
        <ele>8.69</ele>
        <time>2021-08-30T20:20:28.206Z</time>
      </trkpt>
      <trkpt lat="49.38604" lon="-1.04994">
        <ele>8.69</ele>
        <time>2021-08-30T20:20:46.086Z</time>
      </trkpt>
      <trkpt lat="49.3861" lon="-1.05004">
        <ele>8.28</ele>
        <time>2021-08-30T20:21:03.968Z</time>
      </trkpt>
      <trkpt lat="49.3861" lon="-1.05004">
        <ele>8.28</ele>
        <time>2021-08-30T20:21:21.850Z</time>
      </trkpt>
      <trkpt lat="49.38618" lon="-1.05006">
        <ele>8.28</ele>
        <time>2021-08-30T20:21:39.733Z</time>
      </trkpt>
      <trkpt lat="49.38618" lon="-1.05006">
        <ele>8.28</ele>
        <time>2021-08-30T20:21:57.616Z</time>
      </trkpt>
      <trkpt lat="49.38637" lon="-1.05002">
        <ele>7.14</ele>
        <time>2021-08-30T20:22:15.502Z</time>
      </trkpt>
      <trkpt lat="49.38637" lon="-1.05002">
        <ele>7.14</ele>
        <time>2021-08-30T20:22:33.388Z</time>
      </trkpt>
      <trkpt lat="49.38644" lon="-1.04997">
        <ele>7.14</ele>
        <time>2021-08-30T20:22:51.275Z</time>
      </trkpt>
      <trkpt lat="49.38644" lon="-1.04997">
        <ele>7.14</ele>
        <time>2021-08-30T20:23:09.162Z</time>
      </trkpt>
      <trkpt lat="49.38726" lon="-1.04892">
        <ele>4.68</ele>
        <time>2021-08-30T20:23:27.067Z</time>
      </trkpt>
      <trkpt lat="49.38726" lon="-1.04892">
        <ele>4.68</ele>
        <time>2021-08-30T20:23:44.972Z</time>
      </trkpt>
      <trkpt lat="49.38744" lon="-1.04866">
        <ele>4.5</ele>
        <time>2021-08-30T20:24:02.881Z</time>
      </trkpt>
      <trkpt lat="49.38744" lon="-1.04866">
        <ele>4.5</ele>
        <time>2021-08-30T20:24:20.790Z</time>
      </trkpt>
      <trkpt lat="49.38744" lon="-1.04865">
        <ele>4.5</ele>
        <time>2021-08-30T20:24:38.699Z</time>
      </trkpt>
      <trkpt lat="49.38744" lon="-1.04865">
        <ele>4.5</ele>
        <time>2021-08-30T20:24:56.608Z</time>
      </trkpt>
      <trkpt lat="49.3875" lon="-1.04854">
        <ele>4.63</ele>
        <time>2021-08-30T20:25:14.518Z</time>
      </trkpt>
      <trkpt lat="49.3875" lon="-1.04854">
        <ele>4.63</ele>
        <time>2021-08-30T20:25:32.428Z</time>
      </trkpt>
      <trkpt lat="49.38757" lon="-1.04833">
        <ele>4.77</ele>
        <time>2021-08-30T20:25:50.341Z</time>
      </trkpt>
      <trkpt lat="49.38757" lon="-1.04833">
        <ele>4.77</ele>
        <time>2021-08-30T20:26:08.254Z</time>
      </trkpt>
      <trkpt lat="49.3876" lon="-1.04803">
        <ele>5.32</ele>
        <time>2021-08-30T20:26:26.170Z</time>
      </trkpt>
      <trkpt lat="49.3876" lon="-1.04803">
        <ele>5.32</ele>
        <time>2021-08-30T20:26:44.086Z</time>
      </trkpt>
      <trkpt lat="49.38633" lon="-1.04792">
        <ele>9.75</ele>
        <time>2021-08-30T20:27:02.022Z</time>
      </trkpt>
      <trkpt lat="49.38633" lon="-1.04792">
        <ele>9.75</ele>
        <time>2021-08-30T20:27:19.958Z</time>
      </trkpt>
      <trkpt lat="49.38699" lon="-1.04141">
        <ele>12.93</ele>
        <time>2021-08-30T20:27:37.963Z</time>
      </trkpt>
      <trkpt lat="49.38699" lon="-1.04141">
        <ele>12.93</ele>
        <time>2021-08-30T20:27:55.968Z</time>
      </trkpt>
      <trkpt lat="49.38703" lon="-1.04084">
        <ele>12.87</ele>
        <time>2021-08-30T20:28:13.979Z</time>
      </trkpt>
      <trkpt lat="49.38703" lon="-1.04084">
        <ele>12.87</ele>
        <time>2021-08-30T20:28:31.990Z</time>
      </trkpt>
      <trkpt lat="49.38704" lon="-1.04032">
        <ele>13.32</ele>
        <time>2021-08-30T20:28:50.006Z</time>
      </trkpt>
      <trkpt lat="49.38704" lon="-1.04032">
        <ele>13.32</ele>
        <time>2021-08-30T20:29:08.022Z</time>
      </trkpt>
      <trkpt lat="49.38702" lon="-1.04">
        <ele>13.75</ele>
        <time>2021-08-30T20:29:26.042Z</time>
      </trkpt>
      <trkpt lat="49.38702" lon="-1.04">
        <ele>13.75</ele>
        <time>2021-08-30T20:29:44.062Z</time>
      </trkpt>
      <trkpt lat="49.38699" lon="-1.03972">
        <ele>15.36</ele>
        <time>2021-08-30T20:30:02.085Z</time>
      </trkpt>
      <trkpt lat="49.38699" lon="-1.03972">
        <ele>15.36</ele>
        <time>2021-08-30T20:30:20.108Z</time>
      </trkpt>
      <trkpt lat="49.38681" lon="-1.03881">
        <ele>17.01</ele>
        <time>2021-08-30T20:30:38.141Z</time>
      </trkpt>
      <trkpt lat="49.38681" lon="-1.03881">
        <ele>17.01</ele>
        <time>2021-08-30T20:30:56.174Z</time>
      </trkpt>
      <trkpt lat="49.38674" lon="-1.03837">
        <ele>18.18</ele>
        <time>2021-08-30T20:31:14.211Z</time>
      </trkpt>
      <trkpt lat="49.38674" lon="-1.03837">
        <ele>18.18</ele>
        <time>2021-08-30T20:31:32.248Z</time>
      </trkpt>
      <trkpt lat="49.38669" lon="-1.03749">
        <ele>18.78</ele>
        <time>2021-08-30T20:31:50.295Z</time>
      </trkpt>
      <trkpt lat="49.38669" lon="-1.03749">
        <ele>18.78</ele>
        <time>2021-08-30T20:32:08.342Z</time>
      </trkpt>
      <trkpt lat="49.38717" lon="-1.03302">
        <ele>19.22</ele>
        <time>2021-08-30T20:32:26.436Z</time>
      </trkpt>
      <trkpt lat="49.38717" lon="-1.03302">
        <ele>19.22</ele>
        <time>2021-08-30T20:32:44.530Z</time>
      </trkpt>
      <trkpt lat="49.3874" lon="-1.03206">
        <ele>18.58</ele>
        <time>2021-08-30T20:33:02.635Z</time>
      </trkpt>
      <trkpt lat="49.3874" lon="-1.03206">
        <ele>18.58</ele>
        <time>2021-08-30T20:33:20.740Z</time>
      </trkpt>
      <trkpt lat="49.38785" lon="-1.03079">
        <ele>17.29</ele>
        <time>2021-08-30T20:33:38.860Z</time>
      </trkpt>
      <trkpt lat="49.38785" lon="-1.03079">
        <ele>17.29</ele>
        <time>2021-08-30T20:33:56.980Z</time>
      </trkpt>
      <trkpt lat="49.388" lon="-1.03023">
        <ele>16.71</ele>
        <time>2021-08-30T20:34:15.106Z</time>
      </trkpt>
      <trkpt lat="49.388" lon="-1.03023">
        <ele>16.71</ele>
        <time>2021-08-30T20:34:33.232Z</time>
      </trkpt>
      <trkpt lat="49.38817" lon="-1.02922">
        <ele>16.03</ele>
        <time>2021-08-30T20:34:51.369Z</time>
      </trkpt>
      <trkpt lat="49.38817" lon="-1.02922">
        <ele>16.03</ele>
        <time>2021-08-30T20:35:09.506Z</time>
      </trkpt>
      <trkpt lat="49.38876" lon="-1.0259">
        <ele>11.7</ele>
        <time>2021-08-30T20:35:27.679Z</time>
      </trkpt>
      <trkpt lat="49.38876" lon="-1.0259">
        <ele>11.7</ele>
        <time>2021-08-30T20:35:45.852Z</time>
      </trkpt>
      <trkpt lat="49.38895" lon="-1.02459">
        <ele>9.23</ele>
        <time>2021-08-30T20:36:04.039Z</time>
      </trkpt>
      <trkpt lat="49.38895" lon="-1.02459">
        <ele>9.23</ele>
        <time>2021-08-30T20:36:22.226Z</time>
      </trkpt>
      <trkpt lat="49.38924" lon="-1.02151">
        <ele>2.45</ele>
        <time>2021-08-30T20:36:40.446Z</time>
      </trkpt>
      <trkpt lat="49.38924" lon="-1.02151">
        <ele>2.45</ele>
        <time>2021-08-30T20:36:58.666Z</time>
      </trkpt>
      <trkpt lat="49.38945" lon="-1.01997">
        <ele>3.96</ele>
        <time>2021-08-30T20:37:16.902Z</time>
      </trkpt>
      <trkpt lat="49.38945" lon="-1.01997">
        <ele>3.96</ele>
        <time>2021-08-30T20:37:35.138Z</time>
      </trkpt>
      <trkpt lat="49.38966" lon="-1.01889">
        <ele>6.06</ele>
        <time>2021-08-30T20:37:53.386Z</time>
      </trkpt>
      <trkpt lat="49.38966" lon="-1.01889">
        <ele>6.06</ele>
        <time>2021-08-30T20:38:11.634Z</time>
      </trkpt>
      <trkpt lat="49.39112" lon="-1.01369">
        <ele>13.75</ele>
        <time>2021-08-30T20:38:29.941Z</time>
      </trkpt>
      <trkpt lat="49.39112" lon="-1.01369">
        <ele>13.75</ele>
        <time>2021-08-30T20:38:48.248Z</time>
      </trkpt>
      <trkpt lat="49.39215" lon="-1.00982">
        <ele>19.7</ele>
        <time>2021-08-30T20:39:06.599Z</time>
      </trkpt>
      <trkpt lat="49.39215" lon="-1.00982">
        <ele>19.7</ele>
        <time>2021-08-30T20:39:24.950Z</time>
      </trkpt>
      <trkpt lat="49.3926" lon="-1.0081">
        <ele>21.73</ele>
        <time>2021-08-30T20:39:43.320Z</time>
      </trkpt>
      <trkpt lat="49.3926" lon="-1.0081">
        <ele>21.73</ele>
        <time>2021-08-30T20:40:01.690Z</time>
      </trkpt>
      <trkpt lat="49.39267" lon="-1.00777">
        <ele>21.89</ele>
        <time>2021-08-30T20:40:20.064Z</time>
      </trkpt>
      <trkpt lat="49.39267" lon="-1.00777">
        <ele>21.89</ele>
        <time>2021-08-30T20:40:38.438Z</time>
      </trkpt>
      <trkpt lat="49.3927" lon="-1.00745">
        <ele>21.93</ele>
        <time>2021-08-30T20:40:56.815Z</time>
      </trkpt>
      <trkpt lat="49.3927" lon="-1.00745">
        <ele>21.93</ele>
        <time>2021-08-30T20:41:15.192Z</time>
      </trkpt>
      <trkpt lat="49.39269" lon="-1.00719">
        <ele>21.82</ele>
        <time>2021-08-30T20:41:33.572Z</time>
      </trkpt>
      <trkpt lat="49.39269" lon="-1.00719">
        <ele>21.82</ele>
        <time>2021-08-30T20:41:51.952Z</time>
      </trkpt>
      <trkpt lat="49.39264" lon="-1.00681">
        <ele>21.82</ele>
        <time>2021-08-30T20:42:10.336Z</time>
      </trkpt>
      <trkpt lat="49.39264" lon="-1.00681">
        <ele>21.82</ele>
        <time>2021-08-30T20:42:28.720Z</time>
      </trkpt>
      <trkpt lat="49.39256" lon="-1.00641">
        <ele>20.97</ele>
        <time>2021-08-30T20:42:47.108Z</time>
      </trkpt>
      <trkpt lat="49.39256" lon="-1.00641">
        <ele>20.97</ele>
        <time>2021-08-30T20:43:05.496Z</time>
      </trkpt>
      <trkpt lat="49.39238" lon="-1.00576">
        <ele>20.39</ele>
        <time>2021-08-30T20:43:23.892Z</time>
      </trkpt>
      <trkpt lat="49.39238" lon="-1.00576">
        <ele>20.39</ele>
        <time>2021-08-30T20:43:42.288Z</time>
      </trkpt>
      <trkpt lat="49.3917" lon="-1.0036">
        <ele>18.88</ele>
        <time>2021-08-30T20:44:00.709Z</time>
      </trkpt>
      <trkpt lat="49.3917" lon="-1.0036">
        <ele>18.88</ele>
        <time>2021-08-30T20:44:19.130Z</time>
      </trkpt>
      <trkpt lat="49.39156" lon="-1.00305">
        <ele>18.35</ele>
        <time>2021-08-30T20:44:37.557Z</time>
      </trkpt>
      <trkpt lat="49.39156" lon="-1.00305">
        <ele>18.35</ele>
        <time>2021-08-30T20:44:55.984Z</time>
      </trkpt>
      <trkpt lat="49.39129" lon="-1.00129">
        <ele>18.98</ele>
        <time>2021-08-30T20:45:14.430Z</time>
      </trkpt>
      <trkpt lat="49.39129" lon="-1.00129">
        <ele>18.98</ele>
        <time>2021-08-30T20:45:32.876Z</time>
      </trkpt>
      <trkpt lat="49.39123" lon="-1.00102">
        <ele>19.21</ele>
        <time>2021-08-30T20:45:51.325Z</time>
      </trkpt>
      <trkpt lat="49.39123" lon="-1.00102">
        <ele>19.21</ele>
        <time>2021-08-30T20:46:09.774Z</time>
      </trkpt>
      <trkpt lat="49.39112" lon="-1.00065">
        <ele>20.19</ele>
        <time>2021-08-30T20:46:28.227Z</time>
      </trkpt>
      <trkpt lat="49.39112" lon="-1.00065">
        <ele>20.19</ele>
        <time>2021-08-30T20:46:46.680Z</time>
      </trkpt>
      <trkpt lat="49.39084" lon="-0.99996">
        <ele>21.56</ele>
        <time>2021-08-30T20:47:05.142Z</time>
      </trkpt>
      <trkpt lat="49.39084" lon="-0.99996">
        <ele>21.56</ele>
        <time>2021-08-30T20:47:23.604Z</time>
      </trkpt>
      <trkpt lat="49.39028" lon="-0.99821">
        <ele>26.24</ele>
        <time>2021-08-30T20:47:42.086Z</time>
      </trkpt>
      <trkpt lat="49.39028" lon="-0.99821">
        <ele>26.24</ele>
        <time>2021-08-30T20:48:00.568Z</time>
      </trkpt>
      <trkpt lat="49.39012" lon="-0.99753">
        <ele>27.16</ele>
        <time>2021-08-30T20:48:19.057Z</time>
      </trkpt>
      <trkpt lat="49.39012" lon="-0.99753">
        <ele>27.16</ele>
        <time>2021-08-30T20:48:37.546Z</time>
      </trkpt>
      <trkpt lat="49.39002" lon="-0.99631">
        <ele>29.07</ele>
        <time>2021-08-30T20:48:56.048Z</time>
      </trkpt>
      <trkpt lat="49.39002" lon="-0.99631">
        <ele>29.07</ele>
        <time>2021-08-30T20:49:14.550Z</time>
      </trkpt>
      <trkpt lat="49.38998" lon="-0.99599">
        <ele>29.97</ele>
        <time>2021-08-30T20:49:33.056Z</time>
      </trkpt>
      <trkpt lat="49.38998" lon="-0.99599">
        <ele>29.97</ele>
        <time>2021-08-30T20:49:51.562Z</time>
      </trkpt>
      <trkpt lat="49.38983" lon="-0.99545">
        <ele>30.15</ele>
        <time>2021-08-30T20:50:10.074Z</time>
      </trkpt>
      <trkpt lat="49.38983" lon="-0.99545">
        <ele>30.15</ele>
        <time>2021-08-30T20:50:28.586Z</time>
      </trkpt>
      <trkpt lat="49.38951" lon="-0.99452">
        <ele>31.92</ele>
        <time>2021-08-30T20:50:47.109Z</time>
      </trkpt>
      <trkpt lat="49.38951" lon="-0.99452">
        <ele>31.92</ele>
        <time>2021-08-30T20:51:05.632Z</time>
      </trkpt>
      <trkpt lat="49.38933" lon="-0.99389">
        <ele>32.38</ele>
        <time>2021-08-30T20:51:24.162Z</time>
      </trkpt>
      <trkpt lat="49.38933" lon="-0.99389">
        <ele>32.38</ele>
        <time>2021-08-30T20:51:42.692Z</time>
      </trkpt>
      <trkpt lat="49.38922" lon="-0.9933">
        <ele>32.64</ele>
        <time>2021-08-30T20:52:01.228Z</time>
      </trkpt>
      <trkpt lat="49.38922" lon="-0.9933">
        <ele>32.64</ele>
        <time>2021-08-30T20:52:19.764Z</time>
      </trkpt>
      <trkpt lat="49.38908" lon="-0.99195">
        <ele>33.26</ele>
        <time>2021-08-30T20:52:38.315Z</time>
      </trkpt>
      <trkpt lat="49.38908" lon="-0.99195">
        <ele>33.26</ele>
        <time>2021-08-30T20:52:56.866Z</time>
      </trkpt>
      <trkpt lat="49.38899" lon="-0.99157">
        <ele>33.29</ele>
        <time>2021-08-30T20:53:15.421Z</time>
      </trkpt>
      <trkpt lat="49.38899" lon="-0.99157">
        <ele>33.29</ele>
        <time>2021-08-30T20:53:33.976Z</time>
      </trkpt>
      <trkpt lat="49.38886" lon="-0.99135">
        <ele>33.3</ele>
        <time>2021-08-30T20:53:52.534Z</time>
      </trkpt>
      <trkpt lat="49.38886" lon="-0.99135">
        <ele>33.3</ele>
        <time>2021-08-30T20:54:11.092Z</time>
      </trkpt>
      <trkpt lat="49.38885" lon="-0.99121">
        <ele>33.35</ele>
        <time>2021-08-30T20:54:29.652Z</time>
      </trkpt>
      <trkpt lat="49.38885" lon="-0.99121">
        <ele>33.35</ele>
        <time>2021-08-30T20:54:48.212Z</time>
      </trkpt>
      <trkpt lat="49.38891" lon="-0.99106">
        <ele>33.35</ele>
        <time>2021-08-30T20:55:06.773Z</time>
      </trkpt>
      <trkpt lat="49.38891" lon="-0.99106">
        <ele>33.35</ele>
        <time>2021-08-30T20:55:25.334Z</time>
      </trkpt>
      <trkpt lat="49.38892" lon="-0.99069">
        <ele>33.47</ele>
        <time>2021-08-30T20:55:43.899Z</time>
      </trkpt>
      <trkpt lat="49.38892" lon="-0.99069">
        <ele>33.47</ele>
        <time>2021-08-30T20:56:02.464Z</time>
      </trkpt>
      <trkpt lat="49.38879" lon="-0.98872">
        <ele>34.58</ele>
        <time>2021-08-30T20:56:21.050Z</time>
      </trkpt>
      <trkpt lat="49.38879" lon="-0.98872">
        <ele>34.58</ele>
        <time>2021-08-30T20:56:39.636Z</time>
      </trkpt>
      <trkpt lat="49.38874" lon="-0.98828">
        <ele>35.21</ele>
        <time>2021-08-30T20:56:58.227Z</time>
      </trkpt>
      <trkpt lat="49.38874" lon="-0.98828">
        <ele>35.21</ele>
        <time>2021-08-30T20:57:16.818Z</time>
      </trkpt>
      <trkpt lat="49.38819" lon="-0.98544">
        <ele>36.26</ele>
        <time>2021-08-30T20:57:35.440Z</time>
      </trkpt>
      <trkpt lat="49.38819" lon="-0.98544">
        <ele>36.26</ele>
        <time>2021-08-30T20:57:54.062Z</time>
      </trkpt>
      <trkpt lat="49.38787" lon="-0.98399">
        <ele>36.26</ele>
        <time>2021-08-30T20:58:12.700Z</time>
      </trkpt>
      <trkpt lat="49.38787" lon="-0.98399">
        <ele>36.26</ele>
        <time>2021-08-30T20:58:31.338Z</time>
      </trkpt>
      <trkpt lat="49.38777" lon="-0.9834">
        <ele>36.25</ele>
        <time>2021-08-30T20:58:49.982Z</time>
      </trkpt>
      <trkpt lat="49.38777" lon="-0.9834">
        <ele>36.25</ele>
        <time>2021-08-30T20:59:08.626Z</time>
      </trkpt>
      <trkpt lat="49.38775" lon="-0.98311">
        <ele>36.25</ele>
        <time>2021-08-30T20:59:27.273Z</time>
      </trkpt>
      <trkpt lat="49.38775" lon="-0.98311">
        <ele>36.25</ele>
        <time>2021-08-30T20:59:45.920Z</time>
      </trkpt>
      <trkpt lat="49.38778" lon="-0.98221">
        <ele>36.34</ele>
        <time>2021-08-30T21:00:04.576Z</time>
      </trkpt>
      <trkpt lat="49.38778" lon="-0.98221">
        <ele>36.34</ele>
        <time>2021-08-30T21:00:23.232Z</time>
      </trkpt>
      <trkpt lat="49.38775" lon="-0.98186">
        <ele>36.36</ele>
        <time>2021-08-30T21:00:41.892Z</time>
      </trkpt>
      <trkpt lat="49.38775" lon="-0.98186">
        <ele>36.36</ele>
        <time>2021-08-30T21:01:00.552Z</time>
      </trkpt>
      <trkpt lat="49.38757" lon="-0.98059">
        <ele>36.41</ele>
        <time>2021-08-30T21:01:19.226Z</time>
      </trkpt>
      <trkpt lat="49.38757" lon="-0.98059">
        <ele>36.41</ele>
        <time>2021-08-30T21:01:37.900Z</time>
      </trkpt>
      <trkpt lat="49.38747" lon="-0.97884">
        <ele>36.27</ele>
        <time>2021-08-30T21:01:56.592Z</time>
      </trkpt>
      <trkpt lat="49.38747" lon="-0.97884">
        <ele>36.27</ele>
        <time>2021-08-30T21:02:15.284Z</time>
      </trkpt>
      <trkpt lat="49.38727" lon="-0.97725">
        <ele>36.23</ele>
        <time>2021-08-30T21:02:33.993Z</time>
      </trkpt>
      <trkpt lat="49.38727" lon="-0.97725">
        <ele>36.23</ele>
        <time>2021-08-30T21:02:52.702Z</time>
      </trkpt>
      <trkpt lat="49.38725" lon="-0.97681">
        <ele>36.29</ele>
        <time>2021-08-30T21:03:11.416Z</time>
      </trkpt>
      <trkpt lat="49.38725" lon="-0.97681">
        <ele>36.29</ele>
        <time>2021-08-30T21:03:30.130Z</time>
      </trkpt>
      <trkpt lat="49.3873" lon="-0.97557">
        <ele>36.24</ele>
        <time>2021-08-30T21:03:48.857Z</time>
      </trkpt>
      <trkpt lat="49.3873" lon="-0.97557">
        <ele>36.24</ele>
        <time>2021-08-30T21:04:07.584Z</time>
      </trkpt>
      <trkpt lat="49.38733" lon="-0.97373">
        <ele>36.27</ele>
        <time>2021-08-30T21:04:26.330Z</time>
      </trkpt>
      <trkpt lat="49.38733" lon="-0.97373">
        <ele>36.27</ele>
        <time>2021-08-30T21:04:45.076Z</time>
      </trkpt>
      <trkpt lat="49.38743" lon="-0.97296">
        <ele>36.45</ele>
        <time>2021-08-30T21:05:03.830Z</time>
      </trkpt>
      <trkpt lat="49.38743" lon="-0.97296">
        <ele>36.45</ele>
        <time>2021-08-30T21:05:22.584Z</time>
      </trkpt>
      <trkpt lat="49.38766" lon="-0.97186">
        <ele>36.71</ele>
        <time>2021-08-30T21:05:41.350Z</time>
      </trkpt>
      <trkpt lat="49.38766" lon="-0.97186">
        <ele>36.71</ele>
        <time>2021-08-30T21:06:00.116Z</time>
      </trkpt>
      <trkpt lat="49.3877" lon="-0.9715">
        <ele>36.9</ele>
        <time>2021-08-30T21:06:18.886Z</time>
      </trkpt>
      <trkpt lat="49.3877" lon="-0.9715">
        <ele>36.9</ele>
        <time>2021-08-30T21:06:37.656Z</time>
      </trkpt>
      <trkpt lat="49.38768" lon="-0.97037">
        <ele>37</ele>
        <time>2021-08-30T21:06:56.438Z</time>
      </trkpt>
      <trkpt lat="49.38768" lon="-0.97037">
        <ele>37</ele>
        <time>2021-08-30T21:07:15.220Z</time>
      </trkpt>
      <trkpt lat="49.3877" lon="-0.96974">
        <ele>37.13</ele>
        <time>2021-08-30T21:07:34.008Z</time>
      </trkpt>
      <trkpt lat="49.3877" lon="-0.96974">
        <ele>37.13</ele>
        <time>2021-08-30T21:07:52.796Z</time>
      </trkpt>
      <trkpt lat="49.38778" lon="-0.96896">
        <ele>37.26</ele>
        <time>2021-08-30T21:08:11.593Z</time>
      </trkpt>
      <trkpt lat="49.38778" lon="-0.96896">
        <ele>37.26</ele>
        <time>2021-08-30T21:08:30.390Z</time>
      </trkpt>
      <trkpt lat="49.38784" lon="-0.96806">
        <ele>37.38</ele>
        <time>2021-08-30T21:08:49.196Z</time>
      </trkpt>
      <trkpt lat="49.38784" lon="-0.96806">
        <ele>37.38</ele>
        <time>2021-08-30T21:09:08.002Z</time>
      </trkpt>
      <trkpt lat="49.38799" lon="-0.96535">
        <ele>37.88</ele>
        <time>2021-08-30T21:09:26.836Z</time>
      </trkpt>
      <trkpt lat="49.38799" lon="-0.96535">
        <ele>37.88</ele>
        <time>2021-08-30T21:09:45.670Z</time>
      </trkpt>
      <trkpt lat="49.38798" lon="-0.96422">
        <ele>37.84</ele>
        <time>2021-08-30T21:10:04.516Z</time>
      </trkpt>
      <trkpt lat="49.38798" lon="-0.96422">
        <ele>37.84</ele>
        <time>2021-08-30T21:10:23.362Z</time>
      </trkpt>
      <trkpt lat="49.38785" lon="-0.96257">
        <ele>37.72</ele>
        <time>2021-08-30T21:10:42.226Z</time>
      </trkpt>
      <trkpt lat="49.38785" lon="-0.96257">
        <ele>37.72</ele>
        <time>2021-08-30T21:11:01.090Z</time>
      </trkpt>
      <trkpt lat="49.38784" lon="-0.96198">
        <ele>37.67</ele>
        <time>2021-08-30T21:11:19.960Z</time>
      </trkpt>
      <trkpt lat="49.38784" lon="-0.96198">
        <ele>37.67</ele>
        <time>2021-08-30T21:11:38.830Z</time>
      </trkpt>
      <trkpt lat="49.38784" lon="-0.95708">
        <ele>37.76</ele>
        <time>2021-08-30T21:11:57.751Z</time>
      </trkpt>
      <trkpt lat="49.38784" lon="-0.95708">
        <ele>37.76</ele>
        <time>2021-08-30T21:12:16.672Z</time>
      </trkpt>
      <trkpt lat="49.38795" lon="-0.95527">
        <ele>37.55</ele>
        <time>2021-08-30T21:12:35.612Z</time>
      </trkpt>
      <trkpt lat="49.38795" lon="-0.95527">
        <ele>37.55</ele>
        <time>2021-08-30T21:12:54.552Z</time>
      </trkpt>
      <trkpt lat="49.38798" lon="-0.95443">
        <ele>37.49</ele>
        <time>2021-08-30T21:13:13.501Z</time>
      </trkpt>
      <trkpt lat="49.38798" lon="-0.95443">
        <ele>37.49</ele>
        <time>2021-08-30T21:13:32.450Z</time>
      </trkpt>
      <trkpt lat="49.38793" lon="-0.95161">
        <ele>37</ele>
        <time>2021-08-30T21:13:51.428Z</time>
      </trkpt>
      <trkpt lat="49.38793" lon="-0.95161">
        <ele>37</ele>
        <time>2021-08-30T21:14:10.406Z</time>
      </trkpt>
      <trkpt lat="49.38793" lon="-0.94966">
        <ele>35.53</ele>
        <time>2021-08-30T21:14:29.405Z</time>
      </trkpt>
      <trkpt lat="49.38793" lon="-0.94966">
        <ele>35.53</ele>
        <time>2021-08-30T21:14:48.404Z</time>
      </trkpt>
      <trkpt lat="49.38782" lon="-0.94891">
        <ele>35.47</ele>
        <time>2021-08-30T21:15:07.411Z</time>
      </trkpt>
      <trkpt lat="49.38782" lon="-0.94891">
        <ele>35.47</ele>
        <time>2021-08-30T21:15:26.418Z</time>
      </trkpt>
      <trkpt lat="49.38782" lon="-0.94842">
        <ele>35.41</ele>
        <time>2021-08-30T21:15:45.430Z</time>
      </trkpt>
      <trkpt lat="49.38782" lon="-0.94842">
        <ele>35.41</ele>
        <time>2021-08-30T21:16:04.442Z</time>
      </trkpt>
      <trkpt lat="49.38809" lon="-0.94388">
        <ele>35.87</ele>
        <time>2021-08-30T21:16:23.502Z</time>
      </trkpt>
      <trkpt lat="49.38809" lon="-0.94388">
        <ele>35.87</ele>
        <time>2021-08-30T21:16:42.562Z</time>
      </trkpt>
      <trkpt lat="49.38826" lon="-0.94259">
        <ele>35.9</ele>
        <time>2021-08-30T21:17:01.635Z</time>
      </trkpt>
      <trkpt lat="49.38826" lon="-0.94259">
        <ele>35.9</ele>
        <time>2021-08-30T21:17:20.708Z</time>
      </trkpt>
      <trkpt lat="49.38854" lon="-0.94105">
        <ele>35.69</ele>
        <time>2021-08-30T21:17:39.798Z</time>
      </trkpt>
      <trkpt lat="49.38854" lon="-0.94105">
        <ele>35.69</ele>
        <time>2021-08-30T21:17:58.888Z</time>
      </trkpt>
      <trkpt lat="49.38854" lon="-0.94066">
        <ele>35.71</ele>
        <time>2021-08-30T21:18:17.982Z</time>
      </trkpt>
      <trkpt lat="49.38854" lon="-0.94066">
        <ele>35.71</ele>
        <time>2021-08-30T21:18:37.076Z</time>
      </trkpt>
      <trkpt lat="49.38852" lon="-0.94037">
        <ele>35.71</ele>
        <time>2021-08-30T21:18:56.173Z</time>
      </trkpt>
      <trkpt lat="49.38852" lon="-0.94037">
        <ele>35.71</ele>
        <time>2021-08-30T21:19:15.270Z</time>
      </trkpt>
      <trkpt lat="49.3884" lon="-0.93982">
        <ele>35.59</ele>
        <time>2021-08-30T21:19:34.373Z</time>
      </trkpt>
      <trkpt lat="49.3884" lon="-0.93982">
        <ele>35.59</ele>
        <time>2021-08-30T21:19:53.476Z</time>
      </trkpt>
      <trkpt lat="49.3883" lon="-0.93942">
        <ele>35.41</ele>
        <time>2021-08-30T21:20:12.584Z</time>
      </trkpt>
      <trkpt lat="49.3883" lon="-0.93942">
        <ele>35.41</ele>
        <time>2021-08-30T21:20:31.692Z</time>
      </trkpt>
      <trkpt lat="49.38826" lon="-0.93907">
        <ele>35.4</ele>
        <time>2021-08-30T21:20:50.803Z</time>
      </trkpt>
      <trkpt lat="49.38826" lon="-0.93907">
        <ele>35.4</ele>
        <time>2021-08-30T21:21:09.914Z</time>
      </trkpt>
      <trkpt lat="49.3882" lon="-0.9382">
        <ele>35.19</ele>
        <time>2021-08-30T21:21:29.035Z</time>
      </trkpt>
      <trkpt lat="49.3882" lon="-0.9382">
        <ele>35.19</ele>
        <time>2021-08-30T21:21:48.156Z</time>
      </trkpt>
      <trkpt lat="49.38808" lon="-0.93712">
        <ele>34.97</ele>
        <time>2021-08-30T21:22:07.288Z</time>
      </trkpt>
      <trkpt lat="49.38808" lon="-0.93712">
        <ele>34.97</ele>
        <time>2021-08-30T21:22:26.420Z</time>
      </trkpt>
      <trkpt lat="49.38737" lon="-0.93317">
        <ele>38.36</ele>
        <time>2021-08-30T21:22:45.595Z</time>
      </trkpt>
      <trkpt lat="49.38737" lon="-0.93317">
        <ele>38.36</ele>
        <time>2021-08-30T21:23:04.770Z</time>
      </trkpt>
      <trkpt lat="49.38718" lon="-0.93234">
        <ele>39.02</ele>
        <time>2021-08-30T21:23:23.954Z</time>
      </trkpt>
      <trkpt lat="49.38718" lon="-0.93234">
        <ele>39.02</ele>
        <time>2021-08-30T21:23:43.138Z</time>
      </trkpt>
      <trkpt lat="49.38704" lon="-0.932">
        <ele>39.16</ele>
        <time>2021-08-30T21:24:02.326Z</time>
      </trkpt>
      <trkpt lat="49.38704" lon="-0.932">
        <ele>39.16</ele>
        <time>2021-08-30T21:24:21.514Z</time>
      </trkpt>
      <trkpt lat="49.38684" lon="-0.93163">
        <ele>39.44</ele>
        <time>2021-08-30T21:24:40.707Z</time>
      </trkpt>
      <trkpt lat="49.38684" lon="-0.93163">
        <ele>39.44</ele>
        <time>2021-08-30T21:24:59.900Z</time>
      </trkpt>
      <trkpt lat="49.38516" lon="-0.92921">
        <ele>41.72</ele>
        <time>2021-08-30T21:25:19.130Z</time>
      </trkpt>
      <trkpt lat="49.38516" lon="-0.92921">
        <ele>41.72</ele>
        <time>2021-08-30T21:25:38.360Z</time>
      </trkpt>
      <trkpt lat="49.38469" lon="-0.92856">
        <ele>41.96</ele>
        <time>2021-08-30T21:25:57.600Z</time>
      </trkpt>
      <trkpt lat="49.38469" lon="-0.92856">
        <ele>41.96</ele>
        <time>2021-08-30T21:26:16.840Z</time>
      </trkpt>
      <trkpt lat="49.38434" lon="-0.92798">
        <ele>42.26</ele>
        <time>2021-08-30T21:26:36.089Z</time>
      </trkpt>
      <trkpt lat="49.38434" lon="-0.92798">
        <ele>42.26</ele>
        <time>2021-08-30T21:26:55.338Z</time>
      </trkpt>
      <trkpt lat="49.3842" lon="-0.92771">
        <ele>42.42</ele>
        <time>2021-08-30T21:27:14.590Z</time>
      </trkpt>
      <trkpt lat="49.3842" lon="-0.92771">
        <ele>42.42</ele>
        <time>2021-08-30T21:27:33.842Z</time>
      </trkpt>
      <trkpt lat="49.38402" lon="-0.9272">
        <ele>42.81</ele>
        <time>2021-08-30T21:27:53.100Z</time>
      </trkpt>
      <trkpt lat="49.38402" lon="-0.9272">
        <ele>42.81</ele>
        <time>2021-08-30T21:28:12.358Z</time>
      </trkpt>
      <trkpt lat="49.38392" lon="-0.92678">
        <ele>42.97</ele>
        <time>2021-08-30T21:28:31.621Z</time>
      </trkpt>
      <trkpt lat="49.38392" lon="-0.92678">
        <ele>42.97</ele>
        <time>2021-08-30T21:28:50.884Z</time>
      </trkpt>
      <trkpt lat="49.3837" lon="-0.92554">
        <ele>43.77</ele>
        <time>2021-08-30T21:29:10.160Z</time>
      </trkpt>
      <trkpt lat="49.3837" lon="-0.92554">
        <ele>43.77</ele>
        <time>2021-08-30T21:29:29.436Z</time>
      </trkpt>
      <trkpt lat="49.38349" lon="-0.92485">
        <ele>43.83</ele>
        <time>2021-08-30T21:29:48.720Z</time>
      </trkpt>
      <trkpt lat="49.38349" lon="-0.92485">
        <ele>43.83</ele>
        <time>2021-08-30T21:30:08.004Z</time>
      </trkpt>
      <trkpt lat="49.38333" lon="-0.92446">
        <ele>43.93</ele>
        <time>2021-08-30T21:30:27.293Z</time>
      </trkpt>
      <trkpt lat="49.38333" lon="-0.92446">
        <ele>43.93</ele>
        <time>2021-08-30T21:30:46.582Z</time>
      </trkpt>
      <trkpt lat="49.38103" lon="-0.92019">
        <ele>45.85</ele>
        <time>2021-08-30T21:31:05.929Z</time>
      </trkpt>
      <trkpt lat="49.38103" lon="-0.92019">
        <ele>45.85</ele>
        <time>2021-08-30T21:31:25.276Z</time>
      </trkpt>
      <trkpt lat="49.37945" lon="-0.91777">
        <ele>44.94</ele>
        <time>2021-08-30T21:31:44.659Z</time>
      </trkpt>
      <trkpt lat="49.37945" lon="-0.91777">
        <ele>44.94</ele>
        <time>2021-08-30T21:32:04.042Z</time>
      </trkpt>
      <trkpt lat="49.37901" lon="-0.91722">
        <ele>45.27</ele>
        <time>2021-08-30T21:32:23.434Z</time>
      </trkpt>
      <trkpt lat="49.37901" lon="-0.91722">
        <ele>45.27</ele>
        <time>2021-08-30T21:32:42.826Z</time>
      </trkpt>
      <trkpt lat="49.37769" lon="-0.9158">
        <ele>44.52</ele>
        <time>2021-08-30T21:33:02.244Z</time>
      </trkpt>
      <trkpt lat="49.37769" lon="-0.9158">
        <ele>44.52</ele>
        <time>2021-08-30T21:33:21.662Z</time>
      </trkpt>
      <trkpt lat="49.37755" lon="-0.91561">
        <ele>44.45</ele>
        <time>2021-08-30T21:33:41.083Z</time>
      </trkpt>
      <trkpt lat="49.37755" lon="-0.91561">
        <ele>44.45</ele>
        <time>2021-08-30T21:34:00.504Z</time>
      </trkpt>
      <trkpt lat="49.37736" lon="-0.91531">
        <ele>44.42</ele>
        <time>2021-08-30T21:34:19.929Z</time>
      </trkpt>
      <trkpt lat="49.37736" lon="-0.91531">
        <ele>44.42</ele>
        <time>2021-08-30T21:34:39.354Z</time>
      </trkpt>
      <trkpt lat="49.3765" lon="-0.91348">
        <ele>44.29</ele>
        <time>2021-08-30T21:34:58.803Z</time>
      </trkpt>
      <trkpt lat="49.3765" lon="-0.91348">
        <ele>44.29</ele>
        <time>2021-08-30T21:35:18.252Z</time>
      </trkpt>
      <trkpt lat="49.37633" lon="-0.91297">
        <ele>44.29</ele>
        <time>2021-08-30T21:35:37.707Z</time>
      </trkpt>
      <trkpt lat="49.37633" lon="-0.91297">
        <ele>44.29</ele>
        <time>2021-08-30T21:35:57.162Z</time>
      </trkpt>
      <trkpt lat="49.37592" lon="-0.91164">
        <ele>43.94</ele>
        <time>2021-08-30T21:36:16.632Z</time>
      </trkpt>
      <trkpt lat="49.37592" lon="-0.91164">
        <ele>43.94</ele>
        <time>2021-08-30T21:36:36.102Z</time>
      </trkpt>
      <trkpt lat="49.37553" lon="-0.91061">
        <ele>43.33</ele>
        <time>2021-08-30T21:36:55.585Z</time>
      </trkpt>
      <trkpt lat="49.37553" lon="-0.91061">
        <ele>43.33</ele>
        <time>2021-08-30T21:37:15.068Z</time>
      </trkpt>
      <trkpt lat="49.37526" lon="-0.90985">
        <ele>42.88</ele>
        <time>2021-08-30T21:37:34.560Z</time>
      </trkpt>
      <trkpt lat="49.37526" lon="-0.90985">
        <ele>42.88</ele>
        <time>2021-08-30T21:37:54.052Z</time>
      </trkpt>
      <trkpt lat="49.37515" lon="-0.90939">
        <ele>42.51</ele>
        <time>2021-08-30T21:38:13.549Z</time>
      </trkpt>
      <trkpt lat="49.37515" lon="-0.90939">
        <ele>42.51</ele>
        <time>2021-08-30T21:38:33.046Z</time>
      </trkpt>
      <trkpt lat="49.3749" lon="-0.90796">
        <ele>39.18</ele>
        <time>2021-08-30T21:38:52.558Z</time>
      </trkpt>
      <trkpt lat="49.3749" lon="-0.90796">
        <ele>39.18</ele>
        <time>2021-08-30T21:39:12.070Z</time>
      </trkpt>
      <trkpt lat="49.37464" lon="-0.90682">
        <ele>37.62</ele>
        <time>2021-08-30T21:39:31.595Z</time>
      </trkpt>
      <trkpt lat="49.37464" lon="-0.90682">
        <ele>37.62</ele>
        <time>2021-08-30T21:39:51.120Z</time>
      </trkpt>
      <trkpt lat="49.37442" lon="-0.90438">
        <ele>39.65</ele>
        <time>2021-08-30T21:40:10.671Z</time>
      </trkpt>
      <trkpt lat="49.37442" lon="-0.90438">
        <ele>39.65</ele>
        <time>2021-08-30T21:40:30.222Z</time>
      </trkpt>
      <trkpt lat="49.3743" lon="-0.90348">
        <ele>42.06</ele>
        <time>2021-08-30T21:40:49.782Z</time>
      </trkpt>
      <trkpt lat="49.3743" lon="-0.90348">
        <ele>42.06</ele>
        <time>2021-08-30T21:41:09.342Z</time>
      </trkpt>
      <trkpt lat="49.37418" lon="-0.9029">
        <ele>42.99</ele>
        <time>2021-08-30T21:41:28.909Z</time>
      </trkpt>
      <trkpt lat="49.37418" lon="-0.9029">
        <ele>42.99</ele>
        <time>2021-08-30T21:41:48.476Z</time>
      </trkpt>
      <trkpt lat="49.37394" lon="-0.90197">
        <ele>43.37</ele>
        <time>2021-08-30T21:42:08.053Z</time>
      </trkpt>
      <trkpt lat="49.37394" lon="-0.90197">
        <ele>43.37</ele>
        <time>2021-08-30T21:42:27.630Z</time>
      </trkpt>
      <trkpt lat="49.3736" lon="-0.90121">
        <ele>43.88</ele>
        <time>2021-08-30T21:42:47.217Z</time>
      </trkpt>
      <trkpt lat="49.3736" lon="-0.90121">
        <ele>43.88</ele>
        <time>2021-08-30T21:43:06.804Z</time>
      </trkpt>
      <trkpt lat="49.37345" lon="-0.90095">
        <ele>43.99</ele>
        <time>2021-08-30T21:43:26.394Z</time>
      </trkpt>
      <trkpt lat="49.37345" lon="-0.90095">
        <ele>43.99</ele>
        <time>2021-08-30T21:43:45.984Z</time>
      </trkpt>
      <trkpt lat="49.37315" lon="-0.90068">
        <ele>44.15</ele>
        <time>2021-08-30T21:44:05.580Z</time>
      </trkpt>
      <trkpt lat="49.37315" lon="-0.90068">
        <ele>44.15</ele>
        <time>2021-08-30T21:44:25.176Z</time>
      </trkpt>
      <trkpt lat="49.37266" lon="-0.90034">
        <ele>44.52</ele>
        <time>2021-08-30T21:44:44.780Z</time>
      </trkpt>
      <trkpt lat="49.37266" lon="-0.90034">
        <ele>44.52</ele>
        <time>2021-08-30T21:45:04.384Z</time>
      </trkpt>
      <trkpt lat="49.37217" lon="-0.89992">
        <ele>45.2</ele>
        <time>2021-08-30T21:45:23.997Z</time>
      </trkpt>
      <trkpt lat="49.37217" lon="-0.89992">
        <ele>45.2</ele>
        <time>2021-08-30T21:45:43.610Z</time>
      </trkpt>
      <trkpt lat="49.37099" lon="-0.89855">
        <ele>46.88</ele>
        <time>2021-08-30T21:46:03.247Z</time>
      </trkpt>
      <trkpt lat="49.37099" lon="-0.89855">
        <ele>46.88</ele>
        <time>2021-08-30T21:46:22.884Z</time>
      </trkpt>
      <trkpt lat="49.37005" lon="-0.89734">
        <ele>47.96</ele>
        <time>2021-08-30T21:46:42.541Z</time>
      </trkpt>
      <trkpt lat="49.37005" lon="-0.89734">
        <ele>47.96</ele>
        <time>2021-08-30T21:47:02.198Z</time>
      </trkpt>
      <trkpt lat="49.36903" lon="-0.89619">
        <ele>48.11</ele>
        <time>2021-08-30T21:47:21.875Z</time>
      </trkpt>
      <trkpt lat="49.36903" lon="-0.89619">
        <ele>48.11</ele>
        <time>2021-08-30T21:47:41.552Z</time>
      </trkpt>
      <trkpt lat="49.36675" lon="-0.89404">
        <ele>47.34</ele>
        <time>2021-08-30T21:48:01.272Z</time>
      </trkpt>
      <trkpt lat="49.36675" lon="-0.89404">
        <ele>47.34</ele>
        <time>2021-08-30T21:48:20.992Z</time>
      </trkpt>
      <trkpt lat="49.36517" lon="-0.89229">
        <ele>48.35</ele>
        <time>2021-08-30T21:48:40.743Z</time>
      </trkpt>
      <trkpt lat="49.36517" lon="-0.89229">
        <ele>48.35</ele>
        <time>2021-08-30T21:49:00.494Z</time>
      </trkpt>
      <trkpt lat="49.36449" lon="-0.89146">
        <ele>48.93</ele>
        <time>2021-08-30T21:49:20.259Z</time>
      </trkpt>
      <trkpt lat="49.36449" lon="-0.89146">
        <ele>48.93</ele>
        <time>2021-08-30T21:49:40.024Z</time>
      </trkpt>
      <trkpt lat="49.36392" lon="-0.89071">
        <ele>48.81</ele>
        <time>2021-08-30T21:49:59.801Z</time>
      </trkpt>
      <trkpt lat="49.36392" lon="-0.89071">
        <ele>48.81</ele>
        <time>2021-08-30T21:50:19.578Z</time>
      </trkpt>
      <trkpt lat="49.3626" lon="-0.88904">
        <ele>48.52</ele>
        <time>2021-08-30T21:50:39.383Z</time>
      </trkpt>
      <trkpt lat="49.3626" lon="-0.88904">
        <ele>48.52</ele>
        <time>2021-08-30T21:50:59.188Z</time>
      </trkpt>
      <trkpt lat="49.36173" lon="-0.88802">
        <ele>45.26</ele>
        <time>2021-08-30T21:51:19.010Z</time>
      </trkpt>
      <trkpt lat="49.36173" lon="-0.88802">
        <ele>45.26</ele>
        <time>2021-08-30T21:51:38.832Z</time>
      </trkpt>
      <trkpt lat="49.36117" lon="-0.88706">
        <ele>45.84</ele>
        <time>2021-08-30T21:51:58.668Z</time>
      </trkpt>
      <trkpt lat="49.36117" lon="-0.88706">
        <ele>45.84</ele>
        <time>2021-08-30T21:52:18.504Z</time>
      </trkpt>
      <trkpt lat="49.36077" lon="-0.8865">
        <ele>47.19</ele>
        <time>2021-08-30T21:52:38.348Z</time>
      </trkpt>
      <trkpt lat="49.36077" lon="-0.8865">
        <ele>47.19</ele>
        <time>2021-08-30T21:52:58.192Z</time>
      </trkpt>
      <trkpt lat="49.36058" lon="-0.88616">
        <ele>47.04</ele>
        <time>2021-08-30T21:53:18.041Z</time>
      </trkpt>
      <trkpt lat="49.36058" lon="-0.88616">
        <ele>47.04</ele>
        <time>2021-08-30T21:53:37.890Z</time>
      </trkpt>
      <trkpt lat="49.36049" lon="-0.88589">
        <ele>46.64</ele>
        <time>2021-08-30T21:53:57.742Z</time>
      </trkpt>
      <trkpt lat="49.36049" lon="-0.88589">
        <ele>46.64</ele>
        <time>2021-08-30T21:54:17.594Z</time>
      </trkpt>
      <trkpt lat="49.36013" lon="-0.88448">
        <ele>45.25</ele>
        <time>2021-08-30T21:54:37.462Z</time>
      </trkpt>
      <trkpt lat="49.36013" lon="-0.88448">
        <ele>45.25</ele>
        <time>2021-08-30T21:54:57.330Z</time>
      </trkpt>
      <trkpt lat="49.35965" lon="-0.88272">
        <ele>41.03</ele>
        <time>2021-08-30T21:55:17.218Z</time>
      </trkpt>
      <trkpt lat="49.35965" lon="-0.88272">
        <ele>41.03</ele>
        <time>2021-08-30T21:55:37.106Z</time>
      </trkpt>
      <trkpt lat="49.35938" lon="-0.88204">
        <ele>41.23</ele>
        <time>2021-08-30T21:55:57.002Z</time>
      </trkpt>
      <trkpt lat="49.35938" lon="-0.88204">
        <ele>41.23</ele>
        <time>2021-08-30T21:56:16.898Z</time>
      </trkpt>
      <trkpt lat="49.35925" lon="-0.88185">
        <ele>41.6</ele>
        <time>2021-08-30T21:56:36.797Z</time>
      </trkpt>
      <trkpt lat="49.35925" lon="-0.88185">
        <ele>41.6</ele>
        <time>2021-08-30T21:56:56.696Z</time>
      </trkpt>
      <trkpt lat="49.35917" lon="-0.88182">
        <ele>41.6</ele>
        <time>2021-08-30T21:57:16.596Z</time>
      </trkpt>
      <trkpt lat="49.35917" lon="-0.88182">
        <ele>41.6</ele>
        <time>2021-08-30T21:57:36.496Z</time>
      </trkpt>
      <trkpt lat="49.35885" lon="-0.88201">
        <ele>42.44</ele>
        <time>2021-08-30T21:57:56.402Z</time>
      </trkpt>
      <trkpt lat="49.35885" lon="-0.88201">
        <ele>42.44</ele>
        <time>2021-08-30T21:58:16.308Z</time>
      </trkpt>
      <trkpt lat="49.35866" lon="-0.8819">
        <ele>43.03</ele>
        <time>2021-08-30T21:58:36.217Z</time>
      </trkpt>
      <trkpt lat="49.35866" lon="-0.8819">
        <ele>43.03</ele>
        <time>2021-08-30T21:58:56.126Z</time>
      </trkpt>
      <trkpt lat="49.3584" lon="-0.88204">
        <ele>44.13</ele>
        <time>2021-08-30T21:59:16.040Z</time>
      </trkpt>
      <trkpt lat="49.3584" lon="-0.88204">
        <ele>44.13</ele>
        <time>2021-08-30T21:59:35.954Z</time>
      </trkpt>
      <trkpt lat="49.35785" lon="-0.88214">
        <ele>46.15</ele>
        <time>2021-08-30T21:59:55.876Z</time>
      </trkpt>
      <trkpt lat="49.35785" lon="-0.88214">
        <ele>46.15</ele>
        <time>2021-08-30T22:00:15.798Z</time>
      </trkpt>
      <trkpt lat="49.35767" lon="-0.88219">
        <ele>47.2</ele>
        <time>2021-08-30T22:00:35.723Z</time>
      </trkpt>
      <trkpt lat="49.35767" lon="-0.88219">
        <ele>47.2</ele>
        <time>2021-08-30T22:00:55.648Z</time>
      </trkpt>
      <trkpt lat="49.35744" lon="-0.88238">
        <ele>47.98</ele>
        <time>2021-08-30T22:01:15.578Z</time>
      </trkpt>
      <trkpt lat="49.35744" lon="-0.88238">
        <ele>47.98</ele>
        <time>2021-08-30T22:01:35.508Z</time>
      </trkpt>
      <trkpt lat="49.35711" lon="-0.88253">
        <ele>48.79</ele>
        <time>2021-08-30T22:01:55.443Z</time>
      </trkpt>
      <trkpt lat="49.35711" lon="-0.88253">
        <ele>48.79</ele>
        <time>2021-08-30T22:02:15.378Z</time>
      </trkpt>
      <trkpt lat="49.35699" lon="-0.8825">
        <ele>48.79</ele>
        <time>2021-08-30T22:02:35.315Z</time>
      </trkpt>
      <trkpt lat="49.35699" lon="-0.8825">
        <ele>48.79</ele>
        <time>2021-08-30T22:02:55.252Z</time>
      </trkpt>
      <trkpt lat="49.35686" lon="-0.88238">
        <ele>50.28</ele>
        <time>2021-08-30T22:03:15.191Z</time>
      </trkpt>
      <trkpt lat="49.35686" lon="-0.88238">
        <ele>50.28</ele>
        <time>2021-08-30T22:03:35.130Z</time>
      </trkpt>
      <trkpt lat="49.35675" lon="-0.88233">
        <ele>50.28</ele>
        <time>2021-08-30T22:03:55.071Z</time>
      </trkpt>
      <trkpt lat="49.35675" lon="-0.88233">
        <ele>50.28</ele>
        <time>2021-08-30T22:04:15.012Z</time>
      </trkpt>
      <trkpt lat="49.35657" lon="-0.88233">
        <ele>50.84</ele>
        <time>2021-08-30T22:04:34.956Z</time>
      </trkpt>
      <trkpt lat="49.35657" lon="-0.88233">
        <ele>50.84</ele>
        <time>2021-08-30T22:04:54.900Z</time>
      </trkpt>
      <trkpt lat="49.35582" lon="-0.88258">
        <ele>53.2</ele>
        <time>2021-08-30T22:05:14.857Z</time>
      </trkpt>
      <trkpt lat="49.35582" lon="-0.88258">
        <ele>53.2</ele>
        <time>2021-08-30T22:05:34.814Z</time>
      </trkpt>
      <trkpt lat="49.35516" lon="-0.88319">
        <ele>55.75</ele>
        <time>2021-08-30T22:05:54.783Z</time>
      </trkpt>
      <trkpt lat="49.35516" lon="-0.88319">
        <ele>55.75</ele>
        <time>2021-08-30T22:06:14.752Z</time>
      </trkpt>
      <trkpt lat="49.35437" lon="-0.88382">
        <ele>57.61</ele>
        <time>2021-08-30T22:06:34.735Z</time>
      </trkpt>
      <trkpt lat="49.35437" lon="-0.88382">
        <ele>57.61</ele>
        <time>2021-08-30T22:06:54.718Z</time>
      </trkpt>
      <trkpt lat="49.35419" lon="-0.88392">
        <ele>57.8</ele>
        <time>2021-08-30T22:07:14.704Z</time>
      </trkpt>
      <trkpt lat="49.35419" lon="-0.88392">
        <ele>57.8</ele>
        <time>2021-08-30T22:07:34.690Z</time>
      </trkpt>
      <trkpt lat="49.35344" lon="-0.88414">
        <ele>59.36</ele>
        <time>2021-08-30T22:07:54.688Z</time>
      </trkpt>
      <trkpt lat="49.35344" lon="-0.88414">
        <ele>59.36</ele>
        <time>2021-08-30T22:08:14.686Z</time>
      </trkpt>
      <trkpt lat="49.35242" lon="-0.88431">
        <ele>60.53</ele>
        <time>2021-08-30T22:08:34.701Z</time>
      </trkpt>
      <trkpt lat="49.35242" lon="-0.88431">
        <ele>60.53</ele>
        <time>2021-08-30T22:08:54.716Z</time>
      </trkpt>
      <trkpt lat="49.35109" lon="-0.88472">
        <ele>62.15</ele>
        <time>2021-08-30T22:09:14.753Z</time>
      </trkpt>
      <trkpt lat="49.35109" lon="-0.88472">
        <ele>62.15</ele>
        <time>2021-08-30T22:09:34.790Z</time>
      </trkpt>
      <trkpt lat="49.34946" lon="-0.8858">
        <ele>63.6</ele>
        <time>2021-08-30T22:09:54.855Z</time>
      </trkpt>
      <trkpt lat="49.34946" lon="-0.8858">
        <ele>63.6</ele>
        <time>2021-08-30T22:10:14.920Z</time>
      </trkpt>
      <trkpt lat="49.34827" lon="-0.88636">
        <ele>61.94</ele>
        <time>2021-08-30T22:10:35.005Z</time>
      </trkpt>
      <trkpt lat="49.34827" lon="-0.88636">
        <ele>61.94</ele>
        <time>2021-08-30T22:10:55.090Z</time>
      </trkpt>
      <trkpt lat="49.34817" lon="-0.88648">
        <ele>61.94</ele>
        <time>2021-08-30T22:11:15.177Z</time>
      </trkpt>
      <trkpt lat="49.34817" lon="-0.88648">
        <ele>61.94</ele>
        <time>2021-08-30T22:11:35.264Z</time>
      </trkpt>
      <trkpt lat="49.34808" lon="-0.88665">
        <ele>61.43</ele>
        <time>2021-08-30T22:11:55.353Z</time>
      </trkpt>
      <trkpt lat="49.34808" lon="-0.88665">
        <ele>61.43</ele>
        <time>2021-08-30T22:12:15.442Z</time>
      </trkpt>
      <trkpt lat="49.348" lon="-0.88696">
        <ele>61</ele>
        <time>2021-08-30T22:12:35.535Z</time>
      </trkpt>
      <trkpt lat="49.348" lon="-0.88696">
        <ele>61</ele>
        <time>2021-08-30T22:12:55.628Z</time>
      </trkpt>
      <trkpt lat="49.348" lon="-0.88728">
        <ele>59.81</ele>
        <time>2021-08-30T22:13:15.724Z</time>
      </trkpt>
      <trkpt lat="49.348" lon="-0.88728">
        <ele>59.81</ele>
        <time>2021-08-30T22:13:35.820Z</time>
      </trkpt>
      <trkpt lat="49.34811" lon="-0.88863">
        <ele>57.42</ele>
        <time>2021-08-30T22:13:55.930Z</time>
      </trkpt>
      <trkpt lat="49.34811" lon="-0.88863">
        <ele>57.42</ele>
        <time>2021-08-30T22:14:16.040Z</time>
      </trkpt>
      <trkpt lat="49.34807" lon="-0.88909">
        <ele>56.41</ele>
        <time>2021-08-30T22:14:36.155Z</time>
      </trkpt>
      <trkpt lat="49.34807" lon="-0.88909">
        <ele>56.41</ele>
        <time>2021-08-30T22:14:56.270Z</time>
      </trkpt>
      <trkpt lat="49.34797" lon="-0.88933">
        <ele>56.09</ele>
        <time>2021-08-30T22:15:16.388Z</time>
      </trkpt>
      <trkpt lat="49.34797" lon="-0.88933">
        <ele>56.09</ele>
        <time>2021-08-30T22:15:36.506Z</time>
      </trkpt>
      <trkpt lat="49.34788" lon="-0.88946">
        <ele>56.09</ele>
        <time>2021-08-30T22:15:56.626Z</time>
      </trkpt>
      <trkpt lat="49.34788" lon="-0.88946">
        <ele>56.09</ele>
        <time>2021-08-30T22:16:16.746Z</time>
      </trkpt>
      <trkpt lat="49.34751" lon="-0.88977">
        <ele>53.95</ele>
        <time>2021-08-30T22:16:36.873Z</time>
      </trkpt>
      <trkpt lat="49.34751" lon="-0.88977">
        <ele>53.95</ele>
        <time>2021-08-30T22:16:57.000Z</time>
      </trkpt>
      <trkpt lat="49.34575" lon="-0.89104">
        <ele>46.49</ele>
        <time>2021-08-30T22:17:17.158Z</time>
      </trkpt>
      <trkpt lat="49.34575" lon="-0.89104">
        <ele>46.49</ele>
        <time>2021-08-30T22:17:37.316Z</time>
      </trkpt>
      <trkpt lat="49.34528" lon="-0.89133">
        <ele>44.1</ele>
        <time>2021-08-30T22:17:57.482Z</time>
      </trkpt>
      <trkpt lat="49.34528" lon="-0.89133">
        <ele>44.1</ele>
        <time>2021-08-30T22:18:17.648Z</time>
      </trkpt>
      <trkpt lat="49.34471" lon="-0.89163">
        <ele>42.62</ele>
        <time>2021-08-30T22:18:37.824Z</time>
      </trkpt>
      <trkpt lat="49.34471" lon="-0.89163">
        <ele>42.62</ele>
        <time>2021-08-30T22:18:58.000Z</time>
      </trkpt>
      <trkpt lat="49.34415" lon="-0.89202">
        <ele>40.22</ele>
        <time>2021-08-30T22:19:18.186Z</time>
      </trkpt>
      <trkpt lat="49.34415" lon="-0.89202">
        <ele>40.22</ele>
        <time>2021-08-30T22:19:38.372Z</time>
      </trkpt>
      <trkpt lat="49.34332" lon="-0.89278">
        <ele>37.1</ele>
        <time>2021-08-30T22:19:58.573Z</time>
      </trkpt>
      <trkpt lat="49.34332" lon="-0.89278">
        <ele>37.1</ele>
        <time>2021-08-30T22:20:18.774Z</time>
      </trkpt>
      <trkpt lat="49.34298" lon="-0.89321">
        <ele>35.5</ele>
        <time>2021-08-30T22:20:38.982Z</time>
      </trkpt>
      <trkpt lat="49.34298" lon="-0.89321">
        <ele>35.5</ele>
        <time>2021-08-30T22:20:59.190Z</time>
      </trkpt>
      <trkpt lat="49.34164" lon="-0.89509">
        <ele>29.81</ele>
        <time>2021-08-30T22:21:19.427Z</time>
      </trkpt>
      <trkpt lat="49.34164" lon="-0.89509">
        <ele>29.81</ele>
        <time>2021-08-30T22:21:39.664Z</time>
      </trkpt>
      <trkpt lat="49.34146" lon="-0.89526">
        <ele>28.94</ele>
        <time>2021-08-30T22:21:59.905Z</time>
      </trkpt>
      <trkpt lat="49.34146" lon="-0.89526">
        <ele>28.94</ele>
        <time>2021-08-30T22:22:20.146Z</time>
      </trkpt>
      <trkpt lat="49.34079" lon="-0.89571">
        <ele>27.98</ele>
        <time>2021-08-30T22:22:40.398Z</time>
      </trkpt>
      <trkpt lat="49.34079" lon="-0.89571">
        <ele>27.98</ele>
        <time>2021-08-30T22:23:00.650Z</time>
      </trkpt>
      <trkpt lat="49.34036" lon="-0.89605">
        <ele>27.11</ele>
        <time>2021-08-30T22:23:20.910Z</time>
      </trkpt>
      <trkpt lat="49.34036" lon="-0.89605">
        <ele>27.11</ele>
        <time>2021-08-30T22:23:41.170Z</time>
      </trkpt>
      <trkpt lat="49.33958" lon="-0.89646">
        <ele>26.17</ele>
        <time>2021-08-30T22:24:01.443Z</time>
      </trkpt>
      <trkpt lat="49.33958" lon="-0.89646">
        <ele>26.17</ele>
        <time>2021-08-30T22:24:21.716Z</time>
      </trkpt>
      <trkpt lat="49.33891" lon="-0.89695">
        <ele>26.2</ele>
        <time>2021-08-30T22:24:42.001Z</time>
      </trkpt>
      <trkpt lat="49.33891" lon="-0.89695">
        <ele>26.2</ele>
        <time>2021-08-30T22:25:02.286Z</time>
      </trkpt>
      <trkpt lat="49.33876" lon="-0.89702">
        <ele>26.12</ele>
        <time>2021-08-30T22:25:22.574Z</time>
      </trkpt>
      <trkpt lat="49.33876" lon="-0.89702">
        <ele>26.12</ele>
        <time>2021-08-30T22:25:42.862Z</time>
      </trkpt>
      <trkpt lat="49.33848" lon="-0.89706">
        <ele>26.08</ele>
        <time>2021-08-30T22:26:03.154Z</time>
      </trkpt>
      <trkpt lat="49.33848" lon="-0.89706">
        <ele>26.08</ele>
        <time>2021-08-30T22:26:23.446Z</time>
      </trkpt>
      <trkpt lat="49.33827" lon="-0.89716">
        <ele>26.12</ele>
        <time>2021-08-30T22:26:43.742Z</time>
      </trkpt>
      <trkpt lat="49.33827" lon="-0.89716">
        <ele>26.12</ele>
        <time>2021-08-30T22:27:04.038Z</time>
      </trkpt>
      <trkpt lat="49.33807" lon="-0.89734">
        <ele>26.19</ele>
        <time>2021-08-30T22:27:24.338Z</time>
      </trkpt>
      <trkpt lat="49.33807" lon="-0.89734">
        <ele>26.19</ele>
        <time>2021-08-30T22:27:44.638Z</time>
      </trkpt>
      <trkpt lat="49.3376" lon="-0.898">
        <ele>27.32</ele>
        <time>2021-08-30T22:28:04.948Z</time>
      </trkpt>
      <trkpt lat="49.3376" lon="-0.898">
        <ele>27.32</ele>
        <time>2021-08-30T22:28:25.258Z</time>
      </trkpt>
      <trkpt lat="49.33725" lon="-0.89858">
        <ele>28.1</ele>
        <time>2021-08-30T22:28:45.576Z</time>
      </trkpt>
      <trkpt lat="49.33725" lon="-0.89858">
        <ele>28.1</ele>
        <time>2021-08-30T22:29:05.894Z</time>
      </trkpt>
      <trkpt lat="49.33706" lon="-0.89885">
        <ele>28.1</ele>
        <time>2021-08-30T22:29:26.216Z</time>
      </trkpt>
      <trkpt lat="49.33706" lon="-0.89885">
        <ele>28.1</ele>
        <time>2021-08-30T22:29:46.538Z</time>
      </trkpt>
      <trkpt lat="49.33672" lon="-0.89897">
        <ele>28.21</ele>
        <time>2021-08-30T22:30:06.866Z</time>
      </trkpt>
      <trkpt lat="49.33672" lon="-0.89897">
        <ele>28.21</ele>
        <time>2021-08-30T22:30:27.194Z</time>
      </trkpt>
      <trkpt lat="49.33654" lon="-0.89914">
        <ele>28.17</ele>
        <time>2021-08-30T22:30:47.525Z</time>
      </trkpt>
      <trkpt lat="49.33654" lon="-0.89914">
        <ele>28.17</ele>
        <time>2021-08-30T22:31:07.856Z</time>
      </trkpt>
      <trkpt lat="49.33621" lon="-0.89953">
        <ele>28.39</ele>
        <time>2021-08-30T22:31:28.194Z</time>
      </trkpt>
      <trkpt lat="49.33621" lon="-0.89953">
        <ele>28.39</ele>
        <time>2021-08-30T22:31:48.532Z</time>
      </trkpt>
      <trkpt lat="49.33588" lon="-0.8998">
        <ele>28.63</ele>
        <time>2021-08-30T22:32:08.876Z</time>
      </trkpt>
      <trkpt lat="49.33588" lon="-0.8998">
        <ele>28.63</ele>
        <time>2021-08-30T22:32:29.220Z</time>
      </trkpt>
      <trkpt lat="49.33526" lon="-0.90026">
        <ele>29.82</ele>
        <time>2021-08-30T22:32:49.575Z</time>
      </trkpt>
      <trkpt lat="49.33526" lon="-0.90026">
        <ele>29.82</ele>
        <time>2021-08-30T22:33:09.930Z</time>
      </trkpt>
      <trkpt lat="49.33483" lon="-0.90051">
        <ele>30.3</ele>
        <time>2021-08-30T22:33:30.292Z</time>
      </trkpt>
      <trkpt lat="49.33483" lon="-0.90051">
        <ele>30.3</ele>
        <time>2021-08-30T22:33:50.654Z</time>
      </trkpt>
      <trkpt lat="49.3346" lon="-0.90051">
        <ele>31.3</ele>
        <time>2021-08-30T22:34:11.020Z</time>
      </trkpt>
      <trkpt lat="49.3346" lon="-0.90051">
        <ele>31.3</ele>
        <time>2021-08-30T22:34:31.386Z</time>
      </trkpt>
      <trkpt lat="49.33334" lon="-0.90016">
        <ele>34.83</ele>
        <time>2021-08-30T22:34:51.772Z</time>
      </trkpt>
      <trkpt lat="49.33334" lon="-0.90016">
        <ele>34.83</ele>
        <time>2021-08-30T22:35:12.158Z</time>
      </trkpt>
      <trkpt lat="49.3327" lon="-0.90006">
        <ele>36.68</ele>
        <time>2021-08-30T22:35:32.555Z</time>
      </trkpt>
      <trkpt lat="49.3327" lon="-0.90006">
        <ele>36.68</ele>
        <time>2021-08-30T22:35:52.952Z</time>
      </trkpt>
      <trkpt lat="49.33139" lon="-0.90037">
        <ele>37.67</ele>
        <time>2021-08-30T22:36:13.370Z</time>
      </trkpt>
      <trkpt lat="49.33139" lon="-0.90037">
        <ele>37.67</ele>
        <time>2021-08-30T22:36:33.788Z</time>
      </trkpt>
      <trkpt lat="49.33105" lon="-0.90048">
        <ele>37.72</ele>
        <time>2021-08-30T22:36:54.212Z</time>
      </trkpt>
      <trkpt lat="49.33105" lon="-0.90048">
        <ele>37.72</ele>
        <time>2021-08-30T22:37:14.636Z</time>
      </trkpt>
      <trkpt lat="49.32976" lon="-0.90102">
        <ele>39.06</ele>
        <time>2021-08-30T22:37:35.081Z</time>
      </trkpt>
      <trkpt lat="49.32976" lon="-0.90102">
        <ele>39.06</ele>
        <time>2021-08-30T22:37:55.526Z</time>
      </trkpt>
      <trkpt lat="49.32902" lon="-0.90082">
        <ele>39.65</ele>
        <time>2021-08-30T22:38:15.983Z</time>
      </trkpt>
      <trkpt lat="49.32902" lon="-0.90082">
        <ele>39.65</ele>
        <time>2021-08-30T22:38:36.440Z</time>
      </trkpt>
      <trkpt lat="49.32736" lon="-0.90026">
        <ele>38.93</ele>
        <time>2021-08-30T22:38:56.924Z</time>
      </trkpt>
      <trkpt lat="49.32736" lon="-0.90026">
        <ele>38.93</ele>
        <time>2021-08-30T22:39:17.408Z</time>
      </trkpt>
      <trkpt lat="49.32567" lon="-0.89999">
        <ele>42.55</ele>
        <time>2021-08-30T22:39:37.919Z</time>
      </trkpt>
      <trkpt lat="49.32567" lon="-0.89999">
        <ele>42.55</ele>
        <time>2021-08-30T22:39:58.430Z</time>
      </trkpt>
      <trkpt lat="49.32376" lon="-0.90009">
        <ele>49.34</ele>
        <time>2021-08-30T22:40:18.972Z</time>
      </trkpt>
      <trkpt lat="49.32376" lon="-0.90009">
        <ele>49.34</ele>
        <time>2021-08-30T22:40:39.514Z</time>
      </trkpt>
      <trkpt lat="49.32278" lon="-0.90031">
        <ele>52.29</ele>
        <time>2021-08-30T22:41:00.072Z</time>
      </trkpt>
      <trkpt lat="49.32278" lon="-0.90031">
        <ele>52.29</ele>
        <time>2021-08-30T22:41:20.630Z</time>
      </trkpt>
      <trkpt lat="49.32161" lon="-0.9008">
        <ele>55.17</ele>
        <time>2021-08-30T22:41:41.207Z</time>
      </trkpt>
      <trkpt lat="49.32161" lon="-0.9008">
        <ele>55.17</ele>
        <time>2021-08-30T22:42:01.784Z</time>
      </trkpt>
      <trkpt lat="49.3206" lon="-0.90148">
        <ele>54.1</ele>
        <time>2021-08-30T22:42:22.379Z</time>
      </trkpt>
      <trkpt lat="49.3206" lon="-0.90148">
        <ele>54.1</ele>
        <time>2021-08-30T22:42:42.974Z</time>
      </trkpt>
      <trkpt lat="49.32022" lon="-0.90168">
        <ele>52.72</ele>
        <time>2021-08-30T22:43:03.575Z</time>
      </trkpt>
      <trkpt lat="49.32022" lon="-0.90168">
        <ele>52.72</ele>
        <time>2021-08-30T22:43:24.176Z</time>
      </trkpt>
      <trkpt lat="49.31974" lon="-0.9018">
        <ele>50.99</ele>
        <time>2021-08-30T22:43:44.785Z</time>
      </trkpt>
      <trkpt lat="49.31974" lon="-0.9018">
        <ele>50.99</ele>
        <time>2021-08-30T22:44:05.394Z</time>
      </trkpt>
      <trkpt lat="49.3183" lon="-0.90199">
        <ele>40.28</ele>
        <time>2021-08-30T22:44:26.026Z</time>
      </trkpt>
      <trkpt lat="49.3183" lon="-0.90199">
        <ele>40.28</ele>
        <time>2021-08-30T22:44:46.658Z</time>
      </trkpt>
      <trkpt lat="49.31668" lon="-0.90183">
        <ele>27.05</ele>
        <time>2021-08-30T22:45:07.316Z</time>
      </trkpt>
      <trkpt lat="49.31668" lon="-0.90183">
        <ele>27.05</ele>
        <time>2021-08-30T22:45:27.974Z</time>
      </trkpt>
      <trkpt lat="49.31596" lon="-0.9018">
        <ele>18.93</ele>
        <time>2021-08-30T22:45:48.644Z</time>
      </trkpt>
      <trkpt lat="49.31596" lon="-0.9018">
        <ele>18.93</ele>
        <time>2021-08-30T22:46:09.314Z</time>
      </trkpt>
      <trkpt lat="49.31564" lon="-0.90182">
        <ele>17.18</ele>
        <time>2021-08-30T22:46:29.989Z</time>
      </trkpt>
      <trkpt lat="49.31564" lon="-0.90182">
        <ele>17.18</ele>
        <time>2021-08-30T22:46:50.664Z</time>
      </trkpt>
      <trkpt lat="49.3141" lon="-0.90248">
        <ele>6.18</ele>
        <time>2021-08-30T22:47:11.365Z</time>
      </trkpt>
      <trkpt lat="49.3141" lon="-0.90248">
        <ele>6.18</ele>
        <time>2021-08-30T22:47:32.066Z</time>
      </trkpt>
      <trkpt lat="49.31388" lon="-0.90263">
        <ele>5.35</ele>
        <time>2021-08-30T22:47:52.771Z</time>
      </trkpt>
      <trkpt lat="49.31388" lon="-0.90263">
        <ele>5.35</ele>
        <time>2021-08-30T22:48:13.476Z</time>
      </trkpt>
      <trkpt lat="49.31378" lon="-0.9029">
        <ele>4.85</ele>
        <time>2021-08-30T22:48:34.184Z</time>
      </trkpt>
      <trkpt lat="49.31378" lon="-0.9029">
        <ele>4.85</ele>
        <time>2021-08-30T22:48:54.892Z</time>
      </trkpt>
      <trkpt lat="49.31361" lon="-0.90383">
        <ele>5.25</ele>
        <time>2021-08-30T22:49:15.610Z</time>
      </trkpt>
      <trkpt lat="49.31361" lon="-0.90383">
        <ele>5.25</ele>
        <time>2021-08-30T22:49:36.328Z</time>
      </trkpt>
      <trkpt lat="49.31357" lon="-0.90447">
        <ele>5.22</ele>
        <time>2021-08-30T22:49:57.053Z</time>
      </trkpt>
      <trkpt lat="49.31357" lon="-0.90447">
        <ele>5.22</ele>
        <time>2021-08-30T22:50:17.778Z</time>
      </trkpt>
      <trkpt lat="49.31356" lon="-0.90502">
        <ele>4.75</ele>
        <time>2021-08-30T22:50:38.508Z</time>
      </trkpt>
      <trkpt lat="49.31356" lon="-0.90502">
        <ele>4.75</ele>
        <time>2021-08-30T22:50:59.238Z</time>
      </trkpt>
      <trkpt lat="49.31349" lon="-0.90533">
        <ele>4.75</ele>
        <time>2021-08-30T22:51:19.972Z</time>
      </trkpt>
      <trkpt lat="49.31349" lon="-0.90533">
        <ele>4.75</ele>
        <time>2021-08-30T22:51:40.706Z</time>
      </trkpt>
      <trkpt lat="49.31343" lon="-0.90548">
        <ele>4.38</ele>
        <time>2021-08-30T22:52:01.442Z</time>
      </trkpt>
      <trkpt lat="49.31343" lon="-0.90548">
        <ele>4.38</ele>
        <time>2021-08-30T22:52:22.178Z</time>
      </trkpt>
      <trkpt lat="49.31323" lon="-0.90568">
        <ele>4.33</ele>
        <time>2021-08-30T22:52:42.917Z</time>
      </trkpt>
      <trkpt lat="49.31323" lon="-0.90568">
        <ele>4.33</ele>
        <time>2021-08-30T22:53:03.656Z</time>
      </trkpt>
      <trkpt lat="49.3126" lon="-0.90596">
        <ele>4.35</ele>
        <time>2021-08-30T22:53:24.406Z</time>
      </trkpt>
      <trkpt lat="49.3126" lon="-0.90596">
        <ele>4.35</ele>
        <time>2021-08-30T22:53:45.156Z</time>
      </trkpt>
      <trkpt lat="49.31197" lon="-0.90617">
        <ele>4.62</ele>
        <time>2021-08-30T22:54:05.916Z</time>
      </trkpt>
      <trkpt lat="49.31197" lon="-0.90617">
        <ele>4.62</ele>
        <time>2021-08-30T22:54:26.676Z</time>
      </trkpt>
      <trkpt lat="49.31138" lon="-0.90627">
        <ele>5.33</ele>
        <time>2021-08-30T22:54:47.446Z</time>
      </trkpt>
      <trkpt lat="49.31138" lon="-0.90627">
        <ele>5.33</ele>
        <time>2021-08-30T22:55:08.216Z</time>
      </trkpt>
      <trkpt lat="49.31087" lon="-0.90612">
        <ele>6.59</ele>
        <time>2021-08-30T22:55:28.994Z</time>
      </trkpt>
      <trkpt lat="49.31087" lon="-0.90612">
        <ele>6.59</ele>
        <time>2021-08-30T22:55:49.772Z</time>
      </trkpt>
      <trkpt lat="49.31038" lon="-0.9059">
        <ele>7.72</ele>
        <time>2021-08-30T22:56:10.558Z</time>
      </trkpt>
      <trkpt lat="49.31038" lon="-0.9059">
        <ele>7.72</ele>
        <time>2021-08-30T22:56:31.344Z</time>
      </trkpt>
      <trkpt lat="49.31002" lon="-0.90565">
        <ele>9.1</ele>
        <time>2021-08-30T22:56:52.137Z</time>
      </trkpt>
      <trkpt lat="49.31002" lon="-0.90565">
        <ele>9.1</ele>
        <time>2021-08-30T22:57:12.930Z</time>
      </trkpt>
      <trkpt lat="49.30987" lon="-0.90548">
        <ele>10.15</ele>
        <time>2021-08-30T22:57:33.726Z</time>
      </trkpt>
      <trkpt lat="49.30987" lon="-0.90548">
        <ele>10.15</ele>
        <time>2021-08-30T22:57:54.522Z</time>
      </trkpt>
      <trkpt lat="49.30939" lon="-0.90418">
        <ele>13.36</ele>
        <time>2021-08-30T22:58:15.333Z</time>
      </trkpt>
      <trkpt lat="49.30939" lon="-0.90418">
        <ele>13.36</ele>
        <time>2021-08-30T22:58:36.144Z</time>
      </trkpt>
      <trkpt lat="49.30902" lon="-0.90335">
        <ele>15.46</ele>
        <time>2021-08-30T22:58:56.966Z</time>
      </trkpt>
      <trkpt lat="49.30902" lon="-0.90335">
        <ele>15.46</ele>
        <time>2021-08-30T22:59:17.788Z</time>
      </trkpt>
      <trkpt lat="49.30881" lon="-0.90348">
        <ele>16.13</ele>
        <time>2021-08-30T22:59:38.613Z</time>
      </trkpt>
      <trkpt lat="49.30881" lon="-0.90348">
        <ele>16.13</ele>
        <time>2021-08-30T22:59:59.438Z</time>
      </trkpt>
      <trkpt lat="49.30781" lon="-0.90391">
        <ele>17.93</ele>
        <time>2021-08-30T23:00:20.280Z</time>
      </trkpt>
      <trkpt lat="49.30781" lon="-0.90391">
        <ele>17.93</ele>
        <time>2021-08-30T23:00:41.122Z</time>
      </trkpt>
      <trkpt lat="49.30706" lon="-0.90436">
        <ele>17.89</ele>
        <time>2021-08-30T23:01:01.977Z</time>
      </trkpt>
      <trkpt lat="49.30706" lon="-0.90436">
        <ele>17.89</ele>
        <time>2021-08-30T23:01:22.832Z</time>
      </trkpt>
      <trkpt lat="49.30679" lon="-0.90448">
        <ele>17.94</ele>
        <time>2021-08-30T23:01:43.691Z</time>
      </trkpt>
      <trkpt lat="49.30679" lon="-0.90448">
        <ele>17.94</ele>
        <time>2021-08-30T23:02:04.550Z</time>
      </trkpt>
      <trkpt lat="49.3065" lon="-0.90451">
        <ele>18.44</ele>
        <time>2021-08-30T23:02:25.414Z</time>
      </trkpt>
      <trkpt lat="49.3065" lon="-0.90451">
        <ele>18.44</ele>
        <time>2021-08-30T23:02:46.278Z</time>
      </trkpt>
      <trkpt lat="49.30617" lon="-0.9045">
        <ele>19.22</ele>
        <time>2021-08-30T23:03:07.147Z</time>
      </trkpt>
      <trkpt lat="49.30617" lon="-0.9045">
        <ele>19.22</ele>
        <time>2021-08-30T23:03:28.016Z</time>
      </trkpt>
      <trkpt lat="49.30582" lon="-0.90458">
        <ele>20.91</ele>
        <time>2021-08-30T23:03:48.891Z</time>
      </trkpt>
      <trkpt lat="49.30582" lon="-0.90458">
        <ele>20.91</ele>
        <time>2021-08-30T23:04:09.766Z</time>
      </trkpt>
      <trkpt lat="49.30511" lon="-0.90482">
        <ele>22.31</ele>
        <time>2021-08-30T23:04:30.653Z</time>
      </trkpt>
      <trkpt lat="49.30511" lon="-0.90482">
        <ele>22.31</ele>
        <time>2021-08-30T23:04:51.540Z</time>
      </trkpt>
      <trkpt lat="49.30399" lon="-0.90527">
        <ele>24.42</ele>
        <time>2021-08-30T23:05:12.445Z</time>
      </trkpt>
      <trkpt lat="49.30399" lon="-0.90527">
        <ele>24.42</ele>
        <time>2021-08-30T23:05:33.350Z</time>
      </trkpt>
      <trkpt lat="49.30233" lon="-0.90604">
        <ele>26</ele>
        <time>2021-08-30T23:05:54.283Z</time>
      </trkpt>
      <trkpt lat="49.30233" lon="-0.90604">
        <ele>26</ele>
        <time>2021-08-30T23:06:15.216Z</time>
      </trkpt>
      <trkpt lat="49.30207" lon="-0.90605">
        <ele>26.16</ele>
        <time>2021-08-30T23:06:36.153Z</time>
      </trkpt>
      <trkpt lat="49.30207" lon="-0.90605">
        <ele>26.16</ele>
        <time>2021-08-30T23:06:57.090Z</time>
      </trkpt>
      <trkpt lat="49.30135" lon="-0.906">
        <ele>25.48</ele>
        <time>2021-08-30T23:07:18.039Z</time>
      </trkpt>
      <trkpt lat="49.30135" lon="-0.906">
        <ele>25.48</ele>
        <time>2021-08-30T23:07:38.988Z</time>
      </trkpt>
      <trkpt lat="49.30057" lon="-0.90585">
        <ele>24.45</ele>
        <time>2021-08-30T23:07:59.949Z</time>
      </trkpt>
      <trkpt lat="49.30057" lon="-0.90585">
        <ele>24.45</ele>
        <time>2021-08-30T23:08:20.910Z</time>
      </trkpt>
      <trkpt lat="49.30052" lon="-0.9058">
        <ele>24.45</ele>
        <time>2021-08-30T23:08:41.872Z</time>
      </trkpt>
      <trkpt lat="49.30052" lon="-0.9058">
        <ele>24.45</ele>
        <time>2021-08-30T23:09:02.834Z</time>
      </trkpt>
      <trkpt lat="49.30038" lon="-0.90557">
        <ele>24.09</ele>
        <time>2021-08-30T23:09:23.800Z</time>
      </trkpt>
      <trkpt lat="49.30038" lon="-0.90557">
        <ele>24.09</ele>
        <time>2021-08-30T23:09:44.766Z</time>
      </trkpt>
      <trkpt lat="49.30031" lon="-0.90551">
        <ele>23.43</ele>
        <time>2021-08-30T23:10:05.733Z</time>
      </trkpt>
      <trkpt lat="49.30031" lon="-0.90551">
        <ele>23.43</ele>
        <time>2021-08-30T23:10:26.700Z</time>
      </trkpt>
      <trkpt lat="49.29982" lon="-0.90524">
        <ele>22.33</ele>
        <time>2021-08-30T23:10:47.675Z</time>
      </trkpt>
      <trkpt lat="49.29982" lon="-0.90524">
        <ele>22.33</ele>
        <time>2021-08-30T23:11:08.650Z</time>
      </trkpt>
      <trkpt lat="49.29931" lon="-0.90512">
        <ele>20.61</ele>
        <time>2021-08-30T23:11:29.633Z</time>
      </trkpt>
      <trkpt lat="49.29931" lon="-0.90512">
        <ele>20.61</ele>
        <time>2021-08-30T23:11:50.616Z</time>
      </trkpt>
      <trkpt lat="49.29891" lon="-0.9049">
        <ele>19.94</ele>
        <time>2021-08-30T23:12:11.606Z</time>
      </trkpt>
      <trkpt lat="49.29891" lon="-0.9049">
        <ele>19.94</ele>
        <time>2021-08-30T23:12:32.596Z</time>
      </trkpt>
      <trkpt lat="49.29824" lon="-0.90422">
        <ele>20.3</ele>
        <time>2021-08-30T23:12:53.599Z</time>
      </trkpt>
      <trkpt lat="49.29824" lon="-0.90422">
        <ele>20.3</ele>
        <time>2021-08-30T23:13:14.602Z</time>
      </trkpt>
      <trkpt lat="49.29792" lon="-0.90405">
        <ele>21.54</ele>
        <time>2021-08-30T23:13:35.611Z</time>
      </trkpt>
      <trkpt lat="49.29792" lon="-0.90405">
        <ele>21.54</ele>
        <time>2021-08-30T23:13:56.620Z</time>
      </trkpt>
      <trkpt lat="49.29773" lon="-0.90398">
        <ele>22.14</ele>
        <time>2021-08-30T23:14:17.632Z</time>
      </trkpt>
      <trkpt lat="49.29773" lon="-0.90398">
        <ele>22.14</ele>
        <time>2021-08-30T23:14:38.644Z</time>
      </trkpt>
      <trkpt lat="49.29764" lon="-0.90387">
        <ele>22.14</ele>
        <time>2021-08-30T23:14:59.658Z</time>
      </trkpt>
      <trkpt lat="49.29764" lon="-0.90387">
        <ele>22.14</ele>
        <time>2021-08-30T23:15:20.672Z</time>
      </trkpt>
      <trkpt lat="49.29731" lon="-0.90329">
        <ele>23.8</ele>
        <time>2021-08-30T23:15:41.694Z</time>
      </trkpt>
      <trkpt lat="49.29731" lon="-0.90329">
        <ele>23.8</ele>
        <time>2021-08-30T23:16:02.716Z</time>
      </trkpt>
      <trkpt lat="49.29541" lon="-0.90082">
        <ele>28.78</ele>
        <time>2021-08-30T23:16:23.778Z</time>
      </trkpt>
      <trkpt lat="49.29541" lon="-0.90082">
        <ele>28.78</ele>
        <time>2021-08-30T23:16:44.840Z</time>
      </trkpt>
      <trkpt lat="49.29511" lon="-0.90039">
        <ele>29.62</ele>
        <time>2021-08-30T23:17:05.908Z</time>
      </trkpt>
      <trkpt lat="49.29511" lon="-0.90039">
        <ele>29.62</ele>
        <time>2021-08-30T23:17:26.976Z</time>
      </trkpt>
      <trkpt lat="49.29459" lon="-0.89965">
        <ele>30.52</ele>
        <time>2021-08-30T23:17:48.056Z</time>
      </trkpt>
      <trkpt lat="49.29459" lon="-0.89965">
        <ele>30.52</ele>
        <time>2021-08-30T23:18:09.136Z</time>
      </trkpt>
      <trkpt lat="49.29391" lon="-0.89853">
        <ele>32.69</ele>
        <time>2021-08-30T23:18:30.232Z</time>
      </trkpt>
      <trkpt lat="49.29391" lon="-0.89853">
        <ele>32.69</ele>
        <time>2021-08-30T23:18:51.328Z</time>
      </trkpt>
      <trkpt lat="49.29352" lon="-0.89807">
        <ele>32.71</ele>
        <time>2021-08-30T23:19:12.431Z</time>
      </trkpt>
      <trkpt lat="49.29352" lon="-0.89807">
        <ele>32.71</ele>
        <time>2021-08-30T23:19:33.534Z</time>
      </trkpt>
      <trkpt lat="49.29303" lon="-0.89761">
        <ele>32.41</ele>
        <time>2021-08-30T23:19:54.647Z</time>
      </trkpt>
      <trkpt lat="49.29303" lon="-0.89761">
        <ele>32.41</ele>
        <time>2021-08-30T23:20:15.760Z</time>
      </trkpt>
      <trkpt lat="49.29272" lon="-0.89743">
        <ele>31.72</ele>
        <time>2021-08-30T23:20:36.878Z</time>
      </trkpt>
      <trkpt lat="49.29272" lon="-0.89743">
        <ele>31.72</ele>
        <time>2021-08-30T23:20:57.996Z</time>
      </trkpt>
      <trkpt lat="49.29223" lon="-0.89725">
        <ele>30.98</ele>
        <time>2021-08-30T23:21:19.122Z</time>
      </trkpt>
      <trkpt lat="49.29223" lon="-0.89725">
        <ele>30.98</ele>
        <time>2021-08-30T23:21:40.248Z</time>
      </trkpt>
      <trkpt lat="49.29186" lon="-0.89712">
        <ele>30.95</ele>
        <time>2021-08-30T23:22:01.380Z</time>
      </trkpt>
      <trkpt lat="49.29186" lon="-0.89712">
        <ele>30.95</ele>
        <time>2021-08-30T23:22:22.512Z</time>
      </trkpt>
      <trkpt lat="49.29137" lon="-0.8969">
        <ele>31.91</ele>
        <time>2021-08-30T23:22:43.652Z</time>
      </trkpt>
      <trkpt lat="49.29137" lon="-0.8969">
        <ele>31.91</ele>
        <time>2021-08-30T23:23:04.792Z</time>
      </trkpt>
      <trkpt lat="49.29113" lon="-0.8967">
        <ele>32.32</ele>
        <time>2021-08-30T23:23:25.937Z</time>
      </trkpt>
      <trkpt lat="49.29113" lon="-0.8967">
        <ele>32.32</ele>
        <time>2021-08-30T23:23:47.082Z</time>
      </trkpt>
      <trkpt lat="49.29088" lon="-0.89646">
        <ele>32.59</ele>
        <time>2021-08-30T23:24:08.231Z</time>
      </trkpt>
      <trkpt lat="49.29088" lon="-0.89646">
        <ele>32.59</ele>
        <time>2021-08-30T23:24:29.380Z</time>
      </trkpt>
      <trkpt lat="49.29024" lon="-0.8956">
        <ele>30.89</ele>
        <time>2021-08-30T23:24:50.543Z</time>
      </trkpt>
      <trkpt lat="49.29024" lon="-0.8956">
        <ele>30.89</ele>
        <time>2021-08-30T23:25:11.706Z</time>
      </trkpt>
      <trkpt lat="49.28993" lon="-0.89526">
        <ele>29.4</ele>
        <time>2021-08-30T23:25:32.875Z</time>
      </trkpt>
      <trkpt lat="49.28993" lon="-0.89526">
        <ele>29.4</ele>
        <time>2021-08-30T23:25:54.044Z</time>
      </trkpt>
      <trkpt lat="49.28926" lon="-0.89463">
        <ele>27.51</ele>
        <time>2021-08-30T23:26:15.226Z</time>
      </trkpt>
      <trkpt lat="49.28926" lon="-0.89463">
        <ele>27.51</ele>
        <time>2021-08-30T23:26:36.408Z</time>
      </trkpt>
      <trkpt lat="49.28898" lon="-0.89417">
        <ele>26.8</ele>
        <time>2021-08-30T23:26:57.596Z</time>
      </trkpt>
      <trkpt lat="49.28898" lon="-0.89417">
        <ele>26.8</ele>
        <time>2021-08-30T23:27:18.784Z</time>
      </trkpt>
      <trkpt lat="49.28876" lon="-0.89372">
        <ele>26.38</ele>
        <time>2021-08-30T23:27:39.978Z</time>
      </trkpt>
      <trkpt lat="49.28876" lon="-0.89372">
        <ele>26.38</ele>
        <time>2021-08-30T23:28:01.172Z</time>
      </trkpt>
      <trkpt lat="49.28817" lon="-0.88982">
        <ele>21.89</ele>
        <time>2021-08-30T23:28:22.408Z</time>
      </trkpt>
      <trkpt lat="49.28817" lon="-0.88982">
        <ele>21.89</ele>
        <time>2021-08-30T23:28:43.644Z</time>
      </trkpt>
      <trkpt lat="49.28821" lon="-0.88838">
        <ele>20.27</ele>
        <time>2021-08-30T23:29:04.895Z</time>
      </trkpt>
      <trkpt lat="49.28821" lon="-0.88838">
        <ele>20.27</ele>
        <time>2021-08-30T23:29:26.146Z</time>
      </trkpt>
      <trkpt lat="49.28814" lon="-0.8878">
        <ele>19.14</ele>
        <time>2021-08-30T23:29:47.403Z</time>
      </trkpt>
      <trkpt lat="49.28814" lon="-0.8878">
        <ele>19.14</ele>
        <time>2021-08-30T23:30:08.660Z</time>
      </trkpt>
      <trkpt lat="49.28796" lon="-0.88667">
        <ele>16.37</ele>
        <time>2021-08-30T23:30:29.930Z</time>
      </trkpt>
      <trkpt lat="49.28796" lon="-0.88667">
        <ele>16.37</ele>
        <time>2021-08-30T23:30:51.200Z</time>
      </trkpt>
      <trkpt lat="49.28789" lon="-0.88592">
        <ele>15.56</ele>
        <time>2021-08-30T23:31:12.478Z</time>
      </trkpt>
      <trkpt lat="49.28789" lon="-0.88592">
        <ele>15.56</ele>
        <time>2021-08-30T23:31:33.756Z</time>
      </trkpt>
      <trkpt lat="49.28778" lon="-0.8855">
        <ele>13.86</ele>
        <time>2021-08-30T23:31:55.038Z</time>
      </trkpt>
      <trkpt lat="49.28778" lon="-0.8855">
        <ele>13.86</ele>
        <time>2021-08-30T23:32:16.320Z</time>
      </trkpt>
      <trkpt lat="49.2873" lon="-0.88482">
        <ele>11.7</ele>
        <time>2021-08-30T23:32:37.613Z</time>
      </trkpt>
      <trkpt lat="49.2873" lon="-0.88482">
        <ele>11.7</ele>
        <time>2021-08-30T23:32:58.906Z</time>
      </trkpt>
      <trkpt lat="49.28689" lon="-0.88397">
        <ele>10.02</ele>
        <time>2021-08-30T23:33:20.210Z</time>
      </trkpt>
      <trkpt lat="49.28689" lon="-0.88397">
        <ele>10.02</ele>
        <time>2021-08-30T23:33:41.514Z</time>
      </trkpt>
      <trkpt lat="49.28641" lon="-0.88351">
        <ele>7.44</ele>
        <time>2021-08-30T23:34:02.827Z</time>
      </trkpt>
      <trkpt lat="49.28641" lon="-0.88351">
        <ele>7.44</ele>
        <time>2021-08-30T23:34:24.140Z</time>
      </trkpt>
      <trkpt lat="49.28621" lon="-0.88375">
        <ele>6.57</ele>
        <time>2021-08-30T23:34:45.457Z</time>
      </trkpt>
      <trkpt lat="49.28621" lon="-0.88375">
        <ele>6.57</ele>
        <time>2021-08-30T23:35:06.774Z</time>
      </trkpt>
      <trkpt lat="49.28594" lon="-0.88436">
        <ele>6.19</ele>
        <time>2021-08-30T23:35:28.099Z</time>
      </trkpt>
      <trkpt lat="49.28594" lon="-0.88436">
        <ele>6.19</ele>
        <time>2021-08-30T23:35:49.424Z</time>
      </trkpt>
      <trkpt lat="49.28537" lon="-0.88558">
        <ele>5.84</ele>
        <time>2021-08-30T23:36:10.764Z</time>
      </trkpt>
      <trkpt lat="49.28537" lon="-0.88558">
        <ele>5.84</ele>
        <time>2021-08-30T23:36:32.104Z</time>
      </trkpt>
      <trkpt lat="49.28529" lon="-0.88582">
        <ele>5.87</ele>
        <time>2021-08-30T23:36:53.447Z</time>
      </trkpt>
      <trkpt lat="49.28529" lon="-0.88582">
        <ele>5.87</ele>
        <time>2021-08-30T23:37:14.790Z</time>
      </trkpt>
      <trkpt lat="49.28522" lon="-0.88702">
        <ele>6.28</ele>
        <time>2021-08-30T23:37:36.146Z</time>
      </trkpt>
      <trkpt lat="49.28522" lon="-0.88702">
        <ele>6.28</ele>
        <time>2021-08-30T23:37:57.502Z</time>
      </trkpt>
      <trkpt lat="49.28494" lon="-0.88772">
        <ele>6.8</ele>
        <time>2021-08-30T23:38:18.866Z</time>
      </trkpt>
      <trkpt lat="49.28494" lon="-0.88772">
        <ele>6.8</ele>
        <time>2021-08-30T23:38:40.230Z</time>
      </trkpt>
      <trkpt lat="49.28445" lon="-0.88853">
        <ele>7.68</ele>
        <time>2021-08-30T23:39:01.606Z</time>
      </trkpt>
      <trkpt lat="49.28445" lon="-0.88853">
        <ele>7.68</ele>
        <time>2021-08-30T23:39:22.982Z</time>
      </trkpt>
      <trkpt lat="49.28427" lon="-0.88867">
        <ele>7.33</ele>
        <time>2021-08-30T23:39:44.361Z</time>
      </trkpt>
      <trkpt lat="49.28427" lon="-0.88867">
        <ele>7.33</ele>
        <time>2021-08-30T23:40:05.740Z</time>
      </trkpt>
      <trkpt lat="49.28365" lon="-0.88889">
        <ele>7.18</ele>
        <time>2021-08-30T23:40:27.129Z</time>
      </trkpt>
      <trkpt lat="49.28365" lon="-0.88889">
        <ele>7.18</ele>
        <time>2021-08-30T23:40:48.518Z</time>
      </trkpt>
      <trkpt lat="49.28325" lon="-0.88924">
        <ele>8.01</ele>
        <time>2021-08-30T23:41:09.915Z</time>
      </trkpt>
      <trkpt lat="49.28325" lon="-0.88924">
        <ele>8.01</ele>
        <time>2021-08-30T23:41:31.312Z</time>
      </trkpt>
      <trkpt lat="49.2823" lon="-0.89031">
        <ele>12.21</ele>
        <time>2021-08-30T23:41:52.728Z</time>
      </trkpt>
      <trkpt lat="49.2823" lon="-0.89031">
        <ele>12.21</ele>
        <time>2021-08-30T23:42:14.144Z</time>
      </trkpt>
      <trkpt lat="49.28109" lon="-0.89175">
        <ele>17.08</ele>
        <time>2021-08-30T23:42:35.584Z</time>
      </trkpt>
      <trkpt lat="49.28109" lon="-0.89175">
        <ele>17.08</ele>
        <time>2021-08-30T23:42:57.024Z</time>
      </trkpt>
      <trkpt lat="49.27965" lon="-0.89302">
        <ele>19.76</ele>
        <time>2021-08-30T23:43:18.491Z</time>
      </trkpt>
      <trkpt lat="49.27965" lon="-0.89302">
        <ele>19.76</ele>
        <time>2021-08-30T23:43:39.958Z</time>
      </trkpt>
      <trkpt lat="49.27938" lon="-0.89316">
        <ele>19.97</ele>
        <time>2021-08-30T23:44:01.429Z</time>
      </trkpt>
      <trkpt lat="49.27938" lon="-0.89316">
        <ele>19.97</ele>
        <time>2021-08-30T23:44:22.900Z</time>
      </trkpt>
      <trkpt lat="49.27904" lon="-0.89326">
        <ele>20.05</ele>
        <time>2021-08-30T23:44:44.377Z</time>
      </trkpt>
      <trkpt lat="49.27904" lon="-0.89326">
        <ele>20.05</ele>
        <time>2021-08-30T23:45:05.854Z</time>
      </trkpt>
      <trkpt lat="49.2783" lon="-0.89326">
        <ele>20.37</ele>
        <time>2021-08-30T23:45:27.343Z</time>
      </trkpt>
      <trkpt lat="49.2783" lon="-0.89326">
        <ele>20.37</ele>
        <time>2021-08-30T23:45:48.832Z</time>
      </trkpt>
      <trkpt lat="49.27804" lon="-0.89304">
        <ele>20.67</ele>
        <time>2021-08-30T23:46:10.326Z</time>
      </trkpt>
      <trkpt lat="49.27804" lon="-0.89304">
        <ele>20.67</ele>
        <time>2021-08-30T23:46:31.820Z</time>
      </trkpt>
      <trkpt lat="49.27762" lon="-0.89289">
        <ele>20.79</ele>
        <time>2021-08-30T23:46:53.320Z</time>
      </trkpt>
      <trkpt lat="49.27762" lon="-0.89289">
        <ele>20.79</ele>
        <time>2021-08-30T23:47:14.820Z</time>
      </trkpt>
      <trkpt lat="49.27738" lon="-0.89285">
        <ele>20.94</ele>
        <time>2021-08-30T23:47:36.324Z</time>
      </trkpt>
      <trkpt lat="49.27738" lon="-0.89285">
        <ele>20.94</ele>
        <time>2021-08-30T23:47:57.828Z</time>
      </trkpt>
      <trkpt lat="49.27535" lon="-0.89372">
        <ele>21.37</ele>
        <time>2021-08-30T23:48:19.366Z</time>
      </trkpt>
      <trkpt lat="49.27535" lon="-0.89372">
        <ele>21.37</ele>
        <time>2021-08-30T23:48:40.904Z</time>
      </trkpt>
      <trkpt lat="49.27395" lon="-0.89502">
        <ele>21.94</ele>
        <time>2021-08-30T23:49:02.468Z</time>
      </trkpt>
      <trkpt lat="49.27395" lon="-0.89502">
        <ele>21.94</ele>
        <time>2021-08-30T23:49:24.032Z</time>
      </trkpt>
      <trkpt lat="49.27363" lon="-0.89529">
        <ele>22.09</ele>
        <time>2021-08-30T23:49:45.602Z</time>
      </trkpt>
      <trkpt lat="49.27363" lon="-0.89529">
        <ele>22.09</ele>
        <time>2021-08-30T23:50:07.172Z</time>
      </trkpt>
      <trkpt lat="49.27321" lon="-0.89534">
        <ele>22.36</ele>
        <time>2021-08-30T23:50:28.749Z</time>
      </trkpt>
      <trkpt lat="49.27321" lon="-0.89534">
        <ele>22.36</ele>
        <time>2021-08-30T23:50:50.326Z</time>
      </trkpt>
      <trkpt lat="49.27287" lon="-0.89551">
        <ele>22.63</ele>
        <time>2021-08-30T23:51:11.909Z</time>
      </trkpt>
      <trkpt lat="49.27287" lon="-0.89551">
        <ele>22.63</ele>
        <time>2021-08-30T23:51:33.492Z</time>
      </trkpt>
      <trkpt lat="49.27235" lon="-0.89597">
        <ele>22.87</ele>
        <time>2021-08-30T23:51:55.084Z</time>
      </trkpt>
      <trkpt lat="49.27235" lon="-0.89597">
        <ele>22.87</ele>
        <time>2021-08-30T23:52:16.676Z</time>
      </trkpt>
      <trkpt lat="49.26942" lon="-0.89797">
        <ele>26.87</ele>
        <time>2021-08-30T23:52:38.320Z</time>
      </trkpt>
      <trkpt lat="49.26942" lon="-0.89797">
        <ele>26.87</ele>
        <time>2021-08-30T23:52:59.964Z</time>
      </trkpt>
      <trkpt lat="49.26923" lon="-0.89802">
        <ele>27.41</ele>
        <time>2021-08-30T23:53:21.611Z</time>
      </trkpt>
      <trkpt lat="49.26923" lon="-0.89802">
        <ele>27.41</ele>
        <time>2021-08-30T23:53:43.258Z</time>
      </trkpt>
      <trkpt lat="49.26898" lon="-0.898">
        <ele>26.13</ele>
        <time>2021-08-30T23:54:04.909Z</time>
      </trkpt>
      <trkpt lat="49.26898" lon="-0.898">
        <ele>26.13</ele>
        <time>2021-08-30T23:54:26.560Z</time>
      </trkpt>
      <trkpt lat="49.26865" lon="-0.89806">
        <ele>22.78</ele>
        <time>2021-08-30T23:54:48.216Z</time>
      </trkpt>
      <trkpt lat="49.26865" lon="-0.89806">
        <ele>22.78</ele>
        <time>2021-08-30T23:55:09.872Z</time>
      </trkpt>
      <trkpt lat="49.26847" lon="-0.89729">
        <ele>18.89</ele>
        <time>2021-08-30T23:55:31.537Z</time>
      </trkpt>
      <trkpt lat="49.26847" lon="-0.89729">
        <ele>18.89</ele>
        <time>2021-08-30T23:55:53.202Z</time>
      </trkpt>
      <trkpt lat="49.26821" lon="-0.89658">
        <ele>18.68</ele>
        <time>2021-08-30T23:56:14.875Z</time>
      </trkpt>
      <trkpt lat="49.26821" lon="-0.89658">
        <ele>18.68</ele>
        <time>2021-08-30T23:56:36.548Z</time>
      </trkpt>
      <trkpt lat="49.26805" lon="-0.89624">
        <ele>20.15</ele>
        <time>2021-08-30T23:56:58.226Z</time>
      </trkpt>
      <trkpt lat="49.26805" lon="-0.89624">
        <ele>20.15</ele>
        <time>2021-08-30T23:57:19.904Z</time>
      </trkpt>
      <trkpt lat="49.26769" lon="-0.89556">
        <ele>24.16</ele>
        <time>2021-08-30T23:57:41.591Z</time>
      </trkpt>
      <trkpt lat="49.26769" lon="-0.89556">
        <ele>24.16</ele>
        <time>2021-08-30T23:58:03.278Z</time>
      </trkpt>
      <trkpt lat="49.26725" lon="-0.89499">
        <ele>25.75</ele>
        <time>2021-08-30T23:58:24.974Z</time>
      </trkpt>
      <trkpt lat="49.26725" lon="-0.89499">
        <ele>25.75</ele>
        <time>2021-08-30T23:58:46.670Z</time>
      </trkpt>
      <trkpt lat="49.26684" lon="-0.89459">
        <ele>25.34</ele>
        <time>2021-08-30T23:59:08.374Z</time>
      </trkpt>
      <trkpt lat="49.26684" lon="-0.89459">
        <ele>25.34</ele>
        <time>2021-08-30T23:59:30.078Z</time>
      </trkpt>
      <trkpt lat="49.26632" lon="-0.89409">
        <ele>25.29</ele>
        <time>2021-08-30T23:59:51.792Z</time>
      </trkpt>
      <trkpt lat="49.26632" lon="-0.89409">
        <ele>25.29</ele>
        <time>2021-08-31T00:00:13.506Z</time>
      </trkpt>
      <trkpt lat="49.26591" lon="-0.89377">
        <ele>25.46</ele>
        <time>2021-08-31T00:00:35.227Z</time>
      </trkpt>
      <trkpt lat="49.26591" lon="-0.89377">
        <ele>25.46</ele>
        <time>2021-08-31T00:00:56.948Z</time>
      </trkpt>
      <trkpt lat="49.26555" lon="-0.89353">
        <ele>25.71</ele>
        <time>2021-08-31T00:01:18.675Z</time>
      </trkpt>
      <trkpt lat="49.26555" lon="-0.89353">
        <ele>25.71</ele>
        <time>2021-08-31T00:01:40.402Z</time>
      </trkpt>
      <trkpt lat="49.26485" lon="-0.89314">
        <ele>27.93</ele>
        <time>2021-08-31T00:02:02.141Z</time>
      </trkpt>
      <trkpt lat="49.26485" lon="-0.89314">
        <ele>27.93</ele>
        <time>2021-08-31T00:02:23.880Z</time>
      </trkpt>
      <trkpt lat="49.26407" lon="-0.89282">
        <ele>32.99</ele>
        <time>2021-08-31T00:02:45.632Z</time>
      </trkpt>
      <trkpt lat="49.26407" lon="-0.89282">
        <ele>32.99</ele>
        <time>2021-08-31T00:03:07.384Z</time>
      </trkpt>
      <trkpt lat="49.26273" lon="-0.89233">
        <ele>41.73</ele>
        <time>2021-08-31T00:03:29.158Z</time>
      </trkpt>
      <trkpt lat="49.26273" lon="-0.89233">
        <ele>41.73</ele>
        <time>2021-08-31T00:03:50.932Z</time>
      </trkpt>
      <trkpt lat="49.26219" lon="-0.89204">
        <ele>43.81</ele>
        <time>2021-08-31T00:04:12.715Z</time>
      </trkpt>
      <trkpt lat="49.26219" lon="-0.89204">
        <ele>43.81</ele>
        <time>2021-08-31T00:04:34.498Z</time>
      </trkpt>
      <trkpt lat="49.26183" lon="-0.89174">
        <ele>46.05</ele>
        <time>2021-08-31T00:04:56.288Z</time>
      </trkpt>
      <trkpt lat="49.26183" lon="-0.89174">
        <ele>46.05</ele>
        <time>2021-08-31T00:05:18.078Z</time>
      </trkpt>
      <trkpt lat="49.2612" lon="-0.89128">
        <ele>47.71</ele>
        <time>2021-08-31T00:05:39.879Z</time>
      </trkpt>
      <trkpt lat="49.2612" lon="-0.89128">
        <ele>47.71</ele>
        <time>2021-08-31T00:06:01.680Z</time>
      </trkpt>
      <trkpt lat="49.26098" lon="-0.89117">
        <ele>49.37</ele>
        <time>2021-08-31T00:06:23.485Z</time>
      </trkpt>
      <trkpt lat="49.26098" lon="-0.89117">
        <ele>49.37</ele>
        <time>2021-08-31T00:06:45.290Z</time>
      </trkpt>
      <trkpt lat="49.26036" lon="-0.89097">
        <ele>50.77</ele>
        <time>2021-08-31T00:07:07.105Z</time>
      </trkpt>
      <trkpt lat="49.26036" lon="-0.89097">
        <ele>50.77</ele>
        <time>2021-08-31T00:07:28.920Z</time>
      </trkpt>
      <trkpt lat="49.2591" lon="-0.8908">
        <ele>51.54</ele>
        <time>2021-08-31T00:07:50.755Z</time>
      </trkpt>
      <trkpt lat="49.2591" lon="-0.8908">
        <ele>51.54</ele>
        <time>2021-08-31T00:08:12.590Z</time>
      </trkpt>
      <trkpt lat="49.25866" lon="-0.8908">
        <ele>51.88</ele>
        <time>2021-08-31T00:08:34.432Z</time>
      </trkpt>
      <trkpt lat="49.25866" lon="-0.8908">
        <ele>51.88</ele>
        <time>2021-08-31T00:08:56.274Z</time>
      </trkpt>
      <trkpt lat="49.25853" lon="-0.89085">
        <ele>52.08</ele>
        <time>2021-08-31T00:09:18.118Z</time>
      </trkpt>
      <trkpt lat="49.25853" lon="-0.89085">
        <ele>52.08</ele>
        <time>2021-08-31T00:09:39.962Z</time>
      </trkpt>
      <trkpt lat="49.25832" lon="-0.89102">
        <ele>52.4</ele>
        <time>2021-08-31T00:10:01.810Z</time>
      </trkpt>
      <trkpt lat="49.25832" lon="-0.89102">
        <ele>52.4</ele>
        <time>2021-08-31T00:10:23.658Z</time>
      </trkpt>
      <trkpt lat="49.25769" lon="-0.89163">
        <ele>53.52</ele>
        <time>2021-08-31T00:10:45.518Z</time>
      </trkpt>
      <trkpt lat="49.25769" lon="-0.89163">
        <ele>53.52</ele>
        <time>2021-08-31T00:11:07.378Z</time>
      </trkpt>
      <trkpt lat="49.25747" lon="-0.8918">
        <ele>53.57</ele>
        <time>2021-08-31T00:11:29.242Z</time>
      </trkpt>
      <trkpt lat="49.25747" lon="-0.8918">
        <ele>53.57</ele>
        <time>2021-08-31T00:11:51.106Z</time>
      </trkpt>
      <trkpt lat="49.25724" lon="-0.89185">
        <ele>53.6</ele>
        <time>2021-08-31T00:12:12.974Z</time>
      </trkpt>
      <trkpt lat="49.25724" lon="-0.89185">
        <ele>53.6</ele>
        <time>2021-08-31T00:12:34.842Z</time>
      </trkpt>
      <trkpt lat="49.25703" lon="-0.89178">
        <ele>53.64</ele>
        <time>2021-08-31T00:12:56.713Z</time>
      </trkpt>
      <trkpt lat="49.25703" lon="-0.89178">
        <ele>53.64</ele>
        <time>2021-08-31T00:13:18.584Z</time>
      </trkpt>
      <trkpt lat="49.25678" lon="-0.89168">
        <ele>53.92</ele>
        <time>2021-08-31T00:13:40.459Z</time>
      </trkpt>
      <trkpt lat="49.25678" lon="-0.89168">
        <ele>53.92</ele>
        <time>2021-08-31T00:14:02.334Z</time>
      </trkpt>
      <trkpt lat="49.25649" lon="-0.89143">
        <ele>54.08</ele>
        <time>2021-08-31T00:14:24.215Z</time>
      </trkpt>
      <trkpt lat="49.25649" lon="-0.89143">
        <ele>54.08</ele>
        <time>2021-08-31T00:14:46.096Z</time>
      </trkpt>
      <trkpt lat="49.2559" lon="-0.89087">
        <ele>54.22</ele>
        <time>2021-08-31T00:15:07.988Z</time>
      </trkpt>
      <trkpt lat="49.2559" lon="-0.89087">
        <ele>54.22</ele>
        <time>2021-08-31T00:15:29.880Z</time>
      </trkpt>
      <trkpt lat="49.25561" lon="-0.89055">
        <ele>53.73</ele>
        <time>2021-08-31T00:15:51.778Z</time>
      </trkpt>
      <trkpt lat="49.25561" lon="-0.89055">
        <ele>53.73</ele>
        <time>2021-08-31T00:16:13.676Z</time>
      </trkpt>
      <trkpt lat="49.25536" lon="-0.89024">
        <ele>53.62</ele>
        <time>2021-08-31T00:16:35.579Z</time>
      </trkpt>
      <trkpt lat="49.25536" lon="-0.89024">
        <ele>53.62</ele>
        <time>2021-08-31T00:16:57.482Z</time>
      </trkpt>
      <trkpt lat="49.2532" lon="-0.88678">
        <ele>51.86</ele>
        <time>2021-08-31T00:17:19.435Z</time>
      </trkpt>
      <trkpt lat="49.2532" lon="-0.88678">
        <ele>51.86</ele>
        <time>2021-08-31T00:17:41.388Z</time>
      </trkpt>
      <trkpt lat="49.25207" lon="-0.88495">
        <ele>48.93</ele>
        <time>2021-08-31T00:18:03.367Z</time>
      </trkpt>
      <trkpt lat="49.25207" lon="-0.88495">
        <ele>48.93</ele>
        <time>2021-08-31T00:18:25.346Z</time>
      </trkpt>
      <trkpt lat="49.25203" lon="-0.88492">
        <ele>48.93</ele>
        <time>2021-08-31T00:18:47.326Z</time>
      </trkpt>
      <trkpt lat="49.25203" lon="-0.88492">
        <ele>48.93</ele>
        <time>2021-08-31T00:19:09.306Z</time>
      </trkpt>
      <trkpt lat="49.25194" lon="-0.88477">
        <ele>48.26</ele>
        <time>2021-08-31T00:19:31.288Z</time>
      </trkpt>
      <trkpt lat="49.25194" lon="-0.88477">
        <ele>48.26</ele>
        <time>2021-08-31T00:19:53.270Z</time>
      </trkpt>
      <trkpt lat="49.25189" lon="-0.88451">
        <ele>46.93</ele>
        <time>2021-08-31T00:20:15.255Z</time>
      </trkpt>
      <trkpt lat="49.25189" lon="-0.88451">
        <ele>46.93</ele>
        <time>2021-08-31T00:20:37.240Z</time>
      </trkpt>
      <trkpt lat="49.25191" lon="-0.88431">
        <ele>46.93</ele>
        <time>2021-08-31T00:20:59.227Z</time>
      </trkpt>
      <trkpt lat="49.25191" lon="-0.88431">
        <ele>46.93</ele>
        <time>2021-08-31T00:21:21.214Z</time>
      </trkpt>
      <trkpt lat="49.25218" lon="-0.8838">
        <ele>43.41</ele>
        <time>2021-08-31T00:21:43.208Z</time>
      </trkpt>
      <trkpt lat="49.25218" lon="-0.8838">
        <ele>43.41</ele>
        <time>2021-08-31T00:22:05.202Z</time>
      </trkpt>
      <trkpt lat="49.25223" lon="-0.88367">
        <ele>41.72</ele>
        <time>2021-08-31T00:22:27.198Z</time>
      </trkpt>
      <trkpt lat="49.25223" lon="-0.88367">
        <ele>41.72</ele>
        <time>2021-08-31T00:22:49.194Z</time>
      </trkpt>
      <trkpt lat="49.25228" lon="-0.88343">
        <ele>40.6</ele>
        <time>2021-08-31T00:23:11.192Z</time>
      </trkpt>
      <trkpt lat="49.25228" lon="-0.88343">
        <ele>40.6</ele>
        <time>2021-08-31T00:23:33.190Z</time>
      </trkpt>
      <trkpt lat="49.25228" lon="-0.88321">
        <ele>39.7</ele>
        <time>2021-08-31T00:23:55.190Z</time>
      </trkpt>
      <trkpt lat="49.25228" lon="-0.88321">
        <ele>39.7</ele>
        <time>2021-08-31T00:24:17.190Z</time>
      </trkpt>
      <trkpt lat="49.25215" lon="-0.88284">
        <ele>38.4</ele>
        <time>2021-08-31T00:24:39.195Z</time>
      </trkpt>
      <trkpt lat="49.25215" lon="-0.88284">
        <ele>38.4</ele>
        <time>2021-08-31T00:25:01.200Z</time>
      </trkpt>
      <trkpt lat="49.25199" lon="-0.88248">
        <ele>36.72</ele>
        <time>2021-08-31T00:25:23.209Z</time>
      </trkpt>
      <trkpt lat="49.25199" lon="-0.88248">
        <ele>36.72</ele>
        <time>2021-08-31T00:25:45.218Z</time>
      </trkpt>
      <trkpt lat="49.2517" lon="-0.88199">
        <ele>33</ele>
        <time>2021-08-31T00:26:07.234Z</time>
      </trkpt>
      <trkpt lat="49.2517" lon="-0.88199">
        <ele>33</ele>
        <time>2021-08-31T00:26:29.250Z</time>
      </trkpt>
      <trkpt lat="49.25142" lon="-0.88167">
        <ele>31.47</ele>
        <time>2021-08-31T00:26:51.272Z</time>
      </trkpt>
      <trkpt lat="49.25142" lon="-0.88167">
        <ele>31.47</ele>
        <time>2021-08-31T00:27:13.294Z</time>
      </trkpt>
      <trkpt lat="49.251" lon="-0.88126">
        <ele>30.48</ele>
        <time>2021-08-31T00:27:35.324Z</time>
      </trkpt>
      <trkpt lat="49.251" lon="-0.88126">
        <ele>30.48</ele>
        <time>2021-08-31T00:27:57.354Z</time>
      </trkpt>
      <trkpt lat="49.25057" lon="-0.88092">
        <ele>30.88</ele>
        <time>2021-08-31T00:28:19.392Z</time>
      </trkpt>
      <trkpt lat="49.25057" lon="-0.88092">
        <ele>30.88</ele>
        <time>2021-08-31T00:28:41.430Z</time>
      </trkpt>
      <trkpt lat="49.25027" lon="-0.88064">
        <ele>31.69</ele>
        <time>2021-08-31T00:29:03.473Z</time>
      </trkpt>
      <trkpt lat="49.25027" lon="-0.88064">
        <ele>31.69</ele>
        <time>2021-08-31T00:29:25.516Z</time>
      </trkpt>
      <trkpt lat="49.2501" lon="-0.88026">
        <ele>33.1</ele>
        <time>2021-08-31T00:29:47.564Z</time>
      </trkpt>
      <trkpt lat="49.2501" lon="-0.88026">
        <ele>33.1</ele>
        <time>2021-08-31T00:30:09.612Z</time>
      </trkpt>
      <trkpt lat="49.25004" lon="-0.88004">
        <ele>33.1</ele>
        <time>2021-08-31T00:30:31.663Z</time>
      </trkpt>
      <trkpt lat="49.25004" lon="-0.88004">
        <ele>33.1</ele>
        <time>2021-08-31T00:30:53.714Z</time>
      </trkpt>
      <trkpt lat="49.24997" lon="-0.87967">
        <ele>34.5</ele>
        <time>2021-08-31T00:31:15.769Z</time>
      </trkpt>
      <trkpt lat="49.24997" lon="-0.87967">
        <ele>34.5</ele>
        <time>2021-08-31T00:31:37.824Z</time>
      </trkpt>
      <trkpt lat="49.24997" lon="-0.87926">
        <ele>35.51</ele>
        <time>2021-08-31T00:31:59.883Z</time>
      </trkpt>
      <trkpt lat="49.24997" lon="-0.87926">
        <ele>35.51</ele>
        <time>2021-08-31T00:32:21.942Z</time>
      </trkpt>
      <trkpt lat="49.25036" lon="-0.87687">
        <ele>42.62</ele>
        <time>2021-08-31T00:32:44.027Z</time>
      </trkpt>
      <trkpt lat="49.25036" lon="-0.87687">
        <ele>42.62</ele>
        <time>2021-08-31T00:33:06.112Z</time>
      </trkpt>
      <trkpt lat="49.25035" lon="-0.8767">
        <ele>43.11</ele>
        <time>2021-08-31T00:33:28.199Z</time>
      </trkpt>
      <trkpt lat="49.25035" lon="-0.8767">
        <ele>43.11</ele>
        <time>2021-08-31T00:33:50.286Z</time>
      </trkpt>
      <trkpt lat="49.25027" lon="-0.8764">
        <ele>43.37</ele>
        <time>2021-08-31T00:34:12.376Z</time>
      </trkpt>
      <trkpt lat="49.25027" lon="-0.8764">
        <ele>43.37</ele>
        <time>2021-08-31T00:34:34.466Z</time>
      </trkpt>
      <trkpt lat="49.25009" lon="-0.87623">
        <ele>43.62</ele>
        <time>2021-08-31T00:34:56.559Z</time>
      </trkpt>
      <trkpt lat="49.25009" lon="-0.87623">
        <ele>43.62</ele>
        <time>2021-08-31T00:35:18.652Z</time>
      </trkpt>
      <trkpt lat="49.24996" lon="-0.8762">
        <ele>43.62</ele>
        <time>2021-08-31T00:35:40.748Z</time>
      </trkpt>
      <trkpt lat="49.24996" lon="-0.8762">
        <ele>43.62</ele>
        <time>2021-08-31T00:36:02.844Z</time>
      </trkpt>
      <trkpt lat="49.24987" lon="-0.87619">
        <ele>43.62</ele>
        <time>2021-08-31T00:36:24.941Z</time>
      </trkpt>
      <trkpt lat="49.24987" lon="-0.87619">
        <ele>43.62</ele>
        <time>2021-08-31T00:36:47.038Z</time>
      </trkpt>
      <trkpt lat="49.24981" lon="-0.87621">
        <ele>44.14</ele>
        <time>2021-08-31T00:37:09.136Z</time>
      </trkpt>
      <trkpt lat="49.24981" lon="-0.87621">
        <ele>44.14</ele>
        <time>2021-08-31T00:37:31.234Z</time>
      </trkpt>
      <trkpt lat="49.24905" lon="-0.87686">
        <ele>44.44</ele>
        <time>2021-08-31T00:37:53.346Z</time>
      </trkpt>
      <trkpt lat="49.24905" lon="-0.87686">
        <ele>44.44</ele>
        <time>2021-08-31T00:38:15.458Z</time>
      </trkpt>
      <trkpt lat="49.24875" lon="-0.87716">
        <ele>45.21</ele>
        <time>2021-08-31T00:38:37.576Z</time>
      </trkpt>
      <trkpt lat="49.24875" lon="-0.87716">
        <ele>45.21</ele>
        <time>2021-08-31T00:38:59.694Z</time>
      </trkpt>
      <trkpt lat="49.24822" lon="-0.87784">
        <ele>43.73</ele>
        <time>2021-08-31T00:39:21.823Z</time>
      </trkpt>
      <trkpt lat="49.24822" lon="-0.87784">
        <ele>43.73</ele>
        <time>2021-08-31T00:39:43.952Z</time>
      </trkpt>
      <trkpt lat="49.24748" lon="-0.87716">
        <ele>40.72</ele>
        <time>2021-08-31T00:40:06.095Z</time>
      </trkpt>
      <trkpt lat="49.24748" lon="-0.87716">
        <ele>40.72</ele>
        <time>2021-08-31T00:40:28.238Z</time>
      </trkpt>
      <trkpt lat="49.24293" lon="-0.87275">
        <ele>44.93</ele>
        <time>2021-08-31T00:40:50.467Z</time>
      </trkpt>
      <trkpt lat="49.24293" lon="-0.87275">
        <ele>44.93</ele>
        <time>2021-08-31T00:41:12.696Z</time>
      </trkpt>
      <trkpt lat="49.24289" lon="-0.87275">
        <ele>44.93</ele>
        <time>2021-08-31T00:41:34.925Z</time>
      </trkpt>
      <trkpt lat="49.24289" lon="-0.87275">
        <ele>44.93</ele>
        <time>2021-08-31T00:41:57.154Z</time>
      </trkpt>
      <trkpt lat="49.24281" lon="-0.87272">
        <ele>45.21</ele>
        <time>2021-08-31T00:42:19.385Z</time>
      </trkpt>
      <trkpt lat="49.24281" lon="-0.87272">
        <ele>45.21</ele>
        <time>2021-08-31T00:42:41.616Z</time>
      </trkpt>
      <trkpt lat="49.24276" lon="-0.87275">
        <ele>45.37</ele>
        <time>2021-08-31T00:43:03.848Z</time>
      </trkpt>
      <trkpt lat="49.24276" lon="-0.87275">
        <ele>45.37</ele>
        <time>2021-08-31T00:43:26.080Z</time>
      </trkpt>
      <trkpt lat="49.2427" lon="-0.87269">
        <ele>45.37</ele>
        <time>2021-08-31T00:43:48.313Z</time>
      </trkpt>
      <trkpt lat="49.2427" lon="-0.87269">
        <ele>45.37</ele>
        <time>2021-08-31T00:44:10.546Z</time>
      </trkpt>
      <trkpt lat="49.24259" lon="-0.87261">
        <ele>45.66</ele>
        <time>2021-08-31T00:44:32.781Z</time>
      </trkpt>
      <trkpt lat="49.24259" lon="-0.87261">
        <ele>45.66</ele>
        <time>2021-08-31T00:44:55.016Z</time>
      </trkpt>
      <trkpt lat="49.23926" lon="-0.8723">
        <ele>50.94</ele>
        <time>2021-08-31T00:45:17.304Z</time>
      </trkpt>
      <trkpt lat="49.23926" lon="-0.8723">
        <ele>50.94</ele>
        <time>2021-08-31T00:45:39.592Z</time>
      </trkpt>
      <trkpt lat="49.23854" lon="-0.87225">
        <ele>52.47</ele>
        <time>2021-08-31T00:46:01.892Z</time>
      </trkpt>
      <trkpt lat="49.23854" lon="-0.87225">
        <ele>52.47</ele>
        <time>2021-08-31T00:46:24.192Z</time>
      </trkpt>
      <trkpt lat="49.23058" lon="-0.87156">
        <ele>74.35</ele>
        <time>2021-08-31T00:46:46.619Z</time>
      </trkpt>
      <trkpt lat="49.23058" lon="-0.87156">
        <ele>74.35</ele>
        <time>2021-08-31T00:47:09.046Z</time>
      </trkpt>
      <trkpt lat="49.22893" lon="-0.87144">
        <ele>78.18</ele>
        <time>2021-08-31T00:47:31.500Z</time>
      </trkpt>
      <trkpt lat="49.22893" lon="-0.87144">
        <ele>78.18</ele>
        <time>2021-08-31T00:47:53.954Z</time>
      </trkpt>
      <trkpt lat="49.22787" lon="-0.87133">
        <ele>79.97</ele>
        <time>2021-08-31T00:48:16.425Z</time>
      </trkpt>
      <trkpt lat="49.22787" lon="-0.87133">
        <ele>79.97</ele>
        <time>2021-08-31T00:48:38.896Z</time>
      </trkpt>
      <trkpt lat="49.223" lon="-0.87096">
        <ele>85.39</ele>
        <time>2021-08-31T00:49:01.445Z</time>
      </trkpt>
      <trkpt lat="49.223" lon="-0.87096">
        <ele>85.39</ele>
        <time>2021-08-31T00:49:23.994Z</time>
      </trkpt>
      <trkpt lat="49.22267" lon="-0.8709">
        <ele>85.56</ele>
        <time>2021-08-31T00:49:46.548Z</time>
      </trkpt>
      <trkpt lat="49.22267" lon="-0.8709">
        <ele>85.56</ele>
        <time>2021-08-31T00:50:09.102Z</time>
      </trkpt>
      <trkpt lat="49.22126" lon="-0.87078">
        <ele>86.5</ele>
        <time>2021-08-31T00:50:31.679Z</time>
      </trkpt>
      <trkpt lat="49.22126" lon="-0.87078">
        <ele>86.5</ele>
        <time>2021-08-31T00:50:54.256Z</time>
      </trkpt>
      <trkpt lat="49.21622" lon="-0.8704">
        <ele>104.21</ele>
        <time>2021-08-31T00:51:16.914Z</time>
      </trkpt>
      <trkpt lat="49.21622" lon="-0.8704">
        <ele>104.21</ele>
        <time>2021-08-31T00:51:39.572Z</time>
      </trkpt>
      <trkpt lat="49.21571" lon="-0.87038">
        <ele>105.85</ele>
        <time>2021-08-31T00:52:02.238Z</time>
      </trkpt>
      <trkpt lat="49.21571" lon="-0.87038">
        <ele>105.85</ele>
        <time>2021-08-31T00:52:24.904Z</time>
      </trkpt>
      <trkpt lat="49.21522" lon="-0.87025">
        <ele>107.1</ele>
        <time>2021-08-31T00:52:47.578Z</time>
      </trkpt>
      <trkpt lat="49.21522" lon="-0.87025">
        <ele>107.1</ele>
        <time>2021-08-31T00:53:10.252Z</time>
      </trkpt>
      <trkpt lat="49.21449" lon="-0.87009">
        <ele>108.13</ele>
        <time>2021-08-31T00:53:32.938Z</time>
      </trkpt>
      <trkpt lat="49.21449" lon="-0.87009">
        <ele>108.13</ele>
        <time>2021-08-31T00:53:55.624Z</time>
      </trkpt>
      <trkpt lat="49.20473" lon="-0.86737">
        <ele>114.92</ele>
        <time>2021-08-31T00:54:18.469Z</time>
      </trkpt>
      <trkpt lat="49.20473" lon="-0.86737">
        <ele>114.92</ele>
        <time>2021-08-31T00:54:41.314Z</time>
      </trkpt>
      <trkpt lat="49.19412" lon="-0.86454">
        <ele>129.15</ele>
        <time>2021-08-31T00:55:04.331Z</time>
      </trkpt>
      <trkpt lat="49.19412" lon="-0.86454">
        <ele>129.15</ele>
        <time>2021-08-31T00:55:27.348Z</time>
      </trkpt>
      <trkpt lat="49.19398" lon="-0.86451">
        <ele>129.46</ele>
        <time>2021-08-31T00:55:50.367Z</time>
      </trkpt>
      <trkpt lat="49.19398" lon="-0.86451">
        <ele>129.46</ele>
        <time>2021-08-31T00:56:13.386Z</time>
      </trkpt>
      <trkpt lat="49.19375" lon="-0.8646">
        <ele>129.62</ele>
        <time>2021-08-31T00:56:36.409Z</time>
      </trkpt>
      <trkpt lat="49.19375" lon="-0.8646">
        <ele>129.62</ele>
        <time>2021-08-31T00:56:59.432Z</time>
      </trkpt>
      <trkpt lat="49.19368" lon="-0.86474">
        <ele>129.62</ele>
        <time>2021-08-31T00:57:22.457Z</time>
      </trkpt>
      <trkpt lat="49.19368" lon="-0.86474">
        <ele>129.62</ele>
        <time>2021-08-31T00:57:45.482Z</time>
      </trkpt>
      <trkpt lat="49.19363" lon="-0.86482">
        <ele>129.43</ele>
        <time>2021-08-31T00:58:08.508Z</time>
      </trkpt>
      <trkpt lat="49.19363" lon="-0.86482">
        <ele>129.43</ele>
        <time>2021-08-31T00:58:31.534Z</time>
      </trkpt>
      <trkpt lat="49.19351" lon="-0.86486">
        <ele>129.17</ele>
        <time>2021-08-31T00:58:54.562Z</time>
      </trkpt>
      <trkpt lat="49.19351" lon="-0.86486">
        <ele>129.17</ele>
        <time>2021-08-31T00:59:17.590Z</time>
      </trkpt>
      <trkpt lat="49.19339" lon="-0.86485">
        <ele>129.01</ele>
        <time>2021-08-31T00:59:40.620Z</time>
      </trkpt>
      <trkpt lat="49.19339" lon="-0.86485">
        <ele>129.01</ele>
        <time>2021-08-31T01:00:03.650Z</time>
      </trkpt>
      <trkpt lat="49.19331" lon="-0.86479">
        <ele>128.68</ele>
        <time>2021-08-31T01:00:26.681Z</time>
      </trkpt>
      <trkpt lat="49.19331" lon="-0.86479">
        <ele>128.68</ele>
        <time>2021-08-31T01:00:49.712Z</time>
      </trkpt>
      <trkpt lat="49.19324" lon="-0.8647">
        <ele>128.32</ele>
        <time>2021-08-31T01:01:12.745Z</time>
      </trkpt>
      <trkpt lat="49.19324" lon="-0.8647">
        <ele>128.32</ele>
        <time>2021-08-31T01:01:35.778Z</time>
      </trkpt>
      <trkpt lat="49.19317" lon="-0.86452">
        <ele>127.72</ele>
        <time>2021-08-31T01:01:58.813Z</time>
      </trkpt>
      <trkpt lat="49.19317" lon="-0.86452">
        <ele>127.72</ele>
        <time>2021-08-31T01:02:21.848Z</time>
      </trkpt>
      <trkpt lat="49.19316" lon="-0.86429">
        <ele>127.12</ele>
        <time>2021-08-31T01:02:44.886Z</time>
      </trkpt>
      <trkpt lat="49.19316" lon="-0.86429">
        <ele>127.12</ele>
        <time>2021-08-31T01:03:07.924Z</time>
      </trkpt>
      <trkpt lat="49.19321" lon="-0.86414">
        <ele>126.59</ele>
        <time>2021-08-31T01:03:30.963Z</time>
      </trkpt>
      <trkpt lat="49.19321" lon="-0.86414">
        <ele>126.59</ele>
        <time>2021-08-31T01:03:54.002Z</time>
      </trkpt>
      <trkpt lat="49.19315" lon="-0.86372">
        <ele>125.43</ele>
        <time>2021-08-31T01:04:17.046Z</time>
      </trkpt>
      <trkpt lat="49.19315" lon="-0.86372">
        <ele>125.43</ele>
        <time>2021-08-31T01:04:40.090Z</time>
      </trkpt>
      <trkpt lat="49.19183" lon="-0.86104">
        <ele>114.71</ele>
        <time>2021-08-31T01:05:03.169Z</time>
      </trkpt>
      <trkpt lat="49.19183" lon="-0.86104">
        <ele>114.71</ele>
        <time>2021-08-31T01:05:26.248Z</time>
      </trkpt>
      <trkpt lat="49.19141" lon="-0.86048">
        <ele>111.52</ele>
        <time>2021-08-31T01:05:49.336Z</time>
      </trkpt>
      <trkpt lat="49.19141" lon="-0.86048">
        <ele>111.52</ele>
        <time>2021-08-31T01:06:12.424Z</time>
      </trkpt>
      <trkpt lat="49.18588" lon="-0.85616">
        <ele>88.47</ele>
        <time>2021-08-31T01:06:35.611Z</time>
      </trkpt>
      <trkpt lat="49.18588" lon="-0.85616">
        <ele>88.47</ele>
        <time>2021-08-31T01:06:58.798Z</time>
      </trkpt>
      <trkpt lat="49.18553" lon="-0.85586">
        <ele>87.29</ele>
        <time>2021-08-31T01:07:21.992Z</time>
      </trkpt>
      <trkpt lat="49.18553" lon="-0.85586">
        <ele>87.29</ele>
        <time>2021-08-31T01:07:45.186Z</time>
      </trkpt>
      <trkpt lat="49.18532" lon="-0.85555">
        <ele>85.79</ele>
        <time>2021-08-31T01:08:08.385Z</time>
      </trkpt>
      <trkpt lat="49.18532" lon="-0.85555">
        <ele>85.79</ele>
        <time>2021-08-31T01:08:31.584Z</time>
      </trkpt>
      <trkpt lat="49.18523" lon="-0.85525">
        <ele>85.03</ele>
        <time>2021-08-31T01:08:54.786Z</time>
      </trkpt>
      <trkpt lat="49.18523" lon="-0.85525">
        <ele>85.03</ele>
        <time>2021-08-31T01:09:17.988Z</time>
      </trkpt>
      <trkpt lat="49.1851" lon="-0.85433">
        <ele>80.3</ele>
        <time>2021-08-31T01:09:41.200Z</time>
      </trkpt>
      <trkpt lat="49.1851" lon="-0.85433">
        <ele>80.3</ele>
        <time>2021-08-31T01:10:04.412Z</time>
      </trkpt>
      <trkpt lat="49.18449" lon="-0.84933">
        <ele>62.18</ele>
        <time>2021-08-31T01:10:27.677Z</time>
      </trkpt>
      <trkpt lat="49.18449" lon="-0.84933">
        <ele>62.18</ele>
        <time>2021-08-31T01:10:50.942Z</time>
      </trkpt>
      <trkpt lat="49.18432" lon="-0.84771">
        <ele>55.49</ele>
        <time>2021-08-31T01:11:14.225Z</time>
      </trkpt>
      <trkpt lat="49.18432" lon="-0.84771">
        <ele>55.49</ele>
        <time>2021-08-31T01:11:37.508Z</time>
      </trkpt>
      <trkpt lat="49.18402" lon="-0.84537">
        <ele>56.76</ele>
        <time>2021-08-31T01:12:00.816Z</time>
      </trkpt>
      <trkpt lat="49.18402" lon="-0.84537">
        <ele>56.76</ele>
        <time>2021-08-31T01:12:24.124Z</time>
      </trkpt>
      <trkpt lat="49.18394" lon="-0.84501">
        <ele>59.19</ele>
        <time>2021-08-31T01:12:47.436Z</time>
      </trkpt>
      <trkpt lat="49.18394" lon="-0.84501">
        <ele>59.19</ele>
        <time>2021-08-31T01:13:10.748Z</time>
      </trkpt>
      <trkpt lat="49.18383" lon="-0.84464">
        <ele>60.18</ele>
        <time>2021-08-31T01:13:34.064Z</time>
      </trkpt>
      <trkpt lat="49.18383" lon="-0.84464">
        <ele>60.18</ele>
        <time>2021-08-31T01:13:57.380Z</time>
      </trkpt>
      <trkpt lat="49.1837" lon="-0.84438">
        <ele>60.18</ele>
        <time>2021-08-31T01:14:20.699Z</time>
      </trkpt>
      <trkpt lat="49.1837" lon="-0.84438">
        <ele>60.18</ele>
        <time>2021-08-31T01:14:44.018Z</time>
      </trkpt>
      <trkpt lat="49.18128" lon="-0.83943">
        <ele>90.9</ele>
        <time>2021-08-31T01:15:07.402Z</time>
      </trkpt>
      <trkpt lat="49.18128" lon="-0.83943">
        <ele>90.9</ele>
        <time>2021-08-31T01:15:30.786Z</time>
      </trkpt>
      <trkpt lat="49.18097" lon="-0.83884">
        <ele>90.68</ele>
        <time>2021-08-31T01:15:54.178Z</time>
      </trkpt>
      <trkpt lat="49.18097" lon="-0.83884">
        <ele>90.68</ele>
        <time>2021-08-31T01:16:17.570Z</time>
      </trkpt>
      <trkpt lat="49.18088" lon="-0.83853">
        <ele>90.32</ele>
        <time>2021-08-31T01:16:40.966Z</time>
      </trkpt>
      <trkpt lat="49.18088" lon="-0.83853">
        <ele>90.32</ele>
        <time>2021-08-31T01:17:04.362Z</time>
      </trkpt>
      <trkpt lat="49.18085" lon="-0.83855">
        <ele>90.32</ele>
        <time>2021-08-31T01:17:27.758Z</time>
      </trkpt>
      <trkpt lat="49.18085" lon="-0.83855">
        <ele>90.32</ele>
        <time>2021-08-31T01:17:51.154Z</time>
      </trkpt>
      <trkpt lat="49.18078" lon="-0.83849">
        <ele>90.22</ele>
        <time>2021-08-31T01:18:14.551Z</time>
      </trkpt>
      <trkpt lat="49.18078" lon="-0.83849">
        <ele>90.22</ele>
        <time>2021-08-31T01:18:37.948Z</time>
      </trkpt>
      <trkpt lat="49.18078" lon="-0.83842">
        <ele>90.22</ele>
        <time>2021-08-31T01:19:01.346Z</time>
      </trkpt>
      <trkpt lat="49.18078" lon="-0.83842">
        <ele>90.22</ele>
        <time>2021-08-31T01:19:24.744Z</time>
      </trkpt>
      <trkpt lat="49.18053" lon="-0.83841">
        <ele>90.52</ele>
        <time>2021-08-31T01:19:48.146Z</time>
      </trkpt>
      <trkpt lat="49.18053" lon="-0.83841">
        <ele>90.52</ele>
        <time>2021-08-31T01:20:11.548Z</time>
      </trkpt>
      <trkpt lat="49.17999" lon="-0.83821">
        <ele>94.3</ele>
        <time>2021-08-31T01:20:34.959Z</time>
      </trkpt>
      <trkpt lat="49.17999" lon="-0.83821">
        <ele>94.3</ele>
        <time>2021-08-31T01:20:58.370Z</time>
      </trkpt>
      <trkpt lat="49.1731" lon="-0.83557">
        <ele>106.25</ele>
        <time>2021-08-31T01:21:21.895Z</time>
      </trkpt>
      <trkpt lat="49.1731" lon="-0.83557">
        <ele>106.25</ele>
        <time>2021-08-31T01:21:45.420Z</time>
      </trkpt>
      <trkpt lat="49.17275" lon="-0.83557">
        <ele>104.87</ele>
        <time>2021-08-31T01:22:08.950Z</time>
      </trkpt>
      <trkpt lat="49.17275" lon="-0.83557">
        <ele>104.87</ele>
        <time>2021-08-31T01:22:32.480Z</time>
      </trkpt>
      <trkpt lat="49.17247" lon="-0.83566">
        <ele>104.39</ele>
        <time>2021-08-31T01:22:56.015Z</time>
      </trkpt>
      <trkpt lat="49.17247" lon="-0.83566">
        <ele>104.39</ele>
        <time>2021-08-31T01:23:19.550Z</time>
      </trkpt>
      <trkpt lat="49.1718" lon="-0.83615">
        <ele>104.9</ele>
        <time>2021-08-31T01:23:43.097Z</time>
      </trkpt>
      <trkpt lat="49.1718" lon="-0.83615">
        <ele>104.9</ele>
        <time>2021-08-31T01:24:06.644Z</time>
      </trkpt>
      <trkpt lat="49.17158" lon="-0.83623">
        <ele>105.55</ele>
        <time>2021-08-31T01:24:30.194Z</time>
      </trkpt>
      <trkpt lat="49.17158" lon="-0.83623">
        <ele>105.55</ele>
        <time>2021-08-31T01:24:53.744Z</time>
      </trkpt>
      <trkpt lat="49.17137" lon="-0.83623">
        <ele>105.92</ele>
        <time>2021-08-31T01:25:17.298Z</time>
      </trkpt>
      <trkpt lat="49.17137" lon="-0.83623">
        <ele>105.92</ele>
        <time>2021-08-31T01:25:40.852Z</time>
      </trkpt>
      <trkpt lat="49.17108" lon="-0.8361">
        <ele>107.96</ele>
        <time>2021-08-31T01:26:04.411Z</time>
      </trkpt>
      <trkpt lat="49.17108" lon="-0.8361">
        <ele>107.96</ele>
        <time>2021-08-31T01:26:27.970Z</time>
      </trkpt>
      <trkpt lat="49.1705" lon="-0.83578">
        <ele>109.51</ele>
        <time>2021-08-31T01:26:51.539Z</time>
      </trkpt>
      <trkpt lat="49.1705" lon="-0.83578">
        <ele>109.51</ele>
        <time>2021-08-31T01:27:15.108Z</time>
      </trkpt>
      <trkpt lat="49.16996" lon="-0.83554">
        <ele>112.04</ele>
        <time>2021-08-31T01:27:38.686Z</time>
      </trkpt>
      <trkpt lat="49.16996" lon="-0.83554">
        <ele>112.04</ele>
        <time>2021-08-31T01:28:02.264Z</time>
      </trkpt>
      <trkpt lat="49.16906" lon="-0.83542">
        <ele>111.62</ele>
        <time>2021-08-31T01:28:25.856Z</time>
      </trkpt>
      <trkpt lat="49.16906" lon="-0.83542">
        <ele>111.62</ele>
        <time>2021-08-31T01:28:49.448Z</time>
      </trkpt>
      <trkpt lat="49.16797" lon="-0.83508">
        <ele>108.21</ele>
        <time>2021-08-31T01:29:13.058Z</time>
      </trkpt>
      <trkpt lat="49.16797" lon="-0.83508">
        <ele>108.21</ele>
        <time>2021-08-31T01:29:36.668Z</time>
      </trkpt>
      <trkpt lat="49.16772" lon="-0.83511">
        <ele>106.91</ele>
        <time>2021-08-31T01:30:00.282Z</time>
      </trkpt>
      <trkpt lat="49.16772" lon="-0.83511">
        <ele>106.91</ele>
        <time>2021-08-31T01:30:23.896Z</time>
      </trkpt>
      <trkpt lat="49.16746" lon="-0.8353">
        <ele>106.39</ele>
        <time>2021-08-31T01:30:47.514Z</time>
      </trkpt>
      <trkpt lat="49.16746" lon="-0.8353">
        <ele>106.39</ele>
        <time>2021-08-31T01:31:11.132Z</time>
      </trkpt>
      <trkpt lat="49.16713" lon="-0.83581">
        <ele>105.86</ele>
        <time>2021-08-31T01:31:34.758Z</time>
      </trkpt>
      <trkpt lat="49.16713" lon="-0.83581">
        <ele>105.86</ele>
        <time>2021-08-31T01:31:58.384Z</time>
      </trkpt>
      <trkpt lat="49.1669" lon="-0.83592">
        <ele>105.28</ele>
        <time>2021-08-31T01:32:22.014Z</time>
      </trkpt>
      <trkpt lat="49.1669" lon="-0.83592">
        <ele>105.28</ele>
        <time>2021-08-31T01:32:45.644Z</time>
      </trkpt>
      <trkpt lat="49.16668" lon="-0.83593">
        <ele>105.19</ele>
        <time>2021-08-31T01:33:09.277Z</time>
      </trkpt>
      <trkpt lat="49.16668" lon="-0.83593">
        <ele>105.19</ele>
        <time>2021-08-31T01:33:32.910Z</time>
      </trkpt>
      <trkpt lat="49.16627" lon="-0.83559">
        <ele>105.17</ele>
        <time>2021-08-31T01:33:56.551Z</time>
      </trkpt>
      <trkpt lat="49.16627" lon="-0.83559">
        <ele>105.17</ele>
        <time>2021-08-31T01:34:20.192Z</time>
      </trkpt>
      <trkpt lat="49.16591" lon="-0.83511">
        <ele>105.26</ele>
        <time>2021-08-31T01:34:43.841Z</time>
      </trkpt>
      <trkpt lat="49.16591" lon="-0.83511">
        <ele>105.26</ele>
        <time>2021-08-31T01:35:07.490Z</time>
      </trkpt>
      <trkpt lat="49.16576" lon="-0.83501">
        <ele>105.45</ele>
        <time>2021-08-31T01:35:31.141Z</time>
      </trkpt>
      <trkpt lat="49.16576" lon="-0.83501">
        <ele>105.45</ele>
        <time>2021-08-31T01:35:54.792Z</time>
      </trkpt>
      <trkpt lat="49.16556" lon="-0.83496">
        <ele>105.63</ele>
        <time>2021-08-31T01:36:18.446Z</time>
      </trkpt>
      <trkpt lat="49.16556" lon="-0.83496">
        <ele>105.63</ele>
        <time>2021-08-31T01:36:42.100Z</time>
      </trkpt>
      <trkpt lat="49.16498" lon="-0.83498">
        <ele>106.62</ele>
        <time>2021-08-31T01:37:05.764Z</time>
      </trkpt>
      <trkpt lat="49.16498" lon="-0.83498">
        <ele>106.62</ele>
        <time>2021-08-31T01:37:29.428Z</time>
      </trkpt>
      <trkpt lat="49.16474" lon="-0.83493">
        <ele>106.91</ele>
        <time>2021-08-31T01:37:53.096Z</time>
      </trkpt>
      <trkpt lat="49.16474" lon="-0.83493">
        <ele>106.91</ele>
        <time>2021-08-31T01:38:16.764Z</time>
      </trkpt>
      <trkpt lat="49.16304" lon="-0.8341">
        <ele>109.27</ele>
        <time>2021-08-31T01:38:40.460Z</time>
      </trkpt>
      <trkpt lat="49.16304" lon="-0.8341">
        <ele>109.27</ele>
        <time>2021-08-31T01:39:04.156Z</time>
      </trkpt>
      <trkpt lat="49.16087" lon="-0.83237">
        <ele>102.81</ele>
        <time>2021-08-31T01:39:27.891Z</time>
      </trkpt>
      <trkpt lat="49.16087" lon="-0.83237">
        <ele>102.81</ele>
        <time>2021-08-31T01:39:51.626Z</time>
      </trkpt>
      <trkpt lat="49.16054" lon="-0.83218">
        <ele>101.53</ele>
        <time>2021-08-31T01:40:15.367Z</time>
      </trkpt>
      <trkpt lat="49.16054" lon="-0.83218">
        <ele>101.53</ele>
        <time>2021-08-31T01:40:39.108Z</time>
      </trkpt>
      <trkpt lat="49.16025" lon="-0.83211">
        <ele>100.36</ele>
        <time>2021-08-31T01:41:02.854Z</time>
      </trkpt>
      <trkpt lat="49.16025" lon="-0.83211">
        <ele>100.36</ele>
        <time>2021-08-31T01:41:26.600Z</time>
      </trkpt>
      <trkpt lat="49.15805" lon="-0.83055">
        <ele>84.45</ele>
        <time>2021-08-31T01:41:50.385Z</time>
      </trkpt>
      <trkpt lat="49.15805" lon="-0.83055">
        <ele>84.45</ele>
        <time>2021-08-31T01:42:14.170Z</time>
      </trkpt>
      <trkpt lat="49.15711" lon="-0.82979">
        <ele>80.54</ele>
        <time>2021-08-31T01:42:37.972Z</time>
      </trkpt>
      <trkpt lat="49.15711" lon="-0.82979">
        <ele>80.54</ele>
        <time>2021-08-31T01:43:01.774Z</time>
      </trkpt>
      <trkpt lat="49.15671" lon="-0.82966">
        <ele>80.86</ele>
        <time>2021-08-31T01:43:25.582Z</time>
      </trkpt>
      <trkpt lat="49.15671" lon="-0.82966">
        <ele>80.86</ele>
        <time>2021-08-31T01:43:49.390Z</time>
      </trkpt>
      <trkpt lat="49.15622" lon="-0.82925">
        <ele>82.31</ele>
        <time>2021-08-31T01:44:13.207Z</time>
      </trkpt>
      <trkpt lat="49.15622" lon="-0.82925">
        <ele>82.31</ele>
        <time>2021-08-31T01:44:37.024Z</time>
      </trkpt>
      <trkpt lat="49.15569" lon="-0.82854">
        <ele>86.25</ele>
        <time>2021-08-31T01:45:00.852Z</time>
      </trkpt>
      <trkpt lat="49.15569" lon="-0.82854">
        <ele>86.25</ele>
        <time>2021-08-31T01:45:24.680Z</time>
      </trkpt>
      <trkpt lat="49.1555" lon="-0.82813">
        <ele>87.5</ele>
        <time>2021-08-31T01:45:48.514Z</time>
      </trkpt>
      <trkpt lat="49.1555" lon="-0.82813">
        <ele>87.5</ele>
        <time>2021-08-31T01:46:12.348Z</time>
      </trkpt>
      <trkpt lat="49.15538" lon="-0.82725">
        <ele>87.29</ele>
        <time>2021-08-31T01:46:36.191Z</time>
      </trkpt>
      <trkpt lat="49.15538" lon="-0.82725">
        <ele>87.29</ele>
        <time>2021-08-31T01:47:00.034Z</time>
      </trkpt>
      <trkpt lat="49.15493" lon="-0.82642">
        <ele>83.5</ele>
        <time>2021-08-31T01:47:23.888Z</time>
      </trkpt>
      <trkpt lat="49.15493" lon="-0.82642">
        <ele>83.5</ele>
        <time>2021-08-31T01:47:47.742Z</time>
      </trkpt>
      <trkpt lat="49.15479" lon="-0.82632">
        <ele>83.29</ele>
        <time>2021-08-31T01:48:11.599Z</time>
      </trkpt>
      <trkpt lat="49.15479" lon="-0.82632">
        <ele>83.29</ele>
        <time>2021-08-31T01:48:35.456Z</time>
      </trkpt>
      <trkpt lat="49.15434" lon="-0.82643">
        <ele>83.11</ele>
        <time>2021-08-31T01:48:59.320Z</time>
      </trkpt>
      <trkpt lat="49.15434" lon="-0.82643">
        <ele>83.11</ele>
        <time>2021-08-31T01:49:23.184Z</time>
      </trkpt>
      <trkpt lat="49.15398" lon="-0.82661">
        <ele>83.75</ele>
        <time>2021-08-31T01:49:47.054Z</time>
      </trkpt>
      <trkpt lat="49.15398" lon="-0.82661">
        <ele>83.75</ele>
        <time>2021-08-31T01:50:10.924Z</time>
      </trkpt>
      <trkpt lat="49.15375" lon="-0.82662">
        <ele>84.38</ele>
        <time>2021-08-31T01:50:34.798Z</time>
      </trkpt>
      <trkpt lat="49.15375" lon="-0.82662">
        <ele>84.38</ele>
        <time>2021-08-31T01:50:58.672Z</time>
      </trkpt>
      <trkpt lat="49.15351" lon="-0.82645">
        <ele>85.94</ele>
        <time>2021-08-31T01:51:22.550Z</time>
      </trkpt>
      <trkpt lat="49.15351" lon="-0.82645">
        <ele>85.94</ele>
        <time>2021-08-31T01:51:46.428Z</time>
      </trkpt>
      <trkpt lat="49.15301" lon="-0.82513">
        <ele>92.38</ele>
        <time>2021-08-31T01:52:10.322Z</time>
      </trkpt>
      <trkpt lat="49.15301" lon="-0.82513">
        <ele>92.38</ele>
        <time>2021-08-31T01:52:34.216Z</time>
      </trkpt>
      <trkpt lat="49.15278" lon="-0.82467">
        <ele>94.12</ele>
        <time>2021-08-31T01:52:58.116Z</time>
      </trkpt>
      <trkpt lat="49.15278" lon="-0.82467">
        <ele>94.12</ele>
        <time>2021-08-31T01:53:22.016Z</time>
      </trkpt>
      <trkpt lat="49.15267" lon="-0.82451">
        <ele>94.87</ele>
        <time>2021-08-31T01:53:45.919Z</time>
      </trkpt>
      <trkpt lat="49.15267" lon="-0.82451">
        <ele>94.87</ele>
        <time>2021-08-31T01:54:09.822Z</time>
      </trkpt>
      <trkpt lat="49.15253" lon="-0.82444">
        <ele>94.87</ele>
        <time>2021-08-31T01:54:33.727Z</time>
      </trkpt>
      <trkpt lat="49.15253" lon="-0.82444">
        <ele>94.87</ele>
        <time>2021-08-31T01:54:57.632Z</time>
      </trkpt>
      <trkpt lat="49.15216" lon="-0.82456">
        <ele>98.51</ele>
        <time>2021-08-31T01:55:21.543Z</time>
      </trkpt>
      <trkpt lat="49.15216" lon="-0.82456">
        <ele>98.51</ele>
        <time>2021-08-31T01:55:45.454Z</time>
      </trkpt>
      <trkpt lat="49.15084" lon="-0.82442">
        <ele>103.07</ele>
        <time>2021-08-31T01:56:09.386Z</time>
      </trkpt>
      <trkpt lat="49.15084" lon="-0.82442">
        <ele>103.07</ele>
        <time>2021-08-31T01:56:33.318Z</time>
      </trkpt>
      <trkpt lat="49.1506" lon="-0.82434">
        <ele>104.04</ele>
        <time>2021-08-31T01:56:57.254Z</time>
      </trkpt>
      <trkpt lat="49.1506" lon="-0.82434">
        <ele>104.04</ele>
        <time>2021-08-31T01:57:21.190Z</time>
      </trkpt>
      <trkpt lat="49.15036" lon="-0.8241">
        <ele>104.34</ele>
        <time>2021-08-31T01:57:45.131Z</time>
      </trkpt>
      <trkpt lat="49.15036" lon="-0.8241">
        <ele>104.34</ele>
        <time>2021-08-31T01:58:09.072Z</time>
      </trkpt>
      <trkpt lat="49.14994" lon="-0.82352">
        <ele>106.45</ele>
        <time>2021-08-31T01:58:33.022Z</time>
      </trkpt>
      <trkpt lat="49.14994" lon="-0.82352">
        <ele>106.45</ele>
        <time>2021-08-31T01:58:56.972Z</time>
      </trkpt>
      <trkpt lat="49.14866" lon="-0.82112">
        <ele>119.08</ele>
        <time>2021-08-31T01:59:20.954Z</time>
      </trkpt>
      <trkpt lat="49.14866" lon="-0.82112">
        <ele>119.08</ele>
        <time>2021-08-31T01:59:44.936Z</time>
      </trkpt>
      <trkpt lat="49.14816" lon="-0.82059">
        <ele>121.31</ele>
        <time>2021-08-31T02:00:08.928Z</time>
      </trkpt>
      <trkpt lat="49.14816" lon="-0.82059">
        <ele>121.31</ele>
        <time>2021-08-31T02:00:32.920Z</time>
      </trkpt>
      <trkpt lat="49.14799" lon="-0.8202">
        <ele>122.17</ele>
        <time>2021-08-31T02:00:56.917Z</time>
      </trkpt>
      <trkpt lat="49.14799" lon="-0.8202">
        <ele>122.17</ele>
        <time>2021-08-31T02:01:20.914Z</time>
      </trkpt>
      <trkpt lat="49.14771" lon="-0.81922">
        <ele>124</ele>
        <time>2021-08-31T02:01:44.922Z</time>
      </trkpt>
      <trkpt lat="49.14771" lon="-0.81922">
        <ele>124</ele>
        <time>2021-08-31T02:02:08.930Z</time>
      </trkpt>
      <trkpt lat="49.14747" lon="-0.81876">
        <ele>124.41</ele>
        <time>2021-08-31T02:02:32.945Z</time>
      </trkpt>
      <trkpt lat="49.14747" lon="-0.81876">
        <ele>124.41</ele>
        <time>2021-08-31T02:02:56.960Z</time>
      </trkpt>
      <trkpt lat="49.14661" lon="-0.81766">
        <ele>128.2</ele>
        <time>2021-08-31T02:03:20.992Z</time>
      </trkpt>
      <trkpt lat="49.14661" lon="-0.81766">
        <ele>128.2</ele>
        <time>2021-08-31T02:03:45.024Z</time>
      </trkpt>
      <trkpt lat="49.1462" lon="-0.81685">
        <ele>131.93</ele>
        <time>2021-08-31T02:04:09.067Z</time>
      </trkpt>
      <trkpt lat="49.1462" lon="-0.81685">
        <ele>131.93</ele>
        <time>2021-08-31T02:04:33.110Z</time>
      </trkpt>
      <trkpt lat="49.14334" lon="-0.81022">
        <ele>141.39</ele>
        <time>2021-08-31T02:04:57.237Z</time>
      </trkpt>
      <trkpt lat="49.14334" lon="-0.81022">
        <ele>141.39</ele>
        <time>2021-08-31T02:05:21.364Z</time>
      </trkpt>
      <trkpt lat="49.14318" lon="-0.81003">
        <ele>142</ele>
        <time>2021-08-31T02:05:45.494Z</time>
      </trkpt>
      <trkpt lat="49.14318" lon="-0.81003">
        <ele>142</ele>
        <time>2021-08-31T02:06:09.624Z</time>
      </trkpt>
      <trkpt lat="49.14304" lon="-0.80993">
        <ele>142.71</ele>
        <time>2021-08-31T02:06:33.756Z</time>
      </trkpt>
      <trkpt lat="49.14304" lon="-0.80993">
        <ele>142.71</ele>
        <time>2021-08-31T02:06:57.888Z</time>
      </trkpt>
      <trkpt lat="49.14279" lon="-0.8099">
        <ele>142.71</ele>
        <time>2021-08-31T02:07:22.024Z</time>
      </trkpt>
      <trkpt lat="49.14279" lon="-0.8099">
        <ele>142.71</ele>
        <time>2021-08-31T02:07:46.160Z</time>
      </trkpt>
      <trkpt lat="49.13429" lon="-0.80975">
        <ele>153.24</ele>
        <time>2021-08-31T02:08:10.432Z</time>
      </trkpt>
      <trkpt lat="49.13429" lon="-0.80975">
        <ele>153.24</ele>
        <time>2021-08-31T02:08:34.704Z</time>
      </trkpt>
      <trkpt lat="49.12632" lon="-0.80954">
        <ele>163.16</ele>
        <time>2021-08-31T02:08:59.104Z</time>
      </trkpt>
      <trkpt lat="49.12632" lon="-0.80954">
        <ele>163.16</ele>
        <time>2021-08-31T02:09:23.504Z</time>
      </trkpt>
      <trkpt lat="49.1259" lon="-0.8096">
        <ele>163.11</ele>
        <time>2021-08-31T02:09:47.911Z</time>
      </trkpt>
      <trkpt lat="49.1259" lon="-0.8096">
        <ele>163.11</ele>
        <time>2021-08-31T02:10:12.318Z</time>
      </trkpt>
      <trkpt lat="49.12572" lon="-0.80963">
        <ele>163.27</ele>
        <time>2021-08-31T02:10:36.728Z</time>
      </trkpt>
      <trkpt lat="49.12572" lon="-0.80963">
        <ele>163.27</ele>
        <time>2021-08-31T02:11:01.138Z</time>
      </trkpt>
      <trkpt lat="49.12538" lon="-0.80956">
        <ele>164.09</ele>
        <time>2021-08-31T02:11:25.553Z</time>
      </trkpt>
      <trkpt lat="49.12538" lon="-0.80956">
        <ele>164.09</ele>
        <time>2021-08-31T02:11:49.968Z</time>
      </trkpt>
      <trkpt lat="49.12348" lon="-0.80893">
        <ele>168.44</ele>
        <time>2021-08-31T02:12:14.414Z</time>
      </trkpt>
      <trkpt lat="49.12348" lon="-0.80893">
        <ele>168.44</ele>
        <time>2021-08-31T02:12:38.860Z</time>
      </trkpt>
      <trkpt lat="49.12248" lon="-0.80888">
        <ele>169.31</ele>
        <time>2021-08-31T02:13:03.322Z</time>
      </trkpt>
      <trkpt lat="49.12248" lon="-0.80888">
        <ele>169.31</ele>
        <time>2021-08-31T02:13:27.784Z</time>
      </trkpt>
      <trkpt lat="49.12094" lon="-0.80898">
        <ele>169.95</ele>
        <time>2021-08-31T02:13:52.271Z</time>
      </trkpt>
      <trkpt lat="49.12094" lon="-0.80898">
        <ele>169.95</ele>
        <time>2021-08-31T02:14:16.758Z</time>
      </trkpt>
      <trkpt lat="49.12043" lon="-0.80905">
        <ele>169.54</ele>
        <time>2021-08-31T02:14:41.253Z</time>
      </trkpt>
      <trkpt lat="49.12043" lon="-0.80905">
        <ele>169.54</ele>
        <time>2021-08-31T02:15:05.748Z</time>
      </trkpt>
      <trkpt lat="49.12033" lon="-0.80904">
        <ele>169.47</ele>
        <time>2021-08-31T02:15:30.245Z</time>
      </trkpt>
      <trkpt lat="49.12033" lon="-0.80904">
        <ele>169.47</ele>
        <time>2021-08-31T02:15:54.742Z</time>
      </trkpt>
      <trkpt lat="49.1201" lon="-0.80885">
        <ele>169.41</ele>
        <time>2021-08-31T02:16:19.243Z</time>
      </trkpt>
      <trkpt lat="49.1201" lon="-0.80885">
        <ele>169.41</ele>
        <time>2021-08-31T02:16:43.744Z</time>
      </trkpt>
      <trkpt lat="49.1189" lon="-0.80747">
        <ele>171.66</ele>
        <time>2021-08-31T02:17:08.269Z</time>
      </trkpt>
      <trkpt lat="49.1189" lon="-0.80747">
        <ele>171.66</ele>
        <time>2021-08-31T02:17:32.794Z</time>
      </trkpt>
      <trkpt lat="49.11546" lon="-0.80642">
        <ele>174.05</ele>
        <time>2021-08-31T02:17:57.375Z</time>
      </trkpt>
      <trkpt lat="49.11546" lon="-0.80642">
        <ele>174.05</ele>
        <time>2021-08-31T02:18:21.956Z</time>
      </trkpt>
      <trkpt lat="49.11366" lon="-0.80593">
        <ele>168.18</ele>
        <time>2021-08-31T02:18:46.567Z</time>
      </trkpt>
      <trkpt lat="49.11366" lon="-0.80593">
        <ele>168.18</ele>
        <time>2021-08-31T02:19:11.178Z</time>
      </trkpt>
      <trkpt lat="49.11341" lon="-0.80588">
        <ele>168.11</ele>
        <time>2021-08-31T02:19:35.793Z</time>
      </trkpt>
      <trkpt lat="49.11341" lon="-0.80588">
        <ele>168.11</ele>
        <time>2021-08-31T02:20:00.408Z</time>
      </trkpt>
      <trkpt lat="49.1132" lon="-0.80593">
        <ele>168</ele>
        <time>2021-08-31T02:20:25.026Z</time>
      </trkpt>
      <trkpt lat="49.1132" lon="-0.80593">
        <ele>168</ele>
        <time>2021-08-31T02:20:49.644Z</time>
      </trkpt>
      <trkpt lat="49.11306" lon="-0.80607">
        <ele>167.86</ele>
        <time>2021-08-31T02:21:14.265Z</time>
      </trkpt>
      <trkpt lat="49.11306" lon="-0.80607">
        <ele>167.86</ele>
        <time>2021-08-31T02:21:38.886Z</time>
      </trkpt>
      <trkpt lat="49.1121" lon="-0.80809">
        <ele>166.28</ele>
        <time>2021-08-31T02:22:03.533Z</time>
      </trkpt>
      <trkpt lat="49.1121" lon="-0.80809">
        <ele>166.28</ele>
        <time>2021-08-31T02:22:28.180Z</time>
      </trkpt>
      <trkpt lat="49.1115" lon="-0.80998">
        <ele>162.76</ele>
        <time>2021-08-31T02:22:52.849Z</time>
      </trkpt>
      <trkpt lat="49.1115" lon="-0.80998">
        <ele>162.76</ele>
        <time>2021-08-31T02:23:17.518Z</time>
      </trkpt>
      <trkpt lat="49.11132" lon="-0.8102">
        <ele>161.28</ele>
        <time>2021-08-31T02:23:42.191Z</time>
      </trkpt>
      <trkpt lat="49.11132" lon="-0.8102">
        <ele>161.28</ele>
        <time>2021-08-31T02:24:06.864Z</time>
      </trkpt>
      <trkpt lat="49.11109" lon="-0.81029">
        <ele>160.62</ele>
        <time>2021-08-31T02:24:31.541Z</time>
      </trkpt>
      <trkpt lat="49.11109" lon="-0.81029">
        <ele>160.62</ele>
        <time>2021-08-31T02:24:56.218Z</time>
      </trkpt>
      <trkpt lat="49.1088" lon="-0.80929">
        <ele>152.74</ele>
        <time>2021-08-31T02:25:20.933Z</time>
      </trkpt>
      <trkpt lat="49.1088" lon="-0.80929">
        <ele>152.74</ele>
        <time>2021-08-31T02:25:45.648Z</time>
      </trkpt>
      <trkpt lat="49.10777" lon="-0.80893">
        <ele>149.44</ele>
        <time>2021-08-31T02:26:10.380Z</time>
      </trkpt>
      <trkpt lat="49.10777" lon="-0.80893">
        <ele>149.44</ele>
        <time>2021-08-31T02:26:35.112Z</time>
      </trkpt>
      <trkpt lat="49.10693" lon="-0.80878">
        <ele>149.4</ele>
        <time>2021-08-31T02:26:59.857Z</time>
      </trkpt>
      <trkpt lat="49.10693" lon="-0.80878">
        <ele>149.4</ele>
        <time>2021-08-31T02:27:24.602Z</time>
      </trkpt>
      <trkpt lat="49.10687" lon="-0.80874">
        <ele>149.4</ele>
        <time>2021-08-31T02:27:49.348Z</time>
      </trkpt>
      <trkpt lat="49.10687" lon="-0.80874">
        <ele>149.4</ele>
        <time>2021-08-31T02:28:14.094Z</time>
      </trkpt>
      <trkpt lat="49.10546" lon="-0.80805">
        <ele>150.83</ele>
        <time>2021-08-31T02:28:38.864Z</time>
      </trkpt>
      <trkpt lat="49.10546" lon="-0.80805">
        <ele>150.83</ele>
        <time>2021-08-31T02:29:03.634Z</time>
      </trkpt>
      <trkpt lat="49.10444" lon="-0.80744">
        <ele>152.58</ele>
        <time>2021-08-31T02:29:28.422Z</time>
      </trkpt>
      <trkpt lat="49.10444" lon="-0.80744">
        <ele>152.58</ele>
        <time>2021-08-31T02:29:53.210Z</time>
      </trkpt>
      <trkpt lat="49.10389" lon="-0.80722">
        <ele>154.29</ele>
        <time>2021-08-31T02:30:18.007Z</time>
      </trkpt>
      <trkpt lat="49.10389" lon="-0.80722">
        <ele>154.29</ele>
        <time>2021-08-31T02:30:42.804Z</time>
      </trkpt>
      <trkpt lat="49.10305" lon="-0.80705">
        <ele>156.69</ele>
        <time>2021-08-31T02:31:07.614Z</time>
      </trkpt>
      <trkpt lat="49.10305" lon="-0.80705">
        <ele>156.69</ele>
        <time>2021-08-31T02:31:32.424Z</time>
      </trkpt>
      <trkpt lat="49.10203" lon="-0.80705">
        <ele>160</ele>
        <time>2021-08-31T02:31:57.251Z</time>
      </trkpt>
      <trkpt lat="49.10203" lon="-0.80705">
        <ele>160</ele>
        <time>2021-08-31T02:32:22.078Z</time>
      </trkpt>
      <trkpt lat="49.09977" lon="-0.80666">
        <ele>164.38</ele>
        <time>2021-08-31T02:32:46.941Z</time>
      </trkpt>
      <trkpt lat="49.09977" lon="-0.80666">
        <ele>164.38</ele>
        <time>2021-08-31T02:33:11.804Z</time>
      </trkpt>
      <trkpt lat="49.09889" lon="-0.80671">
        <ele>164.82</ele>
        <time>2021-08-31T02:33:36.681Z</time>
      </trkpt>
      <trkpt lat="49.09889" lon="-0.80671">
        <ele>164.82</ele>
        <time>2021-08-31T02:34:01.558Z</time>
      </trkpt>
      <trkpt lat="49.09699" lon="-0.807">
        <ele>172.36</ele>
        <time>2021-08-31T02:34:26.466Z</time>
      </trkpt>
      <trkpt lat="49.09699" lon="-0.807">
        <ele>172.36</ele>
        <time>2021-08-31T02:34:51.374Z</time>
      </trkpt>
      <trkpt lat="49.09656" lon="-0.8069">
        <ele>176.31</ele>
        <time>2021-08-31T02:35:16.289Z</time>
      </trkpt>
      <trkpt lat="49.09656" lon="-0.8069">
        <ele>176.31</ele>
        <time>2021-08-31T02:35:41.204Z</time>
      </trkpt>
      <trkpt lat="49.09614" lon="-0.80678">
        <ele>180.22</ele>
        <time>2021-08-31T02:36:06.125Z</time>
      </trkpt>
      <trkpt lat="49.09614" lon="-0.80678">
        <ele>180.22</ele>
        <time>2021-08-31T02:36:31.046Z</time>
      </trkpt>
      <trkpt lat="49.09482" lon="-0.80651">
        <ele>201.27</ele>
        <time>2021-08-31T02:36:55.989Z</time>
      </trkpt>
      <trkpt lat="49.09482" lon="-0.80651">
        <ele>201.27</ele>
        <time>2021-08-31T02:37:20.932Z</time>
      </trkpt>
      <trkpt lat="49.09405" lon="-0.80637">
        <ele>205.64</ele>
        <time>2021-08-31T02:37:45.887Z</time>
      </trkpt>
      <trkpt lat="49.09405" lon="-0.80637">
        <ele>205.64</ele>
        <time>2021-08-31T02:38:10.842Z</time>
      </trkpt>
      <trkpt lat="49.09359" lon="-0.80624">
        <ele>216.43</ele>
        <time>2021-08-31T02:38:35.805Z</time>
      </trkpt>
      <trkpt lat="49.09359" lon="-0.80624">
        <ele>216.43</ele>
        <time>2021-08-31T02:39:00.768Z</time>
      </trkpt>
      <trkpt lat="49.09286" lon="-0.80581">
        <ele>224.81</ele>
        <time>2021-08-31T02:39:25.743Z</time>
      </trkpt>
      <trkpt lat="49.09286" lon="-0.80581">
        <ele>224.81</ele>
        <time>2021-08-31T02:39:50.718Z</time>
      </trkpt>
      <trkpt lat="49.09254" lon="-0.80571">
        <ele>226.19</ele>
        <time>2021-08-31T02:40:15.698Z</time>
      </trkpt>
      <trkpt lat="49.09254" lon="-0.80571">
        <ele>226.19</ele>
        <time>2021-08-31T02:40:40.678Z</time>
      </trkpt>
      <trkpt lat="49.09067" lon="-0.80548">
        <ele>240.27</ele>
        <time>2021-08-31T02:41:05.688Z</time>
      </trkpt>
      <trkpt lat="49.09067" lon="-0.80548">
        <ele>240.27</ele>
        <time>2021-08-31T02:41:30.698Z</time>
      </trkpt>
      <trkpt lat="49.09069" lon="-0.80486">
        <ele>240.62</ele>
        <time>2021-08-31T02:41:55.715Z</time>
      </trkpt>
      <trkpt lat="49.09069" lon="-0.80486">
        <ele>240.62</ele>
        <time>2021-08-31T02:42:20.732Z</time>
      </trkpt>
      <trkpt lat="49.09065" lon="-0.80442">
        <ele>240.9</ele>
        <time>2021-08-31T02:42:45.754Z</time>
      </trkpt>
      <trkpt lat="49.09065" lon="-0.80442">
        <ele>240.9</ele>
        <time>2021-08-31T02:43:10.776Z</time>
      </trkpt>
      <trkpt lat="49.09065" lon="-0.80424">
        <ele>240.9</ele>
        <time>2021-08-31T02:43:35.800Z</time>
      </trkpt>
      <trkpt lat="49.09065" lon="-0.80424">
        <ele>240.9</ele>
        <time>2021-08-31T02:44:00.824Z</time>
      </trkpt>
      <trkpt lat="49.09067" lon="-0.80412">
        <ele>241.32</ele>
        <time>2021-08-31T02:44:25.849Z</time>
      </trkpt>
      <trkpt lat="49.09067" lon="-0.80412">
        <ele>241.32</ele>
        <time>2021-08-31T02:44:50.874Z</time>
      </trkpt>
      <trkpt lat="49.09063" lon="-0.8041">
        <ele>241.32</ele>
        <time>2021-08-31T02:45:15.900Z</time>
      </trkpt>
      <trkpt lat="49.09063" lon="-0.8041">
        <ele>241.32</ele>
        <time>2021-08-31T02:45:40.926Z</time>
      </trkpt>
      <trkpt lat="49.09008" lon="-0.80459">
        <ele>240.3</ele>
        <time>2021-08-31T02:46:05.962Z</time>
      </trkpt>
      <trkpt lat="49.09008" lon="-0.80459">
        <ele>240.3</ele>
        <time>2021-08-31T02:46:30.998Z</time>
      </trkpt>
      <trkpt lat="49.08997" lon="-0.80463">
        <ele>239.68</ele>
        <time>2021-08-31T02:46:56.036Z</time>
      </trkpt>
      <trkpt lat="49.08997" lon="-0.80463">
        <ele>239.68</ele>
        <time>2021-08-31T02:47:21.074Z</time>
      </trkpt>
      <trkpt lat="49.08986" lon="-0.80463">
        <ele>239.68</ele>
        <time>2021-08-31T02:47:46.113Z</time>
      </trkpt>
      <trkpt lat="49.08986" lon="-0.80463">
        <ele>239.68</ele>
        <time>2021-08-31T02:48:11.152Z</time>
      </trkpt>
      <trkpt lat="49.08976" lon="-0.80454">
        <ele>239</ele>
        <time>2021-08-31T02:48:36.193Z</time>
      </trkpt>
      <trkpt lat="49.08976" lon="-0.80454">
        <ele>239</ele>
        <time>2021-08-31T02:49:01.234Z</time>
      </trkpt>
      <trkpt lat="49.0894" lon="-0.80417">
        <ele>236.29</ele>
        <time>2021-08-31T02:49:26.282Z</time>
      </trkpt>
      <trkpt lat="49.0894" lon="-0.80417">
        <ele>236.29</ele>
        <time>2021-08-31T02:49:51.330Z</time>
      </trkpt>
      <trkpt lat="49.0884" lon="-0.80282">
        <ele>225.22</ele>
        <time>2021-08-31T02:50:16.400Z</time>
      </trkpt>
      <trkpt lat="49.0884" lon="-0.80282">
        <ele>225.22</ele>
        <time>2021-08-31T02:50:41.470Z</time>
      </trkpt>
      <trkpt lat="49.0878" lon="-0.80202">
        <ele>218.36</ele>
        <time>2021-08-31T02:51:06.552Z</time>
      </trkpt>
      <trkpt lat="49.0878" lon="-0.80202">
        <ele>218.36</ele>
        <time>2021-08-31T02:51:31.634Z</time>
      </trkpt>
      <trkpt lat="49.0874" lon="-0.8014">
        <ele>215.17</ele>
        <time>2021-08-31T02:51:56.725Z</time>
      </trkpt>
      <trkpt lat="49.0874" lon="-0.8014">
        <ele>215.17</ele>
        <time>2021-08-31T02:52:21.816Z</time>
      </trkpt>
      <trkpt lat="49.08723" lon="-0.80115">
        <ele>212.15</ele>
        <time>2021-08-31T02:52:46.911Z</time>
      </trkpt>
      <trkpt lat="49.08723" lon="-0.80115">
        <ele>212.15</ele>
        <time>2021-08-31T02:53:12.006Z</time>
      </trkpt>
      <trkpt lat="49.08702" lon="-0.80065">
        <ele>209.2</ele>
        <time>2021-08-31T02:53:37.107Z</time>
      </trkpt>
      <trkpt lat="49.08702" lon="-0.80065">
        <ele>209.2</ele>
        <time>2021-08-31T02:54:02.208Z</time>
      </trkpt>
      <trkpt lat="49.08681" lon="-0.80007">
        <ele>204.47</ele>
        <time>2021-08-31T02:54:27.316Z</time>
      </trkpt>
      <trkpt lat="49.08681" lon="-0.80007">
        <ele>204.47</ele>
        <time>2021-08-31T02:54:52.424Z</time>
      </trkpt>
      <trkpt lat="49.0861" lon="-0.79759">
        <ele>189.7</ele>
        <time>2021-08-31T02:55:17.561Z</time>
      </trkpt>
      <trkpt lat="49.0861" lon="-0.79759">
        <ele>189.7</ele>
        <time>2021-08-31T02:55:42.698Z</time>
      </trkpt>
      <trkpt lat="49.08597" lon="-0.79722">
        <ele>188.24</ele>
        <time>2021-08-31T02:56:07.839Z</time>
      </trkpt>
      <trkpt lat="49.08597" lon="-0.79722">
        <ele>188.24</ele>
        <time>2021-08-31T02:56:32.980Z</time>
      </trkpt>
      <trkpt lat="49.08569" lon="-0.7966">
        <ele>182.68</ele>
        <time>2021-08-31T02:56:58.129Z</time>
      </trkpt>
      <trkpt lat="49.08569" lon="-0.7966">
        <ele>182.68</ele>
        <time>2021-08-31T02:57:23.278Z</time>
      </trkpt>
      <trkpt lat="49.0851" lon="-0.79564">
        <ele>169.07</ele>
        <time>2021-08-31T02:57:48.441Z</time>
      </trkpt>
      <trkpt lat="49.0851" lon="-0.79564">
        <ele>169.07</ele>
        <time>2021-08-31T02:58:13.604Z</time>
      </trkpt>
      <trkpt lat="49.08401" lon="-0.79397">
        <ele>158.46</ele>
        <time>2021-08-31T02:58:38.792Z</time>
      </trkpt>
      <trkpt lat="49.08401" lon="-0.79397">
        <ele>158.46</ele>
        <time>2021-08-31T02:59:03.980Z</time>
      </trkpt>
      <trkpt lat="49.08389" lon="-0.79383">
        <ele>157.22</ele>
        <time>2021-08-31T02:59:29.170Z</time>
      </trkpt>
      <trkpt lat="49.08389" lon="-0.79383">
        <ele>157.22</ele>
        <time>2021-08-31T02:59:54.360Z</time>
      </trkpt>
      <trkpt lat="49.08364" lon="-0.79368">
        <ele>155.77</ele>
        <time>2021-08-31T03:00:19.555Z</time>
      </trkpt>
      <trkpt lat="49.08364" lon="-0.79368">
        <ele>155.77</ele>
        <time>2021-08-31T03:00:44.750Z</time>
      </trkpt>
      <trkpt lat="49.08279" lon="-0.79353">
        <ele>152.71</ele>
        <time>2021-08-31T03:01:09.958Z</time>
      </trkpt>
      <trkpt lat="49.08279" lon="-0.79353">
        <ele>152.71</ele>
        <time>2021-08-31T03:01:35.166Z</time>
      </trkpt>
      <trkpt lat="49.08247" lon="-0.79339">
        <ele>152.48</ele>
        <time>2021-08-31T03:02:00.380Z</time>
      </trkpt>
      <trkpt lat="49.08247" lon="-0.79339">
        <ele>152.48</ele>
        <time>2021-08-31T03:02:25.594Z</time>
      </trkpt>
      <trkpt lat="49.08143" lon="-0.79264">
        <ele>156.82</ele>
        <time>2021-08-31T03:02:50.826Z</time>
      </trkpt>
      <trkpt lat="49.08143" lon="-0.79264">
        <ele>156.82</ele>
        <time>2021-08-31T03:03:16.058Z</time>
      </trkpt>
      <trkpt lat="49.08119" lon="-0.79239">
        <ele>157.56</ele>
        <time>2021-08-31T03:03:41.295Z</time>
      </trkpt>
      <trkpt lat="49.08119" lon="-0.79239">
        <ele>157.56</ele>
        <time>2021-08-31T03:04:06.532Z</time>
      </trkpt>
      <trkpt lat="49.0809" lon="-0.79195">
        <ele>158.57</ele>
        <time>2021-08-31T03:04:31.775Z</time>
      </trkpt>
      <trkpt lat="49.0809" lon="-0.79195">
        <ele>158.57</ele>
        <time>2021-08-31T03:04:57.018Z</time>
      </trkpt>
      <trkpt lat="49.08057" lon="-0.79159">
        <ele>157.27</ele>
        <time>2021-08-31T03:05:22.268Z</time>
      </trkpt>
      <trkpt lat="49.08057" lon="-0.79159">
        <ele>157.27</ele>
        <time>2021-08-31T03:05:47.518Z</time>
      </trkpt>
      <trkpt lat="49.07887" lon="-0.79017">
        <ele>148.72</ele>
        <time>2021-08-31T03:06:12.799Z</time>
      </trkpt>
      <trkpt lat="49.07887" lon="-0.79017">
        <ele>148.72</ele>
        <time>2021-08-31T03:06:38.080Z</time>
      </trkpt>
      <trkpt lat="49.07859" lon="-0.78987">
        <ele>147.85</ele>
        <time>2021-08-31T03:07:03.366Z</time>
      </trkpt>
      <trkpt lat="49.07859" lon="-0.78987">
        <ele>147.85</ele>
        <time>2021-08-31T03:07:28.652Z</time>
      </trkpt>
      <trkpt lat="49.07837" lon="-0.78953">
        <ele>147.64</ele>
        <time>2021-08-31T03:07:53.943Z</time>
      </trkpt>
      <trkpt lat="49.07837" lon="-0.78953">
        <ele>147.64</ele>
        <time>2021-08-31T03:08:19.234Z</time>
      </trkpt>
      <trkpt lat="49.07818" lon="-0.78905">
        <ele>147.51</ele>
        <time>2021-08-31T03:08:44.531Z</time>
      </trkpt>
      <trkpt lat="49.07818" lon="-0.78905">
        <ele>147.51</ele>
        <time>2021-08-31T03:09:09.828Z</time>
      </trkpt>
      <trkpt lat="49.07745" lon="-0.78687">
        <ele>153.35</ele>
        <time>2021-08-31T03:09:35.151Z</time>
      </trkpt>
      <trkpt lat="49.07745" lon="-0.78687">
        <ele>153.35</ele>
        <time>2021-08-31T03:10:00.474Z</time>
      </trkpt>
      <trkpt lat="49.07732" lon="-0.78644">
        <ele>154.85</ele>
        <time>2021-08-31T03:10:25.802Z</time>
      </trkpt>
      <trkpt lat="49.07732" lon="-0.78644">
        <ele>154.85</ele>
        <time>2021-08-31T03:10:51.130Z</time>
      </trkpt>
      <trkpt lat="49.07716" lon="-0.78554">
        <ele>158.58</ele>
        <time>2021-08-31T03:11:16.468Z</time>
      </trkpt>
      <trkpt lat="49.07716" lon="-0.78554">
        <ele>158.58</ele>
        <time>2021-08-31T03:11:41.806Z</time>
      </trkpt>
      <trkpt lat="49.07696" lon="-0.7849">
        <ele>161.13</ele>
        <time>2021-08-31T03:12:07.151Z</time>
      </trkpt>
      <trkpt lat="49.07696" lon="-0.7849">
        <ele>161.13</ele>
        <time>2021-08-31T03:12:32.496Z</time>
      </trkpt>
      <trkpt lat="49.07626" lon="-0.78354">
        <ele>163.95</ele>
        <time>2021-08-31T03:12:57.859Z</time>
      </trkpt>
      <trkpt lat="49.07626" lon="-0.78354">
        <ele>163.95</ele>
        <time>2021-08-31T03:13:23.222Z</time>
      </trkpt>
      <trkpt lat="49.07594" lon="-0.78275">
        <ele>162.12</ele>
        <time>2021-08-31T03:13:48.595Z</time>
      </trkpt>
      <trkpt lat="49.07594" lon="-0.78275">
        <ele>162.12</ele>
        <time>2021-08-31T03:14:13.968Z</time>
      </trkpt>
      <trkpt lat="49.07566" lon="-0.78187">
        <ele>160.34</ele>
        <time>2021-08-31T03:14:39.351Z</time>
      </trkpt>
      <trkpt lat="49.07566" lon="-0.78187">
        <ele>160.34</ele>
        <time>2021-08-31T03:15:04.734Z</time>
      </trkpt>
      <trkpt lat="49.0751" lon="-0.77954">
        <ele>153.61</ele>
        <time>2021-08-31T03:15:30.144Z</time>
      </trkpt>
      <trkpt lat="49.0751" lon="-0.77954">
        <ele>153.61</ele>
        <time>2021-08-31T03:15:55.554Z</time>
      </trkpt>
      <trkpt lat="49.07488" lon="-0.7788">
        <ele>155.13</ele>
        <time>2021-08-31T03:16:20.972Z</time>
      </trkpt>
      <trkpt lat="49.07488" lon="-0.7788">
        <ele>155.13</ele>
        <time>2021-08-31T03:16:46.390Z</time>
      </trkpt>
      <trkpt lat="49.07443" lon="-0.77795">
        <ele>159.69</ele>
        <time>2021-08-31T03:17:11.820Z</time>
      </trkpt>
      <trkpt lat="49.07443" lon="-0.77795">
        <ele>159.69</ele>
        <time>2021-08-31T03:17:37.250Z</time>
      </trkpt>
      <trkpt lat="49.07419" lon="-0.77765">
        <ele>160.97</ele>
        <time>2021-08-31T03:18:02.685Z</time>
      </trkpt>
      <trkpt lat="49.07419" lon="-0.77765">
        <ele>160.97</ele>
        <time>2021-08-31T03:18:28.120Z</time>
      </trkpt>
      <trkpt lat="49.07392" lon="-0.77746">
        <ele>162.59</ele>
        <time>2021-08-31T03:18:53.559Z</time>
      </trkpt>
      <trkpt lat="49.07392" lon="-0.77746">
        <ele>162.59</ele>
        <time>2021-08-31T03:19:18.998Z</time>
      </trkpt>
      <trkpt lat="49.0732" lon="-0.777">
        <ele>165.28</ele>
        <time>2021-08-31T03:19:44.450Z</time>
      </trkpt>
      <trkpt lat="49.0732" lon="-0.777">
        <ele>165.28</ele>
        <time>2021-08-31T03:20:09.902Z</time>
      </trkpt>
      <trkpt lat="49.07274" lon="-0.7766">
        <ele>167.56</ele>
        <time>2021-08-31T03:20:35.362Z</time>
      </trkpt>
      <trkpt lat="49.07274" lon="-0.7766">
        <ele>167.56</ele>
        <time>2021-08-31T03:21:00.822Z</time>
      </trkpt>
      <trkpt lat="49.07246" lon="-0.77629">
        <ele>168.68</ele>
        <time>2021-08-31T03:21:26.288Z</time>
      </trkpt>
      <trkpt lat="49.07246" lon="-0.77629">
        <ele>168.68</ele>
        <time>2021-08-31T03:21:51.754Z</time>
      </trkpt>
      <trkpt lat="49.0722" lon="-0.7759">
        <ele>169.63</ele>
        <time>2021-08-31T03:22:17.226Z</time>
      </trkpt>
      <trkpt lat="49.0722" lon="-0.7759">
        <ele>169.63</ele>
        <time>2021-08-31T03:22:42.698Z</time>
      </trkpt>
      <trkpt lat="49.07058" lon="-0.77329">
        <ele>175.72</ele>
        <time>2021-08-31T03:23:08.207Z</time>
      </trkpt>
      <trkpt lat="49.07058" lon="-0.77329">
        <ele>175.72</ele>
        <time>2021-08-31T03:23:33.716Z</time>
      </trkpt>
      <trkpt lat="49.07" lon="-0.77241">
        <ele>178.05</ele>
        <time>2021-08-31T03:23:59.239Z</time>
      </trkpt>
      <trkpt lat="49.07" lon="-0.77241">
        <ele>178.05</ele>
        <time>2021-08-31T03:24:24.762Z</time>
      </trkpt>
      <trkpt lat="49.06924" lon="-0.77145">
        <ele>179.27</ele>
        <time>2021-08-31T03:24:50.300Z</time>
      </trkpt>
      <trkpt lat="49.06924" lon="-0.77145">
        <ele>179.27</ele>
        <time>2021-08-31T03:25:15.838Z</time>
      </trkpt>
      <trkpt lat="49.06624" lon="-0.76789">
        <ele>166.79</ele>
        <time>2021-08-31T03:25:41.437Z</time>
      </trkpt>
      <trkpt lat="49.06624" lon="-0.76789">
        <ele>166.79</ele>
        <time>2021-08-31T03:26:07.036Z</time>
      </trkpt>
      <trkpt lat="49.06608" lon="-0.76775">
        <ele>165.13</ele>
        <time>2021-08-31T03:26:32.638Z</time>
      </trkpt>
      <trkpt lat="49.06608" lon="-0.76775">
        <ele>165.13</ele>
        <time>2021-08-31T03:26:58.240Z</time>
      </trkpt>
      <trkpt lat="49.06588" lon="-0.76766">
        <ele>164.05</ele>
        <time>2021-08-31T03:27:23.846Z</time>
      </trkpt>
      <trkpt lat="49.06588" lon="-0.76766">
        <ele>164.05</ele>
        <time>2021-08-31T03:27:49.452Z</time>
      </trkpt>
      <trkpt lat="49.06571" lon="-0.76763">
        <ele>162.92</ele>
        <time>2021-08-31T03:28:15.060Z</time>
      </trkpt>
      <trkpt lat="49.06571" lon="-0.76763">
        <ele>162.92</ele>
        <time>2021-08-31T03:28:40.668Z</time>
      </trkpt>
      <trkpt lat="49.0654" lon="-0.76766">
        <ele>159.69</ele>
        <time>2021-08-31T03:29:06.281Z</time>
      </trkpt>
      <trkpt lat="49.0654" lon="-0.76766">
        <ele>159.69</ele>
        <time>2021-08-31T03:29:31.894Z</time>
      </trkpt>
      <trkpt lat="49.06506" lon="-0.76763">
        <ele>156.17</ele>
        <time>2021-08-31T03:29:57.513Z</time>
      </trkpt>
      <trkpt lat="49.06506" lon="-0.76763">
        <ele>156.17</ele>
        <time>2021-08-31T03:30:23.132Z</time>
      </trkpt>
      <trkpt lat="49.06478" lon="-0.76758">
        <ele>154.47</ele>
        <time>2021-08-31T03:30:48.755Z</time>
      </trkpt>
      <trkpt lat="49.06478" lon="-0.76758">
        <ele>154.47</ele>
        <time>2021-08-31T03:31:14.378Z</time>
      </trkpt>
      <trkpt lat="49.06442" lon="-0.7674">
        <ele>150.98</ele>
        <time>2021-08-31T03:31:40.007Z</time>
      </trkpt>
      <trkpt lat="49.06442" lon="-0.7674">
        <ele>150.98</ele>
        <time>2021-08-31T03:32:05.636Z</time>
      </trkpt>
      <trkpt lat="49.06426" lon="-0.76729">
        <ele>150.98</ele>
        <time>2021-08-31T03:32:31.268Z</time>
      </trkpt>
      <trkpt lat="49.06426" lon="-0.76729">
        <ele>150.98</ele>
        <time>2021-08-31T03:32:56.900Z</time>
      </trkpt>
      <trkpt lat="49.06351" lon="-0.76628">
        <ele>141.97</ele>
        <time>2021-08-31T03:33:22.548Z</time>
      </trkpt>
      <trkpt lat="49.06351" lon="-0.76628">
        <ele>141.97</ele>
        <time>2021-08-31T03:33:48.196Z</time>
      </trkpt>
      <trkpt lat="49.06306" lon="-0.76546">
        <ele>138.25</ele>
        <time>2021-08-31T03:34:13.855Z</time>
      </trkpt>
      <trkpt lat="49.06306" lon="-0.76546">
        <ele>138.25</ele>
        <time>2021-08-31T03:34:39.514Z</time>
      </trkpt>
      <trkpt lat="49.06239" lon="-0.76394">
        <ele>132.3</ele>
        <time>2021-08-31T03:35:05.193Z</time>
      </trkpt>
      <trkpt lat="49.06239" lon="-0.76394">
        <ele>132.3</ele>
        <time>2021-08-31T03:35:30.872Z</time>
      </trkpt>
      <trkpt lat="49.06192" lon="-0.76294">
        <ele>131.87</ele>
        <time>2021-08-31T03:35:56.564Z</time>
      </trkpt>
      <trkpt lat="49.06192" lon="-0.76294">
        <ele>131.87</ele>
        <time>2021-08-31T03:36:22.256Z</time>
      </trkpt>
      <trkpt lat="49.06108" lon="-0.76129">
        <ele>134.67</ele>
        <time>2021-08-31T03:36:47.970Z</time>
      </trkpt>
      <trkpt lat="49.06108" lon="-0.76129">
        <ele>134.67</ele>
        <time>2021-08-31T03:37:13.684Z</time>
      </trkpt>
      <trkpt lat="49.06076" lon="-0.7608">
        <ele>137.76</ele>
        <time>2021-08-31T03:37:39.405Z</time>
      </trkpt>
      <trkpt lat="49.06076" lon="-0.7608">
        <ele>137.76</ele>
        <time>2021-08-31T03:38:05.126Z</time>
      </trkpt>
      <trkpt lat="49.06042" lon="-0.76038">
        <ele>139.69</ele>
        <time>2021-08-31T03:38:30.854Z</time>
      </trkpt>
      <trkpt lat="49.06042" lon="-0.76038">
        <ele>139.69</ele>
        <time>2021-08-31T03:38:56.582Z</time>
      </trkpt>
      <trkpt lat="49.05984" lon="-0.75992">
        <ele>143.82</ele>
        <time>2021-08-31T03:39:22.320Z</time>
      </trkpt>
      <trkpt lat="49.05984" lon="-0.75992">
        <ele>143.82</ele>
        <time>2021-08-31T03:39:48.058Z</time>
      </trkpt>
      <trkpt lat="49.05864" lon="-0.75933">
        <ele>148.76</ele>
        <time>2021-08-31T03:40:13.817Z</time>
      </trkpt>
      <trkpt lat="49.05864" lon="-0.75933">
        <ele>148.76</ele>
        <time>2021-08-31T03:40:39.576Z</time>
      </trkpt>
      <trkpt lat="49.05574" lon="-0.75763">
        <ele>154.54</ele>
        <time>2021-08-31T03:41:05.384Z</time>
      </trkpt>
      <trkpt lat="49.05574" lon="-0.75763">
        <ele>154.54</ele>
        <time>2021-08-31T03:41:31.192Z</time>
      </trkpt>
      <trkpt lat="49.05502" lon="-0.75706">
        <ele>155.35</ele>
        <time>2021-08-31T03:41:57.013Z</time>
      </trkpt>
      <trkpt lat="49.05502" lon="-0.75706">
        <ele>155.35</ele>
        <time>2021-08-31T03:42:22.834Z</time>
      </trkpt>
      <trkpt lat="49.05342" lon="-0.7555">
        <ele>156.28</ele>
        <time>2021-08-31T03:42:48.686Z</time>
      </trkpt>
      <trkpt lat="49.05342" lon="-0.7555">
        <ele>156.28</ele>
        <time>2021-08-31T03:43:14.538Z</time>
      </trkpt>
      <trkpt lat="49.05306" lon="-0.75501">
        <ele>157.35</ele>
        <time>2021-08-31T03:43:40.397Z</time>
      </trkpt>
      <trkpt lat="49.05306" lon="-0.75501">
        <ele>157.35</ele>
        <time>2021-08-31T03:44:06.256Z</time>
      </trkpt>
      <trkpt lat="49.05283" lon="-0.75453">
        <ele>158.23</ele>
        <time>2021-08-31T03:44:32.122Z</time>
      </trkpt>
      <trkpt lat="49.05283" lon="-0.75453">
        <ele>158.23</ele>
        <time>2021-08-31T03:44:57.988Z</time>
      </trkpt>
      <trkpt lat="49.05189" lon="-0.75218">
        <ele>163.95</ele>
        <time>2021-08-31T03:45:23.883Z</time>
      </trkpt>
      <trkpt lat="49.05189" lon="-0.75218">
        <ele>163.95</ele>
        <time>2021-08-31T03:45:49.778Z</time>
      </trkpt>
      <trkpt lat="49.0517" lon="-0.75162">
        <ele>165.86</ele>
        <time>2021-08-31T03:46:15.679Z</time>
      </trkpt>
      <trkpt lat="49.0517" lon="-0.75162">
        <ele>165.86</ele>
        <time>2021-08-31T03:46:41.580Z</time>
      </trkpt>
      <trkpt lat="49.05154" lon="-0.75095">
        <ele>167.81</ele>
        <time>2021-08-31T03:47:07.489Z</time>
      </trkpt>
      <trkpt lat="49.05154" lon="-0.75095">
        <ele>167.81</ele>
        <time>2021-08-31T03:47:33.398Z</time>
      </trkpt>
      <trkpt lat="49.05147" lon="-0.7506">
        <ele>168.35</ele>
        <time>2021-08-31T03:47:59.311Z</time>
      </trkpt>
      <trkpt lat="49.05147" lon="-0.7506">
        <ele>168.35</ele>
        <time>2021-08-31T03:48:25.224Z</time>
      </trkpt>
      <trkpt lat="49.05146" lon="-0.75014">
        <ele>168.71</ele>
        <time>2021-08-31T03:48:51.142Z</time>
      </trkpt>
      <trkpt lat="49.05146" lon="-0.75014">
        <ele>168.71</ele>
        <time>2021-08-31T03:49:17.060Z</time>
      </trkpt>
      <trkpt lat="49.05141" lon="-0.7499">
        <ele>168.95</ele>
        <time>2021-08-31T03:49:42.980Z</time>
      </trkpt>
      <trkpt lat="49.05141" lon="-0.7499">
        <ele>168.95</ele>
        <time>2021-08-31T03:50:08.900Z</time>
      </trkpt>
      <trkpt lat="49.05135" lon="-0.74982">
        <ele>169.32</ele>
        <time>2021-08-31T03:50:34.821Z</time>
      </trkpt>
      <trkpt lat="49.05135" lon="-0.74982">
        <ele>169.32</ele>
        <time>2021-08-31T03:51:00.742Z</time>
      </trkpt>
      <trkpt lat="49.05126" lon="-0.74975">
        <ele>169.32</ele>
        <time>2021-08-31T03:51:26.665Z</time>
      </trkpt>
      <trkpt lat="49.05126" lon="-0.74975">
        <ele>169.32</ele>
        <time>2021-08-31T03:51:52.588Z</time>
      </trkpt>
      <trkpt lat="49.05092" lon="-0.7496">
        <ele>169.11</ele>
        <time>2021-08-31T03:52:18.517Z</time>
      </trkpt>
      <trkpt lat="49.05092" lon="-0.7496">
        <ele>169.11</ele>
        <time>2021-08-31T03:52:44.446Z</time>
      </trkpt>
      <trkpt lat="49.05074" lon="-0.7495">
        <ele>168.83</ele>
        <time>2021-08-31T03:53:10.378Z</time>
      </trkpt>
      <trkpt lat="49.05074" lon="-0.7495">
        <ele>168.83</ele>
        <time>2021-08-31T03:53:36.310Z</time>
      </trkpt>
      <trkpt lat="49.05057" lon="-0.74944">
        <ele>168.31</ele>
        <time>2021-08-31T03:54:02.245Z</time>
      </trkpt>
      <trkpt lat="49.05057" lon="-0.74944">
        <ele>168.31</ele>
        <time>2021-08-31T03:54:28.180Z</time>
      </trkpt>
      <trkpt lat="49.05018" lon="-0.74927">
        <ele>167.24</ele>
        <time>2021-08-31T03:54:54.121Z</time>
      </trkpt>
      <trkpt lat="49.05018" lon="-0.74927">
        <ele>167.24</ele>
        <time>2021-08-31T03:55:20.062Z</time>
      </trkpt>
      <trkpt lat="49.04995" lon="-0.74919">
        <ele>166.65</ele>
        <time>2021-08-31T03:55:46.007Z</time>
      </trkpt>
      <trkpt lat="49.04995" lon="-0.74919">
        <ele>166.65</ele>
        <time>2021-08-31T03:56:11.952Z</time>
      </trkpt>
      <trkpt lat="49.04977" lon="-0.74918">
        <ele>166.21</ele>
        <time>2021-08-31T03:56:37.900Z</time>
      </trkpt>
      <trkpt lat="49.04977" lon="-0.74918">
        <ele>166.21</ele>
        <time>2021-08-31T03:57:03.848Z</time>
      </trkpt>
      <trkpt lat="49.04959" lon="-0.74926">
        <ele>166.05</ele>
        <time>2021-08-31T03:57:29.799Z</time>
      </trkpt>
      <trkpt lat="49.04959" lon="-0.74926">
        <ele>166.05</ele>
        <time>2021-08-31T03:57:55.750Z</time>
      </trkpt>
      <trkpt lat="49.04926" lon="-0.74931">
        <ele>165.89</ele>
        <time>2021-08-31T03:58:21.706Z</time>
      </trkpt>
      <trkpt lat="49.04926" lon="-0.74931">
        <ele>165.89</ele>
        <time>2021-08-31T03:58:47.662Z</time>
      </trkpt>
      <trkpt lat="49.04903" lon="-0.74927">
        <ele>165.48</ele>
        <time>2021-08-31T03:59:13.622Z</time>
      </trkpt>
      <trkpt lat="49.04903" lon="-0.74927">
        <ele>165.48</ele>
        <time>2021-08-31T03:59:39.582Z</time>
      </trkpt>
      <trkpt lat="49.04897" lon="-0.74934">
        <ele>165.01</ele>
        <time>2021-08-31T04:00:05.543Z</time>
      </trkpt>
      <trkpt lat="49.04897" lon="-0.74934">
        <ele>165.01</ele>
        <time>2021-08-31T04:00:31.504Z</time>
      </trkpt>
      <trkpt lat="49.0489" lon="-0.74936">
        <ele>164.75</ele>
        <time>2021-08-31T04:00:57.466Z</time>
      </trkpt>
      <trkpt lat="49.0489" lon="-0.74936">
        <ele>164.75</ele>
        <time>2021-08-31T04:01:23.428Z</time>
      </trkpt>
      <trkpt lat="49.04883" lon="-0.74933">
        <ele>164.75</ele>
        <time>2021-08-31T04:01:49.391Z</time>
      </trkpt>
      <trkpt lat="49.04883" lon="-0.74933">
        <ele>164.75</ele>
        <time>2021-08-31T04:02:15.354Z</time>
      </trkpt>
      <trkpt lat="49.04876" lon="-0.74924">
        <ele>162.81</ele>
        <time>2021-08-31T04:02:41.319Z</time>
      </trkpt>
      <trkpt lat="49.04876" lon="-0.74924">
        <ele>162.81</ele>
        <time>2021-08-31T04:03:07.284Z</time>
      </trkpt>
      <trkpt lat="49.04874" lon="-0.74911">
        <ele>162.81</ele>
        <time>2021-08-31T04:03:33.250Z</time>
      </trkpt>
      <trkpt lat="49.04874" lon="-0.74911">
        <ele>162.81</ele>
        <time>2021-08-31T04:03:59.216Z</time>
      </trkpt>
      <trkpt lat="49.04875" lon="-0.74899">
        <ele>162.81</ele>
        <time>2021-08-31T04:04:25.183Z</time>
      </trkpt>
      <trkpt lat="49.04875" lon="-0.74899">
        <ele>162.81</ele>
        <time>2021-08-31T04:04:51.150Z</time>
      </trkpt>
      <trkpt lat="49.04881" lon="-0.74889">
        <ele>162.22</ele>
        <time>2021-08-31T04:05:17.119Z</time>
      </trkpt>
      <trkpt lat="49.04881" lon="-0.74889">
        <ele>162.22</ele>
        <time>2021-08-31T04:05:43.088Z</time>
      </trkpt>
      <trkpt lat="49.04895" lon="-0.74879">
        <ele>161.26</ele>
        <time>2021-08-31T04:06:09.059Z</time>
      </trkpt>
      <trkpt lat="49.04895" lon="-0.74879">
        <ele>161.26</ele>
        <time>2021-08-31T04:06:35.030Z</time>
      </trkpt>
      <trkpt lat="49.04902" lon="-0.74863">
        <ele>160.53</ele>
        <time>2021-08-31T04:07:01.003Z</time>
      </trkpt>
      <trkpt lat="49.04902" lon="-0.74863">
        <ele>160.53</ele>
        <time>2021-08-31T04:07:26.976Z</time>
      </trkpt>
      <trkpt lat="49.0492" lon="-0.74801">
        <ele>158.07</ele>
        <time>2021-08-31T04:07:52.957Z</time>
      </trkpt>
      <trkpt lat="49.0492" lon="-0.74801">
        <ele>158.07</ele>
        <time>2021-08-31T04:08:18.938Z</time>
      </trkpt>
      <trkpt lat="49.04917" lon="-0.74784">
        <ele>155.99</ele>
        <time>2021-08-31T04:08:44.920Z</time>
      </trkpt>
      <trkpt lat="49.04917" lon="-0.74784">
        <ele>155.99</ele>
        <time>2021-08-31T04:09:10.902Z</time>
      </trkpt>
      <trkpt lat="49.04898" lon="-0.74757">
        <ele>155.5</ele>
        <time>2021-08-31T04:09:36.889Z</time>
      </trkpt>
      <trkpt lat="49.04898" lon="-0.74757">
        <ele>155.5</ele>
        <time>2021-08-31T04:10:02.876Z</time>
      </trkpt>
      <trkpt lat="49.04788" lon="-0.74623">
        <ele>146.83</ele>
        <time>2021-08-31T04:10:28.885Z</time>
      </trkpt>
      <trkpt lat="49.04788" lon="-0.74623">
        <ele>146.83</ele>
        <time>2021-08-31T04:10:54.894Z</time>
      </trkpt>
      <trkpt lat="49.04727" lon="-0.74526">
        <ele>144.12</ele>
        <time>2021-08-31T04:11:20.917Z</time>
      </trkpt>
      <trkpt lat="49.04727" lon="-0.74526">
        <ele>144.12</ele>
        <time>2021-08-31T04:11:46.940Z</time>
      </trkpt>
      <trkpt lat="49.04691" lon="-0.74481">
        <ele>144.05</ele>
        <time>2021-08-31T04:12:12.971Z</time>
      </trkpt>
      <trkpt lat="49.04691" lon="-0.74481">
        <ele>144.05</ele>
        <time>2021-08-31T04:12:39.002Z</time>
      </trkpt>
      <trkpt lat="49.0463" lon="-0.74406">
        <ele>149.55</ele>
        <time>2021-08-31T04:13:05.045Z</time>
      </trkpt>
      <trkpt lat="49.0463" lon="-0.74406">
        <ele>149.55</ele>
        <time>2021-08-31T04:13:31.088Z</time>
      </trkpt>
      <trkpt lat="49.04603" lon="-0.7436">
        <ele>153.66</ele>
        <time>2021-08-31T04:13:57.138Z</time>
      </trkpt>
      <trkpt lat="49.04603" lon="-0.7436">
        <ele>153.66</ele>
        <time>2021-08-31T04:14:23.188Z</time>
      </trkpt>
      <trkpt lat="49.0455" lon="-0.74246">
        <ele>160.38</ele>
        <time>2021-08-31T04:14:49.252Z</time>
      </trkpt>
      <trkpt lat="49.0455" lon="-0.74246">
        <ele>160.38</ele>
        <time>2021-08-31T04:15:15.316Z</time>
      </trkpt>
      <trkpt lat="49.04512" lon="-0.74191">
        <ele>163.34</ele>
        <time>2021-08-31T04:15:41.389Z</time>
      </trkpt>
      <trkpt lat="49.04512" lon="-0.74191">
        <ele>163.34</ele>
        <time>2021-08-31T04:16:07.462Z</time>
      </trkpt>
      <trkpt lat="49.04405" lon="-0.74083">
        <ele>175.2</ele>
        <time>2021-08-31T04:16:33.555Z</time>
      </trkpt>
      <trkpt lat="49.04405" lon="-0.74083">
        <ele>175.2</ele>
        <time>2021-08-31T04:16:59.648Z</time>
      </trkpt>
      <trkpt lat="49.04328" lon="-0.73999">
        <ele>181.9</ele>
        <time>2021-08-31T04:17:25.757Z</time>
      </trkpt>
      <trkpt lat="49.04328" lon="-0.73999">
        <ele>181.9</ele>
        <time>2021-08-31T04:17:51.866Z</time>
      </trkpt>
      <trkpt lat="49.04297" lon="-0.73938">
        <ele>184.85</ele>
        <time>2021-08-31T04:18:17.983Z</time>
      </trkpt>
      <trkpt lat="49.04297" lon="-0.73938">
        <ele>184.85</ele>
        <time>2021-08-31T04:18:44.100Z</time>
      </trkpt>
      <trkpt lat="49.04268" lon="-0.73886">
        <ele>186.82</ele>
        <time>2021-08-31T04:19:10.224Z</time>
      </trkpt>
      <trkpt lat="49.04268" lon="-0.73886">
        <ele>186.82</ele>
        <time>2021-08-31T04:19:36.348Z</time>
      </trkpt>
      <trkpt lat="49.04165" lon="-0.73762">
        <ele>197.39</ele>
        <time>2021-08-31T04:20:02.493Z</time>
      </trkpt>
      <trkpt lat="49.04165" lon="-0.73762">
        <ele>197.39</ele>
        <time>2021-08-31T04:20:28.638Z</time>
      </trkpt>
      <trkpt lat="49.0415" lon="-0.7373">
        <ele>199.33</ele>
        <time>2021-08-31T04:20:54.787Z</time>
      </trkpt>
      <trkpt lat="49.0415" lon="-0.7373">
        <ele>199.33</ele>
        <time>2021-08-31T04:21:20.936Z</time>
      </trkpt>
      <trkpt lat="49.04127" lon="-0.7366">
        <ele>203.43</ele>
        <time>2021-08-31T04:21:47.093Z</time>
      </trkpt>
      <trkpt lat="49.04127" lon="-0.7366">
        <ele>203.43</ele>
        <time>2021-08-31T04:22:13.250Z</time>
      </trkpt>
      <trkpt lat="49.04118" lon="-0.73577">
        <ele>205.45</ele>
        <time>2021-08-31T04:22:39.416Z</time>
      </trkpt>
      <trkpt lat="49.04118" lon="-0.73577">
        <ele>205.45</ele>
        <time>2021-08-31T04:23:05.582Z</time>
      </trkpt>
      <trkpt lat="49.04119" lon="-0.73272">
        <ele>219.51</ele>
        <time>2021-08-31T04:23:31.780Z</time>
      </trkpt>
      <trkpt lat="49.04119" lon="-0.73272">
        <ele>219.51</ele>
        <time>2021-08-31T04:23:57.978Z</time>
      </trkpt>
      <trkpt lat="49.04104" lon="-0.73223">
        <ele>221.58</ele>
        <time>2021-08-31T04:24:24.182Z</time>
      </trkpt>
      <trkpt lat="49.04104" lon="-0.73223">
        <ele>221.58</ele>
        <time>2021-08-31T04:24:50.386Z</time>
      </trkpt>
      <trkpt lat="49.04086" lon="-0.73196">
        <ele>223.67</ele>
        <time>2021-08-31T04:25:16.594Z</time>
      </trkpt>
      <trkpt lat="49.04086" lon="-0.73196">
        <ele>223.67</ele>
        <time>2021-08-31T04:25:42.802Z</time>
      </trkpt>
      <trkpt lat="49.04058" lon="-0.73187">
        <ele>225.64</ele>
        <time>2021-08-31T04:26:09.015Z</time>
      </trkpt>
      <trkpt lat="49.04058" lon="-0.73187">
        <ele>225.64</ele>
        <time>2021-08-31T04:26:35.228Z</time>
      </trkpt>
      <trkpt lat="49.04038" lon="-0.73186">
        <ele>225.64</ele>
        <time>2021-08-31T04:27:01.444Z</time>
      </trkpt>
      <trkpt lat="49.04038" lon="-0.73186">
        <ele>225.64</ele>
        <time>2021-08-31T04:27:27.660Z</time>
      </trkpt>
      <trkpt lat="49.0401" lon="-0.73194">
        <ele>227.98</ele>
        <time>2021-08-31T04:27:53.880Z</time>
      </trkpt>
      <trkpt lat="49.0401" lon="-0.73194">
        <ele>227.98</ele>
        <time>2021-08-31T04:28:20.100Z</time>
      </trkpt>
      <trkpt lat="49.03962" lon="-0.73221">
        <ele>230.07</ele>
        <time>2021-08-31T04:28:46.329Z</time>
      </trkpt>
      <trkpt lat="49.03962" lon="-0.73221">
        <ele>230.07</ele>
        <time>2021-08-31T04:29:12.558Z</time>
      </trkpt>
      <trkpt lat="49.03937" lon="-0.73225">
        <ele>231.05</ele>
        <time>2021-08-31T04:29:38.791Z</time>
      </trkpt>
      <trkpt lat="49.03937" lon="-0.73225">
        <ele>231.05</ele>
        <time>2021-08-31T04:30:05.024Z</time>
      </trkpt>
      <trkpt lat="49.03907" lon="-0.73218">
        <ele>231.61</ele>
        <time>2021-08-31T04:30:31.261Z</time>
      </trkpt>
      <trkpt lat="49.03907" lon="-0.73218">
        <ele>231.61</ele>
        <time>2021-08-31T04:30:57.498Z</time>
      </trkpt>
      <trkpt lat="49.03874" lon="-0.73199">
        <ele>232.38</ele>
        <time>2021-08-31T04:31:23.741Z</time>
      </trkpt>
      <trkpt lat="49.03874" lon="-0.73199">
        <ele>232.38</ele>
        <time>2021-08-31T04:31:49.984Z</time>
      </trkpt>
      <trkpt lat="49.03767" lon="-0.7305">
        <ele>234.32</ele>
        <time>2021-08-31T04:32:16.250Z</time>
      </trkpt>
      <trkpt lat="49.03767" lon="-0.7305">
        <ele>234.32</ele>
        <time>2021-08-31T04:32:42.516Z</time>
      </trkpt>
      <trkpt lat="49.03752" lon="-0.73035">
        <ele>234.68</ele>
        <time>2021-08-31T04:33:08.785Z</time>
      </trkpt>
      <trkpt lat="49.03752" lon="-0.73035">
        <ele>234.68</ele>
        <time>2021-08-31T04:33:35.054Z</time>
      </trkpt>
      <trkpt lat="49.03725" lon="-0.73019">
        <ele>233.87</ele>
        <time>2021-08-31T04:34:01.328Z</time>
      </trkpt>
      <trkpt lat="49.03725" lon="-0.73019">
        <ele>233.87</ele>
        <time>2021-08-31T04:34:27.602Z</time>
      </trkpt>
      <trkpt lat="49.03718" lon="-0.73008">
        <ele>233.87</ele>
        <time>2021-08-31T04:34:53.877Z</time>
      </trkpt>
      <trkpt lat="49.03718" lon="-0.73008">
        <ele>233.87</ele>
        <time>2021-08-31T04:35:20.152Z</time>
      </trkpt>
      <trkpt lat="49.03712" lon="-0.72991">
        <ele>231.36</ele>
        <time>2021-08-31T04:35:46.429Z</time>
      </trkpt>
      <trkpt lat="49.03712" lon="-0.72991">
        <ele>231.36</ele>
        <time>2021-08-31T04:36:12.706Z</time>
      </trkpt>
      <trkpt lat="49.03705" lon="-0.72958">
        <ele>231.36</ele>
        <time>2021-08-31T04:36:38.987Z</time>
      </trkpt>
      <trkpt lat="49.03705" lon="-0.72958">
        <ele>231.36</ele>
        <time>2021-08-31T04:37:05.268Z</time>
      </trkpt>
      <trkpt lat="49.03691" lon="-0.72906">
        <ele>228.83</ele>
        <time>2021-08-31T04:37:31.555Z</time>
      </trkpt>
      <trkpt lat="49.03691" lon="-0.72906">
        <ele>228.83</ele>
        <time>2021-08-31T04:37:57.842Z</time>
      </trkpt>
      <trkpt lat="49.03683" lon="-0.72894">
        <ele>228.65</ele>
        <time>2021-08-31T04:38:24.131Z</time>
      </trkpt>
      <trkpt lat="49.03683" lon="-0.72894">
        <ele>228.65</ele>
        <time>2021-08-31T04:38:50.420Z</time>
      </trkpt>
      <trkpt lat="49.03665" lon="-0.72881">
        <ele>227.73</ele>
        <time>2021-08-31T04:39:16.712Z</time>
      </trkpt>
      <trkpt lat="49.03665" lon="-0.72881">
        <ele>227.73</ele>
        <time>2021-08-31T04:39:43.004Z</time>
      </trkpt>
      <trkpt lat="49.03653" lon="-0.72869">
        <ele>227.51</ele>
        <time>2021-08-31T04:40:09.298Z</time>
      </trkpt>
      <trkpt lat="49.03653" lon="-0.72869">
        <ele>227.51</ele>
        <time>2021-08-31T04:40:35.592Z</time>
      </trkpt>
      <trkpt lat="49.03643" lon="-0.72853">
        <ele>227.34</ele>
        <time>2021-08-31T04:41:01.889Z</time>
      </trkpt>
      <trkpt lat="49.03643" lon="-0.72853">
        <ele>227.34</ele>
        <time>2021-08-31T04:41:28.186Z</time>
      </trkpt>
      <trkpt lat="49.03632" lon="-0.72831">
        <ele>227.22</ele>
        <time>2021-08-31T04:41:54.486Z</time>
      </trkpt>
      <trkpt lat="49.03632" lon="-0.72831">
        <ele>227.22</ele>
        <time>2021-08-31T04:42:20.786Z</time>
      </trkpt>
      <trkpt lat="49.03623" lon="-0.72806">
        <ele>226.87</ele>
        <time>2021-08-31T04:42:47.089Z</time>
      </trkpt>
      <trkpt lat="49.03623" lon="-0.72806">
        <ele>226.87</ele>
        <time>2021-08-31T04:43:13.392Z</time>
      </trkpt>
      <trkpt lat="49.03531" lon="-0.72389">
        <ele>217.95</ele>
        <time>2021-08-31T04:43:39.741Z</time>
      </trkpt>
      <trkpt lat="49.03531" lon="-0.72389">
        <ele>217.95</ele>
        <time>2021-08-31T04:44:06.090Z</time>
      </trkpt>
      <trkpt lat="49.03481" lon="-0.72223">
        <ele>205.44</ele>
        <time>2021-08-31T04:44:32.458Z</time>
      </trkpt>
      <trkpt lat="49.03481" lon="-0.72223">
        <ele>205.44</ele>
        <time>2021-08-31T04:44:58.826Z</time>
      </trkpt>
      <trkpt lat="49.03427" lon="-0.72079">
        <ele>195.77</ele>
        <time>2021-08-31T04:45:25.212Z</time>
      </trkpt>
      <trkpt lat="49.03427" lon="-0.72079">
        <ele>195.77</ele>
        <time>2021-08-31T04:45:51.598Z</time>
      </trkpt>
      <trkpt lat="49.03364" lon="-0.71938">
        <ele>194.15</ele>
        <time>2021-08-31T04:46:18.001Z</time>
      </trkpt>
      <trkpt lat="49.03364" lon="-0.71938">
        <ele>194.15</ele>
        <time>2021-08-31T04:46:44.404Z</time>
      </trkpt>
      <trkpt lat="49.03348" lon="-0.71886">
        <ele>196.82</ele>
        <time>2021-08-31T04:47:10.814Z</time>
      </trkpt>
      <trkpt lat="49.03348" lon="-0.71886">
        <ele>196.82</ele>
        <time>2021-08-31T04:47:37.224Z</time>
      </trkpt>
      <trkpt lat="49.03277" lon="-0.71599">
        <ele>212.97</ele>
        <time>2021-08-31T04:48:03.666Z</time>
      </trkpt>
      <trkpt lat="49.03277" lon="-0.71599">
        <ele>212.97</ele>
        <time>2021-08-31T04:48:30.108Z</time>
      </trkpt>
      <trkpt lat="49.03263" lon="-0.71389">
        <ele>213.06</ele>
        <time>2021-08-31T04:48:56.572Z</time>
      </trkpt>
      <trkpt lat="49.03263" lon="-0.71389">
        <ele>213.06</ele>
        <time>2021-08-31T04:49:23.036Z</time>
      </trkpt>
      <trkpt lat="49.03243" lon="-0.71276">
        <ele>215.36</ele>
        <time>2021-08-31T04:49:49.512Z</time>
      </trkpt>
      <trkpt lat="49.03243" lon="-0.71276">
        <ele>215.36</ele>
        <time>2021-08-31T04:50:15.988Z</time>
      </trkpt>
      <trkpt lat="49.03186" lon="-0.71055">
        <ele>220.16</ele>
        <time>2021-08-31T04:50:42.489Z</time>
      </trkpt>
      <trkpt lat="49.03186" lon="-0.71055">
        <ele>220.16</ele>
        <time>2021-08-31T04:51:08.990Z</time>
      </trkpt>
      <trkpt lat="49.03218" lon="-0.70218">
        <ele>226.76</ele>
        <time>2021-08-31T04:51:35.580Z</time>
      </trkpt>
      <trkpt lat="49.03218" lon="-0.70218">
        <ele>226.76</ele>
        <time>2021-08-31T04:52:02.170Z</time>
      </trkpt>
      <trkpt lat="49.0321" lon="-0.70167">
        <ele>226.01</ele>
        <time>2021-08-31T04:52:28.765Z</time>
      </trkpt>
      <trkpt lat="49.0321" lon="-0.70167">
        <ele>226.01</ele>
        <time>2021-08-31T04:52:55.360Z</time>
      </trkpt>
      <trkpt lat="49.03187" lon="-0.70122">
        <ele>224.76</ele>
        <time>2021-08-31T04:53:21.961Z</time>
      </trkpt>
      <trkpt lat="49.03187" lon="-0.70122">
        <ele>224.76</ele>
        <time>2021-08-31T04:53:48.562Z</time>
      </trkpt>
      <trkpt lat="49.02901" lon="-0.69733">
        <ele>208.66</ele>
        <time>2021-08-31T04:54:15.225Z</time>
      </trkpt>
      <trkpt lat="49.02901" lon="-0.69733">
        <ele>208.66</ele>
        <time>2021-08-31T04:54:41.888Z</time>
      </trkpt>
      <trkpt lat="49.02793" lon="-0.69473">
        <ele>195.89</ele>
        <time>2021-08-31T04:55:08.583Z</time>
      </trkpt>
      <trkpt lat="49.02793" lon="-0.69473">
        <ele>195.89</ele>
        <time>2021-08-31T04:55:35.278Z</time>
      </trkpt>
      <trkpt lat="49.02722" lon="-0.69344">
        <ele>189.52</ele>
        <time>2021-08-31T04:56:01.991Z</time>
      </trkpt>
      <trkpt lat="49.02722" lon="-0.69344">
        <ele>189.52</ele>
        <time>2021-08-31T04:56:28.704Z</time>
      </trkpt>
      <trkpt lat="49.02587" lon="-0.69081">
        <ele>186.59</ele>
        <time>2021-08-31T04:56:55.452Z</time>
      </trkpt>
      <trkpt lat="49.02587" lon="-0.69081">
        <ele>186.59</ele>
        <time>2021-08-31T04:57:22.200Z</time>
      </trkpt>
      <trkpt lat="49.0256" lon="-0.68979">
        <ele>185.22</ele>
        <time>2021-08-31T04:57:48.959Z</time>
      </trkpt>
      <trkpt lat="49.0256" lon="-0.68979">
        <ele>185.22</ele>
        <time>2021-08-31T04:58:15.718Z</time>
      </trkpt>
      <trkpt lat="49.02559" lon="-0.68839">
        <ele>184.3</ele>
        <time>2021-08-31T04:58:42.492Z</time>
      </trkpt>
      <trkpt lat="49.02559" lon="-0.68839">
        <ele>184.3</ele>
        <time>2021-08-31T04:59:09.266Z</time>
      </trkpt>
      <trkpt lat="49.02616" lon="-0.68129">
        <ele>180.34</ele>
        <time>2021-08-31T04:59:36.116Z</time>
      </trkpt>
      <trkpt lat="49.02616" lon="-0.68129">
        <ele>180.34</ele>
        <time>2021-08-31T05:00:02.966Z</time>
      </trkpt>
      <trkpt lat="49.02619" lon="-0.68073">
        <ele>179.52</ele>
        <time>2021-08-31T05:00:29.821Z</time>
      </trkpt>
      <trkpt lat="49.02619" lon="-0.68073">
        <ele>179.52</ele>
        <time>2021-08-31T05:00:56.676Z</time>
      </trkpt>
      <trkpt lat="49.02616" lon="-0.6803">
        <ele>177.98</ele>
        <time>2021-08-31T05:01:23.536Z</time>
      </trkpt>
      <trkpt lat="49.02616" lon="-0.6803">
        <ele>177.98</ele>
        <time>2021-08-31T05:01:50.396Z</time>
      </trkpt>
      <trkpt lat="49.02606" lon="-0.67996">
        <ele>177.98</ele>
        <time>2021-08-31T05:02:17.260Z</time>
      </trkpt>
      <trkpt lat="49.02606" lon="-0.67996">
        <ele>177.98</ele>
        <time>2021-08-31T05:02:44.124Z</time>
      </trkpt>
      <trkpt lat="49.02429" lon="-0.67707">
        <ele>168.21</ele>
        <time>2021-08-31T05:03:11.030Z</time>
      </trkpt>
      <trkpt lat="49.02429" lon="-0.67707">
        <ele>168.21</ele>
        <time>2021-08-31T05:03:37.936Z</time>
      </trkpt>
      <trkpt lat="49.02306" lon="-0.67147">
        <ele>151.92</ele>
        <time>2021-08-31T05:04:04.904Z</time>
      </trkpt>
      <trkpt lat="49.02306" lon="-0.67147">
        <ele>151.92</ele>
        <time>2021-08-31T05:04:31.872Z</time>
      </trkpt>
      <trkpt lat="49.02294" lon="-0.6711">
        <ele>151.92</ele>
        <time>2021-08-31T05:04:58.844Z</time>
      </trkpt>
      <trkpt lat="49.02294" lon="-0.6711">
        <ele>151.92</ele>
        <time>2021-08-31T05:05:25.816Z</time>
      </trkpt>
      <trkpt lat="49.022" lon="-0.66963">
        <ele>147.87</ele>
        <time>2021-08-31T05:05:52.810Z</time>
      </trkpt>
      <trkpt lat="49.022" lon="-0.66963">
        <ele>147.87</ele>
        <time>2021-08-31T05:06:19.804Z</time>
      </trkpt>
      <trkpt lat="49.02178" lon="-0.66945">
        <ele>147.72</ele>
        <time>2021-08-31T05:06:46.802Z</time>
      </trkpt>
      <trkpt lat="49.02178" lon="-0.66945">
        <ele>147.72</ele>
        <time>2021-08-31T05:07:13.800Z</time>
      </trkpt>
      <trkpt lat="49.02147" lon="-0.6692">
        <ele>147.76</ele>
        <time>2021-08-31T05:07:40.803Z</time>
      </trkpt>
      <trkpt lat="49.02147" lon="-0.6692">
        <ele>147.76</ele>
        <time>2021-08-31T05:08:07.806Z</time>
      </trkpt>
      <trkpt lat="49.02125" lon="-0.66897">
        <ele>148.07</ele>
        <time>2021-08-31T05:08:34.814Z</time>
      </trkpt>
      <trkpt lat="49.02125" lon="-0.66897">
        <ele>148.07</ele>
        <time>2021-08-31T05:09:01.822Z</time>
      </trkpt>
      <trkpt lat="49.02079" lon="-0.66818">
        <ele>149.22</ele>
        <time>2021-08-31T05:09:28.841Z</time>
      </trkpt>
      <trkpt lat="49.02079" lon="-0.66818">
        <ele>149.22</ele>
        <time>2021-08-31T05:09:55.860Z</time>
      </trkpt>
      <trkpt lat="49.02029" lon="-0.66707">
        <ele>150.86</ele>
        <time>2021-08-31T05:10:22.893Z</time>
      </trkpt>
      <trkpt lat="49.02029" lon="-0.66707">
        <ele>150.86</ele>
        <time>2021-08-31T05:10:49.926Z</time>
      </trkpt>
      <trkpt lat="49.02" lon="-0.66652">
        <ele>151.24</ele>
        <time>2021-08-31T05:11:16.966Z</time>
      </trkpt>
      <trkpt lat="49.02" lon="-0.66652">
        <ele>151.24</ele>
        <time>2021-08-31T05:11:44.006Z</time>
      </trkpt>
      <trkpt lat="49.01989" lon="-0.66622">
        <ele>151.43</ele>
        <time>2021-08-31T05:12:11.050Z</time>
      </trkpt>
      <trkpt lat="49.01989" lon="-0.66622">
        <ele>151.43</ele>
        <time>2021-08-31T05:12:38.094Z</time>
      </trkpt>
      <trkpt lat="49.01935" lon="-0.66366">
        <ele>153.37</ele>
        <time>2021-08-31T05:13:05.166Z</time>
      </trkpt>
      <trkpt lat="49.01935" lon="-0.66366">
        <ele>153.37</ele>
        <time>2021-08-31T05:13:32.238Z</time>
      </trkpt>
      <trkpt lat="49.01851" lon="-0.65924">
        <ele>151.73</ele>
        <time>2021-08-31T05:13:59.359Z</time>
      </trkpt>
      <trkpt lat="49.01851" lon="-0.65924">
        <ele>151.73</ele>
        <time>2021-08-31T05:14:26.480Z</time>
      </trkpt>
      <trkpt lat="49.01846" lon="-0.65832">
        <ele>149.8</ele>
        <time>2021-08-31T05:14:53.610Z</time>
      </trkpt>
      <trkpt lat="49.01846" lon="-0.65832">
        <ele>149.8</ele>
        <time>2021-08-31T05:15:20.740Z</time>
      </trkpt>
      <trkpt lat="49.01858" lon="-0.65724">
        <ele>147.16</ele>
        <time>2021-08-31T05:15:47.882Z</time>
      </trkpt>
      <trkpt lat="49.01858" lon="-0.65724">
        <ele>147.16</ele>
        <time>2021-08-31T05:16:15.024Z</time>
      </trkpt>
      <trkpt lat="49.01904" lon="-0.65359">
        <ele>135.78</ele>
        <time>2021-08-31T05:16:42.205Z</time>
      </trkpt>
      <trkpt lat="49.01904" lon="-0.65359">
        <ele>135.78</ele>
        <time>2021-08-31T05:17:09.386Z</time>
      </trkpt>
      <trkpt lat="49.01924" lon="-0.65159">
        <ele>130.72</ele>
        <time>2021-08-31T05:17:36.588Z</time>
      </trkpt>
      <trkpt lat="49.01924" lon="-0.65159">
        <ele>130.72</ele>
        <time>2021-08-31T05:18:03.790Z</time>
      </trkpt>
      <trkpt lat="49.01937" lon="-0.65048">
        <ele>127.3</ele>
        <time>2021-08-31T05:18:31.004Z</time>
      </trkpt>
      <trkpt lat="49.01937" lon="-0.65048">
        <ele>127.3</ele>
        <time>2021-08-31T05:18:58.218Z</time>
      </trkpt>
      <trkpt lat="49.01959" lon="-0.64927">
        <ele>124.5</ele>
        <time>2021-08-31T05:19:25.445Z</time>
      </trkpt>
      <trkpt lat="49.01959" lon="-0.64927">
        <ele>124.5</ele>
        <time>2021-08-31T05:19:52.672Z</time>
      </trkpt>
      <trkpt lat="49.01986" lon="-0.64805">
        <ele>122.42</ele>
        <time>2021-08-31T05:20:19.913Z</time>
      </trkpt>
      <trkpt lat="49.01986" lon="-0.64805">
        <ele>122.42</ele>
        <time>2021-08-31T05:20:47.154Z</time>
      </trkpt>
      <trkpt lat="49.02002" lon="-0.64537">
        <ele>117.45</ele>
        <time>2021-08-31T05:21:14.423Z</time>
      </trkpt>
      <trkpt lat="49.02002" lon="-0.64537">
        <ele>117.45</ele>
        <time>2021-08-31T05:21:41.692Z</time>
      </trkpt>
      <trkpt lat="49.02007" lon="-0.64507">
        <ele>116.98</ele>
        <time>2021-08-31T05:22:08.965Z</time>
      </trkpt>
      <trkpt lat="49.02007" lon="-0.64507">
        <ele>116.98</ele>
        <time>2021-08-31T05:22:36.238Z</time>
      </trkpt>
      <trkpt lat="49.02056" lon="-0.64376">
        <ele>114.51</ele>
        <time>2021-08-31T05:23:03.526Z</time>
      </trkpt>
      <trkpt lat="49.02056" lon="-0.64376">
        <ele>114.51</ele>
        <time>2021-08-31T05:23:30.814Z</time>
      </trkpt>
      <trkpt lat="49.02063" lon="-0.64354">
        <ele>114.03</ele>
        <time>2021-08-31T05:23:58.105Z</time>
      </trkpt>
      <trkpt lat="49.02063" lon="-0.64354">
        <ele>114.03</ele>
        <time>2021-08-31T05:24:25.396Z</time>
      </trkpt>
      <trkpt lat="49.02067" lon="-0.64324">
        <ele>113.92</ele>
        <time>2021-08-31T05:24:52.690Z</time>
      </trkpt>
      <trkpt lat="49.02067" lon="-0.64324">
        <ele>113.92</ele>
        <time>2021-08-31T05:25:19.984Z</time>
      </trkpt>
      <trkpt lat="49.02066" lon="-0.64084">
        <ele>113.29</ele>
        <time>2021-08-31T05:25:47.304Z</time>
      </trkpt>
      <trkpt lat="49.02066" lon="-0.64084">
        <ele>113.29</ele>
        <time>2021-08-31T05:26:14.624Z</time>
      </trkpt>
      <trkpt lat="49.02078" lon="-0.63993">
        <ele>113.42</ele>
        <time>2021-08-31T05:26:41.953Z</time>
      </trkpt>
      <trkpt lat="49.02078" lon="-0.63993">
        <ele>113.42</ele>
        <time>2021-08-31T05:27:09.282Z</time>
      </trkpt>
      <trkpt lat="49.02077" lon="-0.63917">
        <ele>113.78</ele>
        <time>2021-08-31T05:27:36.619Z</time>
      </trkpt>
      <trkpt lat="49.02077" lon="-0.63917">
        <ele>113.78</ele>
        <time>2021-08-31T05:28:03.956Z</time>
      </trkpt>
      <trkpt lat="49.02046" lon="-0.63793">
        <ele>114.41</ele>
        <time>2021-08-31T05:28:31.307Z</time>
      </trkpt>
      <trkpt lat="49.02046" lon="-0.63793">
        <ele>114.41</ele>
        <time>2021-08-31T05:28:58.658Z</time>
      </trkpt>
      <trkpt lat="49.0204" lon="-0.63742">
        <ele>114.92</ele>
        <time>2021-08-31T05:29:26.015Z</time>
      </trkpt>
      <trkpt lat="49.0204" lon="-0.63742">
        <ele>114.92</ele>
        <time>2021-08-31T05:29:53.372Z</time>
      </trkpt>
      <trkpt lat="49.02043" lon="-0.63702">
        <ele>115.15</ele>
        <time>2021-08-31T05:30:20.733Z</time>
      </trkpt>
      <trkpt lat="49.02043" lon="-0.63702">
        <ele>115.15</ele>
        <time>2021-08-31T05:30:48.094Z</time>
      </trkpt>
      <trkpt lat="49.02065" lon="-0.63568">
        <ele>117.02</ele>
        <time>2021-08-31T05:31:15.470Z</time>
      </trkpt>
      <trkpt lat="49.02065" lon="-0.63568">
        <ele>117.02</ele>
        <time>2021-08-31T05:31:42.846Z</time>
      </trkpt>
      <trkpt lat="49.02064" lon="-0.63538">
        <ele>118.05</ele>
        <time>2021-08-31T05:32:10.225Z</time>
      </trkpt>
      <trkpt lat="49.02064" lon="-0.63538">
        <ele>118.05</ele>
        <time>2021-08-31T05:32:37.604Z</time>
      </trkpt>
      <trkpt lat="49.02049" lon="-0.63439">
        <ele>119.78</ele>
        <time>2021-08-31T05:33:04.993Z</time>
      </trkpt>
      <trkpt lat="49.02049" lon="-0.63439">
        <ele>119.78</ele>
        <time>2021-08-31T05:33:32.382Z</time>
      </trkpt>
      <trkpt lat="49.02043" lon="-0.63413">
        <ele>120.4</ele>
        <time>2021-08-31T05:33:59.774Z</time>
      </trkpt>
      <trkpt lat="49.02043" lon="-0.63413">
        <ele>120.4</ele>
        <time>2021-08-31T05:34:27.166Z</time>
      </trkpt>
      <trkpt lat="49.02044" lon="-0.63363">
        <ele>120.81</ele>
        <time>2021-08-31T05:34:54.564Z</time>
      </trkpt>
      <trkpt lat="49.02044" lon="-0.63363">
        <ele>120.81</ele>
        <time>2021-08-31T05:35:21.962Z</time>
      </trkpt>
      <trkpt lat="49.02058" lon="-0.63181">
        <ele>120.94</ele>
        <time>2021-08-31T05:35:49.379Z</time>
      </trkpt>
      <trkpt lat="49.02058" lon="-0.63181">
        <ele>120.94</ele>
        <time>2021-08-31T05:36:16.796Z</time>
      </trkpt>
      <trkpt lat="49.01915" lon="-0.63158">
        <ele>120.97</ele>
        <time>2021-08-31T05:36:44.236Z</time>
      </trkpt>
      <trkpt lat="49.01915" lon="-0.63158">
        <ele>120.97</ele>
        <time>2021-08-31T05:37:11.676Z</time>
      </trkpt>
      <trkpt lat="49.01864" lon="-0.63151">
        <ele>122.65</ele>
        <time>2021-08-31T05:37:39.124Z</time>
      </trkpt>
      <trkpt lat="49.01864" lon="-0.63151">
        <ele>122.65</ele>
        <time>2021-08-31T05:38:06.572Z</time>
      </trkpt>
      <trkpt lat="49.01814" lon="-0.63128">
        <ele>123.33</ele>
        <time>2021-08-31T05:38:34.028Z</time>
      </trkpt>
      <trkpt lat="49.01814" lon="-0.63128">
        <ele>123.33</ele>
        <time>2021-08-31T05:39:01.484Z</time>
      </trkpt>
      <trkpt lat="49.01807" lon="-0.63139">
        <ele>123.33</ele>
        <time>2021-08-31T05:39:28.942Z</time>
      </trkpt>
      <trkpt lat="49.01807" lon="-0.63139">
        <ele>123.33</ele>
        <time>2021-08-31T05:39:56.400Z</time>
      </trkpt>
      <trkpt lat="49.01802" lon="-0.63139">
        <ele>123.54</ele>
        <time>2021-08-31T05:40:23.859Z</time>
      </trkpt>
      <trkpt lat="49.01802" lon="-0.63139">
        <ele>123.54</ele>
        <time>2021-08-31T05:40:51.318Z</time>
      </trkpt>
      <trkpt lat="49.01798" lon="-0.63136">
        <ele>123.54</ele>
        <time>2021-08-31T05:41:18.778Z</time>
      </trkpt>
      <trkpt lat="49.01798" lon="-0.63136">
        <ele>123.54</ele>
        <time>2021-08-31T05:41:46.238Z</time>
      </trkpt>
      <trkpt lat="49.01794" lon="-0.63122">
        <ele>123.54</ele>
        <time>2021-08-31T05:42:13.699Z</time>
      </trkpt>
      <trkpt lat="49.01794" lon="-0.63122">
        <ele>123.54</ele>
        <time>2021-08-31T05:42:41.160Z</time>
      </trkpt>
      <trkpt lat="49.01796" lon="-0.63114">
        <ele>123.8</ele>
        <time>2021-08-31T05:43:08.622Z</time>
      </trkpt>
      <trkpt lat="49.01796" lon="-0.63114">
        <ele>123.8</ele>
        <time>2021-08-31T05:43:36.084Z</time>
      </trkpt>
      <trkpt lat="49.018" lon="-0.63108">
        <ele>123.8</ele>
        <time>2021-08-31T05:44:03.547Z</time>
      </trkpt>
      <trkpt lat="49.018" lon="-0.63108">
        <ele>123.8</ele>
        <time>2021-08-31T05:44:31.010Z</time>
      </trkpt>
      <trkpt lat="49.01795" lon="-0.63092">
        <ele>123.8</ele>
        <time>2021-08-31T05:44:58.475Z</time>
      </trkpt>
      <trkpt lat="49.01795" lon="-0.63092">
        <ele>123.8</ele>
        <time>2021-08-31T05:45:25.940Z</time>
      </trkpt>
      <trkpt lat="49.01697" lon="-0.62954">
        <ele>125.46</ele>
        <time>2021-08-31T05:45:53.426Z</time>
      </trkpt>
      <trkpt lat="49.01697" lon="-0.62954">
        <ele>125.46</ele>
        <time>2021-08-31T05:46:20.912Z</time>
      </trkpt>
      <trkpt lat="49.0167" lon="-0.62917">
        <ele>127.18</ele>
        <time>2021-08-31T05:46:48.404Z</time>
      </trkpt>
      <trkpt lat="49.0167" lon="-0.62917">
        <ele>127.18</ele>
        <time>2021-08-31T05:47:15.896Z</time>
      </trkpt>
      <trkpt lat="49.01534" lon="-0.62721">
        <ele>133.34</ele>
        <time>2021-08-31T05:47:43.418Z</time>
      </trkpt>
      <trkpt lat="49.01534" lon="-0.62721">
        <ele>133.34</ele>
        <time>2021-08-31T05:48:10.940Z</time>
      </trkpt>
      <trkpt lat="49.0126" lon="-0.62336">
        <ele>142.63</ele>
        <time>2021-08-31T05:48:38.522Z</time>
      </trkpt>
      <trkpt lat="49.0126" lon="-0.62336">
        <ele>142.63</ele>
        <time>2021-08-31T05:49:06.104Z</time>
      </trkpt>
      <trkpt lat="49.0113" lon="-0.62146">
        <ele>152.98</ele>
        <time>2021-08-31T05:49:33.715Z</time>
      </trkpt>
      <trkpt lat="49.0113" lon="-0.62146">
        <ele>152.98</ele>
        <time>2021-08-31T05:50:01.326Z</time>
      </trkpt>
      <trkpt lat="49.00991" lon="-0.61956">
        <ele>160.45</ele>
        <time>2021-08-31T05:50:28.967Z</time>
      </trkpt>
      <trkpt lat="49.00991" lon="-0.61956">
        <ele>160.45</ele>
        <time>2021-08-31T05:50:56.608Z</time>
      </trkpt>
      <trkpt lat="49.00001" lon="-0.60546">
        <ele>195.37</ele>
        <time>2021-08-31T05:51:24.466Z</time>
      </trkpt>
      <trkpt lat="49.00001" lon="-0.60546">
        <ele>195.37</ele>
        <time>2021-08-31T05:51:52.324Z</time>
      </trkpt>
      <trkpt lat="48.99928" lon="-0.60452">
        <ele>191.37</ele>
        <time>2021-08-31T05:52:20.197Z</time>
      </trkpt>
      <trkpt lat="48.99928" lon="-0.60452">
        <ele>191.37</ele>
        <time>2021-08-31T05:52:48.070Z</time>
      </trkpt>
      <trkpt lat="48.99795" lon="-0.60301">
        <ele>193.67</ele>
        <time>2021-08-31T05:53:15.970Z</time>
      </trkpt>
      <trkpt lat="48.99795" lon="-0.60301">
        <ele>193.67</ele>
        <time>2021-08-31T05:53:43.870Z</time>
      </trkpt>
      <trkpt lat="48.99544" lon="-0.60025">
        <ele>203.92</ele>
        <time>2021-08-31T05:54:11.819Z</time>
      </trkpt>
      <trkpt lat="48.99544" lon="-0.60025">
        <ele>203.92</ele>
        <time>2021-08-31T05:54:39.768Z</time>
      </trkpt>
      <trkpt lat="48.99486" lon="-0.59963">
        <ele>200.25</ele>
        <time>2021-08-31T05:55:07.729Z</time>
      </trkpt>
      <trkpt lat="48.99486" lon="-0.59963">
        <ele>200.25</ele>
        <time>2021-08-31T05:55:35.690Z</time>
      </trkpt>
      <trkpt lat="48.99468" lon="-0.59937">
        <ele>197.8</ele>
        <time>2021-08-31T05:56:03.655Z</time>
      </trkpt>
      <trkpt lat="48.99468" lon="-0.59937">
        <ele>197.8</ele>
        <time>2021-08-31T05:56:31.620Z</time>
      </trkpt>
      <trkpt lat="48.99443" lon="-0.59902">
        <ele>194.94</ele>
        <time>2021-08-31T05:56:59.590Z</time>
      </trkpt>
      <trkpt lat="48.99443" lon="-0.59902">
        <ele>194.94</ele>
        <time>2021-08-31T05:57:27.560Z</time>
      </trkpt>
      <trkpt lat="48.99391" lon="-0.59794">
        <ele>186.89</ele>
        <time>2021-08-31T05:57:55.544Z</time>
      </trkpt>
      <trkpt lat="48.99391" lon="-0.59794">
        <ele>186.89</ele>
        <time>2021-08-31T05:58:23.528Z</time>
      </trkpt>
      <trkpt lat="48.99073" lon="-0.5894">
        <ele>166.62</ele>
        <time>2021-08-31T05:58:51.616Z</time>
      </trkpt>
      <trkpt lat="48.99073" lon="-0.5894">
        <ele>166.62</ele>
        <time>2021-08-31T05:59:19.704Z</time>
      </trkpt>
      <trkpt lat="48.99048" lon="-0.5886">
        <ele>167.46</ele>
        <time>2021-08-31T05:59:47.801Z</time>
      </trkpt>
      <trkpt lat="48.99048" lon="-0.5886">
        <ele>167.46</ele>
        <time>2021-08-31T06:00:15.898Z</time>
      </trkpt>
      <trkpt lat="48.99034" lon="-0.58782">
        <ele>169.39</ele>
        <time>2021-08-31T06:00:44.004Z</time>
      </trkpt>
      <trkpt lat="48.99034" lon="-0.58782">
        <ele>169.39</ele>
        <time>2021-08-31T06:01:12.110Z</time>
      </trkpt>
      <trkpt lat="48.98813" lon="-0.56769">
        <ele>153.14</ele>
        <time>2021-08-31T06:01:40.431Z</time>
      </trkpt>
      <trkpt lat="48.98813" lon="-0.56769">
        <ele>153.14</ele>
        <time>2021-08-31T06:02:08.752Z</time>
      </trkpt>
      <trkpt lat="48.98806" lon="-0.56724">
        <ele>148.64</ele>
        <time>2021-08-31T06:02:37.078Z</time>
      </trkpt>
      <trkpt lat="48.98806" lon="-0.56724">
        <ele>148.64</ele>
        <time>2021-08-31T06:03:05.404Z</time>
      </trkpt>
      <trkpt lat="48.98737" lon="-0.56483">
        <ele>136.91</ele>
        <time>2021-08-31T06:03:33.757Z</time>
      </trkpt>
      <trkpt lat="48.98737" lon="-0.56483">
        <ele>136.91</ele>
        <time>2021-08-31T06:04:02.110Z</time>
      </trkpt>
      <trkpt lat="48.98664" lon="-0.56234">
        <ele>128.16</ele>
        <time>2021-08-31T06:04:30.492Z</time>
      </trkpt>
      <trkpt lat="48.98664" lon="-0.56234">
        <ele>128.16</ele>
        <time>2021-08-31T06:04:58.874Z</time>
      </trkpt>
      <trkpt lat="48.98556" lon="-0.55879">
        <ele>127.87</ele>
        <time>2021-08-31T06:05:27.297Z</time>
      </trkpt>
      <trkpt lat="48.98556" lon="-0.55879">
        <ele>127.87</ele>
        <time>2021-08-31T06:05:55.720Z</time>
      </trkpt>
      <trkpt lat="48.985" lon="-0.55745">
        <ele>124.24</ele>
        <time>2021-08-31T06:06:24.160Z</time>
      </trkpt>
      <trkpt lat="48.985" lon="-0.55745">
        <ele>124.24</ele>
        <time>2021-08-31T06:06:52.600Z</time>
      </trkpt>
      <trkpt lat="48.98428" lon="-0.55588">
        <ele>117.77</ele>
        <time>2021-08-31T06:07:21.060Z</time>
      </trkpt>
      <trkpt lat="48.98428" lon="-0.55588">
        <ele>117.77</ele>
        <time>2021-08-31T06:07:49.520Z</time>
      </trkpt>
      <trkpt lat="48.98348" lon="-0.55408">
        <ele>115.32</ele>
        <time>2021-08-31T06:08:18.003Z</time>
      </trkpt>
      <trkpt lat="48.98348" lon="-0.55408">
        <ele>115.32</ele>
        <time>2021-08-31T06:08:46.486Z</time>
      </trkpt>
      <trkpt lat="48.98339" lon="-0.55372">
        <ele>116.37</ele>
        <time>2021-08-31T06:09:14.973Z</time>
      </trkpt>
      <trkpt lat="48.98339" lon="-0.55372">
        <ele>116.37</ele>
        <time>2021-08-31T06:09:43.460Z</time>
      </trkpt>
      <trkpt lat="48.98338" lon="-0.55345">
        <ele>117.69</ele>
        <time>2021-08-31T06:10:11.950Z</time>
      </trkpt>
      <trkpt lat="48.98338" lon="-0.55345">
        <ele>117.69</ele>
        <time>2021-08-31T06:10:40.440Z</time>
      </trkpt>
      <trkpt lat="48.98345" lon="-0.55284">
        <ele>119.03</ele>
        <time>2021-08-31T06:11:08.936Z</time>
      </trkpt>
      <trkpt lat="48.98345" lon="-0.55284">
        <ele>119.03</ele>
        <time>2021-08-31T06:11:37.432Z</time>
      </trkpt>
      <trkpt lat="48.98354" lon="-0.5523">
        <ele>119.81</ele>
        <time>2021-08-31T06:12:05.934Z</time>
      </trkpt>
      <trkpt lat="48.98354" lon="-0.5523">
        <ele>119.81</ele>
        <time>2021-08-31T06:12:34.436Z</time>
      </trkpt>
      <trkpt lat="48.98355" lon="-0.55157">
        <ele>122.19</ele>
        <time>2021-08-31T06:13:02.946Z</time>
      </trkpt>
      <trkpt lat="48.98355" lon="-0.55157">
        <ele>122.19</ele>
        <time>2021-08-31T06:13:31.456Z</time>
      </trkpt>
      <trkpt lat="48.98318" lon="-0.54801">
        <ele>132.89</ele>
        <time>2021-08-31T06:14:00.004Z</time>
      </trkpt>
      <trkpt lat="48.98318" lon="-0.54801">
        <ele>132.89</ele>
        <time>2021-08-31T06:14:28.552Z</time>
      </trkpt>
      <trkpt lat="48.98301" lon="-0.54745">
        <ele>133.05</ele>
        <time>2021-08-31T06:14:57.106Z</time>
      </trkpt>
      <trkpt lat="48.98301" lon="-0.54745">
        <ele>133.05</ele>
        <time>2021-08-31T06:15:25.660Z</time>
      </trkpt>
      <trkpt lat="48.98279" lon="-0.54684">
        <ele>131.98</ele>
        <time>2021-08-31T06:15:54.222Z</time>
      </trkpt>
      <trkpt lat="48.98279" lon="-0.54684">
        <ele>131.98</ele>
        <time>2021-08-31T06:16:22.784Z</time>
      </trkpt>
      <trkpt lat="48.98017" lon="-0.54115">
        <ele>124.04</ele>
        <time>2021-08-31T06:16:51.419Z</time>
      </trkpt>
      <trkpt lat="48.98017" lon="-0.54115">
        <ele>124.04</ele>
        <time>2021-08-31T06:17:20.054Z</time>
      </trkpt>
      <trkpt lat="48.97979" lon="-0.54038">
        <ele>122.17</ele>
        <time>2021-08-31T06:17:48.699Z</time>
      </trkpt>
      <trkpt lat="48.97979" lon="-0.54038">
        <ele>122.17</ele>
        <time>2021-08-31T06:18:17.344Z</time>
      </trkpt>
      <trkpt lat="48.97937" lon="-0.53942">
        <ele>115.95</ele>
        <time>2021-08-31T06:18:46.001Z</time>
      </trkpt>
      <trkpt lat="48.97937" lon="-0.53942">
        <ele>115.95</ele>
        <time>2021-08-31T06:19:14.658Z</time>
      </trkpt>
      <trkpt lat="48.97899" lon="-0.53883">
        <ele>114.72</ele>
        <time>2021-08-31T06:19:43.324Z</time>
      </trkpt>
      <trkpt lat="48.97899" lon="-0.53883">
        <ele>114.72</ele>
        <time>2021-08-31T06:20:11.990Z</time>
      </trkpt>
      <trkpt lat="48.9784" lon="-0.5381">
        <ele>110.71</ele>
        <time>2021-08-31T06:20:40.668Z</time>
      </trkpt>
      <trkpt lat="48.9784" lon="-0.5381">
        <ele>110.71</ele>
        <time>2021-08-31T06:21:09.346Z</time>
      </trkpt>
      <trkpt lat="48.97753" lon="-0.53703">
        <ele>107.11</ele>
        <time>2021-08-31T06:21:38.042Z</time>
      </trkpt>
      <trkpt lat="48.97753" lon="-0.53703">
        <ele>107.11</ele>
        <time>2021-08-31T06:22:06.738Z</time>
      </trkpt>
      <trkpt lat="48.97666" lon="-0.53535">
        <ele>103.23</ele>
        <time>2021-08-31T06:22:35.457Z</time>
      </trkpt>
      <trkpt lat="48.97666" lon="-0.53535">
        <ele>103.23</ele>
        <time>2021-08-31T06:23:04.176Z</time>
      </trkpt>
      <trkpt lat="48.97641" lon="-0.53471">
        <ele>101.8</ele>
        <time>2021-08-31T06:23:32.902Z</time>
      </trkpt>
      <trkpt lat="48.97641" lon="-0.53471">
        <ele>101.8</ele>
        <time>2021-08-31T06:24:01.628Z</time>
      </trkpt>
      <trkpt lat="48.97631" lon="-0.53435">
        <ele>101.26</ele>
        <time>2021-08-31T06:24:30.359Z</time>
      </trkpt>
      <trkpt lat="48.97631" lon="-0.53435">
        <ele>101.26</ele>
        <time>2021-08-31T06:24:59.090Z</time>
      </trkpt>
      <trkpt lat="48.97629" lon="-0.53403">
        <ele>100.77</ele>
        <time>2021-08-31T06:25:27.824Z</time>
      </trkpt>
      <trkpt lat="48.97629" lon="-0.53403">
        <ele>100.77</ele>
        <time>2021-08-31T06:25:56.558Z</time>
      </trkpt>
      <trkpt lat="48.97635" lon="-0.53365">
        <ele>100.1</ele>
        <time>2021-08-31T06:26:25.296Z</time>
      </trkpt>
      <trkpt lat="48.97635" lon="-0.53365">
        <ele>100.1</ele>
        <time>2021-08-31T06:26:54.034Z</time>
      </trkpt>
      <trkpt lat="48.97646" lon="-0.53347">
        <ele>99.9</ele>
        <time>2021-08-31T06:27:22.775Z</time>
      </trkpt>
      <trkpt lat="48.97646" lon="-0.53347">
        <ele>99.9</ele>
        <time>2021-08-31T06:27:51.516Z</time>
      </trkpt>
      <trkpt lat="48.97661" lon="-0.53332">
        <ele>99.9</ele>
        <time>2021-08-31T06:28:20.260Z</time>
      </trkpt>
      <trkpt lat="48.97661" lon="-0.53332">
        <ele>99.9</ele>
        <time>2021-08-31T06:28:49.004Z</time>
      </trkpt>
      <trkpt lat="48.97791" lon="-0.53242">
        <ele>96.96</ele>
        <time>2021-08-31T06:29:17.770Z</time>
      </trkpt>
      <trkpt lat="48.97791" lon="-0.53242">
        <ele>96.96</ele>
        <time>2021-08-31T06:29:46.536Z</time>
      </trkpt>
      <trkpt lat="48.97813" lon="-0.53217">
        <ele>96.35</ele>
        <time>2021-08-31T06:30:15.307Z</time>
      </trkpt>
      <trkpt lat="48.97813" lon="-0.53217">
        <ele>96.35</ele>
        <time>2021-08-31T06:30:44.078Z</time>
      </trkpt>
      <trkpt lat="48.97838" lon="-0.53164">
        <ele>95.17</ele>
        <time>2021-08-31T06:31:12.856Z</time>
      </trkpt>
      <trkpt lat="48.97838" lon="-0.53164">
        <ele>95.17</ele>
        <time>2021-08-31T06:31:41.634Z</time>
      </trkpt>
      <trkpt lat="48.97917" lon="-0.52864">
        <ele>90.63</ele>
        <time>2021-08-31T06:32:10.446Z</time>
      </trkpt>
      <trkpt lat="48.97917" lon="-0.52864">
        <ele>90.63</ele>
        <time>2021-08-31T06:32:39.258Z</time>
      </trkpt>
      <trkpt lat="48.98024" lon="-0.52444">
        <ele>85.94</ele>
        <time>2021-08-31T06:33:08.117Z</time>
      </trkpt>
      <trkpt lat="48.98024" lon="-0.52444">
        <ele>85.94</ele>
        <time>2021-08-31T06:33:36.976Z</time>
      </trkpt>
      <trkpt lat="48.98052" lon="-0.52355">
        <ele>85.03</ele>
        <time>2021-08-31T06:34:05.846Z</time>
      </trkpt>
      <trkpt lat="48.98052" lon="-0.52355">
        <ele>85.03</ele>
        <time>2021-08-31T06:34:34.716Z</time>
      </trkpt>
      <trkpt lat="48.98184" lon="-0.51989">
        <ele>77.63</ele>
        <time>2021-08-31T06:35:03.630Z</time>
      </trkpt>
      <trkpt lat="48.98184" lon="-0.51989">
        <ele>77.63</ele>
        <time>2021-08-31T06:35:32.544Z</time>
      </trkpt>
      <trkpt lat="48.98212" lon="-0.51883">
        <ele>76.07</ele>
        <time>2021-08-31T06:36:01.470Z</time>
      </trkpt>
      <trkpt lat="48.98212" lon="-0.51883">
        <ele>76.07</ele>
        <time>2021-08-31T06:36:30.396Z</time>
      </trkpt>
      <trkpt lat="48.98294" lon="-0.51439">
        <ele>72</ele>
        <time>2021-08-31T06:36:59.370Z</time>
      </trkpt>
      <trkpt lat="48.98294" lon="-0.51439">
        <ele>72</ele>
        <time>2021-08-31T06:37:28.344Z</time>
      </trkpt>
      <trkpt lat="48.98298" lon="-0.514">
        <ele>71.88</ele>
        <time>2021-08-31T06:37:57.322Z</time>
      </trkpt>
      <trkpt lat="48.98298" lon="-0.514">
        <ele>71.88</ele>
        <time>2021-08-31T06:38:26.300Z</time>
      </trkpt>
      <trkpt lat="48.98299" lon="-0.51346">
        <ele>71.2</ele>
        <time>2021-08-31T06:38:55.284Z</time>
      </trkpt>
      <trkpt lat="48.98299" lon="-0.51346">
        <ele>71.2</ele>
        <time>2021-08-31T06:39:24.268Z</time>
      </trkpt>
      <trkpt lat="48.98285" lon="-0.51071">
        <ele>66.29</ele>
        <time>2021-08-31T06:39:53.281Z</time>
      </trkpt>
      <trkpt lat="48.98285" lon="-0.51071">
        <ele>66.29</ele>
        <time>2021-08-31T06:40:22.294Z</time>
      </trkpt>
      <trkpt lat="48.98288" lon="-0.51036">
        <ele>65.75</ele>
        <time>2021-08-31T06:40:51.311Z</time>
      </trkpt>
      <trkpt lat="48.98288" lon="-0.51036">
        <ele>65.75</ele>
        <time>2021-08-31T06:41:20.328Z</time>
      </trkpt>
      <trkpt lat="48.98293" lon="-0.5101">
        <ele>65.75</ele>
        <time>2021-08-31T06:41:49.348Z</time>
      </trkpt>
      <trkpt lat="48.98293" lon="-0.5101">
        <ele>65.75</ele>
        <time>2021-08-31T06:42:18.368Z</time>
      </trkpt>
      <trkpt lat="48.98328" lon="-0.50915">
        <ele>63.61</ele>
        <time>2021-08-31T06:42:47.399Z</time>
      </trkpt>
      <trkpt lat="48.98328" lon="-0.50915">
        <ele>63.61</ele>
        <time>2021-08-31T06:43:16.430Z</time>
      </trkpt>
      <trkpt lat="48.98336" lon="-0.50883">
        <ele>63.26</ele>
        <time>2021-08-31T06:43:45.465Z</time>
      </trkpt>
      <trkpt lat="48.98336" lon="-0.50883">
        <ele>63.26</ele>
        <time>2021-08-31T06:44:14.500Z</time>
      </trkpt>
      <trkpt lat="48.98341" lon="-0.50856">
        <ele>63.02</ele>
        <time>2021-08-31T06:44:43.538Z</time>
      </trkpt>
      <trkpt lat="48.98341" lon="-0.50856">
        <ele>63.02</ele>
        <time>2021-08-31T06:45:12.576Z</time>
      </trkpt>
      <trkpt lat="48.98347" lon="-0.50762">
        <ele>61.22</ele>
        <time>2021-08-31T06:45:41.624Z</time>
      </trkpt>
      <trkpt lat="48.98347" lon="-0.50762">
        <ele>61.22</ele>
        <time>2021-08-31T06:46:10.672Z</time>
      </trkpt>
      <trkpt lat="48.98356" lon="-0.50722">
        <ele>60.65</ele>
        <time>2021-08-31T06:46:39.724Z</time>
      </trkpt>
      <trkpt lat="48.98356" lon="-0.50722">
        <ele>60.65</ele>
        <time>2021-08-31T06:47:08.776Z</time>
      </trkpt>
      <trkpt lat="48.98413" lon="-0.50573">
        <ele>56.17</ele>
        <time>2021-08-31T06:47:37.846Z</time>
      </trkpt>
      <trkpt lat="48.98413" lon="-0.50573">
        <ele>56.17</ele>
        <time>2021-08-31T06:48:06.916Z</time>
      </trkpt>
      <trkpt lat="48.9843" lon="-0.5049">
        <ele>55.47</ele>
        <time>2021-08-31T06:48:35.996Z</time>
      </trkpt>
      <trkpt lat="48.9843" lon="-0.5049">
        <ele>55.47</ele>
        <time>2021-08-31T06:49:05.076Z</time>
      </trkpt>
      <trkpt lat="48.98435" lon="-0.50388">
        <ele>53.02</ele>
        <time>2021-08-31T06:49:34.166Z</time>
      </trkpt>
      <trkpt lat="48.98435" lon="-0.50388">
        <ele>53.02</ele>
        <time>2021-08-31T06:50:03.256Z</time>
      </trkpt>
      <trkpt lat="48.98416" lon="-0.50221">
        <ele>51.2</ele>
        <time>2021-08-31T06:50:32.364Z</time>
      </trkpt>
      <trkpt lat="48.98416" lon="-0.50221">
        <ele>51.2</ele>
        <time>2021-08-31T06:51:01.472Z</time>
      </trkpt>
      <trkpt lat="48.98416" lon="-0.50178">
        <ele>50.39</ele>
        <time>2021-08-31T06:51:30.585Z</time>
      </trkpt>
      <trkpt lat="48.98416" lon="-0.50178">
        <ele>50.39</ele>
        <time>2021-08-31T06:51:59.698Z</time>
      </trkpt>
      <trkpt lat="48.98438" lon="-0.5008">
        <ele>49.46</ele>
        <time>2021-08-31T06:52:28.822Z</time>
      </trkpt>
      <trkpt lat="48.98438" lon="-0.5008">
        <ele>49.46</ele>
        <time>2021-08-31T06:52:57.946Z</time>
      </trkpt>
      <trkpt lat="48.98478" lon="-0.5">
        <ele>48.39</ele>
        <time>2021-08-31T06:53:27.080Z</time>
      </trkpt>
      <trkpt lat="48.98478" lon="-0.5">
        <ele>48.39</ele>
        <time>2021-08-31T06:53:56.214Z</time>
      </trkpt>
      <trkpt lat="48.98623" lon="-0.49809">
        <ele>44.39</ele>
        <time>2021-08-31T06:54:25.379Z</time>
      </trkpt>
      <trkpt lat="48.98623" lon="-0.49809">
        <ele>44.39</ele>
        <time>2021-08-31T06:54:54.544Z</time>
      </trkpt>
      <trkpt lat="48.9877" lon="-0.4967">
        <ele>37.7</ele>
        <time>2021-08-31T06:55:23.737Z</time>
      </trkpt>
      <trkpt lat="48.9877" lon="-0.4967">
        <ele>37.7</ele>
        <time>2021-08-31T06:55:52.930Z</time>
      </trkpt>
      <trkpt lat="48.98794" lon="-0.49641">
        <ele>36.34</ele>
        <time>2021-08-31T06:56:22.128Z</time>
      </trkpt>
      <trkpt lat="48.98794" lon="-0.49641">
        <ele>36.34</ele>
        <time>2021-08-31T06:56:51.326Z</time>
      </trkpt>
      <trkpt lat="48.98808" lon="-0.49608">
        <ele>35.6</ele>
        <time>2021-08-31T06:57:20.528Z</time>
      </trkpt>
      <trkpt lat="48.98808" lon="-0.49608">
        <ele>35.6</ele>
        <time>2021-08-31T06:57:49.730Z</time>
      </trkpt>
      <trkpt lat="48.98872" lon="-0.49197">
        <ele>36.8</ele>
        <time>2021-08-31T06:58:18.976Z</time>
      </trkpt>
      <trkpt lat="48.98872" lon="-0.49197">
        <ele>36.8</ele>
        <time>2021-08-31T06:58:48.222Z</time>
      </trkpt>
      <trkpt lat="48.98898" lon="-0.49092">
        <ele>37.76</ele>
        <time>2021-08-31T06:59:17.480Z</time>
      </trkpt>
      <trkpt lat="48.98898" lon="-0.49092">
        <ele>37.76</ele>
        <time>2021-08-31T06:59:46.738Z</time>
      </trkpt>
      <trkpt lat="48.98919" lon="-0.49029">
        <ele>37.62</ele>
        <time>2021-08-31T07:00:16.004Z</time>
      </trkpt>
      <trkpt lat="48.98919" lon="-0.49029">
        <ele>37.62</ele>
        <time>2021-08-31T07:00:45.270Z</time>
      </trkpt>
      <trkpt lat="48.98945" lon="-0.4898">
        <ele>36.59</ele>
        <time>2021-08-31T07:01:14.542Z</time>
      </trkpt>
      <trkpt lat="48.98945" lon="-0.4898">
        <ele>36.59</ele>
        <time>2021-08-31T07:01:43.814Z</time>
      </trkpt>
      <trkpt lat="48.99013" lon="-0.48874">
        <ele>34.08</ele>
        <time>2021-08-31T07:02:13.102Z</time>
      </trkpt>
      <trkpt lat="48.99013" lon="-0.48874">
        <ele>34.08</ele>
        <time>2021-08-31T07:02:42.390Z</time>
      </trkpt>
      <trkpt lat="48.99064" lon="-0.48758">
        <ele>32.14</ele>
        <time>2021-08-31T07:03:11.692Z</time>
      </trkpt>
      <trkpt lat="48.99064" lon="-0.48758">
        <ele>32.14</ele>
        <time>2021-08-31T07:03:40.994Z</time>
      </trkpt>
      <trkpt lat="48.99146" lon="-0.48533">
        <ele>29.37</ele>
        <time>2021-08-31T07:04:10.324Z</time>
      </trkpt>
      <trkpt lat="48.99146" lon="-0.48533">
        <ele>29.37</ele>
        <time>2021-08-31T07:04:39.654Z</time>
      </trkpt>
      <trkpt lat="48.99158" lon="-0.48492">
        <ele>28.68</ele>
        <time>2021-08-31T07:05:08.988Z</time>
      </trkpt>
      <trkpt lat="48.99158" lon="-0.48492">
        <ele>28.68</ele>
        <time>2021-08-31T07:05:38.322Z</time>
      </trkpt>
      <trkpt lat="48.99162" lon="-0.48457">
        <ele>27.98</ele>
        <time>2021-08-31T07:06:07.660Z</time>
      </trkpt>
      <trkpt lat="48.99162" lon="-0.48457">
        <ele>27.98</ele>
        <time>2021-08-31T07:06:36.998Z</time>
      </trkpt>
      <trkpt lat="48.99159" lon="-0.48441">
        <ele>27.98</ele>
        <time>2021-08-31T07:07:06.338Z</time>
      </trkpt>
      <trkpt lat="48.99159" lon="-0.48441">
        <ele>27.98</ele>
        <time>2021-08-31T07:07:35.678Z</time>
      </trkpt>
      <trkpt lat="48.9915" lon="-0.48416">
        <ele>27.47</ele>
        <time>2021-08-31T07:08:05.021Z</time>
      </trkpt>
      <trkpt lat="48.9915" lon="-0.48416">
        <ele>27.47</ele>
        <time>2021-08-31T07:08:34.364Z</time>
      </trkpt>
      <trkpt lat="48.99136" lon="-0.48391">
        <ele>26.77</ele>
        <time>2021-08-31T07:09:03.710Z</time>
      </trkpt>
      <trkpt lat="48.99136" lon="-0.48391">
        <ele>26.77</ele>
        <time>2021-08-31T07:09:33.056Z</time>
      </trkpt>
      <trkpt lat="48.99115" lon="-0.48364">
        <ele>26.66</ele>
        <time>2021-08-31T07:10:02.407Z</time>
      </trkpt>
      <trkpt lat="48.99115" lon="-0.48364">
        <ele>26.66</ele>
        <time>2021-08-31T07:10:31.758Z</time>
      </trkpt>
      <trkpt lat="48.9909" lon="-0.48352">
        <ele>26.31</ele>
        <time>2021-08-31T07:11:01.113Z</time>
      </trkpt>
      <trkpt lat="48.9909" lon="-0.48352">
        <ele>26.31</ele>
        <time>2021-08-31T07:11:30.468Z</time>
      </trkpt>
      <trkpt lat="48.99061" lon="-0.48343">
        <ele>26.3</ele>
        <time>2021-08-31T07:11:59.828Z</time>
      </trkpt>
      <trkpt lat="48.99061" lon="-0.48343">
        <ele>26.3</ele>
        <time>2021-08-31T07:12:29.188Z</time>
      </trkpt>
      <trkpt lat="48.9903" lon="-0.48341">
        <ele>26.66</ele>
        <time>2021-08-31T07:12:58.553Z</time>
      </trkpt>
      <trkpt lat="48.9903" lon="-0.48341">
        <ele>26.66</ele>
        <time>2021-08-31T07:13:27.918Z</time>
      </trkpt>
      <trkpt lat="48.99016" lon="-0.48336">
        <ele>26.9</ele>
        <time>2021-08-31T07:13:57.285Z</time>
      </trkpt>
      <trkpt lat="48.99016" lon="-0.48336">
        <ele>26.9</ele>
        <time>2021-08-31T07:14:26.652Z</time>
      </trkpt>
      <trkpt lat="48.99001" lon="-0.48328">
        <ele>26.9</ele>
        <time>2021-08-31T07:14:56.021Z</time>
      </trkpt>
      <trkpt lat="48.99001" lon="-0.48328">
        <ele>26.9</ele>
        <time>2021-08-31T07:15:25.390Z</time>
      </trkpt>
      <trkpt lat="48.98993" lon="-0.48318">
        <ele>27.16</ele>
        <time>2021-08-31T07:15:54.761Z</time>
      </trkpt>
      <trkpt lat="48.98993" lon="-0.48318">
        <ele>27.16</ele>
        <time>2021-08-31T07:16:24.132Z</time>
      </trkpt>
      <trkpt lat="48.98985" lon="-0.48304">
        <ele>27.16</ele>
        <time>2021-08-31T07:16:53.505Z</time>
      </trkpt>
      <trkpt lat="48.98985" lon="-0.48304">
        <ele>27.16</ele>
        <time>2021-08-31T07:17:22.878Z</time>
      </trkpt>
      <trkpt lat="48.98965" lon="-0.4826">
        <ele>27.29</ele>
        <time>2021-08-31T07:17:52.257Z</time>
      </trkpt>
      <trkpt lat="48.98965" lon="-0.4826">
        <ele>27.29</ele>
        <time>2021-08-31T07:18:21.636Z</time>
      </trkpt>
      <trkpt lat="48.98935" lon="-0.48192">
        <ele>27.72</ele>
        <time>2021-08-31T07:18:51.023Z</time>
      </trkpt>
      <trkpt lat="48.98935" lon="-0.48192">
        <ele>27.72</ele>
        <time>2021-08-31T07:19:20.410Z</time>
      </trkpt>
      <trkpt lat="48.98928" lon="-0.48158">
        <ele>27.49</ele>
        <time>2021-08-31T07:19:49.801Z</time>
      </trkpt>
      <trkpt lat="48.98928" lon="-0.48158">
        <ele>27.49</ele>
        <time>2021-08-31T07:20:19.192Z</time>
      </trkpt>
      <trkpt lat="48.98869" lon="-0.48167">
        <ele>27.49</ele>
        <time>2021-08-31T07:20:48.593Z</time>
      </trkpt>
      <trkpt lat="48.98869" lon="-0.48167">
        <ele>27.49</ele>
        <time>2021-08-31T07:21:17.994Z</time>
      </trkpt>
      <trkpt lat="48.98761" lon="-0.48202">
        <ele>27.34</ele>
        <time>2021-08-31T07:21:47.412Z</time>
      </trkpt>
      <trkpt lat="48.98761" lon="-0.48202">
        <ele>27.34</ele>
        <time>2021-08-31T07:22:16.830Z</time>
      </trkpt>
      <trkpt lat="48.98664" lon="-0.48237">
        <ele>27.41</ele>
        <time>2021-08-31T07:22:46.264Z</time>
      </trkpt>
      <trkpt lat="48.98664" lon="-0.48237">
        <ele>27.41</ele>
        <time>2021-08-31T07:23:15.698Z</time>
      </trkpt>
      <trkpt lat="48.98625" lon="-0.48244">
        <ele>27.41</ele>
        <time>2021-08-31T07:23:45.138Z</time>
      </trkpt>
      <trkpt lat="48.98625" lon="-0.48244">
        <ele>27.41</ele>
        <time>2021-08-31T07:24:14.578Z</time>
      </trkpt>
      <trkpt lat="48.98561" lon="-0.48253">
        <ele>27.5</ele>
        <time>2021-08-31T07:24:44.029Z</time>
      </trkpt>
      <trkpt lat="48.98561" lon="-0.48253">
        <ele>27.5</ele>
        <time>2021-08-31T07:25:13.480Z</time>
      </trkpt>
      <trkpt lat="48.98477" lon="-0.48248">
        <ele>27.79</ele>
        <time>2021-08-31T07:25:42.944Z</time>
      </trkpt>
      <trkpt lat="48.98477" lon="-0.48248">
        <ele>27.79</ele>
        <time>2021-08-31T07:26:12.408Z</time>
      </trkpt>
      <trkpt lat="48.98417" lon="-0.48242">
        <ele>27.72</ele>
        <time>2021-08-31T07:26:41.882Z</time>
      </trkpt>
      <trkpt lat="48.98417" lon="-0.48242">
        <ele>27.72</ele>
        <time>2021-08-31T07:27:11.356Z</time>
      </trkpt>
      <trkpt lat="48.98382" lon="-0.48231">
        <ele>27.64</ele>
        <time>2021-08-31T07:27:40.836Z</time>
      </trkpt>
      <trkpt lat="48.98382" lon="-0.48231">
        <ele>27.64</ele>
        <time>2021-08-31T07:28:10.316Z</time>
      </trkpt>
      <trkpt lat="48.98123" lon="-0.48177">
        <ele>28.38</ele>
        <time>2021-08-31T07:28:39.837Z</time>
      </trkpt>
      <trkpt lat="48.98123" lon="-0.48177">
        <ele>28.38</ele>
        <time>2021-08-31T07:29:09.358Z</time>
      </trkpt>
      <trkpt lat="48.98085" lon="-0.48165">
        <ele>28.48</ele>
        <time>2021-08-31T07:29:38.886Z</time>
      </trkpt>
      <trkpt lat="48.98085" lon="-0.48165">
        <ele>28.48</ele>
        <time>2021-08-31T07:30:08.414Z</time>
      </trkpt>
      <trkpt lat="48.97821" lon="-0.4811">
        <ele>29.87</ele>
        <time>2021-08-31T07:30:37.984Z</time>
      </trkpt>
      <trkpt lat="48.97821" lon="-0.4811">
        <ele>29.87</ele>
        <time>2021-08-31T07:31:07.554Z</time>
      </trkpt>
      <trkpt lat="48.97777" lon="-0.48103">
        <ele>30.2</ele>
        <time>2021-08-31T07:31:37.131Z</time>
      </trkpt>
      <trkpt lat="48.97777" lon="-0.48103">
        <ele>30.2</ele>
        <time>2021-08-31T07:32:06.708Z</time>
      </trkpt>
      <trkpt lat="48.97774" lon="-0.48102">
        <ele>30.43</ele>
        <time>2021-08-31T07:32:36.286Z</time>
      </trkpt>
      <trkpt lat="48.97774" lon="-0.48102">
        <ele>30.43</ele>
        <time>2021-08-31T07:33:05.864Z</time>
      </trkpt>
      <trkpt lat="48.97715" lon="-0.48087">
        <ele>30.62</ele>
        <time>2021-08-31T07:33:35.452Z</time>
      </trkpt>
      <trkpt lat="48.97715" lon="-0.48087">
        <ele>30.62</ele>
        <time>2021-08-31T07:34:05.040Z</time>
      </trkpt>
      <trkpt lat="48.97683" lon="-0.48082">
        <ele>30.86</ele>
        <time>2021-08-31T07:34:34.633Z</time>
      </trkpt>
      <trkpt lat="48.97683" lon="-0.48082">
        <ele>30.86</ele>
        <time>2021-08-31T07:35:04.226Z</time>
      </trkpt>
      <trkpt lat="48.97659" lon="-0.48082">
        <ele>31.08</ele>
        <time>2021-08-31T07:35:33.823Z</time>
      </trkpt>
      <trkpt lat="48.97659" lon="-0.48082">
        <ele>31.08</ele>
        <time>2021-08-31T07:36:03.420Z</time>
      </trkpt>
      <trkpt lat="48.97614" lon="-0.48092">
        <ele>31.15</ele>
        <time>2021-08-31T07:36:33.024Z</time>
      </trkpt>
      <trkpt lat="48.97614" lon="-0.48092">
        <ele>31.15</ele>
        <time>2021-08-31T07:37:02.628Z</time>
      </trkpt>
      <trkpt lat="48.97593" lon="-0.48099">
        <ele>30.92</ele>
        <time>2021-08-31T07:37:32.235Z</time>
      </trkpt>
      <trkpt lat="48.97593" lon="-0.48099">
        <ele>30.92</ele>
        <time>2021-08-31T07:38:01.842Z</time>
      </trkpt>
      <trkpt lat="48.97576" lon="-0.48109">
        <ele>30.62</ele>
        <time>2021-08-31T07:38:31.452Z</time>
      </trkpt>
      <trkpt lat="48.97576" lon="-0.48109">
        <ele>30.62</ele>
        <time>2021-08-31T07:39:01.062Z</time>
      </trkpt>
      <trkpt lat="48.97515" lon="-0.48147">
        <ele>30.15</ele>
        <time>2021-08-31T07:39:30.683Z</time>
      </trkpt>
      <trkpt lat="48.97515" lon="-0.48147">
        <ele>30.15</ele>
        <time>2021-08-31T07:40:00.304Z</time>
      </trkpt>
      <trkpt lat="48.97466" lon="-0.48182">
        <ele>29.53</ele>
        <time>2021-08-31T07:40:29.933Z</time>
      </trkpt>
      <trkpt lat="48.97466" lon="-0.48182">
        <ele>29.53</ele>
        <time>2021-08-31T07:40:59.562Z</time>
      </trkpt>
      <trkpt lat="48.97415" lon="-0.48225">
        <ele>29.29</ele>
        <time>2021-08-31T07:41:29.201Z</time>
      </trkpt>
      <trkpt lat="48.97415" lon="-0.48225">
        <ele>29.29</ele>
        <time>2021-08-31T07:41:58.840Z</time>
      </trkpt>
      <trkpt lat="48.97373" lon="-0.48249">
        <ele>29.2</ele>
        <time>2021-08-31T07:42:28.486Z</time>
      </trkpt>
      <trkpt lat="48.97373" lon="-0.48249">
        <ele>29.2</ele>
        <time>2021-08-31T07:42:58.132Z</time>
      </trkpt>
      <trkpt lat="48.97321" lon="-0.4827">
        <ele>29.29</ele>
        <time>2021-08-31T07:43:27.787Z</time>
      </trkpt>
      <trkpt lat="48.97321" lon="-0.4827">
        <ele>29.29</ele>
        <time>2021-08-31T07:43:57.442Z</time>
      </trkpt>
      <trkpt lat="48.97283" lon="-0.48275">
        <ele>29.43</ele>
        <time>2021-08-31T07:44:27.103Z</time>
      </trkpt>
      <trkpt lat="48.97283" lon="-0.48275">
        <ele>29.43</ele>
        <time>2021-08-31T07:44:56.764Z</time>
      </trkpt>
      <trkpt lat="48.9724" lon="-0.48275">
        <ele>29.52</ele>
        <time>2021-08-31T07:45:26.432Z</time>
      </trkpt>
      <trkpt lat="48.9724" lon="-0.48275">
        <ele>29.52</ele>
        <time>2021-08-31T07:45:56.100Z</time>
      </trkpt>
      <trkpt lat="48.97211" lon="-0.4827">
        <ele>29.86</ele>
        <time>2021-08-31T07:46:25.772Z</time>
      </trkpt>
      <trkpt lat="48.97211" lon="-0.4827">
        <ele>29.86</ele>
        <time>2021-08-31T07:46:55.444Z</time>
      </trkpt>
      <trkpt lat="48.9698" lon="-0.48209">
        <ele>31.95</ele>
        <time>2021-08-31T07:47:25.154Z</time>
      </trkpt>
      <trkpt lat="48.9698" lon="-0.48209">
        <ele>31.95</ele>
        <time>2021-08-31T07:47:54.864Z</time>
      </trkpt>
      <trkpt lat="48.96961" lon="-0.48197">
        <ele>31.95</ele>
        <time>2021-08-31T07:48:24.577Z</time>
      </trkpt>
      <trkpt lat="48.96961" lon="-0.48197">
        <ele>31.95</ele>
        <time>2021-08-31T07:48:54.290Z</time>
      </trkpt>
      <trkpt lat="48.96852" lon="-0.4817">
        <ele>33.35</ele>
        <time>2021-08-31T07:49:24.021Z</time>
      </trkpt>
      <trkpt lat="48.96852" lon="-0.4817">
        <ele>33.35</ele>
        <time>2021-08-31T07:49:53.752Z</time>
      </trkpt>
      <trkpt lat="48.9676" lon="-0.48143">
        <ele>33.03</ele>
        <time>2021-08-31T07:50:23.498Z</time>
      </trkpt>
      <trkpt lat="48.9676" lon="-0.48143">
        <ele>33.03</ele>
        <time>2021-08-31T07:50:53.244Z</time>
      </trkpt>
      <trkpt lat="48.96761" lon="-0.48126">
        <ele>33.07</ele>
        <time>2021-08-31T07:51:22.992Z</time>
      </trkpt>
      <trkpt lat="48.96761" lon="-0.48126">
        <ele>33.07</ele>
        <time>2021-08-31T07:51:52.740Z</time>
      </trkpt>
      <trkpt lat="48.96753" lon="-0.48126">
        <ele>33.18</ele>
        <time>2021-08-31T07:52:22.489Z</time>
      </trkpt>
      <trkpt lat="48.96753" lon="-0.48126">
        <ele>33.18</ele>
        <time>2021-08-31T07:52:52.238Z</time>
      </trkpt>
      <trkpt lat="48.96729" lon="-0.48131">
        <ele>33.89</ele>
        <time>2021-08-31T07:53:21.991Z</time>
      </trkpt>
      <trkpt lat="48.96729" lon="-0.48131">
        <ele>33.89</ele>
        <time>2021-08-31T07:53:51.744Z</time>
      </trkpt>
      <trkpt lat="48.96711" lon="-0.48131">
        <ele>33.89</ele>
        <time>2021-08-31T07:54:21.500Z</time>
      </trkpt>
      <trkpt lat="48.96711" lon="-0.48131">
        <ele>33.89</ele>
        <time>2021-08-31T07:54:51.256Z</time>
      </trkpt>
      <trkpt lat="48.96684" lon="-0.48125">
        <ele>34.27</ele>
        <time>2021-08-31T07:55:21.016Z</time>
      </trkpt>
      <trkpt lat="48.96684" lon="-0.48125">
        <ele>34.27</ele>
        <time>2021-08-31T07:55:50.776Z</time>
      </trkpt>
      <trkpt lat="48.9664" lon="-0.48108">
        <ele>34.43</ele>
        <time>2021-08-31T07:56:20.543Z</time>
      </trkpt>
      <trkpt lat="48.9664" lon="-0.48108">
        <ele>34.43</ele>
        <time>2021-08-31T07:56:50.310Z</time>
      </trkpt>
      <trkpt lat="48.96559" lon="-0.48092">
        <ele>34.37</ele>
        <time>2021-08-31T07:57:20.090Z</time>
      </trkpt>
      <trkpt lat="48.96559" lon="-0.48092">
        <ele>34.37</ele>
        <time>2021-08-31T07:57:49.870Z</time>
      </trkpt>
      <trkpt lat="48.96431" lon="-0.48064">
        <ele>33.83</ele>
        <time>2021-08-31T07:58:19.671Z</time>
      </trkpt>
      <trkpt lat="48.96431" lon="-0.48064">
        <ele>33.83</ele>
        <time>2021-08-31T07:58:49.472Z</time>
      </trkpt>
      <trkpt lat="48.96404" lon="-0.48054">
        <ele>33.14</ele>
        <time>2021-08-31T07:59:19.277Z</time>
      </trkpt>
      <trkpt lat="48.96404" lon="-0.48054">
        <ele>33.14</ele>
        <time>2021-08-31T07:59:49.082Z</time>
      </trkpt>
      <trkpt lat="48.96398" lon="-0.48054">
        <ele>33.14</ele>
        <time>2021-08-31T08:00:18.888Z</time>
      </trkpt>
      <trkpt lat="48.96398" lon="-0.48054">
        <ele>33.14</ele>
        <time>2021-08-31T08:00:48.694Z</time>
      </trkpt>
      <trkpt lat="48.96381" lon="-0.48064">
        <ele>32.91</ele>
        <time>2021-08-31T08:01:18.503Z</time>
      </trkpt>
      <trkpt lat="48.96381" lon="-0.48064">
        <ele>32.91</ele>
        <time>2021-08-31T08:01:48.312Z</time>
      </trkpt>
      <trkpt lat="48.96294" lon="-0.48064">
        <ele>32.66</ele>
        <time>2021-08-31T08:02:18.135Z</time>
      </trkpt>
      <trkpt lat="48.96294" lon="-0.48064">
        <ele>32.66</ele>
        <time>2021-08-31T08:02:47.958Z</time>
      </trkpt>
      <trkpt lat="48.96218" lon="-0.48082">
        <ele>32.69</ele>
        <time>2021-08-31T08:03:17.794Z</time>
      </trkpt>
      <trkpt lat="48.96218" lon="-0.48082">
        <ele>32.69</ele>
        <time>2021-08-31T08:03:47.630Z</time>
      </trkpt>
      <trkpt lat="48.96155" lon="-0.48115">
        <ele>32.81</ele>
        <time>2021-08-31T08:04:17.476Z</time>
      </trkpt>
      <trkpt lat="48.96155" lon="-0.48115">
        <ele>32.81</ele>
        <time>2021-08-31T08:04:47.322Z</time>
      </trkpt>
      <trkpt lat="48.96115" lon="-0.48147">
        <ele>32.78</ele>
        <time>2021-08-31T08:05:17.175Z</time>
      </trkpt>
      <trkpt lat="48.96115" lon="-0.48147">
        <ele>32.78</ele>
        <time>2021-08-31T08:05:47.028Z</time>
      </trkpt>
      <trkpt lat="48.9608" lon="-0.48181">
        <ele>32.73</ele>
        <time>2021-08-31T08:06:16.888Z</time>
      </trkpt>
      <trkpt lat="48.9608" lon="-0.48181">
        <ele>32.73</ele>
        <time>2021-08-31T08:06:46.748Z</time>
      </trkpt>
      <trkpt lat="48.96067" lon="-0.48196">
        <ele>32.75</ele>
        <time>2021-08-31T08:07:16.611Z</time>
      </trkpt>
      <trkpt lat="48.96067" lon="-0.48196">
        <ele>32.75</ele>
        <time>2021-08-31T08:07:46.474Z</time>
      </trkpt>
      <trkpt lat="48.96065" lon="-0.48197">
        <ele>32.75</ele>
        <time>2021-08-31T08:08:16.337Z</time>
      </trkpt>
      <trkpt lat="48.96065" lon="-0.48197">
        <ele>32.75</ele>
        <time>2021-08-31T08:08:46.200Z</time>
      </trkpt>
      <trkpt lat="48.9603" lon="-0.48238">
        <ele>32.69</ele>
        <time>2021-08-31T08:09:16.070Z</time>
      </trkpt>
      <trkpt lat="48.9603" lon="-0.48238">
        <ele>32.69</ele>
        <time>2021-08-31T08:09:45.940Z</time>
      </trkpt>
      <trkpt lat="48.95991" lon="-0.48298">
        <ele>32.52</ele>
        <time>2021-08-31T08:10:15.819Z</time>
      </trkpt>
      <trkpt lat="48.95991" lon="-0.48298">
        <ele>32.52</ele>
        <time>2021-08-31T08:10:45.698Z</time>
      </trkpt>
      <trkpt lat="48.95951" lon="-0.48365">
        <ele>32.54</ele>
        <time>2021-08-31T08:11:15.587Z</time>
      </trkpt>
      <trkpt lat="48.95951" lon="-0.48365">
        <ele>32.54</ele>
        <time>2021-08-31T08:11:45.476Z</time>
      </trkpt>
      <trkpt lat="48.95879" lon="-0.48493">
        <ele>32.94</ele>
        <time>2021-08-31T08:12:15.382Z</time>
      </trkpt>
      <trkpt lat="48.95879" lon="-0.48493">
        <ele>32.94</ele>
        <time>2021-08-31T08:12:45.288Z</time>
      </trkpt>
      <trkpt lat="48.95713" lon="-0.48781">
        <ele>32.38</ele>
        <time>2021-08-31T08:13:15.235Z</time>
      </trkpt>
      <trkpt lat="48.95713" lon="-0.48781">
        <ele>32.38</ele>
        <time>2021-08-31T08:13:45.182Z</time>
      </trkpt>
      <trkpt lat="48.95629" lon="-0.48919">
        <ele>32.36</ele>
        <time>2021-08-31T08:14:15.149Z</time>
      </trkpt>
      <trkpt lat="48.95629" lon="-0.48919">
        <ele>32.36</ele>
        <time>2021-08-31T08:14:45.116Z</time>
      </trkpt>
      <trkpt lat="48.95594" lon="-0.48982">
        <ele>32.48</ele>
        <time>2021-08-31T08:15:15.091Z</time>
      </trkpt>
      <trkpt lat="48.95594" lon="-0.48982">
        <ele>32.48</ele>
        <time>2021-08-31T08:15:45.066Z</time>
      </trkpt>
      <trkpt lat="48.95541" lon="-0.49114">
        <ele>32.48</ele>
        <time>2021-08-31T08:16:15.058Z</time>
      </trkpt>
      <trkpt lat="48.95541" lon="-0.49114">
        <ele>32.48</ele>
        <time>2021-08-31T08:16:45.050Z</time>
      </trkpt>
      <trkpt lat="48.95505" lon="-0.49231">
        <ele>32.52</ele>
        <time>2021-08-31T08:17:15.055Z</time>
      </trkpt>
      <trkpt lat="48.95505" lon="-0.49231">
        <ele>32.52</ele>
        <time>2021-08-31T08:17:45.060Z</time>
      </trkpt>
      <trkpt lat="48.95488" lon="-0.49309">
        <ele>32.53</ele>
        <time>2021-08-31T08:18:15.074Z</time>
      </trkpt>
      <trkpt lat="48.95488" lon="-0.49309">
        <ele>32.53</ele>
        <time>2021-08-31T08:18:45.088Z</time>
      </trkpt>
      <trkpt lat="48.95392" lon="-0.4993">
        <ele>33.45</ele>
        <time>2021-08-31T08:19:15.169Z</time>
      </trkpt>
      <trkpt lat="48.95392" lon="-0.4993">
        <ele>33.45</ele>
        <time>2021-08-31T08:19:45.250Z</time>
      </trkpt>
      <trkpt lat="48.95366" lon="-0.50088">
        <ele>33.74</ele>
        <time>2021-08-31T08:20:15.348Z</time>
      </trkpt>
      <trkpt lat="48.95366" lon="-0.50088">
        <ele>33.74</ele>
        <time>2021-08-31T08:20:45.446Z</time>
      </trkpt>
      <trkpt lat="48.95345" lon="-0.50149">
        <ele>34.28</ele>
        <time>2021-08-31T08:21:15.552Z</time>
      </trkpt>
      <trkpt lat="48.95345" lon="-0.50149">
        <ele>34.28</ele>
        <time>2021-08-31T08:21:45.658Z</time>
      </trkpt>
      <trkpt lat="48.95312" lon="-0.50219">
        <ele>33.73</ele>
        <time>2021-08-31T08:22:15.773Z</time>
      </trkpt>
      <trkpt lat="48.95312" lon="-0.50219">
        <ele>33.73</ele>
        <time>2021-08-31T08:22:45.888Z</time>
      </trkpt>
      <trkpt lat="48.95286" lon="-0.50257">
        <ele>33.32</ele>
        <time>2021-08-31T08:23:16.008Z</time>
      </trkpt>
      <trkpt lat="48.95286" lon="-0.50257">
        <ele>33.32</ele>
        <time>2021-08-31T08:23:46.128Z</time>
      </trkpt>
      <trkpt lat="48.95239" lon="-0.50307">
        <ele>32.67</ele>
        <time>2021-08-31T08:24:16.258Z</time>
      </trkpt>
      <trkpt lat="48.95239" lon="-0.50307">
        <ele>32.67</ele>
        <time>2021-08-31T08:24:46.388Z</time>
      </trkpt>
      <trkpt lat="48.95209" lon="-0.50327">
        <ele>32.07</ele>
        <time>2021-08-31T08:25:16.523Z</time>
      </trkpt>
      <trkpt lat="48.95209" lon="-0.50327">
        <ele>32.07</ele>
        <time>2021-08-31T08:25:46.658Z</time>
      </trkpt>
      <trkpt lat="48.95181" lon="-0.50339">
        <ele>30.19</ele>
        <time>2021-08-31T08:26:16.797Z</time>
      </trkpt>
      <trkpt lat="48.95181" lon="-0.50339">
        <ele>30.19</ele>
        <time>2021-08-31T08:26:46.936Z</time>
      </trkpt>
      <trkpt lat="48.95139" lon="-0.50353">
        <ele>28.63</ele>
        <time>2021-08-31T08:27:17.082Z</time>
      </trkpt>
      <trkpt lat="48.95139" lon="-0.50353">
        <ele>28.63</ele>
        <time>2021-08-31T08:27:47.228Z</time>
      </trkpt>
      <trkpt lat="48.95105" lon="-0.50358">
        <ele>27.68</ele>
        <time>2021-08-31T08:28:17.380Z</time>
      </trkpt>
      <trkpt lat="48.95105" lon="-0.50358">
        <ele>27.68</ele>
        <time>2021-08-31T08:28:47.532Z</time>
      </trkpt>
      <trkpt lat="48.95072" lon="-0.50356">
        <ele>27.18</ele>
        <time>2021-08-31T08:29:17.689Z</time>
      </trkpt>
      <trkpt lat="48.95072" lon="-0.50356">
        <ele>27.18</ele>
        <time>2021-08-31T08:29:47.846Z</time>
      </trkpt>
      <trkpt lat="48.9503" lon="-0.50344">
        <ele>26.94</ele>
        <time>2021-08-31T08:30:18.010Z</time>
      </trkpt>
      <trkpt lat="48.9503" lon="-0.50344">
        <ele>26.94</ele>
        <time>2021-08-31T08:30:48.174Z</time>
      </trkpt>
      <trkpt lat="48.94916" lon="-0.503">
        <ele>27.32</ele>
        <time>2021-08-31T08:31:18.357Z</time>
      </trkpt>
      <trkpt lat="48.94916" lon="-0.503">
        <ele>27.32</ele>
        <time>2021-08-31T08:31:48.540Z</time>
      </trkpt>
      <trkpt lat="48.94875" lon="-0.5029">
        <ele>27.88</ele>
        <time>2021-08-31T08:32:18.729Z</time>
      </trkpt>
      <trkpt lat="48.94875" lon="-0.5029">
        <ele>27.88</ele>
        <time>2021-08-31T08:32:48.918Z</time>
      </trkpt>
      <trkpt lat="48.94824" lon="-0.50288">
        <ele>27.89</ele>
        <time>2021-08-31T08:33:19.116Z</time>
      </trkpt>
      <trkpt lat="48.94824" lon="-0.50288">
        <ele>27.89</ele>
        <time>2021-08-31T08:33:49.314Z</time>
      </trkpt>
      <trkpt lat="48.94778" lon="-0.50283">
        <ele>28.18</ele>
        <time>2021-08-31T08:34:19.519Z</time>
      </trkpt>
      <trkpt lat="48.94778" lon="-0.50283">
        <ele>28.18</ele>
        <time>2021-08-31T08:34:49.724Z</time>
      </trkpt>
      <trkpt lat="48.94702" lon="-0.50285">
        <ele>30.86</ele>
        <time>2021-08-31T08:35:19.941Z</time>
      </trkpt>
      <trkpt lat="48.94702" lon="-0.50285">
        <ele>30.86</ele>
        <time>2021-08-31T08:35:50.158Z</time>
      </trkpt>
      <trkpt lat="48.94651" lon="-0.50261">
        <ele>33.04</ele>
        <time>2021-08-31T08:36:20.384Z</time>
      </trkpt>
      <trkpt lat="48.94651" lon="-0.50261">
        <ele>33.04</ele>
        <time>2021-08-31T08:36:50.610Z</time>
      </trkpt>
      <trkpt lat="48.94501" lon="-0.50166">
        <ele>36.22</ele>
        <time>2021-08-31T08:37:20.862Z</time>
      </trkpt>
      <trkpt lat="48.94501" lon="-0.50166">
        <ele>36.22</ele>
        <time>2021-08-31T08:37:51.114Z</time>
      </trkpt>
      <trkpt lat="48.94472" lon="-0.50153">
        <ele>36.49</ele>
        <time>2021-08-31T08:38:21.371Z</time>
      </trkpt>
      <trkpt lat="48.94472" lon="-0.50153">
        <ele>36.49</ele>
        <time>2021-08-31T08:38:51.628Z</time>
      </trkpt>
      <trkpt lat="48.9444" lon="-0.50147">
        <ele>36.49</ele>
        <time>2021-08-31T08:39:21.890Z</time>
      </trkpt>
      <trkpt lat="48.9444" lon="-0.50147">
        <ele>36.49</ele>
        <time>2021-08-31T08:39:52.152Z</time>
      </trkpt>
      <trkpt lat="48.94409" lon="-0.50146">
        <ele>36.45</ele>
        <time>2021-08-31T08:40:22.419Z</time>
      </trkpt>
      <trkpt lat="48.94409" lon="-0.50146">
        <ele>36.45</ele>
        <time>2021-08-31T08:40:52.686Z</time>
      </trkpt>
      <trkpt lat="48.94387" lon="-0.50149">
        <ele>36.56</ele>
        <time>2021-08-31T08:41:22.956Z</time>
      </trkpt>
      <trkpt lat="48.94387" lon="-0.50149">
        <ele>36.56</ele>
        <time>2021-08-31T08:41:53.226Z</time>
      </trkpt>
      <trkpt lat="48.94353" lon="-0.50161">
        <ele>37.12</ele>
        <time>2021-08-31T08:42:23.502Z</time>
      </trkpt>
      <trkpt lat="48.94353" lon="-0.50161">
        <ele>37.12</ele>
        <time>2021-08-31T08:42:53.778Z</time>
      </trkpt>
      <trkpt lat="48.94312" lon="-0.50183">
        <ele>36.69</ele>
        <time>2021-08-31T08:43:24.061Z</time>
      </trkpt>
      <trkpt lat="48.94312" lon="-0.50183">
        <ele>36.69</ele>
        <time>2021-08-31T08:43:54.344Z</time>
      </trkpt>
      <trkpt lat="48.94277" lon="-0.50207">
        <ele>36.62</ele>
        <time>2021-08-31T08:44:24.633Z</time>
      </trkpt>
      <trkpt lat="48.94277" lon="-0.50207">
        <ele>36.62</ele>
        <time>2021-08-31T08:44:54.922Z</time>
      </trkpt>
      <trkpt lat="48.9427" lon="-0.50217">
        <ele>36.62</ele>
        <time>2021-08-31T08:45:25.213Z</time>
      </trkpt>
      <trkpt lat="48.9427" lon="-0.50217">
        <ele>36.62</ele>
        <time>2021-08-31T08:45:55.504Z</time>
      </trkpt>
      <trkpt lat="48.94108" lon="-0.50384">
        <ele>36.65</ele>
        <time>2021-08-31T08:46:25.826Z</time>
      </trkpt>
      <trkpt lat="48.94108" lon="-0.50384">
        <ele>36.65</ele>
        <time>2021-08-31T08:46:56.148Z</time>
      </trkpt>
      <trkpt lat="48.93613" lon="-0.5089">
        <ele>34.47</ele>
        <time>2021-08-31T08:47:26.565Z</time>
      </trkpt>
      <trkpt lat="48.93613" lon="-0.5089">
        <ele>34.47</ele>
        <time>2021-08-31T08:47:56.982Z</time>
      </trkpt>
      <trkpt lat="48.93568" lon="-0.50932">
        <ele>34.55</ele>
        <time>2021-08-31T08:48:27.408Z</time>
      </trkpt>
      <trkpt lat="48.93568" lon="-0.50932">
        <ele>34.55</ele>
        <time>2021-08-31T08:48:57.834Z</time>
      </trkpt>
      <trkpt lat="48.93527" lon="-0.50976">
        <ele>34.37</ele>
        <time>2021-08-31T08:49:28.268Z</time>
      </trkpt>
      <trkpt lat="48.93527" lon="-0.50976">
        <ele>34.37</ele>
        <time>2021-08-31T08:49:58.702Z</time>
      </trkpt>
      <trkpt lat="48.93491" lon="-0.5101">
        <ele>34.28</ele>
        <time>2021-08-31T08:50:29.143Z</time>
      </trkpt>
      <trkpt lat="48.93491" lon="-0.5101">
        <ele>34.28</ele>
        <time>2021-08-31T08:50:59.584Z</time>
      </trkpt>
      <trkpt lat="48.93436" lon="-0.51051">
        <ele>34.16</ele>
        <time>2021-08-31T08:51:30.035Z</time>
      </trkpt>
      <trkpt lat="48.93436" lon="-0.51051">
        <ele>34.16</ele>
        <time>2021-08-31T08:52:00.486Z</time>
      </trkpt>
      <trkpt lat="48.93383" lon="-0.51076">
        <ele>34.15</ele>
        <time>2021-08-31T08:52:30.945Z</time>
      </trkpt>
      <trkpt lat="48.93383" lon="-0.51076">
        <ele>34.15</ele>
        <time>2021-08-31T08:53:01.404Z</time>
      </trkpt>
      <trkpt lat="48.93348" lon="-0.51083">
        <ele>34.29</ele>
        <time>2021-08-31T08:53:31.869Z</time>
      </trkpt>
      <trkpt lat="48.93348" lon="-0.51083">
        <ele>34.29</ele>
        <time>2021-08-31T08:54:02.334Z</time>
      </trkpt>
      <trkpt lat="48.93304" lon="-0.51085">
        <ele>34.48</ele>
        <time>2021-08-31T08:54:32.806Z</time>
      </trkpt>
      <trkpt lat="48.93304" lon="-0.51085">
        <ele>34.48</ele>
        <time>2021-08-31T08:55:03.278Z</time>
      </trkpt>
      <trkpt lat="48.93271" lon="-0.5108">
        <ele>35.16</ele>
        <time>2021-08-31T08:55:33.755Z</time>
      </trkpt>
      <trkpt lat="48.93271" lon="-0.5108">
        <ele>35.16</ele>
        <time>2021-08-31T08:56:04.232Z</time>
      </trkpt>
      <trkpt lat="48.93234" lon="-0.51071">
        <ele>36.19</ele>
        <time>2021-08-31T08:56:34.715Z</time>
      </trkpt>
      <trkpt lat="48.93234" lon="-0.51071">
        <ele>36.19</ele>
        <time>2021-08-31T08:57:05.198Z</time>
      </trkpt>
      <trkpt lat="48.9318" lon="-0.51044">
        <ele>36.2</ele>
        <time>2021-08-31T08:57:35.691Z</time>
      </trkpt>
      <trkpt lat="48.9318" lon="-0.51044">
        <ele>36.2</ele>
        <time>2021-08-31T08:58:06.184Z</time>
      </trkpt>
      <trkpt lat="48.93173" lon="-0.51044">
        <ele>36.11</ele>
        <time>2021-08-31T08:58:36.678Z</time>
      </trkpt>
      <trkpt lat="48.93173" lon="-0.51044">
        <ele>36.11</ele>
        <time>2021-08-31T08:59:07.172Z</time>
      </trkpt>
      <trkpt lat="48.93167" lon="-0.51049">
        <ele>36.11</ele>
        <time>2021-08-31T08:59:37.667Z</time>
      </trkpt>
      <trkpt lat="48.93167" lon="-0.51049">
        <ele>36.11</ele>
        <time>2021-08-31T09:00:08.162Z</time>
      </trkpt>
      <trkpt lat="48.93161" lon="-0.51027">
        <ele>35.67</ele>
        <time>2021-08-31T09:00:38.659Z</time>
      </trkpt>
      <trkpt lat="48.93161" lon="-0.51027">
        <ele>35.67</ele>
        <time>2021-08-31T09:01:09.156Z</time>
      </trkpt>
      <trkpt lat="48.9315" lon="-0.51036">
        <ele>35.4</ele>
        <time>2021-08-31T09:01:39.655Z</time>
      </trkpt>
      <trkpt lat="48.9315" lon="-0.51036">
        <ele>35.4</ele>
        <time>2021-08-31T09:02:10.154Z</time>
      </trkpt>
      <trkpt lat="48.93147" lon="-0.51022">
        <ele>35.26</ele>
        <time>2021-08-31T09:02:40.655Z</time>
      </trkpt>
      <trkpt lat="48.93147" lon="-0.51022">
        <ele>35.26</ele>
        <time>2021-08-31T09:03:11.156Z</time>
      </trkpt>
      <trkpt lat="48.93145" lon="-0.5102">
        <ele>35.26</ele>
        <time>2021-08-31T09:03:41.657Z</time>
      </trkpt>
      <trkpt lat="48.93145" lon="-0.5102">
        <ele>35.26</ele>
        <time>2021-08-31T09:04:12.158Z</time>
      </trkpt>
      <trkpt lat="48.93142" lon="-0.51022">
        <ele>35.26</ele>
        <time>2021-08-31T09:04:42.660Z</time>
      </trkpt>
      <trkpt lat="48.93142" lon="-0.51022">
        <ele>35.26</ele>
        <time>2021-08-31T09:05:13.162Z</time>
      </trkpt>
      <trkpt lat="48.93136" lon="-0.51022">
        <ele>35.26</ele>
        <time>2021-08-31T09:05:43.665Z</time>
      </trkpt>
      <trkpt lat="48.93136" lon="-0.51022">
        <ele>35.26</ele>
        <time>2021-08-31T09:06:14.168Z</time>
      </trkpt>
      <trkpt lat="48.93131" lon="-0.5101">
        <ele>35.18</ele>
        <time>2021-08-31T09:06:44.672Z</time>
      </trkpt>
      <trkpt lat="48.93131" lon="-0.5101">
        <ele>35.18</ele>
        <time>2021-08-31T09:07:15.176Z</time>
      </trkpt>
      <trkpt lat="48.9311" lon="-0.50988">
        <ele>35.13</ele>
        <time>2021-08-31T09:07:45.684Z</time>
      </trkpt>
      <trkpt lat="48.9311" lon="-0.50988">
        <ele>35.13</ele>
        <time>2021-08-31T09:08:16.192Z</time>
      </trkpt>
      <trkpt lat="48.93074" lon="-0.50941">
        <ele>35.15</ele>
        <time>2021-08-31T09:08:46.708Z</time>
      </trkpt>
      <trkpt lat="48.93074" lon="-0.50941">
        <ele>35.15</ele>
        <time>2021-08-31T09:09:17.224Z</time>
      </trkpt>
      <trkpt lat="48.93047" lon="-0.50898">
        <ele>35</ele>
        <time>2021-08-31T09:09:47.746Z</time>
      </trkpt>
      <trkpt lat="48.93047" lon="-0.50898">
        <ele>35</ele>
        <time>2021-08-31T09:10:18.268Z</time>
      </trkpt>
      <trkpt lat="48.92981" lon="-0.50768">
        <ele>34.8</ele>
        <time>2021-08-31T09:10:48.807Z</time>
      </trkpt>
      <trkpt lat="48.92981" lon="-0.50768">
        <ele>34.8</ele>
        <time>2021-08-31T09:11:19.346Z</time>
      </trkpt>
      <trkpt lat="48.92965" lon="-0.50698">
        <ele>34.72</ele>
        <time>2021-08-31T09:11:49.893Z</time>
      </trkpt>
      <trkpt lat="48.92965" lon="-0.50698">
        <ele>34.72</ele>
        <time>2021-08-31T09:12:20.440Z</time>
      </trkpt>
      <trkpt lat="48.92939" lon="-0.50492">
        <ele>34.96</ele>
        <time>2021-08-31T09:12:51.009Z</time>
      </trkpt>
      <trkpt lat="48.92939" lon="-0.50492">
        <ele>34.96</ele>
        <time>2021-08-31T09:13:21.578Z</time>
      </trkpt>
      <trkpt lat="48.92887" lon="-0.50136">
        <ele>36.58</ele>
        <time>2021-08-31T09:13:52.186Z</time>
      </trkpt>
      <trkpt lat="48.92887" lon="-0.50136">
        <ele>36.58</ele>
        <time>2021-08-31T09:14:22.794Z</time>
      </trkpt>
      <trkpt lat="48.9286" lon="-0.49936">
        <ele>38.23</ele>
        <time>2021-08-31T09:14:53.423Z</time>
      </trkpt>
      <trkpt lat="48.9286" lon="-0.49936">
        <ele>38.23</ele>
        <time>2021-08-31T09:15:24.052Z</time>
      </trkpt>
      <trkpt lat="48.92835" lon="-0.49439">
        <ele>40.02</ele>
        <time>2021-08-31T09:15:54.734Z</time>
      </trkpt>
      <trkpt lat="48.92835" lon="-0.49439">
        <ele>40.02</ele>
        <time>2021-08-31T09:16:25.416Z</time>
      </trkpt>
      <trkpt lat="48.92768" lon="-0.48192">
        <ele>39.11</ele>
        <time>2021-08-31T09:16:56.230Z</time>
      </trkpt>
      <trkpt lat="48.92768" lon="-0.48192">
        <ele>39.11</ele>
        <time>2021-08-31T09:17:27.044Z</time>
      </trkpt>
      <trkpt lat="48.92762" lon="-0.48004">
        <ele>38.54</ele>
        <time>2021-08-31T09:17:57.878Z</time>
      </trkpt>
      <trkpt lat="48.92762" lon="-0.48004">
        <ele>38.54</ele>
        <time>2021-08-31T09:18:28.712Z</time>
      </trkpt>
      <trkpt lat="48.92764" lon="-0.47892">
        <ele>38.71</ele>
        <time>2021-08-31T09:18:59.558Z</time>
      </trkpt>
      <trkpt lat="48.92764" lon="-0.47892">
        <ele>38.71</ele>
        <time>2021-08-31T09:19:30.404Z</time>
      </trkpt>
      <trkpt lat="48.92778" lon="-0.47799">
        <ele>38.48</ele>
        <time>2021-08-31T09:20:01.260Z</time>
      </trkpt>
      <trkpt lat="48.92778" lon="-0.47799">
        <ele>38.48</ele>
        <time>2021-08-31T09:20:32.116Z</time>
      </trkpt>
      <trkpt lat="48.92813" lon="-0.47613">
        <ele>38.17</ele>
        <time>2021-08-31T09:21:02.992Z</time>
      </trkpt>
      <trkpt lat="48.92813" lon="-0.47613">
        <ele>38.17</ele>
        <time>2021-08-31T09:21:33.868Z</time>
      </trkpt>
      <trkpt lat="48.92814" lon="-0.47611">
        <ele>38.2</ele>
        <time>2021-08-31T09:22:04.744Z</time>
      </trkpt>
      <trkpt lat="48.92814" lon="-0.47611">
        <ele>38.2</ele>
        <time>2021-08-31T09:22:35.620Z</time>
      </trkpt>
      <trkpt lat="48.92819" lon="-0.47577">
        <ele>38.2</ele>
        <time>2021-08-31T09:23:06.500Z</time>
      </trkpt>
      <trkpt lat="48.92819" lon="-0.47577">
        <ele>38.2</ele>
        <time>2021-08-31T09:23:37.380Z</time>
      </trkpt>
      <trkpt lat="48.92827" lon="-0.47486">
        <ele>38.12</ele>
        <time>2021-08-31T09:24:08.270Z</time>
      </trkpt>
      <trkpt lat="48.92827" lon="-0.47486">
        <ele>38.12</ele>
        <time>2021-08-31T09:24:39.160Z</time>
      </trkpt>
      <trkpt lat="48.92823" lon="-0.4742">
        <ele>38.08</ele>
        <time>2021-08-31T09:25:10.057Z</time>
      </trkpt>
      <trkpt lat="48.92823" lon="-0.4742">
        <ele>38.08</ele>
        <time>2021-08-31T09:25:40.954Z</time>
      </trkpt>
      <trkpt lat="48.92807" lon="-0.4732">
        <ele>38.13</ele>
        <time>2021-08-31T09:26:11.862Z</time>
      </trkpt>
      <trkpt lat="48.92807" lon="-0.4732">
        <ele>38.13</ele>
        <time>2021-08-31T09:26:42.770Z</time>
      </trkpt>
      <trkpt lat="48.92762" lon="-0.47205">
        <ele>38.85</ele>
        <time>2021-08-31T09:27:13.692Z</time>
      </trkpt>
      <trkpt lat="48.92762" lon="-0.47205">
        <ele>38.85</ele>
        <time>2021-08-31T09:27:44.614Z</time>
      </trkpt>
      <trkpt lat="48.92726" lon="-0.47149">
        <ele>39.19</ele>
        <time>2021-08-31T09:28:15.544Z</time>
      </trkpt>
      <trkpt lat="48.92726" lon="-0.47149">
        <ele>39.19</ele>
        <time>2021-08-31T09:28:46.474Z</time>
      </trkpt>
      <trkpt lat="48.92691" lon="-0.47104">
        <ele>39.76</ele>
        <time>2021-08-31T09:29:17.411Z</time>
      </trkpt>
      <trkpt lat="48.92691" lon="-0.47104">
        <ele>39.76</ele>
        <time>2021-08-31T09:29:48.348Z</time>
      </trkpt>
      <trkpt lat="48.92647" lon="-0.47064">
        <ele>40.08</ele>
        <time>2021-08-31T09:30:19.294Z</time>
      </trkpt>
      <trkpt lat="48.92647" lon="-0.47064">
        <ele>40.08</ele>
        <time>2021-08-31T09:30:50.240Z</time>
      </trkpt>
      <trkpt lat="48.92599" lon="-0.47033">
        <ele>40.5</ele>
        <time>2021-08-31T09:31:21.194Z</time>
      </trkpt>
      <trkpt lat="48.92599" lon="-0.47033">
        <ele>40.5</ele>
        <time>2021-08-31T09:31:52.148Z</time>
      </trkpt>
      <trkpt lat="48.92525" lon="-0.47015">
        <ele>40.91</ele>
        <time>2021-08-31T09:32:23.114Z</time>
      </trkpt>
      <trkpt lat="48.92525" lon="-0.47015">
        <ele>40.91</ele>
        <time>2021-08-31T09:32:54.080Z</time>
      </trkpt>
      <trkpt lat="48.92488" lon="-0.47017">
        <ele>41.01</ele>
        <time>2021-08-31T09:33:25.052Z</time>
      </trkpt>
      <trkpt lat="48.92488" lon="-0.47017">
        <ele>41.01</ele>
        <time>2021-08-31T09:33:56.024Z</time>
      </trkpt>
      <trkpt lat="48.92403" lon="-0.47033">
        <ele>41.58</ele>
        <time>2021-08-31T09:34:27.010Z</time>
      </trkpt>
      <trkpt lat="48.92403" lon="-0.47033">
        <ele>41.58</ele>
        <time>2021-08-31T09:34:57.996Z</time>
      </trkpt>
      <trkpt lat="48.92063" lon="-0.47149">
        <ele>44.99</ele>
        <time>2021-08-31T09:35:29.037Z</time>
      </trkpt>
      <trkpt lat="48.92063" lon="-0.47149">
        <ele>44.99</ele>
        <time>2021-08-31T09:36:00.078Z</time>
      </trkpt>
      <trkpt lat="48.92004" lon="-0.47165">
        <ele>45.7</ele>
        <time>2021-08-31T09:36:31.129Z</time>
      </trkpt>
      <trkpt lat="48.92004" lon="-0.47165">
        <ele>45.7</ele>
        <time>2021-08-31T09:37:02.180Z</time>
      </trkpt>
      <trkpt lat="48.91889" lon="-0.47184">
        <ele>47.44</ele>
        <time>2021-08-31T09:37:33.250Z</time>
      </trkpt>
      <trkpt lat="48.91889" lon="-0.47184">
        <ele>47.44</ele>
        <time>2021-08-31T09:38:04.320Z</time>
      </trkpt>
      <trkpt lat="48.91714" lon="-0.47209">
        <ele>49.36</ele>
        <time>2021-08-31T09:38:35.418Z</time>
      </trkpt>
      <trkpt lat="48.91714" lon="-0.47209">
        <ele>49.36</ele>
        <time>2021-08-31T09:39:06.516Z</time>
      </trkpt>
      <trkpt lat="48.9128" lon="-0.47262">
        <ele>54.51</ele>
        <time>2021-08-31T09:39:37.683Z</time>
      </trkpt>
      <trkpt lat="48.9128" lon="-0.47262">
        <ele>54.51</ele>
        <time>2021-08-31T09:40:08.850Z</time>
      </trkpt>
      <trkpt lat="48.91224" lon="-0.47259">
        <ele>55.05</ele>
        <time>2021-08-31T09:40:40.026Z</time>
      </trkpt>
      <trkpt lat="48.91224" lon="-0.47259">
        <ele>55.05</ele>
        <time>2021-08-31T09:41:11.202Z</time>
      </trkpt>
      <trkpt lat="48.91188" lon="-0.47254">
        <ele>55.8</ele>
        <time>2021-08-31T09:41:42.384Z</time>
      </trkpt>
      <trkpt lat="48.91188" lon="-0.47254">
        <ele>55.8</ele>
        <time>2021-08-31T09:42:13.566Z</time>
      </trkpt>
      <trkpt lat="48.91102" lon="-0.47221">
        <ele>56.88</ele>
        <time>2021-08-31T09:42:44.762Z</time>
      </trkpt>
      <trkpt lat="48.91102" lon="-0.47221">
        <ele>56.88</ele>
        <time>2021-08-31T09:43:15.958Z</time>
      </trkpt>
      <trkpt lat="48.91035" lon="-0.4719">
        <ele>57.61</ele>
        <time>2021-08-31T09:43:47.166Z</time>
      </trkpt>
      <trkpt lat="48.91035" lon="-0.4719">
        <ele>57.61</ele>
        <time>2021-08-31T09:44:18.374Z</time>
      </trkpt>
      <trkpt lat="48.91002" lon="-0.47177">
        <ele>57.88</ele>
        <time>2021-08-31T09:44:49.587Z</time>
      </trkpt>
      <trkpt lat="48.91002" lon="-0.47177">
        <ele>57.88</ele>
        <time>2021-08-31T09:45:20.800Z</time>
      </trkpt>
      <trkpt lat="48.90839" lon="-0.47099">
        <ele>60.14</ele>
        <time>2021-08-31T09:45:52.040Z</time>
      </trkpt>
      <trkpt lat="48.90839" lon="-0.47099">
        <ele>60.14</ele>
        <time>2021-08-31T09:46:23.280Z</time>
      </trkpt>
      <trkpt lat="48.90783" lon="-0.47066">
        <ele>61.26</ele>
        <time>2021-08-31T09:46:54.530Z</time>
      </trkpt>
      <trkpt lat="48.90783" lon="-0.47066">
        <ele>61.26</ele>
        <time>2021-08-31T09:47:25.780Z</time>
      </trkpt>
      <trkpt lat="48.90707" lon="-0.47004">
        <ele>62.15</ele>
        <time>2021-08-31T09:47:57.044Z</time>
      </trkpt>
      <trkpt lat="48.90707" lon="-0.47004">
        <ele>62.15</ele>
        <time>2021-08-31T09:48:28.308Z</time>
      </trkpt>
      <trkpt lat="48.90681" lon="-0.46976">
        <ele>62.39</ele>
        <time>2021-08-31T09:48:59.577Z</time>
      </trkpt>
      <trkpt lat="48.90681" lon="-0.46976">
        <ele>62.39</ele>
        <time>2021-08-31T09:49:30.846Z</time>
      </trkpt>
      <trkpt lat="48.90625" lon="-0.46905">
        <ele>63.13</ele>
        <time>2021-08-31T09:50:02.127Z</time>
      </trkpt>
      <trkpt lat="48.90625" lon="-0.46905">
        <ele>63.13</ele>
        <time>2021-08-31T09:50:33.408Z</time>
      </trkpt>
      <trkpt lat="48.90599" lon="-0.46865">
        <ele>64.26</ele>
        <time>2021-08-31T09:51:04.695Z</time>
      </trkpt>
      <trkpt lat="48.90599" lon="-0.46865">
        <ele>64.26</ele>
        <time>2021-08-31T09:51:35.982Z</time>
      </trkpt>
      <trkpt lat="48.90554" lon="-0.46777">
        <ele>64.14</ele>
        <time>2021-08-31T09:52:07.280Z</time>
      </trkpt>
      <trkpt lat="48.90554" lon="-0.46777">
        <ele>64.14</ele>
        <time>2021-08-31T09:52:38.578Z</time>
      </trkpt>
      <trkpt lat="48.90544" lon="-0.46787">
        <ele>63.83</ele>
        <time>2021-08-31T09:53:09.878Z</time>
      </trkpt>
      <trkpt lat="48.90544" lon="-0.46787">
        <ele>63.83</ele>
        <time>2021-08-31T09:53:41.178Z</time>
      </trkpt>
      <trkpt lat="48.90536" lon="-0.46791">
        <ele>63.83</ele>
        <time>2021-08-31T09:54:12.480Z</time>
      </trkpt>
      <trkpt lat="48.90536" lon="-0.46791">
        <ele>63.83</ele>
        <time>2021-08-31T09:54:43.782Z</time>
      </trkpt>
      <trkpt lat="48.90526" lon="-0.46789">
        <ele>63.83</ele>
        <time>2021-08-31T09:55:15.085Z</time>
      </trkpt>
      <trkpt lat="48.90526" lon="-0.46789">
        <ele>63.83</ele>
        <time>2021-08-31T09:55:46.388Z</time>
      </trkpt>
      <trkpt lat="48.90443" lon="-0.46721">
        <ele>63.05</ele>
        <time>2021-08-31T09:56:17.706Z</time>
      </trkpt>
      <trkpt lat="48.90443" lon="-0.46721">
        <ele>63.05</ele>
        <time>2021-08-31T09:56:49.024Z</time>
      </trkpt>
      <trkpt lat="48.90341" lon="-0.4665">
        <ele>62.78</ele>
        <time>2021-08-31T09:57:20.360Z</time>
      </trkpt>
      <trkpt lat="48.90341" lon="-0.4665">
        <ele>62.78</ele>
        <time>2021-08-31T09:57:51.696Z</time>
      </trkpt>
      <trkpt lat="48.90285" lon="-0.46602">
        <ele>65.15</ele>
        <time>2021-08-31T09:58:23.043Z</time>
      </trkpt>
      <trkpt lat="48.90285" lon="-0.46602">
        <ele>65.15</ele>
        <time>2021-08-31T09:58:54.390Z</time>
      </trkpt>
      <trkpt lat="48.9026" lon="-0.46577">
        <ele>65.89</ele>
        <time>2021-08-31T09:59:25.741Z</time>
      </trkpt>
      <trkpt lat="48.9026" lon="-0.46577">
        <ele>65.89</ele>
        <time>2021-08-31T09:59:57.092Z</time>
      </trkpt>
      <trkpt lat="48.90225" lon="-0.46555">
        <ele>66.77</ele>
        <time>2021-08-31T10:00:28.449Z</time>
      </trkpt>
      <trkpt lat="48.90225" lon="-0.46555">
        <ele>66.77</ele>
        <time>2021-08-31T10:00:59.806Z</time>
      </trkpt>
      <trkpt lat="48.90193" lon="-0.46538">
        <ele>67.39</ele>
        <time>2021-08-31T10:01:31.169Z</time>
      </trkpt>
      <trkpt lat="48.90193" lon="-0.46538">
        <ele>67.39</ele>
        <time>2021-08-31T10:02:02.532Z</time>
      </trkpt>
      <trkpt lat="48.90161" lon="-0.46526">
        <ele>67.7</ele>
        <time>2021-08-31T10:02:33.900Z</time>
      </trkpt>
      <trkpt lat="48.90161" lon="-0.46526">
        <ele>67.7</ele>
        <time>2021-08-31T10:03:05.268Z</time>
      </trkpt>
      <trkpt lat="48.90111" lon="-0.4651">
        <ele>68.22</ele>
        <time>2021-08-31T10:03:36.644Z</time>
      </trkpt>
      <trkpt lat="48.90111" lon="-0.4651">
        <ele>68.22</ele>
        <time>2021-08-31T10:04:08.020Z</time>
      </trkpt>
      <trkpt lat="48.89942" lon="-0.46482">
        <ele>72.22</ele>
        <time>2021-08-31T10:04:39.424Z</time>
      </trkpt>
      <trkpt lat="48.89942" lon="-0.46482">
        <ele>72.22</ele>
        <time>2021-08-31T10:05:10.828Z</time>
      </trkpt>
      <trkpt lat="48.89925" lon="-0.46477">
        <ele>73.74</ele>
        <time>2021-08-31T10:05:42.234Z</time>
      </trkpt>
      <trkpt lat="48.89925" lon="-0.46477">
        <ele>73.74</ele>
        <time>2021-08-31T10:06:13.640Z</time>
      </trkpt>
      <trkpt lat="48.89898" lon="-0.46461">
        <ele>74.5</ele>
        <time>2021-08-31T10:06:45.051Z</time>
      </trkpt>
      <trkpt lat="48.89898" lon="-0.46461">
        <ele>74.5</ele>
        <time>2021-08-31T10:07:16.462Z</time>
      </trkpt>
      <trkpt lat="48.89889" lon="-0.4646">
        <ele>74.5</ele>
        <time>2021-08-31T10:07:47.874Z</time>
      </trkpt>
      <trkpt lat="48.89889" lon="-0.4646">
        <ele>74.5</ele>
        <time>2021-08-31T10:08:19.286Z</time>
      </trkpt>
      <trkpt lat="48.89861" lon="-0.46466">
        <ele>75.62</ele>
        <time>2021-08-31T10:08:50.703Z</time>
      </trkpt>
      <trkpt lat="48.89861" lon="-0.46466">
        <ele>75.62</ele>
        <time>2021-08-31T10:09:22.120Z</time>
      </trkpt>
      <trkpt lat="48.89847" lon="-0.46467">
        <ele>75.62</ele>
        <time>2021-08-31T10:09:53.539Z</time>
      </trkpt>
      <trkpt lat="48.89847" lon="-0.46467">
        <ele>75.62</ele>
        <time>2021-08-31T10:10:24.958Z</time>
      </trkpt>
      <trkpt lat="48.89826" lon="-0.46459">
        <ele>75.71</ele>
        <time>2021-08-31T10:10:56.381Z</time>
      </trkpt>
      <trkpt lat="48.89826" lon="-0.46459">
        <ele>75.71</ele>
        <time>2021-08-31T10:11:27.804Z</time>
      </trkpt>
      <trkpt lat="48.89798" lon="-0.46387">
        <ele>76.45</ele>
        <time>2021-08-31T10:11:59.236Z</time>
      </trkpt>
      <trkpt lat="48.89798" lon="-0.46387">
        <ele>76.45</ele>
        <time>2021-08-31T10:12:30.668Z</time>
      </trkpt>
      <trkpt lat="48.89857" lon="-0.46344">
        <ele>76.77</ele>
        <time>2021-08-31T10:13:02.110Z</time>
      </trkpt>
      <trkpt lat="48.89857" lon="-0.46344">
        <ele>76.77</ele>
        <time>2021-08-31T10:13:33.552Z</time>
      </trkpt>
      <trkpt lat="48.89932" lon="-0.46261">
        <ele>75.44</ele>
        <time>2021-08-31T10:14:05.009Z</time>
      </trkpt>
      <trkpt lat="48.89932" lon="-0.46261">
        <ele>75.44</ele>
        <time>2021-08-31T10:14:36.466Z</time>
      </trkpt>
      <trkpt lat="48.89952" lon="-0.46235">
        <ele>74.21</ele>
        <time>2021-08-31T10:15:07.927Z</time>
      </trkpt>
      <trkpt lat="48.89952" lon="-0.46235">
        <ele>74.21</ele>
        <time>2021-08-31T10:15:39.388Z</time>
      </trkpt>
      <trkpt lat="48.89975" lon="-0.46199">
        <ele>72.82</ele>
        <time>2021-08-31T10:16:10.854Z</time>
      </trkpt>
      <trkpt lat="48.89975" lon="-0.46199">
        <ele>72.82</ele>
        <time>2021-08-31T10:16:42.320Z</time>
      </trkpt>
      <trkpt lat="48.90025" lon="-0.46089">
        <ele>68.94</ele>
        <time>2021-08-31T10:17:13.800Z</time>
      </trkpt>
      <trkpt lat="48.90025" lon="-0.46089">
        <ele>68.94</ele>
        <time>2021-08-31T10:17:45.280Z</time>
      </trkpt>
      <trkpt lat="48.90037" lon="-0.46068">
        <ele>67.41</ele>
        <time>2021-08-31T10:18:16.763Z</time>
      </trkpt>
      <trkpt lat="48.90037" lon="-0.46068">
        <ele>67.41</ele>
        <time>2021-08-31T10:18:48.246Z</time>
      </trkpt>
      <trkpt lat="48.90084" lon="-0.46016">
        <ele>61.55</ele>
        <time>2021-08-31T10:19:19.739Z</time>
      </trkpt>
      <trkpt lat="48.90084" lon="-0.46016">
        <ele>61.55</ele>
        <time>2021-08-31T10:19:51.232Z</time>
      </trkpt>
      <trkpt lat="48.901" lon="-0.45994">
        <ele>57.72</ele>
        <time>2021-08-31T10:20:22.728Z</time>
      </trkpt>
      <trkpt lat="48.901" lon="-0.45994">
        <ele>57.72</ele>
        <time>2021-08-31T10:20:54.224Z</time>
      </trkpt>
      <trkpt lat="48.90131" lon="-0.45939">
        <ele>53.82</ele>
        <time>2021-08-31T10:21:25.728Z</time>
      </trkpt>
      <trkpt lat="48.90131" lon="-0.45939">
        <ele>53.82</ele>
        <time>2021-08-31T10:21:57.232Z</time>
      </trkpt>
      <trkpt lat="48.90149" lon="-0.45916">
        <ele>52.31</ele>
        <time>2021-08-31T10:22:28.740Z</time>
      </trkpt>
      <trkpt lat="48.90149" lon="-0.45916">
        <ele>52.31</ele>
        <time>2021-08-31T10:23:00.248Z</time>
      </trkpt>
      <trkpt lat="48.90164" lon="-0.45905">
        <ele>49.69</ele>
        <time>2021-08-31T10:23:31.758Z</time>
      </trkpt>
      <trkpt lat="48.90164" lon="-0.45905">
        <ele>49.69</ele>
        <time>2021-08-31T10:24:03.268Z</time>
      </trkpt>
      <trkpt lat="48.90215" lon="-0.45877">
        <ele>44.29</ele>
        <time>2021-08-31T10:24:34.787Z</time>
      </trkpt>
      <trkpt lat="48.90215" lon="-0.45877">
        <ele>44.29</ele>
        <time>2021-08-31T10:25:06.306Z</time>
      </trkpt>
      <trkpt lat="48.90237" lon="-0.45855">
        <ele>42.93</ele>
        <time>2021-08-31T10:25:37.829Z</time>
      </trkpt>
      <trkpt lat="48.90237" lon="-0.45855">
        <ele>42.93</ele>
        <time>2021-08-31T10:26:09.352Z</time>
      </trkpt>
      <trkpt lat="48.90273" lon="-0.4581">
        <ele>42.2</ele>
        <time>2021-08-31T10:26:40.883Z</time>
      </trkpt>
      <trkpt lat="48.90273" lon="-0.4581">
        <ele>42.2</ele>
        <time>2021-08-31T10:27:12.414Z</time>
      </trkpt>
      <trkpt lat="48.90279" lon="-0.458">
        <ele>42.21</ele>
        <time>2021-08-31T10:27:43.946Z</time>
      </trkpt>
      <trkpt lat="48.90279" lon="-0.458">
        <ele>42.21</ele>
        <time>2021-08-31T10:28:15.478Z</time>
      </trkpt>
      <trkpt lat="48.90283" lon="-0.45784">
        <ele>42.24</ele>
        <time>2021-08-31T10:28:47.012Z</time>
      </trkpt>
      <trkpt lat="48.90283" lon="-0.45784">
        <ele>42.24</ele>
        <time>2021-08-31T10:29:18.546Z</time>
      </trkpt>
      <trkpt lat="48.90283" lon="-0.45755">
        <ele>42.45</ele>
        <time>2021-08-31T10:29:50.083Z</time>
      </trkpt>
      <trkpt lat="48.90283" lon="-0.45755">
        <ele>42.45</ele>
        <time>2021-08-31T10:30:21.620Z</time>
      </trkpt>
      <trkpt lat="48.9028" lon="-0.4574">
        <ele>42.45</ele>
        <time>2021-08-31T10:30:53.159Z</time>
      </trkpt>
      <trkpt lat="48.9028" lon="-0.4574">
        <ele>42.45</ele>
        <time>2021-08-31T10:31:24.698Z</time>
      </trkpt>
      <trkpt lat="48.90261" lon="-0.45651">
        <ele>47.01</ele>
        <time>2021-08-31T10:31:56.246Z</time>
      </trkpt>
      <trkpt lat="48.90261" lon="-0.45651">
        <ele>47.01</ele>
        <time>2021-08-31T10:32:27.794Z</time>
      </trkpt>
      <trkpt lat="48.9025" lon="-0.45604">
        <ele>48.63</ele>
        <time>2021-08-31T10:32:59.348Z</time>
      </trkpt>
      <trkpt lat="48.9025" lon="-0.45604">
        <ele>48.63</ele>
        <time>2021-08-31T10:33:30.902Z</time>
      </trkpt>
      <trkpt lat="48.90241" lon="-0.45582">
        <ele>49.39</ele>
        <time>2021-08-31T10:34:02.458Z</time>
      </trkpt>
      <trkpt lat="48.90241" lon="-0.45582">
        <ele>49.39</ele>
        <time>2021-08-31T10:34:34.014Z</time>
      </trkpt>
      <trkpt lat="48.90232" lon="-0.45568">
        <ele>49.82</ele>
        <time>2021-08-31T10:35:05.573Z</time>
      </trkpt>
      <trkpt lat="48.90232" lon="-0.45568">
        <ele>49.82</ele>
        <time>2021-08-31T10:35:37.132Z</time>
      </trkpt>
      <trkpt lat="48.90223" lon="-0.45563">
        <ele>50.61</ele>
        <time>2021-08-31T10:36:08.692Z</time>
      </trkpt>
      <trkpt lat="48.90223" lon="-0.45563">
        <ele>50.61</ele>
        <time>2021-08-31T10:36:40.252Z</time>
      </trkpt>
      <trkpt lat="48.90212" lon="-0.45562">
        <ele>50.61</ele>
        <time>2021-08-31T10:37:11.814Z</time>
      </trkpt>
      <trkpt lat="48.90212" lon="-0.45562">
        <ele>50.61</ele>
        <time>2021-08-31T10:37:43.376Z</time>
      </trkpt>
      <trkpt lat="48.90078" lon="-0.45577">
        <ele>56.89</ele>
        <time>2021-08-31T10:38:14.959Z</time>
      </trkpt>
      <trkpt lat="48.90078" lon="-0.45577">
        <ele>56.89</ele>
        <time>2021-08-31T10:38:46.542Z</time>
      </trkpt>
      <trkpt lat="48.90048" lon="-0.45572">
        <ele>57.38</ele>
        <time>2021-08-31T10:39:18.130Z</time>
      </trkpt>
      <trkpt lat="48.90048" lon="-0.45572">
        <ele>57.38</ele>
        <time>2021-08-31T10:39:49.718Z</time>
      </trkpt>
      <trkpt lat="48.89986" lon="-0.45556">
        <ele>56.92</ele>
        <time>2021-08-31T10:40:21.316Z</time>
      </trkpt>
      <trkpt lat="48.89986" lon="-0.45556">
        <ele>56.92</ele>
        <time>2021-08-31T10:40:52.914Z</time>
      </trkpt>
      <trkpt lat="48.89914" lon="-0.45572">
        <ele>56.01</ele>
        <time>2021-08-31T10:41:24.524Z</time>
      </trkpt>
      <trkpt lat="48.89914" lon="-0.45572">
        <ele>56.01</ele>
        <time>2021-08-31T10:41:56.134Z</time>
      </trkpt>
      <trkpt lat="48.89893" lon="-0.45573">
        <ele>56.05</ele>
        <time>2021-08-31T10:42:27.747Z</time>
      </trkpt>
      <trkpt lat="48.89893" lon="-0.45573">
        <ele>56.05</ele>
        <time>2021-08-31T10:42:59.360Z</time>
      </trkpt>
      <trkpt lat="48.89872" lon="-0.45572">
        <ele>56.33</ele>
        <time>2021-08-31T10:43:30.977Z</time>
      </trkpt>
      <trkpt lat="48.89872" lon="-0.45572">
        <ele>56.33</ele>
        <time>2021-08-31T10:44:02.594Z</time>
      </trkpt>
      <trkpt lat="48.89834" lon="-0.45567">
        <ele>57.12</ele>
        <time>2021-08-31T10:44:34.217Z</time>
      </trkpt>
      <trkpt lat="48.89834" lon="-0.45567">
        <ele>57.12</ele>
        <time>2021-08-31T10:45:05.840Z</time>
      </trkpt>
      <trkpt lat="48.89803" lon="-0.45561">
        <ele>58.25</ele>
        <time>2021-08-31T10:45:37.468Z</time>
      </trkpt>
      <trkpt lat="48.89803" lon="-0.45561">
        <ele>58.25</ele>
        <time>2021-08-31T10:46:09.096Z</time>
      </trkpt>
      <trkpt lat="48.89779" lon="-0.45549">
        <ele>59.17</ele>
        <time>2021-08-31T10:46:40.728Z</time>
      </trkpt>
      <trkpt lat="48.89779" lon="-0.45549">
        <ele>59.17</ele>
        <time>2021-08-31T10:47:12.360Z</time>
      </trkpt>
      <trkpt lat="48.89766" lon="-0.45534">
        <ele>60.39</ele>
        <time>2021-08-31T10:47:43.994Z</time>
      </trkpt>
      <trkpt lat="48.89766" lon="-0.45534">
        <ele>60.39</ele>
        <time>2021-08-31T10:48:15.628Z</time>
      </trkpt>
      <trkpt lat="48.89753" lon="-0.45517">
        <ele>61.29</ele>
        <time>2021-08-31T10:48:47.265Z</time>
      </trkpt>
      <trkpt lat="48.89753" lon="-0.45517">
        <ele>61.29</ele>
        <time>2021-08-31T10:49:18.902Z</time>
      </trkpt>
      <trkpt lat="48.89745" lon="-0.45498">
        <ele>61.29</ele>
        <time>2021-08-31T10:49:50.542Z</time>
      </trkpt>
      <trkpt lat="48.89745" lon="-0.45498">
        <ele>61.29</ele>
        <time>2021-08-31T10:50:22.182Z</time>
      </trkpt>
      <trkpt lat="48.89741" lon="-0.45472">
        <ele>62.27</ele>
        <time>2021-08-31T10:50:53.824Z</time>
      </trkpt>
      <trkpt lat="48.89741" lon="-0.45472">
        <ele>62.27</ele>
        <time>2021-08-31T10:51:25.466Z</time>
      </trkpt>
      <trkpt lat="48.8974" lon="-0.45439">
        <ele>64.08</ele>
        <time>2021-08-31T10:51:57.112Z</time>
      </trkpt>
      <trkpt lat="48.8974" lon="-0.45439">
        <ele>64.08</ele>
        <time>2021-08-31T10:52:28.758Z</time>
      </trkpt>
      <trkpt lat="48.89742" lon="-0.45389">
        <ele>66.03</ele>
        <time>2021-08-31T10:53:00.409Z</time>
      </trkpt>
      <trkpt lat="48.89742" lon="-0.45389">
        <ele>66.03</ele>
        <time>2021-08-31T10:53:32.060Z</time>
      </trkpt>
      <trkpt lat="48.89746" lon="-0.45356">
        <ele>66.27</ele>
        <time>2021-08-31T10:54:03.715Z</time>
      </trkpt>
      <trkpt lat="48.89746" lon="-0.45356">
        <ele>66.27</ele>
        <time>2021-08-31T10:54:35.370Z</time>
      </trkpt>
      <trkpt lat="48.89764" lon="-0.45302">
        <ele>67.68</ele>
        <time>2021-08-31T10:55:07.031Z</time>
      </trkpt>
      <trkpt lat="48.89764" lon="-0.45302">
        <ele>67.68</ele>
        <time>2021-08-31T10:55:38.692Z</time>
      </trkpt>
      <trkpt lat="48.89767" lon="-0.45281">
        <ele>68.9</ele>
        <time>2021-08-31T10:56:10.355Z</time>
      </trkpt>
      <trkpt lat="48.89767" lon="-0.45281">
        <ele>68.9</ele>
        <time>2021-08-31T10:56:42.018Z</time>
      </trkpt>
      <trkpt lat="48.89771" lon="-0.45189">
        <ele>72.28</ele>
        <time>2021-08-31T10:57:13.691Z</time>
      </trkpt>
      <trkpt lat="48.89771" lon="-0.45189">
        <ele>72.28</ele>
        <time>2021-08-31T10:57:45.364Z</time>
      </trkpt>
      <trkpt lat="48.89774" lon="-0.45163">
        <ele>73.52</ele>
        <time>2021-08-31T10:58:17.040Z</time>
      </trkpt>
      <trkpt lat="48.89774" lon="-0.45163">
        <ele>73.52</ele>
        <time>2021-08-31T10:58:48.716Z</time>
      </trkpt>
      <trkpt lat="48.89793" lon="-0.45084">
        <ele>79.35</ele>
        <time>2021-08-31T10:59:20.401Z</time>
      </trkpt>
      <trkpt lat="48.89793" lon="-0.45084">
        <ele>79.35</ele>
        <time>2021-08-31T10:59:52.086Z</time>
      </trkpt>
      <trkpt lat="48.89891" lon="-0.44812">
        <ele>86.2</ele>
        <time>2021-08-31T11:00:23.803Z</time>
      </trkpt>
      <trkpt lat="48.89891" lon="-0.44812">
        <ele>86.2</ele>
        <time>2021-08-31T11:00:55.520Z</time>
      </trkpt>
      <trkpt lat="48.89915" lon="-0.44762">
        <ele>87.87</ele>
        <time>2021-08-31T11:01:27.244Z</time>
      </trkpt>
      <trkpt lat="48.89915" lon="-0.44762">
        <ele>87.87</ele>
        <time>2021-08-31T11:01:58.968Z</time>
      </trkpt>
      <trkpt lat="48.89946" lon="-0.44707">
        <ele>91.28</ele>
        <time>2021-08-31T11:02:30.700Z</time>
      </trkpt>
      <trkpt lat="48.89946" lon="-0.44707">
        <ele>91.28</ele>
        <time>2021-08-31T11:03:02.432Z</time>
      </trkpt>
      <trkpt lat="48.89969" lon="-0.44673">
        <ele>92.75</ele>
        <time>2021-08-31T11:03:34.169Z</time>
      </trkpt>
      <trkpt lat="48.89969" lon="-0.44673">
        <ele>92.75</ele>
        <time>2021-08-31T11:04:05.906Z</time>
      </trkpt>
      <trkpt lat="48.90051" lon="-0.44579">
        <ele>94.71</ele>
        <time>2021-08-31T11:04:37.659Z</time>
      </trkpt>
      <trkpt lat="48.90051" lon="-0.44579">
        <ele>94.71</ele>
        <time>2021-08-31T11:05:09.412Z</time>
      </trkpt>
      <trkpt lat="48.90068" lon="-0.44551">
        <ele>92.86</ele>
        <time>2021-08-31T11:05:41.169Z</time>
      </trkpt>
      <trkpt lat="48.90068" lon="-0.44551">
        <ele>92.86</ele>
        <time>2021-08-31T11:06:12.926Z</time>
      </trkpt>
      <trkpt lat="48.90075" lon="-0.44523">
        <ele>91.36</ele>
        <time>2021-08-31T11:06:44.686Z</time>
      </trkpt>
      <trkpt lat="48.90075" lon="-0.44523">
        <ele>91.36</ele>
        <time>2021-08-31T11:07:16.446Z</time>
      </trkpt>
      <trkpt lat="48.9009" lon="-0.44423">
        <ele>87.22</ele>
        <time>2021-08-31T11:07:48.217Z</time>
      </trkpt>
      <trkpt lat="48.9009" lon="-0.44423">
        <ele>87.22</ele>
        <time>2021-08-31T11:08:19.988Z</time>
      </trkpt>
      <trkpt lat="48.90099" lon="-0.44397">
        <ele>87.03</ele>
        <time>2021-08-31T11:08:51.762Z</time>
      </trkpt>
      <trkpt lat="48.90099" lon="-0.44397">
        <ele>87.03</ele>
        <time>2021-08-31T11:09:23.536Z</time>
      </trkpt>
      <trkpt lat="48.90119" lon="-0.44358">
        <ele>88.82</ele>
        <time>2021-08-31T11:09:55.316Z</time>
      </trkpt>
      <trkpt lat="48.90119" lon="-0.44358">
        <ele>88.82</ele>
        <time>2021-08-31T11:10:27.096Z</time>
      </trkpt>
      <trkpt lat="48.90172" lon="-0.44273">
        <ele>93.69</ele>
        <time>2021-08-31T11:10:58.888Z</time>
      </trkpt>
      <trkpt lat="48.90172" lon="-0.44273">
        <ele>93.69</ele>
        <time>2021-08-31T11:11:30.680Z</time>
      </trkpt>
      <trkpt lat="48.90175" lon="-0.44264">
        <ele>94.4</ele>
        <time>2021-08-31T11:12:02.473Z</time>
      </trkpt>
      <trkpt lat="48.90175" lon="-0.44264">
        <ele>94.4</ele>
        <time>2021-08-31T11:12:34.266Z</time>
      </trkpt>
      <trkpt lat="48.90173" lon="-0.44255">
        <ele>94.4</ele>
        <time>2021-08-31T11:13:06.060Z</time>
      </trkpt>
      <trkpt lat="48.90173" lon="-0.44255">
        <ele>94.4</ele>
        <time>2021-08-31T11:13:37.854Z</time>
      </trkpt>
      <trkpt lat="48.90164" lon="-0.44247">
        <ele>94.4</ele>
        <time>2021-08-31T11:14:09.650Z</time>
      </trkpt>
      <trkpt lat="48.90164" lon="-0.44247">
        <ele>94.4</ele>
        <time>2021-08-31T11:14:41.446Z</time>
      </trkpt>
      <trkpt lat="48.90135" lon="-0.44268">
        <ele>98.72</ele>
        <time>2021-08-31T11:15:13.247Z</time>
      </trkpt>
      <trkpt lat="48.90135" lon="-0.44268">
        <ele>98.72</ele>
        <time>2021-08-31T11:15:45.048Z</time>
      </trkpt>
      <trkpt lat="48.90116" lon="-0.44279">
        <ele>100.35</ele>
        <time>2021-08-31T11:16:16.852Z</time>
      </trkpt>
      <trkpt lat="48.90116" lon="-0.44279">
        <ele>100.35</ele>
        <time>2021-08-31T11:16:48.656Z</time>
      </trkpt>
      <trkpt lat="48.90071" lon="-0.44279">
        <ele>103.05</ele>
        <time>2021-08-31T11:17:20.467Z</time>
      </trkpt>
      <trkpt lat="48.90071" lon="-0.44279">
        <ele>103.05</ele>
        <time>2021-08-31T11:17:52.278Z</time>
      </trkpt>
      <trkpt lat="48.90057" lon="-0.44274">
        <ele>105.06</ele>
        <time>2021-08-31T11:18:24.092Z</time>
      </trkpt>
      <trkpt lat="48.90057" lon="-0.44274">
        <ele>105.06</ele>
        <time>2021-08-31T11:18:55.906Z</time>
      </trkpt>
      <trkpt lat="48.90049" lon="-0.44267">
        <ele>105.06</ele>
        <time>2021-08-31T11:19:27.721Z</time>
      </trkpt>
      <trkpt lat="48.90049" lon="-0.44267">
        <ele>105.06</ele>
        <time>2021-08-31T11:19:59.536Z</time>
      </trkpt>
      <trkpt lat="48.90045" lon="-0.44251">
        <ele>105.75</ele>
        <time>2021-08-31T11:20:31.353Z</time>
      </trkpt>
      <trkpt lat="48.90045" lon="-0.44251">
        <ele>105.75</ele>
        <time>2021-08-31T11:21:03.170Z</time>
      </trkpt>
      <trkpt lat="48.90043" lon="-0.44229">
        <ele>108.69</ele>
        <time>2021-08-31T11:21:34.989Z</time>
      </trkpt>
      <trkpt lat="48.90043" lon="-0.44229">
        <ele>108.69</ele>
        <time>2021-08-31T11:22:06.808Z</time>
      </trkpt>
      <trkpt lat="48.90048" lon="-0.44136">
        <ele>111.81</ele>
        <time>2021-08-31T11:22:38.637Z</time>
      </trkpt>
      <trkpt lat="48.90048" lon="-0.44136">
        <ele>111.81</ele>
        <time>2021-08-31T11:23:10.466Z</time>
      </trkpt>
      <trkpt lat="48.90046" lon="-0.44112">
        <ele>113.05</ele>
        <time>2021-08-31T11:23:42.298Z</time>
      </trkpt>
      <trkpt lat="48.90046" lon="-0.44112">
        <ele>113.05</ele>
        <time>2021-08-31T11:24:14.130Z</time>
      </trkpt>
      <trkpt lat="48.90041" lon="-0.44085">
        <ele>114.51</ele>
        <time>2021-08-31T11:24:45.965Z</time>
      </trkpt>
      <trkpt lat="48.90041" lon="-0.44085">
        <ele>114.51</ele>
        <time>2021-08-31T11:25:17.800Z</time>
      </trkpt>
      <trkpt lat="48.90021" lon="-0.44025">
        <ele>115.88</ele>
        <time>2021-08-31T11:25:49.642Z</time>
      </trkpt>
      <trkpt lat="48.90021" lon="-0.44025">
        <ele>115.88</ele>
        <time>2021-08-31T11:26:21.484Z</time>
      </trkpt>
      <trkpt lat="48.90012" lon="-0.4399">
        <ele>116.85</ele>
        <time>2021-08-31T11:26:53.330Z</time>
      </trkpt>
      <trkpt lat="48.90012" lon="-0.4399">
        <ele>116.85</ele>
        <time>2021-08-31T11:27:25.176Z</time>
      </trkpt>
      <trkpt lat="48.90008" lon="-0.43957">
        <ele>116.85</ele>
        <time>2021-08-31T11:27:57.025Z</time>
      </trkpt>
      <trkpt lat="48.90008" lon="-0.43957">
        <ele>116.85</ele>
        <time>2021-08-31T11:28:28.874Z</time>
      </trkpt>
      <trkpt lat="48.90009" lon="-0.43909">
        <ele>117.94</ele>
        <time>2021-08-31T11:29:00.728Z</time>
      </trkpt>
      <trkpt lat="48.90009" lon="-0.43909">
        <ele>117.94</ele>
        <time>2021-08-31T11:29:32.582Z</time>
      </trkpt>
      <trkpt lat="48.90013" lon="-0.43886">
        <ele>118.64</ele>
        <time>2021-08-31T11:30:04.439Z</time>
      </trkpt>
      <trkpt lat="48.90013" lon="-0.43886">
        <ele>118.64</ele>
        <time>2021-08-31T11:30:36.296Z</time>
      </trkpt>
      <trkpt lat="48.9002" lon="-0.43862">
        <ele>119.01</ele>
        <time>2021-08-31T11:31:08.156Z</time>
      </trkpt>
      <trkpt lat="48.9002" lon="-0.43862">
        <ele>119.01</ele>
        <time>2021-08-31T11:31:40.016Z</time>
      </trkpt>
      <trkpt lat="48.90069" lon="-0.43723">
        <ele>116.06</ele>
        <time>2021-08-31T11:32:11.892Z</time>
      </trkpt>
      <trkpt lat="48.90069" lon="-0.43723">
        <ele>116.06</ele>
        <time>2021-08-31T11:32:43.768Z</time>
      </trkpt>
      <trkpt lat="48.9007" lon="-0.43702">
        <ele>115.85</ele>
        <time>2021-08-31T11:33:15.646Z</time>
      </trkpt>
      <trkpt lat="48.9007" lon="-0.43702">
        <ele>115.85</ele>
        <time>2021-08-31T11:33:47.524Z</time>
      </trkpt>
      <trkpt lat="48.90064" lon="-0.43656">
        <ele>115.98</ele>
        <time>2021-08-31T11:34:19.407Z</time>
      </trkpt>
      <trkpt lat="48.90064" lon="-0.43656">
        <ele>115.98</ele>
        <time>2021-08-31T11:34:51.290Z</time>
      </trkpt>
      <trkpt lat="48.90053" lon="-0.43625">
        <ele>116.4</ele>
        <time>2021-08-31T11:35:23.177Z</time>
      </trkpt>
      <trkpt lat="48.90053" lon="-0.43625">
        <ele>116.4</ele>
        <time>2021-08-31T11:35:55.064Z</time>
      </trkpt>
      <trkpt lat="48.9005" lon="-0.43608">
        <ele>116.63</ele>
        <time>2021-08-31T11:36:26.953Z</time>
      </trkpt>
      <trkpt lat="48.9005" lon="-0.43608">
        <ele>116.63</ele>
        <time>2021-08-31T11:36:58.842Z</time>
      </trkpt>
      <trkpt lat="48.90049" lon="-0.43586">
        <ele>116.63</ele>
        <time>2021-08-31T11:37:30.733Z</time>
      </trkpt>
      <trkpt lat="48.90049" lon="-0.43586">
        <ele>116.63</ele>
        <time>2021-08-31T11:38:02.624Z</time>
      </trkpt>
      <trkpt lat="48.90077" lon="-0.43413">
        <ele>113.56</ele>
        <time>2021-08-31T11:38:34.534Z</time>
      </trkpt>
      <trkpt lat="48.90077" lon="-0.43413">
        <ele>113.56</ele>
        <time>2021-08-31T11:39:06.444Z</time>
      </trkpt>
      <trkpt lat="48.9008" lon="-0.43374">
        <ele>114.15</ele>
        <time>2021-08-31T11:39:38.358Z</time>
      </trkpt>
      <trkpt lat="48.9008" lon="-0.43374">
        <ele>114.15</ele>
        <time>2021-08-31T11:40:10.272Z</time>
      </trkpt>
      <trkpt lat="48.90078" lon="-0.43344">
        <ele>115.57</ele>
        <time>2021-08-31T11:40:42.189Z</time>
      </trkpt>
      <trkpt lat="48.90078" lon="-0.43344">
        <ele>115.57</ele>
        <time>2021-08-31T11:41:14.106Z</time>
      </trkpt>
      <trkpt lat="48.90078" lon="-0.43341">
        <ele>115.57</ele>
        <time>2021-08-31T11:41:46.024Z</time>
      </trkpt>
      <trkpt lat="48.90078" lon="-0.43341">
        <ele>115.57</ele>
        <time>2021-08-31T11:42:17.942Z</time>
      </trkpt>
      <trkpt lat="48.90076" lon="-0.43302">
        <ele>117.21</ele>
        <time>2021-08-31T11:42:49.864Z</time>
      </trkpt>
      <trkpt lat="48.90076" lon="-0.43302">
        <ele>117.21</ele>
        <time>2021-08-31T11:43:21.786Z</time>
      </trkpt>
      <trkpt lat="48.9007" lon="-0.43279">
        <ele>117.87</ele>
        <time>2021-08-31T11:43:53.710Z</time>
      </trkpt>
      <trkpt lat="48.9007" lon="-0.43279">
        <ele>117.87</ele>
        <time>2021-08-31T11:44:25.634Z</time>
      </trkpt>
      <trkpt lat="48.90063" lon="-0.43273">
        <ele>119.63</ele>
        <time>2021-08-31T11:44:57.560Z</time>
      </trkpt>
      <trkpt lat="48.90063" lon="-0.43273">
        <ele>119.63</ele>
        <time>2021-08-31T11:45:29.486Z</time>
      </trkpt>
      <trkpt lat="48.90055" lon="-0.43273">
        <ele>119.63</ele>
        <time>2021-08-31T11:46:01.413Z</time>
      </trkpt>
      <trkpt lat="48.90055" lon="-0.43273">
        <ele>119.63</ele>
        <time>2021-08-31T11:46:33.340Z</time>
      </trkpt>
      <trkpt lat="48.90049" lon="-0.4328">
        <ele>119.95</ele>
        <time>2021-08-31T11:47:05.268Z</time>
      </trkpt>
      <trkpt lat="48.90049" lon="-0.4328">
        <ele>119.95</ele>
        <time>2021-08-31T11:47:37.196Z</time>
      </trkpt>
      <trkpt lat="48.90044" lon="-0.43302">
        <ele>120.8</ele>
        <time>2021-08-31T11:48:09.127Z</time>
      </trkpt>
      <trkpt lat="48.90044" lon="-0.43302">
        <ele>120.8</ele>
        <time>2021-08-31T11:48:41.058Z</time>
      </trkpt>
      <trkpt lat="48.90028" lon="-0.43351">
        <ele>120.54</ele>
        <time>2021-08-31T11:49:12.994Z</time>
      </trkpt>
      <trkpt lat="48.90028" lon="-0.43351">
        <ele>120.54</ele>
        <time>2021-08-31T11:49:44.930Z</time>
      </trkpt>
      <trkpt lat="48.90017" lon="-0.43368">
        <ele>119.85</ele>
        <time>2021-08-31T11:50:16.869Z</time>
      </trkpt>
      <trkpt lat="48.90017" lon="-0.43368">
        <ele>119.85</ele>
        <time>2021-08-31T11:50:48.808Z</time>
      </trkpt>
      <trkpt lat="48.90007" lon="-0.43369">
        <ele>118.91</ele>
        <time>2021-08-31T11:51:20.749Z</time>
      </trkpt>
      <trkpt lat="48.90007" lon="-0.43369">
        <ele>118.91</ele>
        <time>2021-08-31T11:51:52.690Z</time>
      </trkpt>
      <trkpt lat="48.89994" lon="-0.43362">
        <ele>117.75</ele>
        <time>2021-08-31T11:52:24.633Z</time>
      </trkpt>
      <trkpt lat="48.89994" lon="-0.43362">
        <ele>117.75</ele>
        <time>2021-08-31T11:52:56.576Z</time>
      </trkpt>
      <trkpt lat="48.89969" lon="-0.43315">
        <ele>115.14</ele>
        <time>2021-08-31T11:53:28.525Z</time>
      </trkpt>
      <trkpt lat="48.89969" lon="-0.43315">
        <ele>115.14</ele>
        <time>2021-08-31T11:54:00.474Z</time>
      </trkpt>
      <trkpt lat="48.89947" lon="-0.4328">
        <ele>110.33</ele>
        <time>2021-08-31T11:54:32.428Z</time>
      </trkpt>
      <trkpt lat="48.89947" lon="-0.4328">
        <ele>110.33</ele>
        <time>2021-08-31T11:55:04.382Z</time>
      </trkpt>
      <trkpt lat="48.8993" lon="-0.43263">
        <ele>106.28</ele>
        <time>2021-08-31T11:55:36.340Z</time>
      </trkpt>
      <trkpt lat="48.8993" lon="-0.43263">
        <ele>106.28</ele>
        <time>2021-08-31T11:56:08.298Z</time>
      </trkpt>
      <trkpt lat="48.89902" lon="-0.43242">
        <ele>100.19</ele>
        <time>2021-08-31T11:56:40.261Z</time>
      </trkpt>
      <trkpt lat="48.89902" lon="-0.43242">
        <ele>100.19</ele>
        <time>2021-08-31T11:57:12.224Z</time>
      </trkpt>
      <trkpt lat="48.89892" lon="-0.4323">
        <ele>100.19</ele>
        <time>2021-08-31T11:57:44.189Z</time>
      </trkpt>
      <trkpt lat="48.89892" lon="-0.4323">
        <ele>100.19</ele>
        <time>2021-08-31T11:58:16.154Z</time>
      </trkpt>
      <trkpt lat="48.8988" lon="-0.43212">
        <ele>97.86</ele>
        <time>2021-08-31T11:58:48.121Z</time>
      </trkpt>
      <trkpt lat="48.8988" lon="-0.43212">
        <ele>97.86</ele>
        <time>2021-08-31T11:59:20.088Z</time>
      </trkpt>
      <trkpt lat="48.89864" lon="-0.43157">
        <ele>94.05</ele>
        <time>2021-08-31T11:59:52.062Z</time>
      </trkpt>
      <trkpt lat="48.89864" lon="-0.43157">
        <ele>94.05</ele>
        <time>2021-08-31T12:00:24.036Z</time>
      </trkpt>
      <trkpt lat="48.89854" lon="-0.43141">
        <ele>92.17</ele>
        <time>2021-08-31T12:00:56.012Z</time>
      </trkpt>
      <trkpt lat="48.89854" lon="-0.43141">
        <ele>92.17</ele>
        <time>2021-08-31T12:01:27.988Z</time>
      </trkpt>
      <trkpt lat="48.89842" lon="-0.43134">
        <ele>92.17</ele>
        <time>2021-08-31T12:01:59.966Z</time>
      </trkpt>
      <trkpt lat="48.89842" lon="-0.43134">
        <ele>92.17</ele>
        <time>2021-08-31T12:02:31.944Z</time>
      </trkpt>
      <trkpt lat="48.89815" lon="-0.43135">
        <ele>89.73</ele>
        <time>2021-08-31T12:03:03.926Z</time>
      </trkpt>
      <trkpt lat="48.89815" lon="-0.43135">
        <ele>89.73</ele>
        <time>2021-08-31T12:03:35.908Z</time>
      </trkpt>
      <trkpt lat="48.89791" lon="-0.43131">
        <ele>88.69</ele>
        <time>2021-08-31T12:04:07.894Z</time>
      </trkpt>
      <trkpt lat="48.89791" lon="-0.43131">
        <ele>88.69</ele>
        <time>2021-08-31T12:04:39.880Z</time>
      </trkpt>
      <trkpt lat="48.89746" lon="-0.43097">
        <ele>87.78</ele>
        <time>2021-08-31T12:05:11.874Z</time>
      </trkpt>
      <trkpt lat="48.89746" lon="-0.43097">
        <ele>87.78</ele>
        <time>2021-08-31T12:05:43.868Z</time>
      </trkpt>
      <trkpt lat="48.89741" lon="-0.43062">
        <ele>87.9</ele>
        <time>2021-08-31T12:06:15.866Z</time>
      </trkpt>
      <trkpt lat="48.89741" lon="-0.43062">
        <ele>87.9</ele>
        <time>2021-08-31T12:06:47.864Z</time>
      </trkpt>
      <trkpt lat="48.89749" lon="-0.42991">
        <ele>89.26</ele>
        <time>2021-08-31T12:07:19.870Z</time>
      </trkpt>
      <trkpt lat="48.89749" lon="-0.42991">
        <ele>89.26</ele>
        <time>2021-08-31T12:07:51.876Z</time>
      </trkpt>
      <trkpt lat="48.89758" lon="-0.4293">
        <ele>91.3</ele>
        <time>2021-08-31T12:08:23.888Z</time>
      </trkpt>
      <trkpt lat="48.89758" lon="-0.4293">
        <ele>91.3</ele>
        <time>2021-08-31T12:08:55.900Z</time>
      </trkpt>
      <trkpt lat="48.89776" lon="-0.4273">
        <ele>87.95</ele>
        <time>2021-08-31T12:09:27.934Z</time>
      </trkpt>
      <trkpt lat="48.89776" lon="-0.4273">
        <ele>87.95</ele>
        <time>2021-08-31T12:09:59.968Z</time>
      </trkpt>
      <trkpt lat="48.89775" lon="-0.42702">
        <ele>86.83</ele>
        <time>2021-08-31T12:10:32.005Z</time>
      </trkpt>
      <trkpt lat="48.89775" lon="-0.42702">
        <ele>86.83</ele>
        <time>2021-08-31T12:11:04.042Z</time>
      </trkpt>
      <trkpt lat="48.8977" lon="-0.42673">
        <ele>85.94</ele>
        <time>2021-08-31T12:11:36.082Z</time>
      </trkpt>
      <trkpt lat="48.8977" lon="-0.42673">
        <ele>85.94</ele>
        <time>2021-08-31T12:12:08.122Z</time>
      </trkpt>
      <trkpt lat="48.89754" lon="-0.42659">
        <ele>85.84</ele>
        <time>2021-08-31T12:12:40.165Z</time>
      </trkpt>
      <trkpt lat="48.89754" lon="-0.42659">
        <ele>85.84</ele>
        <time>2021-08-31T12:13:12.208Z</time>
      </trkpt>
      <trkpt lat="48.89731" lon="-0.42648">
        <ele>86.73</ele>
        <time>2021-08-31T12:13:44.254Z</time>
      </trkpt>
      <trkpt lat="48.89731" lon="-0.42648">
        <ele>86.73</ele>
        <time>2021-08-31T12:14:16.300Z</time>
      </trkpt>
      <trkpt lat="48.89584" lon="-0.42612">
        <ele>95.01</ele>
        <time>2021-08-31T12:14:48.370Z</time>
      </trkpt>
      <trkpt lat="48.89584" lon="-0.42612">
        <ele>95.01</ele>
        <time>2021-08-31T12:15:20.440Z</time>
      </trkpt>
      <trkpt lat="48.8958" lon="-0.42597">
        <ele>95.69</ele>
        <time>2021-08-31T12:15:52.512Z</time>
      </trkpt>
      <trkpt lat="48.8958" lon="-0.42597">
        <ele>95.69</ele>
        <time>2021-08-31T12:16:24.584Z</time>
      </trkpt>
      <trkpt lat="48.89579" lon="-0.42568">
        <ele>96.42</ele>
        <time>2021-08-31T12:16:56.659Z</time>
      </trkpt>
      <trkpt lat="48.89579" lon="-0.42568">
        <ele>96.42</ele>
        <time>2021-08-31T12:17:28.734Z</time>
      </trkpt>
      <trkpt lat="48.89582" lon="-0.42471">
        <ele>101.99</ele>
        <time>2021-08-31T12:18:00.819Z</time>
      </trkpt>
      <trkpt lat="48.89582" lon="-0.42471">
        <ele>101.99</ele>
        <time>2021-08-31T12:18:32.904Z</time>
      </trkpt>
      <trkpt lat="48.8958" lon="-0.42458">
        <ele>101.99</ele>
        <time>2021-08-31T12:19:04.991Z</time>
      </trkpt>
      <trkpt lat="48.8958" lon="-0.42458">
        <ele>101.99</ele>
        <time>2021-08-31T12:19:37.078Z</time>
      </trkpt>
      <trkpt lat="48.89573" lon="-0.42446">
        <ele>104.22</ele>
        <time>2021-08-31T12:20:09.166Z</time>
      </trkpt>
      <trkpt lat="48.89573" lon="-0.42446">
        <ele>104.22</ele>
        <time>2021-08-31T12:20:41.254Z</time>
      </trkpt>
      <trkpt lat="48.89538" lon="-0.42419">
        <ele>105.53</ele>
        <time>2021-08-31T12:21:13.349Z</time>
      </trkpt>
      <trkpt lat="48.89538" lon="-0.42419">
        <ele>105.53</ele>
        <time>2021-08-31T12:21:45.444Z</time>
      </trkpt>
      <trkpt lat="48.8953" lon="-0.42408">
        <ele>106.69</ele>
        <time>2021-08-31T12:22:17.540Z</time>
      </trkpt>
      <trkpt lat="48.8953" lon="-0.42408">
        <ele>106.69</ele>
        <time>2021-08-31T12:22:49.636Z</time>
      </trkpt>
      <trkpt lat="48.89524" lon="-0.42393">
        <ele>106.69</ele>
        <time>2021-08-31T12:23:21.734Z</time>
      </trkpt>
      <trkpt lat="48.89524" lon="-0.42393">
        <ele>106.69</ele>
        <time>2021-08-31T12:23:53.832Z</time>
      </trkpt>
      <trkpt lat="48.89523" lon="-0.42377">
        <ele>107.88</ele>
        <time>2021-08-31T12:24:25.932Z</time>
      </trkpt>
      <trkpt lat="48.89523" lon="-0.42377">
        <ele>107.88</ele>
        <time>2021-08-31T12:24:58.032Z</time>
      </trkpt>
      <trkpt lat="48.89531" lon="-0.42249">
        <ele>112.65</ele>
        <time>2021-08-31T12:25:30.146Z</time>
      </trkpt>
      <trkpt lat="48.89531" lon="-0.42249">
        <ele>112.65</ele>
        <time>2021-08-31T12:26:02.260Z</time>
      </trkpt>
      <trkpt lat="48.8953" lon="-0.42202">
        <ele>114.89</ele>
        <time>2021-08-31T12:26:34.379Z</time>
      </trkpt>
      <trkpt lat="48.8953" lon="-0.42202">
        <ele>114.89</ele>
        <time>2021-08-31T12:27:06.498Z</time>
      </trkpt>
      <trkpt lat="48.89523" lon="-0.42186">
        <ele>117.93</ele>
        <time>2021-08-31T12:27:38.619Z</time>
      </trkpt>
      <trkpt lat="48.89523" lon="-0.42186">
        <ele>117.93</ele>
        <time>2021-08-31T12:28:10.740Z</time>
      </trkpt>
      <trkpt lat="48.89505" lon="-0.42174">
        <ele>118.77</ele>
        <time>2021-08-31T12:28:42.864Z</time>
      </trkpt>
      <trkpt lat="48.89505" lon="-0.42174">
        <ele>118.77</ele>
        <time>2021-08-31T12:29:14.988Z</time>
      </trkpt>
      <trkpt lat="48.89437" lon="-0.42148">
        <ele>122.82</ele>
        <time>2021-08-31T12:29:47.123Z</time>
      </trkpt>
      <trkpt lat="48.89437" lon="-0.42148">
        <ele>122.82</ele>
        <time>2021-08-31T12:30:19.258Z</time>
      </trkpt>
      <trkpt lat="48.89422" lon="-0.42136">
        <ele>123.07</ele>
        <time>2021-08-31T12:30:51.396Z</time>
      </trkpt>
      <trkpt lat="48.89422" lon="-0.42136">
        <ele>123.07</ele>
        <time>2021-08-31T12:31:23.534Z</time>
      </trkpt>
      <trkpt lat="48.89411" lon="-0.42119">
        <ele>123.63</ele>
        <time>2021-08-31T12:31:55.674Z</time>
      </trkpt>
      <trkpt lat="48.89411" lon="-0.42119">
        <ele>123.63</ele>
        <time>2021-08-31T12:32:27.814Z</time>
      </trkpt>
      <trkpt lat="48.89398" lon="-0.42091">
        <ele>123.87</ele>
        <time>2021-08-31T12:32:59.958Z</time>
      </trkpt>
      <trkpt lat="48.89398" lon="-0.42091">
        <ele>123.87</ele>
        <time>2021-08-31T12:33:32.102Z</time>
      </trkpt>
      <trkpt lat="48.89355" lon="-0.41938">
        <ele>121.93</ele>
        <time>2021-08-31T12:34:04.263Z</time>
      </trkpt>
      <trkpt lat="48.89355" lon="-0.41938">
        <ele>121.93</ele>
        <time>2021-08-31T12:34:36.424Z</time>
      </trkpt>
      <trkpt lat="48.89348" lon="-0.41894">
        <ele>120.99</ele>
        <time>2021-08-31T12:35:08.590Z</time>
      </trkpt>
      <trkpt lat="48.89348" lon="-0.41894">
        <ele>120.99</ele>
        <time>2021-08-31T12:35:40.756Z</time>
      </trkpt>
      <trkpt lat="48.89352" lon="-0.41819">
        <ele>119.17</ele>
        <time>2021-08-31T12:36:12.930Z</time>
      </trkpt>
      <trkpt lat="48.89352" lon="-0.41819">
        <ele>119.17</ele>
        <time>2021-08-31T12:36:45.104Z</time>
      </trkpt>
      <trkpt lat="48.89306" lon="-0.41437">
        <ele>110.68</ele>
        <time>2021-08-31T12:37:17.319Z</time>
      </trkpt>
      <trkpt lat="48.89306" lon="-0.41437">
        <ele>110.68</ele>
        <time>2021-08-31T12:37:49.534Z</time>
      </trkpt>
      <trkpt lat="48.8929" lon="-0.41287">
        <ele>108.13</ele>
        <time>2021-08-31T12:38:21.765Z</time>
      </trkpt>
      <trkpt lat="48.8929" lon="-0.41287">
        <ele>108.13</ele>
        <time>2021-08-31T12:38:53.996Z</time>
      </trkpt>
      <trkpt lat="48.89284" lon="-0.41207">
        <ele>107.25</ele>
        <time>2021-08-31T12:39:26.236Z</time>
      </trkpt>
      <trkpt lat="48.89284" lon="-0.41207">
        <ele>107.25</ele>
        <time>2021-08-31T12:39:58.476Z</time>
      </trkpt>
      <trkpt lat="48.89296" lon="-0.41054">
        <ele>105.57</ele>
        <time>2021-08-31T12:40:30.732Z</time>
      </trkpt>
      <trkpt lat="48.89296" lon="-0.41054">
        <ele>105.57</ele>
        <time>2021-08-31T12:41:02.988Z</time>
      </trkpt>
      <trkpt lat="48.89294" lon="-0.41037">
        <ele>105.57</ele>
        <time>2021-08-31T12:41:35.246Z</time>
      </trkpt>
      <trkpt lat="48.89294" lon="-0.41037">
        <ele>105.57</ele>
        <time>2021-08-31T12:42:07.504Z</time>
      </trkpt>
      <trkpt lat="48.89288" lon="-0.4102">
        <ele>105.57</ele>
        <time>2021-08-31T12:42:39.764Z</time>
      </trkpt>
      <trkpt lat="48.89288" lon="-0.4102">
        <ele>105.57</ele>
        <time>2021-08-31T12:43:12.024Z</time>
      </trkpt>
      <trkpt lat="48.89258" lon="-0.40976">
        <ele>104.82</ele>
        <time>2021-08-31T12:43:44.290Z</time>
      </trkpt>
      <trkpt lat="48.89258" lon="-0.40976">
        <ele>104.82</ele>
        <time>2021-08-31T12:44:16.556Z</time>
      </trkpt>
      <trkpt lat="48.89254" lon="-0.40953">
        <ele>104.24</ele>
        <time>2021-08-31T12:44:48.825Z</time>
      </trkpt>
      <trkpt lat="48.89254" lon="-0.40953">
        <ele>104.24</ele>
        <time>2021-08-31T12:45:21.094Z</time>
      </trkpt>
      <trkpt lat="48.89253" lon="-0.40899">
        <ele>103.16</ele>
        <time>2021-08-31T12:45:53.369Z</time>
      </trkpt>
      <trkpt lat="48.89253" lon="-0.40899">
        <ele>103.16</ele>
        <time>2021-08-31T12:46:25.644Z</time>
      </trkpt>
      <trkpt lat="48.89262" lon="-0.40698">
        <ele>96.71</ele>
        <time>2021-08-31T12:46:57.940Z</time>
      </trkpt>
      <trkpt lat="48.89262" lon="-0.40698">
        <ele>96.71</ele>
        <time>2021-08-31T12:47:30.236Z</time>
      </trkpt>
      <trkpt lat="48.89267" lon="-0.40637">
        <ele>95.96</ele>
        <time>2021-08-31T12:48:02.538Z</time>
      </trkpt>
      <trkpt lat="48.89267" lon="-0.40637">
        <ele>95.96</ele>
        <time>2021-08-31T12:48:34.840Z</time>
      </trkpt>
      <trkpt lat="48.89257" lon="-0.40548">
        <ele>91.56</ele>
        <time>2021-08-31T12:49:07.152Z</time>
      </trkpt>
      <trkpt lat="48.89257" lon="-0.40548">
        <ele>91.56</ele>
        <time>2021-08-31T12:49:39.464Z</time>
      </trkpt>
      <trkpt lat="48.89262" lon="-0.40504">
        <ele>89.18</ele>
        <time>2021-08-31T12:50:11.781Z</time>
      </trkpt>
      <trkpt lat="48.89262" lon="-0.40504">
        <ele>89.18</ele>
        <time>2021-08-31T12:50:44.098Z</time>
      </trkpt>
      <trkpt lat="48.89259" lon="-0.40488">
        <ele>89.18</ele>
        <time>2021-08-31T12:51:16.416Z</time>
      </trkpt>
      <trkpt lat="48.89259" lon="-0.40488">
        <ele>89.18</ele>
        <time>2021-08-31T12:51:48.734Z</time>
      </trkpt>
      <trkpt lat="48.89252" lon="-0.40503">
        <ele>88.53</ele>
        <time>2021-08-31T12:52:21.054Z</time>
      </trkpt>
      <trkpt lat="48.89252" lon="-0.40503">
        <ele>88.53</ele>
        <time>2021-08-31T12:52:53.374Z</time>
      </trkpt>
      <trkpt lat="48.89248" lon="-0.40521">
        <ele>86.31</ele>
        <time>2021-08-31T12:53:25.696Z</time>
      </trkpt>
      <trkpt lat="48.89248" lon="-0.40521">
        <ele>86.31</ele>
        <time>2021-08-31T12:53:58.018Z</time>
      </trkpt>
      <trkpt lat="48.89228" lon="-0.40734">
        <ele>74.99</ele>
        <time>2021-08-31T12:54:30.363Z</time>
      </trkpt>
      <trkpt lat="48.89228" lon="-0.40734">
        <ele>74.99</ele>
        <time>2021-08-31T12:55:02.708Z</time>
      </trkpt>
      <trkpt lat="48.89223" lon="-0.40765">
        <ele>74.99</ele>
        <time>2021-08-31T12:55:35.056Z</time>
      </trkpt>
      <trkpt lat="48.89223" lon="-0.40765">
        <ele>74.99</ele>
        <time>2021-08-31T12:56:07.404Z</time>
      </trkpt>
      <trkpt lat="48.89203" lon="-0.40859">
        <ele>69.81</ele>
        <time>2021-08-31T12:56:39.763Z</time>
      </trkpt>
      <trkpt lat="48.89203" lon="-0.40859">
        <ele>69.81</ele>
        <time>2021-08-31T12:57:12.122Z</time>
      </trkpt>
      <trkpt lat="48.89193" lon="-0.40972">
        <ele>65.85</ele>
        <time>2021-08-31T12:57:44.493Z</time>
      </trkpt>
      <trkpt lat="48.89193" lon="-0.40972">
        <ele>65.85</ele>
        <time>2021-08-31T12:58:16.864Z</time>
      </trkpt>
      <trkpt lat="48.89178" lon="-0.41086">
        <ele>59.53</ele>
        <time>2021-08-31T12:58:49.247Z</time>
      </trkpt>
      <trkpt lat="48.89178" lon="-0.41086">
        <ele>59.53</ele>
        <time>2021-08-31T12:59:21.630Z</time>
      </trkpt>
      <trkpt lat="48.89169" lon="-0.41132">
        <ele>58.52</ele>
        <time>2021-08-31T12:59:54.018Z</time>
      </trkpt>
      <trkpt lat="48.89169" lon="-0.41132">
        <ele>58.52</ele>
        <time>2021-08-31T13:00:26.406Z</time>
      </trkpt>
      <trkpt lat="48.89152" lon="-0.41203">
        <ele>53.94</ele>
        <time>2021-08-31T13:00:58.802Z</time>
      </trkpt>
      <trkpt lat="48.89152" lon="-0.41203">
        <ele>53.94</ele>
        <time>2021-08-31T13:01:31.198Z</time>
      </trkpt>
      <trkpt lat="48.89104" lon="-0.41383">
        <ele>45.78</ele>
        <time>2021-08-31T13:02:03.615Z</time>
      </trkpt>
      <trkpt lat="48.89104" lon="-0.41383">
        <ele>45.78</ele>
        <time>2021-08-31T13:02:36.032Z</time>
      </trkpt>
      <trkpt lat="48.89089" lon="-0.4142">
        <ele>45.64</ele>
        <time>2021-08-31T13:03:08.453Z</time>
      </trkpt>
      <trkpt lat="48.89089" lon="-0.4142">
        <ele>45.64</ele>
        <time>2021-08-31T13:03:40.874Z</time>
      </trkpt>
      <trkpt lat="48.8908" lon="-0.41431">
        <ele>45.4</ele>
        <time>2021-08-31T13:04:13.297Z</time>
      </trkpt>
      <trkpt lat="48.8908" lon="-0.41431">
        <ele>45.4</ele>
        <time>2021-08-31T13:04:45.720Z</time>
      </trkpt>
      <trkpt lat="48.89068" lon="-0.4144">
        <ele>45.22</ele>
        <time>2021-08-31T13:05:18.145Z</time>
      </trkpt>
      <trkpt lat="48.89068" lon="-0.4144">
        <ele>45.22</ele>
        <time>2021-08-31T13:05:50.570Z</time>
      </trkpt>
      <trkpt lat="48.89043" lon="-0.4145">
        <ele>45.03</ele>
        <time>2021-08-31T13:06:23.000Z</time>
      </trkpt>
      <trkpt lat="48.89043" lon="-0.4145">
        <ele>45.03</ele>
        <time>2021-08-31T13:06:55.430Z</time>
      </trkpt>
      <trkpt lat="48.89023" lon="-0.41452">
        <ele>45.03</ele>
        <time>2021-08-31T13:07:27.863Z</time>
      </trkpt>
      <trkpt lat="48.89023" lon="-0.41452">
        <ele>45.03</ele>
        <time>2021-08-31T13:08:00.296Z</time>
      </trkpt>
      <trkpt lat="48.89008" lon="-0.41449">
        <ele>45.04</ele>
        <time>2021-08-31T13:08:32.731Z</time>
      </trkpt>
      <trkpt lat="48.89008" lon="-0.41449">
        <ele>45.04</ele>
        <time>2021-08-31T13:09:05.166Z</time>
      </trkpt>
      <trkpt lat="48.88952" lon="-0.4143">
        <ele>45.14</ele>
        <time>2021-08-31T13:09:37.610Z</time>
      </trkpt>
      <trkpt lat="48.88952" lon="-0.4143">
        <ele>45.14</ele>
        <time>2021-08-31T13:10:10.054Z</time>
      </trkpt>
      <trkpt lat="48.88881" lon="-0.4141">
        <ele>45.82</ele>
        <time>2021-08-31T13:10:42.510Z</time>
      </trkpt>
      <trkpt lat="48.88881" lon="-0.4141">
        <ele>45.82</ele>
        <time>2021-08-31T13:11:14.966Z</time>
      </trkpt>
      <trkpt lat="48.88849" lon="-0.41405">
        <ele>46.63</ele>
        <time>2021-08-31T13:11:47.427Z</time>
      </trkpt>
      <trkpt lat="48.88849" lon="-0.41405">
        <ele>46.63</ele>
        <time>2021-08-31T13:12:19.888Z</time>
      </trkpt>
      <trkpt lat="48.88831" lon="-0.41404">
        <ele>46.63</ele>
        <time>2021-08-31T13:12:52.352Z</time>
      </trkpt>
      <trkpt lat="48.88831" lon="-0.41404">
        <ele>46.63</ele>
        <time>2021-08-31T13:13:24.816Z</time>
      </trkpt>
      <trkpt lat="48.88807" lon="-0.41409">
        <ele>48.41</ele>
        <time>2021-08-31T13:13:57.284Z</time>
      </trkpt>
      <trkpt lat="48.88807" lon="-0.41409">
        <ele>48.41</ele>
        <time>2021-08-31T13:14:29.752Z</time>
      </trkpt>
      <trkpt lat="48.88775" lon="-0.4142">
        <ele>49.07</ele>
        <time>2021-08-31T13:15:02.225Z</time>
      </trkpt>
      <trkpt lat="48.88775" lon="-0.4142">
        <ele>49.07</ele>
        <time>2021-08-31T13:15:34.698Z</time>
      </trkpt>
      <trkpt lat="48.88691" lon="-0.4145">
        <ele>49.88</ele>
        <time>2021-08-31T13:16:07.185Z</time>
      </trkpt>
      <trkpt lat="48.88691" lon="-0.4145">
        <ele>49.88</ele>
        <time>2021-08-31T13:16:39.672Z</time>
      </trkpt>
      <trkpt lat="48.88565" lon="-0.41499">
        <ele>51.8</ele>
        <time>2021-08-31T13:17:12.180Z</time>
      </trkpt>
      <trkpt lat="48.88565" lon="-0.41499">
        <ele>51.8</ele>
        <time>2021-08-31T13:17:44.688Z</time>
      </trkpt>
      <trkpt lat="48.88555" lon="-0.41507">
        <ele>51.75</ele>
        <time>2021-08-31T13:18:17.198Z</time>
      </trkpt>
      <trkpt lat="48.88555" lon="-0.41507">
        <ele>51.75</ele>
        <time>2021-08-31T13:18:49.708Z</time>
      </trkpt>
      <trkpt lat="48.88549" lon="-0.41517">
        <ele>51.75</ele>
        <time>2021-08-31T13:19:22.219Z</time>
      </trkpt>
      <trkpt lat="48.88549" lon="-0.41517">
        <ele>51.75</ele>
        <time>2021-08-31T13:19:54.730Z</time>
      </trkpt>
      <trkpt lat="48.8852" lon="-0.416">
        <ele>54.32</ele>
        <time>2021-08-31T13:20:27.251Z</time>
      </trkpt>
      <trkpt lat="48.8852" lon="-0.416">
        <ele>54.32</ele>
        <time>2021-08-31T13:20:59.772Z</time>
      </trkpt>
      <trkpt lat="48.88494" lon="-0.41658">
        <ele>56.44</ele>
        <time>2021-08-31T13:21:32.300Z</time>
      </trkpt>
      <trkpt lat="48.88494" lon="-0.41658">
        <ele>56.44</ele>
        <time>2021-08-31T13:22:04.828Z</time>
      </trkpt>
      <trkpt lat="48.88481" lon="-0.41676">
        <ele>57.18</ele>
        <time>2021-08-31T13:22:37.359Z</time>
      </trkpt>
      <trkpt lat="48.88481" lon="-0.41676">
        <ele>57.18</ele>
        <time>2021-08-31T13:23:09.890Z</time>
      </trkpt>
      <trkpt lat="48.88464" lon="-0.41697">
        <ele>58.46</ele>
        <time>2021-08-31T13:23:42.425Z</time>
      </trkpt>
      <trkpt lat="48.88464" lon="-0.41697">
        <ele>58.46</ele>
        <time>2021-08-31T13:24:14.960Z</time>
      </trkpt>
      <trkpt lat="48.88294" lon="-0.41864">
        <ele>64.89</ele>
        <time>2021-08-31T13:24:47.527Z</time>
      </trkpt>
      <trkpt lat="48.88294" lon="-0.41864">
        <ele>64.89</ele>
        <time>2021-08-31T13:25:20.094Z</time>
      </trkpt>
      <trkpt lat="48.88278" lon="-0.41867">
        <ele>64.69</ele>
        <time>2021-08-31T13:25:52.664Z</time>
      </trkpt>
      <trkpt lat="48.88278" lon="-0.41867">
        <ele>64.69</ele>
        <time>2021-08-31T13:26:25.234Z</time>
      </trkpt>
      <trkpt lat="48.88275" lon="-0.41875">
        <ele>64.69</ele>
        <time>2021-08-31T13:26:57.805Z</time>
      </trkpt>
      <trkpt lat="48.88275" lon="-0.41875">
        <ele>64.69</ele>
        <time>2021-08-31T13:27:30.376Z</time>
      </trkpt>
      <trkpt lat="48.88262" lon="-0.41882">
        <ele>64.6</ele>
        <time>2021-08-31T13:28:02.949Z</time>
      </trkpt>
      <trkpt lat="48.88262" lon="-0.41882">
        <ele>64.6</ele>
        <time>2021-08-31T13:28:35.522Z</time>
      </trkpt>
      <trkpt lat="48.88234" lon="-0.4188">
        <ele>64.06</ele>
        <time>2021-08-31T13:29:08.099Z</time>
      </trkpt>
      <trkpt lat="48.88234" lon="-0.4188">
        <ele>64.06</ele>
        <time>2021-08-31T13:29:40.676Z</time>
      </trkpt>
      <trkpt lat="48.88224" lon="-0.41866">
        <ele>63.29</ele>
        <time>2021-08-31T13:30:13.255Z</time>
      </trkpt>
      <trkpt lat="48.88224" lon="-0.41866">
        <ele>63.29</ele>
        <time>2021-08-31T13:30:45.834Z</time>
      </trkpt>
      <trkpt lat="48.88216" lon="-0.41844">
        <ele>62.41</ele>
        <time>2021-08-31T13:31:18.416Z</time>
      </trkpt>
      <trkpt lat="48.88216" lon="-0.41844">
        <ele>62.41</ele>
        <time>2021-08-31T13:31:50.998Z</time>
      </trkpt>
      <trkpt lat="48.88211" lon="-0.41814">
        <ele>61.03</ele>
        <time>2021-08-31T13:32:23.583Z</time>
      </trkpt>
      <trkpt lat="48.88211" lon="-0.41814">
        <ele>61.03</ele>
        <time>2021-08-31T13:32:56.168Z</time>
      </trkpt>
      <trkpt lat="48.88194" lon="-0.41754">
        <ele>56.34</ele>
        <time>2021-08-31T13:33:28.760Z</time>
      </trkpt>
      <trkpt lat="48.88194" lon="-0.41754">
        <ele>56.34</ele>
        <time>2021-08-31T13:34:01.352Z</time>
      </trkpt>
      <trkpt lat="48.88174" lon="-0.41708">
        <ele>53.46</ele>
        <time>2021-08-31T13:34:33.950Z</time>
      </trkpt>
      <trkpt lat="48.88174" lon="-0.41708">
        <ele>53.46</ele>
        <time>2021-08-31T13:35:06.548Z</time>
      </trkpt>
      <trkpt lat="48.8814" lon="-0.41664">
        <ele>51.54</ele>
        <time>2021-08-31T13:35:39.153Z</time>
      </trkpt>
      <trkpt lat="48.8814" lon="-0.41664">
        <ele>51.54</ele>
        <time>2021-08-31T13:36:11.758Z</time>
      </trkpt>
      <trkpt lat="48.88109" lon="-0.41633">
        <ele>50.88</ele>
        <time>2021-08-31T13:36:44.369Z</time>
      </trkpt>
      <trkpt lat="48.88109" lon="-0.41633">
        <ele>50.88</ele>
        <time>2021-08-31T13:37:16.980Z</time>
      </trkpt>
      <trkpt lat="48.88093" lon="-0.41609">
        <ele>50.24</ele>
        <time>2021-08-31T13:37:49.595Z</time>
      </trkpt>
      <trkpt lat="48.88093" lon="-0.41609">
        <ele>50.24</ele>
        <time>2021-08-31T13:38:22.210Z</time>
      </trkpt>
      <trkpt lat="48.88081" lon="-0.41559">
        <ele>49.81</ele>
        <time>2021-08-31T13:38:54.830Z</time>
      </trkpt>
      <trkpt lat="48.88081" lon="-0.41559">
        <ele>49.81</ele>
        <time>2021-08-31T13:39:27.450Z</time>
      </trkpt>
      <trkpt lat="48.88074" lon="-0.41548">
        <ele>49.42</ele>
        <time>2021-08-31T13:40:00.072Z</time>
      </trkpt>
      <trkpt lat="48.88074" lon="-0.41548">
        <ele>49.42</ele>
        <time>2021-08-31T13:40:32.694Z</time>
      </trkpt>
      <trkpt lat="48.88048" lon="-0.41514">
        <ele>49.32</ele>
        <time>2021-08-31T13:41:05.322Z</time>
      </trkpt>
      <trkpt lat="48.88048" lon="-0.41514">
        <ele>49.32</ele>
        <time>2021-08-31T13:41:37.950Z</time>
      </trkpt>
      <trkpt lat="48.87956" lon="-0.41376">
        <ele>49.33</ele>
        <time>2021-08-31T13:42:10.598Z</time>
      </trkpt>
      <trkpt lat="48.87956" lon="-0.41376">
        <ele>49.33</ele>
        <time>2021-08-31T13:42:43.246Z</time>
      </trkpt>
      <trkpt lat="48.87929" lon="-0.41342">
        <ele>49.5</ele>
        <time>2021-08-31T13:43:15.900Z</time>
      </trkpt>
      <trkpt lat="48.87929" lon="-0.41342">
        <ele>49.5</ele>
        <time>2021-08-31T13:43:48.554Z</time>
      </trkpt>
      <trkpt lat="48.87907" lon="-0.41325">
        <ele>49.68</ele>
        <time>2021-08-31T13:44:21.212Z</time>
      </trkpt>
      <trkpt lat="48.87907" lon="-0.41325">
        <ele>49.68</ele>
        <time>2021-08-31T13:44:53.870Z</time>
      </trkpt>
      <trkpt lat="48.87794" lon="-0.41248">
        <ele>49.35</ele>
        <time>2021-08-31T13:45:26.548Z</time>
      </trkpt>
      <trkpt lat="48.87794" lon="-0.41248">
        <ele>49.35</ele>
        <time>2021-08-31T13:45:59.226Z</time>
      </trkpt>
      <trkpt lat="48.87571" lon="-0.41098">
        <ele>49.98</ele>
        <time>2021-08-31T13:46:31.943Z</time>
      </trkpt>
      <trkpt lat="48.87571" lon="-0.41098">
        <ele>49.98</ele>
        <time>2021-08-31T13:47:04.660Z</time>
      </trkpt>
      <trkpt lat="48.87517" lon="-0.41062">
        <ele>50.23</ele>
        <time>2021-08-31T13:47:37.386Z</time>
      </trkpt>
      <trkpt lat="48.87517" lon="-0.41062">
        <ele>50.23</ele>
        <time>2021-08-31T13:48:10.112Z</time>
      </trkpt>
      <trkpt lat="48.87404" lon="-0.40989">
        <ele>52.46</ele>
        <time>2021-08-31T13:48:42.858Z</time>
      </trkpt>
      <trkpt lat="48.87404" lon="-0.40989">
        <ele>52.46</ele>
        <time>2021-08-31T13:49:15.604Z</time>
      </trkpt>
      <trkpt lat="48.87385" lon="-0.40982">
        <ele>52.56</ele>
        <time>2021-08-31T13:49:48.353Z</time>
      </trkpt>
      <trkpt lat="48.87385" lon="-0.40982">
        <ele>52.56</ele>
        <time>2021-08-31T13:50:21.102Z</time>
      </trkpt>
      <trkpt lat="48.87382" lon="-0.40962">
        <ele>52.79</ele>
        <time>2021-08-31T13:50:53.853Z</time>
      </trkpt>
      <trkpt lat="48.87382" lon="-0.40962">
        <ele>52.79</ele>
        <time>2021-08-31T13:51:26.604Z</time>
      </trkpt>
      <trkpt lat="48.87361" lon="-0.40967">
        <ele>52.85</ele>
        <time>2021-08-31T13:51:59.359Z</time>
      </trkpt>
      <trkpt lat="48.87361" lon="-0.40967">
        <ele>52.85</ele>
        <time>2021-08-31T13:52:32.114Z</time>
      </trkpt>
      <trkpt lat="48.87348" lon="-0.40965">
        <ele>52.73</ele>
        <time>2021-08-31T13:53:04.871Z</time>
      </trkpt>
      <trkpt lat="48.87348" lon="-0.40965">
        <ele>52.73</ele>
        <time>2021-08-31T13:53:37.628Z</time>
      </trkpt>
      <trkpt lat="48.873" lon="-0.40936">
        <ele>51.98</ele>
        <time>2021-08-31T13:54:10.393Z</time>
      </trkpt>
      <trkpt lat="48.873" lon="-0.40936">
        <ele>51.98</ele>
        <time>2021-08-31T13:54:43.158Z</time>
      </trkpt>
      <trkpt lat="48.8727" lon="-0.40926">
        <ele>51.75</ele>
        <time>2021-08-31T13:55:15.928Z</time>
      </trkpt>
      <trkpt lat="48.8727" lon="-0.40926">
        <ele>51.75</ele>
        <time>2021-08-31T13:55:48.698Z</time>
      </trkpt>
      <trkpt lat="48.87244" lon="-0.40931">
        <ele>51.51</ele>
        <time>2021-08-31T13:56:21.472Z</time>
      </trkpt>
      <trkpt lat="48.87244" lon="-0.40931">
        <ele>51.51</ele>
        <time>2021-08-31T13:56:54.246Z</time>
      </trkpt>
      <trkpt lat="48.87206" lon="-0.40922">
        <ele>51.54</ele>
        <time>2021-08-31T13:57:27.026Z</time>
      </trkpt>
      <trkpt lat="48.87206" lon="-0.40922">
        <ele>51.54</ele>
        <time>2021-08-31T13:57:59.806Z</time>
      </trkpt>
      <trkpt lat="48.87162" lon="-0.40894">
        <ele>52.17</ele>
        <time>2021-08-31T13:58:32.594Z</time>
      </trkpt>
      <trkpt lat="48.87162" lon="-0.40894">
        <ele>52.17</ele>
        <time>2021-08-31T13:59:05.382Z</time>
      </trkpt>
      <trkpt lat="48.87139" lon="-0.40871">
        <ele>52.33</ele>
        <time>2021-08-31T13:59:38.174Z</time>
      </trkpt>
      <trkpt lat="48.87139" lon="-0.40871">
        <ele>52.33</ele>
        <time>2021-08-31T14:00:10.966Z</time>
      </trkpt>
      <trkpt lat="48.87127" lon="-0.40849">
        <ele>52.29</ele>
        <time>2021-08-31T14:00:43.761Z</time>
      </trkpt>
      <trkpt lat="48.87127" lon="-0.40849">
        <ele>52.29</ele>
        <time>2021-08-31T14:01:16.556Z</time>
      </trkpt>
      <trkpt lat="48.87114" lon="-0.40809">
        <ele>52.01</ele>
        <time>2021-08-31T14:01:49.356Z</time>
      </trkpt>
      <trkpt lat="48.87114" lon="-0.40809">
        <ele>52.01</ele>
        <time>2021-08-31T14:02:22.156Z</time>
      </trkpt>
      <trkpt lat="48.87096" lon="-0.40743">
        <ele>51.33</ele>
        <time>2021-08-31T14:02:54.964Z</time>
      </trkpt>
      <trkpt lat="48.87096" lon="-0.40743">
        <ele>51.33</ele>
        <time>2021-08-31T14:03:27.772Z</time>
      </trkpt>
      <trkpt lat="48.87079" lon="-0.40695">
        <ele>50.44</ele>
        <time>2021-08-31T14:04:00.585Z</time>
      </trkpt>
      <trkpt lat="48.87079" lon="-0.40695">
        <ele>50.44</ele>
        <time>2021-08-31T14:04:33.398Z</time>
      </trkpt>
      <trkpt lat="48.87064" lon="-0.40667">
        <ele>50.2</ele>
        <time>2021-08-31T14:05:06.215Z</time>
      </trkpt>
      <trkpt lat="48.87064" lon="-0.40667">
        <ele>50.2</ele>
        <time>2021-08-31T14:05:39.032Z</time>
      </trkpt>
      <trkpt lat="48.8697" lon="-0.40548">
        <ele>49.43</ele>
        <time>2021-08-31T14:06:11.869Z</time>
      </trkpt>
      <trkpt lat="48.8697" lon="-0.40548">
        <ele>49.43</ele>
        <time>2021-08-31T14:06:44.706Z</time>
      </trkpt>
      <trkpt lat="48.8692" lon="-0.40516">
        <ele>49.55</ele>
        <time>2021-08-31T14:07:17.551Z</time>
      </trkpt>
      <trkpt lat="48.8692" lon="-0.40516">
        <ele>49.55</ele>
        <time>2021-08-31T14:07:50.396Z</time>
      </trkpt>
      <trkpt lat="48.86866" lon="-0.40488">
        <ele>50.69</ele>
        <time>2021-08-31T14:08:23.251Z</time>
      </trkpt>
      <trkpt lat="48.86866" lon="-0.40488">
        <ele>50.69</ele>
        <time>2021-08-31T14:08:56.106Z</time>
      </trkpt>
      <trkpt lat="48.86578" lon="-0.40427">
        <ele>58.01</ele>
        <time>2021-08-31T14:09:29.007Z</time>
      </trkpt>
      <trkpt lat="48.86578" lon="-0.40427">
        <ele>58.01</ele>
        <time>2021-08-31T14:10:01.908Z</time>
      </trkpt>
      <trkpt lat="48.8655" lon="-0.40412">
        <ele>59.11</ele>
        <time>2021-08-31T14:10:34.814Z</time>
      </trkpt>
      <trkpt lat="48.8655" lon="-0.40412">
        <ele>59.11</ele>
        <time>2021-08-31T14:11:07.720Z</time>
      </trkpt>
      <trkpt lat="48.86387" lon="-0.40309">
        <ele>66.71</ele>
        <time>2021-08-31T14:11:40.654Z</time>
      </trkpt>
      <trkpt lat="48.86387" lon="-0.40309">
        <ele>66.71</ele>
        <time>2021-08-31T14:12:13.588Z</time>
      </trkpt>
      <trkpt lat="48.86114" lon="-0.40155">
        <ele>62.08</ele>
        <time>2021-08-31T14:12:46.569Z</time>
      </trkpt>
      <trkpt lat="48.86114" lon="-0.40155">
        <ele>62.08</ele>
        <time>2021-08-31T14:13:19.550Z</time>
      </trkpt>
      <trkpt lat="48.85998" lon="-0.40099">
        <ele>56.31</ele>
        <time>2021-08-31T14:13:52.550Z</time>
      </trkpt>
      <trkpt lat="48.85998" lon="-0.40099">
        <ele>56.31</ele>
        <time>2021-08-31T14:14:25.550Z</time>
      </trkpt>
      <trkpt lat="48.85946" lon="-0.40059">
        <ele>54.89</ele>
        <time>2021-08-31T14:14:58.560Z</time>
      </trkpt>
      <trkpt lat="48.85946" lon="-0.40059">
        <ele>54.89</ele>
        <time>2021-08-31T14:15:31.570Z</time>
      </trkpt>
      <trkpt lat="48.85914" lon="-0.40015">
        <ele>54.34</ele>
        <time>2021-08-31T14:16:04.587Z</time>
      </trkpt>
      <trkpt lat="48.85914" lon="-0.40015">
        <ele>54.34</ele>
        <time>2021-08-31T14:16:37.604Z</time>
      </trkpt>
      <trkpt lat="48.85803" lon="-0.39846">
        <ele>49.82</ele>
        <time>2021-08-31T14:17:10.646Z</time>
      </trkpt>
      <trkpt lat="48.85803" lon="-0.39846">
        <ele>49.82</ele>
        <time>2021-08-31T14:17:43.688Z</time>
      </trkpt>
      <trkpt lat="48.85779" lon="-0.39816">
        <ele>49.4</ele>
        <time>2021-08-31T14:18:16.735Z</time>
      </trkpt>
      <trkpt lat="48.85779" lon="-0.39816">
        <ele>49.4</ele>
        <time>2021-08-31T14:18:49.782Z</time>
      </trkpt>
      <trkpt lat="48.85763" lon="-0.39806">
        <ele>49.3</ele>
        <time>2021-08-31T14:19:22.832Z</time>
      </trkpt>
      <trkpt lat="48.85763" lon="-0.39806">
        <ele>49.3</ele>
        <time>2021-08-31T14:19:55.882Z</time>
      </trkpt>
      <trkpt lat="48.85751" lon="-0.39793">
        <ele>49.33</ele>
        <time>2021-08-31T14:20:28.934Z</time>
      </trkpt>
      <trkpt lat="48.85751" lon="-0.39793">
        <ele>49.33</ele>
        <time>2021-08-31T14:21:01.986Z</time>
      </trkpt>
      <trkpt lat="48.85735" lon="-0.39765">
        <ele>49.63</ele>
        <time>2021-08-31T14:21:35.042Z</time>
      </trkpt>
      <trkpt lat="48.85735" lon="-0.39765">
        <ele>49.63</ele>
        <time>2021-08-31T14:22:08.098Z</time>
      </trkpt>
      <trkpt lat="48.85561" lon="-0.3941">
        <ele>53.32</ele>
        <time>2021-08-31T14:22:41.201Z</time>
      </trkpt>
      <trkpt lat="48.85561" lon="-0.3941">
        <ele>53.32</ele>
        <time>2021-08-31T14:23:14.304Z</time>
      </trkpt>
      <trkpt lat="48.85514" lon="-0.3934">
        <ele>53.02</ele>
        <time>2021-08-31T14:23:47.417Z</time>
      </trkpt>
      <trkpt lat="48.85514" lon="-0.3934">
        <ele>53.02</ele>
        <time>2021-08-31T14:24:20.530Z</time>
      </trkpt>
      <trkpt lat="48.85496" lon="-0.39323">
        <ele>53.05</ele>
        <time>2021-08-31T14:24:53.646Z</time>
      </trkpt>
      <trkpt lat="48.85496" lon="-0.39323">
        <ele>53.05</ele>
        <time>2021-08-31T14:25:26.762Z</time>
      </trkpt>
      <trkpt lat="48.85261" lon="-0.39127">
        <ele>58.28</ele>
        <time>2021-08-31T14:25:59.921Z</time>
      </trkpt>
      <trkpt lat="48.85261" lon="-0.39127">
        <ele>58.28</ele>
        <time>2021-08-31T14:26:33.080Z</time>
      </trkpt>
      <trkpt lat="48.85197" lon="-0.39049">
        <ele>58.43</ele>
        <time>2021-08-31T14:27:06.253Z</time>
      </trkpt>
      <trkpt lat="48.85197" lon="-0.39049">
        <ele>58.43</ele>
        <time>2021-08-31T14:27:39.426Z</time>
      </trkpt>
      <trkpt lat="48.85182" lon="-0.39034">
        <ele>58.47</ele>
        <time>2021-08-31T14:28:12.601Z</time>
      </trkpt>
      <trkpt lat="48.85182" lon="-0.39034">
        <ele>58.47</ele>
        <time>2021-08-31T14:28:45.776Z</time>
      </trkpt>
      <trkpt lat="48.85158" lon="-0.39022">
        <ele>58.75</ele>
        <time>2021-08-31T14:29:18.955Z</time>
      </trkpt>
      <trkpt lat="48.85158" lon="-0.39022">
        <ele>58.75</ele>
        <time>2021-08-31T14:29:52.134Z</time>
      </trkpt>
      <trkpt lat="48.85132" lon="-0.39">
        <ele>59.73</ele>
        <time>2021-08-31T14:30:25.318Z</time>
      </trkpt>
      <trkpt lat="48.85132" lon="-0.39">
        <ele>59.73</ele>
        <time>2021-08-31T14:30:58.502Z</time>
      </trkpt>
      <trkpt lat="48.851" lon="-0.38957">
        <ele>60.8</ele>
        <time>2021-08-31T14:31:31.693Z</time>
      </trkpt>
      <trkpt lat="48.851" lon="-0.38957">
        <ele>60.8</ele>
        <time>2021-08-31T14:32:04.884Z</time>
      </trkpt>
      <trkpt lat="48.8507" lon="-0.38911">
        <ele>62.04</ele>
        <time>2021-08-31T14:32:38.082Z</time>
      </trkpt>
      <trkpt lat="48.8507" lon="-0.38911">
        <ele>62.04</ele>
        <time>2021-08-31T14:33:11.280Z</time>
      </trkpt>
      <trkpt lat="48.85052" lon="-0.38875">
        <ele>63.32</ele>
        <time>2021-08-31T14:33:44.483Z</time>
      </trkpt>
      <trkpt lat="48.85052" lon="-0.38875">
        <ele>63.32</ele>
        <time>2021-08-31T14:34:17.686Z</time>
      </trkpt>
      <trkpt lat="48.85044" lon="-0.38845">
        <ele>63.32</ele>
        <time>2021-08-31T14:34:50.892Z</time>
      </trkpt>
      <trkpt lat="48.85044" lon="-0.38845">
        <ele>63.32</ele>
        <time>2021-08-31T14:35:24.098Z</time>
      </trkpt>
      <trkpt lat="48.85012" lon="-0.38644">
        <ele>62.42</ele>
        <time>2021-08-31T14:35:57.326Z</time>
      </trkpt>
      <trkpt lat="48.85012" lon="-0.38644">
        <ele>62.42</ele>
        <time>2021-08-31T14:36:30.554Z</time>
      </trkpt>
      <trkpt lat="48.85006" lon="-0.38629">
        <ele>62.42</ele>
        <time>2021-08-31T14:37:03.784Z</time>
      </trkpt>
      <trkpt lat="48.85006" lon="-0.38629">
        <ele>62.42</ele>
        <time>2021-08-31T14:37:37.014Z</time>
      </trkpt>
      <trkpt lat="48.849" lon="-0.38955">
        <ele>56.74</ele>
        <time>2021-08-31T14:38:10.282Z</time>
      </trkpt>
      <trkpt lat="48.849" lon="-0.38955">
        <ele>56.74</ele>
        <time>2021-08-31T14:38:43.550Z</time>
      </trkpt>
      <trkpt lat="48.84882" lon="-0.39017">
        <ele>58.78</ele>
        <time>2021-08-31T14:39:16.825Z</time>
      </trkpt>
      <trkpt lat="48.84882" lon="-0.39017">
        <ele>58.78</ele>
        <time>2021-08-31T14:39:50.100Z</time>
      </trkpt>
      <trkpt lat="48.84884" lon="-0.3903">
        <ele>59.9</ele>
        <time>2021-08-31T14:40:23.377Z</time>
      </trkpt>
      <trkpt lat="48.84884" lon="-0.3903">
        <ele>59.9</ele>
        <time>2021-08-31T14:40:56.654Z</time>
      </trkpt>
      <trkpt lat="48.84903" lon="-0.39057">
        <ele>61.2</ele>
        <time>2021-08-31T14:41:29.935Z</time>
      </trkpt>
      <trkpt lat="48.84903" lon="-0.39057">
        <ele>61.2</ele>
        <time>2021-08-31T14:42:03.216Z</time>
      </trkpt>
      <trkpt lat="48.84991" lon="-0.39158">
        <ele>67.36</ele>
        <time>2021-08-31T14:42:36.515Z</time>
      </trkpt>
      <trkpt lat="48.84991" lon="-0.39158">
        <ele>67.36</ele>
        <time>2021-08-31T14:43:09.814Z</time>
      </trkpt>
      <trkpt lat="48.8508" lon="-0.39284">
        <ele>73.08</ele>
        <time>2021-08-31T14:43:43.132Z</time>
      </trkpt>
      <trkpt lat="48.8508" lon="-0.39284">
        <ele>73.08</ele>
        <time>2021-08-31T14:44:16.450Z</time>
      </trkpt>
      <trkpt lat="48.85109" lon="-0.39329">
        <ele>75.88</ele>
        <time>2021-08-31T14:44:49.775Z</time>
      </trkpt>
      <trkpt lat="48.85109" lon="-0.39329">
        <ele>75.88</ele>
        <time>2021-08-31T14:45:23.100Z</time>
      </trkpt>
      <trkpt lat="48.85116" lon="-0.39348">
        <ele>75.88</ele>
        <time>2021-08-31T14:45:56.427Z</time>
      </trkpt>
      <trkpt lat="48.85116" lon="-0.39348">
        <ele>75.88</ele>
        <time>2021-08-31T14:46:29.754Z</time>
      </trkpt>
      <trkpt lat="48.85117" lon="-0.39362">
        <ele>77.16</ele>
        <time>2021-08-31T14:47:03.083Z</time>
      </trkpt>
      <trkpt lat="48.85117" lon="-0.39362">
        <ele>77.16</ele>
        <time>2021-08-31T14:47:36.412Z</time>
      </trkpt>
      <trkpt lat="48.85115" lon="-0.39382">
        <ele>77.63</ele>
        <time>2021-08-31T14:48:09.743Z</time>
      </trkpt>
      <trkpt lat="48.85115" lon="-0.39382">
        <ele>77.63</ele>
        <time>2021-08-31T14:48:43.074Z</time>
      </trkpt>
      <trkpt lat="48.85111" lon="-0.39394">
        <ele>77.85</ele>
        <time>2021-08-31T14:49:16.406Z</time>
      </trkpt>
      <trkpt lat="48.85111" lon="-0.39394">
        <ele>77.85</ele>
        <time>2021-08-31T14:49:49.738Z</time>
      </trkpt>
      <trkpt lat="48.851" lon="-0.39407">
        <ele>78.25</ele>
        <time>2021-08-31T14:50:23.072Z</time>
      </trkpt>
      <trkpt lat="48.851" lon="-0.39407">
        <ele>78.25</ele>
        <time>2021-08-31T14:50:56.406Z</time>
      </trkpt>
      <trkpt lat="48.85087" lon="-0.3941">
        <ele>79.15</ele>
        <time>2021-08-31T14:51:29.743Z</time>
      </trkpt>
      <trkpt lat="48.85087" lon="-0.3941">
        <ele>79.15</ele>
        <time>2021-08-31T14:52:03.080Z</time>
      </trkpt>
      <trkpt lat="48.8507" lon="-0.39406">
        <ele>79.91</ele>
        <time>2021-08-31T14:52:36.419Z</time>
      </trkpt>
      <trkpt lat="48.8507" lon="-0.39406">
        <ele>79.91</ele>
        <time>2021-08-31T14:53:09.758Z</time>
      </trkpt>
      <trkpt lat="48.8506" lon="-0.39394">
        <ele>80.52</ele>
        <time>2021-08-31T14:53:43.099Z</time>
      </trkpt>
      <trkpt lat="48.8506" lon="-0.39394">
        <ele>80.52</ele>
        <time>2021-08-31T14:54:16.440Z</time>
      </trkpt>
      <trkpt lat="48.85042" lon="-0.39333">
        <ele>82.43</ele>
        <time>2021-08-31T14:54:49.788Z</time>
      </trkpt>
      <trkpt lat="48.85042" lon="-0.39333">
        <ele>82.43</ele>
        <time>2021-08-31T14:55:23.136Z</time>
      </trkpt>
      <trkpt lat="48.85033" lon="-0.39316">
        <ele>83.6</ele>
        <time>2021-08-31T14:55:56.487Z</time>
      </trkpt>
      <trkpt lat="48.85033" lon="-0.39316">
        <ele>83.6</ele>
        <time>2021-08-31T14:56:29.838Z</time>
      </trkpt>
      <trkpt lat="48.8502" lon="-0.39296">
        <ele>84.04</ele>
        <time>2021-08-31T14:57:03.192Z</time>
      </trkpt>
      <trkpt lat="48.8502" lon="-0.39296">
        <ele>84.04</ele>
        <time>2021-08-31T14:57:36.546Z</time>
      </trkpt>
      <trkpt lat="48.85007" lon="-0.39288">
        <ele>84.04</ele>
        <time>2021-08-31T14:58:09.902Z</time>
      </trkpt>
      <trkpt lat="48.85007" lon="-0.39288">
        <ele>84.04</ele>
        <time>2021-08-31T14:58:43.258Z</time>
      </trkpt>
      <trkpt lat="48.84993" lon="-0.39283">
        <ele>85.87</ele>
        <time>2021-08-31T14:59:16.616Z</time>
      </trkpt>
      <trkpt lat="48.84993" lon="-0.39283">
        <ele>85.87</ele>
        <time>2021-08-31T14:59:49.974Z</time>
      </trkpt>
      <trkpt lat="48.84977" lon="-0.39283">
        <ele>85.87</ele>
        <time>2021-08-31T15:00:23.335Z</time>
      </trkpt>
      <trkpt lat="48.84977" lon="-0.39283">
        <ele>85.87</ele>
        <time>2021-08-31T15:00:56.696Z</time>
      </trkpt>
      <trkpt lat="48.84964" lon="-0.39288">
        <ele>85.87</ele>
        <time>2021-08-31T15:01:30.059Z</time>
      </trkpt>
      <trkpt lat="48.84964" lon="-0.39288">
        <ele>85.87</ele>
        <time>2021-08-31T15:02:03.422Z</time>
      </trkpt>
      <trkpt lat="48.84949" lon="-0.39301">
        <ele>88.15</ele>
        <time>2021-08-31T15:02:36.788Z</time>
      </trkpt>
      <trkpt lat="48.84949" lon="-0.39301">
        <ele>88.15</ele>
        <time>2021-08-31T15:03:10.154Z</time>
      </trkpt>
      <trkpt lat="48.84937" lon="-0.39316">
        <ele>88.15</ele>
        <time>2021-08-31T15:03:43.522Z</time>
      </trkpt>
      <trkpt lat="48.84937" lon="-0.39316">
        <ele>88.15</ele>
        <time>2021-08-31T15:04:16.890Z</time>
      </trkpt>
      <trkpt lat="48.84913" lon="-0.39349">
        <ele>89.7</ele>
        <time>2021-08-31T15:04:50.263Z</time>
      </trkpt>
      <trkpt lat="48.84913" lon="-0.39349">
        <ele>89.7</ele>
        <time>2021-08-31T15:05:23.636Z</time>
      </trkpt>
      <trkpt lat="48.84895" lon="-0.39377">
        <ele>91.53</ele>
        <time>2021-08-31T15:05:57.013Z</time>
      </trkpt>
      <trkpt lat="48.84895" lon="-0.39377">
        <ele>91.53</ele>
        <time>2021-08-31T15:06:30.390Z</time>
      </trkpt>
      <trkpt lat="48.8485" lon="-0.39505">
        <ele>95.81</ele>
        <time>2021-08-31T15:07:03.783Z</time>
      </trkpt>
      <trkpt lat="48.8485" lon="-0.39505">
        <ele>95.81</ele>
        <time>2021-08-31T15:07:37.176Z</time>
      </trkpt>
      <trkpt lat="48.84834" lon="-0.39527">
        <ele>95.81</ele>
        <time>2021-08-31T15:08:10.572Z</time>
      </trkpt>
      <trkpt lat="48.84834" lon="-0.39527">
        <ele>95.81</ele>
        <time>2021-08-31T15:08:43.968Z</time>
      </trkpt>
      <trkpt lat="48.84822" lon="-0.39532">
        <ele>97.61</ele>
        <time>2021-08-31T15:09:17.366Z</time>
      </trkpt>
      <trkpt lat="48.84822" lon="-0.39532">
        <ele>97.61</ele>
        <time>2021-08-31T15:09:50.764Z</time>
      </trkpt>
      <trkpt lat="48.84811" lon="-0.39532">
        <ele>97.61</ele>
        <time>2021-08-31T15:10:24.164Z</time>
      </trkpt>
      <trkpt lat="48.84811" lon="-0.39532">
        <ele>97.61</ele>
        <time>2021-08-31T15:10:57.564Z</time>
      </trkpt>
      <trkpt lat="48.84798" lon="-0.39521">
        <ele>97.61</ele>
        <time>2021-08-31T15:11:30.966Z</time>
      </trkpt>
      <trkpt lat="48.84798" lon="-0.39521">
        <ele>97.61</ele>
        <time>2021-08-31T15:12:04.368Z</time>
      </trkpt>
      <trkpt lat="48.84735" lon="-0.39421">
        <ele>100.89</ele>
        <time>2021-08-31T15:12:37.785Z</time>
      </trkpt>
      <trkpt lat="48.84735" lon="-0.39421">
        <ele>100.89</ele>
        <time>2021-08-31T15:13:11.202Z</time>
      </trkpt>
      <trkpt lat="48.84711" lon="-0.39392">
        <ele>101.37</ele>
        <time>2021-08-31T15:13:44.624Z</time>
      </trkpt>
      <trkpt lat="48.84711" lon="-0.39392">
        <ele>101.37</ele>
        <time>2021-08-31T15:14:18.046Z</time>
      </trkpt>
      <trkpt lat="48.84698" lon="-0.39383">
        <ele>101.54</ele>
        <time>2021-08-31T15:14:51.470Z</time>
      </trkpt>
      <trkpt lat="48.84698" lon="-0.39383">
        <ele>101.54</ele>
        <time>2021-08-31T15:15:24.894Z</time>
      </trkpt>
      <trkpt lat="48.84684" lon="-0.39383">
        <ele>101.62</ele>
        <time>2021-08-31T15:15:58.320Z</time>
      </trkpt>
      <trkpt lat="48.84684" lon="-0.39383">
        <ele>101.62</ele>
        <time>2021-08-31T15:16:31.746Z</time>
      </trkpt>
      <trkpt lat="48.84675" lon="-0.39388">
        <ele>101.62</ele>
        <time>2021-08-31T15:17:05.174Z</time>
      </trkpt>
      <trkpt lat="48.84675" lon="-0.39388">
        <ele>101.62</ele>
        <time>2021-08-31T15:17:38.602Z</time>
      </trkpt>
      <trkpt lat="48.84668" lon="-0.39392">
        <ele>101.62</ele>
        <time>2021-08-31T15:18:12.031Z</time>
      </trkpt>
      <trkpt lat="48.84668" lon="-0.39392">
        <ele>101.62</ele>
        <time>2021-08-31T15:18:45.460Z</time>
      </trkpt>
      <trkpt lat="48.84661" lon="-0.39405">
        <ele>101.51</ele>
        <time>2021-08-31T15:19:18.891Z</time>
      </trkpt>
      <trkpt lat="48.84661" lon="-0.39405">
        <ele>101.51</ele>
        <time>2021-08-31T15:19:52.322Z</time>
      </trkpt>
      <trkpt lat="48.84646" lon="-0.39449">
        <ele>101.22</ele>
        <time>2021-08-31T15:20:25.758Z</time>
      </trkpt>
      <trkpt lat="48.84646" lon="-0.39449">
        <ele>101.22</ele>
        <time>2021-08-31T15:20:59.194Z</time>
      </trkpt>
      <trkpt lat="48.84627" lon="-0.39575">
        <ele>98.95</ele>
        <time>2021-08-31T15:21:32.644Z</time>
      </trkpt>
      <trkpt lat="48.84627" lon="-0.39575">
        <ele>98.95</ele>
        <time>2021-08-31T15:22:06.094Z</time>
      </trkpt>
      <trkpt lat="48.8461" lon="-0.39628">
        <ele>96.22</ele>
        <time>2021-08-31T15:22:39.550Z</time>
      </trkpt>
      <trkpt lat="48.8461" lon="-0.39628">
        <ele>96.22</ele>
        <time>2021-08-31T15:23:13.006Z</time>
      </trkpt>
      <trkpt lat="48.84581" lon="-0.39699">
        <ele>94.32</ele>
        <time>2021-08-31T15:23:46.471Z</time>
      </trkpt>
      <trkpt lat="48.84581" lon="-0.39699">
        <ele>94.32</ele>
        <time>2021-08-31T15:24:19.936Z</time>
      </trkpt>
      <trkpt lat="48.84522" lon="-0.39804">
        <ele>92.99</ele>
        <time>2021-08-31T15:24:53.415Z</time>
      </trkpt>
      <trkpt lat="48.84522" lon="-0.39804">
        <ele>92.99</ele>
        <time>2021-08-31T15:25:26.894Z</time>
      </trkpt>
      <trkpt lat="48.8447" lon="-0.39877">
        <ele>92.66</ele>
        <time>2021-08-31T15:26:00.385Z</time>
      </trkpt>
      <trkpt lat="48.8447" lon="-0.39877">
        <ele>92.66</ele>
        <time>2021-08-31T15:26:33.876Z</time>
      </trkpt>
      <trkpt lat="48.84447" lon="-0.39899">
        <ele>91.97</ele>
        <time>2021-08-31T15:27:07.371Z</time>
      </trkpt>
      <trkpt lat="48.84447" lon="-0.39899">
        <ele>91.97</ele>
        <time>2021-08-31T15:27:40.866Z</time>
      </trkpt>
      <trkpt lat="48.84378" lon="-0.39921">
        <ele>90.37</ele>
        <time>2021-08-31T15:28:14.372Z</time>
      </trkpt>
      <trkpt lat="48.84378" lon="-0.39921">
        <ele>90.37</ele>
        <time>2021-08-31T15:28:47.878Z</time>
      </trkpt>
      <trkpt lat="48.8432" lon="-0.39948">
        <ele>87.82</ele>
        <time>2021-08-31T15:29:21.394Z</time>
      </trkpt>
      <trkpt lat="48.8432" lon="-0.39948">
        <ele>87.82</ele>
        <time>2021-08-31T15:29:54.910Z</time>
      </trkpt>
      <trkpt lat="48.84307" lon="-0.39946">
        <ele>87.26</ele>
        <time>2021-08-31T15:30:28.428Z</time>
      </trkpt>
      <trkpt lat="48.84307" lon="-0.39946">
        <ele>87.26</ele>
        <time>2021-08-31T15:31:01.946Z</time>
      </trkpt>
      <trkpt lat="48.84293" lon="-0.39943">
        <ele>87.26</ele>
        <time>2021-08-31T15:31:35.467Z</time>
      </trkpt>
      <trkpt lat="48.84293" lon="-0.39943">
        <ele>87.26</ele>
        <time>2021-08-31T15:32:08.988Z</time>
      </trkpt>
      <trkpt lat="48.84277" lon="-0.39927">
        <ele>85.7</ele>
        <time>2021-08-31T15:32:42.512Z</time>
      </trkpt>
      <trkpt lat="48.84277" lon="-0.39927">
        <ele>85.7</ele>
        <time>2021-08-31T15:33:16.036Z</time>
      </trkpt>
      <trkpt lat="48.84226" lon="-0.39854">
        <ele>81.98</ele>
        <time>2021-08-31T15:33:49.571Z</time>
      </trkpt>
      <trkpt lat="48.84226" lon="-0.39854">
        <ele>81.98</ele>
        <time>2021-08-31T15:34:23.106Z</time>
      </trkpt>
      <trkpt lat="48.84204" lon="-0.39829">
        <ele>81.14</ele>
        <time>2021-08-31T15:34:56.645Z</time>
      </trkpt>
      <trkpt lat="48.84204" lon="-0.39829">
        <ele>81.14</ele>
        <time>2021-08-31T15:35:30.184Z</time>
      </trkpt>
      <trkpt lat="48.84193" lon="-0.39827">
        <ele>80.56</ele>
        <time>2021-08-31T15:36:03.725Z</time>
      </trkpt>
      <trkpt lat="48.84193" lon="-0.39827">
        <ele>80.56</ele>
        <time>2021-08-31T15:36:37.266Z</time>
      </trkpt>
      <trkpt lat="48.84182" lon="-0.39828">
        <ele>79.84</ele>
        <time>2021-08-31T15:37:10.809Z</time>
      </trkpt>
      <trkpt lat="48.84182" lon="-0.39828">
        <ele>79.84</ele>
        <time>2021-08-31T15:37:44.352Z</time>
      </trkpt>
      <trkpt lat="48.84173" lon="-0.39833">
        <ele>79.84</ele>
        <time>2021-08-31T15:38:17.896Z</time>
      </trkpt>
      <trkpt lat="48.84173" lon="-0.39833">
        <ele>79.84</ele>
        <time>2021-08-31T15:38:51.440Z</time>
      </trkpt>
      <trkpt lat="48.84164" lon="-0.39844">
        <ele>79.84</ele>
        <time>2021-08-31T15:39:24.986Z</time>
      </trkpt>
      <trkpt lat="48.84164" lon="-0.39844">
        <ele>79.84</ele>
        <time>2021-08-31T15:39:58.532Z</time>
      </trkpt>
      <trkpt lat="48.84159" lon="-0.3986">
        <ele>78.34</ele>
        <time>2021-08-31T15:40:32.080Z</time>
      </trkpt>
      <trkpt lat="48.84159" lon="-0.3986">
        <ele>78.34</ele>
        <time>2021-08-31T15:41:05.628Z</time>
      </trkpt>
      <trkpt lat="48.84157" lon="-0.39883">
        <ele>78.34</ele>
        <time>2021-08-31T15:41:39.179Z</time>
      </trkpt>
      <trkpt lat="48.84157" lon="-0.39883">
        <ele>78.34</ele>
        <time>2021-08-31T15:42:12.730Z</time>
      </trkpt>
      <trkpt lat="48.84161" lon="-0.39949">
        <ele>75.71</ele>
        <time>2021-08-31T15:42:46.288Z</time>
      </trkpt>
      <trkpt lat="48.84161" lon="-0.39949">
        <ele>75.71</ele>
        <time>2021-08-31T15:43:19.846Z</time>
      </trkpt>
      <trkpt lat="48.84155" lon="-0.39994">
        <ele>74.17</ele>
        <time>2021-08-31T15:43:53.408Z</time>
      </trkpt>
      <trkpt lat="48.84155" lon="-0.39994">
        <ele>74.17</ele>
        <time>2021-08-31T15:44:26.970Z</time>
      </trkpt>
      <trkpt lat="48.84144" lon="-0.40012">
        <ele>72.54</ele>
        <time>2021-08-31T15:45:00.535Z</time>
      </trkpt>
      <trkpt lat="48.84144" lon="-0.40012">
        <ele>72.54</ele>
        <time>2021-08-31T15:45:34.100Z</time>
      </trkpt>
      <trkpt lat="48.84134" lon="-0.40021">
        <ele>72.54</ele>
        <time>2021-08-31T15:46:07.667Z</time>
      </trkpt>
      <trkpt lat="48.84134" lon="-0.40021">
        <ele>72.54</ele>
        <time>2021-08-31T15:46:41.234Z</time>
      </trkpt>
      <trkpt lat="48.8413" lon="-0.40004">
        <ele>72.54</ele>
        <time>2021-08-31T15:47:14.803Z</time>
      </trkpt>
      <trkpt lat="48.8413" lon="-0.40004">
        <ele>72.54</ele>
        <time>2021-08-31T15:47:48.372Z</time>
      </trkpt>
      <trkpt lat="48.84131" lon="-0.39943">
        <ele>68.94</ele>
        <time>2021-08-31T15:48:21.947Z</time>
      </trkpt>
      <trkpt lat="48.84131" lon="-0.39943">
        <ele>68.94</ele>
        <time>2021-08-31T15:48:55.522Z</time>
      </trkpt>
      <trkpt lat="48.84121" lon="-0.39887">
        <ele>66.91</ele>
        <time>2021-08-31T15:49:29.103Z</time>
      </trkpt>
      <trkpt lat="48.84121" lon="-0.39887">
        <ele>66.91</ele>
        <time>2021-08-31T15:50:02.684Z</time>
      </trkpt>
      <trkpt lat="48.84121" lon="-0.39855">
        <ele>65.42</ele>
        <time>2021-08-31T15:50:36.269Z</time>
      </trkpt>
      <trkpt lat="48.84121" lon="-0.39855">
        <ele>65.42</ele>
        <time>2021-08-31T15:51:09.854Z</time>
      </trkpt>
      <trkpt lat="48.84124" lon="-0.39834">
        <ele>64.62</ele>
        <time>2021-08-31T15:51:43.441Z</time>
      </trkpt>
      <trkpt lat="48.84124" lon="-0.39834">
        <ele>64.62</ele>
        <time>2021-08-31T15:52:17.028Z</time>
      </trkpt>
      <trkpt lat="48.84133" lon="-0.3979">
        <ele>63.46</ele>
        <time>2021-08-31T15:52:50.620Z</time>
      </trkpt>
      <trkpt lat="48.84133" lon="-0.3979">
        <ele>63.46</ele>
        <time>2021-08-31T15:53:24.212Z</time>
      </trkpt>
      <trkpt lat="48.84134" lon="-0.39766">
        <ele>62.95</ele>
        <time>2021-08-31T15:53:57.806Z</time>
      </trkpt>
      <trkpt lat="48.84134" lon="-0.39766">
        <ele>62.95</ele>
        <time>2021-08-31T15:54:31.400Z</time>
      </trkpt>
      <trkpt lat="48.84132" lon="-0.39744">
        <ele>62.63</ele>
        <time>2021-08-31T15:55:04.997Z</time>
      </trkpt>
      <trkpt lat="48.84132" lon="-0.39744">
        <ele>62.63</ele>
        <time>2021-08-31T15:55:38.594Z</time>
      </trkpt>
      <trkpt lat="48.84124" lon="-0.39716">
        <ele>62.24</ele>
        <time>2021-08-31T15:56:12.194Z</time>
      </trkpt>
      <trkpt lat="48.84124" lon="-0.39716">
        <ele>62.24</ele>
        <time>2021-08-31T15:56:45.794Z</time>
      </trkpt>
      <trkpt lat="48.84118" lon="-0.39705">
        <ele>62.21</ele>
        <time>2021-08-31T15:57:19.395Z</time>
      </trkpt>
      <trkpt lat="48.84118" lon="-0.39705">
        <ele>62.21</ele>
        <time>2021-08-31T15:57:52.996Z</time>
      </trkpt>
      <trkpt lat="48.84109" lon="-0.39697">
        <ele>62.26</ele>
        <time>2021-08-31T15:58:26.599Z</time>
      </trkpt>
      <trkpt lat="48.84109" lon="-0.39697">
        <ele>62.26</ele>
        <time>2021-08-31T15:59:00.202Z</time>
      </trkpt>
      <trkpt lat="48.84084" lon="-0.39693">
        <ele>62.52</ele>
        <time>2021-08-31T15:59:33.809Z</time>
      </trkpt>
      <trkpt lat="48.84084" lon="-0.39693">
        <ele>62.52</ele>
        <time>2021-08-31T16:00:07.416Z</time>
      </trkpt>
      <trkpt lat="48.84063" lon="-0.39693">
        <ele>62.71</ele>
        <time>2021-08-31T16:00:41.027Z</time>
      </trkpt>
      <trkpt lat="48.84063" lon="-0.39693">
        <ele>62.71</ele>
        <time>2021-08-31T16:01:14.638Z</time>
      </trkpt>
      <trkpt lat="48.84055" lon="-0.39694">
        <ele>63.02</ele>
        <time>2021-08-31T16:01:48.250Z</time>
      </trkpt>
      <trkpt lat="48.84055" lon="-0.39694">
        <ele>63.02</ele>
        <time>2021-08-31T16:02:21.862Z</time>
      </trkpt>
      <trkpt lat="48.84037" lon="-0.3971">
        <ele>63.78</ele>
        <time>2021-08-31T16:02:55.477Z</time>
      </trkpt>
      <trkpt lat="48.84037" lon="-0.3971">
        <ele>63.78</ele>
        <time>2021-08-31T16:03:29.092Z</time>
      </trkpt>
      <trkpt lat="48.83995" lon="-0.39757">
        <ele>66.43</ele>
        <time>2021-08-31T16:04:02.716Z</time>
      </trkpt>
      <trkpt lat="48.83995" lon="-0.39757">
        <ele>66.43</ele>
        <time>2021-08-31T16:04:36.340Z</time>
      </trkpt>
      <trkpt lat="48.83973" lon="-0.39777">
        <ele>68.25</ele>
        <time>2021-08-31T16:05:09.968Z</time>
      </trkpt>
      <trkpt lat="48.83973" lon="-0.39777">
        <ele>68.25</ele>
        <time>2021-08-31T16:05:43.596Z</time>
      </trkpt>
      <trkpt lat="48.83864" lon="-0.39817">
        <ele>75.13</ele>
        <time>2021-08-31T16:06:17.242Z</time>
      </trkpt>
      <trkpt lat="48.83864" lon="-0.39817">
        <ele>75.13</ele>
        <time>2021-08-31T16:06:50.888Z</time>
      </trkpt>
      <trkpt lat="48.83791" lon="-0.39849">
        <ele>78.37</ele>
        <time>2021-08-31T16:07:24.546Z</time>
      </trkpt>
      <trkpt lat="48.83791" lon="-0.39849">
        <ele>78.37</ele>
        <time>2021-08-31T16:07:58.204Z</time>
      </trkpt>
      <trkpt lat="48.8378" lon="-0.3985">
        <ele>78.85</ele>
        <time>2021-08-31T16:08:31.864Z</time>
      </trkpt>
      <trkpt lat="48.8378" lon="-0.3985">
        <ele>78.85</ele>
        <time>2021-08-31T16:09:05.524Z</time>
      </trkpt>
      <trkpt lat="48.83771" lon="-0.39849">
        <ele>79.31</ele>
        <time>2021-08-31T16:09:39.185Z</time>
      </trkpt>
      <trkpt lat="48.83771" lon="-0.39849">
        <ele>79.31</ele>
        <time>2021-08-31T16:10:12.846Z</time>
      </trkpt>
      <trkpt lat="48.83752" lon="-0.39838">
        <ele>80.11</ele>
        <time>2021-08-31T16:10:46.510Z</time>
      </trkpt>
      <trkpt lat="48.83752" lon="-0.39838">
        <ele>80.11</ele>
        <time>2021-08-31T16:11:20.174Z</time>
      </trkpt>
      <trkpt lat="48.83737" lon="-0.39825">
        <ele>80.78</ele>
        <time>2021-08-31T16:11:53.841Z</time>
      </trkpt>
      <trkpt lat="48.83737" lon="-0.39825">
        <ele>80.78</ele>
        <time>2021-08-31T16:12:27.508Z</time>
      </trkpt>
      <trkpt lat="48.83461" lon="-0.39594">
        <ele>97.05</ele>
        <time>2021-08-31T16:13:01.225Z</time>
      </trkpt>
      <trkpt lat="48.83461" lon="-0.39594">
        <ele>97.05</ele>
        <time>2021-08-31T16:13:34.942Z</time>
      </trkpt>
      <trkpt lat="48.83426" lon="-0.3955">
        <ele>99.86</ele>
        <time>2021-08-31T16:14:08.667Z</time>
      </trkpt>
      <trkpt lat="48.83426" lon="-0.3955">
        <ele>99.86</ele>
        <time>2021-08-31T16:14:42.392Z</time>
      </trkpt>
      <trkpt lat="48.83382" lon="-0.39488">
        <ele>103.15</ele>
        <time>2021-08-31T16:15:16.126Z</time>
      </trkpt>
      <trkpt lat="48.83382" lon="-0.39488">
        <ele>103.15</ele>
        <time>2021-08-31T16:15:49.860Z</time>
      </trkpt>
      <trkpt lat="48.83353" lon="-0.39433">
        <ele>105.54</ele>
        <time>2021-08-31T16:16:23.602Z</time>
      </trkpt>
      <trkpt lat="48.83353" lon="-0.39433">
        <ele>105.54</ele>
        <time>2021-08-31T16:16:57.344Z</time>
      </trkpt>
      <trkpt lat="48.83341" lon="-0.39401">
        <ele>106.31</ele>
        <time>2021-08-31T16:17:31.090Z</time>
      </trkpt>
      <trkpt lat="48.83341" lon="-0.39401">
        <ele>106.31</ele>
        <time>2021-08-31T16:18:04.836Z</time>
      </trkpt>
      <trkpt lat="48.83333" lon="-0.39372">
        <ele>107.89</ele>
        <time>2021-08-31T16:18:38.585Z</time>
      </trkpt>
      <trkpt lat="48.83333" lon="-0.39372">
        <ele>107.89</ele>
        <time>2021-08-31T16:19:12.334Z</time>
      </trkpt>
      <trkpt lat="48.83329" lon="-0.39323">
        <ele>109.99</ele>
        <time>2021-08-31T16:19:46.088Z</time>
      </trkpt>
      <trkpt lat="48.83329" lon="-0.39323">
        <ele>109.99</ele>
        <time>2021-08-31T16:20:19.842Z</time>
      </trkpt>
      <trkpt lat="48.83311" lon="-0.39268">
        <ele>111.76</ele>
        <time>2021-08-31T16:20:53.603Z</time>
      </trkpt>
      <trkpt lat="48.83311" lon="-0.39268">
        <ele>111.76</ele>
        <time>2021-08-31T16:21:27.364Z</time>
      </trkpt>
      <trkpt lat="48.83242" lon="-0.39133">
        <ele>117.5</ele>
        <time>2021-08-31T16:22:01.143Z</time>
      </trkpt>
      <trkpt lat="48.83242" lon="-0.39133">
        <ele>117.5</ele>
        <time>2021-08-31T16:22:34.922Z</time>
      </trkpt>
      <trkpt lat="48.83232" lon="-0.39111">
        <ele>118.81</ele>
        <time>2021-08-31T16:23:08.704Z</time>
      </trkpt>
      <trkpt lat="48.83232" lon="-0.39111">
        <ele>118.81</ele>
        <time>2021-08-31T16:23:42.486Z</time>
      </trkpt>
      <trkpt lat="48.83212" lon="-0.39044">
        <ele>122.36</ele>
        <time>2021-08-31T16:24:16.275Z</time>
      </trkpt>
      <trkpt lat="48.83212" lon="-0.39044">
        <ele>122.36</ele>
        <time>2021-08-31T16:24:50.064Z</time>
      </trkpt>
      <trkpt lat="48.83205" lon="-0.39011">
        <ele>122.36</ele>
        <time>2021-08-31T16:25:23.857Z</time>
      </trkpt>
      <trkpt lat="48.83205" lon="-0.39011">
        <ele>122.36</ele>
        <time>2021-08-31T16:25:57.650Z</time>
      </trkpt>
      <trkpt lat="48.83204" lon="-0.38983">
        <ele>123.56</ele>
        <time>2021-08-31T16:26:31.446Z</time>
      </trkpt>
      <trkpt lat="48.83204" lon="-0.38983">
        <ele>123.56</ele>
        <time>2021-08-31T16:27:05.242Z</time>
      </trkpt>
      <trkpt lat="48.83209" lon="-0.38955">
        <ele>124.73</ele>
        <time>2021-08-31T16:27:39.041Z</time>
      </trkpt>
      <trkpt lat="48.83209" lon="-0.38955">
        <ele>124.73</ele>
        <time>2021-08-31T16:28:12.840Z</time>
      </trkpt>
      <trkpt lat="48.83222" lon="-0.38917">
        <ele>127</ele>
        <time>2021-08-31T16:28:46.644Z</time>
      </trkpt>
      <trkpt lat="48.83222" lon="-0.38917">
        <ele>127</ele>
        <time>2021-08-31T16:29:20.448Z</time>
      </trkpt>
      <trkpt lat="48.83228" lon="-0.3889">
        <ele>127.49</ele>
        <time>2021-08-31T16:29:54.255Z</time>
      </trkpt>
      <trkpt lat="48.83228" lon="-0.3889">
        <ele>127.49</ele>
        <time>2021-08-31T16:30:28.062Z</time>
      </trkpt>
      <trkpt lat="48.83226" lon="-0.38861">
        <ele>128.44</ele>
        <time>2021-08-31T16:31:01.872Z</time>
      </trkpt>
      <trkpt lat="48.83226" lon="-0.38861">
        <ele>128.44</ele>
        <time>2021-08-31T16:31:35.682Z</time>
      </trkpt>
      <trkpt lat="48.8322" lon="-0.38844">
        <ele>129.49</ele>
        <time>2021-08-31T16:32:09.494Z</time>
      </trkpt>
      <trkpt lat="48.8322" lon="-0.38844">
        <ele>129.49</ele>
        <time>2021-08-31T16:32:43.306Z</time>
      </trkpt>
      <trkpt lat="48.83201" lon="-0.38823">
        <ele>131.06</ele>
        <time>2021-08-31T16:33:17.122Z</time>
      </trkpt>
      <trkpt lat="48.83201" lon="-0.38823">
        <ele>131.06</ele>
        <time>2021-08-31T16:33:50.938Z</time>
      </trkpt>
      <trkpt lat="48.83145" lon="-0.38796">
        <ele>132.73</ele>
        <time>2021-08-31T16:34:24.763Z</time>
      </trkpt>
      <trkpt lat="48.83145" lon="-0.38796">
        <ele>132.73</ele>
        <time>2021-08-31T16:34:58.588Z</time>
      </trkpt>
      <trkpt lat="48.83132" lon="-0.38783">
        <ele>134.05</ele>
        <time>2021-08-31T16:35:32.415Z</time>
      </trkpt>
      <trkpt lat="48.83132" lon="-0.38783">
        <ele>134.05</ele>
        <time>2021-08-31T16:36:06.242Z</time>
      </trkpt>
      <trkpt lat="48.83124" lon="-0.38755">
        <ele>135.02</ele>
        <time>2021-08-31T16:36:40.073Z</time>
      </trkpt>
      <trkpt lat="48.83124" lon="-0.38755">
        <ele>135.02</ele>
        <time>2021-08-31T16:37:13.904Z</time>
      </trkpt>
      <trkpt lat="48.83124" lon="-0.38716">
        <ele>136.63</ele>
        <time>2021-08-31T16:37:47.739Z</time>
      </trkpt>
      <trkpt lat="48.83124" lon="-0.38716">
        <ele>136.63</ele>
        <time>2021-08-31T16:38:21.574Z</time>
      </trkpt>
      <trkpt lat="48.83129" lon="-0.38678">
        <ele>137.64</ele>
        <time>2021-08-31T16:38:55.413Z</time>
      </trkpt>
      <trkpt lat="48.83129" lon="-0.38678">
        <ele>137.64</ele>
        <time>2021-08-31T16:39:29.252Z</time>
      </trkpt>
      <trkpt lat="48.83133" lon="-0.38618">
        <ele>139.66</ele>
        <time>2021-08-31T16:40:03.097Z</time>
      </trkpt>
      <trkpt lat="48.83133" lon="-0.38618">
        <ele>139.66</ele>
        <time>2021-08-31T16:40:36.942Z</time>
      </trkpt>
      <trkpt lat="48.83131" lon="-0.38566">
        <ele>141.08</ele>
        <time>2021-08-31T16:41:10.793Z</time>
      </trkpt>
      <trkpt lat="48.83131" lon="-0.38566">
        <ele>141.08</ele>
        <time>2021-08-31T16:41:44.644Z</time>
      </trkpt>
      <trkpt lat="48.83115" lon="-0.38494">
        <ele>143.16</ele>
        <time>2021-08-31T16:42:18.503Z</time>
      </trkpt>
      <trkpt lat="48.83115" lon="-0.38494">
        <ele>143.16</ele>
        <time>2021-08-31T16:42:52.362Z</time>
      </trkpt>
      <trkpt lat="48.83113" lon="-0.38457">
        <ele>143.16</ele>
        <time>2021-08-31T16:43:26.225Z</time>
      </trkpt>
      <trkpt lat="48.83113" lon="-0.38457">
        <ele>143.16</ele>
        <time>2021-08-31T16:44:00.088Z</time>
      </trkpt>
      <trkpt lat="48.83115" lon="-0.38436">
        <ele>144.94</ele>
        <time>2021-08-31T16:44:33.953Z</time>
      </trkpt>
      <trkpt lat="48.83115" lon="-0.38436">
        <ele>144.94</ele>
        <time>2021-08-31T16:45:07.818Z</time>
      </trkpt>
      <trkpt lat="48.83114" lon="-0.3844">
        <ele>144.94</ele>
        <time>2021-08-31T16:45:41.683Z</time>
      </trkpt>
      <trkpt lat="48.83114" lon="-0.3844">
        <ele>144.94</ele>
        <time>2021-08-31T16:46:15.548Z</time>
      </trkpt>
      <trkpt lat="48.83117" lon="-0.38417">
        <ele>144.94</ele>
        <time>2021-08-31T16:46:49.416Z</time>
      </trkpt>
      <trkpt lat="48.83117" lon="-0.38417">
        <ele>144.94</ele>
        <time>2021-08-31T16:47:23.284Z</time>
      </trkpt>
      <trkpt lat="48.83123" lon="-0.3839">
        <ele>145.77</ele>
        <time>2021-08-31T16:47:57.155Z</time>
      </trkpt>
      <trkpt lat="48.83123" lon="-0.3839">
        <ele>145.77</ele>
        <time>2021-08-31T16:48:31.026Z</time>
      </trkpt>
      <trkpt lat="48.83132" lon="-0.38361">
        <ele>146.07</ele>
        <time>2021-08-31T16:49:04.900Z</time>
      </trkpt>
      <trkpt lat="48.83132" lon="-0.38361">
        <ele>146.07</ele>
        <time>2021-08-31T16:49:38.774Z</time>
      </trkpt>
      <trkpt lat="48.83152" lon="-0.38322">
        <ele>147.19</ele>
        <time>2021-08-31T16:50:12.654Z</time>
      </trkpt>
      <trkpt lat="48.83152" lon="-0.38322">
        <ele>147.19</ele>
        <time>2021-08-31T16:50:46.534Z</time>
      </trkpt>
      <trkpt lat="48.83161" lon="-0.38296">
        <ele>147.6</ele>
        <time>2021-08-31T16:51:20.417Z</time>
      </trkpt>
      <trkpt lat="48.83161" lon="-0.38296">
        <ele>147.6</ele>
        <time>2021-08-31T16:51:54.300Z</time>
      </trkpt>
      <trkpt lat="48.83164" lon="-0.38272">
        <ele>148.23</ele>
        <time>2021-08-31T16:52:28.185Z</time>
      </trkpt>
      <trkpt lat="48.83164" lon="-0.38272">
        <ele>148.23</ele>
        <time>2021-08-31T16:53:02.070Z</time>
      </trkpt>
      <trkpt lat="48.83159" lon="-0.38245">
        <ele>148.23</ele>
        <time>2021-08-31T16:53:35.958Z</time>
      </trkpt>
      <trkpt lat="48.83159" lon="-0.38245">
        <ele>148.23</ele>
        <time>2021-08-31T16:54:09.846Z</time>
      </trkpt>
      <trkpt lat="48.83151" lon="-0.38225">
        <ele>149.83</ele>
        <time>2021-08-31T16:54:43.737Z</time>
      </trkpt>
      <trkpt lat="48.83151" lon="-0.38225">
        <ele>149.83</ele>
        <time>2021-08-31T16:55:17.628Z</time>
      </trkpt>
      <trkpt lat="48.83093" lon="-0.38153">
        <ele>153.66</ele>
        <time>2021-08-31T16:55:51.531Z</time>
      </trkpt>
      <trkpt lat="48.83093" lon="-0.38153">
        <ele>153.66</ele>
        <time>2021-08-31T16:56:25.434Z</time>
      </trkpt>
      <trkpt lat="48.83078" lon="-0.3814">
        <ele>155.39</ele>
        <time>2021-08-31T16:56:59.339Z</time>
      </trkpt>
      <trkpt lat="48.83078" lon="-0.3814">
        <ele>155.39</ele>
        <time>2021-08-31T16:57:33.244Z</time>
      </trkpt>
      <trkpt lat="48.83061" lon="-0.3813">
        <ele>156.6</ele>
        <time>2021-08-31T16:58:07.152Z</time>
      </trkpt>
      <trkpt lat="48.83061" lon="-0.3813">
        <ele>156.6</ele>
        <time>2021-08-31T16:58:41.060Z</time>
      </trkpt>
      <trkpt lat="48.83012" lon="-0.38124">
        <ele>159.23</ele>
        <time>2021-08-31T16:59:14.976Z</time>
      </trkpt>
      <trkpt lat="48.83012" lon="-0.38124">
        <ele>159.23</ele>
        <time>2021-08-31T16:59:48.892Z</time>
      </trkpt>
      <trkpt lat="48.82976" lon="-0.38123">
        <ele>159.88</ele>
        <time>2021-08-31T17:00:22.814Z</time>
      </trkpt>
      <trkpt lat="48.82976" lon="-0.38123">
        <ele>159.88</ele>
        <time>2021-08-31T17:00:56.736Z</time>
      </trkpt>
      <trkpt lat="48.82955" lon="-0.38117">
        <ele>160.41</ele>
        <time>2021-08-31T17:01:30.661Z</time>
      </trkpt>
      <trkpt lat="48.82955" lon="-0.38117">
        <ele>160.41</ele>
        <time>2021-08-31T17:02:04.586Z</time>
      </trkpt>
      <trkpt lat="48.82949" lon="-0.3811">
        <ele>160.41</ele>
        <time>2021-08-31T17:02:38.513Z</time>
      </trkpt>
      <trkpt lat="48.82949" lon="-0.3811">
        <ele>160.41</ele>
        <time>2021-08-31T17:03:12.440Z</time>
      </trkpt>
      <trkpt lat="48.82939" lon="-0.38101">
        <ele>160.51</ele>
        <time>2021-08-31T17:03:46.368Z</time>
      </trkpt>
      <trkpt lat="48.82939" lon="-0.38101">
        <ele>160.51</ele>
        <time>2021-08-31T17:04:20.296Z</time>
      </trkpt>
      <trkpt lat="48.82911" lon="-0.38067">
        <ele>160.68</ele>
        <time>2021-08-31T17:04:54.230Z</time>
      </trkpt>
      <trkpt lat="48.82911" lon="-0.38067">
        <ele>160.68</ele>
        <time>2021-08-31T17:05:28.164Z</time>
      </trkpt>
      <trkpt lat="48.82895" lon="-0.38043">
        <ele>160.69</ele>
        <time>2021-08-31T17:06:02.102Z</time>
      </trkpt>
      <trkpt lat="48.82895" lon="-0.38043">
        <ele>160.69</ele>
        <time>2021-08-31T17:06:36.040Z</time>
      </trkpt>
      <trkpt lat="48.8286" lon="-0.37973">
        <ele>160.89</ele>
        <time>2021-08-31T17:07:09.987Z</time>
      </trkpt>
      <trkpt lat="48.8286" lon="-0.37973">
        <ele>160.89</ele>
        <time>2021-08-31T17:07:43.934Z</time>
      </trkpt>
      <trkpt lat="48.82844" lon="-0.37934">
        <ele>161.57</ele>
        <time>2021-08-31T17:08:17.886Z</time>
      </trkpt>
      <trkpt lat="48.82844" lon="-0.37934">
        <ele>161.57</ele>
        <time>2021-08-31T17:08:51.838Z</time>
      </trkpt>
      <trkpt lat="48.82823" lon="-0.37872">
        <ele>164.51</ele>
        <time>2021-08-31T17:09:25.797Z</time>
      </trkpt>
      <trkpt lat="48.82823" lon="-0.37872">
        <ele>164.51</ele>
        <time>2021-08-31T17:09:59.756Z</time>
      </trkpt>
      <trkpt lat="48.82788" lon="-0.37895">
        <ele>166.57</ele>
        <time>2021-08-31T17:10:33.721Z</time>
      </trkpt>
      <trkpt lat="48.82788" lon="-0.37895">
        <ele>166.57</ele>
        <time>2021-08-31T17:11:07.686Z</time>
      </trkpt>
      <trkpt lat="48.82778" lon="-0.37897">
        <ele>167.57</ele>
        <time>2021-08-31T17:11:41.653Z</time>
      </trkpt>
      <trkpt lat="48.82778" lon="-0.37897">
        <ele>167.57</ele>
        <time>2021-08-31T17:12:15.620Z</time>
      </trkpt>
      <trkpt lat="48.82755" lon="-0.37889">
        <ele>167.57</ele>
        <time>2021-08-31T17:12:49.591Z</time>
      </trkpt>
      <trkpt lat="48.82755" lon="-0.37889">
        <ele>167.57</ele>
        <time>2021-08-31T17:13:23.562Z</time>
      </trkpt>
      <trkpt lat="48.82715" lon="-0.37867">
        <ele>172.13</ele>
        <time>2021-08-31T17:13:57.540Z</time>
      </trkpt>
      <trkpt lat="48.82715" lon="-0.37867">
        <ele>172.13</ele>
        <time>2021-08-31T17:14:31.518Z</time>
      </trkpt>
      <trkpt lat="48.82702" lon="-0.37851">
        <ele>173.41</ele>
        <time>2021-08-31T17:15:05.498Z</time>
      </trkpt>
      <trkpt lat="48.82702" lon="-0.37851">
        <ele>173.41</ele>
        <time>2021-08-31T17:15:39.478Z</time>
      </trkpt>
      <trkpt lat="48.82694" lon="-0.37836">
        <ele>174.3</ele>
        <time>2021-08-31T17:16:13.460Z</time>
      </trkpt>
      <trkpt lat="48.82694" lon="-0.37836">
        <ele>174.3</ele>
        <time>2021-08-31T17:16:47.442Z</time>
      </trkpt>
      <trkpt lat="48.82583" lon="-0.37596">
        <ele>178.41</ele>
        <time>2021-08-31T17:17:21.455Z</time>
      </trkpt>
      <trkpt lat="48.82583" lon="-0.37596">
        <ele>178.41</ele>
        <time>2021-08-31T17:17:55.468Z</time>
      </trkpt>
      <trkpt lat="48.82567" lon="-0.37571">
        <ele>175.14</ele>
        <time>2021-08-31T17:18:29.485Z</time>
      </trkpt>
      <trkpt lat="48.82567" lon="-0.37571">
        <ele>175.14</ele>
        <time>2021-08-31T17:19:03.502Z</time>
      </trkpt>
      <trkpt lat="48.82549" lon="-0.37561">
        <ele>173.54</ele>
        <time>2021-08-31T17:19:37.522Z</time>
      </trkpt>
      <trkpt lat="48.82549" lon="-0.37561">
        <ele>173.54</ele>
        <time>2021-08-31T17:20:11.542Z</time>
      </trkpt>
      <trkpt lat="48.82308" lon="-0.37503">
        <ele>167.82</ele>
        <time>2021-08-31T17:20:45.601Z</time>
      </trkpt>
      <trkpt lat="48.82308" lon="-0.37503">
        <ele>167.82</ele>
        <time>2021-08-31T17:21:19.660Z</time>
      </trkpt>
      <trkpt lat="48.8228" lon="-0.37501">
        <ele>169.58</ele>
        <time>2021-08-31T17:21:53.724Z</time>
      </trkpt>
      <trkpt lat="48.8228" lon="-0.37501">
        <ele>169.58</ele>
        <time>2021-08-31T17:22:27.788Z</time>
      </trkpt>
      <trkpt lat="48.82252" lon="-0.37502">
        <ele>170.33</ele>
        <time>2021-08-31T17:23:01.856Z</time>
      </trkpt>
      <trkpt lat="48.82252" lon="-0.37502">
        <ele>170.33</ele>
        <time>2021-08-31T17:23:35.924Z</time>
      </trkpt>
      <trkpt lat="48.82163" lon="-0.37517">
        <ele>168.02</ele>
        <time>2021-08-31T17:24:10.006Z</time>
      </trkpt>
      <trkpt lat="48.82163" lon="-0.37517">
        <ele>168.02</ele>
        <time>2021-08-31T17:24:44.088Z</time>
      </trkpt>
      <trkpt lat="48.82102" lon="-0.37539">
        <ele>164.81</ele>
        <time>2021-08-31T17:25:18.181Z</time>
      </trkpt>
      <trkpt lat="48.82102" lon="-0.37539">
        <ele>164.81</ele>
        <time>2021-08-31T17:25:52.274Z</time>
      </trkpt>
      <trkpt lat="48.8205" lon="-0.37573">
        <ele>163.81</ele>
        <time>2021-08-31T17:26:26.376Z</time>
      </trkpt>
      <trkpt lat="48.8205" lon="-0.37573">
        <ele>163.81</ele>
        <time>2021-08-31T17:27:00.478Z</time>
      </trkpt>
      <trkpt lat="48.82001" lon="-0.37601">
        <ele>162</ele>
        <time>2021-08-31T17:27:34.588Z</time>
      </trkpt>
      <trkpt lat="48.82001" lon="-0.37601">
        <ele>162</ele>
        <time>2021-08-31T17:28:08.698Z</time>
      </trkpt>
      <trkpt lat="48.8191" lon="-0.37625">
        <ele>161.27</ele>
        <time>2021-08-31T17:28:42.823Z</time>
      </trkpt>
      <trkpt lat="48.8191" lon="-0.37625">
        <ele>161.27</ele>
        <time>2021-08-31T17:29:16.948Z</time>
      </trkpt>
      <trkpt lat="48.81806" lon="-0.37684">
        <ele>165.88</ele>
        <time>2021-08-31T17:29:51.091Z</time>
      </trkpt>
      <trkpt lat="48.81806" lon="-0.37684">
        <ele>165.88</ele>
        <time>2021-08-31T17:30:25.234Z</time>
      </trkpt>
      <trkpt lat="48.81785" lon="-0.3769">
        <ele>166.23</ele>
        <time>2021-08-31T17:30:59.380Z</time>
      </trkpt>
      <trkpt lat="48.81785" lon="-0.3769">
        <ele>166.23</ele>
        <time>2021-08-31T17:31:33.526Z</time>
      </trkpt>
      <trkpt lat="48.81765" lon="-0.3769">
        <ele>166.32</ele>
        <time>2021-08-31T17:32:07.675Z</time>
      </trkpt>
      <trkpt lat="48.81765" lon="-0.3769">
        <ele>166.32</ele>
        <time>2021-08-31T17:32:41.824Z</time>
      </trkpt>
      <trkpt lat="48.81739" lon="-0.37684">
        <ele>166.21</ele>
        <time>2021-08-31T17:33:15.977Z</time>
      </trkpt>
      <trkpt lat="48.81739" lon="-0.37684">
        <ele>166.21</ele>
        <time>2021-08-31T17:33:50.130Z</time>
      </trkpt>
      <trkpt lat="48.81725" lon="-0.3769">
        <ele>166.18</ele>
        <time>2021-08-31T17:34:24.286Z</time>
      </trkpt>
      <trkpt lat="48.81725" lon="-0.3769">
        <ele>166.18</ele>
        <time>2021-08-31T17:34:58.442Z</time>
      </trkpt>
      <trkpt lat="48.81717" lon="-0.37701">
        <ele>166.23</ele>
        <time>2021-08-31T17:35:32.599Z</time>
      </trkpt>
      <trkpt lat="48.81717" lon="-0.37701">
        <ele>166.23</ele>
        <time>2021-08-31T17:36:06.756Z</time>
      </trkpt>
      <trkpt lat="48.81705" lon="-0.37803">
        <ele>164.3</ele>
        <time>2021-08-31T17:36:40.924Z</time>
      </trkpt>
      <trkpt lat="48.81705" lon="-0.37803">
        <ele>164.3</ele>
        <time>2021-08-31T17:37:15.092Z</time>
      </trkpt>
      <trkpt lat="48.8169" lon="-0.37851">
        <ele>161.22</ele>
        <time>2021-08-31T17:37:49.266Z</time>
      </trkpt>
      <trkpt lat="48.8169" lon="-0.37851">
        <ele>161.22</ele>
        <time>2021-08-31T17:38:23.440Z</time>
      </trkpt>
      <trkpt lat="48.81661" lon="-0.37907">
        <ele>157.38</ele>
        <time>2021-08-31T17:38:57.622Z</time>
      </trkpt>
      <trkpt lat="48.81661" lon="-0.37907">
        <ele>157.38</ele>
        <time>2021-08-31T17:39:31.804Z</time>
      </trkpt>
      <trkpt lat="48.81617" lon="-0.37973">
        <ele>155.12</ele>
        <time>2021-08-31T17:40:05.995Z</time>
      </trkpt>
      <trkpt lat="48.81617" lon="-0.37973">
        <ele>155.12</ele>
        <time>2021-08-31T17:40:40.186Z</time>
      </trkpt>
      <trkpt lat="48.816" lon="-0.37993">
        <ele>154.77</ele>
        <time>2021-08-31T17:41:14.381Z</time>
      </trkpt>
      <trkpt lat="48.816" lon="-0.37993">
        <ele>154.77</ele>
        <time>2021-08-31T17:41:48.576Z</time>
      </trkpt>
      <trkpt lat="48.81565" lon="-0.3805">
        <ele>154.89</ele>
        <time>2021-08-31T17:42:22.779Z</time>
      </trkpt>
      <trkpt lat="48.81565" lon="-0.3805">
        <ele>154.89</ele>
        <time>2021-08-31T17:42:56.982Z</time>
      </trkpt>
      <trkpt lat="48.81541" lon="-0.38106">
        <ele>155.2</ele>
        <time>2021-08-31T17:43:31.192Z</time>
      </trkpt>
      <trkpt lat="48.81541" lon="-0.38106">
        <ele>155.2</ele>
        <time>2021-08-31T17:44:05.402Z</time>
      </trkpt>
      <trkpt lat="48.81533" lon="-0.38134">
        <ele>155.41</ele>
        <time>2021-08-31T17:44:39.615Z</time>
      </trkpt>
      <trkpt lat="48.81533" lon="-0.38134">
        <ele>155.41</ele>
        <time>2021-08-31T17:45:13.828Z</time>
      </trkpt>
      <trkpt lat="48.81531" lon="-0.38164">
        <ele>156.06</ele>
        <time>2021-08-31T17:45:48.045Z</time>
      </trkpt>
      <trkpt lat="48.81531" lon="-0.38164">
        <ele>156.06</ele>
        <time>2021-08-31T17:46:22.262Z</time>
      </trkpt>
      <trkpt lat="48.81523" lon="-0.38184">
        <ele>156.06</ele>
        <time>2021-08-31T17:46:56.481Z</time>
      </trkpt>
      <trkpt lat="48.81523" lon="-0.38184">
        <ele>156.06</ele>
        <time>2021-08-31T17:47:30.700Z</time>
      </trkpt>
      <trkpt lat="48.81425" lon="-0.38241">
        <ele>156.57</ele>
        <time>2021-08-31T17:48:04.936Z</time>
      </trkpt>
      <trkpt lat="48.81425" lon="-0.38241">
        <ele>156.57</ele>
        <time>2021-08-31T17:48:39.172Z</time>
      </trkpt>
      <trkpt lat="48.81305" lon="-0.38334">
        <ele>155.53</ele>
        <time>2021-08-31T17:49:13.430Z</time>
      </trkpt>
      <trkpt lat="48.81305" lon="-0.38334">
        <ele>155.53</ele>
        <time>2021-08-31T17:49:47.688Z</time>
      </trkpt>
      <trkpt lat="48.8126" lon="-0.38363">
        <ele>153.92</ele>
        <time>2021-08-31T17:50:21.953Z</time>
      </trkpt>
      <trkpt lat="48.8126" lon="-0.38363">
        <ele>153.92</ele>
        <time>2021-08-31T17:50:56.218Z</time>
      </trkpt>
      <trkpt lat="48.81268" lon="-0.38457">
        <ele>149.75</ele>
        <time>2021-08-31T17:51:30.493Z</time>
      </trkpt>
      <trkpt lat="48.81268" lon="-0.38457">
        <ele>149.75</ele>
        <time>2021-08-31T17:52:04.768Z</time>
      </trkpt>
      <trkpt lat="48.81269" lon="-0.38494">
        <ele>147.46</ele>
        <time>2021-08-31T17:52:39.047Z</time>
      </trkpt>
      <trkpt lat="48.81269" lon="-0.38494">
        <ele>147.46</ele>
        <time>2021-08-31T17:53:13.326Z</time>
      </trkpt>
      <trkpt lat="48.81267" lon="-0.38595">
        <ele>141.14</ele>
        <time>2021-08-31T17:53:47.616Z</time>
      </trkpt>
      <trkpt lat="48.81267" lon="-0.38595">
        <ele>141.14</ele>
        <time>2021-08-31T17:54:21.906Z</time>
      </trkpt>
      <trkpt lat="48.81262" lon="-0.38633">
        <ele>140.58</ele>
        <time>2021-08-31T17:54:56.200Z</time>
      </trkpt>
      <trkpt lat="48.81262" lon="-0.38633">
        <ele>140.58</ele>
        <time>2021-08-31T17:55:30.494Z</time>
      </trkpt>
      <trkpt lat="48.81238" lon="-0.38699">
        <ele>136.69</ele>
        <time>2021-08-31T17:56:04.796Z</time>
      </trkpt>
      <trkpt lat="48.81238" lon="-0.38699">
        <ele>136.69</ele>
        <time>2021-08-31T17:56:39.098Z</time>
      </trkpt>
      <trkpt lat="48.81233" lon="-0.38722">
        <ele>135.98</ele>
        <time>2021-08-31T17:57:13.403Z</time>
      </trkpt>
      <trkpt lat="48.81233" lon="-0.38722">
        <ele>135.98</ele>
        <time>2021-08-31T17:57:47.708Z</time>
      </trkpt>
      <trkpt lat="48.81232" lon="-0.38746">
        <ele>134.88</ele>
        <time>2021-08-31T17:58:22.015Z</time>
      </trkpt>
      <trkpt lat="48.81232" lon="-0.38746">
        <ele>134.88</ele>
        <time>2021-08-31T17:58:56.322Z</time>
      </trkpt>
      <trkpt lat="48.81238" lon="-0.38794">
        <ele>133.75</ele>
        <time>2021-08-31T17:59:30.634Z</time>
      </trkpt>
      <trkpt lat="48.81238" lon="-0.38794">
        <ele>133.75</ele>
        <time>2021-08-31T18:00:04.946Z</time>
      </trkpt>
      <trkpt lat="48.81249" lon="-0.3884">
        <ele>132.37</ele>
        <time>2021-08-31T18:00:39.263Z</time>
      </trkpt>
      <trkpt lat="48.81249" lon="-0.3884">
        <ele>132.37</ele>
        <time>2021-08-31T18:01:13.580Z</time>
      </trkpt>
      <trkpt lat="48.81284" lon="-0.3894">
        <ele>128.7</ele>
        <time>2021-08-31T18:01:47.909Z</time>
      </trkpt>
      <trkpt lat="48.81284" lon="-0.3894">
        <ele>128.7</ele>
        <time>2021-08-31T18:02:22.238Z</time>
      </trkpt>
      <trkpt lat="48.81291" lon="-0.38972">
        <ele>126.99</ele>
        <time>2021-08-31T18:02:56.571Z</time>
      </trkpt>
      <trkpt lat="48.81291" lon="-0.38972">
        <ele>126.99</ele>
        <time>2021-08-31T18:03:30.904Z</time>
      </trkpt>
      <trkpt lat="48.81294" lon="-0.39023">
        <ele>125.6</ele>
        <time>2021-08-31T18:04:05.242Z</time>
      </trkpt>
      <trkpt lat="48.81294" lon="-0.39023">
        <ele>125.6</ele>
        <time>2021-08-31T18:04:39.580Z</time>
      </trkpt>
      <trkpt lat="48.81293" lon="-0.39044">
        <ele>124.93</ele>
        <time>2021-08-31T18:05:13.921Z</time>
      </trkpt>
      <trkpt lat="48.81293" lon="-0.39044">
        <ele>124.93</ele>
        <time>2021-08-31T18:05:48.262Z</time>
      </trkpt>
      <trkpt lat="48.81291" lon="-0.39051">
        <ele>124.93</ele>
        <time>2021-08-31T18:06:22.603Z</time>
      </trkpt>
      <trkpt lat="48.81291" lon="-0.39051">
        <ele>124.93</ele>
        <time>2021-08-31T18:06:56.944Z</time>
      </trkpt>
      <trkpt lat="48.81286" lon="-0.39057">
        <ele>124.93</ele>
        <time>2021-08-31T18:07:31.286Z</time>
      </trkpt>
      <trkpt lat="48.81286" lon="-0.39057">
        <ele>124.93</ele>
        <time>2021-08-31T18:08:05.628Z</time>
      </trkpt>
      <trkpt lat="48.81233" lon="-0.39083">
        <ele>121.61</ele>
        <time>2021-08-31T18:08:39.979Z</time>
      </trkpt>
      <trkpt lat="48.81233" lon="-0.39083">
        <ele>121.61</ele>
        <time>2021-08-31T18:09:14.330Z</time>
      </trkpt>
      <trkpt lat="48.81217" lon="-0.39094">
        <ele>120.33</ele>
        <time>2021-08-31T18:09:48.684Z</time>
      </trkpt>
      <trkpt lat="48.81217" lon="-0.39094">
        <ele>120.33</ele>
        <time>2021-08-31T18:10:23.038Z</time>
      </trkpt>
      <trkpt lat="48.81182" lon="-0.39138">
        <ele>117.34</ele>
        <time>2021-08-31T18:10:57.400Z</time>
      </trkpt>
      <trkpt lat="48.81182" lon="-0.39138">
        <ele>117.34</ele>
        <time>2021-08-31T18:11:31.762Z</time>
      </trkpt>
      <trkpt lat="48.81042" lon="-0.39302">
        <ele>113.5</ele>
        <time>2021-08-31T18:12:06.152Z</time>
      </trkpt>
      <trkpt lat="48.81042" lon="-0.39302">
        <ele>113.5</ele>
        <time>2021-08-31T18:12:40.542Z</time>
      </trkpt>
      <trkpt lat="48.8066" lon="-0.39761">
        <ele>105.28</ele>
        <time>2021-08-31T18:13:15.010Z</time>
      </trkpt>
      <trkpt lat="48.8066" lon="-0.39761">
        <ele>105.28</ele>
        <time>2021-08-31T18:13:49.478Z</time>
      </trkpt>
      <trkpt lat="48.80633" lon="-0.39801">
        <ele>107.36</ele>
        <time>2021-08-31T18:14:23.952Z</time>
      </trkpt>
      <trkpt lat="48.80633" lon="-0.39801">
        <ele>107.36</ele>
        <time>2021-08-31T18:14:58.426Z</time>
      </trkpt>
      <trkpt lat="48.80619" lon="-0.39844">
        <ele>109.15</ele>
        <time>2021-08-31T18:15:32.905Z</time>
      </trkpt>
      <trkpt lat="48.80619" lon="-0.39844">
        <ele>109.15</ele>
        <time>2021-08-31T18:16:07.384Z</time>
      </trkpt>
      <trkpt lat="48.80596" lon="-0.39922">
        <ele>114.3</ele>
        <time>2021-08-31T18:16:41.872Z</time>
      </trkpt>
      <trkpt lat="48.80596" lon="-0.39922">
        <ele>114.3</ele>
        <time>2021-08-31T18:17:16.360Z</time>
      </trkpt>
      <trkpt lat="48.80575" lon="-0.39967">
        <ele>116.9</ele>
        <time>2021-08-31T18:17:50.854Z</time>
      </trkpt>
      <trkpt lat="48.80575" lon="-0.39967">
        <ele>116.9</ele>
        <time>2021-08-31T18:18:25.348Z</time>
      </trkpt>
      <trkpt lat="48.80546" lon="-0.40004">
        <ele>119.72</ele>
        <time>2021-08-31T18:18:59.848Z</time>
      </trkpt>
      <trkpt lat="48.80546" lon="-0.40004">
        <ele>119.72</ele>
        <time>2021-08-31T18:19:34.348Z</time>
      </trkpt>
      <trkpt lat="48.80491" lon="-0.40043">
        <ele>123.32</ele>
        <time>2021-08-31T18:20:08.858Z</time>
      </trkpt>
      <trkpt lat="48.80491" lon="-0.40043">
        <ele>123.32</ele>
        <time>2021-08-31T18:20:43.368Z</time>
      </trkpt>
      <trkpt lat="48.80466" lon="-0.40073">
        <ele>126.49</ele>
        <time>2021-08-31T18:21:17.883Z</time>
      </trkpt>
      <trkpt lat="48.80466" lon="-0.40073">
        <ele>126.49</ele>
        <time>2021-08-31T18:21:52.398Z</time>
      </trkpt>
      <trkpt lat="48.80401" lon="-0.40158">
        <ele>130.71</ele>
        <time>2021-08-31T18:22:26.927Z</time>
      </trkpt>
      <trkpt lat="48.80401" lon="-0.40158">
        <ele>130.71</ele>
        <time>2021-08-31T18:23:01.456Z</time>
      </trkpt>
      <trkpt lat="48.80375" lon="-0.40182">
        <ele>133.44</ele>
        <time>2021-08-31T18:23:35.989Z</time>
      </trkpt>
      <trkpt lat="48.80375" lon="-0.40182">
        <ele>133.44</ele>
        <time>2021-08-31T18:24:10.522Z</time>
      </trkpt>
      <trkpt lat="48.80333" lon="-0.40206">
        <ele>136.12</ele>
        <time>2021-08-31T18:24:45.063Z</time>
      </trkpt>
      <trkpt lat="48.80333" lon="-0.40206">
        <ele>136.12</ele>
        <time>2021-08-31T18:25:19.604Z</time>
      </trkpt>
      <trkpt lat="48.80313" lon="-0.40221">
        <ele>137.05</ele>
        <time>2021-08-31T18:25:54.148Z</time>
      </trkpt>
      <trkpt lat="48.80313" lon="-0.40221">
        <ele>137.05</ele>
        <time>2021-08-31T18:26:28.692Z</time>
      </trkpt>
      <trkpt lat="48.80263" lon="-0.40243">
        <ele>139.22</ele>
        <time>2021-08-31T18:27:03.245Z</time>
      </trkpt>
      <trkpt lat="48.80263" lon="-0.40243">
        <ele>139.22</ele>
        <time>2021-08-31T18:27:37.798Z</time>
      </trkpt>
      <trkpt lat="48.80207" lon="-0.40257">
        <ele>141.55</ele>
        <time>2021-08-31T18:28:12.360Z</time>
      </trkpt>
      <trkpt lat="48.80207" lon="-0.40257">
        <ele>141.55</ele>
        <time>2021-08-31T18:28:46.922Z</time>
      </trkpt>
      <trkpt lat="48.8015" lon="-0.40277">
        <ele>142.56</ele>
        <time>2021-08-31T18:29:21.493Z</time>
      </trkpt>
      <trkpt lat="48.8015" lon="-0.40277">
        <ele>142.56</ele>
        <time>2021-08-31T18:29:56.064Z</time>
      </trkpt>
      <trkpt lat="48.80128" lon="-0.4029">
        <ele>142.61</ele>
        <time>2021-08-31T18:30:30.639Z</time>
      </trkpt>
      <trkpt lat="48.80128" lon="-0.4029">
        <ele>142.61</ele>
        <time>2021-08-31T18:31:05.214Z</time>
      </trkpt>
      <trkpt lat="48.80047" lon="-0.40347">
        <ele>142.92</ele>
        <time>2021-08-31T18:31:39.803Z</time>
      </trkpt>
      <trkpt lat="48.80047" lon="-0.40347">
        <ele>142.92</ele>
        <time>2021-08-31T18:32:14.392Z</time>
      </trkpt>
      <trkpt lat="48.80008" lon="-0.40373">
        <ele>143.02</ele>
        <time>2021-08-31T18:32:48.988Z</time>
      </trkpt>
      <trkpt lat="48.80008" lon="-0.40373">
        <ele>143.02</ele>
        <time>2021-08-31T18:33:23.584Z</time>
      </trkpt>
      <trkpt lat="48.79917" lon="-0.40421">
        <ele>143.78</ele>
        <time>2021-08-31T18:33:58.195Z</time>
      </trkpt>
      <trkpt lat="48.79917" lon="-0.40421">
        <ele>143.78</ele>
        <time>2021-08-31T18:34:32.806Z</time>
      </trkpt>
      <trkpt lat="48.7986" lon="-0.40439">
        <ele>144.41</ele>
        <time>2021-08-31T18:35:07.427Z</time>
      </trkpt>
      <trkpt lat="48.7986" lon="-0.40439">
        <ele>144.41</ele>
        <time>2021-08-31T18:35:42.048Z</time>
      </trkpt>
      <trkpt lat="48.79811" lon="-0.4045">
        <ele>145.56</ele>
        <time>2021-08-31T18:36:16.677Z</time>
      </trkpt>
      <trkpt lat="48.79811" lon="-0.4045">
        <ele>145.56</ele>
        <time>2021-08-31T18:36:51.306Z</time>
      </trkpt>
      <trkpt lat="48.79786" lon="-0.40465">
        <ele>146.3</ele>
        <time>2021-08-31T18:37:25.939Z</time>
      </trkpt>
      <trkpt lat="48.79786" lon="-0.40465">
        <ele>146.3</ele>
        <time>2021-08-31T18:38:00.572Z</time>
      </trkpt>
      <trkpt lat="48.79785" lon="-0.40466">
        <ele>146.3</ele>
        <time>2021-08-31T18:38:35.205Z</time>
      </trkpt>
      <trkpt lat="48.79785" lon="-0.40466">
        <ele>146.3</ele>
        <time>2021-08-31T18:39:09.838Z</time>
      </trkpt>
      <trkpt lat="48.79768" lon="-0.40478">
        <ele>146.83</ele>
        <time>2021-08-31T18:39:44.474Z</time>
      </trkpt>
      <trkpt lat="48.79768" lon="-0.40478">
        <ele>146.83</ele>
        <time>2021-08-31T18:40:19.110Z</time>
      </trkpt>
      <trkpt lat="48.79661" lon="-0.40609">
        <ele>151.42</ele>
        <time>2021-08-31T18:40:53.768Z</time>
      </trkpt>
      <trkpt lat="48.79661" lon="-0.40609">
        <ele>151.42</ele>
        <time>2021-08-31T18:41:28.426Z</time>
      </trkpt>
      <trkpt lat="48.79648" lon="-0.40617">
        <ele>152.4</ele>
        <time>2021-08-31T18:42:03.086Z</time>
      </trkpt>
      <trkpt lat="48.79648" lon="-0.40617">
        <ele>152.4</ele>
        <time>2021-08-31T18:42:37.746Z</time>
      </trkpt>
      <trkpt lat="48.79631" lon="-0.40625">
        <ele>153.21</ele>
        <time>2021-08-31T18:43:12.409Z</time>
      </trkpt>
      <trkpt lat="48.79631" lon="-0.40625">
        <ele>153.21</ele>
        <time>2021-08-31T18:43:47.072Z</time>
      </trkpt>
      <trkpt lat="48.79596" lon="-0.40632">
        <ele>153.8</ele>
        <time>2021-08-31T18:44:21.741Z</time>
      </trkpt>
      <trkpt lat="48.79596" lon="-0.40632">
        <ele>153.8</ele>
        <time>2021-08-31T18:44:56.410Z</time>
      </trkpt>
      <trkpt lat="48.79562" lon="-0.40632">
        <ele>154.72</ele>
        <time>2021-08-31T18:45:31.084Z</time>
      </trkpt>
      <trkpt lat="48.79562" lon="-0.40632">
        <ele>154.72</ele>
        <time>2021-08-31T18:46:05.758Z</time>
      </trkpt>
      <trkpt lat="48.79549" lon="-0.40637">
        <ele>154.72</ele>
        <time>2021-08-31T18:46:40.435Z</time>
      </trkpt>
      <trkpt lat="48.79549" lon="-0.40637">
        <ele>154.72</ele>
        <time>2021-08-31T18:47:15.112Z</time>
      </trkpt>
      <trkpt lat="48.79546" lon="-0.40639">
        <ele>155.21</ele>
        <time>2021-08-31T18:47:49.789Z</time>
      </trkpt>
      <trkpt lat="48.79546" lon="-0.40639">
        <ele>155.21</ele>
        <time>2021-08-31T18:48:24.466Z</time>
      </trkpt>
      <trkpt lat="48.79537" lon="-0.40623">
        <ele>155.42</ele>
        <time>2021-08-31T18:48:59.145Z</time>
      </trkpt>
      <trkpt lat="48.79537" lon="-0.40623">
        <ele>155.42</ele>
        <time>2021-08-31T18:49:33.824Z</time>
      </trkpt>
      <trkpt lat="48.79533" lon="-0.40626">
        <ele>155.42</ele>
        <time>2021-08-31T18:50:08.504Z</time>
      </trkpt>
      <trkpt lat="48.79533" lon="-0.40626">
        <ele>155.42</ele>
        <time>2021-08-31T18:50:43.184Z</time>
      </trkpt>
      <trkpt lat="48.79525" lon="-0.40628">
        <ele>155.58</ele>
        <time>2021-08-31T18:51:17.865Z</time>
      </trkpt>
      <trkpt lat="48.79525" lon="-0.40628">
        <ele>155.58</ele>
        <time>2021-08-31T18:51:52.546Z</time>
      </trkpt>
      <trkpt lat="48.79444" lon="-0.4061">
        <ele>153.59</ele>
        <time>2021-08-31T18:52:27.240Z</time>
      </trkpt>
      <trkpt lat="48.79444" lon="-0.4061">
        <ele>153.59</ele>
        <time>2021-08-31T18:53:01.934Z</time>
      </trkpt>
      <trkpt lat="48.79413" lon="-0.40599">
        <ele>153.28</ele>
        <time>2021-08-31T18:53:36.633Z</time>
      </trkpt>
      <trkpt lat="48.79413" lon="-0.40599">
        <ele>153.28</ele>
        <time>2021-08-31T18:54:11.332Z</time>
      </trkpt>
      <trkpt lat="48.79362" lon="-0.40566">
        <ele>153.24</ele>
        <time>2021-08-31T18:54:46.040Z</time>
      </trkpt>
      <trkpt lat="48.79362" lon="-0.40566">
        <ele>153.24</ele>
        <time>2021-08-31T18:55:20.748Z</time>
      </trkpt>
      <trkpt lat="48.79347" lon="-0.40562">
        <ele>153.36</ele>
        <time>2021-08-31T18:55:55.459Z</time>
      </trkpt>
      <trkpt lat="48.79347" lon="-0.40562">
        <ele>153.36</ele>
        <time>2021-08-31T18:56:30.170Z</time>
      </trkpt>
      <trkpt lat="48.79221" lon="-0.40555">
        <ele>155.85</ele>
        <time>2021-08-31T18:57:04.901Z</time>
      </trkpt>
      <trkpt lat="48.79221" lon="-0.40555">
        <ele>155.85</ele>
        <time>2021-08-31T18:57:39.632Z</time>
      </trkpt>
      <trkpt lat="48.79025" lon="-0.40687">
        <ele>167.1</ele>
        <time>2021-08-31T18:58:14.397Z</time>
      </trkpt>
      <trkpt lat="48.79025" lon="-0.40687">
        <ele>167.1</ele>
        <time>2021-08-31T18:58:49.162Z</time>
      </trkpt>
      <trkpt lat="48.78946" lon="-0.40709">
        <ele>171.67</ele>
        <time>2021-08-31T18:59:23.940Z</time>
      </trkpt>
      <trkpt lat="48.78946" lon="-0.40709">
        <ele>171.67</ele>
        <time>2021-08-31T18:59:58.718Z</time>
      </trkpt>
      <trkpt lat="48.78906" lon="-0.40781">
        <ele>173.85</ele>
        <time>2021-08-31T19:00:33.506Z</time>
      </trkpt>
      <trkpt lat="48.78906" lon="-0.40781">
        <ele>173.85</ele>
        <time>2021-08-31T19:01:08.294Z</time>
      </trkpt>
      <trkpt lat="48.78886" lon="-0.40982">
        <ele>169.28</ele>
        <time>2021-08-31T19:01:43.104Z</time>
      </trkpt>
      <trkpt lat="48.78886" lon="-0.40982">
        <ele>169.28</ele>
        <time>2021-08-31T19:02:17.914Z</time>
      </trkpt>
      <trkpt lat="48.78851" lon="-0.41176">
        <ele>161.72</ele>
        <time>2021-08-31T19:02:52.745Z</time>
      </trkpt>
      <trkpt lat="48.78851" lon="-0.41176">
        <ele>161.72</ele>
        <time>2021-08-31T19:03:27.576Z</time>
      </trkpt>
      <trkpt lat="48.78838" lon="-0.41217">
        <ele>159.95</ele>
        <time>2021-08-31T19:04:02.412Z</time>
      </trkpt>
      <trkpt lat="48.78838" lon="-0.41217">
        <ele>159.95</ele>
        <time>2021-08-31T19:04:37.248Z</time>
      </trkpt>
      <trkpt lat="48.78815" lon="-0.41237">
        <ele>159.59</ele>
        <time>2021-08-31T19:05:12.088Z</time>
      </trkpt>
      <trkpt lat="48.78815" lon="-0.41237">
        <ele>159.59</ele>
        <time>2021-08-31T19:05:46.928Z</time>
      </trkpt>
      <trkpt lat="48.78696" lon="-0.41331">
        <ele>154.12</ele>
        <time>2021-08-31T19:06:21.790Z</time>
      </trkpt>
      <trkpt lat="48.78696" lon="-0.41331">
        <ele>154.12</ele>
        <time>2021-08-31T19:06:56.652Z</time>
      </trkpt>
      <trkpt lat="48.78617" lon="-0.41414">
        <ele>153.27</ele>
        <time>2021-08-31T19:07:31.529Z</time>
      </trkpt>
      <trkpt lat="48.78617" lon="-0.41414">
        <ele>153.27</ele>
        <time>2021-08-31T19:08:06.406Z</time>
      </trkpt>
      <trkpt lat="48.78554" lon="-0.41486">
        <ele>149.77</ele>
        <time>2021-08-31T19:08:41.296Z</time>
      </trkpt>
      <trkpt lat="48.78554" lon="-0.41486">
        <ele>149.77</ele>
        <time>2021-08-31T19:09:16.186Z</time>
      </trkpt>
      <trkpt lat="48.78503" lon="-0.41559">
        <ele>144.94</ele>
        <time>2021-08-31T19:09:51.087Z</time>
      </trkpt>
      <trkpt lat="48.78503" lon="-0.41559">
        <ele>144.94</ele>
        <time>2021-08-31T19:10:25.988Z</time>
      </trkpt>
      <trkpt lat="48.78491" lon="-0.41581">
        <ele>144.29</ele>
        <time>2021-08-31T19:11:00.892Z</time>
      </trkpt>
      <trkpt lat="48.78491" lon="-0.41581">
        <ele>144.29</ele>
        <time>2021-08-31T19:11:35.796Z</time>
      </trkpt>
      <trkpt lat="48.78479" lon="-0.41621">
        <ele>144.33</ele>
        <time>2021-08-31T19:12:10.704Z</time>
      </trkpt>
      <trkpt lat="48.78479" lon="-0.41621">
        <ele>144.33</ele>
        <time>2021-08-31T19:12:45.612Z</time>
      </trkpt>
      <trkpt lat="48.78473" lon="-0.4163">
        <ele>144.67</ele>
        <time>2021-08-31T19:13:20.522Z</time>
      </trkpt>
      <trkpt lat="48.78473" lon="-0.4163">
        <ele>144.67</ele>
        <time>2021-08-31T19:13:55.432Z</time>
      </trkpt>
      <trkpt lat="48.78462" lon="-0.41636">
        <ele>145.53</ele>
        <time>2021-08-31T19:14:30.344Z</time>
      </trkpt>
      <trkpt lat="48.78462" lon="-0.41636">
        <ele>145.53</ele>
        <time>2021-08-31T19:15:05.256Z</time>
      </trkpt>
      <trkpt lat="48.7845" lon="-0.41633">
        <ele>146.31</ele>
        <time>2021-08-31T19:15:40.170Z</time>
      </trkpt>
      <trkpt lat="48.7845" lon="-0.41633">
        <ele>146.31</ele>
        <time>2021-08-31T19:16:15.084Z</time>
      </trkpt>
      <trkpt lat="48.78437" lon="-0.41625">
        <ele>148.28</ele>
        <time>2021-08-31T19:16:50.000Z</time>
      </trkpt>
      <trkpt lat="48.78437" lon="-0.41625">
        <ele>148.28</ele>
        <time>2021-08-31T19:17:24.916Z</time>
      </trkpt>
      <trkpt lat="48.78423" lon="-0.41611">
        <ele>149.93</ele>
        <time>2021-08-31T19:17:59.835Z</time>
      </trkpt>
      <trkpt lat="48.78423" lon="-0.41611">
        <ele>149.93</ele>
        <time>2021-08-31T19:18:34.754Z</time>
      </trkpt>
      <trkpt lat="48.78411" lon="-0.41594">
        <ele>151.71</ele>
        <time>2021-08-31T19:19:09.675Z</time>
      </trkpt>
      <trkpt lat="48.78411" lon="-0.41594">
        <ele>151.71</ele>
        <time>2021-08-31T19:19:44.596Z</time>
      </trkpt>
      <trkpt lat="48.784" lon="-0.41591">
        <ele>152.36</ele>
        <time>2021-08-31T19:20:19.519Z</time>
      </trkpt>
      <trkpt lat="48.784" lon="-0.41591">
        <ele>152.36</ele>
        <time>2021-08-31T19:20:54.442Z</time>
      </trkpt>
      <trkpt lat="48.78366" lon="-0.41597">
        <ele>154.24</ele>
        <time>2021-08-31T19:21:29.370Z</time>
      </trkpt>
      <trkpt lat="48.78366" lon="-0.41597">
        <ele>154.24</ele>
        <time>2021-08-31T19:22:04.298Z</time>
      </trkpt>
      <trkpt lat="48.78351" lon="-0.41597">
        <ele>154.24</ele>
        <time>2021-08-31T19:22:39.229Z</time>
      </trkpt>
      <trkpt lat="48.78351" lon="-0.41597">
        <ele>154.24</ele>
        <time>2021-08-31T19:23:14.160Z</time>
      </trkpt>
      <trkpt lat="48.78337" lon="-0.41603">
        <ele>155.02</ele>
        <time>2021-08-31T19:23:49.093Z</time>
      </trkpt>
      <trkpt lat="48.78337" lon="-0.41603">
        <ele>155.02</ele>
        <time>2021-08-31T19:24:24.026Z</time>
      </trkpt>
      <trkpt lat="48.78325" lon="-0.4162">
        <ele>155.6</ele>
        <time>2021-08-31T19:24:58.962Z</time>
      </trkpt>
      <trkpt lat="48.78325" lon="-0.4162">
        <ele>155.6</ele>
        <time>2021-08-31T19:25:33.898Z</time>
      </trkpt>
      <trkpt lat="48.78313" lon="-0.41659">
        <ele>157.08</ele>
        <time>2021-08-31T19:26:08.838Z</time>
      </trkpt>
      <trkpt lat="48.78313" lon="-0.41659">
        <ele>157.08</ele>
        <time>2021-08-31T19:26:43.778Z</time>
      </trkpt>
      <trkpt lat="48.78311" lon="-0.41727">
        <ele>158.51</ele>
        <time>2021-08-31T19:27:18.726Z</time>
      </trkpt>
      <trkpt lat="48.78311" lon="-0.41727">
        <ele>158.51</ele>
        <time>2021-08-31T19:27:53.674Z</time>
      </trkpt>
      <trkpt lat="48.78321" lon="-0.41825">
        <ele>160.81</ele>
        <time>2021-08-31T19:28:28.632Z</time>
      </trkpt>
      <trkpt lat="48.78321" lon="-0.41825">
        <ele>160.81</ele>
        <time>2021-08-31T19:29:03.590Z</time>
      </trkpt>
      <trkpt lat="48.78318" lon="-0.41855">
        <ele>160.57</ele>
        <time>2021-08-31T19:29:38.551Z</time>
      </trkpt>
      <trkpt lat="48.78318" lon="-0.41855">
        <ele>160.57</ele>
        <time>2021-08-31T19:30:13.512Z</time>
      </trkpt>
      <trkpt lat="48.78292" lon="-0.41933">
        <ele>159.86</ele>
        <time>2021-08-31T19:30:48.483Z</time>
      </trkpt>
      <trkpt lat="48.78292" lon="-0.41933">
        <ele>159.86</ele>
        <time>2021-08-31T19:31:23.454Z</time>
      </trkpt>
      <trkpt lat="48.78254" lon="-0.42107">
        <ele>158.6</ele>
        <time>2021-08-31T19:31:58.444Z</time>
      </trkpt>
      <trkpt lat="48.78254" lon="-0.42107">
        <ele>158.6</ele>
        <time>2021-08-31T19:32:33.434Z</time>
      </trkpt>
      <trkpt lat="48.78244" lon="-0.42148">
        <ele>157.53</ele>
        <time>2021-08-31T19:33:08.429Z</time>
      </trkpt>
      <trkpt lat="48.78244" lon="-0.42148">
        <ele>157.53</ele>
        <time>2021-08-31T19:33:43.424Z</time>
      </trkpt>
      <trkpt lat="48.78245" lon="-0.42221">
        <ele>154.3</ele>
        <time>2021-08-31T19:34:18.426Z</time>
      </trkpt>
      <trkpt lat="48.78245" lon="-0.42221">
        <ele>154.3</ele>
        <time>2021-08-31T19:34:53.428Z</time>
      </trkpt>
      <trkpt lat="48.78243" lon="-0.42248">
        <ele>153.48</ele>
        <time>2021-08-31T19:35:28.433Z</time>
      </trkpt>
      <trkpt lat="48.78243" lon="-0.42248">
        <ele>153.48</ele>
        <time>2021-08-31T19:36:03.438Z</time>
      </trkpt>
      <trkpt lat="48.78219" lon="-0.42302">
        <ele>152.87</ele>
        <time>2021-08-31T19:36:38.450Z</time>
      </trkpt>
      <trkpt lat="48.78219" lon="-0.42302">
        <ele>152.87</ele>
        <time>2021-08-31T19:37:13.462Z</time>
      </trkpt>
      <trkpt lat="48.78185" lon="-0.42343">
        <ele>153.61</ele>
        <time>2021-08-31T19:37:48.481Z</time>
      </trkpt>
      <trkpt lat="48.78185" lon="-0.42343">
        <ele>153.61</ele>
        <time>2021-08-31T19:38:23.500Z</time>
      </trkpt>
      <trkpt lat="48.78161" lon="-0.42398">
        <ele>155.88</ele>
        <time>2021-08-31T19:38:58.526Z</time>
      </trkpt>
      <trkpt lat="48.78161" lon="-0.42398">
        <ele>155.88</ele>
        <time>2021-08-31T19:39:33.552Z</time>
      </trkpt>
      <trkpt lat="48.78146" lon="-0.4266">
        <ele>165.49</ele>
        <time>2021-08-31T19:40:08.606Z</time>
      </trkpt>
      <trkpt lat="48.78146" lon="-0.4266">
        <ele>165.49</ele>
        <time>2021-08-31T19:40:43.660Z</time>
      </trkpt>
      <trkpt lat="48.78153" lon="-0.42763">
        <ele>168.83</ele>
        <time>2021-08-31T19:41:18.725Z</time>
      </trkpt>
      <trkpt lat="48.78153" lon="-0.42763">
        <ele>168.83</ele>
        <time>2021-08-31T19:41:53.790Z</time>
      </trkpt>
      <trkpt lat="48.7815" lon="-0.42881">
        <ele>171.27</ele>
        <time>2021-08-31T19:42:28.867Z</time>
      </trkpt>
      <trkpt lat="48.7815" lon="-0.42881">
        <ele>171.27</ele>
        <time>2021-08-31T19:43:03.944Z</time>
      </trkpt>
      <trkpt lat="48.78113" lon="-0.43018">
        <ele>177.18</ele>
        <time>2021-08-31T19:43:39.037Z</time>
      </trkpt>
      <trkpt lat="48.78113" lon="-0.43018">
        <ele>177.18</ele>
        <time>2021-08-31T19:44:14.130Z</time>
      </trkpt>
      <trkpt lat="48.78085" lon="-0.4322">
        <ele>180.04</ele>
        <time>2021-08-31T19:44:49.245Z</time>
      </trkpt>
      <trkpt lat="48.78085" lon="-0.4322">
        <ele>180.04</ele>
        <time>2021-08-31T19:45:24.360Z</time>
      </trkpt>
      <trkpt lat="48.78083" lon="-0.43268">
        <ele>179.26</ele>
        <time>2021-08-31T19:45:59.480Z</time>
      </trkpt>
      <trkpt lat="48.78083" lon="-0.43268">
        <ele>179.26</ele>
        <time>2021-08-31T19:46:34.600Z</time>
      </trkpt>
      <trkpt lat="48.78099" lon="-0.43334">
        <ele>177.64</ele>
        <time>2021-08-31T19:47:09.727Z</time>
      </trkpt>
      <trkpt lat="48.78099" lon="-0.43334">
        <ele>177.64</ele>
        <time>2021-08-31T19:47:44.854Z</time>
      </trkpt>
      <trkpt lat="48.78067" lon="-0.43337">
        <ele>175.59</ele>
        <time>2021-08-31T19:48:19.986Z</time>
      </trkpt>
      <trkpt lat="48.78067" lon="-0.43337">
        <ele>175.59</ele>
        <time>2021-08-31T19:48:55.118Z</time>
      </trkpt>
      <trkpt lat="48.78025" lon="-0.43353">
        <ele>171.83</ele>
        <time>2021-08-31T19:49:30.257Z</time>
      </trkpt>
      <trkpt lat="48.78025" lon="-0.43353">
        <ele>171.83</ele>
        <time>2021-08-31T19:50:05.396Z</time>
      </trkpt>
      <trkpt lat="48.77986" lon="-0.43374">
        <ele>170.27</ele>
        <time>2021-08-31T19:50:40.542Z</time>
      </trkpt>
      <trkpt lat="48.77986" lon="-0.43374">
        <ele>170.27</ele>
        <time>2021-08-31T19:51:15.688Z</time>
      </trkpt>
      <trkpt lat="48.77931" lon="-0.43414">
        <ele>165.78</ele>
        <time>2021-08-31T19:51:50.844Z</time>
      </trkpt>
      <trkpt lat="48.77931" lon="-0.43414">
        <ele>165.78</ele>
        <time>2021-08-31T19:52:26.000Z</time>
      </trkpt>
      <trkpt lat="48.77884" lon="-0.43475">
        <ele>161.76</ele>
        <time>2021-08-31T19:53:01.166Z</time>
      </trkpt>
      <trkpt lat="48.77884" lon="-0.43475">
        <ele>161.76</ele>
        <time>2021-08-31T19:53:36.332Z</time>
      </trkpt>
      <trkpt lat="48.77869" lon="-0.43502">
        <ele>161.39</ele>
        <time>2021-08-31T19:54:11.501Z</time>
      </trkpt>
      <trkpt lat="48.77869" lon="-0.43502">
        <ele>161.39</ele>
        <time>2021-08-31T19:54:46.670Z</time>
      </trkpt>
      <trkpt lat="48.77851" lon="-0.43551">
        <ele>161.92</ele>
        <time>2021-08-31T19:55:21.845Z</time>
      </trkpt>
      <trkpt lat="48.77851" lon="-0.43551">
        <ele>161.92</ele>
        <time>2021-08-31T19:55:57.020Z</time>
      </trkpt>
      <trkpt lat="48.77842" lon="-0.4359">
        <ele>162.89</ele>
        <time>2021-08-31T19:56:32.200Z</time>
      </trkpt>
      <trkpt lat="48.77842" lon="-0.4359">
        <ele>162.89</ele>
        <time>2021-08-31T19:57:07.380Z</time>
      </trkpt>
      <trkpt lat="48.77842" lon="-0.43629">
        <ele>163.86</ele>
        <time>2021-08-31T19:57:42.564Z</time>
      </trkpt>
      <trkpt lat="48.77842" lon="-0.43629">
        <ele>163.86</ele>
        <time>2021-08-31T19:58:17.748Z</time>
      </trkpt>
      <trkpt lat="48.77848" lon="-0.43662">
        <ele>166.12</ele>
        <time>2021-08-31T19:58:52.935Z</time>
      </trkpt>
      <trkpt lat="48.77848" lon="-0.43662">
        <ele>166.12</ele>
        <time>2021-08-31T19:59:28.122Z</time>
      </trkpt>
      <trkpt lat="48.7787" lon="-0.43739">
        <ele>168.58</ele>
        <time>2021-08-31T20:00:03.318Z</time>
      </trkpt>
      <trkpt lat="48.7787" lon="-0.43739">
        <ele>168.58</ele>
        <time>2021-08-31T20:00:38.514Z</time>
      </trkpt>
      <trkpt lat="48.77884" lon="-0.43911">
        <ele>176.59</ele>
        <time>2021-08-31T20:01:13.729Z</time>
      </trkpt>
      <trkpt lat="48.77884" lon="-0.43911">
        <ele>176.59</ele>
        <time>2021-08-31T20:01:48.944Z</time>
      </trkpt>
      <trkpt lat="48.77884" lon="-0.43979">
        <ele>179.53</ele>
        <time>2021-08-31T20:02:24.166Z</time>
      </trkpt>
      <trkpt lat="48.77884" lon="-0.43979">
        <ele>179.53</ele>
        <time>2021-08-31T20:02:59.388Z</time>
      </trkpt>
      <trkpt lat="48.7788" lon="-0.44003">
        <ele>180.17</ele>
        <time>2021-08-31T20:03:34.613Z</time>
      </trkpt>
      <trkpt lat="48.7788" lon="-0.44003">
        <ele>180.17</ele>
        <time>2021-08-31T20:04:09.838Z</time>
      </trkpt>
      <trkpt lat="48.77867" lon="-0.44039">
        <ele>181.37</ele>
        <time>2021-08-31T20:04:45.067Z</time>
      </trkpt>
      <trkpt lat="48.77867" lon="-0.44039">
        <ele>181.37</ele>
        <time>2021-08-31T20:05:20.296Z</time>
      </trkpt>
      <trkpt lat="48.77841" lon="-0.44069">
        <ele>182.62</ele>
        <time>2021-08-31T20:05:55.530Z</time>
      </trkpt>
      <trkpt lat="48.77841" lon="-0.44069">
        <ele>182.62</ele>
        <time>2021-08-31T20:06:30.764Z</time>
      </trkpt>
      <trkpt lat="48.77784" lon="-0.44144">
        <ele>182.44</ele>
        <time>2021-08-31T20:07:06.010Z</time>
      </trkpt>
      <trkpt lat="48.77784" lon="-0.44144">
        <ele>182.44</ele>
        <time>2021-08-31T20:07:41.256Z</time>
      </trkpt>
      <trkpt lat="48.77783" lon="-0.44144">
        <ele>182.44</ele>
        <time>2021-08-31T20:08:16.502Z</time>
      </trkpt>
      <trkpt lat="48.77783" lon="-0.44144">
        <ele>182.44</ele>
        <time>2021-08-31T20:08:51.748Z</time>
      </trkpt>
      <trkpt lat="48.7777" lon="-0.44161">
        <ele>182.13</ele>
        <time>2021-08-31T20:09:26.997Z</time>
      </trkpt>
      <trkpt lat="48.7777" lon="-0.44161">
        <ele>182.13</ele>
        <time>2021-08-31T20:10:02.246Z</time>
      </trkpt>
      <trkpt lat="48.77748" lon="-0.44218">
        <ele>182.06</ele>
        <time>2021-08-31T20:10:37.502Z</time>
      </trkpt>
      <trkpt lat="48.77748" lon="-0.44218">
        <ele>182.06</ele>
        <time>2021-08-31T20:11:12.758Z</time>
      </trkpt>
      <trkpt lat="48.7774" lon="-0.44263">
        <ele>182.16</ele>
        <time>2021-08-31T20:11:48.019Z</time>
      </trkpt>
      <trkpt lat="48.7774" lon="-0.44263">
        <ele>182.16</ele>
        <time>2021-08-31T20:12:23.280Z</time>
      </trkpt>
      <trkpt lat="48.77739" lon="-0.44318">
        <ele>182.14</ele>
        <time>2021-08-31T20:12:58.547Z</time>
      </trkpt>
      <trkpt lat="48.77739" lon="-0.44318">
        <ele>182.14</ele>
        <time>2021-08-31T20:13:33.814Z</time>
      </trkpt>
      <trkpt lat="48.77744" lon="-0.44363">
        <ele>182.25</ele>
        <time>2021-08-31T20:14:09.086Z</time>
      </trkpt>
      <trkpt lat="48.77744" lon="-0.44363">
        <ele>182.25</ele>
        <time>2021-08-31T20:14:44.358Z</time>
      </trkpt>
      <trkpt lat="48.77776" lon="-0.44494">
        <ele>180.9</ele>
        <time>2021-08-31T20:15:19.644Z</time>
      </trkpt>
      <trkpt lat="48.77776" lon="-0.44494">
        <ele>180.9</ele>
        <time>2021-08-31T20:15:54.930Z</time>
      </trkpt>
      <trkpt lat="48.77777" lon="-0.44521">
        <ele>180.61</ele>
        <time>2021-08-31T20:16:30.219Z</time>
      </trkpt>
      <trkpt lat="48.77777" lon="-0.44521">
        <ele>180.61</ele>
        <time>2021-08-31T20:17:05.508Z</time>
      </trkpt>
      <trkpt lat="48.77773" lon="-0.44553">
        <ele>180.79</ele>
        <time>2021-08-31T20:17:40.801Z</time>
      </trkpt>
      <trkpt lat="48.77773" lon="-0.44553">
        <ele>180.79</ele>
        <time>2021-08-31T20:18:16.094Z</time>
      </trkpt>
      <trkpt lat="48.77783" lon="-0.44561">
        <ele>181.03</ele>
        <time>2021-08-31T20:18:51.389Z</time>
      </trkpt>
      <trkpt lat="48.77783" lon="-0.44561">
        <ele>181.03</ele>
        <time>2021-08-31T20:19:26.684Z</time>
      </trkpt>
      <trkpt lat="48.77795" lon="-0.44583">
        <ele>181.74</ele>
        <time>2021-08-31T20:20:01.982Z</time>
      </trkpt>
      <trkpt lat="48.77795" lon="-0.44583">
        <ele>181.74</ele>
        <time>2021-08-31T20:20:37.280Z</time>
      </trkpt>
      <trkpt lat="48.77803" lon="-0.44601">
        <ele>182.38</ele>
        <time>2021-08-31T20:21:12.580Z</time>
      </trkpt>
      <trkpt lat="48.77803" lon="-0.44601">
        <ele>182.38</ele>
        <time>2021-08-31T20:21:47.880Z</time>
      </trkpt>
      <trkpt lat="48.77843" lon="-0.44716">
        <ele>187.87</ele>
        <time>2021-08-31T20:22:23.194Z</time>
      </trkpt>
      <trkpt lat="48.77843" lon="-0.44716">
        <ele>187.87</ele>
        <time>2021-08-31T20:22:58.508Z</time>
      </trkpt>
      <trkpt lat="48.77866" lon="-0.44794">
        <ele>189.86</ele>
        <time>2021-08-31T20:23:33.831Z</time>
      </trkpt>
      <trkpt lat="48.77866" lon="-0.44794">
        <ele>189.86</ele>
        <time>2021-08-31T20:24:09.154Z</time>
      </trkpt>
      <trkpt lat="48.77923" lon="-0.4495">
        <ele>193.33</ele>
        <time>2021-08-31T20:24:44.496Z</time>
      </trkpt>
      <trkpt lat="48.77923" lon="-0.4495">
        <ele>193.33</ele>
        <time>2021-08-31T20:25:19.838Z</time>
      </trkpt>
      <trkpt lat="48.77971" lon="-0.45095">
        <ele>193.11</ele>
        <time>2021-08-31T20:25:55.197Z</time>
      </trkpt>
      <trkpt lat="48.77971" lon="-0.45095">
        <ele>193.11</ele>
        <time>2021-08-31T20:26:30.556Z</time>
      </trkpt>
      <trkpt lat="48.78073" lon="-0.45293">
        <ele>193.17</ele>
        <time>2021-08-31T20:27:05.941Z</time>
      </trkpt>
      <trkpt lat="48.78073" lon="-0.45293">
        <ele>193.17</ele>
        <time>2021-08-31T20:27:41.326Z</time>
      </trkpt>
      <trkpt lat="48.78147" lon="-0.45456">
        <ele>195.06</ele>
        <time>2021-08-31T20:28:16.732Z</time>
      </trkpt>
      <trkpt lat="48.78147" lon="-0.45456">
        <ele>195.06</ele>
        <time>2021-08-31T20:28:52.138Z</time>
      </trkpt>
      <trkpt lat="48.7822" lon="-0.45578">
        <ele>192.14</ele>
        <time>2021-08-31T20:29:27.562Z</time>
      </trkpt>
      <trkpt lat="48.7822" lon="-0.45578">
        <ele>192.14</ele>
        <time>2021-08-31T20:30:02.986Z</time>
      </trkpt>
      <trkpt lat="48.78366" lon="-0.45774">
        <ele>190.84</ele>
        <time>2021-08-31T20:30:38.441Z</time>
      </trkpt>
      <trkpt lat="48.78366" lon="-0.45774">
        <ele>190.84</ele>
        <time>2021-08-31T20:31:13.896Z</time>
      </trkpt>
      <trkpt lat="48.78527" lon="-0.45999">
        <ele>192.89</ele>
        <time>2021-08-31T20:31:49.386Z</time>
      </trkpt>
      <trkpt lat="48.78527" lon="-0.45999">
        <ele>192.89</ele>
        <time>2021-08-31T20:32:24.876Z</time>
      </trkpt>
      <trkpt lat="48.78721" lon="-0.46214">
        <ele>197.89</ele>
        <time>2021-08-31T20:33:00.404Z</time>
      </trkpt>
      <trkpt lat="48.78721" lon="-0.46214">
        <ele>197.89</ele>
        <time>2021-08-31T20:33:35.932Z</time>
      </trkpt>
      <trkpt lat="48.78608" lon="-0.46378">
        <ele>198.94</ele>
        <time>2021-08-31T20:34:11.486Z</time>
      </trkpt>
      <trkpt lat="48.78608" lon="-0.46378">
        <ele>198.94</ele>
        <time>2021-08-31T20:34:47.040Z</time>
      </trkpt>
      <trkpt lat="48.78502" lon="-0.468">
        <ele>202.18</ele>
        <time>2021-08-31T20:35:22.641Z</time>
      </trkpt>
      <trkpt lat="48.78502" lon="-0.468">
        <ele>202.18</ele>
        <time>2021-08-31T20:35:58.242Z</time>
      </trkpt>
      <trkpt lat="48.78493" lon="-0.46822">
        <ele>202.18</ele>
        <time>2021-08-31T20:36:33.846Z</time>
      </trkpt>
      <trkpt lat="48.78493" lon="-0.46822">
        <ele>202.18</ele>
        <time>2021-08-31T20:37:09.450Z</time>
      </trkpt>
      <trkpt lat="48.78478" lon="-0.46843">
        <ele>202.43</ele>
        <time>2021-08-31T20:37:45.057Z</time>
      </trkpt>
      <trkpt lat="48.78478" lon="-0.46843">
        <ele>202.43</ele>
        <time>2021-08-31T20:38:20.664Z</time>
      </trkpt>
      <trkpt lat="48.78402" lon="-0.46893">
        <ele>203.79</ele>
        <time>2021-08-31T20:38:56.285Z</time>
      </trkpt>
      <trkpt lat="48.78402" lon="-0.46893">
        <ele>203.79</ele>
        <time>2021-08-31T20:39:31.906Z</time>
      </trkpt>
      <trkpt lat="48.78332" lon="-0.46978">
        <ele>205.12</ele>
        <time>2021-08-31T20:40:07.541Z</time>
      </trkpt>
      <trkpt lat="48.78332" lon="-0.46978">
        <ele>205.12</ele>
        <time>2021-08-31T20:40:43.176Z</time>
      </trkpt>
      <trkpt lat="48.78282" lon="-0.47093">
        <ele>206.84</ele>
        <time>2021-08-31T20:41:18.826Z</time>
      </trkpt>
      <trkpt lat="48.78282" lon="-0.47093">
        <ele>206.84</ele>
        <time>2021-08-31T20:41:54.476Z</time>
      </trkpt>
      <trkpt lat="48.78258" lon="-0.47141">
        <ele>207.15</ele>
        <time>2021-08-31T20:42:30.132Z</time>
      </trkpt>
      <trkpt lat="48.78258" lon="-0.47141">
        <ele>207.15</ele>
        <time>2021-08-31T20:43:05.788Z</time>
      </trkpt>
      <trkpt lat="48.78233" lon="-0.47249">
        <ele>207.56</ele>
        <time>2021-08-31T20:43:41.456Z</time>
      </trkpt>
      <trkpt lat="48.78233" lon="-0.47249">
        <ele>207.56</ele>
        <time>2021-08-31T20:44:17.124Z</time>
      </trkpt>
      <trkpt lat="48.78203" lon="-0.47523">
        <ele>209.43</ele>
        <time>2021-08-31T20:44:52.821Z</time>
      </trkpt>
      <trkpt lat="48.78203" lon="-0.47523">
        <ele>209.43</ele>
        <time>2021-08-31T20:45:28.518Z</time>
      </trkpt>
      <trkpt lat="48.78201" lon="-0.47558">
        <ele>209.7</ele>
        <time>2021-08-31T20:46:04.219Z</time>
      </trkpt>
      <trkpt lat="48.78201" lon="-0.47558">
        <ele>209.7</ele>
        <time>2021-08-31T20:46:39.920Z</time>
      </trkpt>
      <trkpt lat="48.78194" lon="-0.47584">
        <ele>209.86</ele>
        <time>2021-08-31T20:47:15.624Z</time>
      </trkpt>
      <trkpt lat="48.78194" lon="-0.47584">
        <ele>209.86</ele>
        <time>2021-08-31T20:47:51.328Z</time>
      </trkpt>
      <trkpt lat="48.78181" lon="-0.47625">
        <ele>210.1</ele>
        <time>2021-08-31T20:48:27.037Z</time>
      </trkpt>
      <trkpt lat="48.78181" lon="-0.47625">
        <ele>210.1</ele>
        <time>2021-08-31T20:49:02.746Z</time>
      </trkpt>
      <trkpt lat="48.78168" lon="-0.47681">
        <ele>210.44</ele>
        <time>2021-08-31T20:49:38.461Z</time>
      </trkpt>
      <trkpt lat="48.78168" lon="-0.47681">
        <ele>210.44</ele>
        <time>2021-08-31T20:50:14.176Z</time>
      </trkpt>
      <trkpt lat="48.7816" lon="-0.47701">
        <ele>210.44</ele>
        <time>2021-08-31T20:50:49.894Z</time>
      </trkpt>
      <trkpt lat="48.7816" lon="-0.47701">
        <ele>210.44</ele>
        <time>2021-08-31T20:51:25.612Z</time>
      </trkpt>
      <trkpt lat="48.78123" lon="-0.47876">
        <ele>211.74</ele>
        <time>2021-08-31T20:52:01.349Z</time>
      </trkpt>
      <trkpt lat="48.78123" lon="-0.47876">
        <ele>211.74</ele>
        <time>2021-08-31T20:52:37.086Z</time>
      </trkpt>
      <trkpt lat="48.78084" lon="-0.4805">
        <ele>215.4</ele>
        <time>2021-08-31T20:53:12.843Z</time>
      </trkpt>
      <trkpt lat="48.78084" lon="-0.4805">
        <ele>215.4</ele>
        <time>2021-08-31T20:53:48.600Z</time>
      </trkpt>
      <trkpt lat="48.78063" lon="-0.48126">
        <ele>218.95</ele>
        <time>2021-08-31T20:54:24.365Z</time>
      </trkpt>
      <trkpt lat="48.78063" lon="-0.48126">
        <ele>218.95</ele>
        <time>2021-08-31T20:55:00.130Z</time>
      </trkpt>
      <trkpt lat="48.7804" lon="-0.48177">
        <ele>221.14</ele>
        <time>2021-08-31T20:55:35.902Z</time>
      </trkpt>
      <trkpt lat="48.7804" lon="-0.48177">
        <ele>221.14</ele>
        <time>2021-08-31T20:56:11.674Z</time>
      </trkpt>
      <trkpt lat="48.78007" lon="-0.48242">
        <ele>221.99</ele>
        <time>2021-08-31T20:56:47.454Z</time>
      </trkpt>
      <trkpt lat="48.78007" lon="-0.48242">
        <ele>221.99</ele>
        <time>2021-08-31T20:57:23.234Z</time>
      </trkpt>
      <trkpt lat="48.7795" lon="-0.4834">
        <ele>222.14</ele>
        <time>2021-08-31T20:57:59.028Z</time>
      </trkpt>
      <trkpt lat="48.7795" lon="-0.4834">
        <ele>222.14</ele>
        <time>2021-08-31T20:58:34.822Z</time>
      </trkpt>
      <trkpt lat="48.77936" lon="-0.48375">
        <ele>221.88</ele>
        <time>2021-08-31T20:59:10.621Z</time>
      </trkpt>
      <trkpt lat="48.77936" lon="-0.48375">
        <ele>221.88</ele>
        <time>2021-08-31T20:59:46.420Z</time>
      </trkpt>
      <trkpt lat="48.77911" lon="-0.48448">
        <ele>222.48</ele>
        <time>2021-08-31T21:00:22.227Z</time>
      </trkpt>
      <trkpt lat="48.77911" lon="-0.48448">
        <ele>222.48</ele>
        <time>2021-08-31T21:00:58.034Z</time>
      </trkpt>
      <trkpt lat="48.7774" lon="-0.48414">
        <ele>226.89</ele>
        <time>2021-08-31T21:01:33.869Z</time>
      </trkpt>
      <trkpt lat="48.7774" lon="-0.48414">
        <ele>226.89</ele>
        <time>2021-08-31T21:02:09.704Z</time>
      </trkpt>
      <trkpt lat="48.7771" lon="-0.48404">
        <ele>227.64</ele>
        <time>2021-08-31T21:02:45.544Z</time>
      </trkpt>
      <trkpt lat="48.7771" lon="-0.48404">
        <ele>227.64</ele>
        <time>2021-08-31T21:03:21.384Z</time>
      </trkpt>
      <trkpt lat="48.77698" lon="-0.48403">
        <ele>228.27</ele>
        <time>2021-08-31T21:03:57.226Z</time>
      </trkpt>
      <trkpt lat="48.77698" lon="-0.48403">
        <ele>228.27</ele>
        <time>2021-08-31T21:04:33.068Z</time>
      </trkpt>
      <trkpt lat="48.77666" lon="-0.4843">
        <ele>228.84</ele>
        <time>2021-08-31T21:05:08.916Z</time>
      </trkpt>
      <trkpt lat="48.77666" lon="-0.4843">
        <ele>228.84</ele>
        <time>2021-08-31T21:05:44.764Z</time>
      </trkpt>
      <trkpt lat="48.77547" lon="-0.48561">
        <ele>231.67</ele>
        <time>2021-08-31T21:06:20.635Z</time>
      </trkpt>
      <trkpt lat="48.77547" lon="-0.48561">
        <ele>231.67</ele>
        <time>2021-08-31T21:06:56.506Z</time>
      </trkpt>
      <trkpt lat="48.77521" lon="-0.48582">
        <ele>231.89</ele>
        <time>2021-08-31T21:07:32.382Z</time>
      </trkpt>
      <trkpt lat="48.77521" lon="-0.48582">
        <ele>231.89</ele>
        <time>2021-08-31T21:08:08.258Z</time>
      </trkpt>
      <trkpt lat="48.77482" lon="-0.48603">
        <ele>232.06</ele>
        <time>2021-08-31T21:08:44.141Z</time>
      </trkpt>
      <trkpt lat="48.77482" lon="-0.48603">
        <ele>232.06</ele>
        <time>2021-08-31T21:09:20.024Z</time>
      </trkpt>
      <trkpt lat="48.7732" lon="-0.48658">
        <ele>233.95</ele>
        <time>2021-08-31T21:09:55.933Z</time>
      </trkpt>
      <trkpt lat="48.7732" lon="-0.48658">
        <ele>233.95</ele>
        <time>2021-08-31T21:10:31.842Z</time>
      </trkpt>
      <trkpt lat="48.7722" lon="-0.48688">
        <ele>235.98</ele>
        <time>2021-08-31T21:11:07.767Z</time>
      </trkpt>
      <trkpt lat="48.7722" lon="-0.48688">
        <ele>235.98</ele>
        <time>2021-08-31T21:11:43.692Z</time>
      </trkpt>
      <trkpt lat="48.77119" lon="-0.48697">
        <ele>236.47</ele>
        <time>2021-08-31T21:12:19.634Z</time>
      </trkpt>
      <trkpt lat="48.77119" lon="-0.48697">
        <ele>236.47</ele>
        <time>2021-08-31T21:12:55.576Z</time>
      </trkpt>
      <trkpt lat="48.76963" lon="-0.48704">
        <ele>237.72</ele>
        <time>2021-08-31T21:13:31.543Z</time>
      </trkpt>
      <trkpt lat="48.76963" lon="-0.48704">
        <ele>237.72</ele>
        <time>2021-08-31T21:14:07.510Z</time>
      </trkpt>
      <trkpt lat="48.76904" lon="-0.48703">
        <ele>238.9</ele>
        <time>2021-08-31T21:14:43.486Z</time>
      </trkpt>
      <trkpt lat="48.76904" lon="-0.48703">
        <ele>238.9</ele>
        <time>2021-08-31T21:15:19.462Z</time>
      </trkpt>
      <trkpt lat="48.76857" lon="-0.48698">
        <ele>239.37</ele>
        <time>2021-08-31T21:15:55.446Z</time>
      </trkpt>
      <trkpt lat="48.76857" lon="-0.48698">
        <ele>239.37</ele>
        <time>2021-08-31T21:16:31.430Z</time>
      </trkpt>
      <trkpt lat="48.76782" lon="-0.48675">
        <ele>241.49</ele>
        <time>2021-08-31T21:17:07.426Z</time>
      </trkpt>
      <trkpt lat="48.76782" lon="-0.48675">
        <ele>241.49</ele>
        <time>2021-08-31T21:17:43.422Z</time>
      </trkpt>
      <trkpt lat="48.76751" lon="-0.48648">
        <ele>242.63</ele>
        <time>2021-08-31T21:18:19.424Z</time>
      </trkpt>
      <trkpt lat="48.76751" lon="-0.48648">
        <ele>242.63</ele>
        <time>2021-08-31T21:18:55.426Z</time>
      </trkpt>
      <trkpt lat="48.76696" lon="-0.48609">
        <ele>244.8</ele>
        <time>2021-08-31T21:19:31.437Z</time>
      </trkpt>
      <trkpt lat="48.76696" lon="-0.48609">
        <ele>244.8</ele>
        <time>2021-08-31T21:20:07.448Z</time>
      </trkpt>
      <trkpt lat="48.76628" lon="-0.48564">
        <ele>245.48</ele>
        <time>2021-08-31T21:20:43.471Z</time>
      </trkpt>
      <trkpt lat="48.76628" lon="-0.48564">
        <ele>245.48</ele>
        <time>2021-08-31T21:21:19.494Z</time>
      </trkpt>
      <trkpt lat="48.76551" lon="-0.4853">
        <ele>244.4</ele>
        <time>2021-08-31T21:21:55.530Z</time>
      </trkpt>
      <trkpt lat="48.76551" lon="-0.4853">
        <ele>244.4</ele>
        <time>2021-08-31T21:22:31.566Z</time>
      </trkpt>
      <trkpt lat="48.7647" lon="-0.4851">
        <ele>244.17</ele>
        <time>2021-08-31T21:23:07.615Z</time>
      </trkpt>
      <trkpt lat="48.7647" lon="-0.4851">
        <ele>244.17</ele>
        <time>2021-08-31T21:23:43.664Z</time>
      </trkpt>
      <trkpt lat="48.76415" lon="-0.48475">
        <ele>244.69</ele>
        <time>2021-08-31T21:24:19.723Z</time>
      </trkpt>
      <trkpt lat="48.76415" lon="-0.48475">
        <ele>244.69</ele>
        <time>2021-08-31T21:24:55.782Z</time>
      </trkpt>
      <trkpt lat="48.76376" lon="-0.48454">
        <ele>244.97</ele>
        <time>2021-08-31T21:25:31.847Z</time>
      </trkpt>
      <trkpt lat="48.76376" lon="-0.48454">
        <ele>244.97</ele>
        <time>2021-08-31T21:26:07.912Z</time>
      </trkpt>
      <trkpt lat="48.76348" lon="-0.4846">
        <ele>245.3</ele>
        <time>2021-08-31T21:26:43.982Z</time>
      </trkpt>
      <trkpt lat="48.76348" lon="-0.4846">
        <ele>245.3</ele>
        <time>2021-08-31T21:27:20.052Z</time>
      </trkpt>
      <trkpt lat="48.76249" lon="-0.48496">
        <ele>247.47</ele>
        <time>2021-08-31T21:27:56.138Z</time>
      </trkpt>
      <trkpt lat="48.76249" lon="-0.48496">
        <ele>247.47</ele>
        <time>2021-08-31T21:28:32.224Z</time>
      </trkpt>
      <trkpt lat="48.76189" lon="-0.48492">
        <ele>248.17</ele>
        <time>2021-08-31T21:29:08.320Z</time>
      </trkpt>
      <trkpt lat="48.76189" lon="-0.48492">
        <ele>248.17</ele>
        <time>2021-08-31T21:29:44.416Z</time>
      </trkpt>
      <trkpt lat="48.76107" lon="-0.48514">
        <ele>249.16</ele>
        <time>2021-08-31T21:30:20.525Z</time>
      </trkpt>
      <trkpt lat="48.76107" lon="-0.48514">
        <ele>249.16</ele>
        <time>2021-08-31T21:30:56.634Z</time>
      </trkpt>
      <trkpt lat="48.76012" lon="-0.48524">
        <ele>249.87</ele>
        <time>2021-08-31T21:31:32.758Z</time>
      </trkpt>
      <trkpt lat="48.76012" lon="-0.48524">
        <ele>249.87</ele>
        <time>2021-08-31T21:32:08.882Z</time>
      </trkpt>
      <trkpt lat="48.75989" lon="-0.48535">
        <ele>250.41</ele>
        <time>2021-08-31T21:32:45.010Z</time>
      </trkpt>
      <trkpt lat="48.75989" lon="-0.48535">
        <ele>250.41</ele>
        <time>2021-08-31T21:33:21.138Z</time>
      </trkpt>
      <trkpt lat="48.75957" lon="-0.48559">
        <ele>250.67</ele>
        <time>2021-08-31T21:33:57.272Z</time>
      </trkpt>
      <trkpt lat="48.75957" lon="-0.48559">
        <ele>250.67</ele>
        <time>2021-08-31T21:34:33.406Z</time>
      </trkpt>
      <trkpt lat="48.7589" lon="-0.48619">
        <ele>250.09</ele>
        <time>2021-08-31T21:35:09.553Z</time>
      </trkpt>
      <trkpt lat="48.7589" lon="-0.48619">
        <ele>250.09</ele>
        <time>2021-08-31T21:35:45.700Z</time>
      </trkpt>
      <trkpt lat="48.75789" lon="-0.48687">
        <ele>247.51</ele>
        <time>2021-08-31T21:36:21.864Z</time>
      </trkpt>
      <trkpt lat="48.75789" lon="-0.48687">
        <ele>247.51</ele>
        <time>2021-08-31T21:36:58.028Z</time>
      </trkpt>
      <trkpt lat="48.75735" lon="-0.48731">
        <ele>246.51</ele>
        <time>2021-08-31T21:37:34.202Z</time>
      </trkpt>
      <trkpt lat="48.75735" lon="-0.48731">
        <ele>246.51</ele>
        <time>2021-08-31T21:38:10.376Z</time>
      </trkpt>
      <trkpt lat="48.75671" lon="-0.48792">
        <ele>246.84</ele>
        <time>2021-08-31T21:38:46.562Z</time>
      </trkpt>
      <trkpt lat="48.75671" lon="-0.48792">
        <ele>246.84</ele>
        <time>2021-08-31T21:39:22.748Z</time>
      </trkpt>
      <trkpt lat="48.75662" lon="-0.48793">
        <ele>246.84</ele>
        <time>2021-08-31T21:39:58.936Z</time>
      </trkpt>
      <trkpt lat="48.75662" lon="-0.48793">
        <ele>246.84</ele>
        <time>2021-08-31T21:40:35.124Z</time>
      </trkpt>
      <trkpt lat="48.75615" lon="-0.48781">
        <ele>247.48</ele>
        <time>2021-08-31T21:41:11.319Z</time>
      </trkpt>
      <trkpt lat="48.75615" lon="-0.48781">
        <ele>247.48</ele>
        <time>2021-08-31T21:41:47.514Z</time>
      </trkpt>
      <trkpt lat="48.7559" lon="-0.48782">
        <ele>247.74</ele>
        <time>2021-08-31T21:42:23.713Z</time>
      </trkpt>
      <trkpt lat="48.7559" lon="-0.48782">
        <ele>247.74</ele>
        <time>2021-08-31T21:42:59.912Z</time>
      </trkpt>
      <trkpt lat="48.75569" lon="-0.48797">
        <ele>247.97</ele>
        <time>2021-08-31T21:43:36.115Z</time>
      </trkpt>
      <trkpt lat="48.75569" lon="-0.48797">
        <ele>247.97</ele>
        <time>2021-08-31T21:44:12.318Z</time>
      </trkpt>
      <trkpt lat="48.75542" lon="-0.48835">
        <ele>248.76</ele>
        <time>2021-08-31T21:44:48.527Z</time>
      </trkpt>
      <trkpt lat="48.75542" lon="-0.48835">
        <ele>248.76</ele>
        <time>2021-08-31T21:45:24.736Z</time>
      </trkpt>
      <trkpt lat="48.75495" lon="-0.4893">
        <ele>249.02</ele>
        <time>2021-08-31T21:46:00.957Z</time>
      </trkpt>
      <trkpt lat="48.75495" lon="-0.4893">
        <ele>249.02</ele>
        <time>2021-08-31T21:46:37.178Z</time>
      </trkpt>
      <trkpt lat="48.75467" lon="-0.4898">
        <ele>248.82</ele>
        <time>2021-08-31T21:47:13.406Z</time>
      </trkpt>
      <trkpt lat="48.75467" lon="-0.4898">
        <ele>248.82</ele>
        <time>2021-08-31T21:47:49.634Z</time>
      </trkpt>
      <trkpt lat="48.75429" lon="-0.49035">
        <ele>247.75</ele>
        <time>2021-08-31T21:48:25.871Z</time>
      </trkpt>
      <trkpt lat="48.75429" lon="-0.49035">
        <ele>247.75</ele>
        <time>2021-08-31T21:49:02.108Z</time>
      </trkpt>
      <trkpt lat="48.75292" lon="-0.49216">
        <ele>246.2</ele>
        <time>2021-08-31T21:49:38.374Z</time>
      </trkpt>
      <trkpt lat="48.75292" lon="-0.49216">
        <ele>246.2</ele>
        <time>2021-08-31T21:50:14.640Z</time>
      </trkpt>
      <trkpt lat="48.75238" lon="-0.49247">
        <ele>246.56</ele>
        <time>2021-08-31T21:50:50.915Z</time>
      </trkpt>
      <trkpt lat="48.75238" lon="-0.49247">
        <ele>246.56</ele>
        <time>2021-08-31T21:51:27.190Z</time>
      </trkpt>
      <trkpt lat="48.752" lon="-0.49275">
        <ele>247.75</ele>
        <time>2021-08-31T21:52:03.472Z</time>
      </trkpt>
      <trkpt lat="48.752" lon="-0.49275">
        <ele>247.75</ele>
        <time>2021-08-31T21:52:39.754Z</time>
      </trkpt>
      <trkpt lat="48.75166" lon="-0.49307">
        <ele>248.49</ele>
        <time>2021-08-31T21:53:16.042Z</time>
      </trkpt>
      <trkpt lat="48.75166" lon="-0.49307">
        <ele>248.49</ele>
        <time>2021-08-31T21:53:52.330Z</time>
      </trkpt>
      <trkpt lat="48.75104" lon="-0.49348">
        <ele>249.15</ele>
        <time>2021-08-31T21:54:28.629Z</time>
      </trkpt>
      <trkpt lat="48.75104" lon="-0.49348">
        <ele>249.15</ele>
        <time>2021-08-31T21:55:04.928Z</time>
      </trkpt>
      <trkpt lat="48.75096" lon="-0.49358">
        <ele>249.15</ele>
        <time>2021-08-31T21:55:41.229Z</time>
      </trkpt>
      <trkpt lat="48.75096" lon="-0.49358">
        <ele>249.15</ele>
        <time>2021-08-31T21:56:17.530Z</time>
      </trkpt>
      <trkpt lat="48.75087" lon="-0.49374">
        <ele>250.08</ele>
        <time>2021-08-31T21:56:53.833Z</time>
      </trkpt>
      <trkpt lat="48.75087" lon="-0.49374">
        <ele>250.08</ele>
        <time>2021-08-31T21:57:30.136Z</time>
      </trkpt>
      <trkpt lat="48.7507" lon="-0.49418">
        <ele>250.62</ele>
        <time>2021-08-31T21:58:06.444Z</time>
      </trkpt>
      <trkpt lat="48.7507" lon="-0.49418">
        <ele>250.62</ele>
        <time>2021-08-31T21:58:42.752Z</time>
      </trkpt>
      <trkpt lat="48.75033" lon="-0.49536">
        <ele>254.02</ele>
        <time>2021-08-31T21:59:19.074Z</time>
      </trkpt>
      <trkpt lat="48.75033" lon="-0.49536">
        <ele>254.02</ele>
        <time>2021-08-31T21:59:55.396Z</time>
      </trkpt>
      <trkpt lat="48.75029" lon="-0.49585">
        <ele>257.38</ele>
        <time>2021-08-31T22:00:31.724Z</time>
      </trkpt>
      <trkpt lat="48.75029" lon="-0.49585">
        <ele>257.38</ele>
        <time>2021-08-31T22:01:08.052Z</time>
      </trkpt>
      <trkpt lat="48.75028" lon="-0.49695">
        <ele>263.39</ele>
        <time>2021-08-31T22:01:44.391Z</time>
      </trkpt>
      <trkpt lat="48.75028" lon="-0.49695">
        <ele>263.39</ele>
        <time>2021-08-31T22:02:20.730Z</time>
      </trkpt>
      <trkpt lat="48.75023" lon="-0.49746">
        <ele>264.02</ele>
        <time>2021-08-31T22:02:57.075Z</time>
      </trkpt>
      <trkpt lat="48.75023" lon="-0.49746">
        <ele>264.02</ele>
        <time>2021-08-31T22:03:33.420Z</time>
      </trkpt>
      <trkpt lat="48.75016" lon="-0.49774">
        <ele>264.26</ele>
        <time>2021-08-31T22:04:09.768Z</time>
      </trkpt>
      <trkpt lat="48.75016" lon="-0.49774">
        <ele>264.26</ele>
        <time>2021-08-31T22:04:46.116Z</time>
      </trkpt>
      <trkpt lat="48.75001" lon="-0.49802">
        <ele>264.36</ele>
        <time>2021-08-31T22:05:22.468Z</time>
      </trkpt>
      <trkpt lat="48.75001" lon="-0.49802">
        <ele>264.36</ele>
        <time>2021-08-31T22:05:58.820Z</time>
      </trkpt>
      <trkpt lat="48.74955" lon="-0.49862">
        <ele>262.8</ele>
        <time>2021-08-31T22:06:35.181Z</time>
      </trkpt>
      <trkpt lat="48.74955" lon="-0.49862">
        <ele>262.8</ele>
        <time>2021-08-31T22:07:11.542Z</time>
      </trkpt>
      <trkpt lat="48.74934" lon="-0.49897">
        <ele>260.43</ele>
        <time>2021-08-31T22:07:47.908Z</time>
      </trkpt>
      <trkpt lat="48.74934" lon="-0.49897">
        <ele>260.43</ele>
        <time>2021-08-31T22:08:24.274Z</time>
      </trkpt>
      <trkpt lat="48.74917" lon="-0.49957">
        <ele>258.62</ele>
        <time>2021-08-31T22:09:00.647Z</time>
      </trkpt>
      <trkpt lat="48.74917" lon="-0.49957">
        <ele>258.62</ele>
        <time>2021-08-31T22:09:37.020Z</time>
      </trkpt>
      <trkpt lat="48.74907" lon="-0.50005">
        <ele>255.34</ele>
        <time>2021-08-31T22:10:13.399Z</time>
      </trkpt>
      <trkpt lat="48.74907" lon="-0.50005">
        <ele>255.34</ele>
        <time>2021-08-31T22:10:49.778Z</time>
      </trkpt>
      <trkpt lat="48.74895" lon="-0.50044">
        <ele>254.29</ele>
        <time>2021-08-31T22:11:26.161Z</time>
      </trkpt>
      <trkpt lat="48.74895" lon="-0.50044">
        <ele>254.29</ele>
        <time>2021-08-31T22:12:02.544Z</time>
      </trkpt>
      <trkpt lat="48.74827" lon="-0.50163">
        <ele>247.7</ele>
        <time>2021-08-31T22:12:38.944Z</time>
      </trkpt>
      <trkpt lat="48.74827" lon="-0.50163">
        <ele>247.7</ele>
        <time>2021-08-31T22:13:15.344Z</time>
      </trkpt>
      <trkpt lat="48.74642" lon="-0.50509">
        <ele>246.01</ele>
        <time>2021-08-31T22:13:51.791Z</time>
      </trkpt>
      <trkpt lat="48.74642" lon="-0.50509">
        <ele>246.01</ele>
        <time>2021-08-31T22:14:28.238Z</time>
      </trkpt>
      <trkpt lat="48.74587" lon="-0.50583">
        <ele>244.54</ele>
        <time>2021-08-31T22:15:04.697Z</time>
      </trkpt>
      <trkpt lat="48.74587" lon="-0.50583">
        <ele>244.54</ele>
        <time>2021-08-31T22:15:41.156Z</time>
      </trkpt>
      <trkpt lat="48.74531" lon="-0.50668">
        <ele>243.22</ele>
        <time>2021-08-31T22:16:17.627Z</time>
      </trkpt>
      <trkpt lat="48.74531" lon="-0.50668">
        <ele>243.22</ele>
        <time>2021-08-31T22:16:54.098Z</time>
      </trkpt>
      <trkpt lat="48.74294" lon="-0.51044">
        <ele>235.94</ele>
        <time>2021-08-31T22:17:30.624Z</time>
      </trkpt>
      <trkpt lat="48.74294" lon="-0.51044">
        <ele>235.94</ele>
        <time>2021-08-31T22:18:07.150Z</time>
      </trkpt>
      <trkpt lat="48.74245" lon="-0.51171">
        <ele>235.12</ele>
        <time>2021-08-31T22:18:43.692Z</time>
      </trkpt>
      <trkpt lat="48.74245" lon="-0.51171">
        <ele>235.12</ele>
        <time>2021-08-31T22:19:20.234Z</time>
      </trkpt>
      <trkpt lat="48.74155" lon="-0.51312">
        <ele>233.01</ele>
        <time>2021-08-31T22:19:56.797Z</time>
      </trkpt>
      <trkpt lat="48.74155" lon="-0.51312">
        <ele>233.01</ele>
        <time>2021-08-31T22:20:33.360Z</time>
      </trkpt>
      <trkpt lat="48.74078" lon="-0.51439">
        <ele>231.49</ele>
        <time>2021-08-31T22:21:09.941Z</time>
      </trkpt>
      <trkpt lat="48.74078" lon="-0.51439">
        <ele>231.49</ele>
        <time>2021-08-31T22:21:46.522Z</time>
      </trkpt>
      <trkpt lat="48.73816" lon="-0.5191">
        <ele>227.62</ele>
        <time>2021-08-31T22:22:23.168Z</time>
      </trkpt>
      <trkpt lat="48.73816" lon="-0.5191">
        <ele>227.62</ele>
        <time>2021-08-31T22:22:59.814Z</time>
      </trkpt>
      <trkpt lat="48.73701" lon="-0.52137">
        <ele>227.14</ele>
        <time>2021-08-31T22:23:36.490Z</time>
      </trkpt>
      <trkpt lat="48.73701" lon="-0.52137">
        <ele>227.14</ele>
        <time>2021-08-31T22:24:13.166Z</time>
      </trkpt>
      <trkpt lat="48.7365" lon="-0.52264">
        <ele>225.14</ele>
        <time>2021-08-31T22:24:49.858Z</time>
      </trkpt>
      <trkpt lat="48.7365" lon="-0.52264">
        <ele>225.14</ele>
        <time>2021-08-31T22:25:26.550Z</time>
      </trkpt>
      <trkpt lat="48.73565" lon="-0.52515">
        <ele>223.15</ele>
        <time>2021-08-31T22:26:03.272Z</time>
      </trkpt>
      <trkpt lat="48.73565" lon="-0.52515">
        <ele>223.15</ele>
        <time>2021-08-31T22:26:39.994Z</time>
      </trkpt>
      <trkpt lat="48.73547" lon="-0.52578">
        <ele>221.11</ele>
        <time>2021-08-31T22:27:16.723Z</time>
      </trkpt>
      <trkpt lat="48.73547" lon="-0.52578">
        <ele>221.11</ele>
        <time>2021-08-31T22:27:53.452Z</time>
      </trkpt>
      <trkpt lat="48.73524" lon="-0.52683">
        <ele>219.37</ele>
        <time>2021-08-31T22:28:30.193Z</time>
      </trkpt>
      <trkpt lat="48.73524" lon="-0.52683">
        <ele>219.37</ele>
        <time>2021-08-31T22:29:06.934Z</time>
      </trkpt>
      <trkpt lat="48.73513" lon="-0.52844">
        <ele>216</ele>
        <time>2021-08-31T22:29:43.692Z</time>
      </trkpt>
      <trkpt lat="48.73513" lon="-0.52844">
        <ele>216</ele>
        <time>2021-08-31T22:30:20.450Z</time>
      </trkpt>
      <trkpt lat="48.73502" lon="-0.52959">
        <ele>214.71</ele>
        <time>2021-08-31T22:30:57.221Z</time>
      </trkpt>
      <trkpt lat="48.73502" lon="-0.52959">
        <ele>214.71</ele>
        <time>2021-08-31T22:31:33.992Z</time>
      </trkpt>
      <trkpt lat="48.73506" lon="-0.53095">
        <ele>214.14</ele>
        <time>2021-08-31T22:32:10.777Z</time>
      </trkpt>
      <trkpt lat="48.73506" lon="-0.53095">
        <ele>214.14</ele>
        <time>2021-08-31T22:32:47.562Z</time>
      </trkpt>
      <trkpt lat="48.73505" lon="-0.53122">
        <ele>214.14</ele>
        <time>2021-08-31T22:33:24.350Z</time>
      </trkpt>
      <trkpt lat="48.73505" lon="-0.53122">
        <ele>214.14</ele>
        <time>2021-08-31T22:34:01.138Z</time>
      </trkpt>
      <trkpt lat="48.73464" lon="-0.53362">
        <ele>213.28</ele>
        <time>2021-08-31T22:34:37.952Z</time>
      </trkpt>
      <trkpt lat="48.73464" lon="-0.53362">
        <ele>213.28</ele>
        <time>2021-08-31T22:35:14.766Z</time>
      </trkpt>
      <trkpt lat="48.73437" lon="-0.53542">
        <ele>212.3</ele>
        <time>2021-08-31T22:35:51.600Z</time>
      </trkpt>
      <trkpt lat="48.73437" lon="-0.53542">
        <ele>212.3</ele>
        <time>2021-08-31T22:36:28.434Z</time>
      </trkpt>
      <trkpt lat="48.73416" lon="-0.53665">
        <ele>211.21</ele>
        <time>2021-08-31T22:37:05.281Z</time>
      </trkpt>
      <trkpt lat="48.73416" lon="-0.53665">
        <ele>211.21</ele>
        <time>2021-08-31T22:37:42.128Z</time>
      </trkpt>
      <trkpt lat="48.73389" lon="-0.53804">
        <ele>210.18</ele>
        <time>2021-08-31T22:38:18.990Z</time>
      </trkpt>
      <trkpt lat="48.73389" lon="-0.53804">
        <ele>210.18</ele>
        <time>2021-08-31T22:38:55.852Z</time>
      </trkpt>
      <trkpt lat="48.73364" lon="-0.53896">
        <ele>209.44</ele>
        <time>2021-08-31T22:39:32.725Z</time>
      </trkpt>
      <trkpt lat="48.73364" lon="-0.53896">
        <ele>209.44</ele>
        <time>2021-08-31T22:40:09.598Z</time>
      </trkpt>
      <trkpt lat="48.73343" lon="-0.53952">
        <ele>209.38</ele>
        <time>2021-08-31T22:40:46.478Z</time>
      </trkpt>
      <trkpt lat="48.73343" lon="-0.53952">
        <ele>209.38</ele>
        <time>2021-08-31T22:41:23.358Z</time>
      </trkpt>
      <trkpt lat="48.73317" lon="-0.54007">
        <ele>209.52</ele>
        <time>2021-08-31T22:42:00.245Z</time>
      </trkpt>
      <trkpt lat="48.73317" lon="-0.54007">
        <ele>209.52</ele>
        <time>2021-08-31T22:42:37.132Z</time>
      </trkpt>
      <trkpt lat="48.73278" lon="-0.54082">
        <ele>210</ele>
        <time>2021-08-31T22:43:14.029Z</time>
      </trkpt>
      <trkpt lat="48.73278" lon="-0.54082">
        <ele>210</ele>
        <time>2021-08-31T22:43:50.926Z</time>
      </trkpt>
      <trkpt lat="48.73255" lon="-0.54153">
        <ele>210.26</ele>
        <time>2021-08-31T22:44:27.831Z</time>
      </trkpt>
      <trkpt lat="48.73255" lon="-0.54153">
        <ele>210.26</ele>
        <time>2021-08-31T22:45:04.736Z</time>
      </trkpt>
      <trkpt lat="48.73218" lon="-0.54249">
        <ele>209.71</ele>
        <time>2021-08-31T22:45:41.653Z</time>
      </trkpt>
      <trkpt lat="48.73218" lon="-0.54249">
        <ele>209.71</ele>
        <time>2021-08-31T22:46:18.570Z</time>
      </trkpt>
      <trkpt lat="48.73131" lon="-0.54383">
        <ele>207.54</ele>
        <time>2021-08-31T22:46:55.507Z</time>
      </trkpt>
      <trkpt lat="48.73131" lon="-0.54383">
        <ele>207.54</ele>
        <time>2021-08-31T22:47:32.444Z</time>
      </trkpt>
      <trkpt lat="48.73109" lon="-0.54419">
        <ele>207.27</ele>
        <time>2021-08-31T22:48:09.386Z</time>
      </trkpt>
      <trkpt lat="48.73109" lon="-0.54419">
        <ele>207.27</ele>
        <time>2021-08-31T22:48:46.328Z</time>
      </trkpt>
      <trkpt lat="48.73096" lon="-0.54444">
        <ele>207.34</ele>
        <time>2021-08-31T22:49:23.274Z</time>
      </trkpt>
      <trkpt lat="48.73096" lon="-0.54444">
        <ele>207.34</ele>
        <time>2021-08-31T22:50:00.220Z</time>
      </trkpt>
      <trkpt lat="48.73075" lon="-0.54507">
        <ele>208.11</ele>
        <time>2021-08-31T22:50:37.173Z</time>
      </trkpt>
      <trkpt lat="48.73075" lon="-0.54507">
        <ele>208.11</ele>
        <time>2021-08-31T22:51:14.126Z</time>
      </trkpt>
      <trkpt lat="48.73071" lon="-0.5454">
        <ele>208.38</ele>
        <time>2021-08-31T22:51:51.083Z</time>
      </trkpt>
      <trkpt lat="48.73071" lon="-0.5454">
        <ele>208.38</ele>
        <time>2021-08-31T22:52:28.040Z</time>
      </trkpt>
      <trkpt lat="48.7307" lon="-0.54579">
        <ele>208.89</ele>
        <time>2021-08-31T22:53:05.001Z</time>
      </trkpt>
      <trkpt lat="48.7307" lon="-0.54579">
        <ele>208.89</ele>
        <time>2021-08-31T22:53:41.962Z</time>
      </trkpt>
      <trkpt lat="48.73072" lon="-0.5462">
        <ele>209.99</ele>
        <time>2021-08-31T22:54:18.927Z</time>
      </trkpt>
      <trkpt lat="48.73072" lon="-0.5462">
        <ele>209.99</ele>
        <time>2021-08-31T22:54:55.892Z</time>
      </trkpt>
      <trkpt lat="48.73076" lon="-0.54657">
        <ele>210.02</ele>
        <time>2021-08-31T22:55:32.861Z</time>
      </trkpt>
      <trkpt lat="48.73076" lon="-0.54657">
        <ele>210.02</ele>
        <time>2021-08-31T22:56:09.830Z</time>
      </trkpt>
      <trkpt lat="48.73091" lon="-0.54727">
        <ele>208.22</ele>
        <time>2021-08-31T22:56:46.807Z</time>
      </trkpt>
      <trkpt lat="48.73091" lon="-0.54727">
        <ele>208.22</ele>
        <time>2021-08-31T22:57:23.784Z</time>
      </trkpt>
      <trkpt lat="48.73091" lon="-0.54745">
        <ele>207.56</ele>
        <time>2021-08-31T22:58:00.763Z</time>
      </trkpt>
      <trkpt lat="48.73091" lon="-0.54745">
        <ele>207.56</ele>
        <time>2021-08-31T22:58:37.742Z</time>
      </trkpt>
      <trkpt lat="48.73088" lon="-0.54763">
        <ele>207.56</ele>
        <time>2021-08-31T22:59:14.723Z</time>
      </trkpt>
      <trkpt lat="48.73088" lon="-0.54763">
        <ele>207.56</ele>
        <time>2021-08-31T22:59:51.704Z</time>
      </trkpt>
      <trkpt lat="48.73072" lon="-0.54835">
        <ele>203.66</ele>
        <time>2021-08-31T23:00:28.693Z</time>
      </trkpt>
      <trkpt lat="48.73072" lon="-0.54835">
        <ele>203.66</ele>
        <time>2021-08-31T23:01:05.682Z</time>
      </trkpt>
      <trkpt lat="48.73061" lon="-0.54862">
        <ele>202.4</ele>
        <time>2021-08-31T23:01:42.674Z</time>
      </trkpt>
      <trkpt lat="48.73061" lon="-0.54862">
        <ele>202.4</ele>
        <time>2021-08-31T23:02:19.666Z</time>
      </trkpt>
      <trkpt lat="48.73045" lon="-0.54891">
        <ele>199.93</ele>
        <time>2021-08-31T23:02:56.662Z</time>
      </trkpt>
      <trkpt lat="48.73045" lon="-0.54891">
        <ele>199.93</ele>
        <time>2021-08-31T23:03:33.658Z</time>
      </trkpt>
      <trkpt lat="48.73026" lon="-0.54918">
        <ele>198.82</ele>
        <time>2021-08-31T23:04:10.658Z</time>
      </trkpt>
      <trkpt lat="48.73026" lon="-0.54918">
        <ele>198.82</ele>
        <time>2021-08-31T23:04:47.658Z</time>
      </trkpt>
      <trkpt lat="48.73006" lon="-0.54942">
        <ele>196.06</ele>
        <time>2021-08-31T23:05:24.662Z</time>
      </trkpt>
      <trkpt lat="48.73006" lon="-0.54942">
        <ele>196.06</ele>
        <time>2021-08-31T23:06:01.666Z</time>
      </trkpt>
      <trkpt lat="48.72944" lon="-0.55006">
        <ele>191.99</ele>
        <time>2021-08-31T23:06:38.682Z</time>
      </trkpt>
      <trkpt lat="48.72944" lon="-0.55006">
        <ele>191.99</ele>
        <time>2021-08-31T23:07:15.698Z</time>
      </trkpt>
      <trkpt lat="48.72928" lon="-0.5504">
        <ele>192.02</ele>
        <time>2021-08-31T23:07:52.719Z</time>
      </trkpt>
      <trkpt lat="48.72928" lon="-0.5504">
        <ele>192.02</ele>
        <time>2021-08-31T23:08:29.740Z</time>
      </trkpt>
      <trkpt lat="48.72916" lon="-0.55087">
        <ele>192.65</ele>
        <time>2021-08-31T23:09:06.766Z</time>
      </trkpt>
      <trkpt lat="48.72916" lon="-0.55087">
        <ele>192.65</ele>
        <time>2021-08-31T23:09:43.792Z</time>
      </trkpt>
      <trkpt lat="48.72909" lon="-0.55106">
        <ele>193</ele>
        <time>2021-08-31T23:10:20.821Z</time>
      </trkpt>
      <trkpt lat="48.72909" lon="-0.55106">
        <ele>193</ele>
        <time>2021-08-31T23:10:57.850Z</time>
      </trkpt>
      <trkpt lat="48.72898" lon="-0.55128">
        <ele>193.26</ele>
        <time>2021-08-31T23:11:34.881Z</time>
      </trkpt>
      <trkpt lat="48.72898" lon="-0.55128">
        <ele>193.26</ele>
        <time>2021-08-31T23:12:11.912Z</time>
      </trkpt>
      <trkpt lat="48.72889" lon="-0.5514">
        <ele>193.26</ele>
        <time>2021-08-31T23:12:48.945Z</time>
      </trkpt>
      <trkpt lat="48.72889" lon="-0.5514">
        <ele>193.26</ele>
        <time>2021-08-31T23:13:25.978Z</time>
      </trkpt>
      <trkpt lat="48.72867" lon="-0.55157">
        <ele>194.79</ele>
        <time>2021-08-31T23:14:03.015Z</time>
      </trkpt>
      <trkpt lat="48.72867" lon="-0.55157">
        <ele>194.79</ele>
        <time>2021-08-31T23:14:40.052Z</time>
      </trkpt>
      <trkpt lat="48.72816" lon="-0.55176">
        <ele>196.07</ele>
        <time>2021-08-31T23:15:17.098Z</time>
      </trkpt>
      <trkpt lat="48.72816" lon="-0.55176">
        <ele>196.07</ele>
        <time>2021-08-31T23:15:54.144Z</time>
      </trkpt>
      <trkpt lat="48.72763" lon="-0.5521">
        <ele>198.2</ele>
        <time>2021-08-31T23:16:31.199Z</time>
      </trkpt>
      <trkpt lat="48.72763" lon="-0.5521">
        <ele>198.2</ele>
        <time>2021-08-31T23:17:08.254Z</time>
      </trkpt>
      <trkpt lat="48.7267" lon="-0.55279">
        <ele>200.06</ele>
        <time>2021-08-31T23:17:45.326Z</time>
      </trkpt>
      <trkpt lat="48.7267" lon="-0.55279">
        <ele>200.06</ele>
        <time>2021-08-31T23:18:22.398Z</time>
      </trkpt>
      <trkpt lat="48.72658" lon="-0.55289">
        <ele>200.5</ele>
        <time>2021-08-31T23:18:59.472Z</time>
      </trkpt>
      <trkpt lat="48.72658" lon="-0.55289">
        <ele>200.5</ele>
        <time>2021-08-31T23:19:36.546Z</time>
      </trkpt>
      <trkpt lat="48.72647" lon="-0.55306">
        <ele>200.7</ele>
        <time>2021-08-31T23:20:13.622Z</time>
      </trkpt>
      <trkpt lat="48.72647" lon="-0.55306">
        <ele>200.7</ele>
        <time>2021-08-31T23:20:50.698Z</time>
      </trkpt>
      <trkpt lat="48.72622" lon="-0.55357">
        <ele>201.24</ele>
        <time>2021-08-31T23:21:27.781Z</time>
      </trkpt>
      <trkpt lat="48.72622" lon="-0.55357">
        <ele>201.24</ele>
        <time>2021-08-31T23:22:04.864Z</time>
      </trkpt>
      <trkpt lat="48.72602" lon="-0.55379">
        <ele>202.06</ele>
        <time>2021-08-31T23:22:41.951Z</time>
      </trkpt>
      <trkpt lat="48.72602" lon="-0.55379">
        <ele>202.06</ele>
        <time>2021-08-31T23:23:19.038Z</time>
      </trkpt>
      <trkpt lat="48.72583" lon="-0.55393">
        <ele>203.05</ele>
        <time>2021-08-31T23:23:56.128Z</time>
      </trkpt>
      <trkpt lat="48.72583" lon="-0.55393">
        <ele>203.05</ele>
        <time>2021-08-31T23:24:33.218Z</time>
      </trkpt>
      <trkpt lat="48.72562" lon="-0.55403">
        <ele>203.23</ele>
        <time>2021-08-31T23:25:10.312Z</time>
      </trkpt>
      <trkpt lat="48.72562" lon="-0.55403">
        <ele>203.23</ele>
        <time>2021-08-31T23:25:47.406Z</time>
      </trkpt>
      <trkpt lat="48.72542" lon="-0.55411">
        <ele>203.45</ele>
        <time>2021-08-31T23:26:24.503Z</time>
      </trkpt>
      <trkpt lat="48.72542" lon="-0.55411">
        <ele>203.45</ele>
        <time>2021-08-31T23:27:01.600Z</time>
      </trkpt>
      <trkpt lat="48.72499" lon="-0.55418">
        <ele>203.76</ele>
        <time>2021-08-31T23:27:38.704Z</time>
      </trkpt>
      <trkpt lat="48.72499" lon="-0.55418">
        <ele>203.76</ele>
        <time>2021-08-31T23:28:15.808Z</time>
      </trkpt>
      <trkpt lat="48.72489" lon="-0.55423">
        <ele>203.76</ele>
        <time>2021-08-31T23:28:52.914Z</time>
      </trkpt>
      <trkpt lat="48.72489" lon="-0.55423">
        <ele>203.76</ele>
        <time>2021-08-31T23:29:30.020Z</time>
      </trkpt>
      <trkpt lat="48.72486" lon="-0.55427">
        <ele>203.76</ele>
        <time>2021-08-31T23:30:07.126Z</time>
      </trkpt>
      <trkpt lat="48.72486" lon="-0.55427">
        <ele>203.76</ele>
        <time>2021-08-31T23:30:44.232Z</time>
      </trkpt>
      <trkpt lat="48.7248" lon="-0.55476">
        <ele>204.17</ele>
        <time>2021-08-31T23:31:21.344Z</time>
      </trkpt>
      <trkpt lat="48.7248" lon="-0.55476">
        <ele>204.17</ele>
        <time>2021-08-31T23:31:58.456Z</time>
      </trkpt>
      <trkpt lat="48.72473" lon="-0.55491">
        <ele>204.17</ele>
        <time>2021-08-31T23:32:35.570Z</time>
      </trkpt>
      <trkpt lat="48.72473" lon="-0.55491">
        <ele>204.17</ele>
        <time>2021-08-31T23:33:12.684Z</time>
      </trkpt>
      <trkpt lat="48.72468" lon="-0.55498">
        <ele>204.22</ele>
        <time>2021-08-31T23:33:49.799Z</time>
      </trkpt>
      <trkpt lat="48.72468" lon="-0.55498">
        <ele>204.22</ele>
        <time>2021-08-31T23:34:26.914Z</time>
      </trkpt>
      <trkpt lat="48.72455" lon="-0.55506">
        <ele>204.23</ele>
        <time>2021-08-31T23:35:04.031Z</time>
      </trkpt>
      <trkpt lat="48.72455" lon="-0.55506">
        <ele>204.23</ele>
        <time>2021-08-31T23:35:41.148Z</time>
      </trkpt>
      <trkpt lat="48.72383" lon="-0.55523">
        <ele>204.1</ele>
        <time>2021-08-31T23:36:18.277Z</time>
      </trkpt>
      <trkpt lat="48.72383" lon="-0.55523">
        <ele>204.1</ele>
        <time>2021-08-31T23:36:55.406Z</time>
      </trkpt>
      <trkpt lat="48.72359" lon="-0.55535">
        <ele>204.37</ele>
        <time>2021-08-31T23:37:32.539Z</time>
      </trkpt>
      <trkpt lat="48.72359" lon="-0.55535">
        <ele>204.37</ele>
        <time>2021-08-31T23:38:09.672Z</time>
      </trkpt>
      <trkpt lat="48.72339" lon="-0.55557">
        <ele>204.68</ele>
        <time>2021-08-31T23:38:46.809Z</time>
      </trkpt>
      <trkpt lat="48.72339" lon="-0.55557">
        <ele>204.68</ele>
        <time>2021-08-31T23:39:23.946Z</time>
      </trkpt>
      <trkpt lat="48.72279" lon="-0.55637">
        <ele>206.32</ele>
        <time>2021-08-31T23:40:01.095Z</time>
      </trkpt>
      <trkpt lat="48.72279" lon="-0.55637">
        <ele>206.32</ele>
        <time>2021-08-31T23:40:38.244Z</time>
      </trkpt>
      <trkpt lat="48.72268" lon="-0.55647">
        <ele>206.32</ele>
        <time>2021-08-31T23:41:15.396Z</time>
      </trkpt>
      <trkpt lat="48.72268" lon="-0.55647">
        <ele>206.32</ele>
        <time>2021-08-31T23:41:52.548Z</time>
      </trkpt>
      <trkpt lat="48.72221" lon="-0.55679">
        <ele>207.29</ele>
        <time>2021-08-31T23:42:29.708Z</time>
      </trkpt>
      <trkpt lat="48.72221" lon="-0.55679">
        <ele>207.29</ele>
        <time>2021-08-31T23:43:06.868Z</time>
      </trkpt>
      <trkpt lat="48.72037" lon="-0.55828">
        <ele>206.96</ele>
        <time>2021-08-31T23:43:44.061Z</time>
      </trkpt>
      <trkpt lat="48.72037" lon="-0.55828">
        <ele>206.96</ele>
        <time>2021-08-31T23:44:21.254Z</time>
      </trkpt>
      <trkpt lat="48.71905" lon="-0.55908">
        <ele>209.03</ele>
        <time>2021-08-31T23:44:58.470Z</time>
      </trkpt>
      <trkpt lat="48.71905" lon="-0.55908">
        <ele>209.03</ele>
        <time>2021-08-31T23:45:35.686Z</time>
      </trkpt>
      <trkpt lat="48.71884" lon="-0.5593">
        <ele>209.35</ele>
        <time>2021-08-31T23:46:12.906Z</time>
      </trkpt>
      <trkpt lat="48.71884" lon="-0.5593">
        <ele>209.35</ele>
        <time>2021-08-31T23:46:50.126Z</time>
      </trkpt>
      <trkpt lat="48.7179" lon="-0.56047">
        <ele>211.95</ele>
        <time>2021-08-31T23:47:27.366Z</time>
      </trkpt>
      <trkpt lat="48.7179" lon="-0.56047">
        <ele>211.95</ele>
        <time>2021-08-31T23:48:04.606Z</time>
      </trkpt>
      <trkpt lat="48.71728" lon="-0.56103">
        <ele>212.71</ele>
        <time>2021-08-31T23:48:41.857Z</time>
      </trkpt>
      <trkpt lat="48.71728" lon="-0.56103">
        <ele>212.71</ele>
        <time>2021-08-31T23:49:19.108Z</time>
      </trkpt>
      <trkpt lat="48.71696" lon="-0.5615">
        <ele>214.06</ele>
        <time>2021-08-31T23:49:56.366Z</time>
      </trkpt>
      <trkpt lat="48.71696" lon="-0.5615">
        <ele>214.06</ele>
        <time>2021-08-31T23:50:33.624Z</time>
      </trkpt>
      <trkpt lat="48.71678" lon="-0.56169">
        <ele>214.86</ele>
        <time>2021-08-31T23:51:10.886Z</time>
      </trkpt>
      <trkpt lat="48.71678" lon="-0.56169">
        <ele>214.86</ele>
        <time>2021-08-31T23:51:48.148Z</time>
      </trkpt>
      <trkpt lat="48.71513" lon="-0.56262">
        <ele>221.15</ele>
        <time>2021-08-31T23:52:25.438Z</time>
      </trkpt>
      <trkpt lat="48.71513" lon="-0.56262">
        <ele>221.15</ele>
        <time>2021-08-31T23:53:02.728Z</time>
      </trkpt>
      <trkpt lat="48.71453" lon="-0.56273">
        <ele>219.75</ele>
        <time>2021-08-31T23:53:40.028Z</time>
      </trkpt>
      <trkpt lat="48.71453" lon="-0.56273">
        <ele>219.75</ele>
        <time>2021-08-31T23:54:17.328Z</time>
      </trkpt>
      <trkpt lat="48.71324" lon="-0.56338">
        <ele>213.09</ele>
        <time>2021-08-31T23:54:54.649Z</time>
      </trkpt>
      <trkpt lat="48.71324" lon="-0.56338">
        <ele>213.09</ele>
        <time>2021-08-31T23:55:31.970Z</time>
      </trkpt>
      <trkpt lat="48.71266" lon="-0.56355">
        <ele>211.18</ele>
        <time>2021-08-31T23:56:09.301Z</time>
      </trkpt>
      <trkpt lat="48.71266" lon="-0.56355">
        <ele>211.18</ele>
        <time>2021-08-31T23:56:46.632Z</time>
      </trkpt>
      <trkpt lat="48.71218" lon="-0.56377">
        <ele>210.15</ele>
        <time>2021-08-31T23:57:23.971Z</time>
      </trkpt>
      <trkpt lat="48.71218" lon="-0.56377">
        <ele>210.15</ele>
        <time>2021-08-31T23:58:01.310Z</time>
      </trkpt>
      <trkpt lat="48.71183" lon="-0.56374">
        <ele>210.03</ele>
        <time>2021-08-31T23:58:38.655Z</time>
      </trkpt>
      <trkpt lat="48.71183" lon="-0.56374">
        <ele>210.03</ele>
        <time>2021-08-31T23:59:16.000Z</time>
      </trkpt>
      <trkpt lat="48.71163" lon="-0.56367">
        <ele>209.94</ele>
        <time>2021-08-31T23:59:53.348Z</time>
      </trkpt>
      <trkpt lat="48.71163" lon="-0.56367">
        <ele>209.94</ele>
        <time>2021-09-01T00:00:30.696Z</time>
      </trkpt>
      <trkpt lat="48.71115" lon="-0.56333">
        <ele>210.59</ele>
        <time>2021-09-01T00:01:08.052Z</time>
      </trkpt>
      <trkpt lat="48.71115" lon="-0.56333">
        <ele>210.59</ele>
        <time>2021-09-01T00:01:45.408Z</time>
      </trkpt>
      <trkpt lat="48.71106" lon="-0.56323">
        <ele>210.89</ele>
        <time>2021-09-01T00:02:22.766Z</time>
      </trkpt>
      <trkpt lat="48.71106" lon="-0.56323">
        <ele>210.89</ele>
        <time>2021-09-01T00:03:00.124Z</time>
      </trkpt>
      <trkpt lat="48.71074" lon="-0.56272">
        <ele>211.75</ele>
        <time>2021-09-01T00:03:37.490Z</time>
      </trkpt>
      <trkpt lat="48.71074" lon="-0.56272">
        <ele>211.75</ele>
        <time>2021-09-01T00:04:14.856Z</time>
      </trkpt>
      <trkpt lat="48.71056" lon="-0.5625">
        <ele>211.57</ele>
        <time>2021-09-01T00:04:52.225Z</time>
      </trkpt>
      <trkpt lat="48.71056" lon="-0.5625">
        <ele>211.57</ele>
        <time>2021-09-01T00:05:29.594Z</time>
      </trkpt>
      <trkpt lat="48.71033" lon="-0.56233">
        <ele>211.44</ele>
        <time>2021-09-01T00:06:06.967Z</time>
      </trkpt>
      <trkpt lat="48.71033" lon="-0.56233">
        <ele>211.44</ele>
        <time>2021-09-01T00:06:44.340Z</time>
      </trkpt>
      <trkpt lat="48.70994" lon="-0.56215">
        <ele>210.38</ele>
        <time>2021-09-01T00:07:21.720Z</time>
      </trkpt>
      <trkpt lat="48.70994" lon="-0.56215">
        <ele>210.38</ele>
        <time>2021-09-01T00:07:59.100Z</time>
      </trkpt>
      <trkpt lat="48.70918" lon="-0.56069">
        <ele>208.01</ele>
        <time>2021-09-01T00:08:36.500Z</time>
      </trkpt>
      <trkpt lat="48.70918" lon="-0.56069">
        <ele>208.01</ele>
        <time>2021-09-01T00:09:13.900Z</time>
      </trkpt>
      <trkpt lat="48.70891" lon="-0.56028">
        <ele>207.98</ele>
        <time>2021-09-01T00:09:51.306Z</time>
      </trkpt>
      <trkpt lat="48.70891" lon="-0.56028">
        <ele>207.98</ele>
        <time>2021-09-01T00:10:28.712Z</time>
      </trkpt>
      <trkpt lat="48.70867" lon="-0.56003">
        <ele>207.84</ele>
        <time>2021-09-01T00:11:06.122Z</time>
      </trkpt>
      <trkpt lat="48.70867" lon="-0.56003">
        <ele>207.84</ele>
        <time>2021-09-01T00:11:43.532Z</time>
      </trkpt>
      <trkpt lat="48.70833" lon="-0.55981">
        <ele>207.91</ele>
        <time>2021-09-01T00:12:20.948Z</time>
      </trkpt>
      <trkpt lat="48.70833" lon="-0.55981">
        <ele>207.91</ele>
        <time>2021-09-01T00:12:58.364Z</time>
      </trkpt>
      <trkpt lat="48.70804" lon="-0.55972">
        <ele>207.96</ele>
        <time>2021-09-01T00:13:35.785Z</time>
      </trkpt>
      <trkpt lat="48.70804" lon="-0.55972">
        <ele>207.96</ele>
        <time>2021-09-01T00:14:13.206Z</time>
      </trkpt>
      <trkpt lat="48.70687" lon="-0.55962">
        <ele>206.16</ele>
        <time>2021-09-01T00:14:50.646Z</time>
      </trkpt>
      <trkpt lat="48.70687" lon="-0.55962">
        <ele>206.16</ele>
        <time>2021-09-01T00:15:28.086Z</time>
      </trkpt>
      <trkpt lat="48.70635" lon="-0.55952">
        <ele>205.61</ele>
        <time>2021-09-01T00:16:05.534Z</time>
      </trkpt>
      <trkpt lat="48.70635" lon="-0.55952">
        <ele>205.61</ele>
        <time>2021-09-01T00:16:42.982Z</time>
      </trkpt>
      <trkpt lat="48.70555" lon="-0.55933">
        <ele>204.14</ele>
        <time>2021-09-01T00:17:20.443Z</time>
      </trkpt>
      <trkpt lat="48.70555" lon="-0.55933">
        <ele>204.14</ele>
        <time>2021-09-01T00:17:57.904Z</time>
      </trkpt>
      <trkpt lat="48.70384" lon="-0.55881">
        <ele>202.33</ele>
        <time>2021-09-01T00:18:35.393Z</time>
      </trkpt>
      <trkpt lat="48.70384" lon="-0.55881">
        <ele>202.33</ele>
        <time>2021-09-01T00:19:12.882Z</time>
      </trkpt>
      <trkpt lat="48.70351" lon="-0.55876">
        <ele>202.17</ele>
        <time>2021-09-01T00:19:50.376Z</time>
      </trkpt>
      <trkpt lat="48.70351" lon="-0.55876">
        <ele>202.17</ele>
        <time>2021-09-01T00:20:27.870Z</time>
      </trkpt>
      <trkpt lat="48.70309" lon="-0.55879">
        <ele>202.42</ele>
        <time>2021-09-01T00:21:05.371Z</time>
      </trkpt>
      <trkpt lat="48.70309" lon="-0.55879">
        <ele>202.42</ele>
        <time>2021-09-01T00:21:42.872Z</time>
      </trkpt>
      <trkpt lat="48.7009" lon="-0.55935">
        <ele>201.67</ele>
        <time>2021-09-01T00:22:20.409Z</time>
      </trkpt>
      <trkpt lat="48.7009" lon="-0.55935">
        <ele>201.67</ele>
        <time>2021-09-01T00:22:57.946Z</time>
      </trkpt>
      <trkpt lat="48.70054" lon="-0.55942">
        <ele>200.95</ele>
        <time>2021-09-01T00:23:35.489Z</time>
      </trkpt>
      <trkpt lat="48.70054" lon="-0.55942">
        <ele>200.95</ele>
        <time>2021-09-01T00:24:13.032Z</time>
      </trkpt>
      <trkpt lat="48.70049" lon="-0.55938">
        <ele>200.95</ele>
        <time>2021-09-01T00:24:50.575Z</time>
      </trkpt>
      <trkpt lat="48.70049" lon="-0.55938">
        <ele>200.95</ele>
        <time>2021-09-01T00:25:28.118Z</time>
      </trkpt>
      <trkpt lat="48.70043" lon="-0.55951">
        <ele>200.95</ele>
        <time>2021-09-01T00:26:05.663Z</time>
      </trkpt>
      <trkpt lat="48.70043" lon="-0.55951">
        <ele>200.95</ele>
        <time>2021-09-01T00:26:43.208Z</time>
      </trkpt>
      <trkpt lat="48.70029" lon="-0.55945">
        <ele>200.75</ele>
        <time>2021-09-01T00:27:20.755Z</time>
      </trkpt>
      <trkpt lat="48.70029" lon="-0.55945">
        <ele>200.75</ele>
        <time>2021-09-01T00:27:58.302Z</time>
      </trkpt>
      <trkpt lat="48.6957" lon="-0.55979">
        <ele>204.04</ele>
        <time>2021-09-01T00:28:35.923Z</time>
      </trkpt>
      <trkpt lat="48.6957" lon="-0.55979">
        <ele>204.04</ele>
        <time>2021-09-01T00:29:13.544Z</time>
      </trkpt>
      <trkpt lat="48.68893" lon="-0.56023">
        <ele>201.64</ele>
        <time>2021-09-01T00:29:51.274Z</time>
      </trkpt>
      <trkpt lat="48.68893" lon="-0.56023">
        <ele>201.64</ele>
        <time>2021-09-01T00:30:29.004Z</time>
      </trkpt>
      <trkpt lat="48.68858" lon="-0.56033">
        <ele>201.28</ele>
        <time>2021-09-01T00:31:06.739Z</time>
      </trkpt>
      <trkpt lat="48.68858" lon="-0.56033">
        <ele>201.28</ele>
        <time>2021-09-01T00:31:44.474Z</time>
      </trkpt>
      <trkpt lat="48.68815" lon="-0.56062">
        <ele>201.73</ele>
        <time>2021-09-01T00:32:22.217Z</time>
      </trkpt>
      <trkpt lat="48.68815" lon="-0.56062">
        <ele>201.73</ele>
        <time>2021-09-01T00:32:59.960Z</time>
      </trkpt>
      <trkpt lat="48.68803" lon="-0.56062">
        <ele>202.09</ele>
        <time>2021-09-01T00:33:37.705Z</time>
      </trkpt>
      <trkpt lat="48.68803" lon="-0.56062">
        <ele>202.09</ele>
        <time>2021-09-01T00:34:15.450Z</time>
      </trkpt>
      <trkpt lat="48.68794" lon="-0.56057">
        <ele>202.54</ele>
        <time>2021-09-01T00:34:53.196Z</time>
      </trkpt>
      <trkpt lat="48.68794" lon="-0.56057">
        <ele>202.54</ele>
        <time>2021-09-01T00:35:30.942Z</time>
      </trkpt>
      <trkpt lat="48.68786" lon="-0.56046">
        <ele>203.55</ele>
        <time>2021-09-01T00:36:08.690Z</time>
      </trkpt>
      <trkpt lat="48.68786" lon="-0.56046">
        <ele>203.55</ele>
        <time>2021-09-01T00:36:46.438Z</time>
      </trkpt>
      <trkpt lat="48.68773" lon="-0.5602">
        <ele>204.99</ele>
        <time>2021-09-01T00:37:24.189Z</time>
      </trkpt>
      <trkpt lat="48.68773" lon="-0.5602">
        <ele>204.99</ele>
        <time>2021-09-01T00:38:01.940Z</time>
      </trkpt>
      <trkpt lat="48.68757" lon="-0.55967">
        <ele>208.94</ele>
        <time>2021-09-01T00:38:39.698Z</time>
      </trkpt>
      <trkpt lat="48.68757" lon="-0.55967">
        <ele>208.94</ele>
        <time>2021-09-01T00:39:17.456Z</time>
      </trkpt>
      <trkpt lat="48.68741" lon="-0.55889">
        <ele>212.49</ele>
        <time>2021-09-01T00:39:55.222Z</time>
      </trkpt>
      <trkpt lat="48.68741" lon="-0.55889">
        <ele>212.49</ele>
        <time>2021-09-01T00:40:32.988Z</time>
      </trkpt>
      <trkpt lat="48.68728" lon="-0.5585">
        <ele>214.06</ele>
        <time>2021-09-01T00:41:10.759Z</time>
      </trkpt>
      <trkpt lat="48.68728" lon="-0.5585">
        <ele>214.06</ele>
        <time>2021-09-01T00:41:48.530Z</time>
      </trkpt>
      <trkpt lat="48.68593" lon="-0.55567">
        <ele>227.9</ele>
        <time>2021-09-01T00:42:26.338Z</time>
      </trkpt>
      <trkpt lat="48.68593" lon="-0.55567">
        <ele>227.9</ele>
        <time>2021-09-01T00:43:04.146Z</time>
      </trkpt>
      <trkpt lat="48.68563" lon="-0.5552">
        <ele>231.95</ele>
        <time>2021-09-01T00:43:41.961Z</time>
      </trkpt>
      <trkpt lat="48.68563" lon="-0.5552">
        <ele>231.95</ele>
        <time>2021-09-01T00:44:19.776Z</time>
      </trkpt>
      <trkpt lat="48.68507" lon="-0.55453">
        <ele>235.84</ele>
        <time>2021-09-01T00:44:57.602Z</time>
      </trkpt>
      <trkpt lat="48.68507" lon="-0.55453">
        <ele>235.84</ele>
        <time>2021-09-01T00:45:35.428Z</time>
      </trkpt>
      <trkpt lat="48.68458" lon="-0.55398">
        <ele>239.55</ele>
        <time>2021-09-01T00:46:13.264Z</time>
      </trkpt>
      <trkpt lat="48.68458" lon="-0.55398">
        <ele>239.55</ele>
        <time>2021-09-01T00:46:51.100Z</time>
      </trkpt>
      <trkpt lat="48.68355" lon="-0.55306">
        <ele>244.22</ele>
        <time>2021-09-01T00:47:28.955Z</time>
      </trkpt>
      <trkpt lat="48.68355" lon="-0.55306">
        <ele>244.22</ele>
        <time>2021-09-01T00:48:06.810Z</time>
      </trkpt>
      <trkpt lat="48.68331" lon="-0.55274">
        <ele>244.69</ele>
        <time>2021-09-01T00:48:44.670Z</time>
      </trkpt>
      <trkpt lat="48.68331" lon="-0.55274">
        <ele>244.69</ele>
        <time>2021-09-01T00:49:22.530Z</time>
      </trkpt>
      <trkpt lat="48.68289" lon="-0.55171">
        <ele>244.76</ele>
        <time>2021-09-01T00:50:00.403Z</time>
      </trkpt>
      <trkpt lat="48.68289" lon="-0.55171">
        <ele>244.76</ele>
        <time>2021-09-01T00:50:38.276Z</time>
      </trkpt>
      <trkpt lat="48.68268" lon="-0.5513">
        <ele>244.32</ele>
        <time>2021-09-01T00:51:16.155Z</time>
      </trkpt>
      <trkpt lat="48.68268" lon="-0.5513">
        <ele>244.32</ele>
        <time>2021-09-01T00:51:54.034Z</time>
      </trkpt>
      <trkpt lat="48.68232" lon="-0.55098">
        <ele>243.34</ele>
        <time>2021-09-01T00:52:31.919Z</time>
      </trkpt>
      <trkpt lat="48.68232" lon="-0.55098">
        <ele>243.34</ele>
        <time>2021-09-01T00:53:09.804Z</time>
      </trkpt>
      <trkpt lat="48.68198" lon="-0.55089">
        <ele>242.26</ele>
        <time>2021-09-01T00:53:47.695Z</time>
      </trkpt>
      <trkpt lat="48.68198" lon="-0.55089">
        <ele>242.26</ele>
        <time>2021-09-01T00:54:25.586Z</time>
      </trkpt>
      <trkpt lat="48.68168" lon="-0.55098">
        <ele>239.45</ele>
        <time>2021-09-01T00:55:03.482Z</time>
      </trkpt>
      <trkpt lat="48.68168" lon="-0.55098">
        <ele>239.45</ele>
        <time>2021-09-01T00:55:41.378Z</time>
      </trkpt>
      <trkpt lat="48.67538" lon="-0.55574">
        <ele>218.59</ele>
        <time>2021-09-01T00:56:19.387Z</time>
      </trkpt>
      <trkpt lat="48.67538" lon="-0.55574">
        <ele>218.59</ele>
        <time>2021-09-01T00:56:57.396Z</time>
      </trkpt>
      <trkpt lat="48.6752" lon="-0.55584">
        <ele>218.1</ele>
        <time>2021-09-01T00:57:35.408Z</time>
      </trkpt>
      <trkpt lat="48.6752" lon="-0.55584">
        <ele>218.1</ele>
        <time>2021-09-01T00:58:13.420Z</time>
      </trkpt>
      <trkpt lat="48.67502" lon="-0.55596">
        <ele>217.2</ele>
        <time>2021-09-01T00:58:51.435Z</time>
      </trkpt>
      <trkpt lat="48.67502" lon="-0.55596">
        <ele>217.2</ele>
        <time>2021-09-01T00:59:29.450Z</time>
      </trkpt>
      <trkpt lat="48.67474" lon="-0.55603">
        <ele>216.93</ele>
        <time>2021-09-01T01:00:07.469Z</time>
      </trkpt>
      <trkpt lat="48.67474" lon="-0.55603">
        <ele>216.93</ele>
        <time>2021-09-01T01:00:45.488Z</time>
      </trkpt>
      <trkpt lat="48.67389" lon="-0.55598">
        <ele>215.23</ele>
        <time>2021-09-01T01:01:23.521Z</time>
      </trkpt>
      <trkpt lat="48.67389" lon="-0.55598">
        <ele>215.23</ele>
        <time>2021-09-01T01:02:01.554Z</time>
      </trkpt>
      <trkpt lat="48.67334" lon="-0.55601">
        <ele>214.16</ele>
        <time>2021-09-01T01:02:39.596Z</time>
      </trkpt>
      <trkpt lat="48.67334" lon="-0.55601">
        <ele>214.16</ele>
        <time>2021-09-01T01:03:17.638Z</time>
      </trkpt>
      <trkpt lat="48.67307" lon="-0.55606">
        <ele>213.9</ele>
        <time>2021-09-01T01:03:55.684Z</time>
      </trkpt>
      <trkpt lat="48.67307" lon="-0.55606">
        <ele>213.9</ele>
        <time>2021-09-01T01:04:33.730Z</time>
      </trkpt>
      <trkpt lat="48.67278" lon="-0.55618">
        <ele>213.32</ele>
        <time>2021-09-01T01:05:11.781Z</time>
      </trkpt>
      <trkpt lat="48.67278" lon="-0.55618">
        <ele>213.32</ele>
        <time>2021-09-01T01:05:49.832Z</time>
      </trkpt>
      <trkpt lat="48.67256" lon="-0.55635">
        <ele>213.32</ele>
        <time>2021-09-01T01:06:27.887Z</time>
      </trkpt>
      <trkpt lat="48.67256" lon="-0.55635">
        <ele>213.32</ele>
        <time>2021-09-01T01:07:05.942Z</time>
      </trkpt>
      <trkpt lat="48.67247" lon="-0.55638">
        <ele>212.31</ele>
        <time>2021-09-01T01:07:43.998Z</time>
      </trkpt>
      <trkpt lat="48.67247" lon="-0.55638">
        <ele>212.31</ele>
        <time>2021-09-01T01:08:22.054Z</time>
      </trkpt>
      <trkpt lat="48.67229" lon="-0.5565">
        <ele>212.31</ele>
        <time>2021-09-01T01:09:00.114Z</time>
      </trkpt>
      <trkpt lat="48.67229" lon="-0.5565">
        <ele>212.31</ele>
        <time>2021-09-01T01:09:38.174Z</time>
      </trkpt>
      <trkpt lat="48.67159" lon="-0.55662">
        <ele>210.92</ele>
        <time>2021-09-01T01:10:16.245Z</time>
      </trkpt>
      <trkpt lat="48.67159" lon="-0.55662">
        <ele>210.92</ele>
        <time>2021-09-01T01:10:54.316Z</time>
      </trkpt>
      <trkpt lat="48.67125" lon="-0.55674">
        <ele>210.54</ele>
        <time>2021-09-01T01:11:32.392Z</time>
      </trkpt>
      <trkpt lat="48.67125" lon="-0.55674">
        <ele>210.54</ele>
        <time>2021-09-01T01:12:10.468Z</time>
      </trkpt>
      <trkpt lat="48.67049" lon="-0.55718">
        <ele>209.31</ele>
        <time>2021-09-01T01:12:48.557Z</time>
      </trkpt>
      <trkpt lat="48.67049" lon="-0.55718">
        <ele>209.31</ele>
        <time>2021-09-01T01:13:26.646Z</time>
      </trkpt>
      <trkpt lat="48.67017" lon="-0.55725">
        <ele>208.41</ele>
        <time>2021-09-01T01:14:04.741Z</time>
      </trkpt>
      <trkpt lat="48.67017" lon="-0.55725">
        <ele>208.41</ele>
        <time>2021-09-01T01:14:42.836Z</time>
      </trkpt>
      <trkpt lat="48.66985" lon="-0.55718">
        <ele>208.41</ele>
        <time>2021-09-01T01:15:20.936Z</time>
      </trkpt>
      <trkpt lat="48.66985" lon="-0.55718">
        <ele>208.41</ele>
        <time>2021-09-01T01:15:59.036Z</time>
      </trkpt>
      <trkpt lat="48.66892" lon="-0.55664">
        <ele>205.43</ele>
        <time>2021-09-01T01:16:37.152Z</time>
      </trkpt>
      <trkpt lat="48.66892" lon="-0.55664">
        <ele>205.43</ele>
        <time>2021-09-01T01:17:15.268Z</time>
      </trkpt>
      <trkpt lat="48.66846" lon="-0.5564">
        <ele>206.2</ele>
        <time>2021-09-01T01:17:53.392Z</time>
      </trkpt>
      <trkpt lat="48.66846" lon="-0.5564">
        <ele>206.2</ele>
        <time>2021-09-01T01:18:31.516Z</time>
      </trkpt>
      <trkpt lat="48.66831" lon="-0.5562">
        <ele>206.65</ele>
        <time>2021-09-01T01:19:09.643Z</time>
      </trkpt>
      <trkpt lat="48.66831" lon="-0.5562">
        <ele>206.65</ele>
        <time>2021-09-01T01:19:47.770Z</time>
      </trkpt>
      <trkpt lat="48.66821" lon="-0.55589">
        <ele>207.69</ele>
        <time>2021-09-01T01:20:25.900Z</time>
      </trkpt>
      <trkpt lat="48.66821" lon="-0.55589">
        <ele>207.69</ele>
        <time>2021-09-01T01:21:04.030Z</time>
      </trkpt>
      <trkpt lat="48.66813" lon="-0.55532">
        <ele>210.18</ele>
        <time>2021-09-01T01:21:42.167Z</time>
      </trkpt>
      <trkpt lat="48.66813" lon="-0.55532">
        <ele>210.18</ele>
        <time>2021-09-01T01:22:20.304Z</time>
      </trkpt>
      <trkpt lat="48.66805" lon="-0.55504">
        <ele>212.03</ele>
        <time>2021-09-01T01:22:58.444Z</time>
      </trkpt>
      <trkpt lat="48.66805" lon="-0.55504">
        <ele>212.03</ele>
        <time>2021-09-01T01:23:36.584Z</time>
      </trkpt>
      <trkpt lat="48.6679" lon="-0.55467">
        <ele>214.59</ele>
        <time>2021-09-01T01:24:14.728Z</time>
      </trkpt>
      <trkpt lat="48.6679" lon="-0.55467">
        <ele>214.59</ele>
        <time>2021-09-01T01:24:52.872Z</time>
      </trkpt>
      <trkpt lat="48.66768" lon="-0.5544">
        <ele>216.23</ele>
        <time>2021-09-01T01:25:31.021Z</time>
      </trkpt>
      <trkpt lat="48.66768" lon="-0.5544">
        <ele>216.23</ele>
        <time>2021-09-01T01:26:09.170Z</time>
      </trkpt>
      <trkpt lat="48.66707" lon="-0.55391">
        <ele>219.99</ele>
        <time>2021-09-01T01:26:47.330Z</time>
      </trkpt>
      <trkpt lat="48.66707" lon="-0.55391">
        <ele>219.99</ele>
        <time>2021-09-01T01:27:25.490Z</time>
      </trkpt>
      <trkpt lat="48.66677" lon="-0.55345">
        <ele>225.3</ele>
        <time>2021-09-01T01:28:03.657Z</time>
      </trkpt>
      <trkpt lat="48.66677" lon="-0.55345">
        <ele>225.3</ele>
        <time>2021-09-01T01:28:41.824Z</time>
      </trkpt>
      <trkpt lat="48.66641" lon="-0.55293">
        <ele>227.94</ele>
        <time>2021-09-01T01:29:19.999Z</time>
      </trkpt>
      <trkpt lat="48.66641" lon="-0.55293">
        <ele>227.94</ele>
        <time>2021-09-01T01:29:58.174Z</time>
      </trkpt>
      <trkpt lat="48.66531" lon="-0.55205">
        <ele>227.64</ele>
        <time>2021-09-01T01:30:36.369Z</time>
      </trkpt>
      <trkpt lat="48.66531" lon="-0.55205">
        <ele>227.64</ele>
        <time>2021-09-01T01:31:14.564Z</time>
      </trkpt>
      <trkpt lat="48.66512" lon="-0.55263">
        <ele>224.85</ele>
        <time>2021-09-01T01:31:52.766Z</time>
      </trkpt>
      <trkpt lat="48.66512" lon="-0.55263">
        <ele>224.85</ele>
        <time>2021-09-01T01:32:30.968Z</time>
      </trkpt>
      <trkpt lat="48.66504" lon="-0.55264">
        <ele>224.27</ele>
        <time>2021-09-01T01:33:09.171Z</time>
      </trkpt>
      <trkpt lat="48.66504" lon="-0.55264">
        <ele>224.27</ele>
        <time>2021-09-01T01:33:47.374Z</time>
      </trkpt>
      <trkpt lat="48.6646" lon="-0.55303">
        <ele>222.32</ele>
        <time>2021-09-01T01:34:25.585Z</time>
      </trkpt>
      <trkpt lat="48.6646" lon="-0.55303">
        <ele>222.32</ele>
        <time>2021-09-01T01:35:03.796Z</time>
      </trkpt>
      <trkpt lat="48.66413" lon="-0.55337">
        <ele>216.75</ele>
        <time>2021-09-01T01:35:42.015Z</time>
      </trkpt>
      <trkpt lat="48.66413" lon="-0.55337">
        <ele>216.75</ele>
        <time>2021-09-01T01:36:20.234Z</time>
      </trkpt>
      <trkpt lat="48.66308" lon="-0.55406">
        <ele>208.51</ele>
        <time>2021-09-01T01:36:58.472Z</time>
      </trkpt>
      <trkpt lat="48.66308" lon="-0.55406">
        <ele>208.51</ele>
        <time>2021-09-01T01:37:36.710Z</time>
      </trkpt>
      <trkpt lat="48.66288" lon="-0.55411">
        <ele>206.31</ele>
        <time>2021-09-01T01:38:14.951Z</time>
      </trkpt>
      <trkpt lat="48.66288" lon="-0.55411">
        <ele>206.31</ele>
        <time>2021-09-01T01:38:53.192Z</time>
      </trkpt>
      <trkpt lat="48.66268" lon="-0.55418">
        <ele>205.65</ele>
        <time>2021-09-01T01:39:31.436Z</time>
      </trkpt>
      <trkpt lat="48.66268" lon="-0.55418">
        <ele>205.65</ele>
        <time>2021-09-01T01:40:09.680Z</time>
      </trkpt>
      <trkpt lat="48.66177" lon="-0.55428">
        <ele>200.5</ele>
        <time>2021-09-01T01:40:47.939Z</time>
      </trkpt>
      <trkpt lat="48.66177" lon="-0.55428">
        <ele>200.5</ele>
        <time>2021-09-01T01:41:26.198Z</time>
      </trkpt>
      <trkpt lat="48.66157" lon="-0.55435">
        <ele>199.77</ele>
        <time>2021-09-01T01:42:04.460Z</time>
      </trkpt>
      <trkpt lat="48.66157" lon="-0.55435">
        <ele>199.77</ele>
        <time>2021-09-01T01:42:42.722Z</time>
      </trkpt>
      <trkpt lat="48.66122" lon="-0.5545">
        <ele>199.17</ele>
        <time>2021-09-01T01:43:20.990Z</time>
      </trkpt>
      <trkpt lat="48.66122" lon="-0.5545">
        <ele>199.17</ele>
        <time>2021-09-01T01:43:59.258Z</time>
      </trkpt>
      <trkpt lat="48.66044" lon="-0.55503">
        <ele>198.11</ele>
        <time>2021-09-01T01:44:37.540Z</time>
      </trkpt>
      <trkpt lat="48.66044" lon="-0.55503">
        <ele>198.11</ele>
        <time>2021-09-01T01:45:15.822Z</time>
      </trkpt>
      <trkpt lat="48.65977" lon="-0.55532">
        <ele>197.24</ele>
        <time>2021-09-01T01:45:54.115Z</time>
      </trkpt>
      <trkpt lat="48.65977" lon="-0.55532">
        <ele>197.24</ele>
        <time>2021-09-01T01:46:32.408Z</time>
      </trkpt>
      <trkpt lat="48.65872" lon="-0.55584">
        <ele>195.38</ele>
        <time>2021-09-01T01:47:10.719Z</time>
      </trkpt>
      <trkpt lat="48.65872" lon="-0.55584">
        <ele>195.38</ele>
        <time>2021-09-01T01:47:49.030Z</time>
      </trkpt>
      <trkpt lat="48.65767" lon="-0.55674">
        <ele>192.53</ele>
        <time>2021-09-01T01:48:27.360Z</time>
      </trkpt>
      <trkpt lat="48.65767" lon="-0.55674">
        <ele>192.53</ele>
        <time>2021-09-01T01:49:05.690Z</time>
      </trkpt>
      <trkpt lat="48.65702" lon="-0.55745">
        <ele>189.75</ele>
        <time>2021-09-01T01:49:44.033Z</time>
      </trkpt>
      <trkpt lat="48.65702" lon="-0.55745">
        <ele>189.75</ele>
        <time>2021-09-01T01:50:22.376Z</time>
      </trkpt>
      <trkpt lat="48.65447" lon="-0.56052">
        <ele>188.51</ele>
        <time>2021-09-01T01:51:00.771Z</time>
      </trkpt>
      <trkpt lat="48.65447" lon="-0.56052">
        <ele>188.51</ele>
        <time>2021-09-01T01:51:39.166Z</time>
      </trkpt>
      <trkpt lat="48.65433" lon="-0.56067">
        <ele>188.53</ele>
        <time>2021-09-01T01:52:17.564Z</time>
      </trkpt>
      <trkpt lat="48.65433" lon="-0.56067">
        <ele>188.53</ele>
        <time>2021-09-01T01:52:55.962Z</time>
      </trkpt>
      <trkpt lat="48.65423" lon="-0.56071">
        <ele>188.49</ele>
        <time>2021-09-01T01:53:34.361Z</time>
      </trkpt>
      <trkpt lat="48.65423" lon="-0.56071">
        <ele>188.49</ele>
        <time>2021-09-01T01:54:12.760Z</time>
      </trkpt>
      <trkpt lat="48.65405" lon="-0.56072">
        <ele>188.3</ele>
        <time>2021-09-01T01:54:51.162Z</time>
      </trkpt>
      <trkpt lat="48.65405" lon="-0.56072">
        <ele>188.3</ele>
        <time>2021-09-01T01:55:29.564Z</time>
      </trkpt>
      <trkpt lat="48.65389" lon="-0.56067">
        <ele>187.96</ele>
        <time>2021-09-01T01:56:07.969Z</time>
      </trkpt>
      <trkpt lat="48.65389" lon="-0.56067">
        <ele>187.96</ele>
        <time>2021-09-01T01:56:46.374Z</time>
      </trkpt>
      <trkpt lat="48.64979" lon="-0.5585">
        <ele>177.79</ele>
        <time>2021-09-01T01:57:24.849Z</time>
      </trkpt>
      <trkpt lat="48.64979" lon="-0.5585">
        <ele>177.79</ele>
        <time>2021-09-01T01:58:03.324Z</time>
      </trkpt>
      <trkpt lat="48.6492" lon="-0.55815">
        <ele>178.43</ele>
        <time>2021-09-01T01:58:41.809Z</time>
      </trkpt>
      <trkpt lat="48.6492" lon="-0.55815">
        <ele>178.43</ele>
        <time>2021-09-01T01:59:20.294Z</time>
      </trkpt>
      <trkpt lat="48.64877" lon="-0.55784">
        <ele>179.4</ele>
        <time>2021-09-01T01:59:58.786Z</time>
      </trkpt>
      <trkpt lat="48.64877" lon="-0.55784">
        <ele>179.4</ele>
        <time>2021-09-01T02:00:37.278Z</time>
      </trkpt>
      <trkpt lat="48.64806" lon="-0.55711">
        <ele>184.59</ele>
        <time>2021-09-01T02:01:15.784Z</time>
      </trkpt>
      <trkpt lat="48.64806" lon="-0.55711">
        <ele>184.59</ele>
        <time>2021-09-01T02:01:54.290Z</time>
      </trkpt>
      <trkpt lat="48.64712" lon="-0.55589">
        <ele>187.07</ele>
        <time>2021-09-01T02:02:32.816Z</time>
      </trkpt>
      <trkpt lat="48.64712" lon="-0.55589">
        <ele>187.07</ele>
        <time>2021-09-01T02:03:11.342Z</time>
      </trkpt>
      <trkpt lat="48.6468" lon="-0.55552">
        <ele>187.47</ele>
        <time>2021-09-01T02:03:49.874Z</time>
      </trkpt>
      <trkpt lat="48.6468" lon="-0.55552">
        <ele>187.47</ele>
        <time>2021-09-01T02:04:28.406Z</time>
      </trkpt>
      <trkpt lat="48.64579" lon="-0.5543">
        <ele>188.91</ele>
        <time>2021-09-01T02:05:06.959Z</time>
      </trkpt>
      <trkpt lat="48.64579" lon="-0.5543">
        <ele>188.91</ele>
        <time>2021-09-01T02:05:45.512Z</time>
      </trkpt>
      <trkpt lat="48.64547" lon="-0.55398">
        <ele>189.8</ele>
        <time>2021-09-01T02:06:24.071Z</time>
      </trkpt>
      <trkpt lat="48.64547" lon="-0.55398">
        <ele>189.8</ele>
        <time>2021-09-01T02:07:02.630Z</time>
      </trkpt>
      <trkpt lat="48.64357" lon="-0.55284">
        <ele>193.27</ele>
        <time>2021-09-01T02:07:41.222Z</time>
      </trkpt>
      <trkpt lat="48.64357" lon="-0.55284">
        <ele>193.27</ele>
        <time>2021-09-01T02:08:19.814Z</time>
      </trkpt>
      <trkpt lat="48.64309" lon="-0.55257">
        <ele>195.92</ele>
        <time>2021-09-01T02:08:58.414Z</time>
      </trkpt>
      <trkpt lat="48.64309" lon="-0.55257">
        <ele>195.92</ele>
        <time>2021-09-01T02:09:37.014Z</time>
      </trkpt>
      <trkpt lat="48.64283" lon="-0.55252">
        <ele>196.92</ele>
        <time>2021-09-01T02:10:15.618Z</time>
      </trkpt>
      <trkpt lat="48.64283" lon="-0.55252">
        <ele>196.92</ele>
        <time>2021-09-01T02:10:54.222Z</time>
      </trkpt>
      <trkpt lat="48.6426" lon="-0.55254">
        <ele>197.72</ele>
        <time>2021-09-01T02:11:32.830Z</time>
      </trkpt>
      <trkpt lat="48.6426" lon="-0.55254">
        <ele>197.72</ele>
        <time>2021-09-01T02:12:11.438Z</time>
      </trkpt>
      <trkpt lat="48.64228" lon="-0.55274">
        <ele>197.43</ele>
        <time>2021-09-01T02:12:50.052Z</time>
      </trkpt>
      <trkpt lat="48.64228" lon="-0.55274">
        <ele>197.43</ele>
        <time>2021-09-01T02:13:28.666Z</time>
      </trkpt>
      <trkpt lat="48.64208" lon="-0.55289">
        <ele>196.76</ele>
        <time>2021-09-01T02:14:07.283Z</time>
      </trkpt>
      <trkpt lat="48.64208" lon="-0.55289">
        <ele>196.76</ele>
        <time>2021-09-01T02:14:45.900Z</time>
      </trkpt>
      <trkpt lat="48.64163" lon="-0.55308">
        <ele>196.91</ele>
        <time>2021-09-01T02:15:24.525Z</time>
      </trkpt>
      <trkpt lat="48.64163" lon="-0.55308">
        <ele>196.91</ele>
        <time>2021-09-01T02:16:03.150Z</time>
      </trkpt>
      <trkpt lat="48.64135" lon="-0.55306">
        <ele>197.52</ele>
        <time>2021-09-01T02:16:41.779Z</time>
      </trkpt>
      <trkpt lat="48.64135" lon="-0.55306">
        <ele>197.52</ele>
        <time>2021-09-01T02:17:20.408Z</time>
      </trkpt>
      <trkpt lat="48.64009" lon="-0.55259">
        <ele>198.4</ele>
        <time>2021-09-01T02:17:59.058Z</time>
      </trkpt>
      <trkpt lat="48.64009" lon="-0.55259">
        <ele>198.4</ele>
        <time>2021-09-01T02:18:37.708Z</time>
      </trkpt>
      <trkpt lat="48.63986" lon="-0.55245">
        <ele>198.56</ele>
        <time>2021-09-01T02:19:16.362Z</time>
      </trkpt>
      <trkpt lat="48.63986" lon="-0.55245">
        <ele>198.56</ele>
        <time>2021-09-01T02:19:55.016Z</time>
      </trkpt>
      <trkpt lat="48.63958" lon="-0.5521">
        <ele>198.75</ele>
        <time>2021-09-01T02:20:33.676Z</time>
      </trkpt>
      <trkpt lat="48.63958" lon="-0.5521">
        <ele>198.75</ele>
        <time>2021-09-01T02:21:12.336Z</time>
      </trkpt>
      <trkpt lat="48.63933" lon="-0.55187">
        <ele>198.95</ele>
        <time>2021-09-01T02:21:51.000Z</time>
      </trkpt>
      <trkpt lat="48.63933" lon="-0.55187">
        <ele>198.95</ele>
        <time>2021-09-01T02:22:29.664Z</time>
      </trkpt>
      <trkpt lat="48.63912" lon="-0.55174">
        <ele>198.95</ele>
        <time>2021-09-01T02:23:08.332Z</time>
      </trkpt>
      <trkpt lat="48.63912" lon="-0.55174">
        <ele>198.95</ele>
        <time>2021-09-01T02:23:47.000Z</time>
      </trkpt>
      <trkpt lat="48.63887" lon="-0.55167">
        <ele>199.25</ele>
        <time>2021-09-01T02:24:25.672Z</time>
      </trkpt>
      <trkpt lat="48.63887" lon="-0.55167">
        <ele>199.25</ele>
        <time>2021-09-01T02:25:04.344Z</time>
      </trkpt>
      <trkpt lat="48.6385" lon="-0.55149">
        <ele>199.11</ele>
        <time>2021-09-01T02:25:43.022Z</time>
      </trkpt>
      <trkpt lat="48.6385" lon="-0.55149">
        <ele>199.11</ele>
        <time>2021-09-01T02:26:21.700Z</time>
      </trkpt>
      <trkpt lat="48.63816" lon="-0.55125">
        <ele>198.59</ele>
        <time>2021-09-01T02:27:00.384Z</time>
      </trkpt>
      <trkpt lat="48.63816" lon="-0.55125">
        <ele>198.59</ele>
        <time>2021-09-01T02:27:39.068Z</time>
      </trkpt>
      <trkpt lat="48.63682" lon="-0.55054">
        <ele>200.6</ele>
        <time>2021-09-01T02:28:17.775Z</time>
      </trkpt>
      <trkpt lat="48.63682" lon="-0.55054">
        <ele>200.6</ele>
        <time>2021-09-01T02:28:56.482Z</time>
      </trkpt>
      <trkpt lat="48.63627" lon="-0.55028">
        <ele>202.59</ele>
        <time>2021-09-01T02:29:35.198Z</time>
      </trkpt>
      <trkpt lat="48.63627" lon="-0.55028">
        <ele>202.59</ele>
        <time>2021-09-01T02:30:13.914Z</time>
      </trkpt>
      <trkpt lat="48.6359" lon="-0.55079">
        <ele>203.94</ele>
        <time>2021-09-01T02:30:52.638Z</time>
      </trkpt>
      <trkpt lat="48.6359" lon="-0.55079">
        <ele>203.94</ele>
        <time>2021-09-01T02:31:31.362Z</time>
      </trkpt>
      <trkpt lat="48.6357" lon="-0.55113">
        <ele>205.66</ele>
        <time>2021-09-01T02:32:10.091Z</time>
      </trkpt>
      <trkpt lat="48.6357" lon="-0.55113">
        <ele>205.66</ele>
        <time>2021-09-01T02:32:48.820Z</time>
      </trkpt>
      <trkpt lat="48.63532" lon="-0.55189">
        <ele>209.85</ele>
        <time>2021-09-01T02:33:27.559Z</time>
      </trkpt>
      <trkpt lat="48.63532" lon="-0.55189">
        <ele>209.85</ele>
        <time>2021-09-01T02:34:06.298Z</time>
      </trkpt>
      <trkpt lat="48.63518" lon="-0.5521">
        <ele>211.25</ele>
        <time>2021-09-01T02:34:45.040Z</time>
      </trkpt>
      <trkpt lat="48.63518" lon="-0.5521">
        <ele>211.25</ele>
        <time>2021-09-01T02:35:23.782Z</time>
      </trkpt>
      <trkpt lat="48.63501" lon="-0.55228">
        <ele>211.98</ele>
        <time>2021-09-01T02:36:02.528Z</time>
      </trkpt>
      <trkpt lat="48.63501" lon="-0.55228">
        <ele>211.98</ele>
        <time>2021-09-01T02:36:41.274Z</time>
      </trkpt>
      <trkpt lat="48.63485" lon="-0.5524">
        <ele>213.31</ele>
        <time>2021-09-01T02:37:20.023Z</time>
      </trkpt>
      <trkpt lat="48.63485" lon="-0.5524">
        <ele>213.31</ele>
        <time>2021-09-01T02:37:58.772Z</time>
      </trkpt>
      <trkpt lat="48.63469" lon="-0.55245">
        <ele>213.31</ele>
        <time>2021-09-01T02:38:37.523Z</time>
      </trkpt>
      <trkpt lat="48.63469" lon="-0.55245">
        <ele>213.31</ele>
        <time>2021-09-01T02:39:16.274Z</time>
      </trkpt>
      <trkpt lat="48.63454" lon="-0.55247">
        <ele>215.65</ele>
        <time>2021-09-01T02:39:55.028Z</time>
      </trkpt>
      <trkpt lat="48.63454" lon="-0.55247">
        <ele>215.65</ele>
        <time>2021-09-01T02:40:33.782Z</time>
      </trkpt>
      <trkpt lat="48.63438" lon="-0.55245">
        <ele>216.75</ele>
        <time>2021-09-01T02:41:12.538Z</time>
      </trkpt>
      <trkpt lat="48.63438" lon="-0.55245">
        <ele>216.75</ele>
        <time>2021-09-01T02:41:51.294Z</time>
      </trkpt>
      <trkpt lat="48.63421" lon="-0.5524">
        <ele>216.75</ele>
        <time>2021-09-01T02:42:30.053Z</time>
      </trkpt>
      <trkpt lat="48.63421" lon="-0.5524">
        <ele>216.75</ele>
        <time>2021-09-01T02:43:08.812Z</time>
      </trkpt>
      <trkpt lat="48.63413" lon="-0.55231">
        <ele>218.44</ele>
        <time>2021-09-01T02:43:47.573Z</time>
      </trkpt>
      <trkpt lat="48.63413" lon="-0.55231">
        <ele>218.44</ele>
        <time>2021-09-01T02:44:26.334Z</time>
      </trkpt>
      <trkpt lat="48.63384" lon="-0.55206">
        <ele>219.03</ele>
        <time>2021-09-01T02:45:05.100Z</time>
      </trkpt>
      <trkpt lat="48.63384" lon="-0.55206">
        <ele>219.03</ele>
        <time>2021-09-01T02:45:43.866Z</time>
      </trkpt>
      <trkpt lat="48.63356" lon="-0.55189">
        <ele>222.08</ele>
        <time>2021-09-01T02:46:22.637Z</time>
      </trkpt>
      <trkpt lat="48.63356" lon="-0.55189">
        <ele>222.08</ele>
        <time>2021-09-01T02:47:01.408Z</time>
      </trkpt>
      <trkpt lat="48.63333" lon="-0.55184">
        <ele>222.99</ele>
        <time>2021-09-01T02:47:40.183Z</time>
      </trkpt>
      <trkpt lat="48.63333" lon="-0.55184">
        <ele>222.99</ele>
        <time>2021-09-01T02:48:18.958Z</time>
      </trkpt>
      <trkpt lat="48.63318" lon="-0.55189">
        <ele>222.99</ele>
        <time>2021-09-01T02:48:57.735Z</time>
      </trkpt>
      <trkpt lat="48.63318" lon="-0.55189">
        <ele>222.99</ele>
        <time>2021-09-01T02:49:36.512Z</time>
      </trkpt>
      <trkpt lat="48.633" lon="-0.55198">
        <ele>223.66</ele>
        <time>2021-09-01T02:50:15.292Z</time>
      </trkpt>
      <trkpt lat="48.633" lon="-0.55198">
        <ele>223.66</ele>
        <time>2021-09-01T02:50:54.072Z</time>
      </trkpt>
      <trkpt lat="48.63283" lon="-0.55213">
        <ele>223.66</ele>
        <time>2021-09-01T02:51:32.855Z</time>
      </trkpt>
      <trkpt lat="48.63283" lon="-0.55213">
        <ele>223.66</ele>
        <time>2021-09-01T02:52:11.638Z</time>
      </trkpt>
      <trkpt lat="48.63273" lon="-0.55225">
        <ele>223.9</ele>
        <time>2021-09-01T02:52:50.423Z</time>
      </trkpt>
      <trkpt lat="48.63273" lon="-0.55225">
        <ele>223.9</ele>
        <time>2021-09-01T02:53:29.208Z</time>
      </trkpt>
      <trkpt lat="48.63269" lon="-0.55213">
        <ele>224.02</ele>
        <time>2021-09-01T02:54:07.995Z</time>
      </trkpt>
      <trkpt lat="48.63269" lon="-0.55213">
        <ele>224.02</ele>
        <time>2021-09-01T02:54:46.782Z</time>
      </trkpt>
      <trkpt lat="48.63272" lon="-0.55176">
        <ele>224.09</ele>
        <time>2021-09-01T02:55:25.573Z</time>
      </trkpt>
      <trkpt lat="48.63272" lon="-0.55176">
        <ele>224.09</ele>
        <time>2021-09-01T02:56:04.364Z</time>
      </trkpt>
      <trkpt lat="48.63241" lon="-0.55171">
        <ele>224.1</ele>
        <time>2021-09-01T02:56:43.160Z</time>
      </trkpt>
      <trkpt lat="48.63241" lon="-0.55171">
        <ele>224.1</ele>
        <time>2021-09-01T02:57:21.956Z</time>
      </trkpt>
      <trkpt lat="48.63183" lon="-0.55189">
        <ele>224.09</ele>
        <time>2021-09-01T02:58:00.761Z</time>
      </trkpt>
      <trkpt lat="48.63183" lon="-0.55189">
        <ele>224.09</ele>
        <time>2021-09-01T02:58:39.566Z</time>
      </trkpt>
      <trkpt lat="48.63159" lon="-0.55193">
        <ele>224.04</ele>
        <time>2021-09-01T02:59:18.375Z</time>
      </trkpt>
      <trkpt lat="48.63159" lon="-0.55193">
        <ele>224.04</ele>
        <time>2021-09-01T02:59:57.184Z</time>
      </trkpt>
      <trkpt lat="48.6314" lon="-0.55201">
        <ele>224.05</ele>
        <time>2021-09-01T03:00:35.996Z</time>
      </trkpt>
      <trkpt lat="48.6314" lon="-0.55201">
        <ele>224.05</ele>
        <time>2021-09-01T03:01:14.808Z</time>
      </trkpt>
      <trkpt lat="48.631" lon="-0.55218">
        <ele>224.04</ele>
        <time>2021-09-01T03:01:53.627Z</time>
      </trkpt>
      <trkpt lat="48.631" lon="-0.55218">
        <ele>224.04</ele>
        <time>2021-09-01T03:02:32.446Z</time>
      </trkpt>
      <trkpt lat="48.63089" lon="-0.55228">
        <ele>224.07</ele>
        <time>2021-09-01T03:03:11.267Z</time>
      </trkpt>
      <trkpt lat="48.63089" lon="-0.55228">
        <ele>224.07</ele>
        <time>2021-09-01T03:03:50.088Z</time>
      </trkpt>
      <trkpt lat="48.63007" lon="-0.55245">
        <ele>224.64</ele>
        <time>2021-09-01T03:04:28.922Z</time>
      </trkpt>
      <trkpt lat="48.63007" lon="-0.55245">
        <ele>224.64</ele>
        <time>2021-09-01T03:05:07.756Z</time>
      </trkpt>
      <trkpt lat="48.62988" lon="-0.55245">
        <ele>225.06</ele>
        <time>2021-09-01T03:05:46.593Z</time>
      </trkpt>
      <trkpt lat="48.62988" lon="-0.55245">
        <ele>225.06</ele>
        <time>2021-09-01T03:06:25.430Z</time>
      </trkpt>
      <trkpt lat="48.62961" lon="-0.55237">
        <ele>225.55</ele>
        <time>2021-09-01T03:07:04.272Z</time>
      </trkpt>
      <trkpt lat="48.62961" lon="-0.55237">
        <ele>225.55</ele>
        <time>2021-09-01T03:07:43.114Z</time>
      </trkpt>
      <trkpt lat="48.62942" lon="-0.55228">
        <ele>225.55</ele>
        <time>2021-09-01T03:08:21.959Z</time>
      </trkpt>
      <trkpt lat="48.62942" lon="-0.55228">
        <ele>225.55</ele>
        <time>2021-09-01T03:09:00.804Z</time>
      </trkpt>
      <trkpt lat="48.62919" lon="-0.55211">
        <ele>226</ele>
        <time>2021-09-01T03:09:39.653Z</time>
      </trkpt>
      <trkpt lat="48.62919" lon="-0.55211">
        <ele>226</ele>
        <time>2021-09-01T03:10:18.502Z</time>
      </trkpt>
      <trkpt lat="48.62855" lon="-0.55167">
        <ele>227.06</ele>
        <time>2021-09-01T03:10:57.362Z</time>
      </trkpt>
      <trkpt lat="48.62855" lon="-0.55167">
        <ele>227.06</ele>
        <time>2021-09-01T03:11:36.222Z</time>
      </trkpt>
      <trkpt lat="48.62795" lon="-0.55113">
        <ele>227.79</ele>
        <time>2021-09-01T03:12:15.093Z</time>
      </trkpt>
      <trkpt lat="48.62795" lon="-0.55113">
        <ele>227.79</ele>
        <time>2021-09-01T03:12:53.964Z</time>
      </trkpt>
      <trkpt lat="48.62762" lon="-0.55076">
        <ele>228.05</ele>
        <time>2021-09-01T03:13:32.842Z</time>
      </trkpt>
      <trkpt lat="48.62762" lon="-0.55076">
        <ele>228.05</ele>
        <time>2021-09-01T03:14:11.720Z</time>
      </trkpt>
      <trkpt lat="48.62736" lon="-0.55062">
        <ele>228.21</ele>
        <time>2021-09-01T03:14:50.602Z</time>
      </trkpt>
      <trkpt lat="48.62736" lon="-0.55062">
        <ele>228.21</ele>
        <time>2021-09-01T03:15:29.484Z</time>
      </trkpt>
      <trkpt lat="48.62708" lon="-0.55059">
        <ele>228.34</ele>
        <time>2021-09-01T03:16:08.371Z</time>
      </trkpt>
      <trkpt lat="48.62708" lon="-0.55059">
        <ele>228.34</ele>
        <time>2021-09-01T03:16:47.258Z</time>
      </trkpt>
      <trkpt lat="48.6266" lon="-0.55067">
        <ele>228.26</ele>
        <time>2021-09-01T03:17:26.152Z</time>
      </trkpt>
      <trkpt lat="48.6266" lon="-0.55067">
        <ele>228.26</ele>
        <time>2021-09-01T03:18:05.046Z</time>
      </trkpt>
      <trkpt lat="48.62617" lon="-0.55081">
        <ele>227.87</ele>
        <time>2021-09-01T03:18:43.948Z</time>
      </trkpt>
      <trkpt lat="48.62617" lon="-0.55081">
        <ele>227.87</ele>
        <time>2021-09-01T03:19:22.850Z</time>
      </trkpt>
      <trkpt lat="48.62565" lon="-0.55091">
        <ele>227.59</ele>
        <time>2021-09-01T03:20:01.760Z</time>
      </trkpt>
      <trkpt lat="48.62565" lon="-0.55091">
        <ele>227.59</ele>
        <time>2021-09-01T03:20:40.670Z</time>
      </trkpt>
      <trkpt lat="48.62524" lon="-0.55094">
        <ele>226.39</ele>
        <time>2021-09-01T03:21:19.586Z</time>
      </trkpt>
      <trkpt lat="48.62524" lon="-0.55094">
        <ele>226.39</ele>
        <time>2021-09-01T03:21:58.502Z</time>
      </trkpt>
      <trkpt lat="48.62385" lon="-0.55091">
        <ele>225.33</ele>
        <time>2021-09-01T03:22:37.441Z</time>
      </trkpt>
      <trkpt lat="48.62385" lon="-0.55091">
        <ele>225.33</ele>
        <time>2021-09-01T03:23:16.380Z</time>
      </trkpt>
      <trkpt lat="48.62221" lon="-0.55125">
        <ele>218.78</ele>
        <time>2021-09-01T03:23:55.345Z</time>
      </trkpt>
      <trkpt lat="48.62221" lon="-0.55125">
        <ele>218.78</ele>
        <time>2021-09-01T03:24:34.310Z</time>
      </trkpt>
      <trkpt lat="48.62184" lon="-0.55118">
        <ele>215.85</ele>
        <time>2021-09-01T03:25:13.281Z</time>
      </trkpt>
      <trkpt lat="48.62184" lon="-0.55118">
        <ele>215.85</ele>
        <time>2021-09-01T03:25:52.252Z</time>
      </trkpt>
      <trkpt lat="48.62089" lon="-0.55071">
        <ele>212.9</ele>
        <time>2021-09-01T03:26:31.239Z</time>
      </trkpt>
      <trkpt lat="48.62089" lon="-0.55071">
        <ele>212.9</ele>
        <time>2021-09-01T03:27:10.226Z</time>
      </trkpt>
      <trkpt lat="48.62064" lon="-0.55067">
        <ele>213.59</ele>
        <time>2021-09-01T03:27:49.217Z</time>
      </trkpt>
      <trkpt lat="48.62064" lon="-0.55067">
        <ele>213.59</ele>
        <time>2021-09-01T03:28:28.208Z</time>
      </trkpt>
      <trkpt lat="48.62005" lon="-0.5507">
        <ele>216.89</ele>
        <time>2021-09-01T03:29:07.209Z</time>
      </trkpt>
      <trkpt lat="48.62005" lon="-0.5507">
        <ele>216.89</ele>
        <time>2021-09-01T03:29:46.210Z</time>
      </trkpt>
      <trkpt lat="48.6165" lon="-0.55115">
        <ele>200.04</ele>
        <time>2021-09-01T03:30:25.268Z</time>
      </trkpt>
      <trkpt lat="48.6165" lon="-0.55115">
        <ele>200.04</ele>
        <time>2021-09-01T03:31:04.326Z</time>
      </trkpt>
      <trkpt lat="48.61615" lon="-0.5514">
        <ele>197.51</ele>
        <time>2021-09-01T03:31:43.390Z</time>
      </trkpt>
      <trkpt lat="48.61615" lon="-0.5514">
        <ele>197.51</ele>
        <time>2021-09-01T03:32:22.454Z</time>
      </trkpt>
      <trkpt lat="48.61434" lon="-0.55428">
        <ele>190.45</ele>
        <time>2021-09-01T03:33:01.560Z</time>
      </trkpt>
      <trkpt lat="48.61434" lon="-0.55428">
        <ele>190.45</ele>
        <time>2021-09-01T03:33:40.666Z</time>
      </trkpt>
      <trkpt lat="48.61373" lon="-0.55537">
        <ele>189.33</ele>
        <time>2021-09-01T03:34:19.787Z</time>
      </trkpt>
      <trkpt lat="48.61373" lon="-0.55537">
        <ele>189.33</ele>
        <time>2021-09-01T03:34:58.908Z</time>
      </trkpt>
      <trkpt lat="48.61345" lon="-0.55573">
        <ele>189</ele>
        <time>2021-09-01T03:35:38.035Z</time>
      </trkpt>
      <trkpt lat="48.61345" lon="-0.55573">
        <ele>189</ele>
        <time>2021-09-01T03:36:17.162Z</time>
      </trkpt>
      <trkpt lat="48.61312" lon="-0.55567">
        <ele>188.96</ele>
        <time>2021-09-01T03:36:56.294Z</time>
      </trkpt>
      <trkpt lat="48.61312" lon="-0.55567">
        <ele>188.96</ele>
        <time>2021-09-01T03:37:35.426Z</time>
      </trkpt>
      <trkpt lat="48.61296" lon="-0.55562">
        <ele>188.98</ele>
        <time>2021-09-01T03:38:14.561Z</time>
      </trkpt>
      <trkpt lat="48.61296" lon="-0.55562">
        <ele>188.98</ele>
        <time>2021-09-01T03:38:53.696Z</time>
      </trkpt>
      <trkpt lat="48.61281" lon="-0.55552">
        <ele>188.91</ele>
        <time>2021-09-01T03:39:32.834Z</time>
      </trkpt>
      <trkpt lat="48.61281" lon="-0.55552">
        <ele>188.91</ele>
        <time>2021-09-01T03:40:11.972Z</time>
      </trkpt>
      <trkpt lat="48.61236" lon="-0.55511">
        <ele>188.54</ele>
        <time>2021-09-01T03:40:51.118Z</time>
      </trkpt>
      <trkpt lat="48.61236" lon="-0.55511">
        <ele>188.54</ele>
        <time>2021-09-01T03:41:30.264Z</time>
      </trkpt>
      <trkpt lat="48.61218" lon="-0.55496">
        <ele>188.56</ele>
        <time>2021-09-01T03:42:09.413Z</time>
      </trkpt>
      <trkpt lat="48.61218" lon="-0.55496">
        <ele>188.56</ele>
        <time>2021-09-01T03:42:48.562Z</time>
      </trkpt>
      <trkpt lat="48.61203" lon="-0.55489">
        <ele>188.84</ele>
        <time>2021-09-01T03:43:27.714Z</time>
      </trkpt>
      <trkpt lat="48.61203" lon="-0.55489">
        <ele>188.84</ele>
        <time>2021-09-01T03:44:06.866Z</time>
      </trkpt>
      <trkpt lat="48.61171" lon="-0.55484">
        <ele>189.7</ele>
        <time>2021-09-01T03:44:46.023Z</time>
      </trkpt>
      <trkpt lat="48.61171" lon="-0.55484">
        <ele>189.7</ele>
        <time>2021-09-01T03:45:25.180Z</time>
      </trkpt>
      <trkpt lat="48.61109" lon="-0.55496">
        <ele>186.64</ele>
        <time>2021-09-01T03:46:04.347Z</time>
      </trkpt>
      <trkpt lat="48.61109" lon="-0.55496">
        <ele>186.64</ele>
        <time>2021-09-01T03:46:43.514Z</time>
      </trkpt>
      <trkpt lat="48.61071" lon="-0.55495">
        <ele>185.34</ele>
        <time>2021-09-01T03:47:22.687Z</time>
      </trkpt>
      <trkpt lat="48.61071" lon="-0.55495">
        <ele>185.34</ele>
        <time>2021-09-01T03:48:01.860Z</time>
      </trkpt>
      <trkpt lat="48.61083" lon="-0.5554">
        <ele>183.29</ele>
        <time>2021-09-01T03:48:41.038Z</time>
      </trkpt>
      <trkpt lat="48.61083" lon="-0.5554">
        <ele>183.29</ele>
        <time>2021-09-01T03:49:20.216Z</time>
      </trkpt>
      <trkpt lat="48.61084" lon="-0.55562">
        <ele>182.85</ele>
        <time>2021-09-01T03:49:59.397Z</time>
      </trkpt>
      <trkpt lat="48.61084" lon="-0.55562">
        <ele>182.85</ele>
        <time>2021-09-01T03:50:38.578Z</time>
      </trkpt>
      <trkpt lat="48.61081" lon="-0.55579">
        <ele>182.16</ele>
        <time>2021-09-01T03:51:17.761Z</time>
      </trkpt>
      <trkpt lat="48.61081" lon="-0.55579">
        <ele>182.16</ele>
        <time>2021-09-01T03:51:56.944Z</time>
      </trkpt>
      <trkpt lat="48.61075" lon="-0.55598">
        <ele>181.53</ele>
        <time>2021-09-01T03:52:36.129Z</time>
      </trkpt>
      <trkpt lat="48.61075" lon="-0.55598">
        <ele>181.53</ele>
        <time>2021-09-01T03:53:15.314Z</time>
      </trkpt>
      <trkpt lat="48.61068" lon="-0.55611">
        <ele>181.34</ele>
        <time>2021-09-01T03:53:54.501Z</time>
      </trkpt>
      <trkpt lat="48.61068" lon="-0.55611">
        <ele>181.34</ele>
        <time>2021-09-01T03:54:33.688Z</time>
      </trkpt>
      <trkpt lat="48.61059" lon="-0.5562">
        <ele>181</ele>
        <time>2021-09-01T03:55:12.876Z</time>
      </trkpt>
      <trkpt lat="48.61059" lon="-0.5562">
        <ele>181</ele>
        <time>2021-09-01T03:55:52.064Z</time>
      </trkpt>
      <trkpt lat="48.61047" lon="-0.55628">
        <ele>180.54</ele>
        <time>2021-09-01T03:56:31.254Z</time>
      </trkpt>
      <trkpt lat="48.61047" lon="-0.55628">
        <ele>180.54</ele>
        <time>2021-09-01T03:57:10.444Z</time>
      </trkpt>
      <trkpt lat="48.61034" lon="-0.5563">
        <ele>179.98</ele>
        <time>2021-09-01T03:57:49.636Z</time>
      </trkpt>
      <trkpt lat="48.61034" lon="-0.5563">
        <ele>179.98</ele>
        <time>2021-09-01T03:58:28.828Z</time>
      </trkpt>
      <trkpt lat="48.61023" lon="-0.55628">
        <ele>179.98</ele>
        <time>2021-09-01T03:59:08.022Z</time>
      </trkpt>
      <trkpt lat="48.61023" lon="-0.55628">
        <ele>179.98</ele>
        <time>2021-09-01T03:59:47.216Z</time>
      </trkpt>
      <trkpt lat="48.6101" lon="-0.55623">
        <ele>179.9</ele>
        <time>2021-09-01T04:00:26.412Z</time>
      </trkpt>
      <trkpt lat="48.6101" lon="-0.55623">
        <ele>179.9</ele>
        <time>2021-09-01T04:01:05.608Z</time>
      </trkpt>
      <trkpt lat="48.60947" lon="-0.55574">
        <ele>181.74</ele>
        <time>2021-09-01T04:01:44.816Z</time>
      </trkpt>
      <trkpt lat="48.60947" lon="-0.55574">
        <ele>181.74</ele>
        <time>2021-09-01T04:02:24.024Z</time>
      </trkpt>
      <trkpt lat="48.60939" lon="-0.55571">
        <ele>182.33</ele>
        <time>2021-09-01T04:03:03.233Z</time>
      </trkpt>
      <trkpt lat="48.60939" lon="-0.55571">
        <ele>182.33</ele>
        <time>2021-09-01T04:03:42.442Z</time>
      </trkpt>
      <trkpt lat="48.60927" lon="-0.55572">
        <ele>182.75</ele>
        <time>2021-09-01T04:04:21.653Z</time>
      </trkpt>
      <trkpt lat="48.60927" lon="-0.55572">
        <ele>182.75</ele>
        <time>2021-09-01T04:05:00.864Z</time>
      </trkpt>
      <trkpt lat="48.60909" lon="-0.55581">
        <ele>184.62</ele>
        <time>2021-09-01T04:05:40.078Z</time>
      </trkpt>
      <trkpt lat="48.60909" lon="-0.55581">
        <ele>184.62</ele>
        <time>2021-09-01T04:06:19.292Z</time>
      </trkpt>
      <trkpt lat="48.60895" lon="-0.55601">
        <ele>184.62</ele>
        <time>2021-09-01T04:06:58.509Z</time>
      </trkpt>
      <trkpt lat="48.60895" lon="-0.55601">
        <ele>184.62</ele>
        <time>2021-09-01T04:07:37.726Z</time>
      </trkpt>
      <trkpt lat="48.60889" lon="-0.55633">
        <ele>186.55</ele>
        <time>2021-09-01T04:08:16.947Z</time>
      </trkpt>
      <trkpt lat="48.60889" lon="-0.55633">
        <ele>186.55</ele>
        <time>2021-09-01T04:08:56.168Z</time>
      </trkpt>
      <trkpt lat="48.60889" lon="-0.55693">
        <ele>188.73</ele>
        <time>2021-09-01T04:09:35.395Z</time>
      </trkpt>
      <trkpt lat="48.60889" lon="-0.55693">
        <ele>188.73</ele>
        <time>2021-09-01T04:10:14.622Z</time>
      </trkpt>
      <trkpt lat="48.60887" lon="-0.55728">
        <ele>190.63</ele>
        <time>2021-09-01T04:10:53.853Z</time>
      </trkpt>
      <trkpt lat="48.60887" lon="-0.55728">
        <ele>190.63</ele>
        <time>2021-09-01T04:11:33.084Z</time>
      </trkpt>
      <trkpt lat="48.60882" lon="-0.55739">
        <ele>190.63</ele>
        <time>2021-09-01T04:12:12.316Z</time>
      </trkpt>
      <trkpt lat="48.60882" lon="-0.55739">
        <ele>190.63</ele>
        <time>2021-09-01T04:12:51.548Z</time>
      </trkpt>
      <trkpt lat="48.6082" lon="-0.55837">
        <ele>196.59</ele>
        <time>2021-09-01T04:13:30.795Z</time>
      </trkpt>
      <trkpt lat="48.6082" lon="-0.55837">
        <ele>196.59</ele>
        <time>2021-09-01T04:14:10.042Z</time>
      </trkpt>
      <trkpt lat="48.60815" lon="-0.55851">
        <ele>196.84</ele>
        <time>2021-09-01T04:14:49.290Z</time>
      </trkpt>
      <trkpt lat="48.60815" lon="-0.55851">
        <ele>196.84</ele>
        <time>2021-09-01T04:15:28.538Z</time>
      </trkpt>
      <trkpt lat="48.60813" lon="-0.55874">
        <ele>198.42</ele>
        <time>2021-09-01T04:16:07.789Z</time>
      </trkpt>
      <trkpt lat="48.60813" lon="-0.55874">
        <ele>198.42</ele>
        <time>2021-09-01T04:16:47.040Z</time>
      </trkpt>
      <trkpt lat="48.6081" lon="-0.56016">
        <ele>201.33</ele>
        <time>2021-09-01T04:17:26.306Z</time>
      </trkpt>
      <trkpt lat="48.6081" lon="-0.56016">
        <ele>201.33</ele>
        <time>2021-09-01T04:18:05.572Z</time>
      </trkpt>
      <trkpt lat="48.60784" lon="-0.56426">
        <ele>196.31</ele>
        <time>2021-09-01T04:18:44.882Z</time>
      </trkpt>
      <trkpt lat="48.60784" lon="-0.56426">
        <ele>196.31</ele>
        <time>2021-09-01T04:19:24.192Z</time>
      </trkpt>
      <trkpt lat="48.60773" lon="-0.56555">
        <ele>195.47</ele>
        <time>2021-09-01T04:20:03.515Z</time>
      </trkpt>
      <trkpt lat="48.60773" lon="-0.56555">
        <ele>195.47</ele>
        <time>2021-09-01T04:20:42.838Z</time>
      </trkpt>
      <trkpt lat="48.60758" lon="-0.56667">
        <ele>192.68</ele>
        <time>2021-09-01T04:21:22.173Z</time>
      </trkpt>
      <trkpt lat="48.60758" lon="-0.56667">
        <ele>192.68</ele>
        <time>2021-09-01T04:22:01.508Z</time>
      </trkpt>
      <trkpt lat="48.60731" lon="-0.56813">
        <ele>189.57</ele>
        <time>2021-09-01T04:22:40.860Z</time>
      </trkpt>
      <trkpt lat="48.60731" lon="-0.56813">
        <ele>189.57</ele>
        <time>2021-09-01T04:23:20.212Z</time>
      </trkpt>
      <trkpt lat="48.60726" lon="-0.56872">
        <ele>187.56</ele>
        <time>2021-09-01T04:23:59.570Z</time>
      </trkpt>
      <trkpt lat="48.60726" lon="-0.56872">
        <ele>187.56</ele>
        <time>2021-09-01T04:24:38.928Z</time>
      </trkpt>
      <trkpt lat="48.60722" lon="-0.57133">
        <ele>185.22</ele>
        <time>2021-09-01T04:25:18.314Z</time>
      </trkpt>
      <trkpt lat="48.60722" lon="-0.57133">
        <ele>185.22</ele>
        <time>2021-09-01T04:25:57.700Z</time>
      </trkpt>
      <trkpt lat="48.60719" lon="-0.57206">
        <ele>185.46</ele>
        <time>2021-09-01T04:26:37.093Z</time>
      </trkpt>
      <trkpt lat="48.60719" lon="-0.57206">
        <ele>185.46</ele>
        <time>2021-09-01T04:27:16.486Z</time>
      </trkpt>
      <trkpt lat="48.607" lon="-0.57399">
        <ele>184.76</ele>
        <time>2021-09-01T04:27:55.900Z</time>
      </trkpt>
      <trkpt lat="48.607" lon="-0.57399">
        <ele>184.76</ele>
        <time>2021-09-01T04:28:35.314Z</time>
      </trkpt>
      <trkpt lat="48.6069" lon="-0.57482">
        <ele>183.56</ele>
        <time>2021-09-01T04:29:14.737Z</time>
      </trkpt>
      <trkpt lat="48.6069" lon="-0.57482">
        <ele>183.56</ele>
        <time>2021-09-01T04:29:54.160Z</time>
      </trkpt>
      <trkpt lat="48.60686" lon="-0.57537">
        <ele>182.06</ele>
        <time>2021-09-01T04:30:33.589Z</time>
      </trkpt>
      <trkpt lat="48.60686" lon="-0.57537">
        <ele>182.06</ele>
        <time>2021-09-01T04:31:13.018Z</time>
      </trkpt>
      <trkpt lat="48.60685" lon="-0.57587">
        <ele>180.89</ele>
        <time>2021-09-01T04:31:52.452Z</time>
      </trkpt>
      <trkpt lat="48.60685" lon="-0.57587">
        <ele>180.89</ele>
        <time>2021-09-01T04:32:31.886Z</time>
      </trkpt>
      <trkpt lat="48.60686" lon="-0.57635">
        <ele>180.41</ele>
        <time>2021-09-01T04:33:11.325Z</time>
      </trkpt>
      <trkpt lat="48.60686" lon="-0.57635">
        <ele>180.41</ele>
        <time>2021-09-01T04:33:50.764Z</time>
      </trkpt>
      <trkpt lat="48.60713" lon="-0.57955">
        <ele>173.84</ele>
        <time>2021-09-01T04:34:30.238Z</time>
      </trkpt>
      <trkpt lat="48.60713" lon="-0.57955">
        <ele>173.84</ele>
        <time>2021-09-01T04:35:09.712Z</time>
      </trkpt>
      <trkpt lat="48.60725" lon="-0.57999">
        <ele>172.87</ele>
        <time>2021-09-01T04:35:49.191Z</time>
      </trkpt>
      <trkpt lat="48.60725" lon="-0.57999">
        <ele>172.87</ele>
        <time>2021-09-01T04:36:28.670Z</time>
      </trkpt>
      <trkpt lat="48.60781" lon="-0.58121">
        <ele>168.29</ele>
        <time>2021-09-01T04:37:08.164Z</time>
      </trkpt>
      <trkpt lat="48.60781" lon="-0.58121">
        <ele>168.29</ele>
        <time>2021-09-01T04:37:47.658Z</time>
      </trkpt>
      <trkpt lat="48.60791" lon="-0.58148">
        <ele>166.78</ele>
        <time>2021-09-01T04:38:27.156Z</time>
      </trkpt>
      <trkpt lat="48.60791" lon="-0.58148">
        <ele>166.78</ele>
        <time>2021-09-01T04:39:06.654Z</time>
      </trkpt>
      <trkpt lat="48.608" lon="-0.58196">
        <ele>166.37</ele>
        <time>2021-09-01T04:39:46.157Z</time>
      </trkpt>
      <trkpt lat="48.608" lon="-0.58196">
        <ele>166.37</ele>
        <time>2021-09-01T04:40:25.660Z</time>
      </trkpt>
      <trkpt lat="48.60802" lon="-0.58216">
        <ele>165.08</ele>
        <time>2021-09-01T04:41:05.165Z</time>
      </trkpt>
      <trkpt lat="48.60802" lon="-0.58216">
        <ele>165.08</ele>
        <time>2021-09-01T04:41:44.670Z</time>
      </trkpt>
      <trkpt lat="48.60802" lon="-0.58248">
        <ele>165.08</ele>
        <time>2021-09-01T04:42:24.179Z</time>
      </trkpt>
      <trkpt lat="48.60802" lon="-0.58248">
        <ele>165.08</ele>
        <time>2021-09-01T04:43:03.688Z</time>
      </trkpt>
      <trkpt lat="48.60732" lon="-0.59004">
        <ele>159.44</ele>
        <time>2021-09-01T04:43:43.278Z</time>
      </trkpt>
      <trkpt lat="48.60732" lon="-0.59004">
        <ele>159.44</ele>
        <time>2021-09-01T04:44:22.868Z</time>
      </trkpt>
      <trkpt lat="48.60734" lon="-0.59045">
        <ele>161.5</ele>
        <time>2021-09-01T04:45:02.462Z</time>
      </trkpt>
      <trkpt lat="48.60734" lon="-0.59045">
        <ele>161.5</ele>
        <time>2021-09-01T04:45:42.056Z</time>
      </trkpt>
      <trkpt lat="48.60741" lon="-0.59092">
        <ele>163.35</ele>
        <time>2021-09-01T04:46:21.655Z</time>
      </trkpt>
      <trkpt lat="48.60741" lon="-0.59092">
        <ele>163.35</ele>
        <time>2021-09-01T04:47:01.254Z</time>
      </trkpt>
      <trkpt lat="48.60781" lon="-0.59264">
        <ele>168.37</ele>
        <time>2021-09-01T04:47:40.872Z</time>
      </trkpt>
      <trkpt lat="48.60781" lon="-0.59264">
        <ele>168.37</ele>
        <time>2021-09-01T04:48:20.490Z</time>
      </trkpt>
      <trkpt lat="48.60783" lon="-0.59309">
        <ele>169.38</ele>
        <time>2021-09-01T04:49:00.113Z</time>
      </trkpt>
      <trkpt lat="48.60783" lon="-0.59309">
        <ele>169.38</ele>
        <time>2021-09-01T04:49:39.736Z</time>
      </trkpt>
      <trkpt lat="48.60785" lon="-0.59382">
        <ele>170.26</ele>
        <time>2021-09-01T04:50:19.367Z</time>
      </trkpt>
      <trkpt lat="48.60785" lon="-0.59382">
        <ele>170.26</ele>
        <time>2021-09-01T04:50:58.998Z</time>
      </trkpt>
      <trkpt lat="48.60781" lon="-0.59549">
        <ele>170.52</ele>
        <time>2021-09-01T04:51:38.647Z</time>
      </trkpt>
      <trkpt lat="48.60781" lon="-0.59549">
        <ele>170.52</ele>
        <time>2021-09-01T04:52:18.296Z</time>
      </trkpt>
      <trkpt lat="48.60776" lon="-0.59643">
        <ele>169.8</ele>
        <time>2021-09-01T04:52:57.955Z</time>
      </trkpt>
      <trkpt lat="48.60776" lon="-0.59643">
        <ele>169.8</ele>
        <time>2021-09-01T04:53:37.614Z</time>
      </trkpt>
      <trkpt lat="48.60767" lon="-0.59697">
        <ele>167.6</ele>
        <time>2021-09-01T04:54:17.279Z</time>
      </trkpt>
      <trkpt lat="48.60767" lon="-0.59697">
        <ele>167.6</ele>
        <time>2021-09-01T04:54:56.944Z</time>
      </trkpt>
      <trkpt lat="48.60771" lon="-0.59709">
        <ele>166.62</ele>
        <time>2021-09-01T04:55:36.610Z</time>
      </trkpt>
      <trkpt lat="48.60771" lon="-0.59709">
        <ele>166.62</ele>
        <time>2021-09-01T04:56:16.276Z</time>
      </trkpt>
      <trkpt lat="48.60788" lon="-0.59717">
        <ele>166.62</ele>
        <time>2021-09-01T04:56:55.945Z</time>
      </trkpt>
      <trkpt lat="48.60788" lon="-0.59717">
        <ele>166.62</ele>
        <time>2021-09-01T04:57:35.614Z</time>
      </trkpt>
      <trkpt lat="48.6076" lon="-0.59877">
        <ele>160.66</ele>
        <time>2021-09-01T04:58:15.300Z</time>
      </trkpt>
      <trkpt lat="48.6076" lon="-0.59877">
        <ele>160.66</ele>
        <time>2021-09-01T04:58:54.986Z</time>
      </trkpt>
      <trkpt lat="48.60731" lon="-0.59984">
        <ele>158.34</ele>
        <time>2021-09-01T04:59:34.685Z</time>
      </trkpt>
      <trkpt lat="48.60731" lon="-0.59984">
        <ele>158.34</ele>
        <time>2021-09-01T05:00:14.384Z</time>
      </trkpt>
      <trkpt lat="48.60708" lon="-0.6005">
        <ele>154.19</ele>
        <time>2021-09-01T05:00:54.091Z</time>
      </trkpt>
      <trkpt lat="48.60708" lon="-0.6005">
        <ele>154.19</ele>
        <time>2021-09-01T05:01:33.798Z</time>
      </trkpt>
      <trkpt lat="48.60683" lon="-0.60109">
        <ele>151.74</ele>
        <time>2021-09-01T05:02:13.512Z</time>
      </trkpt>
      <trkpt lat="48.60683" lon="-0.60109">
        <ele>151.74</ele>
        <time>2021-09-01T05:02:53.226Z</time>
      </trkpt>
      <trkpt lat="48.60314" lon="-0.60843">
        <ele>162.04</ele>
        <time>2021-09-01T05:03:33.038Z</time>
      </trkpt>
      <trkpt lat="48.60314" lon="-0.60843">
        <ele>162.04</ele>
        <time>2021-09-01T05:04:12.850Z</time>
      </trkpt>
      <trkpt lat="48.60299" lon="-0.60877">
        <ele>162.04</ele>
        <time>2021-09-01T05:04:52.666Z</time>
      </trkpt>
      <trkpt lat="48.60299" lon="-0.60877">
        <ele>162.04</ele>
        <time>2021-09-01T05:05:32.482Z</time>
      </trkpt>
      <trkpt lat="48.60286" lon="-0.60914">
        <ele>164.23</ele>
        <time>2021-09-01T05:06:12.303Z</time>
      </trkpt>
      <trkpt lat="48.60286" lon="-0.60914">
        <ele>164.23</ele>
        <time>2021-09-01T05:06:52.124Z</time>
      </trkpt>
      <trkpt lat="48.60276" lon="-0.60949">
        <ele>166.28</ele>
        <time>2021-09-01T05:07:31.949Z</time>
      </trkpt>
      <trkpt lat="48.60276" lon="-0.60949">
        <ele>166.28</ele>
        <time>2021-09-01T05:08:11.774Z</time>
      </trkpt>
      <trkpt lat="48.60247" lon="-0.61099">
        <ele>171.89</ele>
        <time>2021-09-01T05:08:51.615Z</time>
      </trkpt>
      <trkpt lat="48.60247" lon="-0.61099">
        <ele>171.89</ele>
        <time>2021-09-01T05:09:31.456Z</time>
      </trkpt>
      <trkpt lat="48.60235" lon="-0.61141">
        <ele>171.89</ele>
        <time>2021-09-01T05:10:11.302Z</time>
      </trkpt>
      <trkpt lat="48.60235" lon="-0.61141">
        <ele>171.89</ele>
        <time>2021-09-01T05:10:51.148Z</time>
      </trkpt>
      <trkpt lat="48.60219" lon="-0.6118">
        <ele>176.11</ele>
        <time>2021-09-01T05:11:30.999Z</time>
      </trkpt>
      <trkpt lat="48.60219" lon="-0.6118">
        <ele>176.11</ele>
        <time>2021-09-01T05:12:10.850Z</time>
      </trkpt>
      <trkpt lat="48.6019" lon="-0.61231">
        <ele>177.94</ele>
        <time>2021-09-01T05:12:50.708Z</time>
      </trkpt>
      <trkpt lat="48.6019" lon="-0.61231">
        <ele>177.94</ele>
        <time>2021-09-01T05:13:30.566Z</time>
      </trkpt>
      <trkpt lat="48.59925" lon="-0.61563">
        <ele>196.32</ele>
        <time>2021-09-01T05:14:10.479Z</time>
      </trkpt>
      <trkpt lat="48.59925" lon="-0.61563">
        <ele>196.32</ele>
        <time>2021-09-01T05:14:50.392Z</time>
      </trkpt>
      <trkpt lat="48.59802" lon="-0.61721">
        <ele>205.89</ele>
        <time>2021-09-01T05:15:30.331Z</time>
      </trkpt>
      <trkpt lat="48.59802" lon="-0.61721">
        <ele>205.89</ele>
        <time>2021-09-01T05:16:10.270Z</time>
      </trkpt>
      <trkpt lat="48.59766" lon="-0.61782">
        <ele>208.8</ele>
        <time>2021-09-01T05:16:50.218Z</time>
      </trkpt>
      <trkpt lat="48.59766" lon="-0.61782">
        <ele>208.8</ele>
        <time>2021-09-01T05:17:30.166Z</time>
      </trkpt>
      <trkpt lat="48.59746" lon="-0.61826">
        <ele>212.24</ele>
        <time>2021-09-01T05:18:10.120Z</time>
      </trkpt>
      <trkpt lat="48.59746" lon="-0.61826">
        <ele>212.24</ele>
        <time>2021-09-01T05:18:50.074Z</time>
      </trkpt>
      <trkpt lat="48.59723" lon="-0.61895">
        <ele>214.51</ele>
        <time>2021-09-01T05:19:30.036Z</time>
      </trkpt>
      <trkpt lat="48.59723" lon="-0.61895">
        <ele>214.51</ele>
        <time>2021-09-01T05:20:09.998Z</time>
      </trkpt>
      <trkpt lat="48.59712" lon="-0.61951">
        <ele>216.64</ele>
        <time>2021-09-01T05:20:49.966Z</time>
      </trkpt>
      <trkpt lat="48.59712" lon="-0.61951">
        <ele>216.64</ele>
        <time>2021-09-01T05:21:29.934Z</time>
      </trkpt>
      <trkpt lat="48.59686" lon="-0.62163">
        <ele>224.07</ele>
        <time>2021-09-01T05:22:09.925Z</time>
      </trkpt>
      <trkpt lat="48.59686" lon="-0.62163">
        <ele>224.07</ele>
        <time>2021-09-01T05:22:49.916Z</time>
      </trkpt>
      <trkpt lat="48.59678" lon="-0.622">
        <ele>224.63</ele>
        <time>2021-09-01T05:23:29.911Z</time>
      </trkpt>
      <trkpt lat="48.59678" lon="-0.622">
        <ele>224.63</ele>
        <time>2021-09-01T05:24:09.906Z</time>
      </trkpt>
      <trkpt lat="48.59654" lon="-0.62273">
        <ele>224.52</ele>
        <time>2021-09-01T05:24:49.910Z</time>
      </trkpt>
      <trkpt lat="48.59654" lon="-0.62273">
        <ele>224.52</ele>
        <time>2021-09-01T05:25:29.914Z</time>
      </trkpt>
      <trkpt lat="48.59622" lon="-0.62336">
        <ele>223.64</ele>
        <time>2021-09-01T05:26:09.926Z</time>
      </trkpt>
      <trkpt lat="48.59622" lon="-0.62336">
        <ele>223.64</ele>
        <time>2021-09-01T05:26:49.938Z</time>
      </trkpt>
      <trkpt lat="48.59601" lon="-0.6237">
        <ele>222.21</ele>
        <time>2021-09-01T05:27:29.955Z</time>
      </trkpt>
      <trkpt lat="48.59601" lon="-0.6237">
        <ele>222.21</ele>
        <time>2021-09-01T05:28:09.972Z</time>
      </trkpt>
      <trkpt lat="48.59553" lon="-0.62429">
        <ele>220.25</ele>
        <time>2021-09-01T05:28:49.999Z</time>
      </trkpt>
      <trkpt lat="48.59553" lon="-0.62429">
        <ele>220.25</ele>
        <time>2021-09-01T05:29:30.026Z</time>
      </trkpt>
      <trkpt lat="48.59509" lon="-0.62461">
        <ele>218.64</ele>
        <time>2021-09-01T05:30:10.061Z</time>
      </trkpt>
      <trkpt lat="48.59509" lon="-0.62461">
        <ele>218.64</ele>
        <time>2021-09-01T05:30:50.096Z</time>
      </trkpt>
      <trkpt lat="48.59487" lon="-0.62475">
        <ele>217.13</ele>
        <time>2021-09-01T05:31:30.135Z</time>
      </trkpt>
      <trkpt lat="48.59487" lon="-0.62475">
        <ele>217.13</ele>
        <time>2021-09-01T05:32:10.174Z</time>
      </trkpt>
      <trkpt lat="48.59463" lon="-0.62485">
        <ele>216.32</ele>
        <time>2021-09-01T05:32:50.217Z</time>
      </trkpt>
      <trkpt lat="48.59463" lon="-0.62485">
        <ele>216.32</ele>
        <time>2021-09-01T05:33:30.260Z</time>
      </trkpt>
      <trkpt lat="48.59434" lon="-0.62495">
        <ele>216.09</ele>
        <time>2021-09-01T05:34:10.307Z</time>
      </trkpt>
      <trkpt lat="48.59434" lon="-0.62495">
        <ele>216.09</ele>
        <time>2021-09-01T05:34:50.354Z</time>
      </trkpt>
      <trkpt lat="48.59415" lon="-0.62497">
        <ele>216.15</ele>
        <time>2021-09-01T05:35:30.404Z</time>
      </trkpt>
      <trkpt lat="48.59415" lon="-0.62497">
        <ele>216.15</ele>
        <time>2021-09-01T05:36:10.454Z</time>
      </trkpt>
      <trkpt lat="48.59372" lon="-0.62497">
        <ele>216.95</ele>
        <time>2021-09-01T05:36:50.511Z</time>
      </trkpt>
      <trkpt lat="48.59372" lon="-0.62497">
        <ele>216.95</ele>
        <time>2021-09-01T05:37:30.568Z</time>
      </trkpt>
      <trkpt lat="48.59344" lon="-0.62493">
        <ele>217.12</ele>
        <time>2021-09-01T05:38:10.630Z</time>
      </trkpt>
      <trkpt lat="48.59344" lon="-0.62493">
        <ele>217.12</ele>
        <time>2021-09-01T05:38:50.692Z</time>
      </trkpt>
      <trkpt lat="48.59307" lon="-0.6249">
        <ele>217.37</ele>
        <time>2021-09-01T05:39:30.760Z</time>
      </trkpt>
      <trkpt lat="48.59307" lon="-0.6249">
        <ele>217.37</ele>
        <time>2021-09-01T05:40:10.828Z</time>
      </trkpt>
      <trkpt lat="48.59299" lon="-0.625">
        <ele>217.37</ele>
        <time>2021-09-01T05:40:50.897Z</time>
      </trkpt>
      <trkpt lat="48.59299" lon="-0.625">
        <ele>217.37</ele>
        <time>2021-09-01T05:41:30.966Z</time>
      </trkpt>
      <trkpt lat="48.5929" lon="-0.625">
        <ele>217.74</ele>
        <time>2021-09-01T05:42:11.037Z</time>
      </trkpt>
      <trkpt lat="48.5929" lon="-0.625">
        <ele>217.74</ele>
        <time>2021-09-01T05:42:51.108Z</time>
      </trkpt>
      <trkpt lat="48.59276" lon="-0.62525">
        <ele>217.82</ele>
        <time>2021-09-01T05:43:31.182Z</time>
      </trkpt>
      <trkpt lat="48.59276" lon="-0.62525">
        <ele>217.82</ele>
        <time>2021-09-01T05:44:11.256Z</time>
      </trkpt>
      <trkpt lat="48.59138" lon="-0.62888">
        <ele>217.73</ele>
        <time>2021-09-01T05:44:51.375Z</time>
      </trkpt>
      <trkpt lat="48.59138" lon="-0.62888">
        <ele>217.73</ele>
        <time>2021-09-01T05:45:31.494Z</time>
      </trkpt>
      <trkpt lat="48.59121" lon="-0.62944">
        <ele>216.96</ele>
        <time>2021-09-01T05:46:11.619Z</time>
      </trkpt>
      <trkpt lat="48.59121" lon="-0.62944">
        <ele>216.96</ele>
        <time>2021-09-01T05:46:51.744Z</time>
      </trkpt>
      <trkpt lat="48.59107" lon="-0.63022">
        <ele>215.76</ele>
        <time>2021-09-01T05:47:31.878Z</time>
      </trkpt>
      <trkpt lat="48.59107" lon="-0.63022">
        <ele>215.76</ele>
        <time>2021-09-01T05:48:12.012Z</time>
      </trkpt>
      <trkpt lat="48.59102" lon="-0.63105">
        <ele>214.74</ele>
        <time>2021-09-01T05:48:52.155Z</time>
      </trkpt>
      <trkpt lat="48.59102" lon="-0.63105">
        <ele>214.74</ele>
        <time>2021-09-01T05:49:32.298Z</time>
      </trkpt>
      <trkpt lat="48.5911" lon="-0.63207">
        <ele>214.33</ele>
        <time>2021-09-01T05:50:12.452Z</time>
      </trkpt>
      <trkpt lat="48.5911" lon="-0.63207">
        <ele>214.33</ele>
        <time>2021-09-01T05:50:52.606Z</time>
      </trkpt>
      <trkpt lat="48.59122" lon="-0.63295">
        <ele>213.07</ele>
        <time>2021-09-01T05:51:32.769Z</time>
      </trkpt>
      <trkpt lat="48.59122" lon="-0.63295">
        <ele>213.07</ele>
        <time>2021-09-01T05:52:12.932Z</time>
      </trkpt>
      <trkpt lat="48.59123" lon="-0.63317">
        <ele>213.07</ele>
        <time>2021-09-01T05:52:53.098Z</time>
      </trkpt>
      <trkpt lat="48.59123" lon="-0.63317">
        <ele>213.07</ele>
        <time>2021-09-01T05:53:33.264Z</time>
      </trkpt>
      <trkpt lat="48.5911" lon="-0.63522">
        <ele>210.72</ele>
        <time>2021-09-01T05:54:13.451Z</time>
      </trkpt>
      <trkpt lat="48.5911" lon="-0.63522">
        <ele>210.72</ele>
        <time>2021-09-01T05:54:53.638Z</time>
      </trkpt>
      <trkpt lat="48.5911" lon="-0.63561">
        <ele>209.89</ele>
        <time>2021-09-01T05:55:33.830Z</time>
      </trkpt>
      <trkpt lat="48.5911" lon="-0.63561">
        <ele>209.89</ele>
        <time>2021-09-01T05:56:14.022Z</time>
      </trkpt>
      <trkpt lat="48.59113" lon="-0.63615">
        <ele>209.4</ele>
        <time>2021-09-01T05:56:54.219Z</time>
      </trkpt>
      <trkpt lat="48.59113" lon="-0.63615">
        <ele>209.4</ele>
        <time>2021-09-01T05:57:34.416Z</time>
      </trkpt>
      <trkpt lat="48.59135" lon="-0.63756">
        <ele>206.02</ele>
        <time>2021-09-01T05:58:14.629Z</time>
      </trkpt>
      <trkpt lat="48.59135" lon="-0.63756">
        <ele>206.02</ele>
        <time>2021-09-01T05:58:54.842Z</time>
      </trkpt>
      <trkpt lat="48.59143" lon="-0.6385">
        <ele>204</ele>
        <time>2021-09-01T05:59:35.065Z</time>
      </trkpt>
      <trkpt lat="48.59143" lon="-0.6385">
        <ele>204</ele>
        <time>2021-09-01T06:00:15.288Z</time>
      </trkpt>
      <trkpt lat="48.59146" lon="-0.64324">
        <ele>198.97</ele>
        <time>2021-09-01T06:00:55.561Z</time>
      </trkpt>
      <trkpt lat="48.59146" lon="-0.64324">
        <ele>198.97</ele>
        <time>2021-09-01T06:01:35.834Z</time>
      </trkpt>
      <trkpt lat="48.59144" lon="-0.64346">
        <ele>199.13</ele>
        <time>2021-09-01T06:02:16.109Z</time>
      </trkpt>
      <trkpt lat="48.59144" lon="-0.64346">
        <ele>199.13</ele>
        <time>2021-09-01T06:02:56.384Z</time>
      </trkpt>
      <trkpt lat="48.59141" lon="-0.64349">
        <ele>199.13</ele>
        <time>2021-09-01T06:03:36.660Z</time>
      </trkpt>
      <trkpt lat="48.59141" lon="-0.64349">
        <ele>199.13</ele>
        <time>2021-09-01T06:04:16.936Z</time>
      </trkpt>
      <trkpt lat="48.59171" lon="-0.64443">
        <ele>197.65</ele>
        <time>2021-09-01T06:04:57.223Z</time>
      </trkpt>
      <trkpt lat="48.59171" lon="-0.64443">
        <ele>197.65</ele>
        <time>2021-09-01T06:05:37.510Z</time>
      </trkpt>
      <trkpt lat="48.59183" lon="-0.64501">
        <ele>200.44</ele>
        <time>2021-09-01T06:06:17.804Z</time>
      </trkpt>
      <trkpt lat="48.59183" lon="-0.64501">
        <ele>200.44</ele>
        <time>2021-09-01T06:06:58.098Z</time>
      </trkpt>
      <trkpt lat="48.59193" lon="-0.6456">
        <ele>201</ele>
        <time>2021-09-01T06:07:38.398Z</time>
      </trkpt>
      <trkpt lat="48.59193" lon="-0.6456">
        <ele>201</ele>
        <time>2021-09-01T06:08:18.698Z</time>
      </trkpt>
      <trkpt lat="48.59254" lon="-0.64544">
        <ele>200.68</ele>
        <time>2021-09-01T06:08:59.008Z</time>
      </trkpt>
      <trkpt lat="48.59254" lon="-0.64544">
        <ele>200.68</ele>
        <time>2021-09-01T06:09:39.318Z</time>
      </trkpt>
      <trkpt lat="48.59277" lon="-0.64544">
        <ele>198.43</ele>
        <time>2021-09-01T06:10:19.632Z</time>
      </trkpt>
      <trkpt lat="48.59277" lon="-0.64544">
        <ele>198.43</ele>
        <time>2021-09-01T06:10:59.946Z</time>
      </trkpt>
      <trkpt lat="48.59307" lon="-0.64553">
        <ele>196.79</ele>
        <time>2021-09-01T06:11:40.265Z</time>
      </trkpt>
      <trkpt lat="48.59307" lon="-0.64553">
        <ele>196.79</ele>
        <time>2021-09-01T06:12:20.584Z</time>
      </trkpt>
      <trkpt lat="48.59341" lon="-0.64571">
        <ele>191.86</ele>
        <time>2021-09-01T06:13:00.908Z</time>
      </trkpt>
      <trkpt lat="48.59341" lon="-0.64571">
        <ele>191.86</ele>
        <time>2021-09-01T06:13:41.232Z</time>
      </trkpt>
      <trkpt lat="48.59347" lon="-0.64568">
        <ele>191.86</ele>
        <time>2021-09-01T06:14:21.557Z</time>
      </trkpt>
      <trkpt lat="48.59347" lon="-0.64568">
        <ele>191.86</ele>
        <time>2021-09-01T06:15:01.882Z</time>
      </trkpt>
      <trkpt lat="48.59355" lon="-0.64558">
        <ele>191.86</ele>
        <time>2021-09-01T06:15:42.209Z</time>
      </trkpt>
      <trkpt lat="48.59355" lon="-0.64558">
        <ele>191.86</ele>
        <time>2021-09-01T06:16:22.536Z</time>
      </trkpt>
      <trkpt lat="48.59371" lon="-0.64512">
        <ele>188.33</ele>
        <time>2021-09-01T06:17:02.869Z</time>
      </trkpt>
      <trkpt lat="48.59371" lon="-0.64512">
        <ele>188.33</ele>
        <time>2021-09-01T06:17:43.202Z</time>
      </trkpt>
      <trkpt lat="48.59406" lon="-0.64356">
        <ele>179.03</ele>
        <time>2021-09-01T06:18:23.552Z</time>
      </trkpt>
      <trkpt lat="48.59406" lon="-0.64356">
        <ele>179.03</ele>
        <time>2021-09-01T06:19:03.902Z</time>
      </trkpt>
      <trkpt lat="48.59418" lon="-0.64315">
        <ele>175.92</ele>
        <time>2021-09-01T06:19:44.257Z</time>
      </trkpt>
      <trkpt lat="48.59418" lon="-0.64315">
        <ele>175.92</ele>
        <time>2021-09-01T06:20:24.612Z</time>
      </trkpt>
      <trkpt lat="48.5943" lon="-0.64302">
        <ele>175.09</ele>
        <time>2021-09-01T06:21:04.969Z</time>
      </trkpt>
      <trkpt lat="48.5943" lon="-0.64302">
        <ele>175.09</ele>
        <time>2021-09-01T06:21:45.326Z</time>
      </trkpt>
      <trkpt lat="48.59445" lon="-0.64294">
        <ele>173.68</ele>
        <time>2021-09-01T06:22:25.686Z</time>
      </trkpt>
      <trkpt lat="48.59445" lon="-0.64294">
        <ele>173.68</ele>
        <time>2021-09-01T06:23:06.046Z</time>
      </trkpt>
      <trkpt lat="48.59459" lon="-0.64295">
        <ele>172.81</ele>
        <time>2021-09-01T06:23:46.408Z</time>
      </trkpt>
      <trkpt lat="48.59459" lon="-0.64295">
        <ele>172.81</ele>
        <time>2021-09-01T06:24:26.770Z</time>
      </trkpt>
      <trkpt lat="48.5947" lon="-0.643">
        <ele>172.13</ele>
        <time>2021-09-01T06:25:07.134Z</time>
      </trkpt>
      <trkpt lat="48.5947" lon="-0.643">
        <ele>172.13</ele>
        <time>2021-09-01T06:25:47.498Z</time>
      </trkpt>
      <trkpt lat="48.59489" lon="-0.64318">
        <ele>171.64</ele>
        <time>2021-09-01T06:26:27.865Z</time>
      </trkpt>
      <trkpt lat="48.59489" lon="-0.64318">
        <ele>171.64</ele>
        <time>2021-09-01T06:27:08.232Z</time>
      </trkpt>
      <trkpt lat="48.59488" lon="-0.64317">
        <ele>171.64</ele>
        <time>2021-09-01T06:27:48.600Z</time>
      </trkpt>
      <trkpt lat="48.59488" lon="-0.64317">
        <ele>171.64</ele>
        <time>2021-09-01T06:28:28.968Z</time>
      </trkpt>
      <trkpt lat="48.59554" lon="-0.64407">
        <ele>169.19</ele>
        <time>2021-09-01T06:29:09.350Z</time>
      </trkpt>
      <trkpt lat="48.59554" lon="-0.64407">
        <ele>169.19</ele>
        <time>2021-09-01T06:29:49.732Z</time>
      </trkpt>
      <trkpt lat="48.59573" lon="-0.64442">
        <ele>168.42</ele>
        <time>2021-09-01T06:30:30.119Z</time>
      </trkpt>
      <trkpt lat="48.59573" lon="-0.64442">
        <ele>168.42</ele>
        <time>2021-09-01T06:31:10.506Z</time>
      </trkpt>
      <trkpt lat="48.59594" lon="-0.64454">
        <ele>167.37</ele>
        <time>2021-09-01T06:31:50.896Z</time>
      </trkpt>
      <trkpt lat="48.59594" lon="-0.64454">
        <ele>167.37</ele>
        <time>2021-09-01T06:32:31.286Z</time>
      </trkpt>
      <trkpt lat="48.596" lon="-0.64463">
        <ele>167.24</ele>
        <time>2021-09-01T06:33:11.678Z</time>
      </trkpt>
      <trkpt lat="48.596" lon="-0.64463">
        <ele>167.24</ele>
        <time>2021-09-01T06:33:52.070Z</time>
      </trkpt>
      <trkpt lat="48.59604" lon="-0.64478">
        <ele>167.09</ele>
        <time>2021-09-01T06:34:32.463Z</time>
      </trkpt>
      <trkpt lat="48.59604" lon="-0.64478">
        <ele>167.09</ele>
        <time>2021-09-01T06:35:12.856Z</time>
      </trkpt>
      <trkpt lat="48.59605" lon="-0.64498">
        <ele>167.1</ele>
        <time>2021-09-01T06:35:53.251Z</time>
      </trkpt>
      <trkpt lat="48.59605" lon="-0.64498">
        <ele>167.1</ele>
        <time>2021-09-01T06:36:33.646Z</time>
      </trkpt>
      <trkpt lat="48.59601" lon="-0.64522">
        <ele>167.46</ele>
        <time>2021-09-01T06:37:14.044Z</time>
      </trkpt>
      <trkpt lat="48.59601" lon="-0.64522">
        <ele>167.46</ele>
        <time>2021-09-01T06:37:54.442Z</time>
      </trkpt>
      <trkpt lat="48.59597" lon="-0.64532">
        <ele>167.89</ele>
        <time>2021-09-01T06:38:34.841Z</time>
      </trkpt>
      <trkpt lat="48.59597" lon="-0.64532">
        <ele>167.89</ele>
        <time>2021-09-01T06:39:15.240Z</time>
      </trkpt>
      <trkpt lat="48.59556" lon="-0.64483">
        <ele>170.01</ele>
        <time>2021-09-01T06:39:55.648Z</time>
      </trkpt>
      <trkpt lat="48.59556" lon="-0.64483">
        <ele>170.01</ele>
        <time>2021-09-01T06:40:36.056Z</time>
      </trkpt>
      <trkpt lat="48.59524" lon="-0.64449">
        <ele>173.15</ele>
        <time>2021-09-01T06:41:16.470Z</time>
      </trkpt>
      <trkpt lat="48.59524" lon="-0.64449">
        <ele>173.15</ele>
        <time>2021-09-01T06:41:56.884Z</time>
      </trkpt>
      <trkpt lat="48.59512" lon="-0.64444">
        <ele>173.68</ele>
        <time>2021-09-01T06:42:37.300Z</time>
      </trkpt>
      <trkpt lat="48.59512" lon="-0.64444">
        <ele>173.68</ele>
        <time>2021-09-01T06:43:17.716Z</time>
      </trkpt>
      <trkpt lat="48.59498" lon="-0.64442">
        <ele>173.68</ele>
        <time>2021-09-01T06:43:58.134Z</time>
      </trkpt>
      <trkpt lat="48.59498" lon="-0.64442">
        <ele>173.68</ele>
        <time>2021-09-01T06:44:38.552Z</time>
      </trkpt>
      <trkpt lat="48.59484" lon="-0.64444">
        <ele>173.68</ele>
        <time>2021-09-01T06:45:18.972Z</time>
      </trkpt>
      <trkpt lat="48.59484" lon="-0.64444">
        <ele>173.68</ele>
        <time>2021-09-01T06:45:59.392Z</time>
      </trkpt>
      <trkpt lat="48.59471" lon="-0.64449">
        <ele>176.7</ele>
        <time>2021-09-01T06:46:39.815Z</time>
      </trkpt>
      <trkpt lat="48.59471" lon="-0.64449">
        <ele>176.7</ele>
        <time>2021-09-01T06:47:20.238Z</time>
      </trkpt>
      <trkpt lat="48.59458" lon="-0.64461">
        <ele>176.7</ele>
        <time>2021-09-01T06:48:00.663Z</time>
      </trkpt>
      <trkpt lat="48.59458" lon="-0.64461">
        <ele>176.7</ele>
        <time>2021-09-01T06:48:41.088Z</time>
      </trkpt>
      <trkpt lat="48.59447" lon="-0.64476">
        <ele>176.7</ele>
        <time>2021-09-01T06:49:21.515Z</time>
      </trkpt>
      <trkpt lat="48.59447" lon="-0.64476">
        <ele>176.7</ele>
        <time>2021-09-01T06:50:01.942Z</time>
      </trkpt>
      <trkpt lat="48.5944" lon="-0.64493">
        <ele>178.82</ele>
        <time>2021-09-01T06:50:42.372Z</time>
      </trkpt>
      <trkpt lat="48.5944" lon="-0.64493">
        <ele>178.82</ele>
        <time>2021-09-01T06:51:22.802Z</time>
      </trkpt>
      <trkpt lat="48.59435" lon="-0.64512">
        <ele>178.82</ele>
        <time>2021-09-01T06:52:03.234Z</time>
      </trkpt>
      <trkpt lat="48.59435" lon="-0.64512">
        <ele>178.82</ele>
        <time>2021-09-01T06:52:43.666Z</time>
      </trkpt>
      <trkpt lat="48.59431" lon="-0.64542">
        <ele>180.01</ele>
        <time>2021-09-01T06:53:24.101Z</time>
      </trkpt>
      <trkpt lat="48.59431" lon="-0.64542">
        <ele>180.01</ele>
        <time>2021-09-01T06:54:04.536Z</time>
      </trkpt>
      <trkpt lat="48.59429" lon="-0.64576">
        <ele>181.23</ele>
        <time>2021-09-01T06:54:44.975Z</time>
      </trkpt>
      <trkpt lat="48.59429" lon="-0.64576">
        <ele>181.23</ele>
        <time>2021-09-01T06:55:25.414Z</time>
      </trkpt>
      <trkpt lat="48.59429" lon="-0.64617">
        <ele>181.23</ele>
        <time>2021-09-01T06:56:05.857Z</time>
      </trkpt>
      <trkpt lat="48.59429" lon="-0.64617">
        <ele>181.23</ele>
        <time>2021-09-01T06:56:46.300Z</time>
      </trkpt>
      <trkpt lat="48.59431" lon="-0.64661">
        <ele>184.15</ele>
        <time>2021-09-01T06:57:26.748Z</time>
      </trkpt>
      <trkpt lat="48.59431" lon="-0.64661">
        <ele>184.15</ele>
        <time>2021-09-01T06:58:07.196Z</time>
      </trkpt>
      <trkpt lat="48.59457" lon="-0.64828">
        <ele>189.16</ele>
        <time>2021-09-01T06:58:47.662Z</time>
      </trkpt>
      <trkpt lat="48.59457" lon="-0.64828">
        <ele>189.16</ele>
        <time>2021-09-01T06:59:28.128Z</time>
      </trkpt>
      <trkpt lat="48.59483" lon="-0.65014">
        <ele>193.88</ele>
        <time>2021-09-01T07:00:08.614Z</time>
      </trkpt>
      <trkpt lat="48.59483" lon="-0.65014">
        <ele>193.88</ele>
        <time>2021-09-01T07:00:49.100Z</time>
      </trkpt>
      <trkpt lat="48.59484" lon="-0.65059">
        <ele>195.53</ele>
        <time>2021-09-01T07:01:29.591Z</time>
      </trkpt>
      <trkpt lat="48.59484" lon="-0.65059">
        <ele>195.53</ele>
        <time>2021-09-01T07:02:10.082Z</time>
      </trkpt>
      <trkpt lat="48.5948" lon="-0.65083">
        <ele>196.15</ele>
        <time>2021-09-01T07:02:50.575Z</time>
      </trkpt>
      <trkpt lat="48.5948" lon="-0.65083">
        <ele>196.15</ele>
        <time>2021-09-01T07:03:31.068Z</time>
      </trkpt>
      <trkpt lat="48.59474" lon="-0.65108">
        <ele>196.15</ele>
        <time>2021-09-01T07:04:11.564Z</time>
      </trkpt>
      <trkpt lat="48.59474" lon="-0.65108">
        <ele>196.15</ele>
        <time>2021-09-01T07:04:52.060Z</time>
      </trkpt>
      <trkpt lat="48.59467" lon="-0.65127">
        <ele>197.67</ele>
        <time>2021-09-01T07:05:32.559Z</time>
      </trkpt>
      <trkpt lat="48.59467" lon="-0.65127">
        <ele>197.67</ele>
        <time>2021-09-01T07:06:13.058Z</time>
      </trkpt>
      <trkpt lat="48.59455" lon="-0.65144">
        <ele>197.67</ele>
        <time>2021-09-01T07:06:53.559Z</time>
      </trkpt>
      <trkpt lat="48.59455" lon="-0.65144">
        <ele>197.67</ele>
        <time>2021-09-01T07:07:34.060Z</time>
      </trkpt>
      <trkpt lat="48.59444" lon="-0.65156">
        <ele>197.77</ele>
        <time>2021-09-01T07:08:14.563Z</time>
      </trkpt>
      <trkpt lat="48.59444" lon="-0.65156">
        <ele>197.77</ele>
        <time>2021-09-01T07:08:55.066Z</time>
      </trkpt>
      <trkpt lat="48.59399" lon="-0.65186">
        <ele>198.09</ele>
        <time>2021-09-01T07:09:35.577Z</time>
      </trkpt>
      <trkpt lat="48.59399" lon="-0.65186">
        <ele>198.09</ele>
        <time>2021-09-01T07:10:16.088Z</time>
      </trkpt>
      <trkpt lat="48.59377" lon="-0.6519">
        <ele>198.54</ele>
        <time>2021-09-01T07:10:56.603Z</time>
      </trkpt>
      <trkpt lat="48.59377" lon="-0.6519">
        <ele>198.54</ele>
        <time>2021-09-01T07:11:37.118Z</time>
      </trkpt>
      <trkpt lat="48.59366" lon="-0.65186">
        <ele>198.54</ele>
        <time>2021-09-01T07:12:17.635Z</time>
      </trkpt>
      <trkpt lat="48.59366" lon="-0.65186">
        <ele>198.54</ele>
        <time>2021-09-01T07:12:58.152Z</time>
      </trkpt>
      <trkpt lat="48.5935" lon="-0.65173">
        <ele>198.22</ele>
        <time>2021-09-01T07:13:38.672Z</time>
      </trkpt>
      <trkpt lat="48.5935" lon="-0.65173">
        <ele>198.22</ele>
        <time>2021-09-01T07:14:19.192Z</time>
      </trkpt>
      <trkpt lat="48.59341" lon="-0.65159">
        <ele>198.22</ele>
        <time>2021-09-01T07:14:59.714Z</time>
      </trkpt>
      <trkpt lat="48.59341" lon="-0.65159">
        <ele>198.22</ele>
        <time>2021-09-01T07:15:40.236Z</time>
      </trkpt>
      <trkpt lat="48.59331" lon="-0.65129">
        <ele>196.82</ele>
        <time>2021-09-01T07:16:20.761Z</time>
      </trkpt>
      <trkpt lat="48.59331" lon="-0.65129">
        <ele>196.82</ele>
        <time>2021-09-01T07:17:01.286Z</time>
      </trkpt>
      <trkpt lat="48.59313" lon="-0.65064">
        <ele>194.51</ele>
        <time>2021-09-01T07:17:41.819Z</time>
      </trkpt>
      <trkpt lat="48.59313" lon="-0.65064">
        <ele>194.51</ele>
        <time>2021-09-01T07:18:22.352Z</time>
      </trkpt>
      <trkpt lat="48.59301" lon="-0.65044">
        <ele>192.01</ele>
        <time>2021-09-01T07:19:02.888Z</time>
      </trkpt>
      <trkpt lat="48.59301" lon="-0.65044">
        <ele>192.01</ele>
        <time>2021-09-01T07:19:43.424Z</time>
      </trkpt>
      <trkpt lat="48.59205" lon="-0.64944">
        <ele>189.96</ele>
        <time>2021-09-01T07:20:23.978Z</time>
      </trkpt>
      <trkpt lat="48.59205" lon="-0.64944">
        <ele>189.96</ele>
        <time>2021-09-01T07:21:04.532Z</time>
      </trkpt>
      <trkpt lat="48.59194" lon="-0.6494">
        <ele>190.32</ele>
        <time>2021-09-01T07:21:45.088Z</time>
      </trkpt>
      <trkpt lat="48.59194" lon="-0.6494">
        <ele>190.32</ele>
        <time>2021-09-01T07:22:25.644Z</time>
      </trkpt>
      <trkpt lat="48.59182" lon="-0.6494">
        <ele>190.45</ele>
        <time>2021-09-01T07:23:06.202Z</time>
      </trkpt>
      <trkpt lat="48.59182" lon="-0.6494">
        <ele>190.45</ele>
        <time>2021-09-01T07:23:46.760Z</time>
      </trkpt>
      <trkpt lat="48.59166" lon="-0.64863">
        <ele>191.56</ele>
        <time>2021-09-01T07:24:27.327Z</time>
      </trkpt>
      <trkpt lat="48.59166" lon="-0.64863">
        <ele>191.56</ele>
        <time>2021-09-01T07:25:07.894Z</time>
      </trkpt>
      <trkpt lat="48.59156" lon="-0.64802">
        <ele>192.35</ele>
        <time>2021-09-01T07:25:48.467Z</time>
      </trkpt>
      <trkpt lat="48.59156" lon="-0.64802">
        <ele>192.35</ele>
        <time>2021-09-01T07:26:29.040Z</time>
      </trkpt>
      <trkpt lat="48.59147" lon="-0.64651">
        <ele>198.04</ele>
        <time>2021-09-01T07:27:09.629Z</time>
      </trkpt>
      <trkpt lat="48.59147" lon="-0.64651">
        <ele>198.04</ele>
        <time>2021-09-01T07:27:50.218Z</time>
      </trkpt>
      <trkpt lat="48.59151" lon="-0.64628">
        <ele>199.09</ele>
        <time>2021-09-01T07:28:30.810Z</time>
      </trkpt>
      <trkpt lat="48.59151" lon="-0.64628">
        <ele>199.09</ele>
        <time>2021-09-01T07:29:11.402Z</time>
      </trkpt>
      <trkpt lat="48.59188" lon="-0.64571">
        <ele>198.72</ele>
        <time>2021-09-01T07:29:52.002Z</time>
      </trkpt>
      <trkpt lat="48.59188" lon="-0.64571">
        <ele>198.72</ele>
        <time>2021-09-01T07:30:32.602Z</time>
      </trkpt>
      <trkpt lat="48.59193" lon="-0.6456">
        <ele>198.72</ele>
        <time>2021-09-01T07:31:13.204Z</time>
      </trkpt>
      <trkpt lat="48.59193" lon="-0.6456">
        <ele>198.72</ele>
        <time>2021-09-01T07:31:53.806Z</time>
      </trkpt>
      <trkpt lat="48.59183" lon="-0.64501">
        <ele>197.57</ele>
        <time>2021-09-01T07:32:34.414Z</time>
      </trkpt>
      <trkpt lat="48.59183" lon="-0.64501">
        <ele>197.57</ele>
        <time>2021-09-01T07:33:15.022Z</time>
      </trkpt>
      <trkpt lat="48.59171" lon="-0.64443">
        <ele>197.68</ele>
        <time>2021-09-01T07:33:55.637Z</time>
      </trkpt>
      <trkpt lat="48.59171" lon="-0.64443">
        <ele>197.68</ele>
        <time>2021-09-01T07:34:36.252Z</time>
      </trkpt>
      <trkpt lat="48.59141" lon="-0.64349">
        <ele>199.79</ele>
        <time>2021-09-01T07:35:16.878Z</time>
      </trkpt>
      <trkpt lat="48.59141" lon="-0.64349">
        <ele>199.79</ele>
        <time>2021-09-01T07:35:57.504Z</time>
      </trkpt>
      <trkpt lat="48.59144" lon="-0.64346">
        <ele>199.79</ele>
        <time>2021-09-01T07:36:38.130Z</time>
      </trkpt>
      <trkpt lat="48.59144" lon="-0.64346">
        <ele>199.79</ele>
        <time>2021-09-01T07:37:18.756Z</time>
      </trkpt>
      <trkpt lat="48.59146" lon="-0.64324">
        <ele>200.25</ele>
        <time>2021-09-01T07:37:59.385Z</time>
      </trkpt>
      <trkpt lat="48.59146" lon="-0.64324">
        <ele>200.25</ele>
        <time>2021-09-01T07:38:40.014Z</time>
      </trkpt>
      <trkpt lat="48.59143" lon="-0.6385">
        <ele>210.72</ele>
        <time>2021-09-01T07:39:20.693Z</time>
      </trkpt>
      <trkpt lat="48.59143" lon="-0.6385">
        <ele>210.72</ele>
        <time>2021-09-01T07:40:01.372Z</time>
      </trkpt>
      <trkpt lat="48.59135" lon="-0.63756">
        <ele>211.62</ele>
        <time>2021-09-01T07:40:42.061Z</time>
      </trkpt>
      <trkpt lat="48.59135" lon="-0.63756">
        <ele>211.62</ele>
        <time>2021-09-01T07:41:22.750Z</time>
      </trkpt>
      <trkpt lat="48.59113" lon="-0.63615">
        <ele>213.07</ele>
        <time>2021-09-01T07:42:03.454Z</time>
      </trkpt>
      <trkpt lat="48.59113" lon="-0.63615">
        <ele>213.07</ele>
        <time>2021-09-01T07:42:44.158Z</time>
      </trkpt>
      <trkpt lat="48.5911" lon="-0.63561">
        <ele>213.68</ele>
        <time>2021-09-01T07:43:24.868Z</time>
      </trkpt>
      <trkpt lat="48.5911" lon="-0.63561">
        <ele>213.68</ele>
        <time>2021-09-01T07:44:05.578Z</time>
      </trkpt>
      <trkpt lat="48.5911" lon="-0.63522">
        <ele>214.33</ele>
        <time>2021-09-01T07:44:46.292Z</time>
      </trkpt>
      <trkpt lat="48.5911" lon="-0.63522">
        <ele>214.33</ele>
        <time>2021-09-01T07:45:27.006Z</time>
      </trkpt>
      <trkpt lat="48.59123" lon="-0.63317">
        <ele>215.76</ele>
        <time>2021-09-01T07:46:07.742Z</time>
      </trkpt>
      <trkpt lat="48.59123" lon="-0.63317">
        <ele>215.76</ele>
        <time>2021-09-01T07:46:48.478Z</time>
      </trkpt>
      <trkpt lat="48.59122" lon="-0.63295">
        <ele>216.14</ele>
        <time>2021-09-01T07:47:29.217Z</time>
      </trkpt>
      <trkpt lat="48.59122" lon="-0.63295">
        <ele>216.14</ele>
        <time>2021-09-01T07:48:09.956Z</time>
      </trkpt>
      <trkpt lat="48.5911" lon="-0.63207">
        <ele>217.73</ele>
        <time>2021-09-01T07:48:50.704Z</time>
      </trkpt>
      <trkpt lat="48.5911" lon="-0.63207">
        <ele>217.73</ele>
        <time>2021-09-01T07:49:31.452Z</time>
      </trkpt>
      <trkpt lat="48.59102" lon="-0.63105">
        <ele>218.83</ele>
        <time>2021-09-01T07:50:12.211Z</time>
      </trkpt>
      <trkpt lat="48.59102" lon="-0.63105">
        <ele>218.83</ele>
        <time>2021-09-01T07:50:52.970Z</time>
      </trkpt>
      <trkpt lat="48.59107" lon="-0.63022">
        <ele>218.68</ele>
        <time>2021-09-01T07:51:33.738Z</time>
      </trkpt>
      <trkpt lat="48.59107" lon="-0.63022">
        <ele>218.68</ele>
        <time>2021-09-01T07:52:14.506Z</time>
      </trkpt>
      <trkpt lat="48.59121" lon="-0.62944">
        <ele>218.65</ele>
        <time>2021-09-01T07:52:55.282Z</time>
      </trkpt>
      <trkpt lat="48.59121" lon="-0.62944">
        <ele>218.65</ele>
        <time>2021-09-01T07:53:36.058Z</time>
      </trkpt>
      <trkpt lat="48.59138" lon="-0.62888">
        <ele>218.21</ele>
        <time>2021-09-01T07:54:16.841Z</time>
      </trkpt>
      <trkpt lat="48.59138" lon="-0.62888">
        <ele>218.21</ele>
        <time>2021-09-01T07:54:57.624Z</time>
      </trkpt>
      <trkpt lat="48.59276" lon="-0.62525">
        <ele>216.96</ele>
        <time>2021-09-01T07:55:38.451Z</time>
      </trkpt>
      <trkpt lat="48.59276" lon="-0.62525">
        <ele>216.96</ele>
        <time>2021-09-01T07:56:19.278Z</time>
      </trkpt>
      <trkpt lat="48.59276" lon="-0.62512">
        <ele>217</ele>
        <time>2021-09-01T07:57:00.107Z</time>
      </trkpt>
      <trkpt lat="48.59276" lon="-0.62512">
        <ele>217</ele>
        <time>2021-09-01T07:57:40.936Z</time>
      </trkpt>
      <trkpt lat="48.59281" lon="-0.62492">
        <ele>217.04</ele>
        <time>2021-09-01T07:58:21.767Z</time>
      </trkpt>
      <trkpt lat="48.59281" lon="-0.62492">
        <ele>217.04</ele>
        <time>2021-09-01T07:59:02.598Z</time>
      </trkpt>
      <trkpt lat="48.59277" lon="-0.62478">
        <ele>217.25</ele>
        <time>2021-09-01T07:59:43.431Z</time>
      </trkpt>
      <trkpt lat="48.59277" lon="-0.62478">
        <ele>217.25</ele>
        <time>2021-09-01T08:00:24.264Z</time>
      </trkpt>
      <trkpt lat="48.59279" lon="-0.62466">
        <ele>217.65</ele>
        <time>2021-09-01T08:01:05.098Z</time>
      </trkpt>
      <trkpt lat="48.59279" lon="-0.62466">
        <ele>217.65</ele>
        <time>2021-09-01T08:01:45.932Z</time>
      </trkpt>
      <trkpt lat="48.59286" lon="-0.62456">
        <ele>217.65</ele>
        <time>2021-09-01T08:02:26.768Z</time>
      </trkpt>
      <trkpt lat="48.59286" lon="-0.62456">
        <ele>217.65</ele>
        <time>2021-09-01T08:03:07.604Z</time>
      </trkpt>
      <trkpt lat="48.59296" lon="-0.62452">
        <ele>217.9</ele>
        <time>2021-09-01T08:03:48.441Z</time>
      </trkpt>
      <trkpt lat="48.59296" lon="-0.62452">
        <ele>217.9</ele>
        <time>2021-09-01T08:04:29.278Z</time>
      </trkpt>
      <trkpt lat="48.59316" lon="-0.62415">
        <ele>218.86</ele>
        <time>2021-09-01T08:05:10.120Z</time>
      </trkpt>
      <trkpt lat="48.59316" lon="-0.62415">
        <ele>218.86</ele>
        <time>2021-09-01T08:05:50.962Z</time>
      </trkpt>
      <trkpt lat="48.59437" lon="-0.62109">
        <ele>226.1</ele>
        <time>2021-09-01T08:06:31.842Z</time>
      </trkpt>
      <trkpt lat="48.59437" lon="-0.62109">
        <ele>226.1</ele>
        <time>2021-09-01T08:07:12.722Z</time>
      </trkpt>
      <trkpt lat="48.59521" lon="-0.61875">
        <ele>228.82</ele>
        <time>2021-09-01T08:07:53.630Z</time>
      </trkpt>
      <trkpt lat="48.59521" lon="-0.61875">
        <ele>228.82</ele>
        <time>2021-09-01T08:08:34.538Z</time>
      </trkpt>
      <trkpt lat="48.59546" lon="-0.61768">
        <ele>229.92</ele>
        <time>2021-09-01T08:09:15.458Z</time>
      </trkpt>
      <trkpt lat="48.59546" lon="-0.61768">
        <ele>229.92</ele>
        <time>2021-09-01T08:09:56.378Z</time>
      </trkpt>
      <trkpt lat="48.59551" lon="-0.61734">
        <ele>230.37</ele>
        <time>2021-09-01T08:10:37.302Z</time>
      </trkpt>
      <trkpt lat="48.59551" lon="-0.61734">
        <ele>230.37</ele>
        <time>2021-09-01T08:11:18.226Z</time>
      </trkpt>
      <trkpt lat="48.59555" lon="-0.61663">
        <ele>231.83</ele>
        <time>2021-09-01T08:11:59.158Z</time>
      </trkpt>
      <trkpt lat="48.59555" lon="-0.61663">
        <ele>231.83</ele>
        <time>2021-09-01T08:12:40.090Z</time>
      </trkpt>
      <trkpt lat="48.5955" lon="-0.61587">
        <ele>233.97</ele>
        <time>2021-09-01T08:13:21.030Z</time>
      </trkpt>
      <trkpt lat="48.5955" lon="-0.61587">
        <ele>233.97</ele>
        <time>2021-09-01T08:14:01.970Z</time>
      </trkpt>
      <trkpt lat="48.59476" lon="-0.60824">
        <ele>242.2</ele>
        <time>2021-09-01T08:14:42.992Z</time>
      </trkpt>
      <trkpt lat="48.59476" lon="-0.60824">
        <ele>242.2</ele>
        <time>2021-09-01T08:15:24.014Z</time>
      </trkpt>
      <trkpt lat="48.59418" lon="-0.60249">
        <ele>240.01</ele>
        <time>2021-09-01T08:16:05.098Z</time>
      </trkpt>
      <trkpt lat="48.59418" lon="-0.60249">
        <ele>240.01</ele>
        <time>2021-09-01T08:16:46.182Z</time>
      </trkpt>
      <trkpt lat="48.59228" lon="-0.57604">
        <ele>218.13</ele>
        <time>2021-09-01T08:17:27.548Z</time>
      </trkpt>
      <trkpt lat="48.59228" lon="-0.57604">
        <ele>218.13</ele>
        <time>2021-09-01T08:18:08.914Z</time>
      </trkpt>
      <trkpt lat="48.59225" lon="-0.57538">
        <ele>220.38</ele>
        <time>2021-09-01T08:18:50.287Z</time>
      </trkpt>
      <trkpt lat="48.59225" lon="-0.57538">
        <ele>220.38</ele>
        <time>2021-09-01T08:19:31.660Z</time>
      </trkpt>
      <trkpt lat="48.59156" lon="-0.56527">
        <ele>215.45</ele>
        <time>2021-09-01T08:20:13.141Z</time>
      </trkpt>
      <trkpt lat="48.59156" lon="-0.56527">
        <ele>215.45</ele>
        <time>2021-09-01T08:20:54.622Z</time>
      </trkpt>
      <trkpt lat="48.59119" lon="-0.56001">
        <ele>207.25</ele>
        <time>2021-09-01T08:21:36.159Z</time>
      </trkpt>
      <trkpt lat="48.59119" lon="-0.56001">
        <ele>207.25</ele>
        <time>2021-09-01T08:22:17.696Z</time>
      </trkpt>
      <trkpt lat="48.59102" lon="-0.55781">
        <ele>198.53</ele>
        <time>2021-09-01T08:22:59.257Z</time>
      </trkpt>
      <trkpt lat="48.59102" lon="-0.55781">
        <ele>198.53</ele>
        <time>2021-09-01T08:23:40.818Z</time>
      </trkpt>
      <trkpt lat="48.5908" lon="-0.55425">
        <ele>198.57</ele>
        <time>2021-09-01T08:24:22.417Z</time>
      </trkpt>
      <trkpt lat="48.5908" lon="-0.55425">
        <ele>198.57</ele>
        <time>2021-09-01T08:25:04.016Z</time>
      </trkpt>
      <trkpt lat="48.59041" lon="-0.54927">
        <ele>213.74</ele>
        <time>2021-09-01T08:25:45.668Z</time>
      </trkpt>
      <trkpt lat="48.59041" lon="-0.54927">
        <ele>213.74</ele>
        <time>2021-09-01T08:26:27.320Z</time>
      </trkpt>
      <trkpt lat="48.59" lon="-0.5433">
        <ele>217.67</ele>
        <time>2021-09-01T08:27:09.036Z</time>
      </trkpt>
      <trkpt lat="48.59" lon="-0.5433">
        <ele>217.67</ele>
        <time>2021-09-01T08:27:50.752Z</time>
      </trkpt>
      <trkpt lat="48.58945" lon="-0.53566">
        <ele>206.29</ele>
        <time>2021-09-01T08:28:32.549Z</time>
      </trkpt>
      <trkpt lat="48.58945" lon="-0.53566">
        <ele>206.29</ele>
        <time>2021-09-01T08:29:14.346Z</time>
      </trkpt>
      <trkpt lat="48.58908" lon="-0.52769">
        <ele>228.02</ele>
        <time>2021-09-01T08:29:56.228Z</time>
      </trkpt>
      <trkpt lat="48.58908" lon="-0.52769">
        <ele>228.02</ele>
        <time>2021-09-01T08:30:38.110Z</time>
      </trkpt>
      <trkpt lat="48.58916" lon="-0.51988">
        <ele>239.47</ele>
        <time>2021-09-01T08:31:20.075Z</time>
      </trkpt>
      <trkpt lat="48.58916" lon="-0.51988">
        <ele>239.47</ele>
        <time>2021-09-01T08:32:02.040Z</time>
      </trkpt>
      <trkpt lat="48.58914" lon="-0.51505">
        <ele>244.07</ele>
        <time>2021-09-01T08:32:44.057Z</time>
      </trkpt>
      <trkpt lat="48.58914" lon="-0.51505">
        <ele>244.07</ele>
        <time>2021-09-01T08:33:26.074Z</time>
      </trkpt>
      <trkpt lat="48.58782" lon="-0.48974">
        <ele>258.64</ele>
        <time>2021-09-01T08:34:08.360Z</time>
      </trkpt>
      <trkpt lat="48.58782" lon="-0.48974">
        <ele>258.64</ele>
        <time>2021-09-01T08:34:50.646Z</time>
      </trkpt>
      <trkpt lat="48.58754" lon="-0.48975">
        <ele>257.28</ele>
        <time>2021-09-01T08:35:32.937Z</time>
      </trkpt>
      <trkpt lat="48.58754" lon="-0.48975">
        <ele>257.28</ele>
        <time>2021-09-01T08:36:15.228Z</time>
      </trkpt>
      <trkpt lat="48.58748" lon="-0.4897">
        <ele>257.28</ele>
        <time>2021-09-01T08:36:57.520Z</time>
      </trkpt>
      <trkpt lat="48.58748" lon="-0.4897">
        <ele>257.28</ele>
        <time>2021-09-01T08:37:39.812Z</time>
      </trkpt>
      <trkpt lat="48.58744" lon="-0.48964">
        <ele>257.28</ele>
        <time>2021-09-01T08:38:22.105Z</time>
      </trkpt>
      <trkpt lat="48.58744" lon="-0.48964">
        <ele>257.28</ele>
        <time>2021-09-01T08:39:04.398Z</time>
      </trkpt>
      <trkpt lat="48.58739" lon="-0.48946">
        <ele>256.44</ele>
        <time>2021-09-01T08:39:46.693Z</time>
      </trkpt>
      <trkpt lat="48.58739" lon="-0.48946">
        <ele>256.44</ele>
        <time>2021-09-01T08:40:28.988Z</time>
      </trkpt>
      <trkpt lat="48.58737" lon="-0.48914">
        <ele>256.44</ele>
        <time>2021-09-01T08:41:11.286Z</time>
      </trkpt>
      <trkpt lat="48.58737" lon="-0.48914">
        <ele>256.44</ele>
        <time>2021-09-01T08:41:53.584Z</time>
      </trkpt>
      <trkpt lat="48.58731" lon="-0.48886">
        <ele>255.45</ele>
        <time>2021-09-01T08:42:35.885Z</time>
      </trkpt>
      <trkpt lat="48.58731" lon="-0.48886">
        <ele>255.45</ele>
        <time>2021-09-01T08:43:18.186Z</time>
      </trkpt>
      <trkpt lat="48.58397" lon="-0.48076">
        <ele>233.31</ele>
        <time>2021-09-01T08:44:00.589Z</time>
      </trkpt>
      <trkpt lat="48.58397" lon="-0.48076">
        <ele>233.31</ele>
        <time>2021-09-01T08:44:42.992Z</time>
      </trkpt>
      <trkpt lat="48.58233" lon="-0.47688">
        <ele>233.02</ele>
        <time>2021-09-01T08:45:25.444Z</time>
      </trkpt>
      <trkpt lat="48.58233" lon="-0.47688">
        <ele>233.02</ele>
        <time>2021-09-01T08:46:07.896Z</time>
      </trkpt>
      <trkpt lat="48.58088" lon="-0.47334">
        <ele>239.27</ele>
        <time>2021-09-01T08:46:50.392Z</time>
      </trkpt>
      <trkpt lat="48.58088" lon="-0.47334">
        <ele>239.27</ele>
        <time>2021-09-01T08:47:32.888Z</time>
      </trkpt>
      <trkpt lat="48.57706" lon="-0.46416">
        <ele>250.6</ele>
        <time>2021-09-01T08:48:15.499Z</time>
      </trkpt>
      <trkpt lat="48.57706" lon="-0.46416">
        <ele>250.6</ele>
        <time>2021-09-01T08:48:58.110Z</time>
      </trkpt>
      <trkpt lat="48.56467" lon="-0.43448">
        <ele>192</ele>
        <time>2021-09-01T08:49:41.094Z</time>
      </trkpt>
      <trkpt lat="48.56467" lon="-0.43448">
        <ele>192</ele>
        <time>2021-09-01T08:50:24.078Z</time>
      </trkpt>
      <trkpt lat="48.56452" lon="-0.43418">
        <ele>191.78</ele>
        <time>2021-09-01T08:51:07.066Z</time>
      </trkpt>
      <trkpt lat="48.56452" lon="-0.43418">
        <ele>191.78</ele>
        <time>2021-09-01T08:51:50.054Z</time>
      </trkpt>
      <trkpt lat="48.56434" lon="-0.43372">
        <ele>191.06</ele>
        <time>2021-09-01T08:52:33.047Z</time>
      </trkpt>
      <trkpt lat="48.56434" lon="-0.43372">
        <ele>191.06</ele>
        <time>2021-09-01T08:53:16.040Z</time>
      </trkpt>
      <trkpt lat="48.56126" lon="-0.42635">
        <ele>199.56</ele>
        <time>2021-09-01T08:53:59.126Z</time>
      </trkpt>
      <trkpt lat="48.56126" lon="-0.42635">
        <ele>199.56</ele>
        <time>2021-09-01T08:54:42.212Z</time>
      </trkpt>
      <trkpt lat="48.56118" lon="-0.42626">
        <ele>199.56</ele>
        <time>2021-09-01T08:55:25.299Z</time>
      </trkpt>
      <trkpt lat="48.56118" lon="-0.42626">
        <ele>199.56</ele>
        <time>2021-09-01T08:56:08.386Z</time>
      </trkpt>
      <trkpt lat="48.56107" lon="-0.42625">
        <ele>198.67</ele>
        <time>2021-09-01T08:56:51.475Z</time>
      </trkpt>
      <trkpt lat="48.56107" lon="-0.42625">
        <ele>198.67</ele>
        <time>2021-09-01T08:57:34.564Z</time>
      </trkpt>
      <trkpt lat="48.56103" lon="-0.42602">
        <ele>198.67</ele>
        <time>2021-09-01T08:58:17.656Z</time>
      </trkpt>
      <trkpt lat="48.56103" lon="-0.42602">
        <ele>198.67</ele>
        <time>2021-09-01T08:59:00.748Z</time>
      </trkpt>
      <trkpt lat="48.56096" lon="-0.42569">
        <ele>197.96</ele>
        <time>2021-09-01T08:59:43.843Z</time>
      </trkpt>
      <trkpt lat="48.56096" lon="-0.42569">
        <ele>197.96</ele>
        <time>2021-09-01T09:00:26.938Z</time>
      </trkpt>
      <trkpt lat="48.55817" lon="-0.41972">
        <ele>186.09</ele>
        <time>2021-09-01T09:01:10.111Z</time>
      </trkpt>
      <trkpt lat="48.55817" lon="-0.41972">
        <ele>186.09</ele>
        <time>2021-09-01T09:01:53.284Z</time>
      </trkpt>
      <trkpt lat="48.5579" lon="-0.41911">
        <ele>183.83</ele>
        <time>2021-09-01T09:02:36.465Z</time>
      </trkpt>
      <trkpt lat="48.5579" lon="-0.41911">
        <ele>183.83</ele>
        <time>2021-09-01T09:03:19.646Z</time>
      </trkpt>
      <trkpt lat="48.55736" lon="-0.41793">
        <ele>184.81</ele>
        <time>2021-09-01T09:04:02.842Z</time>
      </trkpt>
      <trkpt lat="48.55736" lon="-0.41793">
        <ele>184.81</ele>
        <time>2021-09-01T09:04:46.038Z</time>
      </trkpt>
      <trkpt lat="48.5572" lon="-0.4177">
        <ele>185.26</ele>
        <time>2021-09-01T09:05:29.238Z</time>
      </trkpt>
      <trkpt lat="48.5572" lon="-0.4177">
        <ele>185.26</ele>
        <time>2021-09-01T09:06:12.438Z</time>
      </trkpt>
      <trkpt lat="48.55714" lon="-0.4177">
        <ele>185.26</ele>
        <time>2021-09-01T09:06:55.639Z</time>
      </trkpt>
      <trkpt lat="48.55714" lon="-0.4177">
        <ele>185.26</ele>
        <time>2021-09-01T09:07:38.840Z</time>
      </trkpt>
      <trkpt lat="48.557" lon="-0.41753">
        <ele>185.81</ele>
        <time>2021-09-01T09:08:22.043Z</time>
      </trkpt>
      <trkpt lat="48.557" lon="-0.41753">
        <ele>185.81</ele>
        <time>2021-09-01T09:09:05.246Z</time>
      </trkpt>
      <trkpt lat="48.55697" lon="-0.41755">
        <ele>185.81</ele>
        <time>2021-09-01T09:09:48.450Z</time>
      </trkpt>
      <trkpt lat="48.55697" lon="-0.41755">
        <ele>185.81</ele>
        <time>2021-09-01T09:10:31.654Z</time>
      </trkpt>
      <trkpt lat="48.55692" lon="-0.41755">
        <ele>185.81</ele>
        <time>2021-09-01T09:11:14.859Z</time>
      </trkpt>
      <trkpt lat="48.55692" lon="-0.41755">
        <ele>185.81</ele>
        <time>2021-09-01T09:11:58.064Z</time>
      </trkpt>
      <trkpt lat="48.55688" lon="-0.41749">
        <ele>185.81</ele>
        <time>2021-09-01T09:12:41.270Z</time>
      </trkpt>
      <trkpt lat="48.55688" lon="-0.41749">
        <ele>185.81</ele>
        <time>2021-09-01T09:13:24.476Z</time>
      </trkpt>
      <trkpt lat="48.55689" lon="-0.41733">
        <ele>185.26</ele>
        <time>2021-09-01T09:14:07.683Z</time>
      </trkpt>
      <trkpt lat="48.55689" lon="-0.41733">
        <ele>185.26</ele>
        <time>2021-09-01T09:14:50.890Z</time>
      </trkpt>
      <trkpt lat="48.55694" lon="-0.4173">
        <ele>185.26</ele>
        <time>2021-09-01T09:15:34.098Z</time>
      </trkpt>
      <trkpt lat="48.55694" lon="-0.4173">
        <ele>185.26</ele>
        <time>2021-09-01T09:16:17.306Z</time>
      </trkpt>
      <trkpt lat="48.55685" lon="-0.41676">
        <ele>183.94</ele>
        <time>2021-09-01T09:17:00.520Z</time>
      </trkpt>
      <trkpt lat="48.55685" lon="-0.41676">
        <ele>183.94</ele>
        <time>2021-09-01T09:17:43.734Z</time>
      </trkpt>
      <trkpt lat="48.55683" lon="-0.41647">
        <ele>183.37</ele>
        <time>2021-09-01T09:18:26.951Z</time>
      </trkpt>
      <trkpt lat="48.55683" lon="-0.41647">
        <ele>183.37</ele>
        <time>2021-09-01T09:19:10.168Z</time>
      </trkpt>
      <trkpt lat="48.55692" lon="-0.4161">
        <ele>183.5</ele>
        <time>2021-09-01T09:19:53.389Z</time>
      </trkpt>
      <trkpt lat="48.55692" lon="-0.4161">
        <ele>183.5</ele>
        <time>2021-09-01T09:20:36.610Z</time>
      </trkpt>
      <trkpt lat="48.55683" lon="-0.41647">
        <ele>181.43</ele>
        <time>2021-09-01T09:21:19.836Z</time>
      </trkpt>
      <trkpt lat="48.55683" lon="-0.41647">
        <ele>181.43</ele>
        <time>2021-09-01T09:22:03.062Z</time>
      </trkpt>
      <trkpt lat="48.55685" lon="-0.41676">
        <ele>180.59</ele>
        <time>2021-09-01T09:22:46.291Z</time>
      </trkpt>
      <trkpt lat="48.55685" lon="-0.41676">
        <ele>180.59</ele>
        <time>2021-09-01T09:23:29.520Z</time>
      </trkpt>
      <trkpt lat="48.55694" lon="-0.4173">
        <ele>179.65</ele>
        <time>2021-09-01T09:24:12.755Z</time>
      </trkpt>
      <trkpt lat="48.55694" lon="-0.4173">
        <ele>179.65</ele>
        <time>2021-09-01T09:24:55.990Z</time>
      </trkpt>
      <trkpt lat="48.55701" lon="-0.41736">
        <ele>179.1</ele>
        <time>2021-09-01T09:25:39.226Z</time>
      </trkpt>
      <trkpt lat="48.55701" lon="-0.41736">
        <ele>179.1</ele>
        <time>2021-09-01T09:26:22.462Z</time>
      </trkpt>
      <trkpt lat="48.55704" lon="-0.41741">
        <ele>179.1</ele>
        <time>2021-09-01T09:27:05.699Z</time>
      </trkpt>
      <trkpt lat="48.55704" lon="-0.41741">
        <ele>179.1</ele>
        <time>2021-09-01T09:27:48.936Z</time>
      </trkpt>
      <trkpt lat="48.557" lon="-0.41753">
        <ele>178.81</ele>
        <time>2021-09-01T09:28:32.174Z</time>
      </trkpt>
      <trkpt lat="48.557" lon="-0.41753">
        <ele>178.81</ele>
        <time>2021-09-01T09:29:15.412Z</time>
      </trkpt>
      <trkpt lat="48.55697" lon="-0.41755">
        <ele>178.81</ele>
        <time>2021-09-01T09:29:58.651Z</time>
      </trkpt>
      <trkpt lat="48.55697" lon="-0.41755">
        <ele>178.81</ele>
        <time>2021-09-01T09:30:41.890Z</time>
      </trkpt>
      <trkpt lat="48.55692" lon="-0.41755">
        <ele>178.65</ele>
        <time>2021-09-01T09:31:25.129Z</time>
      </trkpt>
      <trkpt lat="48.55692" lon="-0.41755">
        <ele>178.65</ele>
        <time>2021-09-01T09:32:08.368Z</time>
      </trkpt>
      <trkpt lat="48.55688" lon="-0.41749">
        <ele>178.65</ele>
        <time>2021-09-01T09:32:51.608Z</time>
      </trkpt>
      <trkpt lat="48.55688" lon="-0.41749">
        <ele>178.65</ele>
        <time>2021-09-01T09:33:34.848Z</time>
      </trkpt>
      <trkpt lat="48.55679" lon="-0.4176">
        <ele>178.51</ele>
        <time>2021-09-01T09:34:18.090Z</time>
      </trkpt>
      <trkpt lat="48.55679" lon="-0.4176">
        <ele>178.51</ele>
        <time>2021-09-01T09:35:01.332Z</time>
      </trkpt>
      <trkpt lat="48.55662" lon="-0.41773">
        <ele>178.15</ele>
        <time>2021-09-01T09:35:44.577Z</time>
      </trkpt>
      <trkpt lat="48.55662" lon="-0.41773">
        <ele>178.15</ele>
        <time>2021-09-01T09:36:27.822Z</time>
      </trkpt>
      <trkpt lat="48.55581" lon="-0.41827">
        <ele>177.41</ele>
        <time>2021-09-01T09:37:11.081Z</time>
      </trkpt>
      <trkpt lat="48.55581" lon="-0.41827">
        <ele>177.41</ele>
        <time>2021-09-01T09:37:54.340Z</time>
      </trkpt>
      <trkpt lat="48.55562" lon="-0.41836">
        <ele>177.41</ele>
        <time>2021-09-01T09:38:37.603Z</time>
      </trkpt>
      <trkpt lat="48.55562" lon="-0.41836">
        <ele>177.41</ele>
        <time>2021-09-01T09:39:20.866Z</time>
      </trkpt>
      <trkpt lat="48.55549" lon="-0.41836">
        <ele>177.39</ele>
        <time>2021-09-01T09:40:04.131Z</time>
      </trkpt>
      <trkpt lat="48.55549" lon="-0.41836">
        <ele>177.39</ele>
        <time>2021-09-01T09:40:47.396Z</time>
      </trkpt>
      <trkpt lat="48.55516" lon="-0.41827">
        <ele>177.31</ele>
        <time>2021-09-01T09:41:30.666Z</time>
      </trkpt>
      <trkpt lat="48.55516" lon="-0.41827">
        <ele>177.31</ele>
        <time>2021-09-01T09:42:13.936Z</time>
      </trkpt>
      <trkpt lat="48.55494" lon="-0.41808">
        <ele>177.09</ele>
        <time>2021-09-01T09:42:57.210Z</time>
      </trkpt>
      <trkpt lat="48.55494" lon="-0.41808">
        <ele>177.09</ele>
        <time>2021-09-01T09:43:40.484Z</time>
      </trkpt>
      <trkpt lat="48.55477" lon="-0.41787">
        <ele>177.09</ele>
        <time>2021-09-01T09:44:23.762Z</time>
      </trkpt>
      <trkpt lat="48.55477" lon="-0.41787">
        <ele>177.09</ele>
        <time>2021-09-01T09:45:07.040Z</time>
      </trkpt>
      <trkpt lat="48.55414" lon="-0.41715">
        <ele>175.74</ele>
        <time>2021-09-01T09:45:50.330Z</time>
      </trkpt>
      <trkpt lat="48.55414" lon="-0.41715">
        <ele>175.74</ele>
        <time>2021-09-01T09:46:33.620Z</time>
      </trkpt>
      <trkpt lat="48.55338" lon="-0.41632">
        <ele>173.88</ele>
        <time>2021-09-01T09:47:16.925Z</time>
      </trkpt>
      <trkpt lat="48.55338" lon="-0.41632">
        <ele>173.88</ele>
        <time>2021-09-01T09:48:00.230Z</time>
      </trkpt>
      <trkpt lat="48.55315" lon="-0.41618">
        <ele>173.68</ele>
        <time>2021-09-01T09:48:43.539Z</time>
      </trkpt>
      <trkpt lat="48.55315" lon="-0.41618">
        <ele>173.68</ele>
        <time>2021-09-01T09:49:26.848Z</time>
      </trkpt>
      <trkpt lat="48.55302" lon="-0.41611">
        <ele>173.57</ele>
        <time>2021-09-01T09:50:10.159Z</time>
      </trkpt>
      <trkpt lat="48.55302" lon="-0.41611">
        <ele>173.57</ele>
        <time>2021-09-01T09:50:53.470Z</time>
      </trkpt>
      <trkpt lat="48.55285" lon="-0.41609">
        <ele>173.57</ele>
        <time>2021-09-01T09:51:36.784Z</time>
      </trkpt>
      <trkpt lat="48.55285" lon="-0.41609">
        <ele>173.57</ele>
        <time>2021-09-01T09:52:20.098Z</time>
      </trkpt>
      <trkpt lat="48.55268" lon="-0.41619">
        <ele>173.44</ele>
        <time>2021-09-01T09:53:03.415Z</time>
      </trkpt>
      <trkpt lat="48.55268" lon="-0.41619">
        <ele>173.44</ele>
        <time>2021-09-01T09:53:46.732Z</time>
      </trkpt>
      <trkpt lat="48.55262" lon="-0.41625">
        <ele>173.44</ele>
        <time>2021-09-01T09:54:30.050Z</time>
      </trkpt>
      <trkpt lat="48.55262" lon="-0.41625">
        <ele>173.44</ele>
        <time>2021-09-01T09:55:13.368Z</time>
      </trkpt>
      <trkpt lat="48.55242" lon="-0.41653">
        <ele>173.81</ele>
        <time>2021-09-01T09:55:56.691Z</time>
      </trkpt>
      <trkpt lat="48.55242" lon="-0.41653">
        <ele>173.81</ele>
        <time>2021-09-01T09:56:40.014Z</time>
      </trkpt>
      <trkpt lat="48.55219" lon="-0.41703">
        <ele>174.3</ele>
        <time>2021-09-01T09:57:23.343Z</time>
      </trkpt>
      <trkpt lat="48.55219" lon="-0.41703">
        <ele>174.3</ele>
        <time>2021-09-01T09:58:06.672Z</time>
      </trkpt>
      <trkpt lat="48.55207" lon="-0.41754">
        <ele>175.4</ele>
        <time>2021-09-01T09:58:50.007Z</time>
      </trkpt>
      <trkpt lat="48.55207" lon="-0.41754">
        <ele>175.4</ele>
        <time>2021-09-01T09:59:33.342Z</time>
      </trkpt>
      <trkpt lat="48.55209" lon="-0.41758">
        <ele>175.4</ele>
        <time>2021-09-01T10:00:16.677Z</time>
      </trkpt>
      <trkpt lat="48.55209" lon="-0.41758">
        <ele>175.4</ele>
        <time>2021-09-01T10:01:00.012Z</time>
      </trkpt>
      <trkpt lat="48.55208" lon="-0.41764">
        <ele>175.61</ele>
        <time>2021-09-01T10:01:43.348Z</time>
      </trkpt>
      <trkpt lat="48.55208" lon="-0.41764">
        <ele>175.61</ele>
        <time>2021-09-01T10:02:26.684Z</time>
      </trkpt>
      <trkpt lat="48.55205" lon="-0.41768">
        <ele>175.61</ele>
        <time>2021-09-01T10:03:10.021Z</time>
      </trkpt>
      <trkpt lat="48.55205" lon="-0.41768">
        <ele>175.61</ele>
        <time>2021-09-01T10:03:53.358Z</time>
      </trkpt>
      <trkpt lat="48.55199" lon="-0.41825">
        <ele>175.93</ele>
        <time>2021-09-01T10:04:36.701Z</time>
      </trkpt>
      <trkpt lat="48.55199" lon="-0.41825">
        <ele>175.93</ele>
        <time>2021-09-01T10:05:20.044Z</time>
      </trkpt>
      <trkpt lat="48.55184" lon="-0.41903">
        <ele>176.98</ele>
        <time>2021-09-01T10:06:03.395Z</time>
      </trkpt>
      <trkpt lat="48.55184" lon="-0.41903">
        <ele>176.98</ele>
        <time>2021-09-01T10:06:46.746Z</time>
      </trkpt>
      <trkpt lat="48.55173" lon="-0.41923">
        <ele>177.54</ele>
        <time>2021-09-01T10:07:30.100Z</time>
      </trkpt>
      <trkpt lat="48.55173" lon="-0.41923">
        <ele>177.54</ele>
        <time>2021-09-01T10:08:13.454Z</time>
      </trkpt>
      <trkpt lat="48.55119" lon="-0.42016">
        <ele>179.86</ele>
        <time>2021-09-01T10:08:56.821Z</time>
      </trkpt>
      <trkpt lat="48.55119" lon="-0.42016">
        <ele>179.86</ele>
        <time>2021-09-01T10:09:40.188Z</time>
      </trkpt>
      <trkpt lat="48.55096" lon="-0.42075">
        <ele>181.08</ele>
        <time>2021-09-01T10:10:23.563Z</time>
      </trkpt>
      <trkpt lat="48.55096" lon="-0.42075">
        <ele>181.08</ele>
        <time>2021-09-01T10:11:06.938Z</time>
      </trkpt>
      <trkpt lat="48.5508" lon="-0.42122">
        <ele>181.95</ele>
        <time>2021-09-01T10:11:50.318Z</time>
      </trkpt>
      <trkpt lat="48.5508" lon="-0.42122">
        <ele>181.95</ele>
        <time>2021-09-01T10:12:33.698Z</time>
      </trkpt>
      <trkpt lat="48.55054" lon="-0.42227">
        <ele>183.36</ele>
        <time>2021-09-01T10:13:17.090Z</time>
      </trkpt>
      <trkpt lat="48.55054" lon="-0.42227">
        <ele>183.36</ele>
        <time>2021-09-01T10:14:00.482Z</time>
      </trkpt>
      <trkpt lat="48.55031" lon="-0.42301">
        <ele>183.91</ele>
        <time>2021-09-01T10:14:43.883Z</time>
      </trkpt>
      <trkpt lat="48.55031" lon="-0.42301">
        <ele>183.91</ele>
        <time>2021-09-01T10:15:27.284Z</time>
      </trkpt>
      <trkpt lat="48.55021" lon="-0.42323">
        <ele>183.88</ele>
        <time>2021-09-01T10:16:10.688Z</time>
      </trkpt>
      <trkpt lat="48.55021" lon="-0.42323">
        <ele>183.88</ele>
        <time>2021-09-01T10:16:54.092Z</time>
      </trkpt>
      <trkpt lat="48.5498" lon="-0.42438">
        <ele>183.88</ele>
        <time>2021-09-01T10:17:37.510Z</time>
      </trkpt>
      <trkpt lat="48.5498" lon="-0.42438">
        <ele>183.88</ele>
        <time>2021-09-01T10:18:20.928Z</time>
      </trkpt>
      <trkpt lat="48.54962" lon="-0.42529">
        <ele>181.3</ele>
        <time>2021-09-01T10:19:04.356Z</time>
      </trkpt>
      <trkpt lat="48.54962" lon="-0.42529">
        <ele>181.3</ele>
        <time>2021-09-01T10:19:47.784Z</time>
      </trkpt>
      <trkpt lat="48.54945" lon="-0.42579">
        <ele>180.87</ele>
        <time>2021-09-01T10:20:31.218Z</time>
      </trkpt>
      <trkpt lat="48.54945" lon="-0.42579">
        <ele>180.87</ele>
        <time>2021-09-01T10:21:14.652Z</time>
      </trkpt>
      <trkpt lat="48.54912" lon="-0.42551">
        <ele>180.82</ele>
        <time>2021-09-01T10:21:58.092Z</time>
      </trkpt>
      <trkpt lat="48.54912" lon="-0.42551">
        <ele>180.82</ele>
        <time>2021-09-01T10:22:41.532Z</time>
      </trkpt>
      <trkpt lat="48.54905" lon="-0.42564">
        <ele>180.69</ele>
        <time>2021-09-01T10:23:24.973Z</time>
      </trkpt>
      <trkpt lat="48.54905" lon="-0.42564">
        <ele>180.69</ele>
        <time>2021-09-01T10:24:08.414Z</time>
      </trkpt>
      <trkpt lat="48.54888" lon="-0.42618">
        <ele>179.81</ele>
        <time>2021-09-01T10:24:51.862Z</time>
      </trkpt>
      <trkpt lat="48.54888" lon="-0.42618">
        <ele>179.81</ele>
        <time>2021-09-01T10:25:35.310Z</time>
      </trkpt>
      <trkpt lat="48.54866" lon="-0.42669">
        <ele>178.82</ele>
        <time>2021-09-01T10:26:18.764Z</time>
      </trkpt>
      <trkpt lat="48.54866" lon="-0.42669">
        <ele>178.82</ele>
        <time>2021-09-01T10:27:02.218Z</time>
      </trkpt>
      <trkpt lat="48.54855" lon="-0.42679">
        <ele>178.6</ele>
        <time>2021-09-01T10:27:45.674Z</time>
      </trkpt>
      <trkpt lat="48.54855" lon="-0.42679">
        <ele>178.6</ele>
        <time>2021-09-01T10:28:29.130Z</time>
      </trkpt>
      <trkpt lat="48.54843" lon="-0.42675">
        <ele>178.6</ele>
        <time>2021-09-01T10:29:12.588Z</time>
      </trkpt>
      <trkpt lat="48.54843" lon="-0.42675">
        <ele>178.6</ele>
        <time>2021-09-01T10:29:56.046Z</time>
      </trkpt>
      <trkpt lat="48.54787" lon="-0.42637">
        <ele>177.84</ele>
        <time>2021-09-01T10:30:39.514Z</time>
      </trkpt>
      <trkpt lat="48.54787" lon="-0.42637">
        <ele>177.84</ele>
        <time>2021-09-01T10:31:22.982Z</time>
      </trkpt>
      <trkpt lat="48.54749" lon="-0.42642">
        <ele>177.46</ele>
        <time>2021-09-01T10:32:06.456Z</time>
      </trkpt>
      <trkpt lat="48.54749" lon="-0.42642">
        <ele>177.46</ele>
        <time>2021-09-01T10:32:49.930Z</time>
      </trkpt>
      <trkpt lat="48.54693" lon="-0.42663">
        <ele>176.93</ele>
        <time>2021-09-01T10:33:33.414Z</time>
      </trkpt>
      <trkpt lat="48.54693" lon="-0.42663">
        <ele>176.93</ele>
        <time>2021-09-01T10:34:16.898Z</time>
      </trkpt>
      <trkpt lat="48.54679" lon="-0.42663">
        <ele>176.78</ele>
        <time>2021-09-01T10:35:00.384Z</time>
      </trkpt>
      <trkpt lat="48.54679" lon="-0.42663">
        <ele>176.78</ele>
        <time>2021-09-01T10:35:43.870Z</time>
      </trkpt>
      <trkpt lat="48.54656" lon="-0.42657">
        <ele>176.49</ele>
        <time>2021-09-01T10:36:27.359Z</time>
      </trkpt>
      <trkpt lat="48.54656" lon="-0.42657">
        <ele>176.49</ele>
        <time>2021-09-01T10:37:10.848Z</time>
      </trkpt>
      <trkpt lat="48.54628" lon="-0.4266">
        <ele>175.94</ele>
        <time>2021-09-01T10:37:54.342Z</time>
      </trkpt>
      <trkpt lat="48.54628" lon="-0.4266">
        <ele>175.94</ele>
        <time>2021-09-01T10:38:37.836Z</time>
      </trkpt>
      <trkpt lat="48.54603" lon="-0.42674">
        <ele>175.52</ele>
        <time>2021-09-01T10:39:21.334Z</time>
      </trkpt>
      <trkpt lat="48.54603" lon="-0.42674">
        <ele>175.52</ele>
        <time>2021-09-01T10:40:04.832Z</time>
      </trkpt>
      <trkpt lat="48.54548" lon="-0.42725">
        <ele>174.46</ele>
        <time>2021-09-01T10:40:48.341Z</time>
      </trkpt>
      <trkpt lat="48.54548" lon="-0.42725">
        <ele>174.46</ele>
        <time>2021-09-01T10:41:31.850Z</time>
      </trkpt>
      <trkpt lat="48.5452" lon="-0.42746">
        <ele>173.18</ele>
        <time>2021-09-01T10:42:15.364Z</time>
      </trkpt>
      <trkpt lat="48.5452" lon="-0.42746">
        <ele>173.18</ele>
        <time>2021-09-01T10:42:58.878Z</time>
      </trkpt>
      <trkpt lat="48.54488" lon="-0.42762">
        <ele>172.89</ele>
        <time>2021-09-01T10:43:42.397Z</time>
      </trkpt>
      <trkpt lat="48.54488" lon="-0.42762">
        <ele>172.89</ele>
        <time>2021-09-01T10:44:25.916Z</time>
      </trkpt>
      <trkpt lat="48.54459" lon="-0.42764">
        <ele>172.54</ele>
        <time>2021-09-01T10:45:09.440Z</time>
      </trkpt>
      <trkpt lat="48.54459" lon="-0.42764">
        <ele>172.54</ele>
        <time>2021-09-01T10:45:52.964Z</time>
      </trkpt>
      <trkpt lat="48.54421" lon="-0.42758">
        <ele>171.73</ele>
        <time>2021-09-01T10:46:36.494Z</time>
      </trkpt>
      <trkpt lat="48.54421" lon="-0.42758">
        <ele>171.73</ele>
        <time>2021-09-01T10:47:20.024Z</time>
      </trkpt>
      <trkpt lat="48.54371" lon="-0.42739">
        <ele>171.39</ele>
        <time>2021-09-01T10:48:03.562Z</time>
      </trkpt>
      <trkpt lat="48.54371" lon="-0.42739">
        <ele>171.39</ele>
        <time>2021-09-01T10:48:47.100Z</time>
      </trkpt>
      <trkpt lat="48.54321" lon="-0.42724">
        <ele>170.7</ele>
        <time>2021-09-01T10:49:30.646Z</time>
      </trkpt>
      <trkpt lat="48.54321" lon="-0.42724">
        <ele>170.7</ele>
        <time>2021-09-01T10:50:14.192Z</time>
      </trkpt>
      <trkpt lat="48.54295" lon="-0.42724">
        <ele>170.43</ele>
        <time>2021-09-01T10:50:57.742Z</time>
      </trkpt>
      <trkpt lat="48.54295" lon="-0.42724">
        <ele>170.43</ele>
        <time>2021-09-01T10:51:41.292Z</time>
      </trkpt>
      <trkpt lat="48.54267" lon="-0.42726">
        <ele>170.26</ele>
        <time>2021-09-01T10:52:24.847Z</time>
      </trkpt>
      <trkpt lat="48.54267" lon="-0.42726">
        <ele>170.26</ele>
        <time>2021-09-01T10:53:08.402Z</time>
      </trkpt>
      <trkpt lat="48.54201" lon="-0.42735">
        <ele>169.16</ele>
        <time>2021-09-01T10:53:51.967Z</time>
      </trkpt>
      <trkpt lat="48.54201" lon="-0.42735">
        <ele>169.16</ele>
        <time>2021-09-01T10:54:35.532Z</time>
      </trkpt>
      <trkpt lat="48.54184" lon="-0.42736">
        <ele>168.61</ele>
        <time>2021-09-01T10:55:19.100Z</time>
      </trkpt>
      <trkpt lat="48.54184" lon="-0.42736">
        <ele>168.61</ele>
        <time>2021-09-01T10:56:02.668Z</time>
      </trkpt>
      <trkpt lat="48.54147" lon="-0.42725">
        <ele>168.2</ele>
        <time>2021-09-01T10:56:46.242Z</time>
      </trkpt>
      <trkpt lat="48.54147" lon="-0.42725">
        <ele>168.2</ele>
        <time>2021-09-01T10:57:29.816Z</time>
      </trkpt>
      <trkpt lat="48.54122" lon="-0.4273">
        <ele>167.77</ele>
        <time>2021-09-01T10:58:13.394Z</time>
      </trkpt>
      <trkpt lat="48.54122" lon="-0.4273">
        <ele>167.77</ele>
        <time>2021-09-01T10:58:56.972Z</time>
      </trkpt>
      <trkpt lat="48.54097" lon="-0.42747">
        <ele>166.97</ele>
        <time>2021-09-01T10:59:40.555Z</time>
      </trkpt>
      <trkpt lat="48.54097" lon="-0.42747">
        <ele>166.97</ele>
        <time>2021-09-01T11:00:24.138Z</time>
      </trkpt>
      <trkpt lat="48.54083" lon="-0.42763">
        <ele>166.47</ele>
        <time>2021-09-01T11:01:07.723Z</time>
      </trkpt>
      <trkpt lat="48.54083" lon="-0.42763">
        <ele>166.47</ele>
        <time>2021-09-01T11:01:51.308Z</time>
      </trkpt>
      <trkpt lat="48.54018" lon="-0.42853">
        <ele>165.53</ele>
        <time>2021-09-01T11:02:34.908Z</time>
      </trkpt>
      <trkpt lat="48.54018" lon="-0.42853">
        <ele>165.53</ele>
        <time>2021-09-01T11:03:18.508Z</time>
      </trkpt>
      <trkpt lat="48.54001" lon="-0.42865">
        <ele>165.19</ele>
        <time>2021-09-01T11:04:02.111Z</time>
      </trkpt>
      <trkpt lat="48.54001" lon="-0.42865">
        <ele>165.19</ele>
        <time>2021-09-01T11:04:45.714Z</time>
      </trkpt>
      <trkpt lat="48.53981" lon="-0.4287">
        <ele>165.08</ele>
        <time>2021-09-01T11:05:29.320Z</time>
      </trkpt>
      <trkpt lat="48.53981" lon="-0.4287">
        <ele>165.08</ele>
        <time>2021-09-01T11:06:12.926Z</time>
      </trkpt>
      <trkpt lat="48.53963" lon="-0.42869">
        <ele>164.81</ele>
        <time>2021-09-01T11:06:56.535Z</time>
      </trkpt>
      <trkpt lat="48.53963" lon="-0.42869">
        <ele>164.81</ele>
        <time>2021-09-01T11:07:40.144Z</time>
      </trkpt>
      <trkpt lat="48.5394" lon="-0.42862">
        <ele>163.95</ele>
        <time>2021-09-01T11:08:23.756Z</time>
      </trkpt>
      <trkpt lat="48.5394" lon="-0.42862">
        <ele>163.95</ele>
        <time>2021-09-01T11:09:07.368Z</time>
      </trkpt>
      <trkpt lat="48.53895" lon="-0.42824">
        <ele>161.65</ele>
        <time>2021-09-01T11:09:50.989Z</time>
      </trkpt>
      <trkpt lat="48.53895" lon="-0.42824">
        <ele>161.65</ele>
        <time>2021-09-01T11:10:34.610Z</time>
      </trkpt>
      <trkpt lat="48.53876" lon="-0.42813">
        <ele>159.36</ele>
        <time>2021-09-01T11:11:18.234Z</time>
      </trkpt>
      <trkpt lat="48.53876" lon="-0.42813">
        <ele>159.36</ele>
        <time>2021-09-01T11:12:01.858Z</time>
      </trkpt>
      <trkpt lat="48.53858" lon="-0.42808">
        <ele>158.43</ele>
        <time>2021-09-01T11:12:45.485Z</time>
      </trkpt>
      <trkpt lat="48.53858" lon="-0.42808">
        <ele>158.43</ele>
        <time>2021-09-01T11:13:29.112Z</time>
      </trkpt>
      <trkpt lat="48.53838" lon="-0.42813">
        <ele>157.94</ele>
        <time>2021-09-01T11:14:12.742Z</time>
      </trkpt>
      <trkpt lat="48.53838" lon="-0.42813">
        <ele>157.94</ele>
        <time>2021-09-01T11:14:56.372Z</time>
      </trkpt>
      <trkpt lat="48.53772" lon="-0.42837">
        <ele>160.41</ele>
        <time>2021-09-01T11:15:40.013Z</time>
      </trkpt>
      <trkpt lat="48.53772" lon="-0.42837">
        <ele>160.41</ele>
        <time>2021-09-01T11:16:23.654Z</time>
      </trkpt>
      <trkpt lat="48.53756" lon="-0.42852">
        <ele>161.9</ele>
        <time>2021-09-01T11:17:07.298Z</time>
      </trkpt>
      <trkpt lat="48.53756" lon="-0.42852">
        <ele>161.9</ele>
        <time>2021-09-01T11:17:50.942Z</time>
      </trkpt>
      <trkpt lat="48.53743" lon="-0.42874">
        <ele>163.57</ele>
        <time>2021-09-01T11:18:34.589Z</time>
      </trkpt>
      <trkpt lat="48.53743" lon="-0.42874">
        <ele>163.57</ele>
        <time>2021-09-01T11:19:18.236Z</time>
      </trkpt>
      <trkpt lat="48.53733" lon="-0.42896">
        <ele>165.09</ele>
        <time>2021-09-01T11:20:01.886Z</time>
      </trkpt>
      <trkpt lat="48.53733" lon="-0.42896">
        <ele>165.09</ele>
        <time>2021-09-01T11:20:45.536Z</time>
      </trkpt>
      <trkpt lat="48.53727" lon="-0.42923">
        <ele>166.68</ele>
        <time>2021-09-01T11:21:29.189Z</time>
      </trkpt>
      <trkpt lat="48.53727" lon="-0.42923">
        <ele>166.68</ele>
        <time>2021-09-01T11:22:12.842Z</time>
      </trkpt>
      <trkpt lat="48.53727" lon="-0.42946">
        <ele>167.48</ele>
        <time>2021-09-01T11:22:56.498Z</time>
      </trkpt>
      <trkpt lat="48.53727" lon="-0.42946">
        <ele>167.48</ele>
        <time>2021-09-01T11:23:40.154Z</time>
      </trkpt>
      <trkpt lat="48.53737" lon="-0.43018">
        <ele>169.36</ele>
        <time>2021-09-01T11:24:23.817Z</time>
      </trkpt>
      <trkpt lat="48.53737" lon="-0.43018">
        <ele>169.36</ele>
        <time>2021-09-01T11:25:07.480Z</time>
      </trkpt>
      <trkpt lat="48.53738" lon="-0.43035">
        <ele>170.07</ele>
        <time>2021-09-01T11:25:51.145Z</time>
      </trkpt>
      <trkpt lat="48.53738" lon="-0.43035">
        <ele>170.07</ele>
        <time>2021-09-01T11:26:34.810Z</time>
      </trkpt>
      <trkpt lat="48.53734" lon="-0.43052">
        <ele>170.07</ele>
        <time>2021-09-01T11:27:18.477Z</time>
      </trkpt>
      <trkpt lat="48.53734" lon="-0.43052">
        <ele>170.07</ele>
        <time>2021-09-01T11:28:02.144Z</time>
      </trkpt>
      <trkpt lat="48.53679" lon="-0.43207">
        <ele>172.62</ele>
        <time>2021-09-01T11:28:45.830Z</time>
      </trkpt>
      <trkpt lat="48.53679" lon="-0.43207">
        <ele>172.62</ele>
        <time>2021-09-01T11:29:29.516Z</time>
      </trkpt>
      <trkpt lat="48.53654" lon="-0.43252">
        <ele>173.21</ele>
        <time>2021-09-01T11:30:13.208Z</time>
      </trkpt>
      <trkpt lat="48.53654" lon="-0.43252">
        <ele>173.21</ele>
        <time>2021-09-01T11:30:56.900Z</time>
      </trkpt>
      <trkpt lat="48.53628" lon="-0.43286">
        <ele>173.66</ele>
        <time>2021-09-01T11:31:40.598Z</time>
      </trkpt>
      <trkpt lat="48.53628" lon="-0.43286">
        <ele>173.66</ele>
        <time>2021-09-01T11:32:24.296Z</time>
      </trkpt>
      <trkpt lat="48.53603" lon="-0.43308">
        <ele>174.68</ele>
        <time>2021-09-01T11:33:07.998Z</time>
      </trkpt>
      <trkpt lat="48.53603" lon="-0.43308">
        <ele>174.68</ele>
        <time>2021-09-01T11:33:51.700Z</time>
      </trkpt>
      <trkpt lat="48.5359" lon="-0.43314">
        <ele>175.49</ele>
        <time>2021-09-01T11:34:35.404Z</time>
      </trkpt>
      <trkpt lat="48.5359" lon="-0.43314">
        <ele>175.49</ele>
        <time>2021-09-01T11:35:19.108Z</time>
      </trkpt>
      <trkpt lat="48.5354" lon="-0.43343">
        <ele>176.92</ele>
        <time>2021-09-01T11:36:02.821Z</time>
      </trkpt>
      <trkpt lat="48.5354" lon="-0.43343">
        <ele>176.92</ele>
        <time>2021-09-01T11:36:46.534Z</time>
      </trkpt>
      <trkpt lat="48.53461" lon="-0.43395">
        <ele>178.47</ele>
        <time>2021-09-01T11:37:30.261Z</time>
      </trkpt>
      <trkpt lat="48.53461" lon="-0.43395">
        <ele>178.47</ele>
        <time>2021-09-01T11:38:13.988Z</time>
      </trkpt>
      <trkpt lat="48.5344" lon="-0.43406">
        <ele>179.03</ele>
        <time>2021-09-01T11:38:57.718Z</time>
      </trkpt>
      <trkpt lat="48.5344" lon="-0.43406">
        <ele>179.03</ele>
        <time>2021-09-01T11:39:41.448Z</time>
      </trkpt>
      <trkpt lat="48.53413" lon="-0.43413">
        <ele>179.55</ele>
        <time>2021-09-01T11:40:25.183Z</time>
      </trkpt>
      <trkpt lat="48.53413" lon="-0.43413">
        <ele>179.55</ele>
        <time>2021-09-01T11:41:08.918Z</time>
      </trkpt>
      <trkpt lat="48.53365" lon="-0.43433">
        <ele>179.84</ele>
        <time>2021-09-01T11:41:52.661Z</time>
      </trkpt>
      <trkpt lat="48.53365" lon="-0.43433">
        <ele>179.84</ele>
        <time>2021-09-01T11:42:36.404Z</time>
      </trkpt>
      <trkpt lat="48.53341" lon="-0.4344">
        <ele>180.61</ele>
        <time>2021-09-01T11:43:20.151Z</time>
      </trkpt>
      <trkpt lat="48.53341" lon="-0.4344">
        <ele>180.61</ele>
        <time>2021-09-01T11:44:03.898Z</time>
      </trkpt>
      <trkpt lat="48.53318" lon="-0.43429">
        <ele>181.17</ele>
        <time>2021-09-01T11:44:47.648Z</time>
      </trkpt>
      <trkpt lat="48.53318" lon="-0.43429">
        <ele>181.17</ele>
        <time>2021-09-01T11:45:31.398Z</time>
      </trkpt>
      <trkpt lat="48.53295" lon="-0.43414">
        <ele>182.06</ele>
        <time>2021-09-01T11:46:15.152Z</time>
      </trkpt>
      <trkpt lat="48.53295" lon="-0.43414">
        <ele>182.06</ele>
        <time>2021-09-01T11:46:58.906Z</time>
      </trkpt>
      <trkpt lat="48.53271" lon="-0.4339">
        <ele>182.65</ele>
        <time>2021-09-01T11:47:42.665Z</time>
      </trkpt>
      <trkpt lat="48.53271" lon="-0.4339">
        <ele>182.65</ele>
        <time>2021-09-01T11:48:26.424Z</time>
      </trkpt>
      <trkpt lat="48.53257" lon="-0.4338">
        <ele>182.65</ele>
        <time>2021-09-01T11:49:10.186Z</time>
      </trkpt>
      <trkpt lat="48.53257" lon="-0.4338">
        <ele>182.65</ele>
        <time>2021-09-01T11:49:53.948Z</time>
      </trkpt>
      <trkpt lat="48.53227" lon="-0.43375">
        <ele>183.83</ele>
        <time>2021-09-01T11:50:37.714Z</time>
      </trkpt>
      <trkpt lat="48.53227" lon="-0.43375">
        <ele>183.83</ele>
        <time>2021-09-01T11:51:21.480Z</time>
      </trkpt>
      <trkpt lat="48.53067" lon="-0.43363">
        <ele>183.87</ele>
        <time>2021-09-01T11:52:05.272Z</time>
      </trkpt>
      <trkpt lat="48.53067" lon="-0.43363">
        <ele>183.87</ele>
        <time>2021-09-01T11:52:49.064Z</time>
      </trkpt>
      <trkpt lat="48.53008" lon="-0.43363">
        <ele>182.51</ele>
        <time>2021-09-01T11:53:32.865Z</time>
      </trkpt>
      <trkpt lat="48.53008" lon="-0.43363">
        <ele>182.51</ele>
        <time>2021-09-01T11:54:16.666Z</time>
      </trkpt>
      <trkpt lat="48.52976" lon="-0.43368">
        <ele>181.62</ele>
        <time>2021-09-01T11:55:00.473Z</time>
      </trkpt>
      <trkpt lat="48.52976" lon="-0.43368">
        <ele>181.62</ele>
        <time>2021-09-01T11:55:44.280Z</time>
      </trkpt>
      <trkpt lat="48.52902" lon="-0.4339">
        <ele>180.08</ele>
        <time>2021-09-01T11:56:28.099Z</time>
      </trkpt>
      <trkpt lat="48.52902" lon="-0.4339">
        <ele>180.08</ele>
        <time>2021-09-01T11:57:11.918Z</time>
      </trkpt>
      <trkpt lat="48.5287" lon="-0.43392">
        <ele>179.25</ele>
        <time>2021-09-01T11:57:55.742Z</time>
      </trkpt>
      <trkpt lat="48.5287" lon="-0.43392">
        <ele>179.25</ele>
        <time>2021-09-01T11:58:39.566Z</time>
      </trkpt>
      <trkpt lat="48.52843" lon="-0.43374">
        <ele>178.75</ele>
        <time>2021-09-01T11:59:23.395Z</time>
      </trkpt>
      <trkpt lat="48.52843" lon="-0.43374">
        <ele>178.75</ele>
        <time>2021-09-01T12:00:07.224Z</time>
      </trkpt>
      <trkpt lat="48.52825" lon="-0.43356">
        <ele>177.98</ele>
        <time>2021-09-01T12:00:51.056Z</time>
      </trkpt>
      <trkpt lat="48.52825" lon="-0.43356">
        <ele>177.98</ele>
        <time>2021-09-01T12:01:34.888Z</time>
      </trkpt>
      <trkpt lat="48.5281" lon="-0.43335">
        <ele>177.37</ele>
        <time>2021-09-01T12:02:18.723Z</time>
      </trkpt>
      <trkpt lat="48.5281" lon="-0.43335">
        <ele>177.37</ele>
        <time>2021-09-01T12:03:02.558Z</time>
      </trkpt>
      <trkpt lat="48.52746" lon="-0.43207">
        <ele>165.95</ele>
        <time>2021-09-01T12:03:46.410Z</time>
      </trkpt>
      <trkpt lat="48.52746" lon="-0.43207">
        <ele>165.95</ele>
        <time>2021-09-01T12:04:30.262Z</time>
      </trkpt>
      <trkpt lat="48.52726" lon="-0.4318">
        <ele>163.73</ele>
        <time>2021-09-01T12:05:14.119Z</time>
      </trkpt>
      <trkpt lat="48.52726" lon="-0.4318">
        <ele>163.73</ele>
        <time>2021-09-01T12:05:57.976Z</time>
      </trkpt>
      <trkpt lat="48.52719" lon="-0.43176">
        <ele>163.73</ele>
        <time>2021-09-01T12:06:41.834Z</time>
      </trkpt>
      <trkpt lat="48.52719" lon="-0.43176">
        <ele>163.73</ele>
        <time>2021-09-01T12:07:25.692Z</time>
      </trkpt>
      <trkpt lat="48.52638" lon="-0.43168">
        <ele>155.27</ele>
        <time>2021-09-01T12:08:09.563Z</time>
      </trkpt>
      <trkpt lat="48.52638" lon="-0.43168">
        <ele>155.27</ele>
        <time>2021-09-01T12:08:53.434Z</time>
      </trkpt>
      <trkpt lat="48.52626" lon="-0.43169">
        <ele>154.35</ele>
        <time>2021-09-01T12:09:37.307Z</time>
      </trkpt>
      <trkpt lat="48.52626" lon="-0.43169">
        <ele>154.35</ele>
        <time>2021-09-01T12:10:21.180Z</time>
      </trkpt>
      <trkpt lat="48.52619" lon="-0.43172">
        <ele>154.35</ele>
        <time>2021-09-01T12:11:05.054Z</time>
      </trkpt>
      <trkpt lat="48.52619" lon="-0.43172">
        <ele>154.35</ele>
        <time>2021-09-01T12:11:48.928Z</time>
      </trkpt>
      <trkpt lat="48.52592" lon="-0.43204">
        <ele>152.9</ele>
        <time>2021-09-01T12:12:32.807Z</time>
      </trkpt>
      <trkpt lat="48.52592" lon="-0.43204">
        <ele>152.9</ele>
        <time>2021-09-01T12:13:16.686Z</time>
      </trkpt>
      <trkpt lat="48.52563" lon="-0.43234">
        <ele>152.66</ele>
        <time>2021-09-01T12:14:00.571Z</time>
      </trkpt>
      <trkpt lat="48.52563" lon="-0.43234">
        <ele>152.66</ele>
        <time>2021-09-01T12:14:44.456Z</time>
      </trkpt>
      <trkpt lat="48.52518" lon="-0.43266">
        <ele>150.98</ele>
        <time>2021-09-01T12:15:28.349Z</time>
      </trkpt>
      <trkpt lat="48.52518" lon="-0.43266">
        <ele>150.98</ele>
        <time>2021-09-01T12:16:12.242Z</time>
      </trkpt>
      <trkpt lat="48.52411" lon="-0.43357">
        <ele>148.59</ele>
        <time>2021-09-01T12:16:56.155Z</time>
      </trkpt>
      <trkpt lat="48.52411" lon="-0.43357">
        <ele>148.59</ele>
        <time>2021-09-01T12:17:40.068Z</time>
      </trkpt>
      <trkpt lat="48.52373" lon="-0.43392">
        <ele>148.01</ele>
        <time>2021-09-01T12:18:23.988Z</time>
      </trkpt>
      <trkpt lat="48.52373" lon="-0.43392">
        <ele>148.01</ele>
        <time>2021-09-01T12:19:07.908Z</time>
      </trkpt>
      <trkpt lat="48.52314" lon="-0.43486">
        <ele>146.45</ele>
        <time>2021-09-01T12:19:51.842Z</time>
      </trkpt>
      <trkpt lat="48.52314" lon="-0.43486">
        <ele>146.45</ele>
        <time>2021-09-01T12:20:35.776Z</time>
      </trkpt>
      <trkpt lat="48.52292" lon="-0.43512">
        <ele>146.17</ele>
        <time>2021-09-01T12:21:19.714Z</time>
      </trkpt>
      <trkpt lat="48.52292" lon="-0.43512">
        <ele>146.17</ele>
        <time>2021-09-01T12:22:03.652Z</time>
      </trkpt>
      <trkpt lat="48.5225" lon="-0.43546">
        <ele>146.16</ele>
        <time>2021-09-01T12:22:47.598Z</time>
      </trkpt>
      <trkpt lat="48.5225" lon="-0.43546">
        <ele>146.16</ele>
        <time>2021-09-01T12:23:31.544Z</time>
      </trkpt>
      <trkpt lat="48.5219" lon="-0.4359">
        <ele>147.11</ele>
        <time>2021-09-01T12:24:15.500Z</time>
      </trkpt>
      <trkpt lat="48.5219" lon="-0.4359">
        <ele>147.11</ele>
        <time>2021-09-01T12:24:59.456Z</time>
      </trkpt>
      <trkpt lat="48.52172" lon="-0.43618">
        <ele>147.6</ele>
        <time>2021-09-01T12:25:43.417Z</time>
      </trkpt>
      <trkpt lat="48.52172" lon="-0.43618">
        <ele>147.6</ele>
        <time>2021-09-01T12:26:27.378Z</time>
      </trkpt>
      <trkpt lat="48.52148" lon="-0.43662">
        <ele>147.75</ele>
        <time>2021-09-01T12:27:11.345Z</time>
      </trkpt>
      <trkpt lat="48.52148" lon="-0.43662">
        <ele>147.75</ele>
        <time>2021-09-01T12:27:55.312Z</time>
      </trkpt>
      <trkpt lat="48.5212" lon="-0.43724">
        <ele>147.39</ele>
        <time>2021-09-01T12:28:39.287Z</time>
      </trkpt>
      <trkpt lat="48.5212" lon="-0.43724">
        <ele>147.39</ele>
        <time>2021-09-01T12:29:23.262Z</time>
      </trkpt>
      <trkpt lat="48.52078" lon="-0.43796">
        <ele>146.25</ele>
        <time>2021-09-01T12:30:07.247Z</time>
      </trkpt>
      <trkpt lat="48.52078" lon="-0.43796">
        <ele>146.25</ele>
        <time>2021-09-01T12:30:51.232Z</time>
      </trkpt>
      <trkpt lat="48.52037" lon="-0.43859">
        <ele>144.57</ele>
        <time>2021-09-01T12:31:35.226Z</time>
      </trkpt>
      <trkpt lat="48.52037" lon="-0.43859">
        <ele>144.57</ele>
        <time>2021-09-01T12:32:19.220Z</time>
      </trkpt>
      <trkpt lat="48.51975" lon="-0.4394">
        <ele>141.39</ele>
        <time>2021-09-01T12:33:03.227Z</time>
      </trkpt>
      <trkpt lat="48.51975" lon="-0.4394">
        <ele>141.39</ele>
        <time>2021-09-01T12:33:47.234Z</time>
      </trkpt>
      <trkpt lat="48.51921" lon="-0.43996">
        <ele>135.32</ele>
        <time>2021-09-01T12:34:31.252Z</time>
      </trkpt>
      <trkpt lat="48.51921" lon="-0.43996">
        <ele>135.32</ele>
        <time>2021-09-01T12:35:15.270Z</time>
      </trkpt>
      <trkpt lat="48.51847" lon="-0.44056">
        <ele>130.44</ele>
        <time>2021-09-01T12:35:59.301Z</time>
      </trkpt>
      <trkpt lat="48.51847" lon="-0.44056">
        <ele>130.44</ele>
        <time>2021-09-01T12:36:43.332Z</time>
      </trkpt>
      <trkpt lat="48.51803" lon="-0.44079">
        <ele>128.82</ele>
        <time>2021-09-01T12:37:27.371Z</time>
      </trkpt>
      <trkpt lat="48.51803" lon="-0.44079">
        <ele>128.82</ele>
        <time>2021-09-01T12:38:11.410Z</time>
      </trkpt>
      <trkpt lat="48.51762" lon="-0.4409">
        <ele>127.08</ele>
        <time>2021-09-01T12:38:55.455Z</time>
      </trkpt>
      <trkpt lat="48.51762" lon="-0.4409">
        <ele>127.08</ele>
        <time>2021-09-01T12:39:39.500Z</time>
      </trkpt>
      <trkpt lat="48.51725" lon="-0.44093">
        <ele>126.95</ele>
        <time>2021-09-01T12:40:23.551Z</time>
      </trkpt>
      <trkpt lat="48.51725" lon="-0.44093">
        <ele>126.95</ele>
        <time>2021-09-01T12:41:07.602Z</time>
      </trkpt>
      <trkpt lat="48.5166" lon="-0.4408">
        <ele>127.54</ele>
        <time>2021-09-01T12:41:51.664Z</time>
      </trkpt>
      <trkpt lat="48.5166" lon="-0.4408">
        <ele>127.54</ele>
        <time>2021-09-01T12:42:35.726Z</time>
      </trkpt>
      <trkpt lat="48.5166" lon="-0.44197">
        <ele>126.96</ele>
        <time>2021-09-01T12:43:19.800Z</time>
      </trkpt>
      <trkpt lat="48.5166" lon="-0.44197">
        <ele>126.96</ele>
        <time>2021-09-01T12:44:03.874Z</time>
      </trkpt>
      <trkpt lat="48.51662" lon="-0.44232">
        <ele>126.89</ele>
        <time>2021-09-01T12:44:47.952Z</time>
      </trkpt>
      <trkpt lat="48.51662" lon="-0.44232">
        <ele>126.89</ele>
        <time>2021-09-01T12:45:32.030Z</time>
      </trkpt>
      <trkpt lat="48.51671" lon="-0.44253">
        <ele>126.89</ele>
        <time>2021-09-01T12:46:16.111Z</time>
      </trkpt>
      <trkpt lat="48.51671" lon="-0.44253">
        <ele>126.89</ele>
        <time>2021-09-01T12:47:00.192Z</time>
      </trkpt>
      <trkpt lat="48.51644" lon="-0.44442">
        <ele>125.46</ele>
        <time>2021-09-01T12:47:44.293Z</time>
      </trkpt>
      <trkpt lat="48.51644" lon="-0.44442">
        <ele>125.46</ele>
        <time>2021-09-01T12:48:28.394Z</time>
      </trkpt>
      <trkpt lat="48.51628" lon="-0.44579">
        <ele>124.56</ele>
        <time>2021-09-01T12:49:12.510Z</time>
      </trkpt>
      <trkpt lat="48.51628" lon="-0.44579">
        <ele>124.56</ele>
        <time>2021-09-01T12:49:56.626Z</time>
      </trkpt>
      <trkpt lat="48.51622" lon="-0.44674">
        <ele>122.54</ele>
        <time>2021-09-01T12:50:40.752Z</time>
      </trkpt>
      <trkpt lat="48.51622" lon="-0.44674">
        <ele>122.54</ele>
        <time>2021-09-01T12:51:24.878Z</time>
      </trkpt>
      <trkpt lat="48.51609" lon="-0.4476">
        <ele>120.8</ele>
        <time>2021-09-01T12:52:09.014Z</time>
      </trkpt>
      <trkpt lat="48.51609" lon="-0.4476">
        <ele>120.8</ele>
        <time>2021-09-01T12:52:53.150Z</time>
      </trkpt>
      <trkpt lat="48.516" lon="-0.44804">
        <ele>120.06</ele>
        <time>2021-09-01T12:53:37.290Z</time>
      </trkpt>
      <trkpt lat="48.516" lon="-0.44804">
        <ele>120.06</ele>
        <time>2021-09-01T12:54:21.430Z</time>
      </trkpt>
      <trkpt lat="48.51541" lon="-0.44774">
        <ele>119.31</ele>
        <time>2021-09-01T12:55:05.580Z</time>
      </trkpt>
      <trkpt lat="48.51541" lon="-0.44774">
        <ele>119.31</ele>
        <time>2021-09-01T12:55:49.730Z</time>
      </trkpt>
      <trkpt lat="48.5129" lon="-0.44651">
        <ele>119.5</ele>
        <time>2021-09-01T12:56:33.923Z</time>
      </trkpt>
      <trkpt lat="48.5129" lon="-0.44651">
        <ele>119.5</ele>
        <time>2021-09-01T12:57:18.116Z</time>
      </trkpt>
      <trkpt lat="48.51277" lon="-0.44657">
        <ele>119.5</ele>
        <time>2021-09-01T12:58:02.311Z</time>
      </trkpt>
      <trkpt lat="48.51277" lon="-0.44657">
        <ele>119.5</ele>
        <time>2021-09-01T12:58:46.506Z</time>
      </trkpt>
      <trkpt lat="48.50854" lon="-0.44739">
        <ele>122.84</ele>
        <time>2021-09-01T12:59:30.769Z</time>
      </trkpt>
      <trkpt lat="48.50854" lon="-0.44739">
        <ele>122.84</ele>
        <time>2021-09-01T13:00:15.032Z</time>
      </trkpt>
      <trkpt lat="48.50749" lon="-0.44746">
        <ele>126.87</ele>
        <time>2021-09-01T13:00:59.312Z</time>
      </trkpt>
      <trkpt lat="48.50749" lon="-0.44746">
        <ele>126.87</ele>
        <time>2021-09-01T13:01:43.592Z</time>
      </trkpt>
      <trkpt lat="48.5069" lon="-0.44756">
        <ele>130.78</ele>
        <time>2021-09-01T13:02:27.881Z</time>
      </trkpt>
      <trkpt lat="48.5069" lon="-0.44756">
        <ele>130.78</ele>
        <time>2021-09-01T13:03:12.170Z</time>
      </trkpt>
      <trkpt lat="48.50587" lon="-0.448">
        <ele>135.86</ele>
        <time>2021-09-01T13:03:56.477Z</time>
      </trkpt>
      <trkpt lat="48.50587" lon="-0.448">
        <ele>135.86</ele>
        <time>2021-09-01T13:04:40.784Z</time>
      </trkpt>
      <trkpt lat="48.50489" lon="-0.44823">
        <ele>136.16</ele>
        <time>2021-09-01T13:05:25.107Z</time>
      </trkpt>
      <trkpt lat="48.50489" lon="-0.44823">
        <ele>136.16</ele>
        <time>2021-09-01T13:06:09.430Z</time>
      </trkpt>
      <trkpt lat="48.50455" lon="-0.44832">
        <ele>135.65</ele>
        <time>2021-09-01T13:06:53.758Z</time>
      </trkpt>
      <trkpt lat="48.50455" lon="-0.44832">
        <ele>135.65</ele>
        <time>2021-09-01T13:07:38.086Z</time>
      </trkpt>
      <trkpt lat="48.50405" lon="-0.44851">
        <ele>134.97</ele>
        <time>2021-09-01T13:08:22.422Z</time>
      </trkpt>
      <trkpt lat="48.50405" lon="-0.44851">
        <ele>134.97</ele>
        <time>2021-09-01T13:09:06.758Z</time>
      </trkpt>
      <trkpt lat="48.5039" lon="-0.44862">
        <ele>134.82</ele>
        <time>2021-09-01T13:09:51.097Z</time>
      </trkpt>
      <trkpt lat="48.5039" lon="-0.44862">
        <ele>134.82</ele>
        <time>2021-09-01T13:10:35.436Z</time>
      </trkpt>
      <trkpt lat="48.50376" lon="-0.44878">
        <ele>134.52</ele>
        <time>2021-09-01T13:11:19.778Z</time>
      </trkpt>
      <trkpt lat="48.50376" lon="-0.44878">
        <ele>134.52</ele>
        <time>2021-09-01T13:12:04.120Z</time>
      </trkpt>
      <trkpt lat="48.50367" lon="-0.44891">
        <ele>134.52</ele>
        <time>2021-09-01T13:12:48.464Z</time>
      </trkpt>
      <trkpt lat="48.50367" lon="-0.44891">
        <ele>134.52</ele>
        <time>2021-09-01T13:13:32.808Z</time>
      </trkpt>
      <trkpt lat="48.50356" lon="-0.44917">
        <ele>134.17</ele>
        <time>2021-09-01T13:14:17.155Z</time>
      </trkpt>
      <trkpt lat="48.50356" lon="-0.44917">
        <ele>134.17</ele>
        <time>2021-09-01T13:15:01.502Z</time>
      </trkpt>
      <trkpt lat="48.50348" lon="-0.44956">
        <ele>133.59</ele>
        <time>2021-09-01T13:15:45.853Z</time>
      </trkpt>
      <trkpt lat="48.50348" lon="-0.44956">
        <ele>133.59</ele>
        <time>2021-09-01T13:16:30.204Z</time>
      </trkpt>
      <trkpt lat="48.50347" lon="-0.45006">
        <ele>133.33</ele>
        <time>2021-09-01T13:17:14.561Z</time>
      </trkpt>
      <trkpt lat="48.50347" lon="-0.45006">
        <ele>133.33</ele>
        <time>2021-09-01T13:17:58.918Z</time>
      </trkpt>
      <trkpt lat="48.50342" lon="-0.45042">
        <ele>133.09</ele>
        <time>2021-09-01T13:18:43.279Z</time>
      </trkpt>
      <trkpt lat="48.50342" lon="-0.45042">
        <ele>133.09</ele>
        <time>2021-09-01T13:19:27.640Z</time>
      </trkpt>
      <trkpt lat="48.5034" lon="-0.45056">
        <ele>133.04</ele>
        <time>2021-09-01T13:20:12.002Z</time>
      </trkpt>
      <trkpt lat="48.5034" lon="-0.45056">
        <ele>133.04</ele>
        <time>2021-09-01T13:20:56.364Z</time>
      </trkpt>
      <trkpt lat="48.50302" lon="-0.4513">
        <ele>132.88</ele>
        <time>2021-09-01T13:21:40.736Z</time>
      </trkpt>
      <trkpt lat="48.50302" lon="-0.4513">
        <ele>132.88</ele>
        <time>2021-09-01T13:22:25.108Z</time>
      </trkpt>
      <trkpt lat="48.50276" lon="-0.45192">
        <ele>132.25</ele>
        <time>2021-09-01T13:23:09.488Z</time>
      </trkpt>
      <trkpt lat="48.50276" lon="-0.45192">
        <ele>132.25</ele>
        <time>2021-09-01T13:23:53.868Z</time>
      </trkpt>
      <trkpt lat="48.50259" lon="-0.45178">
        <ele>132.25</ele>
        <time>2021-09-01T13:24:38.251Z</time>
      </trkpt>
      <trkpt lat="48.50259" lon="-0.45178">
        <ele>132.25</ele>
        <time>2021-09-01T13:25:22.634Z</time>
      </trkpt>
      <trkpt lat="48.50244" lon="-0.4515">
        <ele>131.47</ele>
        <time>2021-09-01T13:26:07.021Z</time>
      </trkpt>
      <trkpt lat="48.50244" lon="-0.4515">
        <ele>131.47</ele>
        <time>2021-09-01T13:26:51.408Z</time>
      </trkpt>
      <trkpt lat="48.50212" lon="-0.45111">
        <ele>130.68</ele>
        <time>2021-09-01T13:27:35.801Z</time>
      </trkpt>
      <trkpt lat="48.50212" lon="-0.45111">
        <ele>130.68</ele>
        <time>2021-09-01T13:28:20.194Z</time>
      </trkpt>
      <trkpt lat="48.50194" lon="-0.45101">
        <ele>130.31</ele>
        <time>2021-09-01T13:29:04.591Z</time>
      </trkpt>
      <trkpt lat="48.50194" lon="-0.45101">
        <ele>130.31</ele>
        <time>2021-09-01T13:29:48.988Z</time>
      </trkpt>
      <trkpt lat="48.50178" lon="-0.45099">
        <ele>129.46</ele>
        <time>2021-09-01T13:30:33.387Z</time>
      </trkpt>
      <trkpt lat="48.50178" lon="-0.45099">
        <ele>129.46</ele>
        <time>2021-09-01T13:31:17.786Z</time>
      </trkpt>
      <trkpt lat="48.5014" lon="-0.45111">
        <ele>128.71</ele>
        <time>2021-09-01T13:32:02.191Z</time>
      </trkpt>
      <trkpt lat="48.5014" lon="-0.45111">
        <ele>128.71</ele>
        <time>2021-09-01T13:32:46.596Z</time>
      </trkpt>
      <trkpt lat="48.50125" lon="-0.45109">
        <ele>128.49</ele>
        <time>2021-09-01T13:33:31.004Z</time>
      </trkpt>
      <trkpt lat="48.50125" lon="-0.45109">
        <ele>128.49</ele>
        <time>2021-09-01T13:34:15.412Z</time>
      </trkpt>
      <trkpt lat="48.50103" lon="-0.45111">
        <ele>128.29</ele>
        <time>2021-09-01T13:34:59.823Z</time>
      </trkpt>
      <trkpt lat="48.50103" lon="-0.45111">
        <ele>128.29</ele>
        <time>2021-09-01T13:35:44.234Z</time>
      </trkpt>
      <trkpt lat="48.50061" lon="-0.451">
        <ele>127.8</ele>
        <time>2021-09-01T13:36:28.652Z</time>
      </trkpt>
      <trkpt lat="48.50061" lon="-0.451">
        <ele>127.8</ele>
        <time>2021-09-01T13:37:13.070Z</time>
      </trkpt>
      <trkpt lat="48.49991" lon="-0.45107">
        <ele>127.26</ele>
        <time>2021-09-01T13:37:57.499Z</time>
      </trkpt>
      <trkpt lat="48.49991" lon="-0.45107">
        <ele>127.26</ele>
        <time>2021-09-01T13:38:41.928Z</time>
      </trkpt>
      <trkpt lat="48.49956" lon="-0.45107">
        <ele>127.02</ele>
        <time>2021-09-01T13:39:26.363Z</time>
      </trkpt>
      <trkpt lat="48.49956" lon="-0.45107">
        <ele>127.02</ele>
        <time>2021-09-01T13:40:10.798Z</time>
      </trkpt>
      <trkpt lat="48.49945" lon="-0.45106">
        <ele>127</ele>
        <time>2021-09-01T13:40:55.235Z</time>
      </trkpt>
      <trkpt lat="48.49945" lon="-0.45106">
        <ele>127</ele>
        <time>2021-09-01T13:41:39.672Z</time>
      </trkpt>
      <trkpt lat="48.49934" lon="-0.451">
        <ele>127</ele>
        <time>2021-09-01T13:42:24.111Z</time>
      </trkpt>
      <trkpt lat="48.49934" lon="-0.451">
        <ele>127</ele>
        <time>2021-09-01T13:43:08.550Z</time>
      </trkpt>
      <trkpt lat="48.49917" lon="-0.45084">
        <ele>127.03</ele>
        <time>2021-09-01T13:43:52.992Z</time>
      </trkpt>
      <trkpt lat="48.49917" lon="-0.45084">
        <ele>127.03</ele>
        <time>2021-09-01T13:44:37.434Z</time>
      </trkpt>
      <trkpt lat="48.49907" lon="-0.45095">
        <ele>127.02</ele>
        <time>2021-09-01T13:45:21.878Z</time>
      </trkpt>
      <trkpt lat="48.49907" lon="-0.45095">
        <ele>127.02</ele>
        <time>2021-09-01T13:46:06.322Z</time>
      </trkpt>
      <trkpt lat="48.499" lon="-0.45107">
        <ele>126.95</ele>
        <time>2021-09-01T13:46:50.767Z</time>
      </trkpt>
      <trkpt lat="48.499" lon="-0.45107">
        <ele>126.95</ele>
        <time>2021-09-01T13:47:35.212Z</time>
      </trkpt>
      <trkpt lat="48.49871" lon="-0.45191">
        <ele>126.42</ele>
        <time>2021-09-01T13:48:19.668Z</time>
      </trkpt>
      <trkpt lat="48.49871" lon="-0.45191">
        <ele>126.42</ele>
        <time>2021-09-01T13:49:04.124Z</time>
      </trkpt>
      <trkpt lat="48.49811" lon="-0.45285">
        <ele>126.06</ele>
        <time>2021-09-01T13:49:48.593Z</time>
      </trkpt>
      <trkpt lat="48.49811" lon="-0.45285">
        <ele>126.06</ele>
        <time>2021-09-01T13:50:33.062Z</time>
      </trkpt>
      <trkpt lat="48.49784" lon="-0.45317">
        <ele>126.05</ele>
        <time>2021-09-01T13:51:17.537Z</time>
      </trkpt>
      <trkpt lat="48.49784" lon="-0.45317">
        <ele>126.05</ele>
        <time>2021-09-01T13:52:02.012Z</time>
      </trkpt>
      <trkpt lat="48.49753" lon="-0.45333">
        <ele>125.98</ele>
        <time>2021-09-01T13:52:46.492Z</time>
      </trkpt>
      <trkpt lat="48.49753" lon="-0.45333">
        <ele>125.98</ele>
        <time>2021-09-01T13:53:30.972Z</time>
      </trkpt>
      <trkpt lat="48.49724" lon="-0.45329">
        <ele>126.09</ele>
        <time>2021-09-01T13:54:15.457Z</time>
      </trkpt>
      <trkpt lat="48.49724" lon="-0.45329">
        <ele>126.09</ele>
        <time>2021-09-01T13:54:59.942Z</time>
      </trkpt>
      <trkpt lat="48.49699" lon="-0.45317">
        <ele>126.38</ele>
        <time>2021-09-01T13:55:44.431Z</time>
      </trkpt>
      <trkpt lat="48.49699" lon="-0.45317">
        <ele>126.38</ele>
        <time>2021-09-01T13:56:28.920Z</time>
      </trkpt>
      <trkpt lat="48.49669" lon="-0.45311">
        <ele>126.42</ele>
        <time>2021-09-01T13:57:13.414Z</time>
      </trkpt>
      <trkpt lat="48.49669" lon="-0.45311">
        <ele>126.42</ele>
        <time>2021-09-01T13:57:57.908Z</time>
      </trkpt>
      <trkpt lat="48.49596" lon="-0.45341">
        <ele>127.45</ele>
        <time>2021-09-01T13:58:42.414Z</time>
      </trkpt>
      <trkpt lat="48.49596" lon="-0.45341">
        <ele>127.45</ele>
        <time>2021-09-01T13:59:26.920Z</time>
      </trkpt>
      <trkpt lat="48.49581" lon="-0.45362">
        <ele>127.78</ele>
        <time>2021-09-01T14:00:11.429Z</time>
      </trkpt>
      <trkpt lat="48.49581" lon="-0.45362">
        <ele>127.78</ele>
        <time>2021-09-01T14:00:55.938Z</time>
      </trkpt>
      <trkpt lat="48.49573" lon="-0.45394">
        <ele>127.92</ele>
        <time>2021-09-01T14:01:40.451Z</time>
      </trkpt>
      <trkpt lat="48.49573" lon="-0.45394">
        <ele>127.92</ele>
        <time>2021-09-01T14:02:24.964Z</time>
      </trkpt>
      <trkpt lat="48.4957" lon="-0.4544">
        <ele>128.58</ele>
        <time>2021-09-01T14:03:09.482Z</time>
      </trkpt>
      <trkpt lat="48.4957" lon="-0.4544">
        <ele>128.58</ele>
        <time>2021-09-01T14:03:54.000Z</time>
      </trkpt>
      <trkpt lat="48.49567" lon="-0.45461">
        <ele>129.34</ele>
        <time>2021-09-01T14:04:38.520Z</time>
      </trkpt>
      <trkpt lat="48.49567" lon="-0.45461">
        <ele>129.34</ele>
        <time>2021-09-01T14:05:23.040Z</time>
      </trkpt>
      <trkpt lat="48.49551" lon="-0.45485">
        <ele>130.2</ele>
        <time>2021-09-01T14:06:07.564Z</time>
      </trkpt>
      <trkpt lat="48.49551" lon="-0.45485">
        <ele>130.2</ele>
        <time>2021-09-01T14:06:52.088Z</time>
      </trkpt>
      <trkpt lat="48.49496" lon="-0.45539">
        <ele>131.39</ele>
        <time>2021-09-01T14:07:36.622Z</time>
      </trkpt>
      <trkpt lat="48.49496" lon="-0.45539">
        <ele>131.39</ele>
        <time>2021-09-01T14:08:21.156Z</time>
      </trkpt>
      <trkpt lat="48.49437" lon="-0.45577">
        <ele>131.94</ele>
        <time>2021-09-01T14:09:05.701Z</time>
      </trkpt>
      <trkpt lat="48.49437" lon="-0.45577">
        <ele>131.94</ele>
        <time>2021-09-01T14:09:50.246Z</time>
      </trkpt>
      <trkpt lat="48.49375" lon="-0.45599">
        <ele>132.38</ele>
        <time>2021-09-01T14:10:34.801Z</time>
      </trkpt>
      <trkpt lat="48.49375" lon="-0.45599">
        <ele>132.38</ele>
        <time>2021-09-01T14:11:19.356Z</time>
      </trkpt>
      <trkpt lat="48.49259" lon="-0.45613">
        <ele>135.6</ele>
        <time>2021-09-01T14:12:03.929Z</time>
      </trkpt>
      <trkpt lat="48.49259" lon="-0.45613">
        <ele>135.6</ele>
        <time>2021-09-01T14:12:48.502Z</time>
      </trkpt>
      <trkpt lat="48.49221" lon="-0.45607">
        <ele>135.75</ele>
        <time>2021-09-01T14:13:33.081Z</time>
      </trkpt>
      <trkpt lat="48.49221" lon="-0.45607">
        <ele>135.75</ele>
        <time>2021-09-01T14:14:17.660Z</time>
      </trkpt>
      <trkpt lat="48.4916" lon="-0.45589">
        <ele>136.13</ele>
        <time>2021-09-01T14:15:02.249Z</time>
      </trkpt>
      <trkpt lat="48.4916" lon="-0.45589">
        <ele>136.13</ele>
        <time>2021-09-01T14:15:46.838Z</time>
      </trkpt>
      <trkpt lat="48.49075" lon="-0.45584">
        <ele>136.29</ele>
        <time>2021-09-01T14:16:31.441Z</time>
      </trkpt>
      <trkpt lat="48.49075" lon="-0.45584">
        <ele>136.29</ele>
        <time>2021-09-01T14:17:16.044Z</time>
      </trkpt>
      <trkpt lat="48.48857" lon="-0.45621">
        <ele>139.84</ele>
        <time>2021-09-01T14:18:00.682Z</time>
      </trkpt>
      <trkpt lat="48.48857" lon="-0.45621">
        <ele>139.84</ele>
        <time>2021-09-01T14:18:45.320Z</time>
      </trkpt>
      <trkpt lat="48.48766" lon="-0.45654">
        <ele>143.3</ele>
        <time>2021-09-01T14:19:29.973Z</time>
      </trkpt>
      <trkpt lat="48.48766" lon="-0.45654">
        <ele>143.3</ele>
        <time>2021-09-01T14:20:14.626Z</time>
      </trkpt>
      <trkpt lat="48.48728" lon="-0.45674">
        <ele>144.22</ele>
        <time>2021-09-01T14:20:59.286Z</time>
      </trkpt>
      <trkpt lat="48.48728" lon="-0.45674">
        <ele>144.22</ele>
        <time>2021-09-01T14:21:43.946Z</time>
      </trkpt>
      <trkpt lat="48.48667" lon="-0.45739">
        <ele>145.13</ele>
        <time>2021-09-01T14:22:28.618Z</time>
      </trkpt>
      <trkpt lat="48.48667" lon="-0.45739">
        <ele>145.13</ele>
        <time>2021-09-01T14:23:13.290Z</time>
      </trkpt>
      <trkpt lat="48.48642" lon="-0.45773">
        <ele>145.22</ele>
        <time>2021-09-01T14:23:57.967Z</time>
      </trkpt>
      <trkpt lat="48.48642" lon="-0.45773">
        <ele>145.22</ele>
        <time>2021-09-01T14:24:42.644Z</time>
      </trkpt>
      <trkpt lat="48.48577" lon="-0.45915">
        <ele>145.54</ele>
        <time>2021-09-01T14:25:27.339Z</time>
      </trkpt>
      <trkpt lat="48.48577" lon="-0.45915">
        <ele>145.54</ele>
        <time>2021-09-01T14:26:12.034Z</time>
      </trkpt>
      <trkpt lat="48.48537" lon="-0.46022">
        <ele>145.05</ele>
        <time>2021-09-01T14:26:56.742Z</time>
      </trkpt>
      <trkpt lat="48.48537" lon="-0.46022">
        <ele>145.05</ele>
        <time>2021-09-01T14:27:41.450Z</time>
      </trkpt>
      <trkpt lat="48.4852" lon="-0.46056">
        <ele>144.89</ele>
        <time>2021-09-01T14:28:26.163Z</time>
      </trkpt>
      <trkpt lat="48.4852" lon="-0.46056">
        <ele>144.89</ele>
        <time>2021-09-01T14:29:10.876Z</time>
      </trkpt>
      <trkpt lat="48.48497" lon="-0.46088">
        <ele>143.84</ele>
        <time>2021-09-01T14:29:55.594Z</time>
      </trkpt>
      <trkpt lat="48.48497" lon="-0.46088">
        <ele>143.84</ele>
        <time>2021-09-01T14:30:40.312Z</time>
      </trkpt>
      <trkpt lat="48.48469" lon="-0.46105">
        <ele>143.19</ele>
        <time>2021-09-01T14:31:25.035Z</time>
      </trkpt>
      <trkpt lat="48.48469" lon="-0.46105">
        <ele>143.19</ele>
        <time>2021-09-01T14:32:09.758Z</time>
      </trkpt>
      <trkpt lat="48.48365" lon="-0.4614">
        <ele>140.39</ele>
        <time>2021-09-01T14:32:54.498Z</time>
      </trkpt>
      <trkpt lat="48.48365" lon="-0.4614">
        <ele>140.39</ele>
        <time>2021-09-01T14:33:39.238Z</time>
      </trkpt>
      <trkpt lat="48.48335" lon="-0.46143">
        <ele>140.11</ele>
        <time>2021-09-01T14:34:23.983Z</time>
      </trkpt>
      <trkpt lat="48.48335" lon="-0.46143">
        <ele>140.11</ele>
        <time>2021-09-01T14:35:08.728Z</time>
      </trkpt>
      <trkpt lat="48.48321" lon="-0.46136">
        <ele>139.81</ele>
        <time>2021-09-01T14:35:53.475Z</time>
      </trkpt>
      <trkpt lat="48.48321" lon="-0.46136">
        <ele>139.81</ele>
        <time>2021-09-01T14:36:38.222Z</time>
      </trkpt>
      <trkpt lat="48.48301" lon="-0.46115">
        <ele>139.59</ele>
        <time>2021-09-01T14:37:22.973Z</time>
      </trkpt>
      <trkpt lat="48.48301" lon="-0.46115">
        <ele>139.59</ele>
        <time>2021-09-01T14:38:07.724Z</time>
      </trkpt>
      <trkpt lat="48.48292" lon="-0.46107">
        <ele>139.56</ele>
        <time>2021-09-01T14:38:52.477Z</time>
      </trkpt>
      <trkpt lat="48.48292" lon="-0.46107">
        <ele>139.56</ele>
        <time>2021-09-01T14:39:37.230Z</time>
      </trkpt>
      <trkpt lat="48.48284" lon="-0.46095">
        <ele>139.58</ele>
        <time>2021-09-01T14:40:21.984Z</time>
      </trkpt>
      <trkpt lat="48.48284" lon="-0.46095">
        <ele>139.58</ele>
        <time>2021-09-01T14:41:06.738Z</time>
      </trkpt>
      <trkpt lat="48.48275" lon="-0.46066">
        <ele>139.65</ele>
        <time>2021-09-01T14:41:51.496Z</time>
      </trkpt>
      <trkpt lat="48.48275" lon="-0.46066">
        <ele>139.65</ele>
        <time>2021-09-01T14:42:36.254Z</time>
      </trkpt>
      <trkpt lat="48.48269" lon="-0.46033">
        <ele>139.75</ele>
        <time>2021-09-01T14:43:21.015Z</time>
      </trkpt>
      <trkpt lat="48.48269" lon="-0.46033">
        <ele>139.75</ele>
        <time>2021-09-01T14:44:05.776Z</time>
      </trkpt>
      <trkpt lat="48.48266" lon="-0.45988">
        <ele>140.27</ele>
        <time>2021-09-01T14:44:50.542Z</time>
      </trkpt>
      <trkpt lat="48.48266" lon="-0.45988">
        <ele>140.27</ele>
        <time>2021-09-01T14:45:35.308Z</time>
      </trkpt>
      <trkpt lat="48.48261" lon="-0.45961">
        <ele>140.25</ele>
        <time>2021-09-01T14:46:20.077Z</time>
      </trkpt>
      <trkpt lat="48.48261" lon="-0.45961">
        <ele>140.25</ele>
        <time>2021-09-01T14:47:04.846Z</time>
      </trkpt>
      <trkpt lat="48.48246" lon="-0.45906">
        <ele>139.99</ele>
        <time>2021-09-01T14:47:49.622Z</time>
      </trkpt>
      <trkpt lat="48.48246" lon="-0.45906">
        <ele>139.99</ele>
        <time>2021-09-01T14:48:34.398Z</time>
      </trkpt>
      <trkpt lat="48.48226" lon="-0.45843">
        <ele>140.21</ele>
        <time>2021-09-01T14:49:19.181Z</time>
      </trkpt>
      <trkpt lat="48.48226" lon="-0.45843">
        <ele>140.21</ele>
        <time>2021-09-01T14:50:03.964Z</time>
      </trkpt>
      <trkpt lat="48.4822" lon="-0.45833">
        <ele>140.21</ele>
        <time>2021-09-01T14:50:48.748Z</time>
      </trkpt>
      <trkpt lat="48.4822" lon="-0.45833">
        <ele>140.21</ele>
        <time>2021-09-01T14:51:33.532Z</time>
      </trkpt>
      <trkpt lat="48.48211" lon="-0.45827">
        <ele>140.41</ele>
        <time>2021-09-01T14:52:18.318Z</time>
      </trkpt>
      <trkpt lat="48.48211" lon="-0.45827">
        <ele>140.41</ele>
        <time>2021-09-01T14:53:03.104Z</time>
      </trkpt>
      <trkpt lat="48.48155" lon="-0.45805">
        <ele>141.14</ele>
        <time>2021-09-01T14:53:47.899Z</time>
      </trkpt>
      <trkpt lat="48.48155" lon="-0.45805">
        <ele>141.14</ele>
        <time>2021-09-01T14:54:32.694Z</time>
      </trkpt>
      <trkpt lat="48.48121" lon="-0.45805">
        <ele>141.65</ele>
        <time>2021-09-01T14:55:17.495Z</time>
      </trkpt>
      <trkpt lat="48.48121" lon="-0.45805">
        <ele>141.65</ele>
        <time>2021-09-01T14:56:02.296Z</time>
      </trkpt>
      <trkpt lat="48.48095" lon="-0.45816">
        <ele>142.16</ele>
        <time>2021-09-01T14:56:47.101Z</time>
      </trkpt>
      <trkpt lat="48.48095" lon="-0.45816">
        <ele>142.16</ele>
        <time>2021-09-01T14:57:31.906Z</time>
      </trkpt>
      <trkpt lat="48.48071" lon="-0.45839">
        <ele>143.14</ele>
        <time>2021-09-01T14:58:16.716Z</time>
      </trkpt>
      <trkpt lat="48.48071" lon="-0.45839">
        <ele>143.14</ele>
        <time>2021-09-01T14:59:01.526Z</time>
      </trkpt>
      <trkpt lat="48.48036" lon="-0.45861">
        <ele>144.1</ele>
        <time>2021-09-01T14:59:46.342Z</time>
      </trkpt>
      <trkpt lat="48.48036" lon="-0.45861">
        <ele>144.1</ele>
        <time>2021-09-01T15:00:31.158Z</time>
      </trkpt>
      <trkpt lat="48.47993" lon="-0.45872">
        <ele>144.93</ele>
        <time>2021-09-01T15:01:15.981Z</time>
      </trkpt>
      <trkpt lat="48.47993" lon="-0.45872">
        <ele>144.93</ele>
        <time>2021-09-01T15:02:00.804Z</time>
      </trkpt>
      <trkpt lat="48.47946" lon="-0.45895">
        <ele>147.31</ele>
        <time>2021-09-01T15:02:45.635Z</time>
      </trkpt>
      <trkpt lat="48.47946" lon="-0.45895">
        <ele>147.31</ele>
        <time>2021-09-01T15:03:30.466Z</time>
      </trkpt>
      <trkpt lat="48.47934" lon="-0.45907">
        <ele>148.27</ele>
        <time>2021-09-01T15:04:15.299Z</time>
      </trkpt>
      <trkpt lat="48.47934" lon="-0.45907">
        <ele>148.27</ele>
        <time>2021-09-01T15:05:00.132Z</time>
      </trkpt>
      <trkpt lat="48.47881" lon="-0.45979">
        <ele>151.7</ele>
        <time>2021-09-01T15:05:44.976Z</time>
      </trkpt>
      <trkpt lat="48.47881" lon="-0.45979">
        <ele>151.7</ele>
        <time>2021-09-01T15:06:29.820Z</time>
      </trkpt>
      <trkpt lat="48.47864" lon="-0.45993">
        <ele>151.7</ele>
        <time>2021-09-01T15:07:14.667Z</time>
      </trkpt>
      <trkpt lat="48.47864" lon="-0.45993">
        <ele>151.7</ele>
        <time>2021-09-01T15:07:59.514Z</time>
      </trkpt>
      <trkpt lat="48.47792" lon="-0.46022">
        <ele>155.04</ele>
        <time>2021-09-01T15:08:44.373Z</time>
      </trkpt>
      <trkpt lat="48.47792" lon="-0.46022">
        <ele>155.04</ele>
        <time>2021-09-01T15:09:29.232Z</time>
      </trkpt>
      <trkpt lat="48.47702" lon="-0.46096">
        <ele>158.43</ele>
        <time>2021-09-01T15:10:14.108Z</time>
      </trkpt>
      <trkpt lat="48.47702" lon="-0.46096">
        <ele>158.43</ele>
        <time>2021-09-01T15:10:58.984Z</time>
      </trkpt>
      <trkpt lat="48.476" lon="-0.46199">
        <ele>162.7</ele>
        <time>2021-09-01T15:11:43.879Z</time>
      </trkpt>
      <trkpt lat="48.476" lon="-0.46199">
        <ele>162.7</ele>
        <time>2021-09-01T15:12:28.774Z</time>
      </trkpt>
      <trkpt lat="48.47522" lon="-0.46271">
        <ele>166.35</ele>
        <time>2021-09-01T15:13:13.684Z</time>
      </trkpt>
      <trkpt lat="48.47522" lon="-0.46271">
        <ele>166.35</ele>
        <time>2021-09-01T15:13:58.594Z</time>
      </trkpt>
      <trkpt lat="48.47465" lon="-0.46327">
        <ele>167.83</ele>
        <time>2021-09-01T15:14:43.515Z</time>
      </trkpt>
      <trkpt lat="48.47465" lon="-0.46327">
        <ele>167.83</ele>
        <time>2021-09-01T15:15:28.436Z</time>
      </trkpt>
      <trkpt lat="48.47346" lon="-0.46429">
        <ele>172.33</ele>
        <time>2021-09-01T15:16:13.379Z</time>
      </trkpt>
      <trkpt lat="48.47346" lon="-0.46429">
        <ele>172.33</ele>
        <time>2021-09-01T15:16:58.322Z</time>
      </trkpt>
      <trkpt lat="48.47258" lon="-0.46482">
        <ele>174.63</ele>
        <time>2021-09-01T15:17:43.280Z</time>
      </trkpt>
      <trkpt lat="48.47258" lon="-0.46482">
        <ele>174.63</ele>
        <time>2021-09-01T15:18:28.238Z</time>
      </trkpt>
      <trkpt lat="48.47171" lon="-0.46513">
        <ele>176.27</ele>
        <time>2021-09-01T15:19:13.210Z</time>
      </trkpt>
      <trkpt lat="48.47171" lon="-0.46513">
        <ele>176.27</ele>
        <time>2021-09-01T15:19:58.182Z</time>
      </trkpt>
      <trkpt lat="48.47003" lon="-0.46577">
        <ele>179.87</ele>
        <time>2021-09-01T15:20:43.182Z</time>
      </trkpt>
      <trkpt lat="48.47003" lon="-0.46577">
        <ele>179.87</ele>
        <time>2021-09-01T15:21:28.182Z</time>
      </trkpt>
      <trkpt lat="48.46644" lon="-0.46721">
        <ele>186.51</ele>
        <time>2021-09-01T15:22:13.242Z</time>
      </trkpt>
      <trkpt lat="48.46644" lon="-0.46721">
        <ele>186.51</ele>
        <time>2021-09-01T15:22:58.302Z</time>
      </trkpt>
      <trkpt lat="48.46583" lon="-0.46749">
        <ele>187.91</ele>
        <time>2021-09-01T15:23:43.372Z</time>
      </trkpt>
      <trkpt lat="48.46583" lon="-0.46749">
        <ele>187.91</ele>
        <time>2021-09-01T15:24:28.442Z</time>
      </trkpt>
      <trkpt lat="48.46461" lon="-0.46838">
        <ele>192.57</ele>
        <time>2021-09-01T15:25:13.534Z</time>
      </trkpt>
      <trkpt lat="48.46461" lon="-0.46838">
        <ele>192.57</ele>
        <time>2021-09-01T15:25:58.626Z</time>
      </trkpt>
      <trkpt lat="48.46303" lon="-0.46934">
        <ele>200.2</ele>
        <time>2021-09-01T15:26:43.745Z</time>
      </trkpt>
      <trkpt lat="48.46303" lon="-0.46934">
        <ele>200.2</ele>
        <time>2021-09-01T15:27:28.864Z</time>
      </trkpt>
      <trkpt lat="48.46142" lon="-0.47042">
        <ele>208.72</ele>
        <time>2021-09-01T15:28:14.011Z</time>
      </trkpt>
      <trkpt lat="48.46142" lon="-0.47042">
        <ele>208.72</ele>
        <time>2021-09-01T15:28:59.158Z</time>
      </trkpt>
      <trkpt lat="48.46094" lon="-0.47068">
        <ele>211.8</ele>
        <time>2021-09-01T15:29:44.313Z</time>
      </trkpt>
      <trkpt lat="48.46094" lon="-0.47068">
        <ele>211.8</ele>
        <time>2021-09-01T15:30:29.468Z</time>
      </trkpt>
      <trkpt lat="48.46055" lon="-0.47093">
        <ele>214.25</ele>
        <time>2021-09-01T15:31:14.630Z</time>
      </trkpt>
      <trkpt lat="48.46055" lon="-0.47093">
        <ele>214.25</ele>
        <time>2021-09-01T15:31:59.792Z</time>
      </trkpt>
      <trkpt lat="48.45952" lon="-0.4715">
        <ele>220.57</ele>
        <time>2021-09-01T15:32:44.972Z</time>
      </trkpt>
      <trkpt lat="48.45952" lon="-0.4715">
        <ele>220.57</ele>
        <time>2021-09-01T15:33:30.152Z</time>
      </trkpt>
      <trkpt lat="48.45911" lon="-0.47178">
        <ele>222.85</ele>
        <time>2021-09-01T15:34:15.339Z</time>
      </trkpt>
      <trkpt lat="48.45911" lon="-0.47178">
        <ele>222.85</ele>
        <time>2021-09-01T15:35:00.526Z</time>
      </trkpt>
      <trkpt lat="48.45873" lon="-0.47221">
        <ele>225.63</ele>
        <time>2021-09-01T15:35:45.721Z</time>
      </trkpt>
      <trkpt lat="48.45873" lon="-0.47221">
        <ele>225.63</ele>
        <time>2021-09-01T15:36:30.916Z</time>
      </trkpt>
      <trkpt lat="48.45755" lon="-0.47409">
        <ele>231.57</ele>
        <time>2021-09-01T15:37:16.138Z</time>
      </trkpt>
      <trkpt lat="48.45755" lon="-0.47409">
        <ele>231.57</ele>
        <time>2021-09-01T15:38:01.360Z</time>
      </trkpt>
      <trkpt lat="48.45691" lon="-0.47467">
        <ele>235.44</ele>
        <time>2021-09-01T15:38:46.594Z</time>
      </trkpt>
      <trkpt lat="48.45691" lon="-0.47467">
        <ele>235.44</ele>
        <time>2021-09-01T15:39:31.828Z</time>
      </trkpt>
      <trkpt lat="48.45638" lon="-0.47511">
        <ele>238.86</ele>
        <time>2021-09-01T15:40:17.072Z</time>
      </trkpt>
      <trkpt lat="48.45638" lon="-0.47511">
        <ele>238.86</ele>
        <time>2021-09-01T15:41:02.316Z</time>
      </trkpt>
      <trkpt lat="48.45615" lon="-0.47539">
        <ele>239.88</ele>
        <time>2021-09-01T15:41:47.564Z</time>
      </trkpt>
      <trkpt lat="48.45615" lon="-0.47539">
        <ele>239.88</ele>
        <time>2021-09-01T15:42:32.812Z</time>
      </trkpt>
      <trkpt lat="48.45578" lon="-0.47594">
        <ele>239.29</ele>
        <time>2021-09-01T15:43:18.069Z</time>
      </trkpt>
      <trkpt lat="48.45578" lon="-0.47594">
        <ele>239.29</ele>
        <time>2021-09-01T15:44:03.326Z</time>
      </trkpt>
      <trkpt lat="48.45547" lon="-0.4762">
        <ele>237.34</ele>
        <time>2021-09-01T15:44:48.588Z</time>
      </trkpt>
      <trkpt lat="48.45547" lon="-0.4762">
        <ele>237.34</ele>
        <time>2021-09-01T15:45:33.850Z</time>
      </trkpt>
      <trkpt lat="48.45468" lon="-0.47664">
        <ele>232.7</ele>
        <time>2021-09-01T15:46:19.126Z</time>
      </trkpt>
      <trkpt lat="48.45468" lon="-0.47664">
        <ele>232.7</ele>
        <time>2021-09-01T15:47:04.402Z</time>
      </trkpt>
      <trkpt lat="48.45431" lon="-0.47689">
        <ele>228.98</ele>
        <time>2021-09-01T15:47:49.684Z</time>
      </trkpt>
      <trkpt lat="48.45431" lon="-0.47689">
        <ele>228.98</ele>
        <time>2021-09-01T15:48:34.966Z</time>
      </trkpt>
      <trkpt lat="48.45287" lon="-0.47841">
        <ele>227.19</ele>
        <time>2021-09-01T15:49:20.277Z</time>
      </trkpt>
      <trkpt lat="48.45287" lon="-0.47841">
        <ele>227.19</ele>
        <time>2021-09-01T15:50:05.588Z</time>
      </trkpt>
      <trkpt lat="48.45248" lon="-0.4787">
        <ele>226.88</ele>
        <time>2021-09-01T15:50:50.906Z</time>
      </trkpt>
      <trkpt lat="48.45248" lon="-0.4787">
        <ele>226.88</ele>
        <time>2021-09-01T15:51:36.224Z</time>
      </trkpt>
      <trkpt lat="48.45157" lon="-0.47924">
        <ele>225.45</ele>
        <time>2021-09-01T15:52:21.557Z</time>
      </trkpt>
      <trkpt lat="48.45157" lon="-0.47924">
        <ele>225.45</ele>
        <time>2021-09-01T15:53:06.890Z</time>
      </trkpt>
      <trkpt lat="48.45111" lon="-0.4796">
        <ele>224.46</ele>
        <time>2021-09-01T15:53:52.232Z</time>
      </trkpt>
      <trkpt lat="48.45111" lon="-0.4796">
        <ele>224.46</ele>
        <time>2021-09-01T15:54:37.574Z</time>
      </trkpt>
      <trkpt lat="48.45075" lon="-0.48003">
        <ele>223.2</ele>
        <time>2021-09-01T15:55:22.923Z</time>
      </trkpt>
      <trkpt lat="48.45075" lon="-0.48003">
        <ele>223.2</ele>
        <time>2021-09-01T15:56:08.272Z</time>
      </trkpt>
      <trkpt lat="48.44972" lon="-0.48142">
        <ele>219.75</ele>
        <time>2021-09-01T15:56:53.643Z</time>
      </trkpt>
      <trkpt lat="48.44972" lon="-0.48142">
        <ele>219.75</ele>
        <time>2021-09-01T15:57:39.014Z</time>
      </trkpt>
      <trkpt lat="48.44827" lon="-0.4842">
        <ele>213.37</ele>
        <time>2021-09-01T15:58:24.423Z</time>
      </trkpt>
      <trkpt lat="48.44827" lon="-0.4842">
        <ele>213.37</ele>
        <time>2021-09-01T15:59:09.832Z</time>
      </trkpt>
      <trkpt lat="48.44799" lon="-0.48469">
        <ele>215.53</ele>
        <time>2021-09-01T15:59:55.248Z</time>
      </trkpt>
      <trkpt lat="48.44799" lon="-0.48469">
        <ele>215.53</ele>
        <time>2021-09-01T16:00:40.664Z</time>
      </trkpt>
      <trkpt lat="48.44778" lon="-0.48497">
        <ele>216.2</ele>
        <time>2021-09-01T16:01:26.084Z</time>
      </trkpt>
      <trkpt lat="48.44778" lon="-0.48497">
        <ele>216.2</ele>
        <time>2021-09-01T16:02:11.504Z</time>
      </trkpt>
      <trkpt lat="48.44758" lon="-0.48515">
        <ele>216.69</ele>
        <time>2021-09-01T16:02:56.928Z</time>
      </trkpt>
      <trkpt lat="48.44758" lon="-0.48515">
        <ele>216.69</ele>
        <time>2021-09-01T16:03:42.352Z</time>
      </trkpt>
      <trkpt lat="48.44721" lon="-0.48539">
        <ele>217.05</ele>
        <time>2021-09-01T16:04:27.782Z</time>
      </trkpt>
      <trkpt lat="48.44721" lon="-0.48539">
        <ele>217.05</ele>
        <time>2021-09-01T16:05:13.212Z</time>
      </trkpt>
      <trkpt lat="48.44662" lon="-0.48577">
        <ele>217.27</ele>
        <time>2021-09-01T16:05:58.653Z</time>
      </trkpt>
      <trkpt lat="48.44662" lon="-0.48577">
        <ele>217.27</ele>
        <time>2021-09-01T16:06:44.094Z</time>
      </trkpt>
      <trkpt lat="48.44626" lon="-0.48604">
        <ele>217.65</ele>
        <time>2021-09-01T16:07:29.541Z</time>
      </trkpt>
      <trkpt lat="48.44626" lon="-0.48604">
        <ele>217.65</ele>
        <time>2021-09-01T16:08:14.988Z</time>
      </trkpt>
      <trkpt lat="48.44592" lon="-0.48643">
        <ele>218.02</ele>
        <time>2021-09-01T16:09:00.442Z</time>
      </trkpt>
      <trkpt lat="48.44592" lon="-0.48643">
        <ele>218.02</ele>
        <time>2021-09-01T16:09:45.896Z</time>
      </trkpt>
      <trkpt lat="48.4446" lon="-0.48813">
        <ele>218.27</ele>
        <time>2021-09-01T16:10:31.378Z</time>
      </trkpt>
      <trkpt lat="48.4446" lon="-0.48813">
        <ele>218.27</ele>
        <time>2021-09-01T16:11:16.860Z</time>
      </trkpt>
      <trkpt lat="48.4443" lon="-0.48841">
        <ele>218.03</ele>
        <time>2021-09-01T16:12:02.347Z</time>
      </trkpt>
      <trkpt lat="48.4443" lon="-0.48841">
        <ele>218.03</ele>
        <time>2021-09-01T16:12:47.834Z</time>
      </trkpt>
      <trkpt lat="48.44392" lon="-0.48864">
        <ele>217.81</ele>
        <time>2021-09-01T16:13:33.328Z</time>
      </trkpt>
      <trkpt lat="48.44392" lon="-0.48864">
        <ele>217.81</ele>
        <time>2021-09-01T16:14:18.822Z</time>
      </trkpt>
      <trkpt lat="48.44364" lon="-0.4888">
        <ele>217.46</ele>
        <time>2021-09-01T16:15:04.321Z</time>
      </trkpt>
      <trkpt lat="48.44364" lon="-0.4888">
        <ele>217.46</ele>
        <time>2021-09-01T16:15:49.820Z</time>
      </trkpt>
      <trkpt lat="48.44286" lon="-0.48898">
        <ele>217.1</ele>
        <time>2021-09-01T16:16:35.331Z</time>
      </trkpt>
      <trkpt lat="48.44286" lon="-0.48898">
        <ele>217.1</ele>
        <time>2021-09-01T16:17:20.842Z</time>
      </trkpt>
      <trkpt lat="48.44092" lon="-0.48985">
        <ele>217.39</ele>
        <time>2021-09-01T16:18:06.386Z</time>
      </trkpt>
      <trkpt lat="48.44092" lon="-0.48985">
        <ele>217.39</ele>
        <time>2021-09-01T16:18:51.930Z</time>
      </trkpt>
      <trkpt lat="48.44086" lon="-0.48983">
        <ele>217.06</ele>
        <time>2021-09-01T16:19:37.475Z</time>
      </trkpt>
      <trkpt lat="48.44086" lon="-0.48983">
        <ele>217.06</ele>
        <time>2021-09-01T16:20:23.020Z</time>
      </trkpt>
      <trkpt lat="48.44056" lon="-0.4908">
        <ele>213.53</ele>
        <time>2021-09-01T16:21:08.576Z</time>
      </trkpt>
      <trkpt lat="48.44056" lon="-0.4908">
        <ele>213.53</ele>
        <time>2021-09-01T16:21:54.132Z</time>
      </trkpt>
      <trkpt lat="48.44" lon="-0.49311">
        <ele>203.89</ele>
        <time>2021-09-01T16:22:39.714Z</time>
      </trkpt>
      <trkpt lat="48.44" lon="-0.49311">
        <ele>203.89</ele>
        <time>2021-09-01T16:23:25.296Z</time>
      </trkpt>
      <trkpt lat="48.43972" lon="-0.49422">
        <ele>199.44</ele>
        <time>2021-09-01T16:24:10.891Z</time>
      </trkpt>
      <trkpt lat="48.43972" lon="-0.49422">
        <ele>199.44</ele>
        <time>2021-09-01T16:24:56.486Z</time>
      </trkpt>
      <trkpt lat="48.43947" lon="-0.49513">
        <ele>195.95</ele>
        <time>2021-09-01T16:25:42.091Z</time>
      </trkpt>
      <trkpt lat="48.43947" lon="-0.49513">
        <ele>195.95</ele>
        <time>2021-09-01T16:26:27.696Z</time>
      </trkpt>
      <trkpt lat="48.43938" lon="-0.49536">
        <ele>195.16</ele>
        <time>2021-09-01T16:27:13.304Z</time>
      </trkpt>
      <trkpt lat="48.43938" lon="-0.49536">
        <ele>195.16</ele>
        <time>2021-09-01T16:27:58.912Z</time>
      </trkpt>
      <trkpt lat="48.43885" lon="-0.49641">
        <ele>192.78</ele>
        <time>2021-09-01T16:28:44.534Z</time>
      </trkpt>
      <trkpt lat="48.43885" lon="-0.49641">
        <ele>192.78</ele>
        <time>2021-09-01T16:29:30.156Z</time>
      </trkpt>
      <trkpt lat="48.43818" lon="-0.49754">
        <ele>190.97</ele>
        <time>2021-09-01T16:30:15.794Z</time>
      </trkpt>
      <trkpt lat="48.43818" lon="-0.49754">
        <ele>190.97</ele>
        <time>2021-09-01T16:31:01.432Z</time>
      </trkpt>
      <trkpt lat="48.4378" lon="-0.49825">
        <ele>191.43</ele>
        <time>2021-09-01T16:31:47.080Z</time>
      </trkpt>
      <trkpt lat="48.4378" lon="-0.49825">
        <ele>191.43</ele>
        <time>2021-09-01T16:32:32.728Z</time>
      </trkpt>
      <trkpt lat="48.43712" lon="-0.49944">
        <ele>193.15</ele>
        <time>2021-09-01T16:33:18.393Z</time>
      </trkpt>
      <trkpt lat="48.43712" lon="-0.49944">
        <ele>193.15</ele>
        <time>2021-09-01T16:34:04.058Z</time>
      </trkpt>
      <trkpt lat="48.43693" lon="-0.49964">
        <ele>193.69</ele>
        <time>2021-09-01T16:34:49.727Z</time>
      </trkpt>
      <trkpt lat="48.43693" lon="-0.49964">
        <ele>193.69</ele>
        <time>2021-09-01T16:35:35.396Z</time>
      </trkpt>
      <trkpt lat="48.43649" lon="-0.49998">
        <ele>194.77</ele>
        <time>2021-09-01T16:36:21.073Z</time>
      </trkpt>
      <trkpt lat="48.43649" lon="-0.49998">
        <ele>194.77</ele>
        <time>2021-09-01T16:37:06.750Z</time>
      </trkpt>
      <trkpt lat="48.43626" lon="-0.50022">
        <ele>195.45</ele>
        <time>2021-09-01T16:37:52.431Z</time>
      </trkpt>
      <trkpt lat="48.43626" lon="-0.50022">
        <ele>195.45</ele>
        <time>2021-09-01T16:38:38.112Z</time>
      </trkpt>
      <trkpt lat="48.43603" lon="-0.50051">
        <ele>196.68</ele>
        <time>2021-09-01T16:39:23.798Z</time>
      </trkpt>
      <trkpt lat="48.43603" lon="-0.50051">
        <ele>196.68</ele>
        <time>2021-09-01T16:40:09.484Z</time>
      </trkpt>
      <trkpt lat="48.43544" lon="-0.50151">
        <ele>199.19</ele>
        <time>2021-09-01T16:40:55.184Z</time>
      </trkpt>
      <trkpt lat="48.43544" lon="-0.50151">
        <ele>199.19</ele>
        <time>2021-09-01T16:41:40.884Z</time>
      </trkpt>
      <trkpt lat="48.43517" lon="-0.50185">
        <ele>199.83</ele>
        <time>2021-09-01T16:42:26.590Z</time>
      </trkpt>
      <trkpt lat="48.43517" lon="-0.50185">
        <ele>199.83</ele>
        <time>2021-09-01T16:43:12.296Z</time>
      </trkpt>
      <trkpt lat="48.43492" lon="-0.50207">
        <ele>201.8</ele>
        <time>2021-09-01T16:43:58.006Z</time>
      </trkpt>
      <trkpt lat="48.43492" lon="-0.50207">
        <ele>201.8</ele>
        <time>2021-09-01T16:44:43.716Z</time>
      </trkpt>
      <trkpt lat="48.43414" lon="-0.50268">
        <ele>202.44</ele>
        <time>2021-09-01T16:45:29.440Z</time>
      </trkpt>
      <trkpt lat="48.43414" lon="-0.50268">
        <ele>202.44</ele>
        <time>2021-09-01T16:46:15.164Z</time>
      </trkpt>
      <trkpt lat="48.43368" lon="-0.50296">
        <ele>202.82</ele>
        <time>2021-09-01T16:47:00.896Z</time>
      </trkpt>
      <trkpt lat="48.43368" lon="-0.50296">
        <ele>202.82</ele>
        <time>2021-09-01T16:47:46.628Z</time>
      </trkpt>
      <trkpt lat="48.43344" lon="-0.5032">
        <ele>203.67</ele>
        <time>2021-09-01T16:48:32.365Z</time>
      </trkpt>
      <trkpt lat="48.43344" lon="-0.5032">
        <ele>203.67</ele>
        <time>2021-09-01T16:49:18.102Z</time>
      </trkpt>
      <trkpt lat="48.43339" lon="-0.50334">
        <ele>204.08</ele>
        <time>2021-09-01T16:50:03.841Z</time>
      </trkpt>
      <trkpt lat="48.43339" lon="-0.50334">
        <ele>204.08</ele>
        <time>2021-09-01T16:50:49.580Z</time>
      </trkpt>
      <trkpt lat="48.43335" lon="-0.50339">
        <ele>204.08</ele>
        <time>2021-09-01T16:51:35.319Z</time>
      </trkpt>
      <trkpt lat="48.43335" lon="-0.50339">
        <ele>204.08</ele>
        <time>2021-09-01T16:52:21.058Z</time>
      </trkpt>
      <trkpt lat="48.4333" lon="-0.50341">
        <ele>204.08</ele>
        <time>2021-09-01T16:53:06.798Z</time>
      </trkpt>
      <trkpt lat="48.4333" lon="-0.50341">
        <ele>204.08</ele>
        <time>2021-09-01T16:53:52.538Z</time>
      </trkpt>
      <trkpt lat="48.43326" lon="-0.5034">
        <ele>204.65</ele>
        <time>2021-09-01T16:54:38.279Z</time>
      </trkpt>
      <trkpt lat="48.43326" lon="-0.5034">
        <ele>204.65</ele>
        <time>2021-09-01T16:55:24.020Z</time>
      </trkpt>
      <trkpt lat="48.43305" lon="-0.50364">
        <ele>205.56</ele>
        <time>2021-09-01T16:56:09.765Z</time>
      </trkpt>
      <trkpt lat="48.43305" lon="-0.50364">
        <ele>205.56</ele>
        <time>2021-09-01T16:56:55.510Z</time>
      </trkpt>
      <trkpt lat="48.43253" lon="-0.50468">
        <ele>209.25</ele>
        <time>2021-09-01T16:57:41.269Z</time>
      </trkpt>
      <trkpt lat="48.43253" lon="-0.50468">
        <ele>209.25</ele>
        <time>2021-09-01T16:58:27.028Z</time>
      </trkpt>
      <trkpt lat="48.43226" lon="-0.50511">
        <ele>210.75</ele>
        <time>2021-09-01T16:59:12.793Z</time>
      </trkpt>
      <trkpt lat="48.43226" lon="-0.50511">
        <ele>210.75</ele>
        <time>2021-09-01T16:59:58.558Z</time>
      </trkpt>
      <trkpt lat="48.43136" lon="-0.50635">
        <ele>214.87</ele>
        <time>2021-09-01T17:00:44.343Z</time>
      </trkpt>
      <trkpt lat="48.43136" lon="-0.50635">
        <ele>214.87</ele>
        <time>2021-09-01T17:01:30.128Z</time>
      </trkpt>
      <trkpt lat="48.43008" lon="-0.50782">
        <ele>222.22</ele>
        <time>2021-09-01T17:02:15.939Z</time>
      </trkpt>
      <trkpt lat="48.43008" lon="-0.50782">
        <ele>222.22</ele>
        <time>2021-09-01T17:03:01.750Z</time>
      </trkpt>
      <trkpt lat="48.42956" lon="-0.50858">
        <ele>222.74</ele>
        <time>2021-09-01T17:03:47.572Z</time>
      </trkpt>
      <trkpt lat="48.42956" lon="-0.50858">
        <ele>222.74</ele>
        <time>2021-09-01T17:04:33.394Z</time>
      </trkpt>
      <trkpt lat="48.42776" lon="-0.51143">
        <ele>221.93</ele>
        <time>2021-09-01T17:05:19.258Z</time>
      </trkpt>
      <trkpt lat="48.42776" lon="-0.51143">
        <ele>221.93</ele>
        <time>2021-09-01T17:06:05.122Z</time>
      </trkpt>
      <trkpt lat="48.42751" lon="-0.51202">
        <ele>220.75</ele>
        <time>2021-09-01T17:06:50.994Z</time>
      </trkpt>
      <trkpt lat="48.42751" lon="-0.51202">
        <ele>220.75</ele>
        <time>2021-09-01T17:07:36.866Z</time>
      </trkpt>
      <trkpt lat="48.42737" lon="-0.51246">
        <ele>220.35</ele>
        <time>2021-09-01T17:08:22.743Z</time>
      </trkpt>
      <trkpt lat="48.42737" lon="-0.51246">
        <ele>220.35</ele>
        <time>2021-09-01T17:09:08.620Z</time>
      </trkpt>
      <trkpt lat="48.42717" lon="-0.51341">
        <ele>218.76</ele>
        <time>2021-09-01T17:09:54.507Z</time>
      </trkpt>
      <trkpt lat="48.42717" lon="-0.51341">
        <ele>218.76</ele>
        <time>2021-09-01T17:10:40.394Z</time>
      </trkpt>
      <trkpt lat="48.42701" lon="-0.51393">
        <ele>217.95</ele>
        <time>2021-09-01T17:11:26.288Z</time>
      </trkpt>
      <trkpt lat="48.42701" lon="-0.51393">
        <ele>217.95</ele>
        <time>2021-09-01T17:12:12.182Z</time>
      </trkpt>
      <trkpt lat="48.42683" lon="-0.51429">
        <ele>217.27</ele>
        <time>2021-09-01T17:12:58.080Z</time>
      </trkpt>
      <trkpt lat="48.42683" lon="-0.51429">
        <ele>217.27</ele>
        <time>2021-09-01T17:13:43.978Z</time>
      </trkpt>
      <trkpt lat="48.42626" lon="-0.51507">
        <ele>217.21</ele>
        <time>2021-09-01T17:14:29.889Z</time>
      </trkpt>
      <trkpt lat="48.42626" lon="-0.51507">
        <ele>217.21</ele>
        <time>2021-09-01T17:15:15.800Z</time>
      </trkpt>
      <trkpt lat="48.42607" lon="-0.51537">
        <ele>217.28</ele>
        <time>2021-09-01T17:16:01.715Z</time>
      </trkpt>
      <trkpt lat="48.42607" lon="-0.51537">
        <ele>217.28</ele>
        <time>2021-09-01T17:16:47.630Z</time>
      </trkpt>
      <trkpt lat="48.42564" lon="-0.5162">
        <ele>217.29</ele>
        <time>2021-09-01T17:17:33.556Z</time>
      </trkpt>
      <trkpt lat="48.42564" lon="-0.5162">
        <ele>217.29</ele>
        <time>2021-09-01T17:18:19.482Z</time>
      </trkpt>
      <trkpt lat="48.42386" lon="-0.52093">
        <ele>214</ele>
        <time>2021-09-01T17:19:05.466Z</time>
      </trkpt>
      <trkpt lat="48.42386" lon="-0.52093">
        <ele>214</ele>
        <time>2021-09-01T17:19:51.450Z</time>
      </trkpt>
      <trkpt lat="48.42373" lon="-0.52139">
        <ele>213.08</ele>
        <time>2021-09-01T17:20:37.440Z</time>
      </trkpt>
      <trkpt lat="48.42373" lon="-0.52139">
        <ele>213.08</ele>
        <time>2021-09-01T17:21:23.430Z</time>
      </trkpt>
      <trkpt lat="48.42353" lon="-0.52225">
        <ele>211.9</ele>
        <time>2021-09-01T17:22:09.429Z</time>
      </trkpt>
      <trkpt lat="48.42353" lon="-0.52225">
        <ele>211.9</ele>
        <time>2021-09-01T17:22:55.428Z</time>
      </trkpt>
      <trkpt lat="48.42248" lon="-0.52721">
        <ele>210.24</ele>
        <time>2021-09-01T17:23:41.483Z</time>
      </trkpt>
      <trkpt lat="48.42248" lon="-0.52721">
        <ele>210.24</ele>
        <time>2021-09-01T17:24:27.538Z</time>
      </trkpt>
      <trkpt lat="48.42191" lon="-0.52947">
        <ele>207.25</ele>
        <time>2021-09-01T17:25:13.619Z</time>
      </trkpt>
      <trkpt lat="48.42191" lon="-0.52947">
        <ele>207.25</ele>
        <time>2021-09-01T17:25:59.700Z</time>
      </trkpt>
      <trkpt lat="48.42176" lon="-0.52991">
        <ele>206.63</ele>
        <time>2021-09-01T17:26:45.786Z</time>
      </trkpt>
      <trkpt lat="48.42176" lon="-0.52991">
        <ele>206.63</ele>
        <time>2021-09-01T17:27:31.872Z</time>
      </trkpt>
      <trkpt lat="48.42164" lon="-0.53015">
        <ele>206.63</ele>
        <time>2021-09-01T17:28:17.961Z</time>
      </trkpt>
      <trkpt lat="48.42164" lon="-0.53015">
        <ele>206.63</ele>
        <time>2021-09-01T17:29:04.050Z</time>
      </trkpt>
      <trkpt lat="48.42146" lon="-0.53044">
        <ele>205.34</ele>
        <time>2021-09-01T17:29:50.143Z</time>
      </trkpt>
      <trkpt lat="48.42146" lon="-0.53044">
        <ele>205.34</ele>
        <time>2021-09-01T17:30:36.236Z</time>
      </trkpt>
      <trkpt lat="48.42082" lon="-0.53132">
        <ele>201.52</ele>
        <time>2021-09-01T17:31:22.343Z</time>
      </trkpt>
      <trkpt lat="48.42082" lon="-0.53132">
        <ele>201.52</ele>
        <time>2021-09-01T17:32:08.450Z</time>
      </trkpt>
      <trkpt lat="48.42035" lon="-0.53193">
        <ele>198.32</ele>
        <time>2021-09-01T17:32:54.567Z</time>
      </trkpt>
      <trkpt lat="48.42035" lon="-0.53193">
        <ele>198.32</ele>
        <time>2021-09-01T17:33:40.684Z</time>
      </trkpt>
      <trkpt lat="48.42016" lon="-0.53225">
        <ele>196.94</ele>
        <time>2021-09-01T17:34:26.806Z</time>
      </trkpt>
      <trkpt lat="48.42016" lon="-0.53225">
        <ele>196.94</ele>
        <time>2021-09-01T17:35:12.928Z</time>
      </trkpt>
      <trkpt lat="48.42002" lon="-0.53259">
        <ele>195.46</ele>
        <time>2021-09-01T17:35:59.054Z</time>
      </trkpt>
      <trkpt lat="48.42002" lon="-0.53259">
        <ele>195.46</ele>
        <time>2021-09-01T17:36:45.180Z</time>
      </trkpt>
      <trkpt lat="48.41995" lon="-0.53283">
        <ele>195.46</ele>
        <time>2021-09-01T17:37:31.309Z</time>
      </trkpt>
      <trkpt lat="48.41995" lon="-0.53283">
        <ele>195.46</ele>
        <time>2021-09-01T17:38:17.438Z</time>
      </trkpt>
      <trkpt lat="48.41988" lon="-0.53334">
        <ele>193.3</ele>
        <time>2021-09-01T17:39:03.572Z</time>
      </trkpt>
      <trkpt lat="48.41988" lon="-0.53334">
        <ele>193.3</ele>
        <time>2021-09-01T17:39:49.706Z</time>
      </trkpt>
      <trkpt lat="48.41989" lon="-0.53369">
        <ele>191.75</ele>
        <time>2021-09-01T17:40:35.844Z</time>
      </trkpt>
      <trkpt lat="48.41989" lon="-0.53369">
        <ele>191.75</ele>
        <time>2021-09-01T17:41:21.982Z</time>
      </trkpt>
      <trkpt lat="48.42003" lon="-0.53481">
        <ele>188.87</ele>
        <time>2021-09-01T17:42:08.132Z</time>
      </trkpt>
      <trkpt lat="48.42003" lon="-0.53481">
        <ele>188.87</ele>
        <time>2021-09-01T17:42:54.282Z</time>
      </trkpt>
      <trkpt lat="48.42004" lon="-0.53508">
        <ele>188.44</ele>
        <time>2021-09-01T17:43:40.435Z</time>
      </trkpt>
      <trkpt lat="48.42004" lon="-0.53508">
        <ele>188.44</ele>
        <time>2021-09-01T17:44:26.588Z</time>
      </trkpt>
      <trkpt lat="48.41996" lon="-0.53611">
        <ele>187.17</ele>
        <time>2021-09-01T17:45:12.752Z</time>
      </trkpt>
      <trkpt lat="48.41996" lon="-0.53611">
        <ele>187.17</ele>
        <time>2021-09-01T17:45:58.916Z</time>
      </trkpt>
      <trkpt lat="48.41981" lon="-0.53769">
        <ele>185.68</ele>
        <time>2021-09-01T17:46:45.097Z</time>
      </trkpt>
      <trkpt lat="48.41981" lon="-0.53769">
        <ele>185.68</ele>
        <time>2021-09-01T17:47:31.278Z</time>
      </trkpt>
      <trkpt lat="48.41975" lon="-0.53835">
        <ele>185.68</ele>
        <time>2021-09-01T17:48:17.466Z</time>
      </trkpt>
      <trkpt lat="48.41975" lon="-0.53835">
        <ele>185.68</ele>
        <time>2021-09-01T17:49:03.654Z</time>
      </trkpt>
      <trkpt lat="48.41953" lon="-0.53995">
        <ele>184.27</ele>
        <time>2021-09-01T17:49:49.860Z</time>
      </trkpt>
      <trkpt lat="48.41953" lon="-0.53995">
        <ele>184.27</ele>
        <time>2021-09-01T17:50:36.066Z</time>
      </trkpt>
      <trkpt lat="48.4193" lon="-0.54147">
        <ele>180.87</ele>
        <time>2021-09-01T17:51:22.288Z</time>
      </trkpt>
      <trkpt lat="48.4193" lon="-0.54147">
        <ele>180.87</ele>
        <time>2021-09-01T17:52:08.510Z</time>
      </trkpt>
      <trkpt lat="48.41891" lon="-0.54323">
        <ele>173.64</ele>
        <time>2021-09-01T17:52:54.752Z</time>
      </trkpt>
      <trkpt lat="48.41891" lon="-0.54323">
        <ele>173.64</ele>
        <time>2021-09-01T17:53:40.994Z</time>
      </trkpt>
      <trkpt lat="48.41881" lon="-0.54386">
        <ele>171.71</ele>
        <time>2021-09-01T17:54:27.243Z</time>
      </trkpt>
      <trkpt lat="48.41881" lon="-0.54386">
        <ele>171.71</ele>
        <time>2021-09-01T17:55:13.492Z</time>
      </trkpt>
      <trkpt lat="48.41874" lon="-0.54486">
        <ele>167.93</ele>
        <time>2021-09-01T17:55:59.752Z</time>
      </trkpt>
      <trkpt lat="48.41874" lon="-0.54486">
        <ele>167.93</ele>
        <time>2021-09-01T17:56:46.012Z</time>
      </trkpt>
      <trkpt lat="48.41868" lon="-0.5452">
        <ele>166.33</ele>
        <time>2021-09-01T17:57:32.275Z</time>
      </trkpt>
      <trkpt lat="48.41868" lon="-0.5452">
        <ele>166.33</ele>
        <time>2021-09-01T17:58:18.538Z</time>
      </trkpt>
      <trkpt lat="48.41857" lon="-0.54559">
        <ele>164.03</ele>
        <time>2021-09-01T17:59:04.806Z</time>
      </trkpt>
      <trkpt lat="48.41857" lon="-0.54559">
        <ele>164.03</ele>
        <time>2021-09-01T17:59:51.074Z</time>
      </trkpt>
      <trkpt lat="48.41741" lon="-0.5493">
        <ele>151</ele>
        <time>2021-09-01T18:00:37.386Z</time>
      </trkpt>
      <trkpt lat="48.41741" lon="-0.5493">
        <ele>151</ele>
        <time>2021-09-01T18:01:23.698Z</time>
      </trkpt>
      <trkpt lat="48.41716" lon="-0.55006">
        <ele>147.32</ele>
        <time>2021-09-01T18:02:10.019Z</time>
      </trkpt>
      <trkpt lat="48.41716" lon="-0.55006">
        <ele>147.32</ele>
        <time>2021-09-01T18:02:56.340Z</time>
      </trkpt>
      <trkpt lat="48.41683" lon="-0.55091">
        <ele>146.08</ele>
        <time>2021-09-01T18:03:42.671Z</time>
      </trkpt>
      <trkpt lat="48.41683" lon="-0.55091">
        <ele>146.08</ele>
        <time>2021-09-01T18:04:29.002Z</time>
      </trkpt>
      <trkpt lat="48.4167" lon="-0.5514">
        <ele>146.07</ele>
        <time>2021-09-01T18:05:15.339Z</time>
      </trkpt>
      <trkpt lat="48.4167" lon="-0.5514">
        <ele>146.07</ele>
        <time>2021-09-01T18:06:01.676Z</time>
      </trkpt>
      <trkpt lat="48.41614" lon="-0.55503">
        <ele>143.79</ele>
        <time>2021-09-01T18:06:48.052Z</time>
      </trkpt>
      <trkpt lat="48.41614" lon="-0.55503">
        <ele>143.79</ele>
        <time>2021-09-01T18:07:34.428Z</time>
      </trkpt>
      <trkpt lat="48.41601" lon="-0.55667">
        <ele>139.59</ele>
        <time>2021-09-01T18:08:20.822Z</time>
      </trkpt>
      <trkpt lat="48.41601" lon="-0.55667">
        <ele>139.59</ele>
        <time>2021-09-01T18:09:07.216Z</time>
      </trkpt>
      <trkpt lat="48.41601" lon="-0.55706">
        <ele>138.53</ele>
        <time>2021-09-01T18:09:53.614Z</time>
      </trkpt>
      <trkpt lat="48.41601" lon="-0.55706">
        <ele>138.53</ele>
        <time>2021-09-01T18:10:40.012Z</time>
      </trkpt>
      <trkpt lat="48.41616" lon="-0.55803">
        <ele>136.75</ele>
        <time>2021-09-01T18:11:26.421Z</time>
      </trkpt>
      <trkpt lat="48.41616" lon="-0.55803">
        <ele>136.75</ele>
        <time>2021-09-01T18:12:12.830Z</time>
      </trkpt>
      <trkpt lat="48.41623" lon="-0.55908">
        <ele>136.13</ele>
        <time>2021-09-01T18:12:59.250Z</time>
      </trkpt>
      <trkpt lat="48.41623" lon="-0.55908">
        <ele>136.13</ele>
        <time>2021-09-01T18:13:45.670Z</time>
      </trkpt>
      <trkpt lat="48.41634" lon="-0.56172">
        <ele>135.72</ele>
        <time>2021-09-01T18:14:32.118Z</time>
      </trkpt>
      <trkpt lat="48.41634" lon="-0.56172">
        <ele>135.72</ele>
        <time>2021-09-01T18:15:18.566Z</time>
      </trkpt>
      <trkpt lat="48.41629" lon="-0.56228">
        <ele>136.01</ele>
        <time>2021-09-01T18:16:05.020Z</time>
      </trkpt>
      <trkpt lat="48.41629" lon="-0.56228">
        <ele>136.01</ele>
        <time>2021-09-01T18:16:51.474Z</time>
      </trkpt>
      <trkpt lat="48.41563" lon="-0.56538">
        <ele>134.84</ele>
        <time>2021-09-01T18:17:37.963Z</time>
      </trkpt>
      <trkpt lat="48.41563" lon="-0.56538">
        <ele>134.84</ele>
        <time>2021-09-01T18:18:24.452Z</time>
      </trkpt>
      <trkpt lat="48.41528" lon="-0.56743">
        <ele>134.02</ele>
        <time>2021-09-01T18:19:10.963Z</time>
      </trkpt>
      <trkpt lat="48.41528" lon="-0.56743">
        <ele>134.02</ele>
        <time>2021-09-01T18:19:57.474Z</time>
      </trkpt>
      <trkpt lat="48.41522" lon="-0.56767">
        <ele>134.06</ele>
        <time>2021-09-01T18:20:43.988Z</time>
      </trkpt>
      <trkpt lat="48.41522" lon="-0.56767">
        <ele>134.06</ele>
        <time>2021-09-01T18:21:30.502Z</time>
      </trkpt>
      <trkpt lat="48.41501" lon="-0.56802">
        <ele>134.22</ele>
        <time>2021-09-01T18:22:17.021Z</time>
      </trkpt>
      <trkpt lat="48.41501" lon="-0.56802">
        <ele>134.22</ele>
        <time>2021-09-01T18:23:03.540Z</time>
      </trkpt>
      <trkpt lat="48.41479" lon="-0.56987">
        <ele>135.41</ele>
        <time>2021-09-01T18:23:50.079Z</time>
      </trkpt>
      <trkpt lat="48.41479" lon="-0.56987">
        <ele>135.41</ele>
        <time>2021-09-01T18:24:36.618Z</time>
      </trkpt>
      <trkpt lat="48.41444" lon="-0.5726">
        <ele>136.39</ele>
        <time>2021-09-01T18:25:23.187Z</time>
      </trkpt>
      <trkpt lat="48.41444" lon="-0.5726">
        <ele>136.39</ele>
        <time>2021-09-01T18:26:09.756Z</time>
      </trkpt>
      <trkpt lat="48.41368" lon="-0.57515">
        <ele>128.67</ele>
        <time>2021-09-01T18:26:56.355Z</time>
      </trkpt>
      <trkpt lat="48.41368" lon="-0.57515">
        <ele>128.67</ele>
        <time>2021-09-01T18:27:42.954Z</time>
      </trkpt>
      <trkpt lat="48.41344" lon="-0.57584">
        <ele>127.22</ele>
        <time>2021-09-01T18:28:29.561Z</time>
      </trkpt>
      <trkpt lat="48.41344" lon="-0.57584">
        <ele>127.22</ele>
        <time>2021-09-01T18:29:16.168Z</time>
      </trkpt>
      <trkpt lat="48.41238" lon="-0.5787">
        <ele>128.21</ele>
        <time>2021-09-01T18:30:02.810Z</time>
      </trkpt>
      <trkpt lat="48.41238" lon="-0.5787">
        <ele>128.21</ele>
        <time>2021-09-01T18:30:49.452Z</time>
      </trkpt>
      <trkpt lat="48.41223" lon="-0.57928">
        <ele>127.9</ele>
        <time>2021-09-01T18:31:36.101Z</time>
      </trkpt>
      <trkpt lat="48.41223" lon="-0.57928">
        <ele>127.9</ele>
        <time>2021-09-01T18:32:22.750Z</time>
      </trkpt>
      <trkpt lat="48.41191" lon="-0.58084">
        <ele>125.74</ele>
        <time>2021-09-01T18:33:09.416Z</time>
      </trkpt>
      <trkpt lat="48.41191" lon="-0.58084">
        <ele>125.74</ele>
        <time>2021-09-01T18:33:56.082Z</time>
      </trkpt>
      <trkpt lat="48.41176" lon="-0.58167">
        <ele>124.05</ele>
        <time>2021-09-01T18:34:42.757Z</time>
      </trkpt>
      <trkpt lat="48.41176" lon="-0.58167">
        <ele>124.05</ele>
        <time>2021-09-01T18:35:29.432Z</time>
      </trkpt>
      <trkpt lat="48.41173" lon="-0.58209">
        <ele>123.66</ele>
        <time>2021-09-01T18:36:16.112Z</time>
      </trkpt>
      <trkpt lat="48.41173" lon="-0.58209">
        <ele>123.66</ele>
        <time>2021-09-01T18:37:02.792Z</time>
      </trkpt>
      <trkpt lat="48.41174" lon="-0.5837">
        <ele>124.94</ele>
        <time>2021-09-01T18:37:49.489Z</time>
      </trkpt>
      <trkpt lat="48.41174" lon="-0.5837">
        <ele>124.94</ele>
        <time>2021-09-01T18:38:36.186Z</time>
      </trkpt>
      <trkpt lat="48.41177" lon="-0.58414">
        <ele>125.23</ele>
        <time>2021-09-01T18:39:22.887Z</time>
      </trkpt>
      <trkpt lat="48.41177" lon="-0.58414">
        <ele>125.23</ele>
        <time>2021-09-01T18:40:09.588Z</time>
      </trkpt>
      <trkpt lat="48.41198" lon="-0.58543">
        <ele>124.99</ele>
        <time>2021-09-01T18:40:56.304Z</time>
      </trkpt>
      <trkpt lat="48.41198" lon="-0.58543">
        <ele>124.99</ele>
        <time>2021-09-01T18:41:43.020Z</time>
      </trkpt>
      <trkpt lat="48.412" lon="-0.58567">
        <ele>124.99</ele>
        <time>2021-09-01T18:42:29.738Z</time>
      </trkpt>
      <trkpt lat="48.412" lon="-0.58567">
        <ele>124.99</ele>
        <time>2021-09-01T18:43:16.456Z</time>
      </trkpt>
      <trkpt lat="48.41199" lon="-0.58587">
        <ele>124.85</ele>
        <time>2021-09-01T18:44:03.176Z</time>
      </trkpt>
      <trkpt lat="48.41199" lon="-0.58587">
        <ele>124.85</ele>
        <time>2021-09-01T18:44:49.896Z</time>
      </trkpt>
      <trkpt lat="48.41188" lon="-0.58633">
        <ele>124.85</ele>
        <time>2021-09-01T18:45:36.622Z</time>
      </trkpt>
      <trkpt lat="48.41188" lon="-0.58633">
        <ele>124.85</ele>
        <time>2021-09-01T18:46:23.348Z</time>
      </trkpt>
      <trkpt lat="48.40996" lon="-0.59226">
        <ele>124.47</ele>
        <time>2021-09-01T18:47:10.144Z</time>
      </trkpt>
      <trkpt lat="48.40996" lon="-0.59226">
        <ele>124.47</ele>
        <time>2021-09-01T18:47:56.940Z</time>
      </trkpt>
      <trkpt lat="48.40969" lon="-0.59303">
        <ele>121.99</ele>
        <time>2021-09-01T18:48:43.745Z</time>
      </trkpt>
      <trkpt lat="48.40969" lon="-0.59303">
        <ele>121.99</ele>
        <time>2021-09-01T18:49:30.550Z</time>
      </trkpt>
      <trkpt lat="48.40886" lon="-0.59509">
        <ele>119.85</ele>
        <time>2021-09-01T18:50:17.381Z</time>
      </trkpt>
      <trkpt lat="48.40886" lon="-0.59509">
        <ele>119.85</ele>
        <time>2021-09-01T18:51:04.212Z</time>
      </trkpt>
      <trkpt lat="48.40873" lon="-0.59538">
        <ele>120.69</ele>
        <time>2021-09-01T18:51:51.047Z</time>
      </trkpt>
      <trkpt lat="48.40873" lon="-0.59538">
        <ele>120.69</ele>
        <time>2021-09-01T18:52:37.882Z</time>
      </trkpt>
      <trkpt lat="48.40851" lon="-0.59575">
        <ele>122.14</ele>
        <time>2021-09-01T18:53:24.722Z</time>
      </trkpt>
      <trkpt lat="48.40851" lon="-0.59575">
        <ele>122.14</ele>
        <time>2021-09-01T18:54:11.562Z</time>
      </trkpt>
      <trkpt lat="48.40838" lon="-0.59591">
        <ele>123.11</ele>
        <time>2021-09-01T18:54:58.405Z</time>
      </trkpt>
      <trkpt lat="48.40838" lon="-0.59591">
        <ele>123.11</ele>
        <time>2021-09-01T18:55:45.248Z</time>
      </trkpt>
      <trkpt lat="48.40775" lon="-0.5966">
        <ele>124.2</ele>
        <time>2021-09-01T18:56:32.103Z</time>
      </trkpt>
      <trkpt lat="48.40775" lon="-0.5966">
        <ele>124.2</ele>
        <time>2021-09-01T18:57:18.958Z</time>
      </trkpt>
      <trkpt lat="48.40761" lon="-0.59682">
        <ele>124.18</ele>
        <time>2021-09-01T18:58:05.816Z</time>
      </trkpt>
      <trkpt lat="48.40761" lon="-0.59682">
        <ele>124.18</ele>
        <time>2021-09-01T18:58:52.674Z</time>
      </trkpt>
      <trkpt lat="48.40743" lon="-0.59719">
        <ele>124.07</ele>
        <time>2021-09-01T18:59:39.537Z</time>
      </trkpt>
      <trkpt lat="48.40743" lon="-0.59719">
        <ele>124.07</ele>
        <time>2021-09-01T19:00:26.400Z</time>
      </trkpt>
      <trkpt lat="48.40738" lon="-0.59736">
        <ele>123.99</ele>
        <time>2021-09-01T19:01:13.265Z</time>
      </trkpt>
      <trkpt lat="48.40738" lon="-0.59736">
        <ele>123.99</ele>
        <time>2021-09-01T19:02:00.130Z</time>
      </trkpt>
      <trkpt lat="48.40737" lon="-0.59737">
        <ele>123.88</ele>
        <time>2021-09-01T19:02:46.995Z</time>
      </trkpt>
      <trkpt lat="48.40737" lon="-0.59737">
        <ele>123.88</ele>
        <time>2021-09-01T19:03:33.860Z</time>
      </trkpt>
      <trkpt lat="48.40733" lon="-0.59751">
        <ele>123.8</ele>
        <time>2021-09-01T19:04:20.727Z</time>
      </trkpt>
      <trkpt lat="48.40733" lon="-0.59751">
        <ele>123.8</ele>
        <time>2021-09-01T19:05:07.594Z</time>
      </trkpt>
      <trkpt lat="48.40728" lon="-0.59786">
        <ele>122.96</ele>
        <time>2021-09-01T19:05:54.465Z</time>
      </trkpt>
      <trkpt lat="48.40728" lon="-0.59786">
        <ele>122.96</ele>
        <time>2021-09-01T19:06:41.336Z</time>
      </trkpt>
      <trkpt lat="48.40716" lon="-0.59902">
        <ele>119.23</ele>
        <time>2021-09-01T19:07:28.219Z</time>
      </trkpt>
      <trkpt lat="48.40716" lon="-0.59902">
        <ele>119.23</ele>
        <time>2021-09-01T19:08:15.102Z</time>
      </trkpt>
      <trkpt lat="48.4071" lon="-0.59941">
        <ele>118.61</ele>
        <time>2021-09-01T19:09:01.990Z</time>
      </trkpt>
      <trkpt lat="48.4071" lon="-0.59941">
        <ele>118.61</ele>
        <time>2021-09-01T19:09:48.878Z</time>
      </trkpt>
      <trkpt lat="48.40703" lon="-0.59972">
        <ele>116.52</ele>
        <time>2021-09-01T19:10:35.769Z</time>
      </trkpt>
      <trkpt lat="48.40703" lon="-0.59972">
        <ele>116.52</ele>
        <time>2021-09-01T19:11:22.660Z</time>
      </trkpt>
      <trkpt lat="48.40693" lon="-0.60004">
        <ele>116.52</ele>
        <time>2021-09-01T19:12:09.555Z</time>
      </trkpt>
      <trkpt lat="48.40693" lon="-0.60004">
        <ele>116.52</ele>
        <time>2021-09-01T19:12:56.450Z</time>
      </trkpt>
      <trkpt lat="48.4067" lon="-0.60053">
        <ele>114.46</ele>
        <time>2021-09-01T19:13:43.351Z</time>
      </trkpt>
      <trkpt lat="48.4067" lon="-0.60053">
        <ele>114.46</ele>
        <time>2021-09-01T19:14:30.252Z</time>
      </trkpt>
      <trkpt lat="48.40648" lon="-0.60087">
        <ele>113.07</ele>
        <time>2021-09-01T19:15:17.158Z</time>
      </trkpt>
      <trkpt lat="48.40648" lon="-0.60087">
        <ele>113.07</ele>
        <time>2021-09-01T19:16:04.064Z</time>
      </trkpt>
      <trkpt lat="48.40629" lon="-0.60104">
        <ele>112.44</ele>
        <time>2021-09-01T19:16:50.974Z</time>
      </trkpt>
      <trkpt lat="48.40629" lon="-0.60104">
        <ele>112.44</ele>
        <time>2021-09-01T19:17:37.884Z</time>
      </trkpt>
      <trkpt lat="48.40616" lon="-0.60114">
        <ele>111.64</ele>
        <time>2021-09-01T19:18:24.796Z</time>
      </trkpt>
      <trkpt lat="48.40616" lon="-0.60114">
        <ele>111.64</ele>
        <time>2021-09-01T19:19:11.708Z</time>
      </trkpt>
      <trkpt lat="48.4057" lon="-0.60131">
        <ele>109.44</ele>
        <time>2021-09-01T19:19:58.628Z</time>
      </trkpt>
      <trkpt lat="48.4057" lon="-0.60131">
        <ele>109.44</ele>
        <time>2021-09-01T19:20:45.548Z</time>
      </trkpt>
      <trkpt lat="48.40555" lon="-0.60141">
        <ele>108.39</ele>
        <time>2021-09-01T19:21:32.470Z</time>
      </trkpt>
      <trkpt lat="48.40555" lon="-0.60141">
        <ele>108.39</ele>
        <time>2021-09-01T19:22:19.392Z</time>
      </trkpt>
      <trkpt lat="48.40538" lon="-0.60158">
        <ele>107.81</ele>
        <time>2021-09-01T19:23:06.318Z</time>
      </trkpt>
      <trkpt lat="48.40538" lon="-0.60158">
        <ele>107.81</ele>
        <time>2021-09-01T19:23:53.244Z</time>
      </trkpt>
      <trkpt lat="48.40516" lon="-0.60192">
        <ele>106.45</ele>
        <time>2021-09-01T19:24:40.175Z</time>
      </trkpt>
      <trkpt lat="48.40516" lon="-0.60192">
        <ele>106.45</ele>
        <time>2021-09-01T19:25:27.106Z</time>
      </trkpt>
      <trkpt lat="48.40472" lon="-0.60287">
        <ele>102.7</ele>
        <time>2021-09-01T19:26:14.049Z</time>
      </trkpt>
      <trkpt lat="48.40472" lon="-0.60287">
        <ele>102.7</ele>
        <time>2021-09-01T19:27:00.992Z</time>
      </trkpt>
      <trkpt lat="48.4046" lon="-0.60309">
        <ele>101.65</ele>
        <time>2021-09-01T19:27:47.938Z</time>
      </trkpt>
      <trkpt lat="48.4046" lon="-0.60309">
        <ele>101.65</ele>
        <time>2021-09-01T19:28:34.884Z</time>
      </trkpt>
      <trkpt lat="48.40452" lon="-0.60319">
        <ele>100.96</ele>
        <time>2021-09-01T19:29:21.832Z</time>
      </trkpt>
      <trkpt lat="48.40452" lon="-0.60319">
        <ele>100.96</ele>
        <time>2021-09-01T19:30:08.780Z</time>
      </trkpt>
      <trkpt lat="48.40442" lon="-0.6033">
        <ele>100.57</ele>
        <time>2021-09-01T19:30:55.730Z</time>
      </trkpt>
      <trkpt lat="48.40442" lon="-0.6033">
        <ele>100.57</ele>
        <time>2021-09-01T19:31:42.680Z</time>
      </trkpt>
      <trkpt lat="48.40429" lon="-0.60336">
        <ele>100.09</ele>
        <time>2021-09-01T19:32:29.632Z</time>
      </trkpt>
      <trkpt lat="48.40429" lon="-0.60336">
        <ele>100.09</ele>
        <time>2021-09-01T19:33:16.584Z</time>
      </trkpt>
      <trkpt lat="48.40386" lon="-0.60352">
        <ele>99.34</ele>
        <time>2021-09-01T19:34:03.543Z</time>
      </trkpt>
      <trkpt lat="48.40386" lon="-0.60352">
        <ele>99.34</ele>
        <time>2021-09-01T19:34:50.502Z</time>
      </trkpt>
      <trkpt lat="48.40377" lon="-0.60358">
        <ele>99.18</ele>
        <time>2021-09-01T19:35:37.463Z</time>
      </trkpt>
      <trkpt lat="48.40377" lon="-0.60358">
        <ele>99.18</ele>
        <time>2021-09-01T19:36:24.424Z</time>
      </trkpt>
      <trkpt lat="48.4037" lon="-0.60368">
        <ele>99.11</ele>
        <time>2021-09-01T19:37:11.386Z</time>
      </trkpt>
      <trkpt lat="48.4037" lon="-0.60368">
        <ele>99.11</ele>
        <time>2021-09-01T19:37:58.348Z</time>
      </trkpt>
      <trkpt lat="48.40365" lon="-0.60392">
        <ele>99.07</ele>
        <time>2021-09-01T19:38:45.313Z</time>
      </trkpt>
      <trkpt lat="48.40365" lon="-0.60392">
        <ele>99.07</ele>
        <time>2021-09-01T19:39:32.278Z</time>
      </trkpt>
      <trkpt lat="48.40369" lon="-0.60419">
        <ele>98.94</ele>
        <time>2021-09-01T19:40:19.246Z</time>
      </trkpt>
      <trkpt lat="48.40369" lon="-0.60419">
        <ele>98.94</ele>
        <time>2021-09-01T19:41:06.214Z</time>
      </trkpt>
      <trkpt lat="48.40387" lon="-0.60451">
        <ele>98.94</ele>
        <time>2021-09-01T19:41:53.186Z</time>
      </trkpt>
      <trkpt lat="48.40387" lon="-0.60451">
        <ele>98.94</ele>
        <time>2021-09-01T19:42:40.158Z</time>
      </trkpt>
      <trkpt lat="48.40432" lon="-0.60502">
        <ele>98.51</ele>
        <time>2021-09-01T19:43:27.139Z</time>
      </trkpt>
      <trkpt lat="48.40432" lon="-0.60502">
        <ele>98.51</ele>
        <time>2021-09-01T19:44:14.120Z</time>
      </trkpt>
      <trkpt lat="48.40452" lon="-0.60533">
        <ele>98.62</ele>
        <time>2021-09-01T19:45:01.106Z</time>
      </trkpt>
      <trkpt lat="48.40452" lon="-0.60533">
        <ele>98.62</ele>
        <time>2021-09-01T19:45:48.092Z</time>
      </trkpt>
      <trkpt lat="48.40459" lon="-0.60553">
        <ele>98.74</ele>
        <time>2021-09-01T19:46:35.080Z</time>
      </trkpt>
      <trkpt lat="48.40459" lon="-0.60553">
        <ele>98.74</ele>
        <time>2021-09-01T19:47:22.068Z</time>
      </trkpt>
      <trkpt lat="48.40463" lon="-0.60575">
        <ele>98.74</ele>
        <time>2021-09-01T19:48:09.059Z</time>
      </trkpt>
      <trkpt lat="48.40463" lon="-0.60575">
        <ele>98.74</ele>
        <time>2021-09-01T19:48:56.050Z</time>
      </trkpt>
      <trkpt lat="48.40465" lon="-0.60624">
        <ele>98.92</ele>
        <time>2021-09-01T19:49:43.046Z</time>
      </trkpt>
      <trkpt lat="48.40465" lon="-0.60624">
        <ele>98.92</ele>
        <time>2021-09-01T19:50:30.042Z</time>
      </trkpt>
      <trkpt lat="48.40461" lon="-0.60648">
        <ele>99.02</ele>
        <time>2021-09-01T19:51:17.040Z</time>
      </trkpt>
      <trkpt lat="48.40461" lon="-0.60648">
        <ele>99.02</ele>
        <time>2021-09-01T19:52:04.038Z</time>
      </trkpt>
      <trkpt lat="48.40456" lon="-0.6067">
        <ele>99.65</ele>
        <time>2021-09-01T19:52:51.039Z</time>
      </trkpt>
      <trkpt lat="48.40456" lon="-0.6067">
        <ele>99.65</ele>
        <time>2021-09-01T19:53:38.040Z</time>
      </trkpt>
      <trkpt lat="48.40438" lon="-0.60721">
        <ele>100.5</ele>
        <time>2021-09-01T19:54:25.047Z</time>
      </trkpt>
      <trkpt lat="48.40438" lon="-0.60721">
        <ele>100.5</ele>
        <time>2021-09-01T19:55:12.054Z</time>
      </trkpt>
      <trkpt lat="48.4043" lon="-0.60751">
        <ele>101.64</ele>
        <time>2021-09-01T19:55:59.065Z</time>
      </trkpt>
      <trkpt lat="48.4043" lon="-0.60751">
        <ele>101.64</ele>
        <time>2021-09-01T19:56:46.076Z</time>
      </trkpt>
      <trkpt lat="48.4042" lon="-0.60806">
        <ele>102.96</ele>
        <time>2021-09-01T19:57:33.093Z</time>
      </trkpt>
      <trkpt lat="48.4042" lon="-0.60806">
        <ele>102.96</ele>
        <time>2021-09-01T19:58:20.110Z</time>
      </trkpt>
      <trkpt lat="48.40416" lon="-0.60816">
        <ele>104.88</ele>
        <time>2021-09-01T19:59:07.128Z</time>
      </trkpt>
      <trkpt lat="48.40416" lon="-0.60816">
        <ele>104.88</ele>
        <time>2021-09-01T19:59:54.146Z</time>
      </trkpt>
      <trkpt lat="48.4041" lon="-0.60824">
        <ele>104.88</ele>
        <time>2021-09-01T20:00:41.165Z</time>
      </trkpt>
      <trkpt lat="48.4041" lon="-0.60824">
        <ele>104.88</ele>
        <time>2021-09-01T20:01:28.184Z</time>
      </trkpt>
      <trkpt lat="48.40355" lon="-0.60862">
        <ele>107.13</ele>
        <time>2021-09-01T20:02:15.213Z</time>
      </trkpt>
      <trkpt lat="48.40355" lon="-0.60862">
        <ele>107.13</ele>
        <time>2021-09-01T20:03:02.242Z</time>
      </trkpt>
      <trkpt lat="48.40324" lon="-0.60887">
        <ele>109.21</ele>
        <time>2021-09-01T20:03:49.277Z</time>
      </trkpt>
      <trkpt lat="48.40324" lon="-0.60887">
        <ele>109.21</ele>
        <time>2021-09-01T20:04:36.312Z</time>
      </trkpt>
      <trkpt lat="48.40306" lon="-0.60914">
        <ele>110.31</ele>
        <time>2021-09-01T20:05:23.351Z</time>
      </trkpt>
      <trkpt lat="48.40306" lon="-0.60914">
        <ele>110.31</ele>
        <time>2021-09-01T20:06:10.390Z</time>
      </trkpt>
      <trkpt lat="48.403" lon="-0.60931">
        <ele>110.31</ele>
        <time>2021-09-01T20:06:57.431Z</time>
      </trkpt>
      <trkpt lat="48.403" lon="-0.60931">
        <ele>110.31</ele>
        <time>2021-09-01T20:07:44.472Z</time>
      </trkpt>
      <trkpt lat="48.40297" lon="-0.60951">
        <ele>111.29</ele>
        <time>2021-09-01T20:08:31.515Z</time>
      </trkpt>
      <trkpt lat="48.40297" lon="-0.60951">
        <ele>111.29</ele>
        <time>2021-09-01T20:09:18.558Z</time>
      </trkpt>
      <trkpt lat="48.40296" lon="-0.60975">
        <ele>111.29</ele>
        <time>2021-09-01T20:10:05.603Z</time>
      </trkpt>
      <trkpt lat="48.40296" lon="-0.60975">
        <ele>111.29</ele>
        <time>2021-09-01T20:10:52.648Z</time>
      </trkpt>
      <trkpt lat="48.40321" lon="-0.61299">
        <ele>120.71</ele>
        <time>2021-09-01T20:11:39.728Z</time>
      </trkpt>
      <trkpt lat="48.40321" lon="-0.61299">
        <ele>120.71</ele>
        <time>2021-09-01T20:12:26.808Z</time>
      </trkpt>
      <trkpt lat="48.40317" lon="-0.61358">
        <ele>123.79</ele>
        <time>2021-09-01T20:13:13.894Z</time>
      </trkpt>
      <trkpt lat="48.40317" lon="-0.61358">
        <ele>123.79</ele>
        <time>2021-09-01T20:14:00.980Z</time>
      </trkpt>
      <trkpt lat="48.40311" lon="-0.61382">
        <ele>124.18</ele>
        <time>2021-09-01T20:14:48.069Z</time>
      </trkpt>
      <trkpt lat="48.40311" lon="-0.61382">
        <ele>124.18</ele>
        <time>2021-09-01T20:15:35.158Z</time>
      </trkpt>
      <trkpt lat="48.40303" lon="-0.61404">
        <ele>124.87</ele>
        <time>2021-09-01T20:16:22.250Z</time>
      </trkpt>
      <trkpt lat="48.40303" lon="-0.61404">
        <ele>124.87</ele>
        <time>2021-09-01T20:17:09.342Z</time>
      </trkpt>
      <trkpt lat="48.4028" lon="-0.61441">
        <ele>125.97</ele>
        <time>2021-09-01T20:17:56.439Z</time>
      </trkpt>
      <trkpt lat="48.4028" lon="-0.61441">
        <ele>125.97</ele>
        <time>2021-09-01T20:18:43.536Z</time>
      </trkpt>
      <trkpt lat="48.40259" lon="-0.6147">
        <ele>126.58</ele>
        <time>2021-09-01T20:19:30.638Z</time>
      </trkpt>
      <trkpt lat="48.40259" lon="-0.6147">
        <ele>126.58</ele>
        <time>2021-09-01T20:20:17.740Z</time>
      </trkpt>
      <trkpt lat="48.4024" lon="-0.61507">
        <ele>126.86</ele>
        <time>2021-09-01T20:21:04.847Z</time>
      </trkpt>
      <trkpt lat="48.4024" lon="-0.61507">
        <ele>126.86</ele>
        <time>2021-09-01T20:21:51.954Z</time>
      </trkpt>
      <trkpt lat="48.40227" lon="-0.61539">
        <ele>126.65</ele>
        <time>2021-09-01T20:22:39.065Z</time>
      </trkpt>
      <trkpt lat="48.40227" lon="-0.61539">
        <ele>126.65</ele>
        <time>2021-09-01T20:23:26.176Z</time>
      </trkpt>
      <trkpt lat="48.40213" lon="-0.6158">
        <ele>126.02</ele>
        <time>2021-09-01T20:24:13.292Z</time>
      </trkpt>
      <trkpt lat="48.40213" lon="-0.6158">
        <ele>126.02</ele>
        <time>2021-09-01T20:25:00.408Z</time>
      </trkpt>
      <trkpt lat="48.40082" lon="-0.62082">
        <ele>114.14</ele>
        <time>2021-09-01T20:25:47.581Z</time>
      </trkpt>
      <trkpt lat="48.40082" lon="-0.62082">
        <ele>114.14</ele>
        <time>2021-09-01T20:26:34.754Z</time>
      </trkpt>
      <trkpt lat="48.40073" lon="-0.62126">
        <ele>112.72</ele>
        <time>2021-09-01T20:27:21.932Z</time>
      </trkpt>
      <trkpt lat="48.40073" lon="-0.62126">
        <ele>112.72</ele>
        <time>2021-09-01T20:28:09.110Z</time>
      </trkpt>
      <trkpt lat="48.40068" lon="-0.62161">
        <ele>110.78</ele>
        <time>2021-09-01T20:28:56.292Z</time>
      </trkpt>
      <trkpt lat="48.40068" lon="-0.62161">
        <ele>110.78</ele>
        <time>2021-09-01T20:29:43.474Z</time>
      </trkpt>
      <trkpt lat="48.40065" lon="-0.62239">
        <ele>108.33</ele>
        <time>2021-09-01T20:30:30.664Z</time>
      </trkpt>
      <trkpt lat="48.40065" lon="-0.62239">
        <ele>108.33</ele>
        <time>2021-09-01T20:31:17.854Z</time>
      </trkpt>
      <trkpt lat="48.40066" lon="-0.62264">
        <ele>106.2</ele>
        <time>2021-09-01T20:32:05.047Z</time>
      </trkpt>
      <trkpt lat="48.40066" lon="-0.62264">
        <ele>106.2</ele>
        <time>2021-09-01T20:32:52.240Z</time>
      </trkpt>
      <trkpt lat="48.40073" lon="-0.62331">
        <ele>105.05</ele>
        <time>2021-09-01T20:33:39.440Z</time>
      </trkpt>
      <trkpt lat="48.40073" lon="-0.62331">
        <ele>105.05</ele>
        <time>2021-09-01T20:34:26.640Z</time>
      </trkpt>
      <trkpt lat="48.40093" lon="-0.62463">
        <ele>102.16</ele>
        <time>2021-09-01T20:35:13.855Z</time>
      </trkpt>
      <trkpt lat="48.40093" lon="-0.62463">
        <ele>102.16</ele>
        <time>2021-09-01T20:36:01.070Z</time>
      </trkpt>
      <trkpt lat="48.40102" lon="-0.62509">
        <ele>101.82</ele>
        <time>2021-09-01T20:36:48.290Z</time>
      </trkpt>
      <trkpt lat="48.40102" lon="-0.62509">
        <ele>101.82</ele>
        <time>2021-09-01T20:37:35.510Z</time>
      </trkpt>
      <trkpt lat="48.40108" lon="-0.62531">
        <ele>101.52</ele>
        <time>2021-09-01T20:38:22.732Z</time>
      </trkpt>
      <trkpt lat="48.40108" lon="-0.62531">
        <ele>101.52</ele>
        <time>2021-09-01T20:39:09.954Z</time>
      </trkpt>
      <trkpt lat="48.40136" lon="-0.62587">
        <ele>100.25</ele>
        <time>2021-09-01T20:39:57.184Z</time>
      </trkpt>
      <trkpt lat="48.40136" lon="-0.62587">
        <ele>100.25</ele>
        <time>2021-09-01T20:40:44.414Z</time>
      </trkpt>
      <trkpt lat="48.40276" lon="-0.62727">
        <ele>99.74</ele>
        <time>2021-09-01T20:41:31.671Z</time>
      </trkpt>
      <trkpt lat="48.40276" lon="-0.62727">
        <ele>99.74</ele>
        <time>2021-09-01T20:42:18.928Z</time>
      </trkpt>
      <trkpt lat="48.40298" lon="-0.6274">
        <ele>100.27</ele>
        <time>2021-09-01T20:43:06.188Z</time>
      </trkpt>
      <trkpt lat="48.40298" lon="-0.6274">
        <ele>100.27</ele>
        <time>2021-09-01T20:43:53.448Z</time>
      </trkpt>
      <trkpt lat="48.40292" lon="-0.62759">
        <ele>100.85</ele>
        <time>2021-09-01T20:44:40.711Z</time>
      </trkpt>
      <trkpt lat="48.40292" lon="-0.62759">
        <ele>100.85</ele>
        <time>2021-09-01T20:45:27.974Z</time>
      </trkpt>
      <trkpt lat="48.40285" lon="-0.62796">
        <ele>102.29</ele>
        <time>2021-09-01T20:46:15.241Z</time>
      </trkpt>
      <trkpt lat="48.40285" lon="-0.62796">
        <ele>102.29</ele>
        <time>2021-09-01T20:47:02.508Z</time>
      </trkpt>
      <trkpt lat="48.40284" lon="-0.62798">
        <ele>102.29</ele>
        <time>2021-09-01T20:47:49.775Z</time>
      </trkpt>
      <trkpt lat="48.40284" lon="-0.62798">
        <ele>102.29</ele>
        <time>2021-09-01T20:48:37.042Z</time>
      </trkpt>
      <trkpt lat="48.40281" lon="-0.62814">
        <ele>103</ele>
        <time>2021-09-01T20:49:24.311Z</time>
      </trkpt>
      <trkpt lat="48.40281" lon="-0.62814">
        <ele>103</ele>
        <time>2021-09-01T20:50:11.580Z</time>
      </trkpt>
      <trkpt lat="48.40274" lon="-0.62827">
        <ele>103</ele>
        <time>2021-09-01T20:50:58.851Z</time>
      </trkpt>
      <trkpt lat="48.40274" lon="-0.62827">
        <ele>103</ele>
        <time>2021-09-01T20:51:46.122Z</time>
      </trkpt>
      <trkpt lat="48.40258" lon="-0.62829">
        <ele>103.98</ele>
        <time>2021-09-01T20:52:33.395Z</time>
      </trkpt>
      <trkpt lat="48.40258" lon="-0.62829">
        <ele>103.98</ele>
        <time>2021-09-01T20:53:20.668Z</time>
      </trkpt>
      <trkpt lat="48.40215" lon="-0.62805">
        <ele>106.11</ele>
        <time>2021-09-01T20:54:07.949Z</time>
      </trkpt>
      <trkpt lat="48.40215" lon="-0.62805">
        <ele>106.11</ele>
        <time>2021-09-01T20:54:55.230Z</time>
      </trkpt>
      <trkpt lat="48.40004" lon="-0.62678">
        <ele>119.88</ele>
        <time>2021-09-01T20:55:42.547Z</time>
      </trkpt>
      <trkpt lat="48.40004" lon="-0.62678">
        <ele>119.88</ele>
        <time>2021-09-01T20:56:29.864Z</time>
      </trkpt>
      <trkpt lat="48.39962" lon="-0.62643">
        <ele>123.28</ele>
        <time>2021-09-01T20:57:17.189Z</time>
      </trkpt>
      <trkpt lat="48.39962" lon="-0.62643">
        <ele>123.28</ele>
        <time>2021-09-01T20:58:04.514Z</time>
      </trkpt>
      <trkpt lat="48.39941" lon="-0.62622">
        <ele>123.28</ele>
        <time>2021-09-01T20:58:51.843Z</time>
      </trkpt>
      <trkpt lat="48.39941" lon="-0.62622">
        <ele>123.28</ele>
        <time>2021-09-01T20:59:39.172Z</time>
      </trkpt>
      <trkpt lat="48.39905" lon="-0.62572">
        <ele>125.88</ele>
        <time>2021-09-01T21:00:26.509Z</time>
      </trkpt>
      <trkpt lat="48.39905" lon="-0.62572">
        <ele>125.88</ele>
        <time>2021-09-01T21:01:13.846Z</time>
      </trkpt>
      <trkpt lat="48.39894" lon="-0.62558">
        <ele>125.91</ele>
        <time>2021-09-01T21:02:01.185Z</time>
      </trkpt>
      <trkpt lat="48.39894" lon="-0.62558">
        <ele>125.91</ele>
        <time>2021-09-01T21:02:48.524Z</time>
      </trkpt>
      <trkpt lat="48.39818" lon="-0.62434">
        <ele>124</ele>
        <time>2021-09-01T21:03:35.881Z</time>
      </trkpt>
      <trkpt lat="48.39818" lon="-0.62434">
        <ele>124</ele>
        <time>2021-09-01T21:04:23.238Z</time>
      </trkpt>
      <trkpt lat="48.39766" lon="-0.62368">
        <ele>122.49</ele>
        <time>2021-09-01T21:05:10.606Z</time>
      </trkpt>
      <trkpt lat="48.39766" lon="-0.62368">
        <ele>122.49</ele>
        <time>2021-09-01T21:05:57.974Z</time>
      </trkpt>
      <trkpt lat="48.39747" lon="-0.62348">
        <ele>121.48</ele>
        <time>2021-09-01T21:06:45.345Z</time>
      </trkpt>
      <trkpt lat="48.39747" lon="-0.62348">
        <ele>121.48</ele>
        <time>2021-09-01T21:07:32.716Z</time>
      </trkpt>
      <trkpt lat="48.39707" lon="-0.62314">
        <ele>121.07</ele>
        <time>2021-09-01T21:08:20.095Z</time>
      </trkpt>
      <trkpt lat="48.39707" lon="-0.62314">
        <ele>121.07</ele>
        <time>2021-09-01T21:09:07.474Z</time>
      </trkpt>
      <trkpt lat="48.39585" lon="-0.62245">
        <ele>118.62</ele>
        <time>2021-09-01T21:09:54.874Z</time>
      </trkpt>
      <trkpt lat="48.39585" lon="-0.62245">
        <ele>118.62</ele>
        <time>2021-09-01T21:10:42.274Z</time>
      </trkpt>
      <trkpt lat="48.39456" lon="-0.62166">
        <ele>115.53</ele>
        <time>2021-09-01T21:11:29.696Z</time>
      </trkpt>
      <trkpt lat="48.39456" lon="-0.62166">
        <ele>115.53</ele>
        <time>2021-09-01T21:12:17.118Z</time>
      </trkpt>
      <trkpt lat="48.39158" lon="-0.61997">
        <ele>116.91</ele>
        <time>2021-09-01T21:13:04.591Z</time>
      </trkpt>
      <trkpt lat="48.39158" lon="-0.61997">
        <ele>116.91</ele>
        <time>2021-09-01T21:13:52.064Z</time>
      </trkpt>
      <trkpt lat="48.39117" lon="-0.61975">
        <ele>119.17</ele>
        <time>2021-09-01T21:14:39.544Z</time>
      </trkpt>
      <trkpt lat="48.39117" lon="-0.61975">
        <ele>119.17</ele>
        <time>2021-09-01T21:15:27.024Z</time>
      </trkpt>
      <trkpt lat="48.38997" lon="-0.61901">
        <ele>123.29</ele>
        <time>2021-09-01T21:16:14.525Z</time>
      </trkpt>
      <trkpt lat="48.38997" lon="-0.61901">
        <ele>123.29</ele>
        <time>2021-09-01T21:17:02.026Z</time>
      </trkpt>
      <trkpt lat="48.38859" lon="-0.61826">
        <ele>120.37</ele>
        <time>2021-09-01T21:17:49.550Z</time>
      </trkpt>
      <trkpt lat="48.38859" lon="-0.61826">
        <ele>120.37</ele>
        <time>2021-09-01T21:18:37.074Z</time>
      </trkpt>
      <trkpt lat="48.38271" lon="-0.61487">
        <ele>112.63</ele>
        <time>2021-09-01T21:19:24.699Z</time>
      </trkpt>
      <trkpt lat="48.38271" lon="-0.61487">
        <ele>112.63</ele>
        <time>2021-09-01T21:20:12.324Z</time>
      </trkpt>
      <trkpt lat="48.38157" lon="-0.61419">
        <ele>123.6</ele>
        <time>2021-09-01T21:20:59.969Z</time>
      </trkpt>
      <trkpt lat="48.38157" lon="-0.61419">
        <ele>123.6</ele>
        <time>2021-09-01T21:21:47.614Z</time>
      </trkpt>
      <trkpt lat="48.38088" lon="-0.6136">
        <ele>129.67</ele>
        <time>2021-09-01T21:22:35.271Z</time>
      </trkpt>
      <trkpt lat="48.38088" lon="-0.6136">
        <ele>129.67</ele>
        <time>2021-09-01T21:23:22.928Z</time>
      </trkpt>
      <trkpt lat="48.3792" lon="-0.6116">
        <ele>132.15</ele>
        <time>2021-09-01T21:24:10.620Z</time>
      </trkpt>
      <trkpt lat="48.3792" lon="-0.6116">
        <ele>132.15</ele>
        <time>2021-09-01T21:24:58.312Z</time>
      </trkpt>
      <trkpt lat="48.37862" lon="-0.61102">
        <ele>128.97</ele>
        <time>2021-09-01T21:25:46.015Z</time>
      </trkpt>
      <trkpt lat="48.37862" lon="-0.61102">
        <ele>128.97</ele>
        <time>2021-09-01T21:26:33.718Z</time>
      </trkpt>
      <trkpt lat="48.37802" lon="-0.61058">
        <ele>122.09</ele>
        <time>2021-09-01T21:27:21.432Z</time>
      </trkpt>
      <trkpt lat="48.37802" lon="-0.61058">
        <ele>122.09</ele>
        <time>2021-09-01T21:28:09.146Z</time>
      </trkpt>
      <trkpt lat="48.37767" lon="-0.61041">
        <ele>120.58</ele>
        <time>2021-09-01T21:28:56.866Z</time>
      </trkpt>
      <trkpt lat="48.37767" lon="-0.61041">
        <ele>120.58</ele>
        <time>2021-09-01T21:29:44.586Z</time>
      </trkpt>
      <trkpt lat="48.37706" lon="-0.61019">
        <ele>114.93</ele>
        <time>2021-09-01T21:30:32.316Z</time>
      </trkpt>
      <trkpt lat="48.37706" lon="-0.61019">
        <ele>114.93</ele>
        <time>2021-09-01T21:31:20.046Z</time>
      </trkpt>
      <trkpt lat="48.3766" lon="-0.61014">
        <ele>112.77</ele>
        <time>2021-09-01T21:32:07.783Z</time>
      </trkpt>
      <trkpt lat="48.3766" lon="-0.61014">
        <ele>112.77</ele>
        <time>2021-09-01T21:32:55.520Z</time>
      </trkpt>
      <trkpt lat="48.37365" lon="-0.60999">
        <ele>99.17</ele>
        <time>2021-09-01T21:33:43.304Z</time>
      </trkpt>
      <trkpt lat="48.37365" lon="-0.60999">
        <ele>99.17</ele>
        <time>2021-09-01T21:34:31.088Z</time>
      </trkpt>
      <trkpt lat="48.37311" lon="-0.60995">
        <ele>98.73</ele>
        <time>2021-09-01T21:35:18.881Z</time>
      </trkpt>
      <trkpt lat="48.37311" lon="-0.60995">
        <ele>98.73</ele>
        <time>2021-09-01T21:36:06.674Z</time>
      </trkpt>
      <trkpt lat="48.37284" lon="-0.60984">
        <ele>98.95</ele>
        <time>2021-09-01T21:36:54.471Z</time>
      </trkpt>
      <trkpt lat="48.37284" lon="-0.60984">
        <ele>98.95</ele>
        <time>2021-09-01T21:37:42.268Z</time>
      </trkpt>
      <trkpt lat="48.37264" lon="-0.60975">
        <ele>99.25</ele>
        <time>2021-09-01T21:38:30.069Z</time>
      </trkpt>
      <trkpt lat="48.37264" lon="-0.60975">
        <ele>99.25</ele>
        <time>2021-09-01T21:39:17.870Z</time>
      </trkpt>
      <trkpt lat="48.3724" lon="-0.60958">
        <ele>99.6</ele>
        <time>2021-09-01T21:40:05.675Z</time>
      </trkpt>
      <trkpt lat="48.3724" lon="-0.60958">
        <ele>99.6</ele>
        <time>2021-09-01T21:40:53.480Z</time>
      </trkpt>
      <trkpt lat="48.37209" lon="-0.60929">
        <ele>100.1</ele>
        <time>2021-09-01T21:41:41.291Z</time>
      </trkpt>
      <trkpt lat="48.37209" lon="-0.60929">
        <ele>100.1</ele>
        <time>2021-09-01T21:42:29.102Z</time>
      </trkpt>
      <trkpt lat="48.37194" lon="-0.60909">
        <ele>100.49</ele>
        <time>2021-09-01T21:43:16.916Z</time>
      </trkpt>
      <trkpt lat="48.37194" lon="-0.60909">
        <ele>100.49</ele>
        <time>2021-09-01T21:44:04.730Z</time>
      </trkpt>
      <trkpt lat="48.3711" lon="-0.60766">
        <ele>107.73</ele>
        <time>2021-09-01T21:44:52.564Z</time>
      </trkpt>
      <trkpt lat="48.3711" lon="-0.60766">
        <ele>107.73</ele>
        <time>2021-09-01T21:45:40.398Z</time>
      </trkpt>
      <trkpt lat="48.37088" lon="-0.60729">
        <ele>108.89</ele>
        <time>2021-09-01T21:46:28.238Z</time>
      </trkpt>
      <trkpt lat="48.37088" lon="-0.60729">
        <ele>108.89</ele>
        <time>2021-09-01T21:47:16.078Z</time>
      </trkpt>
      <trkpt lat="48.37073" lon="-0.60707">
        <ele>109.73</ele>
        <time>2021-09-01T21:48:03.921Z</time>
      </trkpt>
      <trkpt lat="48.37073" lon="-0.60707">
        <ele>109.73</ele>
        <time>2021-09-01T21:48:51.764Z</time>
      </trkpt>
      <trkpt lat="48.37053" lon="-0.60687">
        <ele>110.17</ele>
        <time>2021-09-01T21:49:39.611Z</time>
      </trkpt>
      <trkpt lat="48.37053" lon="-0.60687">
        <ele>110.17</ele>
        <time>2021-09-01T21:50:27.458Z</time>
      </trkpt>
      <trkpt lat="48.3703" lon="-0.60675">
        <ele>110.26</ele>
        <time>2021-09-01T21:51:15.309Z</time>
      </trkpt>
      <trkpt lat="48.3703" lon="-0.60675">
        <ele>110.26</ele>
        <time>2021-09-01T21:52:03.160Z</time>
      </trkpt>
      <trkpt lat="48.37012" lon="-0.60668">
        <ele>110.26</ele>
        <time>2021-09-01T21:52:51.014Z</time>
      </trkpt>
      <trkpt lat="48.37012" lon="-0.60668">
        <ele>110.26</ele>
        <time>2021-09-01T21:53:38.868Z</time>
      </trkpt>
      <trkpt lat="48.36973" lon="-0.60665">
        <ele>110.01</ele>
        <time>2021-09-01T21:54:26.728Z</time>
      </trkpt>
      <trkpt lat="48.36973" lon="-0.60665">
        <ele>110.01</ele>
        <time>2021-09-01T21:55:14.588Z</time>
      </trkpt>
      <trkpt lat="48.36843" lon="-0.60665">
        <ele>100.98</ele>
        <time>2021-09-01T21:56:02.469Z</time>
      </trkpt>
      <trkpt lat="48.36843" lon="-0.60665">
        <ele>100.98</ele>
        <time>2021-09-01T21:56:50.350Z</time>
      </trkpt>
      <trkpt lat="48.3684" lon="-0.60641">
        <ele>100.65</ele>
        <time>2021-09-01T21:57:38.233Z</time>
      </trkpt>
      <trkpt lat="48.3684" lon="-0.60641">
        <ele>100.65</ele>
        <time>2021-09-01T21:58:26.116Z</time>
      </trkpt>
      <trkpt lat="48.36759" lon="-0.6039">
        <ele>97.42</ele>
        <time>2021-09-01T21:59:14.029Z</time>
      </trkpt>
      <trkpt lat="48.36759" lon="-0.6039">
        <ele>97.42</ele>
        <time>2021-09-01T22:00:01.942Z</time>
      </trkpt>
      <trkpt lat="48.36644" lon="-0.60033">
        <ele>108.65</ele>
        <time>2021-09-01T22:00:49.897Z</time>
      </trkpt>
      <trkpt lat="48.36644" lon="-0.60033">
        <ele>108.65</ele>
        <time>2021-09-01T22:01:37.852Z</time>
      </trkpt>
      <trkpt lat="48.36625" lon="-0.59992">
        <ele>111.19</ele>
        <time>2021-09-01T22:02:25.813Z</time>
      </trkpt>
      <trkpt lat="48.36625" lon="-0.59992">
        <ele>111.19</ele>
        <time>2021-09-01T22:03:13.774Z</time>
      </trkpt>
      <trkpt lat="48.36603" lon="-0.5997">
        <ele>113.03</ele>
        <time>2021-09-01T22:04:01.739Z</time>
      </trkpt>
      <trkpt lat="48.36603" lon="-0.5997">
        <ele>113.03</ele>
        <time>2021-09-01T22:04:49.704Z</time>
      </trkpt>
      <trkpt lat="48.36573" lon="-0.59958">
        <ele>114.8</ele>
        <time>2021-09-01T22:05:37.674Z</time>
      </trkpt>
      <trkpt lat="48.36573" lon="-0.59958">
        <ele>114.8</ele>
        <time>2021-09-01T22:06:25.644Z</time>
      </trkpt>
      <trkpt lat="48.36462" lon="-0.59936">
        <ele>119.42</ele>
        <time>2021-09-01T22:07:13.632Z</time>
      </trkpt>
      <trkpt lat="48.36462" lon="-0.59936">
        <ele>119.42</ele>
        <time>2021-09-01T22:08:01.620Z</time>
      </trkpt>
      <trkpt lat="48.36432" lon="-0.59919">
        <ele>122.18</ele>
        <time>2021-09-01T22:08:49.613Z</time>
      </trkpt>
      <trkpt lat="48.36432" lon="-0.59919">
        <ele>122.18</ele>
        <time>2021-09-01T22:09:37.606Z</time>
      </trkpt>
      <trkpt lat="48.36406" lon="-0.59894">
        <ele>125.13</ele>
        <time>2021-09-01T22:10:25.604Z</time>
      </trkpt>
      <trkpt lat="48.36406" lon="-0.59894">
        <ele>125.13</ele>
        <time>2021-09-01T22:11:13.602Z</time>
      </trkpt>
      <trkpt lat="48.36376" lon="-0.59851">
        <ele>128.58</ele>
        <time>2021-09-01T22:12:01.607Z</time>
      </trkpt>
      <trkpt lat="48.36376" lon="-0.59851">
        <ele>128.58</ele>
        <time>2021-09-01T22:12:49.612Z</time>
      </trkpt>
      <trkpt lat="48.36366" lon="-0.59838">
        <ele>130.05</ele>
        <time>2021-09-01T22:13:37.619Z</time>
      </trkpt>
      <trkpt lat="48.36366" lon="-0.59838">
        <ele>130.05</ele>
        <time>2021-09-01T22:14:25.626Z</time>
      </trkpt>
      <trkpt lat="48.36335" lon="-0.59782">
        <ele>132.15</ele>
        <time>2021-09-01T22:15:13.641Z</time>
      </trkpt>
      <trkpt lat="48.36335" lon="-0.59782">
        <ele>132.15</ele>
        <time>2021-09-01T22:16:01.656Z</time>
      </trkpt>
      <trkpt lat="48.36321" lon="-0.59741">
        <ele>133.66</ele>
        <time>2021-09-01T22:16:49.675Z</time>
      </trkpt>
      <trkpt lat="48.36321" lon="-0.59741">
        <ele>133.66</ele>
        <time>2021-09-01T22:17:37.694Z</time>
      </trkpt>
      <trkpt lat="48.36316" lon="-0.59714">
        <ele>135.21</ele>
        <time>2021-09-01T22:18:25.716Z</time>
      </trkpt>
      <trkpt lat="48.36316" lon="-0.59714">
        <ele>135.21</ele>
        <time>2021-09-01T22:19:13.738Z</time>
      </trkpt>
      <trkpt lat="48.36317" lon="-0.59628">
        <ele>136.45</ele>
        <time>2021-09-01T22:20:01.770Z</time>
      </trkpt>
      <trkpt lat="48.36317" lon="-0.59628">
        <ele>136.45</ele>
        <time>2021-09-01T22:20:49.802Z</time>
      </trkpt>
      <trkpt lat="48.36313" lon="-0.59594">
        <ele>137.11</ele>
        <time>2021-09-01T22:21:37.837Z</time>
      </trkpt>
      <trkpt lat="48.36313" lon="-0.59594">
        <ele>137.11</ele>
        <time>2021-09-01T22:22:25.872Z</time>
      </trkpt>
      <trkpt lat="48.36304" lon="-0.5956">
        <ele>137.67</ele>
        <time>2021-09-01T22:23:13.911Z</time>
      </trkpt>
      <trkpt lat="48.36304" lon="-0.5956">
        <ele>137.67</ele>
        <time>2021-09-01T22:24:01.950Z</time>
      </trkpt>
      <trkpt lat="48.36289" lon="-0.59528">
        <ele>137.75</ele>
        <time>2021-09-01T22:24:49.993Z</time>
      </trkpt>
      <trkpt lat="48.36289" lon="-0.59528">
        <ele>137.75</ele>
        <time>2021-09-01T22:25:38.036Z</time>
      </trkpt>
      <trkpt lat="48.35725" lon="-0.58787">
        <ele>112.56</ele>
        <time>2021-09-01T22:26:26.199Z</time>
      </trkpt>
      <trkpt lat="48.35725" lon="-0.58787">
        <ele>112.56</ele>
        <time>2021-09-01T22:27:14.362Z</time>
      </trkpt>
      <trkpt lat="48.35696" lon="-0.5876">
        <ele>111.85</ele>
        <time>2021-09-01T22:28:02.531Z</time>
      </trkpt>
      <trkpt lat="48.35696" lon="-0.5876">
        <ele>111.85</ele>
        <time>2021-09-01T22:28:50.700Z</time>
      </trkpt>
      <trkpt lat="48.35666" lon="-0.58736">
        <ele>110.73</ele>
        <time>2021-09-01T22:29:38.874Z</time>
      </trkpt>
      <trkpt lat="48.35666" lon="-0.58736">
        <ele>110.73</ele>
        <time>2021-09-01T22:30:27.048Z</time>
      </trkpt>
      <trkpt lat="48.35489" lon="-0.58626">
        <ele>102.51</ele>
        <time>2021-09-01T22:31:15.253Z</time>
      </trkpt>
      <trkpt lat="48.35489" lon="-0.58626">
        <ele>102.51</ele>
        <time>2021-09-01T22:32:03.458Z</time>
      </trkpt>
      <trkpt lat="48.35277" lon="-0.58496">
        <ele>93.77</ele>
        <time>2021-09-01T22:32:51.700Z</time>
      </trkpt>
      <trkpt lat="48.35277" lon="-0.58496">
        <ele>93.77</ele>
        <time>2021-09-01T22:33:39.942Z</time>
      </trkpt>
      <trkpt lat="48.35223" lon="-0.58492">
        <ele>92.72</ele>
        <time>2021-09-01T22:34:28.192Z</time>
      </trkpt>
      <trkpt lat="48.35223" lon="-0.58492">
        <ele>92.72</ele>
        <time>2021-09-01T22:35:16.442Z</time>
      </trkpt>
      <trkpt lat="48.3521" lon="-0.58492">
        <ele>92.46</ele>
        <time>2021-09-01T22:36:04.694Z</time>
      </trkpt>
      <trkpt lat="48.3521" lon="-0.58492">
        <ele>92.46</ele>
        <time>2021-09-01T22:36:52.946Z</time>
      </trkpt>
      <trkpt lat="48.35116" lon="-0.58477">
        <ele>93.55</ele>
        <time>2021-09-01T22:37:41.214Z</time>
      </trkpt>
      <trkpt lat="48.35116" lon="-0.58477">
        <ele>93.55</ele>
        <time>2021-09-01T22:38:29.482Z</time>
      </trkpt>
      <trkpt lat="48.35101" lon="-0.5847">
        <ele>93.84</ele>
        <time>2021-09-01T22:39:17.752Z</time>
      </trkpt>
      <trkpt lat="48.35101" lon="-0.5847">
        <ele>93.84</ele>
        <time>2021-09-01T22:40:06.022Z</time>
      </trkpt>
      <trkpt lat="48.3507" lon="-0.58445">
        <ele>94.72</ele>
        <time>2021-09-01T22:40:54.298Z</time>
      </trkpt>
      <trkpt lat="48.3507" lon="-0.58445">
        <ele>94.72</ele>
        <time>2021-09-01T22:41:42.574Z</time>
      </trkpt>
      <trkpt lat="48.34993" lon="-0.58343">
        <ele>102.31</ele>
        <time>2021-09-01T22:42:30.866Z</time>
      </trkpt>
      <trkpt lat="48.34993" lon="-0.58343">
        <ele>102.31</ele>
        <time>2021-09-01T22:43:19.158Z</time>
      </trkpt>
      <trkpt lat="48.34971" lon="-0.58311">
        <ele>104.69</ele>
        <time>2021-09-01T22:44:07.455Z</time>
      </trkpt>
      <trkpt lat="48.34971" lon="-0.58311">
        <ele>104.69</ele>
        <time>2021-09-01T22:44:55.752Z</time>
      </trkpt>
      <trkpt lat="48.34965" lon="-0.58299">
        <ele>104.69</ele>
        <time>2021-09-01T22:45:44.051Z</time>
      </trkpt>
      <trkpt lat="48.34965" lon="-0.58299">
        <ele>104.69</ele>
        <time>2021-09-01T22:46:32.350Z</time>
      </trkpt>
      <trkpt lat="48.34956" lon="-0.58272">
        <ele>106.05</ele>
        <time>2021-09-01T22:47:20.652Z</time>
      </trkpt>
      <trkpt lat="48.34956" lon="-0.58272">
        <ele>106.05</ele>
        <time>2021-09-01T22:48:08.954Z</time>
      </trkpt>
      <trkpt lat="48.34951" lon="-0.58251">
        <ele>106.57</ele>
        <time>2021-09-01T22:48:57.258Z</time>
      </trkpt>
      <trkpt lat="48.34951" lon="-0.58251">
        <ele>106.57</ele>
        <time>2021-09-01T22:49:45.562Z</time>
      </trkpt>
      <trkpt lat="48.34939" lon="-0.57978">
        <ele>117.04</ele>
        <time>2021-09-01T22:50:33.895Z</time>
      </trkpt>
      <trkpt lat="48.34939" lon="-0.57978">
        <ele>117.04</ele>
        <time>2021-09-01T22:51:22.228Z</time>
      </trkpt>
      <trkpt lat="48.34924" lon="-0.57935">
        <ele>119.21</ele>
        <time>2021-09-01T22:52:10.567Z</time>
      </trkpt>
      <trkpt lat="48.34924" lon="-0.57935">
        <ele>119.21</ele>
        <time>2021-09-01T22:52:58.906Z</time>
      </trkpt>
      <trkpt lat="48.34895" lon="-0.57873">
        <ele>122.37</ele>
        <time>2021-09-01T22:53:47.253Z</time>
      </trkpt>
      <trkpt lat="48.34895" lon="-0.57873">
        <ele>122.37</ele>
        <time>2021-09-01T22:54:35.600Z</time>
      </trkpt>
      <trkpt lat="48.34872" lon="-0.57843">
        <ele>124.65</ele>
        <time>2021-09-01T22:55:23.952Z</time>
      </trkpt>
      <trkpt lat="48.34872" lon="-0.57843">
        <ele>124.65</ele>
        <time>2021-09-01T22:56:12.304Z</time>
      </trkpt>
      <trkpt lat="48.34846" lon="-0.57818">
        <ele>126.5</ele>
        <time>2021-09-01T22:57:00.661Z</time>
      </trkpt>
      <trkpt lat="48.34846" lon="-0.57818">
        <ele>126.5</ele>
        <time>2021-09-01T22:57:49.018Z</time>
      </trkpt>
      <trkpt lat="48.34835" lon="-0.57812">
        <ele>126.5</ele>
        <time>2021-09-01T22:58:37.376Z</time>
      </trkpt>
      <trkpt lat="48.34835" lon="-0.57812">
        <ele>126.5</ele>
        <time>2021-09-01T22:59:25.734Z</time>
      </trkpt>
      <trkpt lat="48.34773" lon="-0.57806">
        <ele>130.26</ele>
        <time>2021-09-01T23:00:14.102Z</time>
      </trkpt>
      <trkpt lat="48.34773" lon="-0.57806">
        <ele>130.26</ele>
        <time>2021-09-01T23:01:02.470Z</time>
      </trkpt>
      <trkpt lat="48.34751" lon="-0.578">
        <ele>130.98</ele>
        <time>2021-09-01T23:01:50.842Z</time>
      </trkpt>
      <trkpt lat="48.34751" lon="-0.578">
        <ele>130.98</ele>
        <time>2021-09-01T23:02:39.214Z</time>
      </trkpt>
      <trkpt lat="48.34675" lon="-0.57771">
        <ele>132.67</ele>
        <time>2021-09-01T23:03:27.598Z</time>
      </trkpt>
      <trkpt lat="48.34675" lon="-0.57771">
        <ele>132.67</ele>
        <time>2021-09-01T23:04:15.982Z</time>
      </trkpt>
      <trkpt lat="48.34647" lon="-0.57755">
        <ele>132.94</ele>
        <time>2021-09-01T23:05:04.371Z</time>
      </trkpt>
      <trkpt lat="48.34647" lon="-0.57755">
        <ele>132.94</ele>
        <time>2021-09-01T23:05:52.760Z</time>
      </trkpt>
      <trkpt lat="48.34616" lon="-0.5773">
        <ele>132.98</ele>
        <time>2021-09-01T23:06:41.155Z</time>
      </trkpt>
      <trkpt lat="48.34616" lon="-0.5773">
        <ele>132.98</ele>
        <time>2021-09-01T23:07:29.550Z</time>
      </trkpt>
      <trkpt lat="48.3457" lon="-0.57687">
        <ele>132.93</ele>
        <time>2021-09-01T23:08:17.954Z</time>
      </trkpt>
      <trkpt lat="48.3457" lon="-0.57687">
        <ele>132.93</ele>
        <time>2021-09-01T23:09:06.358Z</time>
      </trkpt>
      <trkpt lat="48.34523" lon="-0.57604">
        <ele>133.11</ele>
        <time>2021-09-01T23:09:54.773Z</time>
      </trkpt>
      <trkpt lat="48.34523" lon="-0.57604">
        <ele>133.11</ele>
        <time>2021-09-01T23:10:43.188Z</time>
      </trkpt>
      <trkpt lat="48.34512" lon="-0.57587">
        <ele>133.11</ele>
        <time>2021-09-01T23:11:31.606Z</time>
      </trkpt>
      <trkpt lat="48.34512" lon="-0.57587">
        <ele>133.11</ele>
        <time>2021-09-01T23:12:20.024Z</time>
      </trkpt>
      <trkpt lat="48.34499" lon="-0.57572">
        <ele>133.08</ele>
        <time>2021-09-01T23:13:08.444Z</time>
      </trkpt>
      <trkpt lat="48.34499" lon="-0.57572">
        <ele>133.08</ele>
        <time>2021-09-01T23:13:56.864Z</time>
      </trkpt>
      <trkpt lat="48.34463" lon="-0.57541">
        <ele>133.17</ele>
        <time>2021-09-01T23:14:45.291Z</time>
      </trkpt>
      <trkpt lat="48.34463" lon="-0.57541">
        <ele>133.17</ele>
        <time>2021-09-01T23:15:33.718Z</time>
      </trkpt>
      <trkpt lat="48.34342" lon="-0.5746">
        <ele>134.3</ele>
        <time>2021-09-01T23:16:22.166Z</time>
      </trkpt>
      <trkpt lat="48.34342" lon="-0.5746">
        <ele>134.3</ele>
        <time>2021-09-01T23:17:10.614Z</time>
      </trkpt>
      <trkpt lat="48.34219" lon="-0.57369">
        <ele>137.08</ele>
        <time>2021-09-01T23:17:59.084Z</time>
      </trkpt>
      <trkpt lat="48.34219" lon="-0.57369">
        <ele>137.08</ele>
        <time>2021-09-01T23:18:47.554Z</time>
      </trkpt>
      <trkpt lat="48.34176" lon="-0.57347">
        <ele>137.42</ele>
        <time>2021-09-01T23:19:36.031Z</time>
      </trkpt>
      <trkpt lat="48.34176" lon="-0.57347">
        <ele>137.42</ele>
        <time>2021-09-01T23:20:24.508Z</time>
      </trkpt>
      <trkpt lat="48.34139" lon="-0.57338">
        <ele>137.54</ele>
        <time>2021-09-01T23:21:12.991Z</time>
      </trkpt>
      <trkpt lat="48.34139" lon="-0.57338">
        <ele>137.54</ele>
        <time>2021-09-01T23:22:01.474Z</time>
      </trkpt>
      <trkpt lat="48.34085" lon="-0.57326">
        <ele>137.31</ele>
        <time>2021-09-01T23:22:49.966Z</time>
      </trkpt>
      <trkpt lat="48.34085" lon="-0.57326">
        <ele>137.31</ele>
        <time>2021-09-01T23:23:38.458Z</time>
      </trkpt>
      <trkpt lat="48.33873" lon="-0.57289">
        <ele>132.58</ele>
        <time>2021-09-01T23:24:26.984Z</time>
      </trkpt>
      <trkpt lat="48.33873" lon="-0.57289">
        <ele>132.58</ele>
        <time>2021-09-01T23:25:15.510Z</time>
      </trkpt>
      <trkpt lat="48.3374" lon="-0.57257">
        <ele>131.42</ele>
        <time>2021-09-01T23:26:04.058Z</time>
      </trkpt>
      <trkpt lat="48.3374" lon="-0.57257">
        <ele>131.42</ele>
        <time>2021-09-01T23:26:52.606Z</time>
      </trkpt>
      <trkpt lat="48.33705" lon="-0.5725">
        <ele>131.24</ele>
        <time>2021-09-01T23:27:41.160Z</time>
      </trkpt>
      <trkpt lat="48.33705" lon="-0.5725">
        <ele>131.24</ele>
        <time>2021-09-01T23:28:29.714Z</time>
      </trkpt>
      <trkpt lat="48.33669" lon="-0.57236">
        <ele>130.44</ele>
        <time>2021-09-01T23:29:18.274Z</time>
      </trkpt>
      <trkpt lat="48.33669" lon="-0.57236">
        <ele>130.44</ele>
        <time>2021-09-01T23:30:06.834Z</time>
      </trkpt>
      <trkpt lat="48.33631" lon="-0.57213">
        <ele>129.28</ele>
        <time>2021-09-01T23:30:55.400Z</time>
      </trkpt>
      <trkpt lat="48.33631" lon="-0.57213">
        <ele>129.28</ele>
        <time>2021-09-01T23:31:43.966Z</time>
      </trkpt>
      <trkpt lat="48.33594" lon="-0.57175">
        <ele>126.72</ele>
        <time>2021-09-01T23:32:32.539Z</time>
      </trkpt>
      <trkpt lat="48.33594" lon="-0.57175">
        <ele>126.72</ele>
        <time>2021-09-01T23:33:21.112Z</time>
      </trkpt>
      <trkpt lat="48.33423" lon="-0.57011">
        <ele>115.04</ele>
        <time>2021-09-01T23:34:09.718Z</time>
      </trkpt>
      <trkpt lat="48.33423" lon="-0.57011">
        <ele>115.04</ele>
        <time>2021-09-01T23:34:58.324Z</time>
      </trkpt>
      <trkpt lat="48.33248" lon="-0.56847">
        <ele>119.27</ele>
        <time>2021-09-01T23:35:46.963Z</time>
      </trkpt>
      <trkpt lat="48.33248" lon="-0.56847">
        <ele>119.27</ele>
        <time>2021-09-01T23:36:35.602Z</time>
      </trkpt>
      <trkpt lat="48.3323" lon="-0.56821">
        <ele>117.71</ele>
        <time>2021-09-01T23:37:24.245Z</time>
      </trkpt>
      <trkpt lat="48.3323" lon="-0.56821">
        <ele>117.71</ele>
        <time>2021-09-01T23:38:12.888Z</time>
      </trkpt>
      <trkpt lat="48.33223" lon="-0.56794">
        <ele>117.11</ele>
        <time>2021-09-01T23:39:01.534Z</time>
      </trkpt>
      <trkpt lat="48.33223" lon="-0.56794">
        <ele>117.11</ele>
        <time>2021-09-01T23:39:50.180Z</time>
      </trkpt>
      <trkpt lat="48.33213" lon="-0.56715">
        <ele>116.76</ele>
        <time>2021-09-01T23:40:38.835Z</time>
      </trkpt>
      <trkpt lat="48.33213" lon="-0.56715">
        <ele>116.76</ele>
        <time>2021-09-01T23:41:27.490Z</time>
      </trkpt>
      <trkpt lat="48.32735" lon="-0.5698">
        <ele>131.15</ele>
        <time>2021-09-01T23:42:16.226Z</time>
      </trkpt>
      <trkpt lat="48.32735" lon="-0.5698">
        <ele>131.15</ele>
        <time>2021-09-01T23:43:04.962Z</time>
      </trkpt>
      <trkpt lat="48.32735" lon="-0.57008">
        <ele>129.37</ele>
        <time>2021-09-01T23:43:53.701Z</time>
      </trkpt>
      <trkpt lat="48.32735" lon="-0.57008">
        <ele>129.37</ele>
        <time>2021-09-01T23:44:42.440Z</time>
      </trkpt>
      <trkpt lat="48.32731" lon="-0.57021">
        <ele>128.75</ele>
        <time>2021-09-01T23:45:31.181Z</time>
      </trkpt>
      <trkpt lat="48.32731" lon="-0.57021">
        <ele>128.75</ele>
        <time>2021-09-01T23:46:19.922Z</time>
      </trkpt>
      <trkpt lat="48.32716" lon="-0.57038">
        <ele>127.15</ele>
        <time>2021-09-01T23:47:08.666Z</time>
      </trkpt>
      <trkpt lat="48.32716" lon="-0.57038">
        <ele>127.15</ele>
        <time>2021-09-01T23:47:57.410Z</time>
      </trkpt>
      <trkpt lat="48.32698" lon="-0.57035">
        <ele>125.57</ele>
        <time>2021-09-01T23:48:46.157Z</time>
      </trkpt>
      <trkpt lat="48.32698" lon="-0.57035">
        <ele>125.57</ele>
        <time>2021-09-01T23:49:34.904Z</time>
      </trkpt>
      <trkpt lat="48.32691" lon="-0.5703">
        <ele>125.57</ele>
        <time>2021-09-01T23:50:23.652Z</time>
      </trkpt>
      <trkpt lat="48.32691" lon="-0.5703">
        <ele>125.57</ele>
        <time>2021-09-01T23:51:12.400Z</time>
      </trkpt>
      <trkpt lat="48.32684" lon="-0.57018">
        <ele>125.57</ele>
        <time>2021-09-01T23:52:01.150Z</time>
      </trkpt>
      <trkpt lat="48.32684" lon="-0.57018">
        <ele>125.57</ele>
        <time>2021-09-01T23:52:49.900Z</time>
      </trkpt>
      <trkpt lat="48.32671" lon="-0.57018">
        <ele>123.97</ele>
        <time>2021-09-01T23:53:38.652Z</time>
      </trkpt>
      <trkpt lat="48.32671" lon="-0.57018">
        <ele>123.97</ele>
        <time>2021-09-01T23:54:27.404Z</time>
      </trkpt>
      <trkpt lat="48.32664" lon="-0.57016">
        <ele>123.97</ele>
        <time>2021-09-01T23:55:16.157Z</time>
      </trkpt>
      <trkpt lat="48.32664" lon="-0.57016">
        <ele>123.97</ele>
        <time>2021-09-01T23:56:04.910Z</time>
      </trkpt>
      <trkpt lat="48.32611" lon="-0.57018">
        <ele>121.12</ele>
        <time>2021-09-01T23:56:53.671Z</time>
      </trkpt>
      <trkpt lat="48.32611" lon="-0.57018">
        <ele>121.12</ele>
        <time>2021-09-01T23:57:42.432Z</time>
      </trkpt>
      <trkpt lat="48.32586" lon="-0.57016">
        <ele>121.12</ele>
        <time>2021-09-01T23:58:31.197Z</time>
      </trkpt>
      <trkpt lat="48.32586" lon="-0.57016">
        <ele>121.12</ele>
        <time>2021-09-01T23:59:19.962Z</time>
      </trkpt>
      <trkpt lat="48.32553" lon="-0.57008">
        <ele>117.78</ele>
        <time>2021-09-02T00:00:08.733Z</time>
      </trkpt>
      <trkpt lat="48.32553" lon="-0.57008">
        <ele>117.78</ele>
        <time>2021-09-02T00:00:57.504Z</time>
      </trkpt>
      <trkpt lat="48.32512" lon="-0.5699">
        <ele>115.97</ele>
        <time>2021-09-02T00:01:46.281Z</time>
      </trkpt>
      <trkpt lat="48.32512" lon="-0.5699">
        <ele>115.97</ele>
        <time>2021-09-02T00:02:35.058Z</time>
      </trkpt>
      <trkpt lat="48.32141" lon="-0.56832">
        <ele>111.89</ele>
        <time>2021-09-02T00:03:23.897Z</time>
      </trkpt>
      <trkpt lat="48.32141" lon="-0.56832">
        <ele>111.89</ele>
        <time>2021-09-02T00:04:12.736Z</time>
      </trkpt>
      <trkpt lat="48.3139" lon="-0.56525">
        <ele>131.28</ele>
        <time>2021-09-02T00:05:01.700Z</time>
      </trkpt>
      <trkpt lat="48.3139" lon="-0.56525">
        <ele>131.28</ele>
        <time>2021-09-02T00:05:50.664Z</time>
      </trkpt>
      <trkpt lat="48.31274" lon="-0.56481">
        <ele>132.17</ele>
        <time>2021-09-02T00:06:39.647Z</time>
      </trkpt>
      <trkpt lat="48.31274" lon="-0.56481">
        <ele>132.17</ele>
        <time>2021-09-02T00:07:28.630Z</time>
      </trkpt>
      <trkpt lat="48.3103" lon="-0.5638">
        <ele>136.18</ele>
        <time>2021-09-02T00:08:17.654Z</time>
      </trkpt>
      <trkpt lat="48.3103" lon="-0.5638">
        <ele>136.18</ele>
        <time>2021-09-02T00:09:06.678Z</time>
      </trkpt>
      <trkpt lat="48.30802" lon="-0.56288">
        <ele>138.69</ele>
        <time>2021-09-02T00:09:55.739Z</time>
      </trkpt>
      <trkpt lat="48.30802" lon="-0.56288">
        <ele>138.69</ele>
        <time>2021-09-02T00:10:44.800Z</time>
      </trkpt>
      <trkpt lat="48.30711" lon="-0.56254">
        <ele>138.7</ele>
        <time>2021-09-02T00:11:33.876Z</time>
      </trkpt>
      <trkpt lat="48.30711" lon="-0.56254">
        <ele>138.7</ele>
        <time>2021-09-02T00:12:22.952Z</time>
      </trkpt>
      <trkpt lat="48.30463" lon="-0.56153">
        <ele>140.09</ele>
        <time>2021-09-02T00:13:12.069Z</time>
      </trkpt>
      <trkpt lat="48.30463" lon="-0.56153">
        <ele>140.09</ele>
        <time>2021-09-02T00:14:01.186Z</time>
      </trkpt>
      <trkpt lat="48.30461" lon="-0.56159">
        <ele>140.09</ele>
        <time>2021-09-02T00:14:50.304Z</time>
      </trkpt>
      <trkpt lat="48.30461" lon="-0.56159">
        <ele>140.09</ele>
        <time>2021-09-02T00:15:39.422Z</time>
      </trkpt>
      <trkpt lat="48.30454" lon="-0.56167">
        <ele>140.09</ele>
        <time>2021-09-02T00:16:28.542Z</time>
      </trkpt>
      <trkpt lat="48.30454" lon="-0.56167">
        <ele>140.09</ele>
        <time>2021-09-02T00:17:17.662Z</time>
      </trkpt>
      <trkpt lat="48.30445" lon="-0.56167">
        <ele>140.46</ele>
        <time>2021-09-02T00:18:06.783Z</time>
      </trkpt>
      <trkpt lat="48.30445" lon="-0.56167">
        <ele>140.46</ele>
        <time>2021-09-02T00:18:55.904Z</time>
      </trkpt>
      <trkpt lat="48.30438" lon="-0.56162">
        <ele>140.46</ele>
        <time>2021-09-02T00:19:45.026Z</time>
      </trkpt>
      <trkpt lat="48.30438" lon="-0.56162">
        <ele>140.46</ele>
        <time>2021-09-02T00:20:34.148Z</time>
      </trkpt>
      <trkpt lat="48.30435" lon="-0.56142">
        <ele>140.77</ele>
        <time>2021-09-02T00:21:23.272Z</time>
      </trkpt>
      <trkpt lat="48.30435" lon="-0.56142">
        <ele>140.77</ele>
        <time>2021-09-02T00:22:12.396Z</time>
      </trkpt>
      <trkpt lat="48.30309" lon="-0.56093">
        <ele>140.82</ele>
        <time>2021-09-02T00:23:01.541Z</time>
      </trkpt>
      <trkpt lat="48.30309" lon="-0.56093">
        <ele>140.82</ele>
        <time>2021-09-02T00:23:50.686Z</time>
      </trkpt>
      <trkpt lat="48.30144" lon="-0.56025">
        <ele>136.48</ele>
        <time>2021-09-02T00:24:39.859Z</time>
      </trkpt>
      <trkpt lat="48.30144" lon="-0.56025">
        <ele>136.48</ele>
        <time>2021-09-02T00:25:29.032Z</time>
      </trkpt>
      <trkpt lat="48.3014" lon="-0.56033">
        <ele>136.07</ele>
        <time>2021-09-02T00:26:18.206Z</time>
      </trkpt>
      <trkpt lat="48.3014" lon="-0.56033">
        <ele>136.07</ele>
        <time>2021-09-02T00:27:07.380Z</time>
      </trkpt>
      <trkpt lat="48.30132" lon="-0.56033">
        <ele>136.07</ele>
        <time>2021-09-02T00:27:56.555Z</time>
      </trkpt>
      <trkpt lat="48.30132" lon="-0.56033">
        <ele>136.07</ele>
        <time>2021-09-02T00:28:45.730Z</time>
      </trkpt>
      <trkpt lat="48.30129" lon="-0.56028">
        <ele>136.07</ele>
        <time>2021-09-02T00:29:34.906Z</time>
      </trkpt>
      <trkpt lat="48.30129" lon="-0.56028">
        <ele>136.07</ele>
        <time>2021-09-02T00:30:24.082Z</time>
      </trkpt>
      <trkpt lat="48.30129" lon="-0.56018">
        <ele>136.07</ele>
        <time>2021-09-02T00:31:13.259Z</time>
      </trkpt>
      <trkpt lat="48.30129" lon="-0.56018">
        <ele>136.07</ele>
        <time>2021-09-02T00:32:02.436Z</time>
      </trkpt>
      <trkpt lat="48.29909" lon="-0.55929">
        <ele>128.48</ele>
        <time>2021-09-02T00:32:51.649Z</time>
      </trkpt>
      <trkpt lat="48.29909" lon="-0.55929">
        <ele>128.48</ele>
        <time>2021-09-02T00:33:40.862Z</time>
      </trkpt>
      <trkpt lat="48.29709" lon="-0.55851">
        <ele>122.2</ele>
        <time>2021-09-02T00:34:30.108Z</time>
      </trkpt>
      <trkpt lat="48.29709" lon="-0.55851">
        <ele>122.2</ele>
        <time>2021-09-02T00:35:19.354Z</time>
      </trkpt>
      <trkpt lat="48.29651" lon="-0.55831">
        <ele>122.23</ele>
        <time>2021-09-02T00:36:08.610Z</time>
      </trkpt>
      <trkpt lat="48.29651" lon="-0.55831">
        <ele>122.23</ele>
        <time>2021-09-02T00:36:57.866Z</time>
      </trkpt>
      <trkpt lat="48.29641" lon="-0.55796">
        <ele>122.19</ele>
        <time>2021-09-02T00:37:47.126Z</time>
      </trkpt>
      <trkpt lat="48.29641" lon="-0.55796">
        <ele>122.19</ele>
        <time>2021-09-02T00:38:36.386Z</time>
      </trkpt>
      <trkpt lat="48.29612" lon="-0.55747">
        <ele>122.79</ele>
        <time>2021-09-02T00:39:25.653Z</time>
      </trkpt>
      <trkpt lat="48.29612" lon="-0.55747">
        <ele>122.79</ele>
        <time>2021-09-02T00:40:14.920Z</time>
      </trkpt>
      <trkpt lat="48.29598" lon="-0.5573">
        <ele>123.36</ele>
        <time>2021-09-02T00:41:04.190Z</time>
      </trkpt>
      <trkpt lat="48.29598" lon="-0.5573">
        <ele>123.36</ele>
        <time>2021-09-02T00:41:53.460Z</time>
      </trkpt>
      <trkpt lat="48.2957" lon="-0.55692">
        <ele>123.86</ele>
        <time>2021-09-02T00:42:42.736Z</time>
      </trkpt>
      <trkpt lat="48.2957" lon="-0.55692">
        <ele>123.86</ele>
        <time>2021-09-02T00:43:32.012Z</time>
      </trkpt>
      <trkpt lat="48.29535" lon="-0.55654">
        <ele>124</ele>
        <time>2021-09-02T00:44:21.295Z</time>
      </trkpt>
      <trkpt lat="48.29535" lon="-0.55654">
        <ele>124</ele>
        <time>2021-09-02T00:45:10.578Z</time>
      </trkpt>
      <trkpt lat="48.29524" lon="-0.55627">
        <ele>124.18</ele>
        <time>2021-09-02T00:45:59.864Z</time>
      </trkpt>
      <trkpt lat="48.29524" lon="-0.55627">
        <ele>124.18</ele>
        <time>2021-09-02T00:46:49.150Z</time>
      </trkpt>
      <trkpt lat="48.29513" lon="-0.55586">
        <ele>124.55</ele>
        <time>2021-09-02T00:47:38.441Z</time>
      </trkpt>
      <trkpt lat="48.29513" lon="-0.55586">
        <ele>124.55</ele>
        <time>2021-09-02T00:48:27.732Z</time>
      </trkpt>
      <trkpt lat="48.29508" lon="-0.55589">
        <ele>124.55</ele>
        <time>2021-09-02T00:49:17.024Z</time>
      </trkpt>
      <trkpt lat="48.29508" lon="-0.55589">
        <ele>124.55</ele>
        <time>2021-09-02T00:50:06.316Z</time>
      </trkpt>
      <trkpt lat="48.29505" lon="-0.55586">
        <ele>124.55</ele>
        <time>2021-09-02T00:50:55.608Z</time>
      </trkpt>
      <trkpt lat="48.29505" lon="-0.55586">
        <ele>124.55</ele>
        <time>2021-09-02T00:51:44.900Z</time>
      </trkpt>
      <trkpt lat="48.29501" lon="-0.55577">
        <ele>124.55</ele>
        <time>2021-09-02T00:52:34.194Z</time>
      </trkpt>
      <trkpt lat="48.29501" lon="-0.55577">
        <ele>124.55</ele>
        <time>2021-09-02T00:53:23.488Z</time>
      </trkpt>
      <trkpt lat="48.29503" lon="-0.55565">
        <ele>124.72</ele>
        <time>2021-09-02T00:54:12.783Z</time>
      </trkpt>
      <trkpt lat="48.29503" lon="-0.55565">
        <ele>124.72</ele>
        <time>2021-09-02T00:55:02.078Z</time>
      </trkpt>
      <trkpt lat="48.29497" lon="-0.55557">
        <ele>124.72</ele>
        <time>2021-09-02T00:55:51.374Z</time>
      </trkpt>
      <trkpt lat="48.29497" lon="-0.55557">
        <ele>124.72</ele>
        <time>2021-09-02T00:56:40.670Z</time>
      </trkpt>
      <trkpt lat="48.29452" lon="-0.5544">
        <ele>125.24</ele>
        <time>2021-09-02T00:57:29.981Z</time>
      </trkpt>
      <trkpt lat="48.29452" lon="-0.5544">
        <ele>125.24</ele>
        <time>2021-09-02T00:58:19.292Z</time>
      </trkpt>
      <trkpt lat="48.29406" lon="-0.55309">
        <ele>125.24</ele>
        <time>2021-09-02T00:59:08.618Z</time>
      </trkpt>
      <trkpt lat="48.29406" lon="-0.55309">
        <ele>125.24</ele>
        <time>2021-09-02T00:59:57.944Z</time>
      </trkpt>
      <trkpt lat="48.29284" lon="-0.54993">
        <ele>125.51</ele>
        <time>2021-09-02T01:00:47.309Z</time>
      </trkpt>
      <trkpt lat="48.29284" lon="-0.54993">
        <ele>125.51</ele>
        <time>2021-09-02T01:01:36.674Z</time>
      </trkpt>
      <trkpt lat="48.29138" lon="-0.54606">
        <ele>125.17</ele>
        <time>2021-09-02T01:02:26.087Z</time>
      </trkpt>
      <trkpt lat="48.29138" lon="-0.54606">
        <ele>125.17</ele>
        <time>2021-09-02T01:03:15.500Z</time>
      </trkpt>
      <trkpt lat="48.29121" lon="-0.54567">
        <ele>125.17</ele>
        <time>2021-09-02T01:04:04.918Z</time>
      </trkpt>
      <trkpt lat="48.29121" lon="-0.54567">
        <ele>125.17</ele>
        <time>2021-09-02T01:04:54.336Z</time>
      </trkpt>
      <trkpt lat="48.29093" lon="-0.54515">
        <ele>125.09</ele>
        <time>2021-09-02T01:05:43.761Z</time>
      </trkpt>
      <trkpt lat="48.29093" lon="-0.54515">
        <ele>125.09</ele>
        <time>2021-09-02T01:06:33.186Z</time>
      </trkpt>
      <trkpt lat="48.29061" lon="-0.54471">
        <ele>125.23</ele>
        <time>2021-09-02T01:07:22.618Z</time>
      </trkpt>
      <trkpt lat="48.29061" lon="-0.54471">
        <ele>125.23</ele>
        <time>2021-09-02T01:08:12.050Z</time>
      </trkpt>
      <trkpt lat="48.29025" lon="-0.54434">
        <ele>125.34</ele>
        <time>2021-09-02T01:09:01.489Z</time>
      </trkpt>
      <trkpt lat="48.29025" lon="-0.54434">
        <ele>125.34</ele>
        <time>2021-09-02T01:09:50.928Z</time>
      </trkpt>
      <trkpt lat="48.2899" lon="-0.54402">
        <ele>125.36</ele>
        <time>2021-09-02T01:10:40.374Z</time>
      </trkpt>
      <trkpt lat="48.2899" lon="-0.54402">
        <ele>125.36</ele>
        <time>2021-09-02T01:11:29.820Z</time>
      </trkpt>
      <trkpt lat="48.286" lon="-0.54061">
        <ele>125.25</ele>
        <time>2021-09-02T01:12:19.338Z</time>
      </trkpt>
      <trkpt lat="48.286" lon="-0.54061">
        <ele>125.25</ele>
        <time>2021-09-02T01:13:08.856Z</time>
      </trkpt>
      <trkpt lat="48.28553" lon="-0.54008">
        <ele>125.29</ele>
        <time>2021-09-02T01:13:58.383Z</time>
      </trkpt>
      <trkpt lat="48.28553" lon="-0.54008">
        <ele>125.29</ele>
        <time>2021-09-02T01:14:47.910Z</time>
      </trkpt>
      <trkpt lat="48.2853" lon="-0.53974">
        <ele>125.25</ele>
        <time>2021-09-02T01:15:37.442Z</time>
      </trkpt>
      <trkpt lat="48.2853" lon="-0.53974">
        <ele>125.25</ele>
        <time>2021-09-02T01:16:26.974Z</time>
      </trkpt>
      <trkpt lat="48.28508" lon="-0.53937">
        <ele>125.25</ele>
        <time>2021-09-02T01:17:16.512Z</time>
      </trkpt>
      <trkpt lat="48.28508" lon="-0.53937">
        <ele>125.25</ele>
        <time>2021-09-02T01:18:06.050Z</time>
      </trkpt>
      <trkpt lat="48.28458" lon="-0.53839">
        <ele>125.81</ele>
        <time>2021-09-02T01:18:55.601Z</time>
      </trkpt>
      <trkpt lat="48.28458" lon="-0.53839">
        <ele>125.81</ele>
        <time>2021-09-02T01:19:45.152Z</time>
      </trkpt>
      <trkpt lat="48.28081" lon="-0.5313">
        <ele>130.6</ele>
        <time>2021-09-02T01:20:34.800Z</time>
      </trkpt>
      <trkpt lat="48.28081" lon="-0.5313">
        <ele>130.6</ele>
        <time>2021-09-02T01:21:24.448Z</time>
      </trkpt>
      <trkpt lat="48.28041" lon="-0.53059">
        <ele>131.25</ele>
        <time>2021-09-02T01:22:14.106Z</time>
      </trkpt>
      <trkpt lat="48.28041" lon="-0.53059">
        <ele>131.25</ele>
        <time>2021-09-02T01:23:03.764Z</time>
      </trkpt>
      <trkpt lat="48.27935" lon="-0.52888">
        <ele>131.47</ele>
        <time>2021-09-02T01:23:53.447Z</time>
      </trkpt>
      <trkpt lat="48.27935" lon="-0.52888">
        <ele>131.47</ele>
        <time>2021-09-02T01:24:43.130Z</time>
      </trkpt>
      <trkpt lat="48.27793" lon="-0.52675">
        <ele>134.01</ele>
        <time>2021-09-02T01:25:32.845Z</time>
      </trkpt>
      <trkpt lat="48.27793" lon="-0.52675">
        <ele>134.01</ele>
        <time>2021-09-02T01:26:22.560Z</time>
      </trkpt>
      <trkpt lat="48.27688" lon="-0.52527">
        <ele>133.72</ele>
        <time>2021-09-02T01:27:12.298Z</time>
      </trkpt>
      <trkpt lat="48.27688" lon="-0.52527">
        <ele>133.72</ele>
        <time>2021-09-02T01:28:02.036Z</time>
      </trkpt>
      <trkpt lat="48.27568" lon="-0.52371">
        <ele>134.52</ele>
        <time>2021-09-02T01:28:51.799Z</time>
      </trkpt>
      <trkpt lat="48.27568" lon="-0.52371">
        <ele>134.52</ele>
        <time>2021-09-02T01:29:41.562Z</time>
      </trkpt>
      <trkpt lat="48.27477" lon="-0.52251">
        <ele>137.69</ele>
        <time>2021-09-02T01:30:31.345Z</time>
      </trkpt>
      <trkpt lat="48.27477" lon="-0.52251">
        <ele>137.69</ele>
        <time>2021-09-02T01:31:21.128Z</time>
      </trkpt>
      <trkpt lat="48.27451" lon="-0.52222">
        <ele>138.79</ele>
        <time>2021-09-02T01:32:10.916Z</time>
      </trkpt>
      <trkpt lat="48.27451" lon="-0.52222">
        <ele>138.79</ele>
        <time>2021-09-02T01:33:00.704Z</time>
      </trkpt>
      <trkpt lat="48.27395" lon="-0.52181">
        <ele>139.39</ele>
        <time>2021-09-02T01:33:50.502Z</time>
      </trkpt>
      <trkpt lat="48.27395" lon="-0.52181">
        <ele>139.39</ele>
        <time>2021-09-02T01:34:40.300Z</time>
      </trkpt>
      <trkpt lat="48.27349" lon="-0.52137">
        <ele>138.3</ele>
        <time>2021-09-02T01:35:30.107Z</time>
      </trkpt>
      <trkpt lat="48.27349" lon="-0.52137">
        <ele>138.3</ele>
        <time>2021-09-02T01:36:19.914Z</time>
      </trkpt>
      <trkpt lat="48.27148" lon="-0.51888">
        <ele>138.37</ele>
        <time>2021-09-02T01:37:09.762Z</time>
      </trkpt>
      <trkpt lat="48.27148" lon="-0.51888">
        <ele>138.37</ele>
        <time>2021-09-02T01:37:59.610Z</time>
      </trkpt>
      <trkpt lat="48.27028" lon="-0.51729">
        <ele>140.43</ele>
        <time>2021-09-02T01:38:49.484Z</time>
      </trkpt>
      <trkpt lat="48.27028" lon="-0.51729">
        <ele>140.43</ele>
        <time>2021-09-02T01:39:39.358Z</time>
      </trkpt>
      <trkpt lat="48.26914" lon="-0.51542">
        <ele>147.36</ele>
        <time>2021-09-02T01:40:29.259Z</time>
      </trkpt>
      <trkpt lat="48.26914" lon="-0.51542">
        <ele>147.36</ele>
        <time>2021-09-02T01:41:19.160Z</time>
      </trkpt>
      <trkpt lat="48.26769" lon="-0.51337">
        <ele>158.55</ele>
        <time>2021-09-02T01:42:09.093Z</time>
      </trkpt>
      <trkpt lat="48.26769" lon="-0.51337">
        <ele>158.55</ele>
        <time>2021-09-02T01:42:59.026Z</time>
      </trkpt>
      <trkpt lat="48.26714" lon="-0.51268">
        <ele>160.66</ele>
        <time>2021-09-02T01:43:48.971Z</time>
      </trkpt>
      <trkpt lat="48.26714" lon="-0.51268">
        <ele>160.66</ele>
        <time>2021-09-02T01:44:38.916Z</time>
      </trkpt>
      <trkpt lat="48.2663" lon="-0.51183">
        <ele>160.88</ele>
        <time>2021-09-02T01:45:28.877Z</time>
      </trkpt>
      <trkpt lat="48.2663" lon="-0.51183">
        <ele>160.88</ele>
        <time>2021-09-02T01:46:18.838Z</time>
      </trkpt>
      <trkpt lat="48.26606" lon="-0.51149">
        <ele>161.13</ele>
        <time>2021-09-02T01:47:08.804Z</time>
      </trkpt>
      <trkpt lat="48.26606" lon="-0.51149">
        <ele>161.13</ele>
        <time>2021-09-02T01:47:58.770Z</time>
      </trkpt>
      <trkpt lat="48.26543" lon="-0.51049">
        <ele>161.73</ele>
        <time>2021-09-02T01:48:48.751Z</time>
      </trkpt>
      <trkpt lat="48.26543" lon="-0.51049">
        <ele>161.73</ele>
        <time>2021-09-02T01:49:38.732Z</time>
      </trkpt>
      <trkpt lat="48.26513" lon="-0.50995">
        <ele>162.09</ele>
        <time>2021-09-02T01:50:28.720Z</time>
      </trkpt>
      <trkpt lat="48.26513" lon="-0.50995">
        <ele>162.09</ele>
        <time>2021-09-02T01:51:18.708Z</time>
      </trkpt>
      <trkpt lat="48.26366" lon="-0.50693">
        <ele>161.91</ele>
        <time>2021-09-02T01:52:08.736Z</time>
      </trkpt>
      <trkpt lat="48.26366" lon="-0.50693">
        <ele>161.91</ele>
        <time>2021-09-02T01:52:58.764Z</time>
      </trkpt>
      <trkpt lat="48.26258" lon="-0.50445">
        <ele>160.37</ele>
        <time>2021-09-02T01:53:48.824Z</time>
      </trkpt>
      <trkpt lat="48.26258" lon="-0.50445">
        <ele>160.37</ele>
        <time>2021-09-02T01:54:38.884Z</time>
      </trkpt>
      <trkpt lat="48.26139" lon="-0.50202">
        <ele>155.2</ele>
        <time>2021-09-02T01:55:28.976Z</time>
      </trkpt>
      <trkpt lat="48.26139" lon="-0.50202">
        <ele>155.2</ele>
        <time>2021-09-02T01:56:19.068Z</time>
      </trkpt>
      <trkpt lat="48.26104" lon="-0.50149">
        <ele>154.59</ele>
        <time>2021-09-02T01:57:09.168Z</time>
      </trkpt>
      <trkpt lat="48.26104" lon="-0.50149">
        <ele>154.59</ele>
        <time>2021-09-02T01:57:59.268Z</time>
      </trkpt>
      <trkpt lat="48.26032" lon="-0.50068">
        <ele>154.25</ele>
        <time>2021-09-02T01:58:49.383Z</time>
      </trkpt>
      <trkpt lat="48.26032" lon="-0.50068">
        <ele>154.25</ele>
        <time>2021-09-02T01:59:39.498Z</time>
      </trkpt>
      <trkpt lat="48.25975" lon="-0.49993">
        <ele>155.7</ele>
        <time>2021-09-02T02:00:29.625Z</time>
      </trkpt>
      <trkpt lat="48.25975" lon="-0.49993">
        <ele>155.7</ele>
        <time>2021-09-02T02:01:19.752Z</time>
      </trkpt>
      <trkpt lat="48.25952" lon="-0.49969">
        <ele>156.12</ele>
        <time>2021-09-02T02:02:09.883Z</time>
      </trkpt>
      <trkpt lat="48.25952" lon="-0.49969">
        <ele>156.12</ele>
        <time>2021-09-02T02:03:00.014Z</time>
      </trkpt>
      <trkpt lat="48.25821" lon="-0.4986">
        <ele>157.02</ele>
        <time>2021-09-02T02:03:50.169Z</time>
      </trkpt>
      <trkpt lat="48.25821" lon="-0.4986">
        <ele>157.02</ele>
        <time>2021-09-02T02:04:40.324Z</time>
      </trkpt>
      <trkpt lat="48.25765" lon="-0.49811">
        <ele>155.68</ele>
        <time>2021-09-02T02:05:30.490Z</time>
      </trkpt>
      <trkpt lat="48.25765" lon="-0.49811">
        <ele>155.68</ele>
        <time>2021-09-02T02:06:20.656Z</time>
      </trkpt>
      <trkpt lat="48.25719" lon="-0.49778">
        <ele>155.22</ele>
        <time>2021-09-02T02:07:10.830Z</time>
      </trkpt>
      <trkpt lat="48.25719" lon="-0.49778">
        <ele>155.22</ele>
        <time>2021-09-02T02:08:01.004Z</time>
      </trkpt>
      <trkpt lat="48.25704" lon="-0.49758">
        <ele>155.14</ele>
        <time>2021-09-02T02:08:51.181Z</time>
      </trkpt>
      <trkpt lat="48.25704" lon="-0.49758">
        <ele>155.14</ele>
        <time>2021-09-02T02:09:41.358Z</time>
      </trkpt>
      <trkpt lat="48.25627" lon="-0.4957">
        <ele>153.21</ele>
        <time>2021-09-02T02:10:31.559Z</time>
      </trkpt>
      <trkpt lat="48.25627" lon="-0.4957">
        <ele>153.21</ele>
        <time>2021-09-02T02:11:21.760Z</time>
      </trkpt>
      <trkpt lat="48.25616" lon="-0.49557">
        <ele>152.26</ele>
        <time>2021-09-02T02:12:11.963Z</time>
      </trkpt>
      <trkpt lat="48.25616" lon="-0.49557">
        <ele>152.26</ele>
        <time>2021-09-02T02:13:02.166Z</time>
      </trkpt>
      <trkpt lat="48.25606" lon="-0.49541">
        <ele>151.56</ele>
        <time>2021-09-02T02:13:52.371Z</time>
      </trkpt>
      <trkpt lat="48.25606" lon="-0.49541">
        <ele>151.56</ele>
        <time>2021-09-02T02:14:42.576Z</time>
      </trkpt>
      <trkpt lat="48.25618" lon="-0.49499">
        <ele>148.76</ele>
        <time>2021-09-02T02:15:32.786Z</time>
      </trkpt>
      <trkpt lat="48.25618" lon="-0.49499">
        <ele>148.76</ele>
        <time>2021-09-02T02:16:22.996Z</time>
      </trkpt>
      <trkpt lat="48.25622" lon="-0.49476">
        <ele>148.17</ele>
        <time>2021-09-02T02:17:13.209Z</time>
      </trkpt>
      <trkpt lat="48.25622" lon="-0.49476">
        <ele>148.17</ele>
        <time>2021-09-02T02:18:03.422Z</time>
      </trkpt>
      <trkpt lat="48.25629" lon="-0.49458">
        <ele>147.4</ele>
        <time>2021-09-02T02:18:53.637Z</time>
      </trkpt>
      <trkpt lat="48.25629" lon="-0.49458">
        <ele>147.4</ele>
        <time>2021-09-02T02:19:43.852Z</time>
      </trkpt>
      <trkpt lat="48.2565" lon="-0.49422">
        <ele>146.26</ele>
        <time>2021-09-02T02:20:34.072Z</time>
      </trkpt>
      <trkpt lat="48.2565" lon="-0.49422">
        <ele>146.26</ele>
        <time>2021-09-02T02:21:24.292Z</time>
      </trkpt>
      <trkpt lat="48.25648" lon="-0.49415">
        <ele>145.94</ele>
        <time>2021-09-02T02:22:14.513Z</time>
      </trkpt>
      <trkpt lat="48.25648" lon="-0.49415">
        <ele>145.94</ele>
        <time>2021-09-02T02:23:04.734Z</time>
      </trkpt>
      <trkpt lat="48.25652" lon="-0.49386">
        <ele>145.7</ele>
        <time>2021-09-02T02:23:54.958Z</time>
      </trkpt>
      <trkpt lat="48.25652" lon="-0.49386">
        <ele>145.7</ele>
        <time>2021-09-02T02:24:45.182Z</time>
      </trkpt>
      <trkpt lat="48.25651" lon="-0.49375">
        <ele>145.53</ele>
        <time>2021-09-02T02:25:35.407Z</time>
      </trkpt>
      <trkpt lat="48.25651" lon="-0.49375">
        <ele>145.53</ele>
        <time>2021-09-02T02:26:25.632Z</time>
      </trkpt>
      <trkpt lat="48.2564" lon="-0.49336">
        <ele>145.89</ele>
        <time>2021-09-02T02:27:15.862Z</time>
      </trkpt>
      <trkpt lat="48.2564" lon="-0.49336">
        <ele>145.89</ele>
        <time>2021-09-02T02:28:06.092Z</time>
      </trkpt>
      <trkpt lat="48.25621" lon="-0.49286">
        <ele>146.92</ele>
        <time>2021-09-02T02:28:56.328Z</time>
      </trkpt>
      <trkpt lat="48.25621" lon="-0.49286">
        <ele>146.92</ele>
        <time>2021-09-02T02:29:46.564Z</time>
      </trkpt>
      <trkpt lat="48.25613" lon="-0.49269">
        <ele>147.21</ele>
        <time>2021-09-02T02:30:36.802Z</time>
      </trkpt>
      <trkpt lat="48.25613" lon="-0.49269">
        <ele>147.21</ele>
        <time>2021-09-02T02:31:27.040Z</time>
      </trkpt>
      <trkpt lat="48.25593" lon="-0.49243">
        <ele>147.14</ele>
        <time>2021-09-02T02:32:17.282Z</time>
      </trkpt>
      <trkpt lat="48.25593" lon="-0.49243">
        <ele>147.14</ele>
        <time>2021-09-02T02:33:07.524Z</time>
      </trkpt>
      <trkpt lat="48.25585" lon="-0.4923">
        <ele>146.96</ele>
        <time>2021-09-02T02:33:57.768Z</time>
      </trkpt>
      <trkpt lat="48.25585" lon="-0.4923">
        <ele>146.96</ele>
        <time>2021-09-02T02:34:48.012Z</time>
      </trkpt>
      <trkpt lat="48.25584" lon="-0.4921">
        <ele>146.57</ele>
        <time>2021-09-02T02:35:38.258Z</time>
      </trkpt>
      <trkpt lat="48.25584" lon="-0.4921">
        <ele>146.57</ele>
        <time>2021-09-02T02:36:28.504Z</time>
      </trkpt>
      <trkpt lat="48.25588" lon="-0.49186">
        <ele>146.12</ele>
        <time>2021-09-02T02:37:18.753Z</time>
      </trkpt>
      <trkpt lat="48.25588" lon="-0.49186">
        <ele>146.12</ele>
        <time>2021-09-02T02:38:09.002Z</time>
      </trkpt>
      <trkpt lat="48.25599" lon="-0.49143">
        <ele>145.63</ele>
        <time>2021-09-02T02:38:59.256Z</time>
      </trkpt>
      <trkpt lat="48.25599" lon="-0.49143">
        <ele>145.63</ele>
        <time>2021-09-02T02:39:49.510Z</time>
      </trkpt>
      <trkpt lat="48.25602" lon="-0.49105">
        <ele>142.34</ele>
        <time>2021-09-02T02:40:39.768Z</time>
      </trkpt>
      <trkpt lat="48.25602" lon="-0.49105">
        <ele>142.34</ele>
        <time>2021-09-02T02:41:30.026Z</time>
      </trkpt>
      <trkpt lat="48.25603" lon="-0.49014">
        <ele>139.75</ele>
        <time>2021-09-02T02:42:20.294Z</time>
      </trkpt>
      <trkpt lat="48.25603" lon="-0.49014">
        <ele>139.75</ele>
        <time>2021-09-02T02:43:10.562Z</time>
      </trkpt>
      <trkpt lat="48.25613" lon="-0.48853">
        <ele>134.07</ele>
        <time>2021-09-02T02:44:00.847Z</time>
      </trkpt>
      <trkpt lat="48.25613" lon="-0.48853">
        <ele>134.07</ele>
        <time>2021-09-02T02:44:51.132Z</time>
      </trkpt>
      <trkpt lat="48.25626" lon="-0.48746">
        <ele>131.48</ele>
        <time>2021-09-02T02:45:41.429Z</time>
      </trkpt>
      <trkpt lat="48.25626" lon="-0.48746">
        <ele>131.48</ele>
        <time>2021-09-02T02:46:31.726Z</time>
      </trkpt>
      <trkpt lat="48.25627" lon="-0.48713">
        <ele>130.83</ele>
        <time>2021-09-02T02:47:22.026Z</time>
      </trkpt>
      <trkpt lat="48.25627" lon="-0.48713">
        <ele>130.83</ele>
        <time>2021-09-02T02:48:12.326Z</time>
      </trkpt>
      <trkpt lat="48.25621" lon="-0.48625">
        <ele>130.52</ele>
        <time>2021-09-02T02:49:02.636Z</time>
      </trkpt>
      <trkpt lat="48.25621" lon="-0.48625">
        <ele>130.52</ele>
        <time>2021-09-02T02:49:52.946Z</time>
      </trkpt>
      <trkpt lat="48.2559" lon="-0.48414">
        <ele>130.24</ele>
        <time>2021-09-02T02:50:43.279Z</time>
      </trkpt>
      <trkpt lat="48.2559" lon="-0.48414">
        <ele>130.24</ele>
        <time>2021-09-02T02:51:33.612Z</time>
      </trkpt>
      <trkpt lat="48.25579" lon="-0.48364">
        <ele>130.06</ele>
        <time>2021-09-02T02:52:23.950Z</time>
      </trkpt>
      <trkpt lat="48.25579" lon="-0.48364">
        <ele>130.06</ele>
        <time>2021-09-02T02:53:14.288Z</time>
      </trkpt>
      <trkpt lat="48.25526" lon="-0.48159">
        <ele>126.8</ele>
        <time>2021-09-02T02:54:04.650Z</time>
      </trkpt>
      <trkpt lat="48.25526" lon="-0.48159">
        <ele>126.8</ele>
        <time>2021-09-02T02:54:55.012Z</time>
      </trkpt>
      <trkpt lat="48.25516" lon="-0.48109">
        <ele>126.2</ele>
        <time>2021-09-02T02:55:45.379Z</time>
      </trkpt>
      <trkpt lat="48.25516" lon="-0.48109">
        <ele>126.2</ele>
        <time>2021-09-02T02:56:35.746Z</time>
      </trkpt>
      <trkpt lat="48.25505" lon="-0.48027">
        <ele>124.44</ele>
        <time>2021-09-02T02:57:26.122Z</time>
      </trkpt>
      <trkpt lat="48.25505" lon="-0.48027">
        <ele>124.44</ele>
        <time>2021-09-02T02:58:16.498Z</time>
      </trkpt>
      <trkpt lat="48.25501" lon="-0.4801">
        <ele>123.91</ele>
        <time>2021-09-02T02:59:06.876Z</time>
      </trkpt>
      <trkpt lat="48.25501" lon="-0.4801">
        <ele>123.91</ele>
        <time>2021-09-02T02:59:57.254Z</time>
      </trkpt>
      <trkpt lat="48.25495" lon="-0.47994">
        <ele>123.91</ele>
        <time>2021-09-02T03:00:47.634Z</time>
      </trkpt>
      <trkpt lat="48.25495" lon="-0.47994">
        <ele>123.91</ele>
        <time>2021-09-02T03:01:38.014Z</time>
      </trkpt>
      <trkpt lat="48.25479" lon="-0.47964">
        <ele>123.76</ele>
        <time>2021-09-02T03:02:28.398Z</time>
      </trkpt>
      <trkpt lat="48.25479" lon="-0.47964">
        <ele>123.76</ele>
        <time>2021-09-02T03:03:18.782Z</time>
      </trkpt>
      <trkpt lat="48.25441" lon="-0.47854">
        <ele>122.98</ele>
        <time>2021-09-02T03:04:09.180Z</time>
      </trkpt>
      <trkpt lat="48.25441" lon="-0.47854">
        <ele>122.98</ele>
        <time>2021-09-02T03:04:59.578Z</time>
      </trkpt>
      <trkpt lat="48.25404" lon="-0.47774">
        <ele>122.71</ele>
        <time>2021-09-02T03:05:49.986Z</time>
      </trkpt>
      <trkpt lat="48.25404" lon="-0.47774">
        <ele>122.71</ele>
        <time>2021-09-02T03:06:40.394Z</time>
      </trkpt>
      <trkpt lat="48.25386" lon="-0.4774">
        <ele>122.51</ele>
        <time>2021-09-02T03:07:30.807Z</time>
      </trkpt>
      <trkpt lat="48.25386" lon="-0.4774">
        <ele>122.51</ele>
        <time>2021-09-02T03:08:21.220Z</time>
      </trkpt>
      <trkpt lat="48.25369" lon="-0.47716">
        <ele>121.82</ele>
        <time>2021-09-02T03:09:11.636Z</time>
      </trkpt>
      <trkpt lat="48.25369" lon="-0.47716">
        <ele>121.82</ele>
        <time>2021-09-02T03:10:02.052Z</time>
      </trkpt>
      <trkpt lat="48.25348" lon="-0.47699">
        <ele>121.74</ele>
        <time>2021-09-02T03:10:52.472Z</time>
      </trkpt>
      <trkpt lat="48.25348" lon="-0.47699">
        <ele>121.74</ele>
        <time>2021-09-02T03:11:42.892Z</time>
      </trkpt>
      <trkpt lat="48.25312" lon="-0.47687">
        <ele>121.51</ele>
        <time>2021-09-02T03:12:33.318Z</time>
      </trkpt>
      <trkpt lat="48.25312" lon="-0.47687">
        <ele>121.51</ele>
        <time>2021-09-02T03:13:23.744Z</time>
      </trkpt>
      <trkpt lat="48.25296" lon="-0.47677">
        <ele>121.57</ele>
        <time>2021-09-02T03:14:14.173Z</time>
      </trkpt>
      <trkpt lat="48.25296" lon="-0.47677">
        <ele>121.57</ele>
        <time>2021-09-02T03:15:04.602Z</time>
      </trkpt>
      <trkpt lat="48.25264" lon="-0.47653">
        <ele>121.67</ele>
        <time>2021-09-02T03:15:55.037Z</time>
      </trkpt>
      <trkpt lat="48.25264" lon="-0.47653">
        <ele>121.67</ele>
        <time>2021-09-02T03:16:45.472Z</time>
      </trkpt>
      <trkpt lat="48.25243" lon="-0.47625">
        <ele>121.81</ele>
        <time>2021-09-02T03:17:35.911Z</time>
      </trkpt>
      <trkpt lat="48.25243" lon="-0.47625">
        <ele>121.81</ele>
        <time>2021-09-02T03:18:26.350Z</time>
      </trkpt>
      <trkpt lat="48.25229" lon="-0.47593">
        <ele>121.95</ele>
        <time>2021-09-02T03:19:16.793Z</time>
      </trkpt>
      <trkpt lat="48.25229" lon="-0.47593">
        <ele>121.95</ele>
        <time>2021-09-02T03:20:07.236Z</time>
      </trkpt>
      <trkpt lat="48.25191" lon="-0.47486">
        <ele>124.48</ele>
        <time>2021-09-02T03:20:57.692Z</time>
      </trkpt>
      <trkpt lat="48.25191" lon="-0.47486">
        <ele>124.48</ele>
        <time>2021-09-02T03:21:48.148Z</time>
      </trkpt>
      <trkpt lat="48.25186" lon="-0.47464">
        <ele>124.48</ele>
        <time>2021-09-02T03:22:38.607Z</time>
      </trkpt>
      <trkpt lat="48.25186" lon="-0.47464">
        <ele>124.48</ele>
        <time>2021-09-02T03:23:29.066Z</time>
      </trkpt>
      <trkpt lat="48.25185" lon="-0.47392">
        <ele>125.46</ele>
        <time>2021-09-02T03:24:19.532Z</time>
      </trkpt>
      <trkpt lat="48.25185" lon="-0.47392">
        <ele>125.46</ele>
        <time>2021-09-02T03:25:09.998Z</time>
      </trkpt>
      <trkpt lat="48.25184" lon="-0.47358">
        <ele>126.1</ele>
        <time>2021-09-02T03:26:00.468Z</time>
      </trkpt>
      <trkpt lat="48.25184" lon="-0.47358">
        <ele>126.1</ele>
        <time>2021-09-02T03:26:50.938Z</time>
      </trkpt>
      <trkpt lat="48.25175" lon="-0.47287">
        <ele>128.86</ele>
        <time>2021-09-02T03:27:41.416Z</time>
      </trkpt>
      <trkpt lat="48.25175" lon="-0.47287">
        <ele>128.86</ele>
        <time>2021-09-02T03:28:31.894Z</time>
      </trkpt>
      <trkpt lat="48.25173" lon="-0.4726">
        <ele>129.36</ele>
        <time>2021-09-02T03:29:22.375Z</time>
      </trkpt>
      <trkpt lat="48.25173" lon="-0.4726">
        <ele>129.36</ele>
        <time>2021-09-02T03:30:12.856Z</time>
      </trkpt>
      <trkpt lat="48.25182" lon="-0.46893">
        <ele>130.94</ele>
        <time>2021-09-02T03:31:03.376Z</time>
      </trkpt>
      <trkpt lat="48.25182" lon="-0.46893">
        <ele>130.94</ele>
        <time>2021-09-02T03:31:53.896Z</time>
      </trkpt>
      <trkpt lat="48.25178" lon="-0.46846">
        <ele>131.1</ele>
        <time>2021-09-02T03:32:44.421Z</time>
      </trkpt>
      <trkpt lat="48.25178" lon="-0.46846">
        <ele>131.1</ele>
        <time>2021-09-02T03:33:34.946Z</time>
      </trkpt>
      <trkpt lat="48.25152" lon="-0.46739">
        <ele>131.29</ele>
        <time>2021-09-02T03:34:25.483Z</time>
      </trkpt>
      <trkpt lat="48.25152" lon="-0.46739">
        <ele>131.29</ele>
        <time>2021-09-02T03:35:16.020Z</time>
      </trkpt>
      <trkpt lat="48.25122" lon="-0.46605">
        <ele>130.97</ele>
        <time>2021-09-02T03:36:06.572Z</time>
      </trkpt>
      <trkpt lat="48.25122" lon="-0.46605">
        <ele>130.97</ele>
        <time>2021-09-02T03:36:57.124Z</time>
      </trkpt>
      <trkpt lat="48.2512" lon="-0.46572">
        <ele>131.12</ele>
        <time>2021-09-02T03:37:47.680Z</time>
      </trkpt>
      <trkpt lat="48.2512" lon="-0.46572">
        <ele>131.12</ele>
        <time>2021-09-02T03:38:38.236Z</time>
      </trkpt>
      <trkpt lat="48.25123" lon="-0.46557">
        <ele>131.39</ele>
        <time>2021-09-02T03:39:28.793Z</time>
      </trkpt>
      <trkpt lat="48.25123" lon="-0.46557">
        <ele>131.39</ele>
        <time>2021-09-02T03:40:19.350Z</time>
      </trkpt>
      <trkpt lat="48.25131" lon="-0.46538">
        <ele>131.39</ele>
        <time>2021-09-02T03:41:09.910Z</time>
      </trkpt>
      <trkpt lat="48.25131" lon="-0.46538">
        <ele>131.39</ele>
        <time>2021-09-02T03:42:00.470Z</time>
      </trkpt>
      <trkpt lat="48.2516" lon="-0.46498">
        <ele>131.65</ele>
        <time>2021-09-02T03:42:51.036Z</time>
      </trkpt>
      <trkpt lat="48.2516" lon="-0.46498">
        <ele>131.65</ele>
        <time>2021-09-02T03:43:41.602Z</time>
      </trkpt>
      <trkpt lat="48.25199" lon="-0.46396">
        <ele>132.04</ele>
        <time>2021-09-02T03:44:32.181Z</time>
      </trkpt>
      <trkpt lat="48.25199" lon="-0.46396">
        <ele>132.04</ele>
        <time>2021-09-02T03:45:22.760Z</time>
      </trkpt>
      <trkpt lat="48.25234" lon="-0.46294">
        <ele>132.66</ele>
        <time>2021-09-02T03:46:13.351Z</time>
      </trkpt>
      <trkpt lat="48.25234" lon="-0.46294">
        <ele>132.66</ele>
        <time>2021-09-02T03:47:03.942Z</time>
      </trkpt>
      <trkpt lat="48.25262" lon="-0.46223">
        <ele>133.52</ele>
        <time>2021-09-02T03:47:54.542Z</time>
      </trkpt>
      <trkpt lat="48.25262" lon="-0.46223">
        <ele>133.52</ele>
        <time>2021-09-02T03:48:45.142Z</time>
      </trkpt>
      <trkpt lat="48.25311" lon="-0.46111">
        <ele>135.98</ele>
        <time>2021-09-02T03:49:35.756Z</time>
      </trkpt>
      <trkpt lat="48.25311" lon="-0.46111">
        <ele>135.98</ele>
        <time>2021-09-02T03:50:26.370Z</time>
      </trkpt>
      <trkpt lat="48.25324" lon="-0.46087">
        <ele>136.6</ele>
        <time>2021-09-02T03:51:16.987Z</time>
      </trkpt>
      <trkpt lat="48.25324" lon="-0.46087">
        <ele>136.6</ele>
        <time>2021-09-02T03:52:07.604Z</time>
      </trkpt>
      <trkpt lat="48.25341" lon="-0.46061">
        <ele>137.77</ele>
        <time>2021-09-02T03:52:58.225Z</time>
      </trkpt>
      <trkpt lat="48.25341" lon="-0.46061">
        <ele>137.77</ele>
        <time>2021-09-02T03:53:48.846Z</time>
      </trkpt>
      <trkpt lat="48.25378" lon="-0.46011">
        <ele>138.68</ele>
        <time>2021-09-02T03:54:39.475Z</time>
      </trkpt>
      <trkpt lat="48.25378" lon="-0.46011">
        <ele>138.68</ele>
        <time>2021-09-02T03:55:30.104Z</time>
      </trkpt>
      <trkpt lat="48.25391" lon="-0.45987">
        <ele>139.02</ele>
        <time>2021-09-02T03:56:20.737Z</time>
      </trkpt>
      <trkpt lat="48.25391" lon="-0.45987">
        <ele>139.02</ele>
        <time>2021-09-02T03:57:11.370Z</time>
      </trkpt>
      <trkpt lat="48.25431" lon="-0.45883">
        <ele>140.85</ele>
        <time>2021-09-02T03:58:02.015Z</time>
      </trkpt>
      <trkpt lat="48.25431" lon="-0.45883">
        <ele>140.85</ele>
        <time>2021-09-02T03:58:52.660Z</time>
      </trkpt>
      <trkpt lat="48.25437" lon="-0.45846">
        <ele>140.79</ele>
        <time>2021-09-02T03:59:43.310Z</time>
      </trkpt>
      <trkpt lat="48.25437" lon="-0.45846">
        <ele>140.79</ele>
        <time>2021-09-02T04:00:33.960Z</time>
      </trkpt>
      <trkpt lat="48.2543" lon="-0.45761">
        <ele>139.8</ele>
        <time>2021-09-02T04:01:24.619Z</time>
      </trkpt>
      <trkpt lat="48.2543" lon="-0.45761">
        <ele>139.8</ele>
        <time>2021-09-02T04:02:15.278Z</time>
      </trkpt>
      <trkpt lat="48.25432" lon="-0.45723">
        <ele>138.44</ele>
        <time>2021-09-02T04:03:05.941Z</time>
      </trkpt>
      <trkpt lat="48.25432" lon="-0.45723">
        <ele>138.44</ele>
        <time>2021-09-02T04:03:56.604Z</time>
      </trkpt>
      <trkpt lat="48.25489" lon="-0.45513">
        <ele>130.56</ele>
        <time>2021-09-02T04:04:47.291Z</time>
      </trkpt>
      <trkpt lat="48.25489" lon="-0.45513">
        <ele>130.56</ele>
        <time>2021-09-02T04:05:37.978Z</time>
      </trkpt>
      <trkpt lat="48.25524" lon="-0.45413">
        <ele>128.12</ele>
        <time>2021-09-02T04:06:28.677Z</time>
      </trkpt>
      <trkpt lat="48.25524" lon="-0.45413">
        <ele>128.12</ele>
        <time>2021-09-02T04:07:19.376Z</time>
      </trkpt>
      <trkpt lat="48.25529" lon="-0.45381">
        <ele>127.89</ele>
        <time>2021-09-02T04:08:10.079Z</time>
      </trkpt>
      <trkpt lat="48.25529" lon="-0.45381">
        <ele>127.89</ele>
        <time>2021-09-02T04:09:00.782Z</time>
      </trkpt>
      <trkpt lat="48.25519" lon="-0.45285">
        <ele>129.55</ele>
        <time>2021-09-02T04:09:51.495Z</time>
      </trkpt>
      <trkpt lat="48.25519" lon="-0.45285">
        <ele>129.55</ele>
        <time>2021-09-02T04:10:42.208Z</time>
      </trkpt>
      <trkpt lat="48.2552" lon="-0.45249">
        <ele>130.65</ele>
        <time>2021-09-02T04:11:32.925Z</time>
      </trkpt>
      <trkpt lat="48.2552" lon="-0.45249">
        <ele>130.65</ele>
        <time>2021-09-02T04:12:23.642Z</time>
      </trkpt>
      <trkpt lat="48.25524" lon="-0.45228">
        <ele>131.45</ele>
        <time>2021-09-02T04:13:14.361Z</time>
      </trkpt>
      <trkpt lat="48.25524" lon="-0.45228">
        <ele>131.45</ele>
        <time>2021-09-02T04:14:05.080Z</time>
      </trkpt>
      <trkpt lat="48.25544" lon="-0.45157">
        <ele>135</ele>
        <time>2021-09-02T04:14:55.807Z</time>
      </trkpt>
      <trkpt lat="48.25544" lon="-0.45157">
        <ele>135</ele>
        <time>2021-09-02T04:15:46.534Z</time>
      </trkpt>
      <trkpt lat="48.25554" lon="-0.45133">
        <ele>136.2</ele>
        <time>2021-09-02T04:16:37.264Z</time>
      </trkpt>
      <trkpt lat="48.25554" lon="-0.45133">
        <ele>136.2</ele>
        <time>2021-09-02T04:17:27.994Z</time>
      </trkpt>
      <trkpt lat="48.25642" lon="-0.44956">
        <ele>142.46</ele>
        <time>2021-09-02T04:18:18.748Z</time>
      </trkpt>
      <trkpt lat="48.25642" lon="-0.44956">
        <ele>142.46</ele>
        <time>2021-09-02T04:19:09.502Z</time>
      </trkpt>
      <trkpt lat="48.25667" lon="-0.44883">
        <ele>145.8</ele>
        <time>2021-09-02T04:20:00.265Z</time>
      </trkpt>
      <trkpt lat="48.25667" lon="-0.44883">
        <ele>145.8</ele>
        <time>2021-09-02T04:20:51.028Z</time>
      </trkpt>
      <trkpt lat="48.25678" lon="-0.44839">
        <ele>147.3</ele>
        <time>2021-09-02T04:21:41.796Z</time>
      </trkpt>
      <trkpt lat="48.25678" lon="-0.44839">
        <ele>147.3</ele>
        <time>2021-09-02T04:22:32.564Z</time>
      </trkpt>
      <trkpt lat="48.25686" lon="-0.44796">
        <ele>149.12</ele>
        <time>2021-09-02T04:23:23.337Z</time>
      </trkpt>
      <trkpt lat="48.25686" lon="-0.44796">
        <ele>149.12</ele>
        <time>2021-09-02T04:24:14.110Z</time>
      </trkpt>
      <trkpt lat="48.25699" lon="-0.44695">
        <ele>151.59</ele>
        <time>2021-09-02T04:25:04.894Z</time>
      </trkpt>
      <trkpt lat="48.25699" lon="-0.44695">
        <ele>151.59</ele>
        <time>2021-09-02T04:25:55.678Z</time>
      </trkpt>
      <trkpt lat="48.25701" lon="-0.44663">
        <ele>152.86</ele>
        <time>2021-09-02T04:26:46.465Z</time>
      </trkpt>
      <trkpt lat="48.25701" lon="-0.44663">
        <ele>152.86</ele>
        <time>2021-09-02T04:27:37.252Z</time>
      </trkpt>
      <trkpt lat="48.25691" lon="-0.44605">
        <ele>155.03</ele>
        <time>2021-09-02T04:28:28.045Z</time>
      </trkpt>
      <trkpt lat="48.25691" lon="-0.44605">
        <ele>155.03</ele>
        <time>2021-09-02T04:29:18.838Z</time>
      </trkpt>
      <trkpt lat="48.25686" lon="-0.44589">
        <ele>155.68</ele>
        <time>2021-09-02T04:30:09.633Z</time>
      </trkpt>
      <trkpt lat="48.25686" lon="-0.44589">
        <ele>155.68</ele>
        <time>2021-09-02T04:31:00.428Z</time>
      </trkpt>
      <trkpt lat="48.25679" lon="-0.44574">
        <ele>155.68</ele>
        <time>2021-09-02T04:31:51.225Z</time>
      </trkpt>
      <trkpt lat="48.25679" lon="-0.44574">
        <ele>155.68</ele>
        <time>2021-09-02T04:32:42.022Z</time>
      </trkpt>
      <trkpt lat="48.25654" lon="-0.4454">
        <ele>158.03</ele>
        <time>2021-09-02T04:33:32.825Z</time>
      </trkpt>
      <trkpt lat="48.25654" lon="-0.4454">
        <ele>158.03</ele>
        <time>2021-09-02T04:34:23.628Z</time>
      </trkpt>
      <trkpt lat="48.25631" lon="-0.44512">
        <ele>158.03</ele>
        <time>2021-09-02T04:35:14.435Z</time>
      </trkpt>
      <trkpt lat="48.25631" lon="-0.44512">
        <ele>158.03</ele>
        <time>2021-09-02T04:36:05.242Z</time>
      </trkpt>
      <trkpt lat="48.25576" lon="-0.44463">
        <ele>163.12</ele>
        <time>2021-09-02T04:36:56.060Z</time>
      </trkpt>
      <trkpt lat="48.25576" lon="-0.44463">
        <ele>163.12</ele>
        <time>2021-09-02T04:37:46.878Z</time>
      </trkpt>
      <trkpt lat="48.25537" lon="-0.44422">
        <ele>165.52</ele>
        <time>2021-09-02T04:38:37.703Z</time>
      </trkpt>
      <trkpt lat="48.25537" lon="-0.44422">
        <ele>165.52</ele>
        <time>2021-09-02T04:39:28.528Z</time>
      </trkpt>
      <trkpt lat="48.25526" lon="-0.44395">
        <ele>166.26</ele>
        <time>2021-09-02T04:40:19.357Z</time>
      </trkpt>
      <trkpt lat="48.25526" lon="-0.44395">
        <ele>166.26</ele>
        <time>2021-09-02T04:41:10.186Z</time>
      </trkpt>
      <trkpt lat="48.25522" lon="-0.44379">
        <ele>166.26</ele>
        <time>2021-09-02T04:42:01.016Z</time>
      </trkpt>
      <trkpt lat="48.25522" lon="-0.44379">
        <ele>166.26</ele>
        <time>2021-09-02T04:42:51.846Z</time>
      </trkpt>
      <trkpt lat="48.25521" lon="-0.44361">
        <ele>166.92</ele>
        <time>2021-09-02T04:43:42.678Z</time>
      </trkpt>
      <trkpt lat="48.25521" lon="-0.44361">
        <ele>166.92</ele>
        <time>2021-09-02T04:44:33.510Z</time>
      </trkpt>
      <trkpt lat="48.25524" lon="-0.44318">
        <ele>167.33</ele>
        <time>2021-09-02T04:45:24.347Z</time>
      </trkpt>
      <trkpt lat="48.25524" lon="-0.44318">
        <ele>167.33</ele>
        <time>2021-09-02T04:46:15.184Z</time>
      </trkpt>
      <trkpt lat="48.2561" lon="-0.43941">
        <ele>160.25</ele>
        <time>2021-09-02T04:47:06.064Z</time>
      </trkpt>
      <trkpt lat="48.2561" lon="-0.43941">
        <ele>160.25</ele>
        <time>2021-09-02T04:47:56.944Z</time>
      </trkpt>
      <trkpt lat="48.2561" lon="-0.43919">
        <ele>159.97</ele>
        <time>2021-09-02T04:48:47.826Z</time>
      </trkpt>
      <trkpt lat="48.2561" lon="-0.43919">
        <ele>159.97</ele>
        <time>2021-09-02T04:49:38.708Z</time>
      </trkpt>
      <trkpt lat="48.25606" lon="-0.43791">
        <ele>160.46</ele>
        <time>2021-09-02T04:50:29.604Z</time>
      </trkpt>
      <trkpt lat="48.25606" lon="-0.43791">
        <ele>160.46</ele>
        <time>2021-09-02T04:51:20.500Z</time>
      </trkpt>
      <trkpt lat="48.25597" lon="-0.43714">
        <ele>160.03</ele>
        <time>2021-09-02T04:52:11.404Z</time>
      </trkpt>
      <trkpt lat="48.25597" lon="-0.43714">
        <ele>160.03</ele>
        <time>2021-09-02T04:53:02.308Z</time>
      </trkpt>
      <trkpt lat="48.25584" lon="-0.43652">
        <ele>158.07</ele>
        <time>2021-09-02T04:53:53.219Z</time>
      </trkpt>
      <trkpt lat="48.25584" lon="-0.43652">
        <ele>158.07</ele>
        <time>2021-09-02T04:54:44.130Z</time>
      </trkpt>
      <trkpt lat="48.25567" lon="-0.43602">
        <ele>154.46</ele>
        <time>2021-09-02T04:55:35.047Z</time>
      </trkpt>
      <trkpt lat="48.25567" lon="-0.43602">
        <ele>154.46</ele>
        <time>2021-09-02T04:56:25.964Z</time>
      </trkpt>
      <trkpt lat="48.25414" lon="-0.43223">
        <ele>137.69</ele>
        <time>2021-09-02T04:57:16.928Z</time>
      </trkpt>
      <trkpt lat="48.25414" lon="-0.43223">
        <ele>137.69</ele>
        <time>2021-09-02T04:58:07.892Z</time>
      </trkpt>
      <trkpt lat="48.25399" lon="-0.4318">
        <ele>137.59</ele>
        <time>2021-09-02T04:58:58.862Z</time>
      </trkpt>
      <trkpt lat="48.25399" lon="-0.4318">
        <ele>137.59</ele>
        <time>2021-09-02T04:59:49.832Z</time>
      </trkpt>
      <trkpt lat="48.25392" lon="-0.43147">
        <ele>138.12</ele>
        <time>2021-09-02T05:00:40.805Z</time>
      </trkpt>
      <trkpt lat="48.25392" lon="-0.43147">
        <ele>138.12</ele>
        <time>2021-09-02T05:01:31.778Z</time>
      </trkpt>
      <trkpt lat="48.25388" lon="-0.43114">
        <ele>139.65</ele>
        <time>2021-09-02T05:02:22.755Z</time>
      </trkpt>
      <trkpt lat="48.25388" lon="-0.43114">
        <ele>139.65</ele>
        <time>2021-09-02T05:03:13.732Z</time>
      </trkpt>
      <trkpt lat="48.25376" lon="-0.42963">
        <ele>147.31</ele>
        <time>2021-09-02T05:04:04.725Z</time>
      </trkpt>
      <trkpt lat="48.25376" lon="-0.42963">
        <ele>147.31</ele>
        <time>2021-09-02T05:04:55.718Z</time>
      </trkpt>
      <trkpt lat="48.25373" lon="-0.42809">
        <ele>159.2</ele>
        <time>2021-09-02T05:05:46.728Z</time>
      </trkpt>
      <trkpt lat="48.25373" lon="-0.42809">
        <ele>159.2</ele>
        <time>2021-09-02T05:06:37.738Z</time>
      </trkpt>
      <trkpt lat="48.25365" lon="-0.42724">
        <ele>161.09</ele>
        <time>2021-09-02T05:07:28.757Z</time>
      </trkpt>
      <trkpt lat="48.25365" lon="-0.42724">
        <ele>161.09</ele>
        <time>2021-09-02T05:08:19.776Z</time>
      </trkpt>
      <trkpt lat="48.25347" lon="-0.42625">
        <ele>160.84</ele>
        <time>2021-09-02T05:09:10.806Z</time>
      </trkpt>
      <trkpt lat="48.25347" lon="-0.42625">
        <ele>160.84</ele>
        <time>2021-09-02T05:10:01.836Z</time>
      </trkpt>
      <trkpt lat="48.25347" lon="-0.42622">
        <ele>160.84</ele>
        <time>2021-09-02T05:10:52.866Z</time>
      </trkpt>
      <trkpt lat="48.25347" lon="-0.42622">
        <ele>160.84</ele>
        <time>2021-09-02T05:11:43.896Z</time>
      </trkpt>
      <trkpt lat="48.25335" lon="-0.42537">
        <ele>160.75</ele>
        <time>2021-09-02T05:12:34.935Z</time>
      </trkpt>
      <trkpt lat="48.25335" lon="-0.42537">
        <ele>160.75</ele>
        <time>2021-09-02T05:13:25.974Z</time>
      </trkpt>
      <trkpt lat="48.2533" lon="-0.42488">
        <ele>161.06</ele>
        <time>2021-09-02T05:14:17.019Z</time>
      </trkpt>
      <trkpt lat="48.2533" lon="-0.42488">
        <ele>161.06</ele>
        <time>2021-09-02T05:15:08.064Z</time>
      </trkpt>
      <trkpt lat="48.25328" lon="-0.42391">
        <ele>161.66</ele>
        <time>2021-09-02T05:15:59.119Z</time>
      </trkpt>
      <trkpt lat="48.25328" lon="-0.42391">
        <ele>161.66</ele>
        <time>2021-09-02T05:16:50.174Z</time>
      </trkpt>
      <trkpt lat="48.25325" lon="-0.42364">
        <ele>161.64</ele>
        <time>2021-09-02T05:17:41.232Z</time>
      </trkpt>
      <trkpt lat="48.25325" lon="-0.42364">
        <ele>161.64</ele>
        <time>2021-09-02T05:18:32.290Z</time>
      </trkpt>
      <trkpt lat="48.25292" lon="-0.42189">
        <ele>160.37</ele>
        <time>2021-09-02T05:19:23.367Z</time>
      </trkpt>
      <trkpt lat="48.25292" lon="-0.42189">
        <ele>160.37</ele>
        <time>2021-09-02T05:20:14.444Z</time>
      </trkpt>
      <trkpt lat="48.25286" lon="-0.42169">
        <ele>160.37</ele>
        <time>2021-09-02T05:21:05.524Z</time>
      </trkpt>
      <trkpt lat="48.25286" lon="-0.42169">
        <ele>160.37</ele>
        <time>2021-09-02T05:21:56.604Z</time>
      </trkpt>
      <trkpt lat="48.25228" lon="-0.41842">
        <ele>158.59</ele>
        <time>2021-09-02T05:22:47.720Z</time>
      </trkpt>
      <trkpt lat="48.25228" lon="-0.41842">
        <ele>158.59</ele>
        <time>2021-09-02T05:23:38.836Z</time>
      </trkpt>
      <trkpt lat="48.25227" lon="-0.41822">
        <ele>158.58</ele>
        <time>2021-09-02T05:24:29.954Z</time>
      </trkpt>
      <trkpt lat="48.25227" lon="-0.41822">
        <ele>158.58</ele>
        <time>2021-09-02T05:25:21.072Z</time>
      </trkpt>
      <trkpt lat="48.2524" lon="-0.41749">
        <ele>158.48</ele>
        <time>2021-09-02T05:26:12.198Z</time>
      </trkpt>
      <trkpt lat="48.2524" lon="-0.41749">
        <ele>158.48</ele>
        <time>2021-09-02T05:27:03.324Z</time>
      </trkpt>
      <trkpt lat="48.25208" lon="-0.41734">
        <ele>158.21</ele>
        <time>2021-09-02T05:27:54.456Z</time>
      </trkpt>
      <trkpt lat="48.25208" lon="-0.41734">
        <ele>158.21</ele>
        <time>2021-09-02T05:28:45.588Z</time>
      </trkpt>
      <trkpt lat="48.25178" lon="-0.41725">
        <ele>157.89</ele>
        <time>2021-09-02T05:29:36.724Z</time>
      </trkpt>
      <trkpt lat="48.25178" lon="-0.41725">
        <ele>157.89</ele>
        <time>2021-09-02T05:30:27.860Z</time>
      </trkpt>
      <trkpt lat="48.25153" lon="-0.4172">
        <ele>157.68</ele>
        <time>2021-09-02T05:31:19.000Z</time>
      </trkpt>
      <trkpt lat="48.25153" lon="-0.4172">
        <ele>157.68</ele>
        <time>2021-09-02T05:32:10.140Z</time>
      </trkpt>
      <trkpt lat="48.24986" lon="-0.41705">
        <ele>155.08</ele>
        <time>2021-09-02T05:33:01.307Z</time>
      </trkpt>
      <trkpt lat="48.24986" lon="-0.41705">
        <ele>155.08</ele>
        <time>2021-09-02T05:33:52.474Z</time>
      </trkpt>
      <trkpt lat="48.2494" lon="-0.41709">
        <ele>154.95</ele>
        <time>2021-09-02T05:34:43.649Z</time>
      </trkpt>
      <trkpt lat="48.2494" lon="-0.41709">
        <ele>154.95</ele>
        <time>2021-09-02T05:35:34.824Z</time>
      </trkpt>
      <trkpt lat="48.24901" lon="-0.41719">
        <ele>155.52</ele>
        <time>2021-09-02T05:36:26.005Z</time>
      </trkpt>
      <trkpt lat="48.24901" lon="-0.41719">
        <ele>155.52</ele>
        <time>2021-09-02T05:37:17.186Z</time>
      </trkpt>
      <trkpt lat="48.24869" lon="-0.41731">
        <ele>156.28</ele>
        <time>2021-09-02T05:38:08.372Z</time>
      </trkpt>
      <trkpt lat="48.24869" lon="-0.41731">
        <ele>156.28</ele>
        <time>2021-09-02T05:38:59.558Z</time>
      </trkpt>
      <trkpt lat="48.24828" lon="-0.41758">
        <ele>158.19</ele>
        <time>2021-09-02T05:39:50.751Z</time>
      </trkpt>
      <trkpt lat="48.24828" lon="-0.41758">
        <ele>158.19</ele>
        <time>2021-09-02T05:40:41.944Z</time>
      </trkpt>
      <trkpt lat="48.2475" lon="-0.41794">
        <ele>162.99</ele>
        <time>2021-09-02T05:41:33.150Z</time>
      </trkpt>
      <trkpt lat="48.2475" lon="-0.41794">
        <ele>162.99</ele>
        <time>2021-09-02T05:42:24.356Z</time>
      </trkpt>
      <trkpt lat="48.24645" lon="-0.41852">
        <ele>169.43</ele>
        <time>2021-09-02T05:43:15.580Z</time>
      </trkpt>
      <trkpt lat="48.24645" lon="-0.41852">
        <ele>169.43</ele>
        <time>2021-09-02T05:44:06.804Z</time>
      </trkpt>
      <trkpt lat="48.24589" lon="-0.41886">
        <ele>173.77</ele>
        <time>2021-09-02T05:44:58.038Z</time>
      </trkpt>
      <trkpt lat="48.24589" lon="-0.41886">
        <ele>173.77</ele>
        <time>2021-09-02T05:45:49.272Z</time>
      </trkpt>
      <trkpt lat="48.24572" lon="-0.41898">
        <ele>174.67</ele>
        <time>2021-09-02T05:46:40.509Z</time>
      </trkpt>
      <trkpt lat="48.24572" lon="-0.41898">
        <ele>174.67</ele>
        <time>2021-09-02T05:47:31.746Z</time>
      </trkpt>
      <trkpt lat="48.24416" lon="-0.42074">
        <ele>169.94</ele>
        <time>2021-09-02T05:48:23.014Z</time>
      </trkpt>
      <trkpt lat="48.24416" lon="-0.42074">
        <ele>169.94</ele>
        <time>2021-09-02T05:49:14.282Z</time>
      </trkpt>
      <trkpt lat="48.24391" lon="-0.42094">
        <ele>168.79</ele>
        <time>2021-09-02T05:50:05.555Z</time>
      </trkpt>
      <trkpt lat="48.24391" lon="-0.42094">
        <ele>168.79</ele>
        <time>2021-09-02T05:50:56.828Z</time>
      </trkpt>
      <trkpt lat="48.24362" lon="-0.42111">
        <ele>167.6</ele>
        <time>2021-09-02T05:51:48.106Z</time>
      </trkpt>
      <trkpt lat="48.24362" lon="-0.42111">
        <ele>167.6</ele>
        <time>2021-09-02T05:52:39.384Z</time>
      </trkpt>
      <trkpt lat="48.24305" lon="-0.4213">
        <ele>164.77</ele>
        <time>2021-09-02T05:53:30.671Z</time>
      </trkpt>
      <trkpt lat="48.24305" lon="-0.4213">
        <ele>164.77</ele>
        <time>2021-09-02T05:54:21.958Z</time>
      </trkpt>
      <trkpt lat="48.24281" lon="-0.42141">
        <ele>163.39</ele>
        <time>2021-09-02T05:55:13.249Z</time>
      </trkpt>
      <trkpt lat="48.24281" lon="-0.42141">
        <ele>163.39</ele>
        <time>2021-09-02T05:56:04.540Z</time>
      </trkpt>
      <trkpt lat="48.24268" lon="-0.42152">
        <ele>163.39</ele>
        <time>2021-09-02T05:56:55.834Z</time>
      </trkpt>
      <trkpt lat="48.24268" lon="-0.42152">
        <ele>163.39</ele>
        <time>2021-09-02T05:57:47.128Z</time>
      </trkpt>
      <trkpt lat="48.24241" lon="-0.42185">
        <ele>161.86</ele>
        <time>2021-09-02T05:58:38.427Z</time>
      </trkpt>
      <trkpt lat="48.24241" lon="-0.42185">
        <ele>161.86</ele>
        <time>2021-09-02T05:59:29.726Z</time>
      </trkpt>
      <trkpt lat="48.24219" lon="-0.42222">
        <ele>161.47</ele>
        <time>2021-09-02T06:00:21.031Z</time>
      </trkpt>
      <trkpt lat="48.24219" lon="-0.42222">
        <ele>161.47</ele>
        <time>2021-09-02T06:01:12.336Z</time>
      </trkpt>
      <trkpt lat="48.2406" lon="-0.42557">
        <ele>158.73</ele>
        <time>2021-09-02T06:02:03.684Z</time>
      </trkpt>
      <trkpt lat="48.2406" lon="-0.42557">
        <ele>158.73</ele>
        <time>2021-09-02T06:02:55.032Z</time>
      </trkpt>
      <trkpt lat="48.24047" lon="-0.42575">
        <ele>158.73</ele>
        <time>2021-09-02T06:03:46.383Z</time>
      </trkpt>
      <trkpt lat="48.24047" lon="-0.42575">
        <ele>158.73</ele>
        <time>2021-09-02T06:04:37.734Z</time>
      </trkpt>
      <trkpt lat="48.2402" lon="-0.42603">
        <ele>158.07</ele>
        <time>2021-09-02T06:05:29.091Z</time>
      </trkpt>
      <trkpt lat="48.2402" lon="-0.42603">
        <ele>158.07</ele>
        <time>2021-09-02T06:06:20.448Z</time>
      </trkpt>
      <trkpt lat="48.23982" lon="-0.4263">
        <ele>157.37</ele>
        <time>2021-09-02T06:07:11.811Z</time>
      </trkpt>
      <trkpt lat="48.23982" lon="-0.4263">
        <ele>157.37</ele>
        <time>2021-09-02T06:08:03.174Z</time>
      </trkpt>
      <trkpt lat="48.23934" lon="-0.42652">
        <ele>156.16</ele>
        <time>2021-09-02T06:08:54.545Z</time>
      </trkpt>
      <trkpt lat="48.23934" lon="-0.42652">
        <ele>156.16</ele>
        <time>2021-09-02T06:09:45.916Z</time>
      </trkpt>
      <trkpt lat="48.2347" lon="-0.42885">
        <ele>137.64</ele>
        <time>2021-09-02T06:10:37.366Z</time>
      </trkpt>
      <trkpt lat="48.2347" lon="-0.42885">
        <ele>137.64</ele>
        <time>2021-09-02T06:11:28.816Z</time>
      </trkpt>
      <trkpt lat="48.23447" lon="-0.42893">
        <ele>136.87</ele>
        <time>2021-09-02T06:12:20.269Z</time>
      </trkpt>
      <trkpt lat="48.23447" lon="-0.42893">
        <ele>136.87</ele>
        <time>2021-09-02T06:13:11.722Z</time>
      </trkpt>
      <trkpt lat="48.2342" lon="-0.42902">
        <ele>136.39</ele>
        <time>2021-09-02T06:14:03.180Z</time>
      </trkpt>
      <trkpt lat="48.2342" lon="-0.42902">
        <ele>136.39</ele>
        <time>2021-09-02T06:14:54.638Z</time>
      </trkpt>
      <trkpt lat="48.23384" lon="-0.42898">
        <ele>136.4</ele>
        <time>2021-09-02T06:15:46.102Z</time>
      </trkpt>
      <trkpt lat="48.23384" lon="-0.42898">
        <ele>136.4</ele>
        <time>2021-09-02T06:16:37.566Z</time>
      </trkpt>
      <trkpt lat="48.23206" lon="-0.42847">
        <ele>141.3</ele>
        <time>2021-09-02T06:17:29.059Z</time>
      </trkpt>
      <trkpt lat="48.23206" lon="-0.42847">
        <ele>141.3</ele>
        <time>2021-09-02T06:18:20.552Z</time>
      </trkpt>
      <trkpt lat="48.23175" lon="-0.42846">
        <ele>141.41</ele>
        <time>2021-09-02T06:19:12.050Z</time>
      </trkpt>
      <trkpt lat="48.23175" lon="-0.42846">
        <ele>141.41</ele>
        <time>2021-09-02T06:20:03.548Z</time>
      </trkpt>
      <trkpt lat="48.23143" lon="-0.42858">
        <ele>141.33</ele>
        <time>2021-09-02T06:20:55.051Z</time>
      </trkpt>
      <trkpt lat="48.23143" lon="-0.42858">
        <ele>141.33</ele>
        <time>2021-09-02T06:21:46.554Z</time>
      </trkpt>
      <trkpt lat="48.2302" lon="-0.42935">
        <ele>140.18</ele>
        <time>2021-09-02T06:22:38.078Z</time>
      </trkpt>
      <trkpt lat="48.2302" lon="-0.42935">
        <ele>140.18</ele>
        <time>2021-09-02T06:23:29.602Z</time>
      </trkpt>
      <trkpt lat="48.23001" lon="-0.42942">
        <ele>140.18</ele>
        <time>2021-09-02T06:24:21.129Z</time>
      </trkpt>
      <trkpt lat="48.23001" lon="-0.42942">
        <ele>140.18</ele>
        <time>2021-09-02T06:25:12.656Z</time>
      </trkpt>
      <trkpt lat="48.22977" lon="-0.42948">
        <ele>140.02</ele>
        <time>2021-09-02T06:26:04.187Z</time>
      </trkpt>
      <trkpt lat="48.22977" lon="-0.42948">
        <ele>140.02</ele>
        <time>2021-09-02T06:26:55.718Z</time>
      </trkpt>
      <trkpt lat="48.22773" lon="-0.42965">
        <ele>136.47</ele>
        <time>2021-09-02T06:27:47.282Z</time>
      </trkpt>
      <trkpt lat="48.22773" lon="-0.42965">
        <ele>136.47</ele>
        <time>2021-09-02T06:28:38.846Z</time>
      </trkpt>
      <trkpt lat="48.22754" lon="-0.42964">
        <ele>135.46</ele>
        <time>2021-09-02T06:29:30.413Z</time>
      </trkpt>
      <trkpt lat="48.22754" lon="-0.42964">
        <ele>135.46</ele>
        <time>2021-09-02T06:30:21.980Z</time>
      </trkpt>
      <trkpt lat="48.22731" lon="-0.42958">
        <ele>135.22</ele>
        <time>2021-09-02T06:31:13.551Z</time>
      </trkpt>
      <trkpt lat="48.22731" lon="-0.42958">
        <ele>135.22</ele>
        <time>2021-09-02T06:32:05.122Z</time>
      </trkpt>
      <trkpt lat="48.2258" lon="-0.42885">
        <ele>133.93</ele>
        <time>2021-09-02T06:32:56.718Z</time>
      </trkpt>
      <trkpt lat="48.2258" lon="-0.42885">
        <ele>133.93</ele>
        <time>2021-09-02T06:33:48.314Z</time>
      </trkpt>
      <trkpt lat="48.22561" lon="-0.42874">
        <ele>134.55</ele>
        <time>2021-09-02T06:34:39.914Z</time>
      </trkpt>
      <trkpt lat="48.22561" lon="-0.42874">
        <ele>134.55</ele>
        <time>2021-09-02T06:35:31.514Z</time>
      </trkpt>
      <trkpt lat="48.22236" lon="-0.4261">
        <ele>127.74</ele>
        <time>2021-09-02T06:36:23.173Z</time>
      </trkpt>
      <trkpt lat="48.22236" lon="-0.4261">
        <ele>127.74</ele>
        <time>2021-09-02T06:37:14.832Z</time>
      </trkpt>
      <trkpt lat="48.22179" lon="-0.42566">
        <ele>125.2</ele>
        <time>2021-09-02T06:38:06.501Z</time>
      </trkpt>
      <trkpt lat="48.22179" lon="-0.42566">
        <ele>125.2</ele>
        <time>2021-09-02T06:38:58.170Z</time>
      </trkpt>
      <trkpt lat="48.22166" lon="-0.42547">
        <ele>124.69</ele>
        <time>2021-09-02T06:39:49.842Z</time>
      </trkpt>
      <trkpt lat="48.22166" lon="-0.42547">
        <ele>124.69</ele>
        <time>2021-09-02T06:40:41.514Z</time>
      </trkpt>
      <trkpt lat="48.22156" lon="-0.42521">
        <ele>124.37</ele>
        <time>2021-09-02T06:41:33.189Z</time>
      </trkpt>
      <trkpt lat="48.22156" lon="-0.42521">
        <ele>124.37</ele>
        <time>2021-09-02T06:42:24.864Z</time>
      </trkpt>
      <trkpt lat="48.22142" lon="-0.42529">
        <ele>124.19</ele>
        <time>2021-09-02T06:43:16.542Z</time>
      </trkpt>
      <trkpt lat="48.22142" lon="-0.42529">
        <ele>124.19</ele>
        <time>2021-09-02T06:44:08.220Z</time>
      </trkpt>
      <trkpt lat="48.22135" lon="-0.4253">
        <ele>124.19</ele>
        <time>2021-09-02T06:44:59.899Z</time>
      </trkpt>
      <trkpt lat="48.22135" lon="-0.4253">
        <ele>124.19</ele>
        <time>2021-09-02T06:45:51.578Z</time>
      </trkpt>
      <trkpt lat="48.22077" lon="-0.42486">
        <ele>123.15</ele>
        <time>2021-09-02T06:46:43.267Z</time>
      </trkpt>
      <trkpt lat="48.22077" lon="-0.42486">
        <ele>123.15</ele>
        <time>2021-09-02T06:47:34.956Z</time>
      </trkpt>
      <trkpt lat="48.22003" lon="-0.42418">
        <ele>121.76</ele>
        <time>2021-09-02T06:48:26.659Z</time>
      </trkpt>
      <trkpt lat="48.22003" lon="-0.42418">
        <ele>121.76</ele>
        <time>2021-09-02T06:49:18.362Z</time>
      </trkpt>
      <trkpt lat="48.21724" lon="-0.42187">
        <ele>121.29</ele>
        <time>2021-09-02T06:50:10.116Z</time>
      </trkpt>
      <trkpt lat="48.21724" lon="-0.42187">
        <ele>121.29</ele>
        <time>2021-09-02T06:51:01.870Z</time>
      </trkpt>
      <trkpt lat="48.21697" lon="-0.42169">
        <ele>121.31</ele>
        <time>2021-09-02T06:51:53.629Z</time>
      </trkpt>
      <trkpt lat="48.21697" lon="-0.42169">
        <ele>121.31</ele>
        <time>2021-09-02T06:52:45.388Z</time>
      </trkpt>
      <trkpt lat="48.2164" lon="-0.4214">
        <ele>120.3</ele>
        <time>2021-09-02T06:53:37.156Z</time>
      </trkpt>
      <trkpt lat="48.2164" lon="-0.4214">
        <ele>120.3</ele>
        <time>2021-09-02T06:54:28.924Z</time>
      </trkpt>
      <trkpt lat="48.21268" lon="-0.42016">
        <ele>112.22</ele>
        <time>2021-09-02T06:55:20.753Z</time>
      </trkpt>
      <trkpt lat="48.21268" lon="-0.42016">
        <ele>112.22</ele>
        <time>2021-09-02T06:56:12.582Z</time>
      </trkpt>
      <trkpt lat="48.21099" lon="-0.42002">
        <ele>112.19</ele>
        <time>2021-09-02T06:57:04.439Z</time>
      </trkpt>
      <trkpt lat="48.21099" lon="-0.42002">
        <ele>112.19</ele>
        <time>2021-09-02T06:57:56.296Z</time>
      </trkpt>
      <trkpt lat="48.21064" lon="-0.42003">
        <ele>112.08</ele>
        <time>2021-09-02T06:58:48.158Z</time>
      </trkpt>
      <trkpt lat="48.21064" lon="-0.42003">
        <ele>112.08</ele>
        <time>2021-09-02T06:59:40.020Z</time>
      </trkpt>
      <trkpt lat="48.21025" lon="-0.42015">
        <ele>111.85</ele>
        <time>2021-09-02T07:00:31.888Z</time>
      </trkpt>
      <trkpt lat="48.21025" lon="-0.42015">
        <ele>111.85</ele>
        <time>2021-09-02T07:01:23.756Z</time>
      </trkpt>
      <trkpt lat="48.20755" lon="-0.42135">
        <ele>109.38</ele>
        <time>2021-09-02T07:02:15.670Z</time>
      </trkpt>
      <trkpt lat="48.20755" lon="-0.42135">
        <ele>109.38</ele>
        <time>2021-09-02T07:03:07.584Z</time>
      </trkpt>
      <trkpt lat="48.20729" lon="-0.4214">
        <ele>109.53</ele>
        <time>2021-09-02T07:03:59.502Z</time>
      </trkpt>
      <trkpt lat="48.20729" lon="-0.4214">
        <ele>109.53</ele>
        <time>2021-09-02T07:04:51.420Z</time>
      </trkpt>
      <trkpt lat="48.20709" lon="-0.4214">
        <ele>109.47</ele>
        <time>2021-09-02T07:05:43.341Z</time>
      </trkpt>
      <trkpt lat="48.20709" lon="-0.4214">
        <ele>109.47</ele>
        <time>2021-09-02T07:06:35.262Z</time>
      </trkpt>
      <trkpt lat="48.20629" lon="-0.42124">
        <ele>109.17</ele>
        <time>2021-09-02T07:07:27.196Z</time>
      </trkpt>
      <trkpt lat="48.20629" lon="-0.42124">
        <ele>109.17</ele>
        <time>2021-09-02T07:08:19.130Z</time>
      </trkpt>
      <trkpt lat="48.20592" lon="-0.42124">
        <ele>109.34</ele>
        <time>2021-09-02T07:09:11.070Z</time>
      </trkpt>
      <trkpt lat="48.20592" lon="-0.42124">
        <ele>109.34</ele>
        <time>2021-09-02T07:10:03.010Z</time>
      </trkpt>
      <trkpt lat="48.20449" lon="-0.4214">
        <ele>109.4</ele>
        <time>2021-09-02T07:10:54.973Z</time>
      </trkpt>
      <trkpt lat="48.20449" lon="-0.4214">
        <ele>109.4</ele>
        <time>2021-09-02T07:11:46.936Z</time>
      </trkpt>
      <trkpt lat="48.2041" lon="-0.42147">
        <ele>109.35</ele>
        <time>2021-09-02T07:12:38.905Z</time>
      </trkpt>
      <trkpt lat="48.2041" lon="-0.42147">
        <ele>109.35</ele>
        <time>2021-09-02T07:13:30.874Z</time>
      </trkpt>
      <trkpt lat="48.20318" lon="-0.42144">
        <ele>109.38</ele>
        <time>2021-09-02T07:14:22.858Z</time>
      </trkpt>
      <trkpt lat="48.20318" lon="-0.42144">
        <ele>109.38</ele>
        <time>2021-09-02T07:15:14.842Z</time>
      </trkpt>
      <trkpt lat="48.20296" lon="-0.42141">
        <ele>109.46</ele>
        <time>2021-09-02T07:16:06.829Z</time>
      </trkpt>
      <trkpt lat="48.20296" lon="-0.42141">
        <ele>109.46</ele>
        <time>2021-09-02T07:16:58.816Z</time>
      </trkpt>
      <trkpt lat="48.20268" lon="-0.42142">
        <ele>109.7</ele>
        <time>2021-09-02T07:17:50.808Z</time>
      </trkpt>
      <trkpt lat="48.20268" lon="-0.42142">
        <ele>109.7</ele>
        <time>2021-09-02T07:18:42.800Z</time>
      </trkpt>
      <trkpt lat="48.20197" lon="-0.42129">
        <ele>111.12</ele>
        <time>2021-09-02T07:19:34.803Z</time>
      </trkpt>
      <trkpt lat="48.20197" lon="-0.42129">
        <ele>111.12</ele>
        <time>2021-09-02T07:20:26.806Z</time>
      </trkpt>
      <trkpt lat="48.2018" lon="-0.42121">
        <ele>111.65</ele>
        <time>2021-09-02T07:21:18.812Z</time>
      </trkpt>
      <trkpt lat="48.2018" lon="-0.42121">
        <ele>111.65</ele>
        <time>2021-09-02T07:22:10.818Z</time>
      </trkpt>
      <trkpt lat="48.20102" lon="-0.42075">
        <ele>112.69</ele>
        <time>2021-09-02T07:23:02.838Z</time>
      </trkpt>
      <trkpt lat="48.20102" lon="-0.42075">
        <ele>112.69</ele>
        <time>2021-09-02T07:23:54.858Z</time>
      </trkpt>
      <trkpt lat="48.20074" lon="-0.42047">
        <ele>113.09</ele>
        <time>2021-09-02T07:24:46.883Z</time>
      </trkpt>
      <trkpt lat="48.20074" lon="-0.42047">
        <ele>113.09</ele>
        <time>2021-09-02T07:25:38.908Z</time>
      </trkpt>
      <trkpt lat="48.20017" lon="-0.41959">
        <ele>114.22</ele>
        <time>2021-09-02T07:26:30.946Z</time>
      </trkpt>
      <trkpt lat="48.20017" lon="-0.41959">
        <ele>114.22</ele>
        <time>2021-09-02T07:27:22.984Z</time>
      </trkpt>
      <trkpt lat="48.20006" lon="-0.41947">
        <ele>114.35</ele>
        <time>2021-09-02T07:28:15.024Z</time>
      </trkpt>
      <trkpt lat="48.20006" lon="-0.41947">
        <ele>114.35</ele>
        <time>2021-09-02T07:29:07.064Z</time>
      </trkpt>
      <trkpt lat="48.19993" lon="-0.41936">
        <ele>114.65</ele>
        <time>2021-09-02T07:29:59.107Z</time>
      </trkpt>
      <trkpt lat="48.19993" lon="-0.41936">
        <ele>114.65</ele>
        <time>2021-09-02T07:30:51.150Z</time>
      </trkpt>
      <trkpt lat="48.19917" lon="-0.41892">
        <ele>116.44</ele>
        <time>2021-09-02T07:31:43.206Z</time>
      </trkpt>
      <trkpt lat="48.19917" lon="-0.41892">
        <ele>116.44</ele>
        <time>2021-09-02T07:32:35.262Z</time>
      </trkpt>
      <trkpt lat="48.19827" lon="-0.4182">
        <ele>120.69</ele>
        <time>2021-09-02T07:33:27.334Z</time>
      </trkpt>
      <trkpt lat="48.19827" lon="-0.4182">
        <ele>120.69</ele>
        <time>2021-09-02T07:34:19.406Z</time>
      </trkpt>
      <trkpt lat="48.19605" lon="-0.41648">
        <ele>123.42</ele>
        <time>2021-09-02T07:35:11.518Z</time>
      </trkpt>
      <trkpt lat="48.19605" lon="-0.41648">
        <ele>123.42</ele>
        <time>2021-09-02T07:36:03.630Z</time>
      </trkpt>
      <trkpt lat="48.1957" lon="-0.41726">
        <ele>123.14</ele>
        <time>2021-09-02T07:36:55.752Z</time>
      </trkpt>
      <trkpt lat="48.1957" lon="-0.41726">
        <ele>123.14</ele>
        <time>2021-09-02T07:37:47.874Z</time>
      </trkpt>
      <trkpt lat="48.19416" lon="-0.42032">
        <ele>122.43</ele>
        <time>2021-09-02T07:38:40.037Z</time>
      </trkpt>
      <trkpt lat="48.19416" lon="-0.42032">
        <ele>122.43</ele>
        <time>2021-09-02T07:39:32.200Z</time>
      </trkpt>
      <trkpt lat="48.19284" lon="-0.42469">
        <ele>119.66</ele>
        <time>2021-09-02T07:40:24.414Z</time>
      </trkpt>
      <trkpt lat="48.19284" lon="-0.42469">
        <ele>119.66</ele>
        <time>2021-09-02T07:41:16.628Z</time>
      </trkpt>
      <trkpt lat="48.19277" lon="-0.42498">
        <ele>119.39</ele>
        <time>2021-09-02T07:42:08.846Z</time>
      </trkpt>
      <trkpt lat="48.19277" lon="-0.42498">
        <ele>119.39</ele>
        <time>2021-09-02T07:43:01.064Z</time>
      </trkpt>
      <trkpt lat="48.1927" lon="-0.42636">
        <ele>118.1</ele>
        <time>2021-09-02T07:43:53.297Z</time>
      </trkpt>
      <trkpt lat="48.1927" lon="-0.42636">
        <ele>118.1</ele>
        <time>2021-09-02T07:44:45.530Z</time>
      </trkpt>
      <trkpt lat="48.19267" lon="-0.42651">
        <ele>118.1</ele>
        <time>2021-09-02T07:45:37.764Z</time>
      </trkpt>
      <trkpt lat="48.19267" lon="-0.42651">
        <ele>118.1</ele>
        <time>2021-09-02T07:46:29.998Z</time>
      </trkpt>
      <trkpt lat="48.19256" lon="-0.42676">
        <ele>117.8</ele>
        <time>2021-09-02T07:47:22.235Z</time>
      </trkpt>
      <trkpt lat="48.19256" lon="-0.42676">
        <ele>117.8</ele>
        <time>2021-09-02T07:48:14.472Z</time>
      </trkpt>
      <trkpt lat="48.19217" lon="-0.42737">
        <ele>117.3</ele>
        <time>2021-09-02T07:49:06.719Z</time>
      </trkpt>
      <trkpt lat="48.19217" lon="-0.42737">
        <ele>117.3</ele>
        <time>2021-09-02T07:49:58.966Z</time>
      </trkpt>
      <trkpt lat="48.19169" lon="-0.42829">
        <ele>116.96</ele>
        <time>2021-09-02T07:50:51.225Z</time>
      </trkpt>
      <trkpt lat="48.19169" lon="-0.42829">
        <ele>116.96</ele>
        <time>2021-09-02T07:51:43.484Z</time>
      </trkpt>
      <trkpt lat="48.19118" lon="-0.4292">
        <ele>117.12</ele>
        <time>2021-09-02T07:52:35.756Z</time>
      </trkpt>
      <trkpt lat="48.19118" lon="-0.4292">
        <ele>117.12</ele>
        <time>2021-09-02T07:53:28.028Z</time>
      </trkpt>
      <trkpt lat="48.19102" lon="-0.42963">
        <ele>117.65</ele>
        <time>2021-09-02T07:54:20.305Z</time>
      </trkpt>
      <trkpt lat="48.19102" lon="-0.42963">
        <ele>117.65</ele>
        <time>2021-09-02T07:55:12.582Z</time>
      </trkpt>
      <trkpt lat="48.1909" lon="-0.43015">
        <ele>117.8</ele>
        <time>2021-09-02T07:56:04.865Z</time>
      </trkpt>
      <trkpt lat="48.1909" lon="-0.43015">
        <ele>117.8</ele>
        <time>2021-09-02T07:56:57.148Z</time>
      </trkpt>
      <trkpt lat="48.19085" lon="-0.4303">
        <ele>117.79</ele>
        <time>2021-09-02T07:57:49.433Z</time>
      </trkpt>
      <trkpt lat="48.19085" lon="-0.4303">
        <ele>117.79</ele>
        <time>2021-09-02T07:58:41.718Z</time>
      </trkpt>
      <trkpt lat="48.19064" lon="-0.43057">
        <ele>117.57</ele>
        <time>2021-09-02T07:59:34.007Z</time>
      </trkpt>
      <trkpt lat="48.19064" lon="-0.43057">
        <ele>117.57</ele>
        <time>2021-09-02T08:00:26.296Z</time>
      </trkpt>
      <trkpt lat="48.19057" lon="-0.43079">
        <ele>117.04</ele>
        <time>2021-09-02T08:01:18.588Z</time>
      </trkpt>
      <trkpt lat="48.19057" lon="-0.43079">
        <ele>117.04</ele>
        <time>2021-09-02T08:02:10.880Z</time>
      </trkpt>
      <trkpt lat="48.18855" lon="-0.42991">
        <ele>110.93</ele>
        <time>2021-09-02T08:03:03.205Z</time>
      </trkpt>
      <trkpt lat="48.18855" lon="-0.42991">
        <ele>110.93</ele>
        <time>2021-09-02T08:03:55.530Z</time>
      </trkpt>
      <trkpt lat="48.18841" lon="-0.42983">
        <ele>110.56</ele>
        <time>2021-09-02T08:04:47.858Z</time>
      </trkpt>
      <trkpt lat="48.18841" lon="-0.42983">
        <ele>110.56</ele>
        <time>2021-09-02T08:05:40.186Z</time>
      </trkpt>
      <trkpt lat="48.18223" lon="-0.42712">
        <ele>114.82</ele>
        <time>2021-09-02T08:06:32.617Z</time>
      </trkpt>
      <trkpt lat="48.18223" lon="-0.42712">
        <ele>114.82</ele>
        <time>2021-09-02T08:07:25.048Z</time>
      </trkpt>
      <trkpt lat="48.17978" lon="-0.42608">
        <ele>107.78</ele>
        <time>2021-09-02T08:08:17.520Z</time>
      </trkpt>
      <trkpt lat="48.17978" lon="-0.42608">
        <ele>107.78</ele>
        <time>2021-09-02T08:09:09.992Z</time>
      </trkpt>
      <trkpt lat="48.17907" lon="-0.42568">
        <ele>104.03</ele>
        <time>2021-09-02T08:10:02.476Z</time>
      </trkpt>
      <trkpt lat="48.17907" lon="-0.42568">
        <ele>104.03</ele>
        <time>2021-09-02T08:10:54.960Z</time>
      </trkpt>
      <trkpt lat="48.17879" lon="-0.42543">
        <ele>103.48</ele>
        <time>2021-09-02T08:11:47.449Z</time>
      </trkpt>
      <trkpt lat="48.17879" lon="-0.42543">
        <ele>103.48</ele>
        <time>2021-09-02T08:12:39.938Z</time>
      </trkpt>
      <trkpt lat="48.17853" lon="-0.42518">
        <ele>102.49</ele>
        <time>2021-09-02T08:13:32.432Z</time>
      </trkpt>
      <trkpt lat="48.17853" lon="-0.42518">
        <ele>102.49</ele>
        <time>2021-09-02T08:14:24.926Z</time>
      </trkpt>
      <trkpt lat="48.16357" lon="-0.40649">
        <ele>108.49</ele>
        <time>2021-09-02T08:15:17.732Z</time>
      </trkpt>
      <trkpt lat="48.16357" lon="-0.40649">
        <ele>108.49</ele>
        <time>2021-09-02T08:16:10.538Z</time>
      </trkpt>
      <trkpt lat="48.16346" lon="-0.40637">
        <ele>108.49</ele>
        <time>2021-09-02T08:17:03.346Z</time>
      </trkpt>
      <trkpt lat="48.16346" lon="-0.40637">
        <ele>108.49</ele>
        <time>2021-09-02T08:17:56.154Z</time>
      </trkpt>
      <trkpt lat="48.16336" lon="-0.4063">
        <ele>108.85</ele>
        <time>2021-09-02T08:18:48.964Z</time>
      </trkpt>
      <trkpt lat="48.16336" lon="-0.4063">
        <ele>108.85</ele>
        <time>2021-09-02T08:19:41.774Z</time>
      </trkpt>
      <trkpt lat="48.16326" lon="-0.40631">
        <ele>108.85</ele>
        <time>2021-09-02T08:20:34.586Z</time>
      </trkpt>
      <trkpt lat="48.16326" lon="-0.40631">
        <ele>108.85</ele>
        <time>2021-09-02T08:21:27.398Z</time>
      </trkpt>
      <trkpt lat="48.16314" lon="-0.406">
        <ele>109.32</ele>
        <time>2021-09-02T08:22:20.214Z</time>
      </trkpt>
      <trkpt lat="48.16314" lon="-0.406">
        <ele>109.32</ele>
        <time>2021-09-02T08:23:13.030Z</time>
      </trkpt>
      <trkpt lat="48.16303" lon="-0.40582">
        <ele>109.32</ele>
        <time>2021-09-02T08:24:05.848Z</time>
      </trkpt>
      <trkpt lat="48.16303" lon="-0.40582">
        <ele>109.32</ele>
        <time>2021-09-02T08:24:58.666Z</time>
      </trkpt>
      <trkpt lat="48.16202" lon="-0.40456">
        <ele>110.34</ele>
        <time>2021-09-02T08:25:51.505Z</time>
      </trkpt>
      <trkpt lat="48.16202" lon="-0.40456">
        <ele>110.34</ele>
        <time>2021-09-02T08:26:44.344Z</time>
      </trkpt>
      <trkpt lat="48.16111" lon="-0.40343">
        <ele>112.68</ele>
        <time>2021-09-02T08:27:37.202Z</time>
      </trkpt>
      <trkpt lat="48.16111" lon="-0.40343">
        <ele>112.68</ele>
        <time>2021-09-02T08:28:30.060Z</time>
      </trkpt>
      <trkpt lat="48.16065" lon="-0.40282">
        <ele>113.61</ele>
        <time>2021-09-02T08:29:22.928Z</time>
      </trkpt>
      <trkpt lat="48.16065" lon="-0.40282">
        <ele>113.61</ele>
        <time>2021-09-02T08:30:15.796Z</time>
      </trkpt>
      <trkpt lat="48.15964" lon="-0.40104">
        <ele>115.01</ele>
        <time>2021-09-02T08:31:08.689Z</time>
      </trkpt>
      <trkpt lat="48.15964" lon="-0.40104">
        <ele>115.01</ele>
        <time>2021-09-02T08:32:01.582Z</time>
      </trkpt>
      <trkpt lat="48.1595" lon="-0.40088">
        <ele>115.01</ele>
        <time>2021-09-02T08:32:54.478Z</time>
      </trkpt>
      <trkpt lat="48.1595" lon="-0.40088">
        <ele>115.01</ele>
        <time>2021-09-02T08:33:47.374Z</time>
      </trkpt>
      <trkpt lat="48.15947" lon="-0.40093">
        <ele>115.01</ele>
        <time>2021-09-02T08:34:40.271Z</time>
      </trkpt>
      <trkpt lat="48.15947" lon="-0.40093">
        <ele>115.01</ele>
        <time>2021-09-02T08:35:33.168Z</time>
      </trkpt>
      <trkpt lat="48.1594" lon="-0.40092">
        <ele>114.72</ele>
        <time>2021-09-02T08:36:26.066Z</time>
      </trkpt>
      <trkpt lat="48.1594" lon="-0.40092">
        <ele>114.72</ele>
        <time>2021-09-02T08:37:18.964Z</time>
      </trkpt>
      <trkpt lat="48.15933" lon="-0.40088">
        <ele>114.72</ele>
        <time>2021-09-02T08:38:11.863Z</time>
      </trkpt>
      <trkpt lat="48.15933" lon="-0.40088">
        <ele>114.72</ele>
        <time>2021-09-02T08:39:04.762Z</time>
      </trkpt>
      <trkpt lat="48.1593" lon="-0.40078">
        <ele>114.72</ele>
        <time>2021-09-02T08:39:57.662Z</time>
      </trkpt>
      <trkpt lat="48.1593" lon="-0.40078">
        <ele>114.72</ele>
        <time>2021-09-02T08:40:50.562Z</time>
      </trkpt>
      <trkpt lat="48.15932" lon="-0.40066">
        <ele>114.72</ele>
        <time>2021-09-02T08:41:43.463Z</time>
      </trkpt>
      <trkpt lat="48.15932" lon="-0.40066">
        <ele>114.72</ele>
        <time>2021-09-02T08:42:36.364Z</time>
      </trkpt>
      <trkpt lat="48.15928" lon="-0.40051">
        <ele>114.72</ele>
        <time>2021-09-02T08:43:29.267Z</time>
      </trkpt>
      <trkpt lat="48.15928" lon="-0.40051">
        <ele>114.72</ele>
        <time>2021-09-02T08:44:22.170Z</time>
      </trkpt>
      <trkpt lat="48.15915" lon="-0.4003">
        <ele>114.69</ele>
        <time>2021-09-02T08:45:15.076Z</time>
      </trkpt>
      <trkpt lat="48.15915" lon="-0.4003">
        <ele>114.69</ele>
        <time>2021-09-02T08:46:07.982Z</time>
      </trkpt>
      <trkpt lat="48.15665" lon="-0.39693">
        <ele>115.35</ele>
        <time>2021-09-02T08:47:00.942Z</time>
      </trkpt>
      <trkpt lat="48.15665" lon="-0.39693">
        <ele>115.35</ele>
        <time>2021-09-02T08:47:53.902Z</time>
      </trkpt>
      <trkpt lat="48.15637" lon="-0.39658">
        <ele>115.38</ele>
        <time>2021-09-02T08:48:46.868Z</time>
      </trkpt>
      <trkpt lat="48.15637" lon="-0.39658">
        <ele>115.38</ele>
        <time>2021-09-02T08:49:39.834Z</time>
      </trkpt>
      <trkpt lat="48.15633" lon="-0.39666">
        <ele>115.38</ele>
        <time>2021-09-02T08:50:32.801Z</time>
      </trkpt>
      <trkpt lat="48.15633" lon="-0.39666">
        <ele>115.38</ele>
        <time>2021-09-02T08:51:25.768Z</time>
      </trkpt>
      <trkpt lat="48.15628" lon="-0.39665">
        <ele>115.38</ele>
        <time>2021-09-02T08:52:18.736Z</time>
      </trkpt>
      <trkpt lat="48.15628" lon="-0.39665">
        <ele>115.38</ele>
        <time>2021-09-02T08:53:11.704Z</time>
      </trkpt>
      <trkpt lat="48.15622" lon="-0.39655">
        <ele>115.22</ele>
        <time>2021-09-02T08:54:04.673Z</time>
      </trkpt>
      <trkpt lat="48.15622" lon="-0.39655">
        <ele>115.22</ele>
        <time>2021-09-02T08:54:57.642Z</time>
      </trkpt>
      <trkpt lat="48.15623" lon="-0.39647">
        <ele>115.22</ele>
        <time>2021-09-02T08:55:50.612Z</time>
      </trkpt>
      <trkpt lat="48.15623" lon="-0.39647">
        <ele>115.22</ele>
        <time>2021-09-02T08:56:43.582Z</time>
      </trkpt>
      <trkpt lat="48.15572" lon="-0.39608">
        <ele>114.02</ele>
        <time>2021-09-02T08:57:36.561Z</time>
      </trkpt>
      <trkpt lat="48.15572" lon="-0.39608">
        <ele>114.02</ele>
        <time>2021-09-02T08:58:29.540Z</time>
      </trkpt>
      <trkpt lat="48.15497" lon="-0.39553">
        <ele>111.37</ele>
        <time>2021-09-02T08:59:22.533Z</time>
      </trkpt>
      <trkpt lat="48.15497" lon="-0.39553">
        <ele>111.37</ele>
        <time>2021-09-02T09:00:15.526Z</time>
      </trkpt>
      <trkpt lat="48.15331" lon="-0.39435">
        <ele>107.23</ele>
        <time>2021-09-02T09:01:08.548Z</time>
      </trkpt>
      <trkpt lat="48.15331" lon="-0.39435">
        <ele>107.23</ele>
        <time>2021-09-02T09:02:01.570Z</time>
      </trkpt>
      <trkpt lat="48.15319" lon="-0.39433">
        <ele>107.06</ele>
        <time>2021-09-02T09:02:54.594Z</time>
      </trkpt>
      <trkpt lat="48.15319" lon="-0.39433">
        <ele>107.06</ele>
        <time>2021-09-02T09:03:47.618Z</time>
      </trkpt>
      <trkpt lat="48.15314" lon="-0.39436">
        <ele>107.06</ele>
        <time>2021-09-02T09:04:40.643Z</time>
      </trkpt>
      <trkpt lat="48.15314" lon="-0.39436">
        <ele>107.06</ele>
        <time>2021-09-02T09:05:33.668Z</time>
      </trkpt>
      <trkpt lat="48.15298" lon="-0.39463">
        <ele>106.89</ele>
        <time>2021-09-02T09:06:26.697Z</time>
      </trkpt>
      <trkpt lat="48.15298" lon="-0.39463">
        <ele>106.89</ele>
        <time>2021-09-02T09:07:19.726Z</time>
      </trkpt>
      <trkpt lat="48.15284" lon="-0.39483">
        <ele>106.9</ele>
        <time>2021-09-02T09:08:12.758Z</time>
      </trkpt>
      <trkpt lat="48.15284" lon="-0.39483">
        <ele>106.9</ele>
        <time>2021-09-02T09:09:05.790Z</time>
      </trkpt>
      <trkpt lat="48.15266" lon="-0.39497">
        <ele>107.09</ele>
        <time>2021-09-02T09:09:58.825Z</time>
      </trkpt>
      <trkpt lat="48.15266" lon="-0.39497">
        <ele>107.09</ele>
        <time>2021-09-02T09:10:51.860Z</time>
      </trkpt>
      <trkpt lat="48.15096" lon="-0.39571">
        <ele>109.26</ele>
        <time>2021-09-02T09:11:44.923Z</time>
      </trkpt>
      <trkpt lat="48.15096" lon="-0.39571">
        <ele>109.26</ele>
        <time>2021-09-02T09:12:37.986Z</time>
      </trkpt>
      <trkpt lat="48.15089" lon="-0.39577">
        <ele>109.26</ele>
        <time>2021-09-02T09:13:31.051Z</time>
      </trkpt>
      <trkpt lat="48.15089" lon="-0.39577">
        <ele>109.26</ele>
        <time>2021-09-02T09:14:24.116Z</time>
      </trkpt>
      <trkpt lat="48.15083" lon="-0.39587">
        <ele>109.2</ele>
        <time>2021-09-02T09:15:17.182Z</time>
      </trkpt>
      <trkpt lat="48.15083" lon="-0.39587">
        <ele>109.2</ele>
        <time>2021-09-02T09:16:10.248Z</time>
      </trkpt>
      <trkpt lat="48.15069" lon="-0.39585">
        <ele>109.2</ele>
        <time>2021-09-02T09:17:03.316Z</time>
      </trkpt>
      <trkpt lat="48.15069" lon="-0.39585">
        <ele>109.2</ele>
        <time>2021-09-02T09:17:56.384Z</time>
      </trkpt>
      <trkpt lat="48.15065" lon="-0.39573">
        <ele>109.2</ele>
        <time>2021-09-02T09:18:49.454Z</time>
      </trkpt>
      <trkpt lat="48.15065" lon="-0.39573">
        <ele>109.2</ele>
        <time>2021-09-02T09:19:42.524Z</time>
      </trkpt>
      <trkpt lat="48.15059" lon="-0.39571">
        <ele>108.92</ele>
        <time>2021-09-02T09:20:35.595Z</time>
      </trkpt>
      <trkpt lat="48.15059" lon="-0.39571">
        <ele>108.92</ele>
        <time>2021-09-02T09:21:28.666Z</time>
      </trkpt>
      <trkpt lat="48.15056" lon="-0.39573">
        <ele>108.92</ele>
        <time>2021-09-02T09:22:21.737Z</time>
      </trkpt>
      <trkpt lat="48.15056" lon="-0.39573">
        <ele>108.92</ele>
        <time>2021-09-02T09:23:14.808Z</time>
      </trkpt>
      <trkpt lat="48.15054" lon="-0.39566">
        <ele>108.92</ele>
        <time>2021-09-02T09:24:07.880Z</time>
      </trkpt>
      <trkpt lat="48.15054" lon="-0.39566">
        <ele>108.92</ele>
        <time>2021-09-02T09:25:00.952Z</time>
      </trkpt>
      <trkpt lat="48.14555" lon="-0.39194">
        <ele>118.75</ele>
        <time>2021-09-02T09:25:54.114Z</time>
      </trkpt>
      <trkpt lat="48.14555" lon="-0.39194">
        <ele>118.75</ele>
        <time>2021-09-02T09:26:47.276Z</time>
      </trkpt>
      <trkpt lat="48.14548" lon="-0.3921">
        <ele>118.64</ele>
        <time>2021-09-02T09:27:40.440Z</time>
      </trkpt>
      <trkpt lat="48.14548" lon="-0.3921">
        <ele>118.64</ele>
        <time>2021-09-02T09:28:33.604Z</time>
      </trkpt>
      <trkpt lat="48.14542" lon="-0.39211">
        <ele>118.48</ele>
        <time>2021-09-02T09:29:26.769Z</time>
      </trkpt>
      <trkpt lat="48.14542" lon="-0.39211">
        <ele>118.48</ele>
        <time>2021-09-02T09:30:19.934Z</time>
      </trkpt>
      <trkpt lat="48.14534" lon="-0.3921">
        <ele>118.16</ele>
        <time>2021-09-02T09:31:13.100Z</time>
      </trkpt>
      <trkpt lat="48.14534" lon="-0.3921">
        <ele>118.16</ele>
        <time>2021-09-02T09:32:06.266Z</time>
      </trkpt>
      <trkpt lat="48.1453" lon="-0.39207">
        <ele>118.16</ele>
        <time>2021-09-02T09:32:59.433Z</time>
      </trkpt>
      <trkpt lat="48.1453" lon="-0.39207">
        <ele>118.16</ele>
        <time>2021-09-02T09:33:52.600Z</time>
      </trkpt>
      <trkpt lat="48.14523" lon="-0.3919">
        <ele>117.78</ele>
        <time>2021-09-02T09:34:45.769Z</time>
      </trkpt>
      <trkpt lat="48.14523" lon="-0.3919">
        <ele>117.78</ele>
        <time>2021-09-02T09:35:38.938Z</time>
      </trkpt>
      <trkpt lat="48.14526" lon="-0.39174">
        <ele>117.32</ele>
        <time>2021-09-02T09:36:32.108Z</time>
      </trkpt>
      <trkpt lat="48.14526" lon="-0.39174">
        <ele>117.32</ele>
        <time>2021-09-02T09:37:25.278Z</time>
      </trkpt>
      <trkpt lat="48.14412" lon="-0.39092">
        <ele>111.22</ele>
        <time>2021-09-02T09:38:18.469Z</time>
      </trkpt>
      <trkpt lat="48.14412" lon="-0.39092">
        <ele>111.22</ele>
        <time>2021-09-02T09:39:11.660Z</time>
      </trkpt>
      <trkpt lat="48.1329" lon="-0.38265">
        <ele>112.09</ele>
        <time>2021-09-02T09:40:05.051Z</time>
      </trkpt>
      <trkpt lat="48.1329" lon="-0.38265">
        <ele>112.09</ele>
        <time>2021-09-02T09:40:58.442Z</time>
      </trkpt>
      <trkpt lat="48.12436" lon="-0.37638">
        <ele>126.42</ele>
        <time>2021-09-02T09:41:51.985Z</time>
      </trkpt>
      <trkpt lat="48.12436" lon="-0.37638">
        <ele>126.42</ele>
        <time>2021-09-02T09:42:45.528Z</time>
      </trkpt>
      <trkpt lat="48.12403" lon="-0.37609">
        <ele>126.03</ele>
        <time>2021-09-02T09:43:39.078Z</time>
      </trkpt>
      <trkpt lat="48.12403" lon="-0.37609">
        <ele>126.03</ele>
        <time>2021-09-02T09:44:32.628Z</time>
      </trkpt>
      <trkpt lat="48.1089" lon="-0.36211">
        <ele>109.79</ele>
        <time>2021-09-02T09:45:26.462Z</time>
      </trkpt>
      <trkpt lat="48.1089" lon="-0.36211">
        <ele>109.79</ele>
        <time>2021-09-02T09:46:20.296Z</time>
      </trkpt>
      <trkpt lat="48.10215" lon="-0.35589">
        <ele>133.27</ele>
        <time>2021-09-02T09:47:14.257Z</time>
      </trkpt>
      <trkpt lat="48.10215" lon="-0.35589">
        <ele>133.27</ele>
        <time>2021-09-02T09:48:08.218Z</time>
      </trkpt>
      <trkpt lat="48.10208" lon="-0.35598">
        <ele>133.27</ele>
        <time>2021-09-02T09:49:02.181Z</time>
      </trkpt>
      <trkpt lat="48.10208" lon="-0.35598">
        <ele>133.27</ele>
        <time>2021-09-02T09:49:56.144Z</time>
      </trkpt>
      <trkpt lat="48.10204" lon="-0.35602">
        <ele>133.95</ele>
        <time>2021-09-02T09:50:50.108Z</time>
      </trkpt>
      <trkpt lat="48.10204" lon="-0.35602">
        <ele>133.95</ele>
        <time>2021-09-02T09:51:44.072Z</time>
      </trkpt>
      <trkpt lat="48.10195" lon="-0.35597">
        <ele>134.67</ele>
        <time>2021-09-02T09:52:38.037Z</time>
      </trkpt>
      <trkpt lat="48.10195" lon="-0.35597">
        <ele>134.67</ele>
        <time>2021-09-02T09:53:32.002Z</time>
      </trkpt>
      <trkpt lat="48.10189" lon="-0.35587">
        <ele>134.67</ele>
        <time>2021-09-02T09:54:25.969Z</time>
      </trkpt>
      <trkpt lat="48.10189" lon="-0.35587">
        <ele>134.67</ele>
        <time>2021-09-02T09:55:19.936Z</time>
      </trkpt>
      <trkpt lat="48.10188" lon="-0.3558">
        <ele>136.38</ele>
        <time>2021-09-02T09:56:13.903Z</time>
      </trkpt>
      <trkpt lat="48.10188" lon="-0.3558">
        <ele>136.38</ele>
        <time>2021-09-02T09:57:07.870Z</time>
      </trkpt>
      <trkpt lat="48.1019" lon="-0.35566">
        <ele>136.38</ele>
        <time>2021-09-02T09:58:01.839Z</time>
      </trkpt>
      <trkpt lat="48.1019" lon="-0.35566">
        <ele>136.38</ele>
        <time>2021-09-02T09:58:55.808Z</time>
      </trkpt>
      <trkpt lat="48.10146" lon="-0.35528">
        <ele>139.18</ele>
        <time>2021-09-02T09:59:49.785Z</time>
      </trkpt>
      <trkpt lat="48.10146" lon="-0.35528">
        <ele>139.18</ele>
        <time>2021-09-02T10:00:43.762Z</time>
      </trkpt>
      <trkpt lat="48.09791" lon="-0.352">
        <ele>165.4</ele>
        <time>2021-09-02T10:01:37.806Z</time>
      </trkpt>
      <trkpt lat="48.09791" lon="-0.352">
        <ele>165.4</ele>
        <time>2021-09-02T10:02:31.850Z</time>
      </trkpt>
      <trkpt lat="48.09751" lon="-0.35161">
        <ele>167.02</ele>
        <time>2021-09-02T10:03:25.902Z</time>
      </trkpt>
      <trkpt lat="48.09751" lon="-0.35161">
        <ele>167.02</ele>
        <time>2021-09-02T10:04:19.954Z</time>
      </trkpt>
      <trkpt lat="48.09758" lon="-0.35115">
        <ele>166.59</ele>
        <time>2021-09-02T10:05:14.011Z</time>
      </trkpt>
      <trkpt lat="48.09758" lon="-0.35115">
        <ele>166.59</ele>
        <time>2021-09-02T10:06:08.068Z</time>
      </trkpt>
      <trkpt lat="48.09762" lon="-0.351">
        <ele>165.79</ele>
        <time>2021-09-02T10:07:02.126Z</time>
      </trkpt>
      <trkpt lat="48.09762" lon="-0.351">
        <ele>165.79</ele>
        <time>2021-09-02T10:07:56.184Z</time>
      </trkpt>
      <trkpt lat="48.09747" lon="-0.35044">
        <ele>160.14</ele>
        <time>2021-09-02T10:08:50.249Z</time>
      </trkpt>
      <trkpt lat="48.09747" lon="-0.35044">
        <ele>160.14</ele>
        <time>2021-09-02T10:09:44.314Z</time>
      </trkpt>
      <trkpt lat="48.09736" lon="-0.34997">
        <ele>157.49</ele>
        <time>2021-09-02T10:10:38.384Z</time>
      </trkpt>
      <trkpt lat="48.09736" lon="-0.34997">
        <ele>157.49</ele>
        <time>2021-09-02T10:11:32.454Z</time>
      </trkpt>
      <trkpt lat="48.09728" lon="-0.34955">
        <ele>153.91</ele>
        <time>2021-09-02T10:12:26.529Z</time>
      </trkpt>
      <trkpt lat="48.09728" lon="-0.34955">
        <ele>153.91</ele>
        <time>2021-09-02T10:13:20.604Z</time>
      </trkpt>
      <trkpt lat="48.09739" lon="-0.34946">
        <ele>156.71</ele>
        <time>2021-09-02T10:14:14.681Z</time>
      </trkpt>
      <trkpt lat="48.09739" lon="-0.34946">
        <ele>156.71</ele>
        <time>2021-09-02T10:15:08.758Z</time>
      </trkpt>
      <trkpt lat="48.09764" lon="-0.34933">
        <ele>159.12</ele>
        <time>2021-09-02T10:16:02.839Z</time>
      </trkpt>
      <trkpt lat="48.09764" lon="-0.34933">
        <ele>159.12</ele>
        <time>2021-09-02T10:16:56.920Z</time>
      </trkpt>
      <trkpt lat="48.09782" lon="-0.34918">
        <ele>160.12</ele>
        <time>2021-09-02T10:17:51.004Z</time>
      </trkpt>
      <trkpt lat="48.09782" lon="-0.34918">
        <ele>160.12</ele>
        <time>2021-09-02T10:18:45.088Z</time>
      </trkpt>
      <trkpt lat="48.09783" lon="-0.34918">
        <ele>159.49</ele>
        <time>2021-09-02T10:19:39.173Z</time>
      </trkpt>
      <trkpt lat="48.09783" lon="-0.34918">
        <ele>159.49</ele>
        <time>2021-09-02T10:20:33.258Z</time>
      </trkpt>
      <trkpt lat="48.09798" lon="-0.34903">
        <ele>157.49</ele>
        <time>2021-09-02T10:21:27.345Z</time>
      </trkpt>
      <trkpt lat="48.09798" lon="-0.34903">
        <ele>157.49</ele>
        <time>2021-09-02T10:22:21.432Z</time>
      </trkpt>
      <trkpt lat="48.09806" lon="-0.34903">
        <ele>157.49</ele>
        <time>2021-09-02T10:23:15.521Z</time>
      </trkpt>
      <trkpt lat="48.09806" lon="-0.34903">
        <ele>157.49</ele>
        <time>2021-09-02T10:24:09.610Z</time>
      </trkpt>
      <trkpt lat="48.09816" lon="-0.3492">
        <ele>154.16</ele>
        <time>2021-09-02T10:25:03.701Z</time>
      </trkpt>
      <trkpt lat="48.09816" lon="-0.3492">
        <ele>154.16</ele>
        <time>2021-09-02T10:25:57.792Z</time>
      </trkpt>
      <trkpt lat="48.09833" lon="-0.34938">
        <ele>152.92</ele>
        <time>2021-09-02T10:26:51.887Z</time>
      </trkpt>
      <trkpt lat="48.09833" lon="-0.34938">
        <ele>152.92</ele>
        <time>2021-09-02T10:27:45.982Z</time>
      </trkpt>
      <trkpt lat="48.09851" lon="-0.34953">
        <ele>150.12</ele>
        <time>2021-09-02T10:28:40.080Z</time>
      </trkpt>
      <trkpt lat="48.09851" lon="-0.34953">
        <ele>150.12</ele>
        <time>2021-09-02T10:29:34.178Z</time>
      </trkpt>
      <trkpt lat="48.09833" lon="-0.34938">
        <ele>152.92</ele>
        <time>2021-09-02T10:30:28.279Z</time>
      </trkpt>
      <trkpt lat="48.09833" lon="-0.34938">
        <ele>152.92</ele>
        <time>2021-09-02T10:31:22.380Z</time>
      </trkpt>
      <trkpt lat="48.09816" lon="-0.3492">
        <ele>156.71</ele>
        <time>2021-09-02T10:32:16.484Z</time>
      </trkpt>
      <trkpt lat="48.09816" lon="-0.3492">
        <ele>156.71</ele>
        <time>2021-09-02T10:33:10.588Z</time>
      </trkpt>
      <trkpt lat="48.09807" lon="-0.34906">
        <ele>149.4</ele>
        <time>2021-09-02T10:34:04.695Z</time>
      </trkpt>
      <trkpt lat="48.09807" lon="-0.34906">
        <ele>149.4</ele>
        <time>2021-09-02T10:34:58.802Z</time>
      </trkpt>
      <trkpt lat="48.09806" lon="-0.34903">
        <ele>149.4</ele>
        <time>2021-09-02T10:35:52.909Z</time>
      </trkpt>
      <trkpt lat="48.09806" lon="-0.34903">
        <ele>149.4</ele>
        <time>2021-09-02T10:36:47.016Z</time>
      </trkpt>
      <trkpt lat="48.09816" lon="-0.3492">
        <ele>152.92</ele>
        <time>2021-09-02T10:37:41.125Z</time>
      </trkpt>
      <trkpt lat="48.09816" lon="-0.3492">
        <ele>152.92</ele>
        <time>2021-09-02T10:38:35.234Z</time>
      </trkpt>
      <trkpt lat="48.09833" lon="-0.34938">
        <ele>150.11</ele>
        <time>2021-09-02T10:39:29.347Z</time>
      </trkpt>
      <trkpt lat="48.09833" lon="-0.34938">
        <ele>150.11</ele>
        <time>2021-09-02T10:40:23.460Z</time>
      </trkpt>
      <trkpt lat="48.09871" lon="-0.3497">
        <ele>153.46</ele>
        <time>2021-09-02T10:41:17.580Z</time>
      </trkpt>
      <trkpt lat="48.09871" lon="-0.3497">
        <ele>153.46</ele>
        <time>2021-09-02T10:42:11.700Z</time>
      </trkpt>
      <trkpt lat="48.09878" lon="-0.34971">
        <ele>153.75</ele>
        <time>2021-09-02T10:43:05.821Z</time>
      </trkpt>
      <trkpt lat="48.09878" lon="-0.34971">
        <ele>153.75</ele>
        <time>2021-09-02T10:43:59.942Z</time>
      </trkpt>
      <trkpt lat="48.09871" lon="-0.3497">
        <ele>154.18</ele>
        <time>2021-09-02T10:44:54.064Z</time>
      </trkpt>
      <trkpt lat="48.09871" lon="-0.3497">
        <ele>154.18</ele>
        <time>2021-09-02T10:45:48.186Z</time>
      </trkpt>
      <trkpt lat="48.09833" lon="-0.34938">
        <ele>150.76</ele>
        <time>2021-09-02T10:46:42.315Z</time>
      </trkpt>
      <trkpt lat="48.09833" lon="-0.34938">
        <ele>150.76</ele>
        <time>2021-09-02T10:47:36.444Z</time>
      </trkpt>
      <trkpt lat="48.09871" lon="-0.3497">
        <ele>147.9</ele>
        <time>2021-09-02T10:48:30.580Z</time>
      </trkpt>
      <trkpt lat="48.09871" lon="-0.3497">
        <ele>147.9</ele>
        <time>2021-09-02T10:49:24.716Z</time>
      </trkpt>
      <trkpt lat="48.09878" lon="-0.34971">
        <ele>147.9</ele>
        <time>2021-09-02T10:50:18.853Z</time>
      </trkpt>
      <trkpt lat="48.09878" lon="-0.34971">
        <ele>147.9</ele>
        <time>2021-09-02T10:51:12.990Z</time>
      </trkpt>
      <trkpt lat="48.09892" lon="-0.34994">
        <ele>146.92</ele>
        <time>2021-09-02T10:52:07.130Z</time>
      </trkpt>
      <trkpt lat="48.09892" lon="-0.34994">
        <ele>146.92</ele>
        <time>2021-09-02T10:53:01.270Z</time>
      </trkpt>
      <trkpt lat="48.09896" lon="-0.3501">
        <ele>145.69</ele>
        <time>2021-09-02T10:53:55.412Z</time>
      </trkpt>
      <trkpt lat="48.09896" lon="-0.3501">
        <ele>145.69</ele>
        <time>2021-09-02T10:54:49.554Z</time>
      </trkpt>
      <trkpt lat="48.09894" lon="-0.35056">
        <ele>144.24</ele>
        <time>2021-09-02T10:55:43.701Z</time>
      </trkpt>
      <trkpt lat="48.09894" lon="-0.35056">
        <ele>144.24</ele>
        <time>2021-09-02T10:56:37.848Z</time>
      </trkpt>
      <trkpt lat="48.09918" lon="-0.35049">
        <ele>142.72</ele>
        <time>2021-09-02T10:57:31.999Z</time>
      </trkpt>
      <trkpt lat="48.09918" lon="-0.35049">
        <ele>142.72</ele>
        <time>2021-09-02T10:58:26.150Z</time>
      </trkpt>
      <trkpt lat="48.09946" lon="-0.35028">
        <ele>141.96</ele>
        <time>2021-09-02T10:59:20.306Z</time>
      </trkpt>
      <trkpt lat="48.09946" lon="-0.35028">
        <ele>141.96</ele>
        <time>2021-09-02T11:00:14.462Z</time>
      </trkpt>
      <trkpt lat="48.09961" lon="-0.35008">
        <ele>141.26</ele>
        <time>2021-09-02T11:01:08.621Z</time>
      </trkpt>
      <trkpt lat="48.09961" lon="-0.35008">
        <ele>141.26</ele>
        <time>2021-09-02T11:02:02.780Z</time>
      </trkpt>
      <trkpt lat="48.10016" lon="-0.34924">
        <ele>139.72</ele>
        <time>2021-09-02T11:02:56.952Z</time>
      </trkpt>
      <trkpt lat="48.10016" lon="-0.34924">
        <ele>139.72</ele>
        <time>2021-09-02T11:03:51.124Z</time>
      </trkpt>
      <trkpt lat="48.10168" lon="-0.34703">
        <ele>128.2</ele>
        <time>2021-09-02T11:04:45.330Z</time>
      </trkpt>
      <trkpt lat="48.10168" lon="-0.34703">
        <ele>128.2</ele>
        <time>2021-09-02T11:05:39.536Z</time>
      </trkpt>
      <trkpt lat="48.10211" lon="-0.3465">
        <ele>124.28</ele>
        <time>2021-09-02T11:06:33.751Z</time>
      </trkpt>
      <trkpt lat="48.10211" lon="-0.3465">
        <ele>124.28</ele>
        <time>2021-09-02T11:07:27.966Z</time>
      </trkpt>
      <trkpt lat="48.10233" lon="-0.34638">
        <ele>121.98</ele>
        <time>2021-09-02T11:08:22.185Z</time>
      </trkpt>
      <trkpt lat="48.10233" lon="-0.34638">
        <ele>121.98</ele>
        <time>2021-09-02T11:09:16.404Z</time>
      </trkpt>
      <trkpt lat="48.10259" lon="-0.34634">
        <ele>119.13</ele>
        <time>2021-09-02T11:10:10.627Z</time>
      </trkpt>
      <trkpt lat="48.10259" lon="-0.34634">
        <ele>119.13</ele>
        <time>2021-09-02T11:11:04.850Z</time>
      </trkpt>
      <trkpt lat="48.10234" lon="-0.34118">
        <ele>131.8</ele>
        <time>2021-09-02T11:11:59.128Z</time>
      </trkpt>
      <trkpt lat="48.10234" lon="-0.34118">
        <ele>131.8</ele>
        <time>2021-09-02T11:12:53.406Z</time>
      </trkpt>
      <trkpt lat="48.1023" lon="-0.3412">
        <ele>131.8</ele>
        <time>2021-09-02T11:13:47.685Z</time>
      </trkpt>
      <trkpt lat="48.1023" lon="-0.3412">
        <ele>131.8</ele>
        <time>2021-09-02T11:14:41.964Z</time>
      </trkpt>
      <trkpt lat="48.10218" lon="-0.34116">
        <ele>133.5</ele>
        <time>2021-09-02T11:15:36.245Z</time>
      </trkpt>
      <trkpt lat="48.10218" lon="-0.34116">
        <ele>133.5</ele>
        <time>2021-09-02T11:16:30.526Z</time>
      </trkpt>
      <trkpt lat="48.102" lon="-0.34101">
        <ele>135.52</ele>
        <time>2021-09-02T11:17:24.810Z</time>
      </trkpt>
      <trkpt lat="48.102" lon="-0.34101">
        <ele>135.52</ele>
        <time>2021-09-02T11:18:19.094Z</time>
      </trkpt>
      <trkpt lat="48.10173" lon="-0.34071">
        <ele>138.2</ele>
        <time>2021-09-02T11:19:13.384Z</time>
      </trkpt>
      <trkpt lat="48.10173" lon="-0.34071">
        <ele>138.2</ele>
        <time>2021-09-02T11:20:07.674Z</time>
      </trkpt>
      <trkpt lat="48.10162" lon="-0.34055">
        <ele>138.8</ele>
        <time>2021-09-02T11:21:01.966Z</time>
      </trkpt>
      <trkpt lat="48.10162" lon="-0.34055">
        <ele>138.8</ele>
        <time>2021-09-02T11:21:56.258Z</time>
      </trkpt>
      <trkpt lat="48.10143" lon="-0.34038">
        <ele>141.38</ele>
        <time>2021-09-02T11:22:50.554Z</time>
      </trkpt>
      <trkpt lat="48.10143" lon="-0.34038">
        <ele>141.38</ele>
        <time>2021-09-02T11:23:44.850Z</time>
      </trkpt>
      <trkpt lat="48.10065" lon="-0.33998">
        <ele>146.48</ele>
        <time>2021-09-02T11:24:39.159Z</time>
      </trkpt>
      <trkpt lat="48.10065" lon="-0.33998">
        <ele>146.48</ele>
        <time>2021-09-02T11:25:33.468Z</time>
      </trkpt>
      <trkpt lat="48.10052" lon="-0.33988">
        <ele>151.61</ele>
        <time>2021-09-02T11:26:27.779Z</time>
      </trkpt>
      <trkpt lat="48.10052" lon="-0.33988">
        <ele>151.61</ele>
        <time>2021-09-02T11:27:22.090Z</time>
      </trkpt>
      <trkpt lat="48.10039" lon="-0.33977">
        <ele>151.61</ele>
        <time>2021-09-02T11:28:16.403Z</time>
      </trkpt>
      <trkpt lat="48.10039" lon="-0.33977">
        <ele>151.61</ele>
        <time>2021-09-02T11:29:10.716Z</time>
      </trkpt>
      <trkpt lat="48.10001" lon="-0.33932">
        <ele>156.76</ele>
        <time>2021-09-02T11:30:05.037Z</time>
      </trkpt>
      <trkpt lat="48.10001" lon="-0.33932">
        <ele>156.76</ele>
        <time>2021-09-02T11:30:59.358Z</time>
      </trkpt>
      <trkpt lat="48.09992" lon="-0.33923">
        <ele>156.76</ele>
        <time>2021-09-02T11:31:53.681Z</time>
      </trkpt>
      <trkpt lat="48.09992" lon="-0.33923">
        <ele>156.76</ele>
        <time>2021-09-02T11:32:48.004Z</time>
      </trkpt>
      <trkpt lat="48.09983" lon="-0.33917">
        <ele>158.05</ele>
        <time>2021-09-02T11:33:42.329Z</time>
      </trkpt>
      <trkpt lat="48.09983" lon="-0.33917">
        <ele>158.05</ele>
        <time>2021-09-02T11:34:36.654Z</time>
      </trkpt>
      <trkpt lat="48.09967" lon="-0.33915">
        <ele>158.93</ele>
        <time>2021-09-02T11:35:30.981Z</time>
      </trkpt>
      <trkpt lat="48.09967" lon="-0.33915">
        <ele>158.93</ele>
        <time>2021-09-02T11:36:25.308Z</time>
      </trkpt>
      <trkpt lat="48.09749" lon="-0.33916">
        <ele>171.23</ele>
        <time>2021-09-02T11:37:19.670Z</time>
      </trkpt>
      <trkpt lat="48.09749" lon="-0.33916">
        <ele>171.23</ele>
        <time>2021-09-02T11:38:14.032Z</time>
      </trkpt>
      <trkpt lat="48.09738" lon="-0.337">
        <ele>177.26</ele>
        <time>2021-09-02T11:39:08.417Z</time>
      </trkpt>
      <trkpt lat="48.09738" lon="-0.337">
        <ele>177.26</ele>
        <time>2021-09-02T11:40:02.802Z</time>
      </trkpt>
      <trkpt lat="48.09728" lon="-0.33643">
        <ele>178.23</ele>
        <time>2021-09-02T11:40:57.194Z</time>
      </trkpt>
      <trkpt lat="48.09728" lon="-0.33643">
        <ele>178.23</ele>
        <time>2021-09-02T11:41:51.586Z</time>
      </trkpt>
      <trkpt lat="48.09702" lon="-0.33543">
        <ele>181.7</ele>
        <time>2021-09-02T11:42:45.989Z</time>
      </trkpt>
      <trkpt lat="48.09702" lon="-0.33543">
        <ele>181.7</ele>
        <time>2021-09-02T11:43:40.392Z</time>
      </trkpt>
      <trkpt lat="48.09695" lon="-0.33493">
        <ele>182.53</ele>
        <time>2021-09-02T11:44:34.801Z</time>
      </trkpt>
      <trkpt lat="48.09695" lon="-0.33493">
        <ele>182.53</ele>
        <time>2021-09-02T11:45:29.210Z</time>
      </trkpt>
      <trkpt lat="48.09702" lon="-0.33157">
        <ele>180.67</ele>
        <time>2021-09-02T11:46:23.655Z</time>
      </trkpt>
      <trkpt lat="48.09702" lon="-0.33157">
        <ele>180.67</ele>
        <time>2021-09-02T11:47:18.100Z</time>
      </trkpt>
      <trkpt lat="48.0971" lon="-0.33113">
        <ele>178.71</ele>
        <time>2021-09-02T11:48:12.550Z</time>
      </trkpt>
      <trkpt lat="48.0971" lon="-0.33113">
        <ele>178.71</ele>
        <time>2021-09-02T11:49:07.000Z</time>
      </trkpt>
      <trkpt lat="48.09712" lon="-0.33106">
        <ele>178.14</ele>
        <time>2021-09-02T11:50:01.450Z</time>
      </trkpt>
      <trkpt lat="48.09712" lon="-0.33106">
        <ele>178.14</ele>
        <time>2021-09-02T11:50:55.900Z</time>
      </trkpt>
      <trkpt lat="48.0973" lon="-0.33043">
        <ele>176.12</ele>
        <time>2021-09-02T11:51:50.358Z</time>
      </trkpt>
      <trkpt lat="48.0973" lon="-0.33043">
        <ele>176.12</ele>
        <time>2021-09-02T11:52:44.816Z</time>
      </trkpt>
      <trkpt lat="48.09781" lon="-0.32932">
        <ele>172.22</ele>
        <time>2021-09-02T11:53:39.288Z</time>
      </trkpt>
      <trkpt lat="48.09781" lon="-0.32932">
        <ele>172.22</ele>
        <time>2021-09-02T11:54:33.760Z</time>
      </trkpt>
      <trkpt lat="48.09797" lon="-0.32882">
        <ele>170.93</ele>
        <time>2021-09-02T11:55:28.238Z</time>
      </trkpt>
      <trkpt lat="48.09797" lon="-0.32882">
        <ele>170.93</ele>
        <time>2021-09-02T11:56:22.716Z</time>
      </trkpt>
      <trkpt lat="48.09806" lon="-0.32838">
        <ele>170.53</ele>
        <time>2021-09-02T11:57:17.199Z</time>
      </trkpt>
      <trkpt lat="48.09806" lon="-0.32838">
        <ele>170.53</ele>
        <time>2021-09-02T11:58:11.682Z</time>
      </trkpt>
      <trkpt lat="48.09814" lon="-0.32761">
        <ele>170.52</ele>
        <time>2021-09-02T11:59:06.173Z</time>
      </trkpt>
      <trkpt lat="48.09814" lon="-0.32761">
        <ele>170.52</ele>
        <time>2021-09-02T12:00:00.664Z</time>
      </trkpt>
      <trkpt lat="48.09815" lon="-0.32733">
        <ele>170.66</ele>
        <time>2021-09-02T12:00:55.158Z</time>
      </trkpt>
      <trkpt lat="48.09815" lon="-0.32733">
        <ele>170.66</ele>
        <time>2021-09-02T12:01:49.652Z</time>
      </trkpt>
      <trkpt lat="48.09814" lon="-0.32711">
        <ele>171.14</ele>
        <time>2021-09-02T12:02:44.149Z</time>
      </trkpt>
      <trkpt lat="48.09814" lon="-0.32711">
        <ele>171.14</ele>
        <time>2021-09-02T12:03:38.646Z</time>
      </trkpt>
      <trkpt lat="48.0979" lon="-0.32577">
        <ele>172.47</ele>
        <time>2021-09-02T12:04:33.158Z</time>
      </trkpt>
      <trkpt lat="48.0979" lon="-0.32577">
        <ele>172.47</ele>
        <time>2021-09-02T12:05:27.670Z</time>
      </trkpt>
      <trkpt lat="48.09768" lon="-0.32483">
        <ele>171.57</ele>
        <time>2021-09-02T12:06:22.192Z</time>
      </trkpt>
      <trkpt lat="48.09768" lon="-0.32483">
        <ele>171.57</ele>
        <time>2021-09-02T12:07:16.714Z</time>
      </trkpt>
      <trkpt lat="48.09757" lon="-0.32455">
        <ele>170.3</ele>
        <time>2021-09-02T12:08:11.240Z</time>
      </trkpt>
      <trkpt lat="48.09757" lon="-0.32455">
        <ele>170.3</ele>
        <time>2021-09-02T12:09:05.766Z</time>
      </trkpt>
      <trkpt lat="48.09741" lon="-0.32427">
        <ele>169.63</ele>
        <time>2021-09-02T12:10:00.296Z</time>
      </trkpt>
      <trkpt lat="48.09741" lon="-0.32427">
        <ele>169.63</ele>
        <time>2021-09-02T12:10:54.826Z</time>
      </trkpt>
      <trkpt lat="48.09668" lon="-0.32353">
        <ele>169.54</ele>
        <time>2021-09-02T12:11:49.370Z</time>
      </trkpt>
      <trkpt lat="48.09668" lon="-0.32353">
        <ele>169.54</ele>
        <time>2021-09-02T12:12:43.914Z</time>
      </trkpt>
      <trkpt lat="48.09584" lon="-0.32192">
        <ele>153.7</ele>
        <time>2021-09-02T12:13:38.480Z</time>
      </trkpt>
      <trkpt lat="48.09584" lon="-0.32192">
        <ele>153.7</ele>
        <time>2021-09-02T12:14:33.046Z</time>
      </trkpt>
      <trkpt lat="48.09572" lon="-0.32172">
        <ele>153.15</ele>
        <time>2021-09-02T12:15:27.615Z</time>
      </trkpt>
      <trkpt lat="48.09572" lon="-0.32172">
        <ele>153.15</ele>
        <time>2021-09-02T12:16:22.184Z</time>
      </trkpt>
      <trkpt lat="48.0961" lon="-0.32188">
        <ele>151.24</ele>
        <time>2021-09-02T12:17:16.759Z</time>
      </trkpt>
      <trkpt lat="48.0961" lon="-0.32188">
        <ele>151.24</ele>
        <time>2021-09-02T12:18:11.334Z</time>
      </trkpt>
      <trkpt lat="48.09648" lon="-0.32188">
        <ele>149.26</ele>
        <time>2021-09-02T12:19:05.915Z</time>
      </trkpt>
      <trkpt lat="48.09648" lon="-0.32188">
        <ele>149.26</ele>
        <time>2021-09-02T12:20:00.496Z</time>
      </trkpt>
      <trkpt lat="48.0975" lon="-0.32172">
        <ele>146.68</ele>
        <time>2021-09-02T12:20:55.093Z</time>
      </trkpt>
      <trkpt lat="48.0975" lon="-0.32172">
        <ele>146.68</ele>
        <time>2021-09-02T12:21:49.690Z</time>
      </trkpt>
      <trkpt lat="48.09791" lon="-0.32156">
        <ele>146.36</ele>
        <time>2021-09-02T12:22:44.294Z</time>
      </trkpt>
      <trkpt lat="48.09791" lon="-0.32156">
        <ele>146.36</ele>
        <time>2021-09-02T12:23:38.898Z</time>
      </trkpt>
      <trkpt lat="48.09832" lon="-0.32138">
        <ele>146.33</ele>
        <time>2021-09-02T12:24:33.509Z</time>
      </trkpt>
      <trkpt lat="48.09832" lon="-0.32138">
        <ele>146.33</ele>
        <time>2021-09-02T12:25:28.120Z</time>
      </trkpt>
      <trkpt lat="48.09869" lon="-0.32127">
        <ele>145.75</ele>
        <time>2021-09-02T12:26:22.737Z</time>
      </trkpt>
      <trkpt lat="48.09869" lon="-0.32127">
        <ele>145.75</ele>
        <time>2021-09-02T12:27:17.354Z</time>
      </trkpt>
      <trkpt lat="48.0995" lon="-0.3212">
        <ele>145.29</ele>
        <time>2021-09-02T12:28:11.984Z</time>
      </trkpt>
      <trkpt lat="48.0995" lon="-0.3212">
        <ele>145.29</ele>
        <time>2021-09-02T12:29:06.614Z</time>
      </trkpt>
      <trkpt lat="48.10036" lon="-0.32095">
        <ele>149.49</ele>
        <time>2021-09-02T12:30:01.258Z</time>
      </trkpt>
      <trkpt lat="48.10036" lon="-0.32095">
        <ele>149.49</ele>
        <time>2021-09-02T12:30:55.902Z</time>
      </trkpt>
      <trkpt lat="48.10052" lon="-0.32088">
        <ele>149.83</ele>
        <time>2021-09-02T12:31:50.549Z</time>
      </trkpt>
      <trkpt lat="48.10052" lon="-0.32088">
        <ele>149.83</ele>
        <time>2021-09-02T12:32:45.196Z</time>
      </trkpt>
      <trkpt lat="48.10077" lon="-0.32082">
        <ele>149.93</ele>
        <time>2021-09-02T12:33:39.847Z</time>
      </trkpt>
      <trkpt lat="48.10077" lon="-0.32082">
        <ele>149.93</ele>
        <time>2021-09-02T12:34:34.498Z</time>
      </trkpt>
      <trkpt lat="48.10136" lon="-0.32077">
        <ele>149.39</ele>
        <time>2021-09-02T12:35:29.158Z</time>
      </trkpt>
      <trkpt lat="48.10136" lon="-0.32077">
        <ele>149.39</ele>
        <time>2021-09-02T12:36:23.818Z</time>
      </trkpt>
      <trkpt lat="48.10149" lon="-0.32071">
        <ele>149.25</ele>
        <time>2021-09-02T12:37:18.480Z</time>
      </trkpt>
      <trkpt lat="48.10149" lon="-0.32071">
        <ele>149.25</ele>
        <time>2021-09-02T12:38:13.142Z</time>
      </trkpt>
      <trkpt lat="48.10165" lon="-0.32059">
        <ele>148.54</ele>
        <time>2021-09-02T12:39:07.807Z</time>
      </trkpt>
      <trkpt lat="48.10165" lon="-0.32059">
        <ele>148.54</ele>
        <time>2021-09-02T12:40:02.472Z</time>
      </trkpt>
      <trkpt lat="48.10159" lon="-0.32026">
        <ele>148.32</ele>
        <time>2021-09-02T12:40:57.141Z</time>
      </trkpt>
      <trkpt lat="48.10159" lon="-0.32026">
        <ele>148.32</ele>
        <time>2021-09-02T12:41:51.810Z</time>
      </trkpt>
      <trkpt lat="48.10149" lon="-0.31987">
        <ele>147.57</ele>
        <time>2021-09-02T12:42:46.483Z</time>
      </trkpt>
      <trkpt lat="48.10149" lon="-0.31987">
        <ele>147.57</ele>
        <time>2021-09-02T12:43:41.156Z</time>
      </trkpt>
      <trkpt lat="48.1011" lon="-0.31872">
        <ele>145.84</ele>
        <time>2021-09-02T12:44:35.843Z</time>
      </trkpt>
      <trkpt lat="48.1011" lon="-0.31872">
        <ele>145.84</ele>
        <time>2021-09-02T12:45:30.530Z</time>
      </trkpt>
      <trkpt lat="48.10103" lon="-0.31845">
        <ele>145.64</ele>
        <time>2021-09-02T12:46:25.220Z</time>
      </trkpt>
      <trkpt lat="48.10103" lon="-0.31845">
        <ele>145.64</ele>
        <time>2021-09-02T12:47:19.910Z</time>
      </trkpt>
      <trkpt lat="48.1009" lon="-0.31679">
        <ele>141.04</ele>
        <time>2021-09-02T12:48:14.618Z</time>
      </trkpt>
      <trkpt lat="48.1009" lon="-0.31679">
        <ele>141.04</ele>
        <time>2021-09-02T12:49:09.326Z</time>
      </trkpt>
      <trkpt lat="48.10076" lon="-0.31611">
        <ele>138.56</ele>
        <time>2021-09-02T12:50:04.042Z</time>
      </trkpt>
      <trkpt lat="48.10076" lon="-0.31611">
        <ele>138.56</ele>
        <time>2021-09-02T12:50:58.758Z</time>
      </trkpt>
      <trkpt lat="48.10072" lon="-0.31567">
        <ele>137</ele>
        <time>2021-09-02T12:51:53.479Z</time>
      </trkpt>
      <trkpt lat="48.10072" lon="-0.31567">
        <ele>137</ele>
        <time>2021-09-02T12:52:48.200Z</time>
      </trkpt>
      <trkpt lat="48.10069" lon="-0.31401">
        <ele>132.62</ele>
        <time>2021-09-02T12:53:42.939Z</time>
      </trkpt>
      <trkpt lat="48.10069" lon="-0.31401">
        <ele>132.62</ele>
        <time>2021-09-02T12:54:37.678Z</time>
      </trkpt>
      <trkpt lat="48.10066" lon="-0.31346">
        <ele>131.55</ele>
        <time>2021-09-02T12:55:32.422Z</time>
      </trkpt>
      <trkpt lat="48.10066" lon="-0.31346">
        <ele>131.55</ele>
        <time>2021-09-02T12:56:27.166Z</time>
      </trkpt>
      <trkpt lat="48.10053" lon="-0.31237">
        <ele>130.05</ele>
        <time>2021-09-02T12:57:21.922Z</time>
      </trkpt>
      <trkpt lat="48.10053" lon="-0.31237">
        <ele>130.05</ele>
        <time>2021-09-02T12:58:16.678Z</time>
      </trkpt>
      <trkpt lat="48.10039" lon="-0.31167">
        <ele>129.69</ele>
        <time>2021-09-02T12:59:11.442Z</time>
      </trkpt>
      <trkpt lat="48.10039" lon="-0.31167">
        <ele>129.69</ele>
        <time>2021-09-02T13:00:06.206Z</time>
      </trkpt>
      <trkpt lat="48.09989" lon="-0.30966">
        <ele>128.54</ele>
        <time>2021-09-02T13:01:00.993Z</time>
      </trkpt>
      <trkpt lat="48.09989" lon="-0.30966">
        <ele>128.54</ele>
        <time>2021-09-02T13:01:55.780Z</time>
      </trkpt>
      <trkpt lat="48.09977" lon="-0.30888">
        <ele>128.22</ele>
        <time>2021-09-02T13:02:50.576Z</time>
      </trkpt>
      <trkpt lat="48.09977" lon="-0.30888">
        <ele>128.22</ele>
        <time>2021-09-02T13:03:45.372Z</time>
      </trkpt>
      <trkpt lat="48.09962" lon="-0.30768">
        <ele>127.84</ele>
        <time>2021-09-02T13:04:40.181Z</time>
      </trkpt>
      <trkpt lat="48.09962" lon="-0.30768">
        <ele>127.84</ele>
        <time>2021-09-02T13:05:34.990Z</time>
      </trkpt>
      <trkpt lat="48.09941" lon="-0.30645">
        <ele>129.27</ele>
        <time>2021-09-02T13:06:29.812Z</time>
      </trkpt>
      <trkpt lat="48.09941" lon="-0.30645">
        <ele>129.27</ele>
        <time>2021-09-02T13:07:24.634Z</time>
      </trkpt>
      <trkpt lat="48.09935" lon="-0.30549">
        <ele>130.96</ele>
        <time>2021-09-02T13:08:19.467Z</time>
      </trkpt>
      <trkpt lat="48.09935" lon="-0.30549">
        <ele>130.96</ele>
        <time>2021-09-02T13:09:14.300Z</time>
      </trkpt>
      <trkpt lat="48.09936" lon="-0.30479">
        <ele>132.58</ele>
        <time>2021-09-02T13:10:09.140Z</time>
      </trkpt>
      <trkpt lat="48.09936" lon="-0.30479">
        <ele>132.58</ele>
        <time>2021-09-02T13:11:03.980Z</time>
      </trkpt>
      <trkpt lat="48.09943" lon="-0.30408">
        <ele>134.66</ele>
        <time>2021-09-02T13:11:58.828Z</time>
      </trkpt>
      <trkpt lat="48.09943" lon="-0.30408">
        <ele>134.66</ele>
        <time>2021-09-02T13:12:53.676Z</time>
      </trkpt>
      <trkpt lat="48.09944" lon="-0.30362">
        <ele>135.83</ele>
        <time>2021-09-02T13:13:48.529Z</time>
      </trkpt>
      <trkpt lat="48.09944" lon="-0.30362">
        <ele>135.83</ele>
        <time>2021-09-02T13:14:43.382Z</time>
      </trkpt>
      <trkpt lat="48.09932" lon="-0.30222">
        <ele>141.89</ele>
        <time>2021-09-02T13:15:38.250Z</time>
      </trkpt>
      <trkpt lat="48.09932" lon="-0.30222">
        <ele>141.89</ele>
        <time>2021-09-02T13:16:33.118Z</time>
      </trkpt>
      <trkpt lat="48.09922" lon="-0.30167">
        <ele>147.17</ele>
        <time>2021-09-02T13:17:27.992Z</time>
      </trkpt>
      <trkpt lat="48.09922" lon="-0.30167">
        <ele>147.17</ele>
        <time>2021-09-02T13:18:22.866Z</time>
      </trkpt>
      <trkpt lat="48.09903" lon="-0.30107">
        <ele>148.12</ele>
        <time>2021-09-02T13:19:17.747Z</time>
      </trkpt>
      <trkpt lat="48.09903" lon="-0.30107">
        <ele>148.12</ele>
        <time>2021-09-02T13:20:12.628Z</time>
      </trkpt>
      <trkpt lat="48.0989" lon="-0.30023">
        <ele>151.77</ele>
        <time>2021-09-02T13:21:07.519Z</time>
      </trkpt>
      <trkpt lat="48.0989" lon="-0.30023">
        <ele>151.77</ele>
        <time>2021-09-02T13:22:02.410Z</time>
      </trkpt>
      <trkpt lat="48.09877" lon="-0.29918">
        <ele>156.84</ele>
        <time>2021-09-02T13:22:57.312Z</time>
      </trkpt>
      <trkpt lat="48.09877" lon="-0.29918">
        <ele>156.84</ele>
        <time>2021-09-02T13:23:52.214Z</time>
      </trkpt>
      <trkpt lat="48.09873" lon="-0.29862">
        <ele>161.43</ele>
        <time>2021-09-02T13:24:47.122Z</time>
      </trkpt>
      <trkpt lat="48.09873" lon="-0.29862">
        <ele>161.43</ele>
        <time>2021-09-02T13:25:42.030Z</time>
      </trkpt>
      <trkpt lat="48.09876" lon="-0.297">
        <ele>170.59</ele>
        <time>2021-09-02T13:26:36.955Z</time>
      </trkpt>
      <trkpt lat="48.09876" lon="-0.297">
        <ele>170.59</ele>
        <time>2021-09-02T13:27:31.880Z</time>
      </trkpt>
      <trkpt lat="48.09884" lon="-0.29607">
        <ele>174.71</ele>
        <time>2021-09-02T13:28:26.815Z</time>
      </trkpt>
      <trkpt lat="48.09884" lon="-0.29607">
        <ele>174.71</ele>
        <time>2021-09-02T13:29:21.750Z</time>
      </trkpt>
      <trkpt lat="48.09882" lon="-0.29574">
        <ele>175.41</ele>
        <time>2021-09-02T13:30:16.689Z</time>
      </trkpt>
      <trkpt lat="48.09882" lon="-0.29574">
        <ele>175.41</ele>
        <time>2021-09-02T13:31:11.628Z</time>
      </trkpt>
      <trkpt lat="48.09909" lon="-0.29374">
        <ele>182.26</ele>
        <time>2021-09-02T13:32:06.589Z</time>
      </trkpt>
      <trkpt lat="48.09909" lon="-0.29374">
        <ele>182.26</ele>
        <time>2021-09-02T13:33:01.550Z</time>
      </trkpt>
      <trkpt lat="48.09912" lon="-0.29334">
        <ele>182.84</ele>
        <time>2021-09-02T13:33:56.515Z</time>
      </trkpt>
      <trkpt lat="48.09912" lon="-0.29334">
        <ele>182.84</ele>
        <time>2021-09-02T13:34:51.480Z</time>
      </trkpt>
      <trkpt lat="48.09902" lon="-0.29164">
        <ele>185.89</ele>
        <time>2021-09-02T13:35:46.464Z</time>
      </trkpt>
      <trkpt lat="48.09902" lon="-0.29164">
        <ele>185.89</ele>
        <time>2021-09-02T13:36:41.448Z</time>
      </trkpt>
      <trkpt lat="48.09907" lon="-0.29019">
        <ele>186.05</ele>
        <time>2021-09-02T13:37:36.447Z</time>
      </trkpt>
      <trkpt lat="48.09907" lon="-0.29019">
        <ele>186.05</ele>
        <time>2021-09-02T13:38:31.446Z</time>
      </trkpt>
      <trkpt lat="48.09906" lon="-0.28948">
        <ele>185.63</ele>
        <time>2021-09-02T13:39:26.453Z</time>
      </trkpt>
      <trkpt lat="48.09906" lon="-0.28948">
        <ele>185.63</ele>
        <time>2021-09-02T13:40:21.460Z</time>
      </trkpt>
      <trkpt lat="48.09899" lon="-0.28841">
        <ele>184.49</ele>
        <time>2021-09-02T13:41:16.478Z</time>
      </trkpt>
      <trkpt lat="48.09899" lon="-0.28841">
        <ele>184.49</ele>
        <time>2021-09-02T13:42:11.496Z</time>
      </trkpt>
      <trkpt lat="48.0989" lon="-0.28787">
        <ele>183.13</ele>
        <time>2021-09-02T13:43:06.520Z</time>
      </trkpt>
      <trkpt lat="48.0989" lon="-0.28787">
        <ele>183.13</ele>
        <time>2021-09-02T13:44:01.544Z</time>
      </trkpt>
      <trkpt lat="48.0987" lon="-0.28701">
        <ele>181.17</ele>
        <time>2021-09-02T13:44:56.578Z</time>
      </trkpt>
      <trkpt lat="48.0987" lon="-0.28701">
        <ele>181.17</ele>
        <time>2021-09-02T13:45:51.612Z</time>
      </trkpt>
      <trkpt lat="48.09799" lon="-0.28431">
        <ele>179.6</ele>
        <time>2021-09-02T13:46:46.677Z</time>
      </trkpt>
      <trkpt lat="48.09799" lon="-0.28431">
        <ele>179.6</ele>
        <time>2021-09-02T13:47:41.742Z</time>
      </trkpt>
      <trkpt lat="48.09752" lon="-0.28265">
        <ele>180.6</ele>
        <time>2021-09-02T13:48:36.826Z</time>
      </trkpt>
      <trkpt lat="48.09752" lon="-0.28265">
        <ele>180.6</ele>
        <time>2021-09-02T13:49:31.910Z</time>
      </trkpt>
      <trkpt lat="48.09695" lon="-0.28119">
        <ele>181.8</ele>
        <time>2021-09-02T13:50:27.013Z</time>
      </trkpt>
      <trkpt lat="48.09695" lon="-0.28119">
        <ele>181.8</ele>
        <time>2021-09-02T13:51:22.116Z</time>
      </trkpt>
      <trkpt lat="48.09669" lon="-0.28035">
        <ele>182.68</ele>
        <time>2021-09-02T13:52:17.228Z</time>
      </trkpt>
      <trkpt lat="48.09669" lon="-0.28035">
        <ele>182.68</ele>
        <time>2021-09-02T13:53:12.340Z</time>
      </trkpt>
      <trkpt lat="48.09616" lon="-0.27896">
        <ele>182.4</ele>
        <time>2021-09-02T13:54:07.470Z</time>
      </trkpt>
      <trkpt lat="48.09616" lon="-0.27896">
        <ele>182.4</ele>
        <time>2021-09-02T13:55:02.600Z</time>
      </trkpt>
      <trkpt lat="48.09601" lon="-0.27835">
        <ele>182.18</ele>
        <time>2021-09-02T13:55:57.737Z</time>
      </trkpt>
      <trkpt lat="48.09601" lon="-0.27835">
        <ele>182.18</ele>
        <time>2021-09-02T13:56:52.874Z</time>
      </trkpt>
      <trkpt lat="48.09592" lon="-0.27757">
        <ele>181.08</ele>
        <time>2021-09-02T13:57:48.019Z</time>
      </trkpt>
      <trkpt lat="48.09592" lon="-0.27757">
        <ele>181.08</ele>
        <time>2021-09-02T13:58:43.164Z</time>
      </trkpt>
      <trkpt lat="48.09582" lon="-0.27549">
        <ele>177.36</ele>
        <time>2021-09-02T13:59:38.331Z</time>
      </trkpt>
      <trkpt lat="48.09582" lon="-0.27549">
        <ele>177.36</ele>
        <time>2021-09-02T14:00:33.498Z</time>
      </trkpt>
      <trkpt lat="48.09588" lon="-0.2742">
        <ele>172.08</ele>
        <time>2021-09-02T14:01:28.679Z</time>
      </trkpt>
      <trkpt lat="48.09588" lon="-0.2742">
        <ele>172.08</ele>
        <time>2021-09-02T14:02:23.860Z</time>
      </trkpt>
      <trkpt lat="48.09588" lon="-0.27275">
        <ele>163.7</ele>
        <time>2021-09-02T14:03:19.057Z</time>
      </trkpt>
      <trkpt lat="48.09588" lon="-0.27275">
        <ele>163.7</ele>
        <time>2021-09-02T14:04:14.254Z</time>
      </trkpt>
      <trkpt lat="48.09584" lon="-0.2722">
        <ele>161.55</ele>
        <time>2021-09-02T14:05:09.457Z</time>
      </trkpt>
      <trkpt lat="48.09584" lon="-0.2722">
        <ele>161.55</ele>
        <time>2021-09-02T14:06:04.660Z</time>
      </trkpt>
      <trkpt lat="48.09583" lon="-0.27136">
        <ele>160.43</ele>
        <time>2021-09-02T14:06:59.872Z</time>
      </trkpt>
      <trkpt lat="48.09583" lon="-0.27136">
        <ele>160.43</ele>
        <time>2021-09-02T14:07:55.084Z</time>
      </trkpt>
      <trkpt lat="48.09585" lon="-0.27088">
        <ele>159.74</ele>
        <time>2021-09-02T14:08:50.301Z</time>
      </trkpt>
      <trkpt lat="48.09585" lon="-0.27088">
        <ele>159.74</ele>
        <time>2021-09-02T14:09:45.518Z</time>
      </trkpt>
      <trkpt lat="48.0959" lon="-0.27067">
        <ele>159.52</ele>
        <time>2021-09-02T14:10:40.737Z</time>
      </trkpt>
      <trkpt lat="48.0959" lon="-0.27067">
        <ele>159.52</ele>
        <time>2021-09-02T14:11:35.956Z</time>
      </trkpt>
      <trkpt lat="48.09599" lon="-0.27048">
        <ele>159.2</ele>
        <time>2021-09-02T14:12:31.178Z</time>
      </trkpt>
      <trkpt lat="48.09599" lon="-0.27048">
        <ele>159.2</ele>
        <time>2021-09-02T14:13:26.400Z</time>
      </trkpt>
      <trkpt lat="48.09635" lon="-0.27014">
        <ele>160.55</ele>
        <time>2021-09-02T14:14:21.629Z</time>
      </trkpt>
      <trkpt lat="48.09635" lon="-0.27014">
        <ele>160.55</ele>
        <time>2021-09-02T14:15:16.858Z</time>
      </trkpt>
      <trkpt lat="48.09653" lon="-0.26986">
        <ele>160.92</ele>
        <time>2021-09-02T14:16:12.091Z</time>
      </trkpt>
      <trkpt lat="48.09653" lon="-0.26986">
        <ele>160.92</ele>
        <time>2021-09-02T14:17:07.324Z</time>
      </trkpt>
      <trkpt lat="48.09665" lon="-0.26941">
        <ele>161.62</ele>
        <time>2021-09-02T14:18:02.562Z</time>
      </trkpt>
      <trkpt lat="48.09665" lon="-0.26941">
        <ele>161.62</ele>
        <time>2021-09-02T14:18:57.800Z</time>
      </trkpt>
      <trkpt lat="48.09674" lon="-0.26904">
        <ele>162.19</ele>
        <time>2021-09-02T14:19:53.042Z</time>
      </trkpt>
      <trkpt lat="48.09674" lon="-0.26904">
        <ele>162.19</ele>
        <time>2021-09-02T14:20:48.284Z</time>
      </trkpt>
      <trkpt lat="48.09737" lon="-0.26513">
        <ele>166.75</ele>
        <time>2021-09-02T14:21:43.569Z</time>
      </trkpt>
      <trkpt lat="48.09737" lon="-0.26513">
        <ele>166.75</ele>
        <time>2021-09-02T14:22:38.854Z</time>
      </trkpt>
      <trkpt lat="48.09764" lon="-0.26437">
        <ele>165.21</ele>
        <time>2021-09-02T14:23:34.149Z</time>
      </trkpt>
      <trkpt lat="48.09764" lon="-0.26437">
        <ele>165.21</ele>
        <time>2021-09-02T14:24:29.444Z</time>
      </trkpt>
      <trkpt lat="48.09816" lon="-0.26311">
        <ele>163.73</ele>
        <time>2021-09-02T14:25:24.755Z</time>
      </trkpt>
      <trkpt lat="48.09816" lon="-0.26311">
        <ele>163.73</ele>
        <time>2021-09-02T14:26:20.066Z</time>
      </trkpt>
      <trkpt lat="48.09827" lon="-0.26269">
        <ele>163.57</ele>
        <time>2021-09-02T14:27:15.381Z</time>
      </trkpt>
      <trkpt lat="48.09827" lon="-0.26269">
        <ele>163.57</ele>
        <time>2021-09-02T14:28:10.696Z</time>
      </trkpt>
      <trkpt lat="48.09829" lon="-0.26255">
        <ele>163.18</ele>
        <time>2021-09-02T14:29:06.013Z</time>
      </trkpt>
      <trkpt lat="48.09829" lon="-0.26255">
        <ele>163.18</ele>
        <time>2021-09-02T14:30:01.330Z</time>
      </trkpt>
      <trkpt lat="48.09827" lon="-0.26183">
        <ele>162.93</ele>
        <time>2021-09-02T14:30:56.655Z</time>
      </trkpt>
      <trkpt lat="48.09827" lon="-0.26183">
        <ele>162.93</ele>
        <time>2021-09-02T14:31:51.980Z</time>
      </trkpt>
      <trkpt lat="48.0983" lon="-0.26173">
        <ele>162.63</ele>
        <time>2021-09-02T14:32:47.306Z</time>
      </trkpt>
      <trkpt lat="48.0983" lon="-0.26173">
        <ele>162.63</ele>
        <time>2021-09-02T14:33:42.632Z</time>
      </trkpt>
      <trkpt lat="48.09836" lon="-0.2617">
        <ele>162.63</ele>
        <time>2021-09-02T14:34:37.959Z</time>
      </trkpt>
      <trkpt lat="48.09836" lon="-0.2617">
        <ele>162.63</ele>
        <time>2021-09-02T14:35:33.286Z</time>
      </trkpt>
      <trkpt lat="48.09893" lon="-0.26181">
        <ele>160.98</ele>
        <time>2021-09-02T14:36:28.622Z</time>
      </trkpt>
      <trkpt lat="48.09893" lon="-0.26181">
        <ele>160.98</ele>
        <time>2021-09-02T14:37:23.958Z</time>
      </trkpt>
      <trkpt lat="48.09909" lon="-0.26178">
        <ele>160.39</ele>
        <time>2021-09-02T14:38:19.297Z</time>
      </trkpt>
      <trkpt lat="48.09909" lon="-0.26178">
        <ele>160.39</ele>
        <time>2021-09-02T14:39:14.636Z</time>
      </trkpt>
      <trkpt lat="48.09924" lon="-0.26167">
        <ele>159.18</ele>
        <time>2021-09-02T14:40:09.977Z</time>
      </trkpt>
      <trkpt lat="48.09924" lon="-0.26167">
        <ele>159.18</ele>
        <time>2021-09-02T14:41:05.318Z</time>
      </trkpt>
      <trkpt lat="48.09936" lon="-0.26149">
        <ele>158.51</ele>
        <time>2021-09-02T14:42:00.662Z</time>
      </trkpt>
      <trkpt lat="48.09936" lon="-0.26149">
        <ele>158.51</ele>
        <time>2021-09-02T14:42:56.006Z</time>
      </trkpt>
      <trkpt lat="48.09942" lon="-0.26138">
        <ele>158.03</ele>
        <time>2021-09-02T14:43:51.352Z</time>
      </trkpt>
      <trkpt lat="48.09942" lon="-0.26138">
        <ele>158.03</ele>
        <time>2021-09-02T14:44:46.698Z</time>
      </trkpt>
      <trkpt lat="48.09944" lon="-0.2612">
        <ele>157.51</ele>
        <time>2021-09-02T14:45:42.045Z</time>
      </trkpt>
      <trkpt lat="48.09944" lon="-0.2612">
        <ele>157.51</ele>
        <time>2021-09-02T14:46:37.392Z</time>
      </trkpt>
      <trkpt lat="48.09938" lon="-0.2602">
        <ele>152.51</ele>
        <time>2021-09-02T14:47:32.750Z</time>
      </trkpt>
      <trkpt lat="48.09938" lon="-0.2602">
        <ele>152.51</ele>
        <time>2021-09-02T14:48:28.108Z</time>
      </trkpt>
      <trkpt lat="48.09926" lon="-0.25921">
        <ele>147.76</ele>
        <time>2021-09-02T14:49:23.477Z</time>
      </trkpt>
      <trkpt lat="48.09926" lon="-0.25921">
        <ele>147.76</ele>
        <time>2021-09-02T14:50:18.846Z</time>
      </trkpt>
      <trkpt lat="48.09893" lon="-0.25694">
        <ele>139.39</ele>
        <time>2021-09-02T14:51:14.240Z</time>
      </trkpt>
      <trkpt lat="48.09893" lon="-0.25694">
        <ele>139.39</ele>
        <time>2021-09-02T14:52:09.634Z</time>
      </trkpt>
      <trkpt lat="48.09867" lon="-0.25579">
        <ele>138.09</ele>
        <time>2021-09-02T14:53:05.041Z</time>
      </trkpt>
      <trkpt lat="48.09867" lon="-0.25579">
        <ele>138.09</ele>
        <time>2021-09-02T14:54:00.448Z</time>
      </trkpt>
      <trkpt lat="48.09832" lon="-0.25477">
        <ele>137.91</ele>
        <time>2021-09-02T14:54:55.867Z</time>
      </trkpt>
      <trkpt lat="48.09832" lon="-0.25477">
        <ele>137.91</ele>
        <time>2021-09-02T14:55:51.286Z</time>
      </trkpt>
      <trkpt lat="48.09815" lon="-0.25433">
        <ele>138.72</ele>
        <time>2021-09-02T14:56:46.711Z</time>
      </trkpt>
      <trkpt lat="48.09815" lon="-0.25433">
        <ele>138.72</ele>
        <time>2021-09-02T14:57:42.136Z</time>
      </trkpt>
      <trkpt lat="48.09713" lon="-0.25216">
        <ele>141.45</ele>
        <time>2021-09-02T14:58:37.589Z</time>
      </trkpt>
      <trkpt lat="48.09713" lon="-0.25216">
        <ele>141.45</ele>
        <time>2021-09-02T14:59:33.042Z</time>
      </trkpt>
      <trkpt lat="48.09325" lon="-0.24193">
        <ele>155.44</ele>
        <time>2021-09-02T15:00:28.621Z</time>
      </trkpt>
      <trkpt lat="48.09325" lon="-0.24193">
        <ele>155.44</ele>
        <time>2021-09-02T15:01:24.200Z</time>
      </trkpt>
      <trkpt lat="48.09311" lon="-0.24144">
        <ele>155.28</ele>
        <time>2021-09-02T15:02:19.785Z</time>
      </trkpt>
      <trkpt lat="48.09311" lon="-0.24144">
        <ele>155.28</ele>
        <time>2021-09-02T15:03:15.370Z</time>
      </trkpt>
      <trkpt lat="48.09302" lon="-0.24088">
        <ele>154.86</ele>
        <time>2021-09-02T15:04:10.961Z</time>
      </trkpt>
      <trkpt lat="48.09302" lon="-0.24088">
        <ele>154.86</ele>
        <time>2021-09-02T15:05:06.552Z</time>
      </trkpt>
      <trkpt lat="48.09279" lon="-0.23885">
        <ele>154.24</ele>
        <time>2021-09-02T15:06:02.165Z</time>
      </trkpt>
      <trkpt lat="48.09279" lon="-0.23885">
        <ele>154.24</ele>
        <time>2021-09-02T15:06:57.778Z</time>
      </trkpt>
      <trkpt lat="48.09272" lon="-0.23805">
        <ele>154.41</ele>
        <time>2021-09-02T15:07:53.400Z</time>
      </trkpt>
      <trkpt lat="48.09272" lon="-0.23805">
        <ele>154.41</ele>
        <time>2021-09-02T15:08:49.022Z</time>
      </trkpt>
      <trkpt lat="48.09272" lon="-0.23766">
        <ele>154.67</ele>
        <time>2021-09-02T15:09:44.648Z</time>
      </trkpt>
      <trkpt lat="48.09272" lon="-0.23766">
        <ele>154.67</ele>
        <time>2021-09-02T15:10:40.274Z</time>
      </trkpt>
      <trkpt lat="48.09277" lon="-0.23738">
        <ele>155.05</ele>
        <time>2021-09-02T15:11:35.903Z</time>
      </trkpt>
      <trkpt lat="48.09277" lon="-0.23738">
        <ele>155.05</ele>
        <time>2021-09-02T15:12:31.532Z</time>
      </trkpt>
      <trkpt lat="48.09288" lon="-0.23699">
        <ele>155.85</ele>
        <time>2021-09-02T15:13:27.166Z</time>
      </trkpt>
      <trkpt lat="48.09288" lon="-0.23699">
        <ele>155.85</ele>
        <time>2021-09-02T15:14:22.800Z</time>
      </trkpt>
      <trkpt lat="48.09326" lon="-0.23605">
        <ele>156.95</ele>
        <time>2021-09-02T15:15:18.445Z</time>
      </trkpt>
      <trkpt lat="48.09326" lon="-0.23605">
        <ele>156.95</ele>
        <time>2021-09-02T15:16:14.090Z</time>
      </trkpt>
      <trkpt lat="48.09335" lon="-0.23569">
        <ele>157.06</ele>
        <time>2021-09-02T15:17:09.740Z</time>
      </trkpt>
      <trkpt lat="48.09335" lon="-0.23569">
        <ele>157.06</ele>
        <time>2021-09-02T15:18:05.390Z</time>
      </trkpt>
      <trkpt lat="48.09337" lon="-0.23536">
        <ele>156.97</ele>
        <time>2021-09-02T15:19:01.043Z</time>
      </trkpt>
      <trkpt lat="48.09337" lon="-0.23536">
        <ele>156.97</ele>
        <time>2021-09-02T15:19:56.696Z</time>
      </trkpt>
      <trkpt lat="48.09335" lon="-0.23502">
        <ele>157.11</ele>
        <time>2021-09-02T15:20:52.353Z</time>
      </trkpt>
      <trkpt lat="48.09335" lon="-0.23502">
        <ele>157.11</ele>
        <time>2021-09-02T15:21:48.010Z</time>
      </trkpt>
      <trkpt lat="48.09321" lon="-0.23341">
        <ele>157.68</ele>
        <time>2021-09-02T15:22:43.684Z</time>
      </trkpt>
      <trkpt lat="48.09321" lon="-0.23341">
        <ele>157.68</ele>
        <time>2021-09-02T15:23:39.358Z</time>
      </trkpt>
      <trkpt lat="48.09323" lon="-0.23294">
        <ele>157.53</ele>
        <time>2021-09-02T15:24:35.037Z</time>
      </trkpt>
      <trkpt lat="48.09323" lon="-0.23294">
        <ele>157.53</ele>
        <time>2021-09-02T15:25:30.716Z</time>
      </trkpt>
      <trkpt lat="48.09329" lon="-0.23258">
        <ele>157.21</ele>
        <time>2021-09-02T15:26:26.399Z</time>
      </trkpt>
      <trkpt lat="48.09329" lon="-0.23258">
        <ele>157.21</ele>
        <time>2021-09-02T15:27:22.082Z</time>
      </trkpt>
      <trkpt lat="48.09409" lon="-0.2289">
        <ele>151.96</ele>
        <time>2021-09-02T15:28:17.807Z</time>
      </trkpt>
      <trkpt lat="48.09409" lon="-0.2289">
        <ele>151.96</ele>
        <time>2021-09-02T15:29:13.532Z</time>
      </trkpt>
      <trkpt lat="48.09441" lon="-0.22734">
        <ele>150.37</ele>
        <time>2021-09-02T15:30:09.274Z</time>
      </trkpt>
      <trkpt lat="48.09441" lon="-0.22734">
        <ele>150.37</ele>
        <time>2021-09-02T15:31:05.016Z</time>
      </trkpt>
      <trkpt lat="48.09448" lon="-0.22661">
        <ele>149.28</ele>
        <time>2021-09-02T15:32:00.766Z</time>
      </trkpt>
      <trkpt lat="48.09448" lon="-0.22661">
        <ele>149.28</ele>
        <time>2021-09-02T15:32:56.516Z</time>
      </trkpt>
      <trkpt lat="48.09453" lon="-0.22584">
        <ele>147.58</ele>
        <time>2021-09-02T15:33:52.274Z</time>
      </trkpt>
      <trkpt lat="48.09453" lon="-0.22584">
        <ele>147.58</ele>
        <time>2021-09-02T15:34:48.032Z</time>
      </trkpt>
      <trkpt lat="48.09441" lon="-0.22242">
        <ele>152.45</ele>
        <time>2021-09-02T15:35:43.827Z</time>
      </trkpt>
      <trkpt lat="48.09441" lon="-0.22242">
        <ele>152.45</ele>
        <time>2021-09-02T15:36:39.622Z</time>
      </trkpt>
      <trkpt lat="48.09399" lon="-0.21254">
        <ele>150.29</ele>
        <time>2021-09-02T15:37:35.523Z</time>
      </trkpt>
      <trkpt lat="48.09399" lon="-0.21254">
        <ele>150.29</ele>
        <time>2021-09-02T15:38:31.424Z</time>
      </trkpt>
      <trkpt lat="48.09392" lon="-0.21187">
        <ele>148.71</ele>
        <time>2021-09-02T15:39:27.333Z</time>
      </trkpt>
      <trkpt lat="48.09392" lon="-0.21187">
        <ele>148.71</ele>
        <time>2021-09-02T15:40:23.242Z</time>
      </trkpt>
      <trkpt lat="48.09381" lon="-0.21102">
        <ele>146.76</ele>
        <time>2021-09-02T15:41:19.160Z</time>
      </trkpt>
      <trkpt lat="48.09381" lon="-0.21102">
        <ele>146.76</ele>
        <time>2021-09-02T15:42:15.078Z</time>
      </trkpt>
      <trkpt lat="48.09355" lon="-0.20974">
        <ele>144.64</ele>
        <time>2021-09-02T15:43:11.010Z</time>
      </trkpt>
      <trkpt lat="48.09355" lon="-0.20974">
        <ele>144.64</ele>
        <time>2021-09-02T15:44:06.942Z</time>
      </trkpt>
      <trkpt lat="48.09358" lon="-0.2093">
        <ele>142.89</ele>
        <time>2021-09-02T15:45:02.879Z</time>
      </trkpt>
      <trkpt lat="48.09358" lon="-0.2093">
        <ele>142.89</ele>
        <time>2021-09-02T15:45:58.816Z</time>
      </trkpt>
      <trkpt lat="48.09365" lon="-0.20869">
        <ele>141.92</ele>
        <time>2021-09-02T15:46:54.760Z</time>
      </trkpt>
      <trkpt lat="48.09365" lon="-0.20869">
        <ele>141.92</ele>
        <time>2021-09-02T15:47:50.704Z</time>
      </trkpt>
      <trkpt lat="48.09376" lon="-0.20832">
        <ele>140.62</ele>
        <time>2021-09-02T15:48:46.652Z</time>
      </trkpt>
      <trkpt lat="48.09376" lon="-0.20832">
        <ele>140.62</ele>
        <time>2021-09-02T15:49:42.600Z</time>
      </trkpt>
      <trkpt lat="48.09391" lon="-0.20797">
        <ele>139.8</ele>
        <time>2021-09-02T15:50:38.552Z</time>
      </trkpt>
      <trkpt lat="48.09391" lon="-0.20797">
        <ele>139.8</ele>
        <time>2021-09-02T15:51:34.504Z</time>
      </trkpt>
      <trkpt lat="48.09402" lon="-0.2075">
        <ele>139.68</ele>
        <time>2021-09-02T15:52:30.462Z</time>
      </trkpt>
      <trkpt lat="48.09402" lon="-0.2075">
        <ele>139.68</ele>
        <time>2021-09-02T15:53:26.420Z</time>
      </trkpt>
      <trkpt lat="48.09413" lon="-0.20682">
        <ele>140.65</ele>
        <time>2021-09-02T15:54:22.385Z</time>
      </trkpt>
      <trkpt lat="48.09413" lon="-0.20682">
        <ele>140.65</ele>
        <time>2021-09-02T15:55:18.350Z</time>
      </trkpt>
      <trkpt lat="48.09414" lon="-0.20644">
        <ele>141.92</ele>
        <time>2021-09-02T15:56:14.319Z</time>
      </trkpt>
      <trkpt lat="48.09414" lon="-0.20644">
        <ele>141.92</ele>
        <time>2021-09-02T15:57:10.288Z</time>
      </trkpt>
      <trkpt lat="48.09412" lon="-0.20607">
        <ele>142.88</ele>
        <time>2021-09-02T15:58:06.261Z</time>
      </trkpt>
      <trkpt lat="48.09412" lon="-0.20607">
        <ele>142.88</ele>
        <time>2021-09-02T15:59:02.234Z</time>
      </trkpt>
      <trkpt lat="48.09391" lon="-0.2048">
        <ele>145.75</ele>
        <time>2021-09-02T15:59:58.221Z</time>
      </trkpt>
      <trkpt lat="48.09391" lon="-0.2048">
        <ele>145.75</ele>
        <time>2021-09-02T16:00:54.208Z</time>
      </trkpt>
      <trkpt lat="48.0937" lon="-0.20424">
        <ele>146.63</ele>
        <time>2021-09-02T16:01:50.202Z</time>
      </trkpt>
      <trkpt lat="48.0937" lon="-0.20424">
        <ele>146.63</ele>
        <time>2021-09-02T16:02:46.196Z</time>
      </trkpt>
      <trkpt lat="48.09357" lon="-0.20378">
        <ele>146.91</ele>
        <time>2021-09-02T16:03:42.196Z</time>
      </trkpt>
      <trkpt lat="48.09357" lon="-0.20378">
        <ele>146.91</ele>
        <time>2021-09-02T16:04:38.196Z</time>
      </trkpt>
      <trkpt lat="48.09319" lon="-0.2008">
        <ele>148.36</ele>
        <time>2021-09-02T16:05:34.228Z</time>
      </trkpt>
      <trkpt lat="48.09319" lon="-0.2008">
        <ele>148.36</ele>
        <time>2021-09-02T16:06:30.260Z</time>
      </trkpt>
      <trkpt lat="48.0932" lon="-0.20028">
        <ele>148.32</ele>
        <time>2021-09-02T16:07:26.298Z</time>
      </trkpt>
      <trkpt lat="48.0932" lon="-0.20028">
        <ele>148.32</ele>
        <time>2021-09-02T16:08:22.336Z</time>
      </trkpt>
      <trkpt lat="48.09339" lon="-0.19955">
        <ele>147.92</ele>
        <time>2021-09-02T16:09:18.382Z</time>
      </trkpt>
      <trkpt lat="48.09339" lon="-0.19955">
        <ele>147.92</ele>
        <time>2021-09-02T16:10:14.428Z</time>
      </trkpt>
      <trkpt lat="48.09359" lon="-0.19891">
        <ele>147.55</ele>
        <time>2021-09-02T16:11:10.482Z</time>
      </trkpt>
      <trkpt lat="48.09359" lon="-0.19891">
        <ele>147.55</ele>
        <time>2021-09-02T16:12:06.536Z</time>
      </trkpt>
      <trkpt lat="48.09365" lon="-0.19864">
        <ele>147.37</ele>
        <time>2021-09-02T16:13:02.593Z</time>
      </trkpt>
      <trkpt lat="48.09365" lon="-0.19864">
        <ele>147.37</ele>
        <time>2021-09-02T16:13:58.650Z</time>
      </trkpt>
      <trkpt lat="48.09367" lon="-0.19836">
        <ele>146.4</ele>
        <time>2021-09-02T16:14:54.710Z</time>
      </trkpt>
      <trkpt lat="48.09367" lon="-0.19836">
        <ele>146.4</ele>
        <time>2021-09-02T16:15:50.770Z</time>
      </trkpt>
      <trkpt lat="48.09361" lon="-0.19783">
        <ele>145.84</ele>
        <time>2021-09-02T16:16:46.836Z</time>
      </trkpt>
      <trkpt lat="48.09361" lon="-0.19783">
        <ele>145.84</ele>
        <time>2021-09-02T16:17:42.902Z</time>
      </trkpt>
      <trkpt lat="48.09343" lon="-0.19722">
        <ele>145.52</ele>
        <time>2021-09-02T16:18:38.975Z</time>
      </trkpt>
      <trkpt lat="48.09343" lon="-0.19722">
        <ele>145.52</ele>
        <time>2021-09-02T16:19:35.048Z</time>
      </trkpt>
      <trkpt lat="48.09274" lon="-0.19528">
        <ele>143.04</ele>
        <time>2021-09-02T16:20:31.144Z</time>
      </trkpt>
      <trkpt lat="48.09274" lon="-0.19528">
        <ele>143.04</ele>
        <time>2021-09-02T16:21:27.240Z</time>
      </trkpt>
      <trkpt lat="48.09268" lon="-0.19506">
        <ele>142.31</ele>
        <time>2021-09-02T16:22:23.339Z</time>
      </trkpt>
      <trkpt lat="48.09268" lon="-0.19506">
        <ele>142.31</ele>
        <time>2021-09-02T16:23:19.438Z</time>
      </trkpt>
      <trkpt lat="48.09265" lon="-0.19475">
        <ele>141.34</ele>
        <time>2021-09-02T16:24:15.540Z</time>
      </trkpt>
      <trkpt lat="48.09265" lon="-0.19475">
        <ele>141.34</ele>
        <time>2021-09-02T16:25:11.642Z</time>
      </trkpt>
      <trkpt lat="48.09257" lon="-0.1945">
        <ele>140.77</ele>
        <time>2021-09-02T16:26:07.747Z</time>
      </trkpt>
      <trkpt lat="48.09257" lon="-0.1945">
        <ele>140.77</ele>
        <time>2021-09-02T16:27:03.852Z</time>
      </trkpt>
      <trkpt lat="48.09252" lon="-0.1944">
        <ele>140.45</ele>
        <time>2021-09-02T16:27:59.959Z</time>
      </trkpt>
      <trkpt lat="48.09252" lon="-0.1944">
        <ele>140.45</ele>
        <time>2021-09-02T16:28:56.066Z</time>
      </trkpt>
      <trkpt lat="48.09234" lon="-0.1942">
        <ele>140.09</ele>
        <time>2021-09-02T16:29:52.176Z</time>
      </trkpt>
      <trkpt lat="48.09234" lon="-0.1942">
        <ele>140.09</ele>
        <time>2021-09-02T16:30:48.286Z</time>
      </trkpt>
      <trkpt lat="48.09199" lon="-0.19351">
        <ele>137.88</ele>
        <time>2021-09-02T16:31:44.405Z</time>
      </trkpt>
      <trkpt lat="48.09199" lon="-0.19351">
        <ele>137.88</ele>
        <time>2021-09-02T16:32:40.524Z</time>
      </trkpt>
      <trkpt lat="48.09132" lon="-0.19198">
        <ele>136.56</ele>
        <time>2021-09-02T16:33:36.663Z</time>
      </trkpt>
      <trkpt lat="48.09132" lon="-0.19198">
        <ele>136.56</ele>
        <time>2021-09-02T16:34:32.802Z</time>
      </trkpt>
      <trkpt lat="48.0912" lon="-0.19148">
        <ele>136.56</ele>
        <time>2021-09-02T16:35:28.947Z</time>
      </trkpt>
      <trkpt lat="48.0912" lon="-0.19148">
        <ele>136.56</ele>
        <time>2021-09-02T16:36:25.092Z</time>
      </trkpt>
      <trkpt lat="48.09114" lon="-0.19087">
        <ele>134.67</ele>
        <time>2021-09-02T16:37:21.243Z</time>
      </trkpt>
      <trkpt lat="48.09114" lon="-0.19087">
        <ele>134.67</ele>
        <time>2021-09-02T16:38:17.394Z</time>
      </trkpt>
      <trkpt lat="48.09116" lon="-0.19007">
        <ele>133.88</ele>
        <time>2021-09-02T16:39:13.554Z</time>
      </trkpt>
      <trkpt lat="48.09116" lon="-0.19007">
        <ele>133.88</ele>
        <time>2021-09-02T16:40:09.714Z</time>
      </trkpt>
      <trkpt lat="48.09109" lon="-0.18932">
        <ele>133.43</ele>
        <time>2021-09-02T16:41:05.882Z</time>
      </trkpt>
      <trkpt lat="48.09109" lon="-0.18932">
        <ele>133.43</ele>
        <time>2021-09-02T16:42:02.050Z</time>
      </trkpt>
      <trkpt lat="48.09098" lon="-0.18884">
        <ele>132.85</ele>
        <time>2021-09-02T16:42:58.223Z</time>
      </trkpt>
      <trkpt lat="48.09098" lon="-0.18884">
        <ele>132.85</ele>
        <time>2021-09-02T16:43:54.396Z</time>
      </trkpt>
      <trkpt lat="48.09078" lon="-0.18829">
        <ele>130.95</ele>
        <time>2021-09-02T16:44:50.576Z</time>
      </trkpt>
      <trkpt lat="48.09078" lon="-0.18829">
        <ele>130.95</ele>
        <time>2021-09-02T16:45:46.756Z</time>
      </trkpt>
      <trkpt lat="48.0906" lon="-0.18798">
        <ele>130.63</ele>
        <time>2021-09-02T16:46:42.941Z</time>
      </trkpt>
      <trkpt lat="48.0906" lon="-0.18798">
        <ele>130.63</ele>
        <time>2021-09-02T16:47:39.126Z</time>
      </trkpt>
      <trkpt lat="48.09034" lon="-0.18765">
        <ele>130.16</ele>
        <time>2021-09-02T16:48:35.316Z</time>
      </trkpt>
      <trkpt lat="48.09034" lon="-0.18765">
        <ele>130.16</ele>
        <time>2021-09-02T16:49:31.506Z</time>
      </trkpt>
      <trkpt lat="48.09007" lon="-0.18737">
        <ele>129.95</ele>
        <time>2021-09-02T16:50:27.701Z</time>
      </trkpt>
      <trkpt lat="48.09007" lon="-0.18737">
        <ele>129.95</ele>
        <time>2021-09-02T16:51:23.896Z</time>
      </trkpt>
      <trkpt lat="48.08967" lon="-0.1871">
        <ele>129.05</ele>
        <time>2021-09-02T16:52:20.098Z</time>
      </trkpt>
      <trkpt lat="48.08967" lon="-0.1871">
        <ele>129.05</ele>
        <time>2021-09-02T16:53:16.300Z</time>
      </trkpt>
      <trkpt lat="48.08891" lon="-0.18673">
        <ele>126.6</ele>
        <time>2021-09-02T16:54:12.515Z</time>
      </trkpt>
      <trkpt lat="48.08891" lon="-0.18673">
        <ele>126.6</ele>
        <time>2021-09-02T16:55:08.730Z</time>
      </trkpt>
      <trkpt lat="48.08867" lon="-0.18651">
        <ele>125.85</ele>
        <time>2021-09-02T16:56:04.950Z</time>
      </trkpt>
      <trkpt lat="48.08867" lon="-0.18651">
        <ele>125.85</ele>
        <time>2021-09-02T16:57:01.170Z</time>
      </trkpt>
      <trkpt lat="48.08828" lon="-0.18601">
        <ele>125.59</ele>
        <time>2021-09-02T16:57:57.398Z</time>
      </trkpt>
      <trkpt lat="48.08828" lon="-0.18601">
        <ele>125.59</ele>
        <time>2021-09-02T16:58:53.626Z</time>
      </trkpt>
      <trkpt lat="48.08774" lon="-0.18554">
        <ele>125.83</ele>
        <time>2021-09-02T16:59:49.864Z</time>
      </trkpt>
      <trkpt lat="48.08774" lon="-0.18554">
        <ele>125.83</ele>
        <time>2021-09-02T17:00:46.102Z</time>
      </trkpt>
      <trkpt lat="48.0873" lon="-0.18509">
        <ele>126.64</ele>
        <time>2021-09-02T17:01:42.348Z</time>
      </trkpt>
      <trkpt lat="48.0873" lon="-0.18509">
        <ele>126.64</ele>
        <time>2021-09-02T17:02:38.594Z</time>
      </trkpt>
      <trkpt lat="48.08703" lon="-0.18474">
        <ele>126.62</ele>
        <time>2021-09-02T17:03:34.846Z</time>
      </trkpt>
      <trkpt lat="48.08703" lon="-0.18474">
        <ele>126.62</ele>
        <time>2021-09-02T17:04:31.098Z</time>
      </trkpt>
      <trkpt lat="48.08663" lon="-0.1841">
        <ele>126.34</ele>
        <time>2021-09-02T17:05:27.360Z</time>
      </trkpt>
      <trkpt lat="48.08663" lon="-0.1841">
        <ele>126.34</ele>
        <time>2021-09-02T17:06:23.622Z</time>
      </trkpt>
      <trkpt lat="48.08588" lon="-0.18268">
        <ele>127.72</ele>
        <time>2021-09-02T17:07:19.903Z</time>
      </trkpt>
      <trkpt lat="48.08588" lon="-0.18268">
        <ele>127.72</ele>
        <time>2021-09-02T17:08:16.184Z</time>
      </trkpt>
      <trkpt lat="48.08554" lon="-0.18223">
        <ele>128.6</ele>
        <time>2021-09-02T17:09:12.472Z</time>
      </trkpt>
      <trkpt lat="48.08554" lon="-0.18223">
        <ele>128.6</ele>
        <time>2021-09-02T17:10:08.760Z</time>
      </trkpt>
      <trkpt lat="48.08534" lon="-0.18205">
        <ele>128.85</ele>
        <time>2021-09-02T17:11:05.052Z</time>
      </trkpt>
      <trkpt lat="48.08534" lon="-0.18205">
        <ele>128.85</ele>
        <time>2021-09-02T17:12:01.344Z</time>
      </trkpt>
      <trkpt lat="48.08135" lon="-0.17901">
        <ele>140.07</ele>
        <time>2021-09-02T17:12:57.708Z</time>
      </trkpt>
      <trkpt lat="48.08135" lon="-0.17901">
        <ele>140.07</ele>
        <time>2021-09-02T17:13:54.072Z</time>
      </trkpt>
      <trkpt lat="48.08112" lon="-0.17872">
        <ele>139.55</ele>
        <time>2021-09-02T17:14:50.441Z</time>
      </trkpt>
      <trkpt lat="48.08112" lon="-0.17872">
        <ele>139.55</ele>
        <time>2021-09-02T17:15:46.810Z</time>
      </trkpt>
      <trkpt lat="48.08091" lon="-0.17841">
        <ele>138.98</ele>
        <time>2021-09-02T17:16:43.183Z</time>
      </trkpt>
      <trkpt lat="48.08091" lon="-0.17841">
        <ele>138.98</ele>
        <time>2021-09-02T17:17:39.556Z</time>
      </trkpt>
      <trkpt lat="48.08063" lon="-0.17786">
        <ele>138.52</ele>
        <time>2021-09-02T17:18:35.937Z</time>
      </trkpt>
      <trkpt lat="48.08063" lon="-0.17786">
        <ele>138.52</ele>
        <time>2021-09-02T17:19:32.318Z</time>
      </trkpt>
      <trkpt lat="48.08049" lon="-0.17743">
        <ele>138.31</ele>
        <time>2021-09-02T17:20:28.704Z</time>
      </trkpt>
      <trkpt lat="48.08049" lon="-0.17743">
        <ele>138.31</ele>
        <time>2021-09-02T17:21:25.090Z</time>
      </trkpt>
      <trkpt lat="48.0804" lon="-0.17703">
        <ele>137.94</ele>
        <time>2021-09-02T17:22:21.480Z</time>
      </trkpt>
      <trkpt lat="48.0804" lon="-0.17703">
        <ele>137.94</ele>
        <time>2021-09-02T17:23:17.870Z</time>
      </trkpt>
      <trkpt lat="48.08025" lon="-0.1759">
        <ele>137.4</ele>
        <time>2021-09-02T17:24:14.273Z</time>
      </trkpt>
      <trkpt lat="48.08025" lon="-0.1759">
        <ele>137.4</ele>
        <time>2021-09-02T17:25:10.676Z</time>
      </trkpt>
      <trkpt lat="48.08022" lon="-0.17516">
        <ele>135.91</ele>
        <time>2021-09-02T17:26:07.087Z</time>
      </trkpt>
      <trkpt lat="48.08022" lon="-0.17516">
        <ele>135.91</ele>
        <time>2021-09-02T17:27:03.498Z</time>
      </trkpt>
      <trkpt lat="48.08032" lon="-0.16985">
        <ele>130.51</ele>
        <time>2021-09-02T17:27:59.966Z</time>
      </trkpt>
      <trkpt lat="48.08032" lon="-0.16985">
        <ele>130.51</ele>
        <time>2021-09-02T17:28:56.434Z</time>
      </trkpt>
      <trkpt lat="48.08053" lon="-0.15695">
        <ele>141.31</ele>
        <time>2021-09-02T17:29:53.040Z</time>
      </trkpt>
      <trkpt lat="48.08053" lon="-0.15695">
        <ele>141.31</ele>
        <time>2021-09-02T17:30:49.646Z</time>
      </trkpt>
      <trkpt lat="48.08058" lon="-0.15317">
        <ele>149.25</ele>
        <time>2021-09-02T17:31:46.293Z</time>
      </trkpt>
      <trkpt lat="48.08058" lon="-0.15317">
        <ele>149.25</ele>
        <time>2021-09-02T17:32:42.940Z</time>
      </trkpt>
      <trkpt lat="48.0806" lon="-0.15045">
        <ele>144.53</ele>
        <time>2021-09-02T17:33:39.616Z</time>
      </trkpt>
      <trkpt lat="48.0806" lon="-0.15045">
        <ele>144.53</ele>
        <time>2021-09-02T17:34:36.292Z</time>
      </trkpt>
      <trkpt lat="48.08056" lon="-0.14984">
        <ele>142.41</ele>
        <time>2021-09-02T17:35:32.974Z</time>
      </trkpt>
      <trkpt lat="48.08056" lon="-0.14984">
        <ele>142.41</ele>
        <time>2021-09-02T17:36:29.656Z</time>
      </trkpt>
      <trkpt lat="48.0805" lon="-0.14926">
        <ele>141.46</ele>
        <time>2021-09-02T17:37:26.345Z</time>
      </trkpt>
      <trkpt lat="48.0805" lon="-0.14926">
        <ele>141.46</ele>
        <time>2021-09-02T17:38:23.034Z</time>
      </trkpt>
      <trkpt lat="48.08024" lon="-0.14796">
        <ele>139.67</ele>
        <time>2021-09-02T17:39:19.737Z</time>
      </trkpt>
      <trkpt lat="48.08024" lon="-0.14796">
        <ele>139.67</ele>
        <time>2021-09-02T17:40:16.440Z</time>
      </trkpt>
      <trkpt lat="48.0797" lon="-0.14582">
        <ele>138.83</ele>
        <time>2021-09-02T17:41:13.168Z</time>
      </trkpt>
      <trkpt lat="48.0797" lon="-0.14582">
        <ele>138.83</ele>
        <time>2021-09-02T17:42:09.896Z</time>
      </trkpt>
      <trkpt lat="48.07955" lon="-0.14499">
        <ele>139.06</ele>
        <time>2021-09-02T17:43:06.633Z</time>
      </trkpt>
      <trkpt lat="48.07955" lon="-0.14499">
        <ele>139.06</ele>
        <time>2021-09-02T17:44:03.370Z</time>
      </trkpt>
      <trkpt lat="48.0795" lon="-0.14457">
        <ele>139.08</ele>
        <time>2021-09-02T17:45:00.112Z</time>
      </trkpt>
      <trkpt lat="48.0795" lon="-0.14457">
        <ele>139.08</ele>
        <time>2021-09-02T17:45:56.854Z</time>
      </trkpt>
      <trkpt lat="48.07948" lon="-0.14404">
        <ele>139.43</ele>
        <time>2021-09-02T17:46:53.601Z</time>
      </trkpt>
      <trkpt lat="48.07948" lon="-0.14404">
        <ele>139.43</ele>
        <time>2021-09-02T17:47:50.348Z</time>
      </trkpt>
      <trkpt lat="48.07949" lon="-0.14135">
        <ele>140.55</ele>
        <time>2021-09-02T17:48:47.124Z</time>
      </trkpt>
      <trkpt lat="48.07949" lon="-0.14135">
        <ele>140.55</ele>
        <time>2021-09-02T17:49:43.900Z</time>
      </trkpt>
      <trkpt lat="48.07966" lon="-0.13782">
        <ele>135.98</ele>
        <time>2021-09-02T17:50:40.714Z</time>
      </trkpt>
      <trkpt lat="48.07966" lon="-0.13782">
        <ele>135.98</ele>
        <time>2021-09-02T17:51:37.528Z</time>
      </trkpt>
      <trkpt lat="48.07965" lon="-0.13738">
        <ele>135.77</ele>
        <time>2021-09-02T17:52:34.347Z</time>
      </trkpt>
      <trkpt lat="48.07965" lon="-0.13738">
        <ele>135.77</ele>
        <time>2021-09-02T17:53:31.166Z</time>
      </trkpt>
      <trkpt lat="48.07949" lon="-0.13447">
        <ele>137.33</ele>
        <time>2021-09-02T17:54:28.016Z</time>
      </trkpt>
      <trkpt lat="48.07949" lon="-0.13447">
        <ele>137.33</ele>
        <time>2021-09-02T17:55:24.866Z</time>
      </trkpt>
      <trkpt lat="48.07948" lon="-0.13322">
        <ele>139.87</ele>
        <time>2021-09-02T17:56:21.730Z</time>
      </trkpt>
      <trkpt lat="48.07948" lon="-0.13322">
        <ele>139.87</ele>
        <time>2021-09-02T17:57:18.594Z</time>
      </trkpt>
      <trkpt lat="48.07957" lon="-0.12975">
        <ele>139.58</ele>
        <time>2021-09-02T17:58:15.495Z</time>
      </trkpt>
      <trkpt lat="48.07957" lon="-0.12975">
        <ele>139.58</ele>
        <time>2021-09-02T17:59:12.396Z</time>
      </trkpt>
      <trkpt lat="48.07962" lon="-0.12907">
        <ele>139.24</ele>
        <time>2021-09-02T18:00:09.304Z</time>
      </trkpt>
      <trkpt lat="48.07962" lon="-0.12907">
        <ele>139.24</ele>
        <time>2021-09-02T18:01:06.212Z</time>
      </trkpt>
      <trkpt lat="48.07985" lon="-0.1275">
        <ele>140.26</ele>
        <time>2021-09-02T18:02:03.137Z</time>
      </trkpt>
      <trkpt lat="48.07985" lon="-0.1275">
        <ele>140.26</ele>
        <time>2021-09-02T18:03:00.062Z</time>
      </trkpt>
      <trkpt lat="48.0799" lon="-0.12681">
        <ele>141.02</ele>
        <time>2021-09-02T18:03:56.995Z</time>
      </trkpt>
      <trkpt lat="48.0799" lon="-0.12681">
        <ele>141.02</ele>
        <time>2021-09-02T18:04:53.928Z</time>
      </trkpt>
      <trkpt lat="48.07991" lon="-0.12597">
        <ele>141.6</ele>
        <time>2021-09-02T18:05:50.870Z</time>
      </trkpt>
      <trkpt lat="48.07991" lon="-0.12597">
        <ele>141.6</ele>
        <time>2021-09-02T18:06:47.812Z</time>
      </trkpt>
      <trkpt lat="48.07984" lon="-0.12506">
        <ele>140.32</ele>
        <time>2021-09-02T18:07:44.764Z</time>
      </trkpt>
      <trkpt lat="48.07984" lon="-0.12506">
        <ele>140.32</ele>
        <time>2021-09-02T18:08:41.716Z</time>
      </trkpt>
      <trkpt lat="48.0797" lon="-0.12437">
        <ele>139.67</ele>
        <time>2021-09-02T18:09:38.675Z</time>
      </trkpt>
      <trkpt lat="48.0797" lon="-0.12437">
        <ele>139.67</ele>
        <time>2021-09-02T18:10:35.634Z</time>
      </trkpt>
      <trkpt lat="48.07958" lon="-0.124">
        <ele>139.08</ele>
        <time>2021-09-02T18:11:32.598Z</time>
      </trkpt>
      <trkpt lat="48.07958" lon="-0.124">
        <ele>139.08</ele>
        <time>2021-09-02T18:12:29.562Z</time>
      </trkpt>
      <trkpt lat="48.07932" lon="-0.12341">
        <ele>138.05</ele>
        <time>2021-09-02T18:13:26.533Z</time>
      </trkpt>
      <trkpt lat="48.07932" lon="-0.12341">
        <ele>138.05</ele>
        <time>2021-09-02T18:14:23.504Z</time>
      </trkpt>
      <trkpt lat="48.07732" lon="-0.1204">
        <ele>134.88</ele>
        <time>2021-09-02T18:15:20.521Z</time>
      </trkpt>
      <trkpt lat="48.07732" lon="-0.1204">
        <ele>134.88</ele>
        <time>2021-09-02T18:16:17.538Z</time>
      </trkpt>
      <trkpt lat="48.07595" lon="-0.11875">
        <ele>130.27</ele>
        <time>2021-09-02T18:17:14.583Z</time>
      </trkpt>
      <trkpt lat="48.07595" lon="-0.11875">
        <ele>130.27</ele>
        <time>2021-09-02T18:18:11.628Z</time>
      </trkpt>
      <trkpt lat="48.0757" lon="-0.11854">
        <ele>129.53</ele>
        <time>2021-09-02T18:19:08.678Z</time>
      </trkpt>
      <trkpt lat="48.0757" lon="-0.11854">
        <ele>129.53</ele>
        <time>2021-09-02T18:20:05.728Z</time>
      </trkpt>
      <trkpt lat="48.07552" lon="-0.11847">
        <ele>129.53</ele>
        <time>2021-09-02T18:21:02.781Z</time>
      </trkpt>
      <trkpt lat="48.07552" lon="-0.11847">
        <ele>129.53</ele>
        <time>2021-09-02T18:21:59.834Z</time>
      </trkpt>
      <trkpt lat="48.07479" lon="-0.11825">
        <ele>128</ele>
        <time>2021-09-02T18:22:56.899Z</time>
      </trkpt>
      <trkpt lat="48.07479" lon="-0.11825">
        <ele>128</ele>
        <time>2021-09-02T18:23:53.964Z</time>
      </trkpt>
      <trkpt lat="48.07461" lon="-0.11812">
        <ele>128</ele>
        <time>2021-09-02T18:24:51.032Z</time>
      </trkpt>
      <trkpt lat="48.07461" lon="-0.11812">
        <ele>128</ele>
        <time>2021-09-02T18:25:48.100Z</time>
      </trkpt>
      <trkpt lat="48.07324" lon="-0.11659">
        <ele>126.51</ele>
        <time>2021-09-02T18:26:45.195Z</time>
      </trkpt>
      <trkpt lat="48.07324" lon="-0.11659">
        <ele>126.51</ele>
        <time>2021-09-02T18:27:42.290Z</time>
      </trkpt>
      <trkpt lat="48.07301" lon="-0.11632">
        <ele>126.55</ele>
        <time>2021-09-02T18:28:39.390Z</time>
      </trkpt>
      <trkpt lat="48.07301" lon="-0.11632">
        <ele>126.55</ele>
        <time>2021-09-02T18:29:36.490Z</time>
      </trkpt>
      <trkpt lat="48.07289" lon="-0.11615">
        <ele>126.52</ele>
        <time>2021-09-02T18:30:33.593Z</time>
      </trkpt>
      <trkpt lat="48.07289" lon="-0.11615">
        <ele>126.52</ele>
        <time>2021-09-02T18:31:30.696Z</time>
      </trkpt>
      <trkpt lat="48.07241" lon="-0.11503">
        <ele>124.08</ele>
        <time>2021-09-02T18:32:27.813Z</time>
      </trkpt>
      <trkpt lat="48.07241" lon="-0.11503">
        <ele>124.08</ele>
        <time>2021-09-02T18:33:24.930Z</time>
      </trkpt>
      <trkpt lat="48.07212" lon="-0.1144">
        <ele>121.97</ele>
        <time>2021-09-02T18:34:22.055Z</time>
      </trkpt>
      <trkpt lat="48.07212" lon="-0.1144">
        <ele>121.97</ele>
        <time>2021-09-02T18:35:19.180Z</time>
      </trkpt>
      <trkpt lat="48.07203" lon="-0.11414">
        <ele>121.97</ele>
        <time>2021-09-02T18:36:16.308Z</time>
      </trkpt>
      <trkpt lat="48.07203" lon="-0.11414">
        <ele>121.97</ele>
        <time>2021-09-02T18:37:13.436Z</time>
      </trkpt>
      <trkpt lat="48.07198" lon="-0.11369">
        <ele>120.96</ele>
        <time>2021-09-02T18:38:10.569Z</time>
      </trkpt>
      <trkpt lat="48.07198" lon="-0.11369">
        <ele>120.96</ele>
        <time>2021-09-02T18:39:07.702Z</time>
      </trkpt>
      <trkpt lat="48.07191" lon="-0.11342">
        <ele>120.65</ele>
        <time>2021-09-02T18:40:04.838Z</time>
      </trkpt>
      <trkpt lat="48.07191" lon="-0.11342">
        <ele>120.65</ele>
        <time>2021-09-02T18:41:01.974Z</time>
      </trkpt>
      <trkpt lat="48.07175" lon="-0.11299">
        <ele>120.11</ele>
        <time>2021-09-02T18:41:59.115Z</time>
      </trkpt>
      <trkpt lat="48.07175" lon="-0.11299">
        <ele>120.11</ele>
        <time>2021-09-02T18:42:56.256Z</time>
      </trkpt>
      <trkpt lat="48.07157" lon="-0.11268">
        <ele>118.34</ele>
        <time>2021-09-02T18:43:53.402Z</time>
      </trkpt>
      <trkpt lat="48.07157" lon="-0.11268">
        <ele>118.34</ele>
        <time>2021-09-02T18:44:50.548Z</time>
      </trkpt>
      <trkpt lat="48.0715" lon="-0.1125">
        <ele>118.34</ele>
        <time>2021-09-02T18:45:47.696Z</time>
      </trkpt>
      <trkpt lat="48.0715" lon="-0.1125">
        <ele>118.34</ele>
        <time>2021-09-02T18:46:44.844Z</time>
      </trkpt>
      <trkpt lat="48.07126" lon="-0.11117">
        <ele>115.5</ele>
        <time>2021-09-02T18:47:42.007Z</time>
      </trkpt>
      <trkpt lat="48.07126" lon="-0.11117">
        <ele>115.5</ele>
        <time>2021-09-02T18:48:39.170Z</time>
      </trkpt>
      <trkpt lat="48.07126" lon="-0.11095">
        <ele>115.07</ele>
        <time>2021-09-02T18:49:36.335Z</time>
      </trkpt>
      <trkpt lat="48.07126" lon="-0.11095">
        <ele>115.07</ele>
        <time>2021-09-02T18:50:33.500Z</time>
      </trkpt>
      <trkpt lat="48.07144" lon="-0.11013">
        <ele>112.85</ele>
        <time>2021-09-02T18:51:30.674Z</time>
      </trkpt>
      <trkpt lat="48.07144" lon="-0.11013">
        <ele>112.85</ele>
        <time>2021-09-02T18:52:27.848Z</time>
      </trkpt>
      <trkpt lat="48.07146" lon="-0.10998">
        <ele>112.03</ele>
        <time>2021-09-02T18:53:25.024Z</time>
      </trkpt>
      <trkpt lat="48.07146" lon="-0.10998">
        <ele>112.03</ele>
        <time>2021-09-02T18:54:22.200Z</time>
      </trkpt>
      <trkpt lat="48.07143" lon="-0.10981">
        <ele>111.51</ele>
        <time>2021-09-02T18:55:19.378Z</time>
      </trkpt>
      <trkpt lat="48.07143" lon="-0.10981">
        <ele>111.51</ele>
        <time>2021-09-02T18:56:16.556Z</time>
      </trkpt>
      <trkpt lat="48.0712" lon="-0.10874">
        <ele>109.22</ele>
        <time>2021-09-02T18:57:13.746Z</time>
      </trkpt>
      <trkpt lat="48.0712" lon="-0.10874">
        <ele>109.22</ele>
        <time>2021-09-02T18:58:10.936Z</time>
      </trkpt>
      <trkpt lat="48.07106" lon="-0.10791">
        <ele>107.5</ele>
        <time>2021-09-02T18:59:08.135Z</time>
      </trkpt>
      <trkpt lat="48.07106" lon="-0.10791">
        <ele>107.5</ele>
        <time>2021-09-02T19:00:05.334Z</time>
      </trkpt>
      <trkpt lat="48.07046" lon="-0.1036">
        <ele>103.24</ele>
        <time>2021-09-02T19:01:02.580Z</time>
      </trkpt>
      <trkpt lat="48.07046" lon="-0.1036">
        <ele>103.24</ele>
        <time>2021-09-02T19:01:59.826Z</time>
      </trkpt>
      <trkpt lat="48.07048" lon="-0.10322">
        <ele>103.3</ele>
        <time>2021-09-02T19:02:57.077Z</time>
      </trkpt>
      <trkpt lat="48.07048" lon="-0.10322">
        <ele>103.3</ele>
        <time>2021-09-02T19:03:54.328Z</time>
      </trkpt>
      <trkpt lat="48.07054" lon="-0.10276">
        <ele>103.36</ele>
        <time>2021-09-02T19:04:51.584Z</time>
      </trkpt>
      <trkpt lat="48.07054" lon="-0.10276">
        <ele>103.36</ele>
        <time>2021-09-02T19:05:48.840Z</time>
      </trkpt>
      <trkpt lat="48.07146" lon="-0.09787">
        <ele>100.74</ele>
        <time>2021-09-02T19:06:46.150Z</time>
      </trkpt>
      <trkpt lat="48.07146" lon="-0.09787">
        <ele>100.74</ele>
        <time>2021-09-02T19:07:43.460Z</time>
      </trkpt>
      <trkpt lat="48.07253" lon="-0.09201">
        <ele>103.07</ele>
        <time>2021-09-02T19:08:40.835Z</time>
      </trkpt>
      <trkpt lat="48.07253" lon="-0.09201">
        <ele>103.07</ele>
        <time>2021-09-02T19:09:38.210Z</time>
      </trkpt>
      <trkpt lat="48.07263" lon="-0.09173">
        <ele>103.36</ele>
        <time>2021-09-02T19:10:35.589Z</time>
      </trkpt>
      <trkpt lat="48.07263" lon="-0.09173">
        <ele>103.36</ele>
        <time>2021-09-02T19:11:32.968Z</time>
      </trkpt>
      <trkpt lat="48.07276" lon="-0.09155">
        <ele>104.3</ele>
        <time>2021-09-02T19:12:30.350Z</time>
      </trkpt>
      <trkpt lat="48.07276" lon="-0.09155">
        <ele>104.3</ele>
        <time>2021-09-02T19:13:27.732Z</time>
      </trkpt>
      <trkpt lat="48.07296" lon="-0.09133">
        <ele>104.87</ele>
        <time>2021-09-02T19:14:25.117Z</time>
      </trkpt>
      <trkpt lat="48.07296" lon="-0.09133">
        <ele>104.87</ele>
        <time>2021-09-02T19:15:22.502Z</time>
      </trkpt>
      <trkpt lat="48.07399" lon="-0.09048">
        <ele>105.17</ele>
        <time>2021-09-02T19:16:19.906Z</time>
      </trkpt>
      <trkpt lat="48.07399" lon="-0.09048">
        <ele>105.17</ele>
        <time>2021-09-02T19:17:17.310Z</time>
      </trkpt>
      <trkpt lat="48.07426" lon="-0.09019">
        <ele>104.73</ele>
        <time>2021-09-02T19:18:14.720Z</time>
      </trkpt>
      <trkpt lat="48.07426" lon="-0.09019">
        <ele>104.73</ele>
        <time>2021-09-02T19:19:12.130Z</time>
      </trkpt>
      <trkpt lat="48.07428" lon="-0.09013">
        <ele>104.73</ele>
        <time>2021-09-02T19:20:09.540Z</time>
      </trkpt>
      <trkpt lat="48.07428" lon="-0.09013">
        <ele>104.73</ele>
        <time>2021-09-02T19:21:06.950Z</time>
      </trkpt>
      <trkpt lat="48.07448" lon="-0.08984">
        <ele>103.94</ele>
        <time>2021-09-02T19:22:04.365Z</time>
      </trkpt>
      <trkpt lat="48.07448" lon="-0.08984">
        <ele>103.94</ele>
        <time>2021-09-02T19:23:01.780Z</time>
      </trkpt>
      <trkpt lat="48.07466" lon="-0.08911">
        <ele>103.33</ele>
        <time>2021-09-02T19:23:59.203Z</time>
      </trkpt>
      <trkpt lat="48.07466" lon="-0.08911">
        <ele>103.33</ele>
        <time>2021-09-02T19:24:56.626Z</time>
      </trkpt>
      <trkpt lat="48.07466" lon="-0.08858">
        <ele>102.92</ele>
        <time>2021-09-02T19:25:54.055Z</time>
      </trkpt>
      <trkpt lat="48.07466" lon="-0.08858">
        <ele>102.92</ele>
        <time>2021-09-02T19:26:51.484Z</time>
      </trkpt>
      <trkpt lat="48.07414" lon="-0.08329">
        <ele>108.73</ele>
        <time>2021-09-02T19:27:48.970Z</time>
      </trkpt>
      <trkpt lat="48.07414" lon="-0.08329">
        <ele>108.73</ele>
        <time>2021-09-02T19:28:46.456Z</time>
      </trkpt>
      <trkpt lat="48.07408" lon="-0.08246">
        <ele>110.93</ele>
        <time>2021-09-02T19:29:43.951Z</time>
      </trkpt>
      <trkpt lat="48.07408" lon="-0.08246">
        <ele>110.93</ele>
        <time>2021-09-02T19:30:41.446Z</time>
      </trkpt>
      <trkpt lat="48.0742" lon="-0.08057">
        <ele>108.97</ele>
        <time>2021-09-02T19:31:38.962Z</time>
      </trkpt>
      <trkpt lat="48.0742" lon="-0.08057">
        <ele>108.97</ele>
        <time>2021-09-02T19:32:36.478Z</time>
      </trkpt>
      <trkpt lat="48.07436" lon="-0.07918">
        <ele>106.59</ele>
        <time>2021-09-02T19:33:34.009Z</time>
      </trkpt>
      <trkpt lat="48.07436" lon="-0.07918">
        <ele>106.59</ele>
        <time>2021-09-02T19:34:31.540Z</time>
      </trkpt>
      <trkpt lat="48.07462" lon="-0.07753">
        <ele>100.73</ele>
        <time>2021-09-02T19:35:29.089Z</time>
      </trkpt>
      <trkpt lat="48.07462" lon="-0.07753">
        <ele>100.73</ele>
        <time>2021-09-02T19:36:26.638Z</time>
      </trkpt>
      <trkpt lat="48.07466" lon="-0.07699">
        <ele>98.88</ele>
        <time>2021-09-02T19:37:24.193Z</time>
      </trkpt>
      <trkpt lat="48.07466" lon="-0.07699">
        <ele>98.88</ele>
        <time>2021-09-02T19:38:21.748Z</time>
      </trkpt>
      <trkpt lat="48.07467" lon="-0.07635">
        <ele>96.17</ele>
        <time>2021-09-02T19:39:19.310Z</time>
      </trkpt>
      <trkpt lat="48.07467" lon="-0.07635">
        <ele>96.17</ele>
        <time>2021-09-02T19:40:16.872Z</time>
      </trkpt>
      <trkpt lat="48.07465" lon="-0.0757">
        <ele>94.52</ele>
        <time>2021-09-02T19:41:14.441Z</time>
      </trkpt>
      <trkpt lat="48.07465" lon="-0.0757">
        <ele>94.52</ele>
        <time>2021-09-02T19:42:12.010Z</time>
      </trkpt>
      <trkpt lat="48.07468" lon="-0.07495">
        <ele>93.91</ele>
        <time>2021-09-02T19:43:09.587Z</time>
      </trkpt>
      <trkpt lat="48.07468" lon="-0.07495">
        <ele>93.91</ele>
        <time>2021-09-02T19:44:07.164Z</time>
      </trkpt>
      <trkpt lat="48.07473" lon="-0.07438">
        <ele>94</ele>
        <time>2021-09-02T19:45:04.747Z</time>
      </trkpt>
      <trkpt lat="48.07473" lon="-0.07438">
        <ele>94</ele>
        <time>2021-09-02T19:46:02.330Z</time>
      </trkpt>
      <trkpt lat="48.07493" lon="-0.07284">
        <ele>94.11</ele>
        <time>2021-09-02T19:46:59.930Z</time>
      </trkpt>
      <trkpt lat="48.07493" lon="-0.07284">
        <ele>94.11</ele>
        <time>2021-09-02T19:47:57.530Z</time>
      </trkpt>
      <trkpt lat="48.07497" lon="-0.07148">
        <ele>93.05</ele>
        <time>2021-09-02T19:48:55.144Z</time>
      </trkpt>
      <trkpt lat="48.07497" lon="-0.07148">
        <ele>93.05</ele>
        <time>2021-09-02T19:49:52.758Z</time>
      </trkpt>
      <trkpt lat="48.07501" lon="-0.07126">
        <ele>92.82</ele>
        <time>2021-09-02T19:50:50.375Z</time>
      </trkpt>
      <trkpt lat="48.07501" lon="-0.07126">
        <ele>92.82</ele>
        <time>2021-09-02T19:51:47.992Z</time>
      </trkpt>
      <trkpt lat="48.07539" lon="-0.06965">
        <ele>92.11</ele>
        <time>2021-09-02T19:52:45.627Z</time>
      </trkpt>
      <trkpt lat="48.07539" lon="-0.06965">
        <ele>92.11</ele>
        <time>2021-09-02T19:53:43.262Z</time>
      </trkpt>
      <trkpt lat="48.07542" lon="-0.06927">
        <ele>91.55</ele>
        <time>2021-09-02T19:54:40.901Z</time>
      </trkpt>
      <trkpt lat="48.07542" lon="-0.06927">
        <ele>91.55</ele>
        <time>2021-09-02T19:55:38.540Z</time>
      </trkpt>
      <trkpt lat="48.07541" lon="-0.06904">
        <ele>91.1</ele>
        <time>2021-09-02T19:56:36.182Z</time>
      </trkpt>
      <trkpt lat="48.07541" lon="-0.06904">
        <ele>91.1</ele>
        <time>2021-09-02T19:57:33.824Z</time>
      </trkpt>
      <trkpt lat="48.07474" lon="-0.06543">
        <ele>83.54</ele>
        <time>2021-09-02T19:58:31.506Z</time>
      </trkpt>
      <trkpt lat="48.07474" lon="-0.06543">
        <ele>83.54</ele>
        <time>2021-09-02T19:59:29.188Z</time>
      </trkpt>
      <trkpt lat="48.07472" lon="-0.065">
        <ele>83.6</ele>
        <time>2021-09-02T20:00:26.874Z</time>
      </trkpt>
      <trkpt lat="48.07472" lon="-0.065">
        <ele>83.6</ele>
        <time>2021-09-02T20:01:24.560Z</time>
      </trkpt>
      <trkpt lat="48.07479" lon="-0.06443">
        <ele>83.81</ele>
        <time>2021-09-02T20:02:22.253Z</time>
      </trkpt>
      <trkpt lat="48.07479" lon="-0.06443">
        <ele>83.81</ele>
        <time>2021-09-02T20:03:19.946Z</time>
      </trkpt>
      <trkpt lat="48.07481" lon="-0.06407">
        <ele>84.19</ele>
        <time>2021-09-02T20:04:17.643Z</time>
      </trkpt>
      <trkpt lat="48.07481" lon="-0.06407">
        <ele>84.19</ele>
        <time>2021-09-02T20:05:15.340Z</time>
      </trkpt>
      <trkpt lat="48.07479" lon="-0.06382">
        <ele>84.19</ele>
        <time>2021-09-02T20:06:13.039Z</time>
      </trkpt>
      <trkpt lat="48.07479" lon="-0.06382">
        <ele>84.19</ele>
        <time>2021-09-02T20:07:10.738Z</time>
      </trkpt>
      <trkpt lat="48.0745" lon="-0.0625">
        <ele>85.37</ele>
        <time>2021-09-02T20:08:08.452Z</time>
      </trkpt>
      <trkpt lat="48.0745" lon="-0.0625">
        <ele>85.37</ele>
        <time>2021-09-02T20:09:06.166Z</time>
      </trkpt>
      <trkpt lat="48.07427" lon="-0.06192">
        <ele>87.58</ele>
        <time>2021-09-02T20:10:03.887Z</time>
      </trkpt>
      <trkpt lat="48.07427" lon="-0.06192">
        <ele>87.58</ele>
        <time>2021-09-02T20:11:01.608Z</time>
      </trkpt>
      <trkpt lat="48.07407" lon="-0.06151">
        <ele>88.15</ele>
        <time>2021-09-02T20:11:59.335Z</time>
      </trkpt>
      <trkpt lat="48.07407" lon="-0.06151">
        <ele>88.15</ele>
        <time>2021-09-02T20:12:57.062Z</time>
      </trkpt>
      <trkpt lat="48.07372" lon="-0.0602">
        <ele>90.77</ele>
        <time>2021-09-02T20:13:54.804Z</time>
      </trkpt>
      <trkpt lat="48.07372" lon="-0.0602">
        <ele>90.77</ele>
        <time>2021-09-02T20:14:52.546Z</time>
      </trkpt>
      <trkpt lat="48.07355" lon="-0.0598">
        <ele>90.77</ele>
        <time>2021-09-02T20:15:50.293Z</time>
      </trkpt>
      <trkpt lat="48.07355" lon="-0.0598">
        <ele>90.77</ele>
        <time>2021-09-02T20:16:48.040Z</time>
      </trkpt>
      <trkpt lat="48.07341" lon="-0.05975">
        <ele>92.78</ele>
        <time>2021-09-02T20:17:45.789Z</time>
      </trkpt>
      <trkpt lat="48.07341" lon="-0.05975">
        <ele>92.78</ele>
        <time>2021-09-02T20:18:43.538Z</time>
      </trkpt>
      <trkpt lat="48.07301" lon="-0.05936">
        <ele>93.22</ele>
        <time>2021-09-02T20:19:41.295Z</time>
      </trkpt>
      <trkpt lat="48.07301" lon="-0.05936">
        <ele>93.22</ele>
        <time>2021-09-02T20:20:39.052Z</time>
      </trkpt>
      <trkpt lat="48.07273" lon="-0.05916">
        <ele>93.92</ele>
        <time>2021-09-02T20:21:36.814Z</time>
      </trkpt>
      <trkpt lat="48.07273" lon="-0.05916">
        <ele>93.92</ele>
        <time>2021-09-02T20:22:34.576Z</time>
      </trkpt>
      <trkpt lat="48.07265" lon="-0.05904">
        <ele>93.92</ele>
        <time>2021-09-02T20:23:32.340Z</time>
      </trkpt>
      <trkpt lat="48.07265" lon="-0.05904">
        <ele>93.92</ele>
        <time>2021-09-02T20:24:30.104Z</time>
      </trkpt>
      <trkpt lat="48.07213" lon="-0.05809">
        <ele>94.33</ele>
        <time>2021-09-02T20:25:27.881Z</time>
      </trkpt>
      <trkpt lat="48.07213" lon="-0.05809">
        <ele>94.33</ele>
        <time>2021-09-02T20:26:25.658Z</time>
      </trkpt>
      <trkpt lat="48.07202" lon="-0.05777">
        <ele>94.32</ele>
        <time>2021-09-02T20:27:23.439Z</time>
      </trkpt>
      <trkpt lat="48.07202" lon="-0.05777">
        <ele>94.32</ele>
        <time>2021-09-02T20:28:21.220Z</time>
      </trkpt>
      <trkpt lat="48.07141" lon="-0.05479">
        <ele>94.34</ele>
        <time>2021-09-02T20:29:19.034Z</time>
      </trkpt>
      <trkpt lat="48.07141" lon="-0.05479">
        <ele>94.34</ele>
        <time>2021-09-02T20:30:16.848Z</time>
      </trkpt>
      <trkpt lat="48.07101" lon="-0.05322">
        <ele>94.55</ele>
        <time>2021-09-02T20:31:14.680Z</time>
      </trkpt>
      <trkpt lat="48.07101" lon="-0.05322">
        <ele>94.55</ele>
        <time>2021-09-02T20:32:12.512Z</time>
      </trkpt>
      <trkpt lat="48.07073" lon="-0.05156">
        <ele>94.53</ele>
        <time>2021-09-02T20:33:10.363Z</time>
      </trkpt>
      <trkpt lat="48.07073" lon="-0.05156">
        <ele>94.53</ele>
        <time>2021-09-02T20:34:08.214Z</time>
      </trkpt>
      <trkpt lat="48.07065" lon="-0.05056">
        <ele>93.82</ele>
        <time>2021-09-02T20:35:06.075Z</time>
      </trkpt>
      <trkpt lat="48.07065" lon="-0.05056">
        <ele>93.82</ele>
        <time>2021-09-02T20:36:03.936Z</time>
      </trkpt>
      <trkpt lat="48.07053" lon="-0.04952">
        <ele>92.55</ele>
        <time>2021-09-02T20:37:01.809Z</time>
      </trkpt>
      <trkpt lat="48.07053" lon="-0.04952">
        <ele>92.55</ele>
        <time>2021-09-02T20:37:59.682Z</time>
      </trkpt>
      <trkpt lat="48.07046" lon="-0.04912">
        <ele>92.22</ele>
        <time>2021-09-02T20:38:57.559Z</time>
      </trkpt>
      <trkpt lat="48.07046" lon="-0.04912">
        <ele>92.22</ele>
        <time>2021-09-02T20:39:55.436Z</time>
      </trkpt>
      <trkpt lat="48.06974" lon="-0.04674">
        <ele>93.5</ele>
        <time>2021-09-02T20:40:53.341Z</time>
      </trkpt>
      <trkpt lat="48.06974" lon="-0.04674">
        <ele>93.5</ele>
        <time>2021-09-02T20:41:51.246Z</time>
      </trkpt>
      <trkpt lat="48.06969" lon="-0.04644">
        <ele>94.31</ele>
        <time>2021-09-02T20:42:49.155Z</time>
      </trkpt>
      <trkpt lat="48.06969" lon="-0.04644">
        <ele>94.31</ele>
        <time>2021-09-02T20:43:47.064Z</time>
      </trkpt>
      <trkpt lat="48.06969" lon="-0.04585">
        <ele>95.24</ele>
        <time>2021-09-02T20:44:44.979Z</time>
      </trkpt>
      <trkpt lat="48.06969" lon="-0.04585">
        <ele>95.24</ele>
        <time>2021-09-02T20:45:42.894Z</time>
      </trkpt>
      <trkpt lat="48.06983" lon="-0.04448">
        <ele>98.87</ele>
        <time>2021-09-02T20:46:40.824Z</time>
      </trkpt>
      <trkpt lat="48.06983" lon="-0.04448">
        <ele>98.87</ele>
        <time>2021-09-02T20:47:38.754Z</time>
      </trkpt>
      <trkpt lat="48.0701" lon="-0.04157">
        <ele>103.49</ele>
        <time>2021-09-02T20:48:36.715Z</time>
      </trkpt>
      <trkpt lat="48.0701" lon="-0.04157">
        <ele>103.49</ele>
        <time>2021-09-02T20:49:34.676Z</time>
      </trkpt>
      <trkpt lat="48.07005" lon="-0.04107">
        <ele>104.24</ele>
        <time>2021-09-02T20:50:32.643Z</time>
      </trkpt>
      <trkpt lat="48.07005" lon="-0.04107">
        <ele>104.24</ele>
        <time>2021-09-02T20:51:30.610Z</time>
      </trkpt>
      <trkpt lat="48.06999" lon="-0.04086">
        <ele>105.16</ele>
        <time>2021-09-02T20:52:28.579Z</time>
      </trkpt>
      <trkpt lat="48.06999" lon="-0.04086">
        <ele>105.16</ele>
        <time>2021-09-02T20:53:26.548Z</time>
      </trkpt>
      <trkpt lat="48.0699" lon="-0.04068">
        <ele>105.16</ele>
        <time>2021-09-02T20:54:24.520Z</time>
      </trkpt>
      <trkpt lat="48.0699" lon="-0.04068">
        <ele>105.16</ele>
        <time>2021-09-02T20:55:22.492Z</time>
      </trkpt>
      <trkpt lat="48.06976" lon="-0.04048">
        <ele>105.58</ele>
        <time>2021-09-02T20:56:20.467Z</time>
      </trkpt>
      <trkpt lat="48.06976" lon="-0.04048">
        <ele>105.58</ele>
        <time>2021-09-02T20:57:18.442Z</time>
      </trkpt>
      <trkpt lat="48.06956" lon="-0.04025">
        <ele>106.99</ele>
        <time>2021-09-02T20:58:16.421Z</time>
      </trkpt>
      <trkpt lat="48.06956" lon="-0.04025">
        <ele>106.99</ele>
        <time>2021-09-02T20:59:14.400Z</time>
      </trkpt>
      <trkpt lat="48.06856" lon="-0.03937">
        <ele>110.18</ele>
        <time>2021-09-02T21:00:12.397Z</time>
      </trkpt>
      <trkpt lat="48.06856" lon="-0.03937">
        <ele>110.18</ele>
        <time>2021-09-02T21:01:10.394Z</time>
      </trkpt>
      <trkpt lat="48.06766" lon="-0.03882">
        <ele>111.52</ele>
        <time>2021-09-02T21:02:08.407Z</time>
      </trkpt>
      <trkpt lat="48.06766" lon="-0.03882">
        <ele>111.52</ele>
        <time>2021-09-02T21:03:06.420Z</time>
      </trkpt>
      <trkpt lat="48.06749" lon="-0.03869">
        <ele>111.79</ele>
        <time>2021-09-02T21:04:04.436Z</time>
      </trkpt>
      <trkpt lat="48.06749" lon="-0.03869">
        <ele>111.79</ele>
        <time>2021-09-02T21:05:02.452Z</time>
      </trkpt>
      <trkpt lat="48.06729" lon="-0.03846">
        <ele>112.26</ele>
        <time>2021-09-02T21:06:00.472Z</time>
      </trkpt>
      <trkpt lat="48.06729" lon="-0.03846">
        <ele>112.26</ele>
        <time>2021-09-02T21:06:58.492Z</time>
      </trkpt>
      <trkpt lat="48.06659" lon="-0.03755">
        <ele>114.14</ele>
        <time>2021-09-02T21:07:56.527Z</time>
      </trkpt>
      <trkpt lat="48.06659" lon="-0.03755">
        <ele>114.14</ele>
        <time>2021-09-02T21:08:54.562Z</time>
      </trkpt>
      <trkpt lat="48.0665" lon="-0.03738">
        <ele>114.16</ele>
        <time>2021-09-02T21:09:52.599Z</time>
      </trkpt>
      <trkpt lat="48.0665" lon="-0.03738">
        <ele>114.16</ele>
        <time>2021-09-02T21:10:50.636Z</time>
      </trkpt>
      <trkpt lat="48.06644" lon="-0.03719">
        <ele>114.11</ele>
        <time>2021-09-02T21:11:48.675Z</time>
      </trkpt>
      <trkpt lat="48.06644" lon="-0.03719">
        <ele>114.11</ele>
        <time>2021-09-02T21:12:46.714Z</time>
      </trkpt>
      <trkpt lat="48.0664" lon="-0.03694">
        <ele>113.93</ele>
        <time>2021-09-02T21:13:44.756Z</time>
      </trkpt>
      <trkpt lat="48.0664" lon="-0.03694">
        <ele>113.93</ele>
        <time>2021-09-02T21:14:42.798Z</time>
      </trkpt>
      <trkpt lat="48.06619" lon="-0.03406">
        <ele>116.31</ele>
        <time>2021-09-02T21:15:40.871Z</time>
      </trkpt>
      <trkpt lat="48.06619" lon="-0.03406">
        <ele>116.31</ele>
        <time>2021-09-02T21:16:38.944Z</time>
      </trkpt>
      <trkpt lat="48.06627" lon="-0.03157">
        <ele>119.6</ele>
        <time>2021-09-02T21:17:37.044Z</time>
      </trkpt>
      <trkpt lat="48.06627" lon="-0.03157">
        <ele>119.6</ele>
        <time>2021-09-02T21:18:35.144Z</time>
      </trkpt>
      <trkpt lat="48.06637" lon="-0.03086">
        <ele>120.43</ele>
        <time>2021-09-02T21:19:33.252Z</time>
      </trkpt>
      <trkpt lat="48.06637" lon="-0.03086">
        <ele>120.43</ele>
        <time>2021-09-02T21:20:31.360Z</time>
      </trkpt>
      <trkpt lat="48.06676" lon="-0.02873">
        <ele>124.01</ele>
        <time>2021-09-02T21:21:29.491Z</time>
      </trkpt>
      <trkpt lat="48.06676" lon="-0.02873">
        <ele>124.01</ele>
        <time>2021-09-02T21:22:27.622Z</time>
      </trkpt>
      <trkpt lat="48.0669" lon="-0.02743">
        <ele>128.23</ele>
        <time>2021-09-02T21:23:25.768Z</time>
      </trkpt>
      <trkpt lat="48.0669" lon="-0.02743">
        <ele>128.23</ele>
        <time>2021-09-02T21:24:23.914Z</time>
      </trkpt>
      <trkpt lat="48.06698" lon="-0.02689">
        <ele>130.44</ele>
        <time>2021-09-02T21:25:22.066Z</time>
      </trkpt>
      <trkpt lat="48.06698" lon="-0.02689">
        <ele>130.44</ele>
        <time>2021-09-02T21:26:20.218Z</time>
      </trkpt>
      <trkpt lat="48.06713" lon="-0.02618">
        <ele>131.4</ele>
        <time>2021-09-02T21:27:18.378Z</time>
      </trkpt>
      <trkpt lat="48.06713" lon="-0.02618">
        <ele>131.4</ele>
        <time>2021-09-02T21:28:16.538Z</time>
      </trkpt>
      <trkpt lat="48.06747" lon="-0.02488">
        <ele>134.67</ele>
        <time>2021-09-02T21:29:14.712Z</time>
      </trkpt>
      <trkpt lat="48.06747" lon="-0.02488">
        <ele>134.67</ele>
        <time>2021-09-02T21:30:12.886Z</time>
      </trkpt>
      <trkpt lat="48.06755" lon="-0.02439">
        <ele>135.31</ele>
        <time>2021-09-02T21:31:11.066Z</time>
      </trkpt>
      <trkpt lat="48.06755" lon="-0.02439">
        <ele>135.31</ele>
        <time>2021-09-02T21:32:09.246Z</time>
      </trkpt>
      <trkpt lat="48.06771" lon="-0.02296">
        <ele>135.96</ele>
        <time>2021-09-02T21:33:07.441Z</time>
      </trkpt>
      <trkpt lat="48.06771" lon="-0.02296">
        <ele>135.96</ele>
        <time>2021-09-02T21:34:05.636Z</time>
      </trkpt>
      <trkpt lat="48.06775" lon="-0.02192">
        <ele>135.98</ele>
        <time>2021-09-02T21:35:03.843Z</time>
      </trkpt>
      <trkpt lat="48.06775" lon="-0.02192">
        <ele>135.98</ele>
        <time>2021-09-02T21:36:02.050Z</time>
      </trkpt>
      <trkpt lat="48.0678" lon="-0.02148">
        <ele>136.02</ele>
        <time>2021-09-02T21:37:00.261Z</time>
      </trkpt>
      <trkpt lat="48.0678" lon="-0.02148">
        <ele>136.02</ele>
        <time>2021-09-02T21:37:58.472Z</time>
      </trkpt>
      <trkpt lat="48.06795" lon="-0.02058">
        <ele>135.21</ele>
        <time>2021-09-02T21:38:56.693Z</time>
      </trkpt>
      <trkpt lat="48.06795" lon="-0.02058">
        <ele>135.21</ele>
        <time>2021-09-02T21:39:54.914Z</time>
      </trkpt>
      <trkpt lat="48.06808" lon="-0.02007">
        <ele>134.53</ele>
        <time>2021-09-02T21:40:53.141Z</time>
      </trkpt>
      <trkpt lat="48.06808" lon="-0.02007">
        <ele>134.53</ele>
        <time>2021-09-02T21:41:51.368Z</time>
      </trkpt>
      <trkpt lat="48.06823" lon="-0.01957">
        <ele>133.75</ele>
        <time>2021-09-02T21:42:49.601Z</time>
      </trkpt>
      <trkpt lat="48.06823" lon="-0.01957">
        <ele>133.75</ele>
        <time>2021-09-02T21:43:47.834Z</time>
      </trkpt>
      <trkpt lat="48.06861" lon="-0.01862">
        <ele>133.1</ele>
        <time>2021-09-02T21:44:46.079Z</time>
      </trkpt>
      <trkpt lat="48.06861" lon="-0.01862">
        <ele>133.1</ele>
        <time>2021-09-02T21:45:44.324Z</time>
      </trkpt>
      <trkpt lat="48.06901" lon="-0.01783">
        <ele>131.95</ele>
        <time>2021-09-02T21:46:42.580Z</time>
      </trkpt>
      <trkpt lat="48.06901" lon="-0.01783">
        <ele>131.95</ele>
        <time>2021-09-02T21:47:40.836Z</time>
      </trkpt>
      <trkpt lat="48.06925" lon="-0.01719">
        <ele>130.75</ele>
        <time>2021-09-02T21:48:39.099Z</time>
      </trkpt>
      <trkpt lat="48.06925" lon="-0.01719">
        <ele>130.75</ele>
        <time>2021-09-02T21:49:37.362Z</time>
      </trkpt>
      <trkpt lat="48.06932" lon="-0.01694">
        <ele>129.98</ele>
        <time>2021-09-02T21:50:35.628Z</time>
      </trkpt>
      <trkpt lat="48.06932" lon="-0.01694">
        <ele>129.98</ele>
        <time>2021-09-02T21:51:33.894Z</time>
      </trkpt>
      <trkpt lat="48.06945" lon="-0.01633">
        <ele>129.03</ele>
        <time>2021-09-02T21:52:32.167Z</time>
      </trkpt>
      <trkpt lat="48.06945" lon="-0.01633">
        <ele>129.03</ele>
        <time>2021-09-02T21:53:30.440Z</time>
      </trkpt>
      <trkpt lat="48.06971" lon="-0.01484">
        <ele>126.41</ele>
        <time>2021-09-02T21:54:28.730Z</time>
      </trkpt>
      <trkpt lat="48.06971" lon="-0.01484">
        <ele>126.41</ele>
        <time>2021-09-02T21:55:27.020Z</time>
      </trkpt>
      <trkpt lat="48.06975" lon="-0.01411">
        <ele>125.41</ele>
        <time>2021-09-02T21:56:25.318Z</time>
      </trkpt>
      <trkpt lat="48.06975" lon="-0.01411">
        <ele>125.41</ele>
        <time>2021-09-02T21:57:23.616Z</time>
      </trkpt>
      <trkpt lat="48.06971" lon="-0.01203">
        <ele>120.99</ele>
        <time>2021-09-02T21:58:21.936Z</time>
      </trkpt>
      <trkpt lat="48.06971" lon="-0.01203">
        <ele>120.99</ele>
        <time>2021-09-02T21:59:20.256Z</time>
      </trkpt>
      <trkpt lat="48.06973" lon="-0.01151">
        <ele>119.35</ele>
        <time>2021-09-02T22:00:18.582Z</time>
      </trkpt>
      <trkpt lat="48.06973" lon="-0.01151">
        <ele>119.35</ele>
        <time>2021-09-02T22:01:16.908Z</time>
      </trkpt>
      <trkpt lat="48.06984" lon="-0.01092">
        <ele>118.25</ele>
        <time>2021-09-02T22:02:15.240Z</time>
      </trkpt>
      <trkpt lat="48.06984" lon="-0.01092">
        <ele>118.25</ele>
        <time>2021-09-02T22:03:13.572Z</time>
      </trkpt>
      <trkpt lat="48.07008" lon="-0.01016">
        <ele>115.83</ele>
        <time>2021-09-02T22:04:11.913Z</time>
      </trkpt>
      <trkpt lat="48.07008" lon="-0.01016">
        <ele>115.83</ele>
        <time>2021-09-02T22:05:10.254Z</time>
      </trkpt>
      <trkpt lat="48.07016" lon="-0.00983">
        <ele>114.89</ele>
        <time>2021-09-02T22:06:08.599Z</time>
      </trkpt>
      <trkpt lat="48.07016" lon="-0.00983">
        <ele>114.89</ele>
        <time>2021-09-02T22:07:06.944Z</time>
      </trkpt>
      <trkpt lat="48.07021" lon="-0.00928">
        <ele>113.54</ele>
        <time>2021-09-02T22:08:05.295Z</time>
      </trkpt>
      <trkpt lat="48.07021" lon="-0.00928">
        <ele>113.54</ele>
        <time>2021-09-02T22:09:03.646Z</time>
      </trkpt>
      <trkpt lat="48.07019" lon="-0.00901">
        <ele>112.86</ele>
        <time>2021-09-02T22:10:02.000Z</time>
      </trkpt>
      <trkpt lat="48.07019" lon="-0.00901">
        <ele>112.86</ele>
        <time>2021-09-02T22:11:00.354Z</time>
      </trkpt>
      <trkpt lat="48.07015" lon="-0.00872">
        <ele>111.77</ele>
        <time>2021-09-02T22:11:58.711Z</time>
      </trkpt>
      <trkpt lat="48.07015" lon="-0.00872">
        <ele>111.77</ele>
        <time>2021-09-02T22:12:57.068Z</time>
      </trkpt>
      <trkpt lat="48.0701" lon="-0.00851">
        <ele>111.39</ele>
        <time>2021-09-02T22:13:55.427Z</time>
      </trkpt>
      <trkpt lat="48.0701" lon="-0.00851">
        <ele>111.39</ele>
        <time>2021-09-02T22:14:53.786Z</time>
      </trkpt>
      <trkpt lat="48.07001" lon="-0.00825">
        <ele>110.6</ele>
        <time>2021-09-02T22:15:52.149Z</time>
      </trkpt>
      <trkpt lat="48.07001" lon="-0.00825">
        <ele>110.6</ele>
        <time>2021-09-02T22:16:50.512Z</time>
      </trkpt>
      <trkpt lat="48.06974" lon="-0.0077">
        <ele>108.01</ele>
        <time>2021-09-02T22:17:48.882Z</time>
      </trkpt>
      <trkpt lat="48.06974" lon="-0.0077">
        <ele>108.01</ele>
        <time>2021-09-02T22:18:47.252Z</time>
      </trkpt>
      <trkpt lat="48.06965" lon="-0.00744">
        <ele>108.01</ele>
        <time>2021-09-02T22:19:45.625Z</time>
      </trkpt>
      <trkpt lat="48.06965" lon="-0.00744">
        <ele>108.01</ele>
        <time>2021-09-02T22:20:43.998Z</time>
      </trkpt>
      <trkpt lat="48.06947" lon="-0.00674">
        <ele>105.39</ele>
        <time>2021-09-02T22:21:42.379Z</time>
      </trkpt>
      <trkpt lat="48.06947" lon="-0.00674">
        <ele>105.39</ele>
        <time>2021-09-02T22:22:40.760Z</time>
      </trkpt>
      <trkpt lat="48.06941" lon="-0.00627">
        <ele>105.39</ele>
        <time>2021-09-02T22:23:39.146Z</time>
      </trkpt>
      <trkpt lat="48.06941" lon="-0.00627">
        <ele>105.39</ele>
        <time>2021-09-02T22:24:37.532Z</time>
      </trkpt>
      <trkpt lat="48.06938" lon="-0.00581">
        <ele>104.43</ele>
        <time>2021-09-02T22:25:35.923Z</time>
      </trkpt>
      <trkpt lat="48.06938" lon="-0.00581">
        <ele>104.43</ele>
        <time>2021-09-02T22:26:34.314Z</time>
      </trkpt>
      <trkpt lat="48.06939" lon="-0.00538">
        <ele>102.4</ele>
        <time>2021-09-02T22:27:32.710Z</time>
      </trkpt>
      <trkpt lat="48.06939" lon="-0.00538">
        <ele>102.4</ele>
        <time>2021-09-02T22:28:31.106Z</time>
      </trkpt>
      <trkpt lat="48.06942" lon="-0.005">
        <ele>102.4</ele>
        <time>2021-09-02T22:29:29.506Z</time>
      </trkpt>
      <trkpt lat="48.06942" lon="-0.005">
        <ele>102.4</ele>
        <time>2021-09-02T22:30:27.906Z</time>
      </trkpt>
      <trkpt lat="48.0696" lon="-0.0041">
        <ele>99.74</ele>
        <time>2021-09-02T22:31:26.316Z</time>
      </trkpt>
      <trkpt lat="48.0696" lon="-0.0041">
        <ele>99.74</ele>
        <time>2021-09-02T22:32:24.726Z</time>
      </trkpt>
      <trkpt lat="48.07011" lon="-0.00273">
        <ele>94.6</ele>
        <time>2021-09-02T22:33:23.153Z</time>
      </trkpt>
      <trkpt lat="48.07011" lon="-0.00273">
        <ele>94.6</ele>
        <time>2021-09-02T22:34:21.580Z</time>
      </trkpt>
      <trkpt lat="48.07017" lon="-0.00247">
        <ele>93</ele>
        <time>2021-09-02T22:35:20.010Z</time>
      </trkpt>
      <trkpt lat="48.07017" lon="-0.00247">
        <ele>93</ele>
        <time>2021-09-02T22:36:18.440Z</time>
      </trkpt>
      <trkpt lat="48.0702" lon="-0.00193">
        <ele>92.03</ele>
        <time>2021-09-02T22:37:16.875Z</time>
      </trkpt>
      <trkpt lat="48.0702" lon="-0.00193">
        <ele>92.03</ele>
        <time>2021-09-02T22:38:15.310Z</time>
      </trkpt>
      <trkpt lat="48.07009" lon="0.0019">
        <ele>100.7</ele>
        <time>2021-09-02T22:39:13.787Z</time>
      </trkpt>
      <trkpt lat="48.07009" lon="0.0019">
        <ele>100.7</ele>
        <time>2021-09-02T22:40:12.264Z</time>
      </trkpt>
      <trkpt lat="48.07009" lon="0.00232">
        <ele>102.27</ele>
        <time>2021-09-02T22:41:10.745Z</time>
      </trkpt>
      <trkpt lat="48.07009" lon="0.00232">
        <ele>102.27</ele>
        <time>2021-09-02T22:42:09.226Z</time>
      </trkpt>
      <trkpt lat="48.07015" lon="0.00291">
        <ele>103.27</ele>
        <time>2021-09-02T22:43:07.714Z</time>
      </trkpt>
      <trkpt lat="48.07015" lon="0.00291">
        <ele>103.27</ele>
        <time>2021-09-02T22:44:06.202Z</time>
      </trkpt>
      <trkpt lat="48.07026" lon="0.0035">
        <ele>104.6</ele>
        <time>2021-09-02T22:45:04.696Z</time>
      </trkpt>
      <trkpt lat="48.07026" lon="0.0035">
        <ele>104.6</ele>
        <time>2021-09-02T22:46:03.190Z</time>
      </trkpt>
      <trkpt lat="48.07068" lon="0.00524">
        <ele>109.51</ele>
        <time>2021-09-02T22:47:01.704Z</time>
      </trkpt>
      <trkpt lat="48.07068" lon="0.00524">
        <ele>109.51</ele>
        <time>2021-09-02T22:48:00.218Z</time>
      </trkpt>
      <trkpt lat="48.07103" lon="0.00703">
        <ele>114.41</ele>
        <time>2021-09-02T22:48:58.752Z</time>
      </trkpt>
      <trkpt lat="48.07103" lon="0.00703">
        <ele>114.41</ele>
        <time>2021-09-02T22:49:57.286Z</time>
      </trkpt>
      <trkpt lat="48.07112" lon="0.00761">
        <ele>115.63</ele>
        <time>2021-09-02T22:50:55.826Z</time>
      </trkpt>
      <trkpt lat="48.07112" lon="0.00761">
        <ele>115.63</ele>
        <time>2021-09-02T22:51:54.366Z</time>
      </trkpt>
      <trkpt lat="48.07122" lon="0.00857">
        <ele>118.18</ele>
        <time>2021-09-02T22:52:52.917Z</time>
      </trkpt>
      <trkpt lat="48.07122" lon="0.00857">
        <ele>118.18</ele>
        <time>2021-09-02T22:53:51.468Z</time>
      </trkpt>
      <trkpt lat="48.07124" lon="0.00908">
        <ele>119.87</ele>
        <time>2021-09-02T22:54:50.024Z</time>
      </trkpt>
      <trkpt lat="48.07124" lon="0.00908">
        <ele>119.87</ele>
        <time>2021-09-02T22:55:48.580Z</time>
      </trkpt>
      <trkpt lat="48.07123" lon="0.0094">
        <ele>119.87</ele>
        <time>2021-09-02T22:56:47.140Z</time>
      </trkpt>
      <trkpt lat="48.07123" lon="0.0094">
        <ele>119.87</ele>
        <time>2021-09-02T22:57:45.700Z</time>
      </trkpt>
      <trkpt lat="48.07118" lon="0.00978">
        <ele>122.75</ele>
        <time>2021-09-02T22:58:44.264Z</time>
      </trkpt>
      <trkpt lat="48.07118" lon="0.00978">
        <ele>122.75</ele>
        <time>2021-09-02T22:59:42.828Z</time>
      </trkpt>
      <trkpt lat="48.07108" lon="0.01017">
        <ele>123.32</ele>
        <time>2021-09-02T23:00:41.396Z</time>
      </trkpt>
      <trkpt lat="48.07108" lon="0.01017">
        <ele>123.32</ele>
        <time>2021-09-02T23:01:39.964Z</time>
      </trkpt>
      <trkpt lat="48.07088" lon="0.01063">
        <ele>124.4</ele>
        <time>2021-09-02T23:02:38.538Z</time>
      </trkpt>
      <trkpt lat="48.07088" lon="0.01063">
        <ele>124.4</ele>
        <time>2021-09-02T23:03:37.112Z</time>
      </trkpt>
      <trkpt lat="48.06985" lon="0.01235">
        <ele>130.31</ele>
        <time>2021-09-02T23:04:35.711Z</time>
      </trkpt>
      <trkpt lat="48.06985" lon="0.01235">
        <ele>130.31</ele>
        <time>2021-09-02T23:05:34.310Z</time>
      </trkpt>
      <trkpt lat="48.06936" lon="0.01313">
        <ele>133.11</ele>
        <time>2021-09-02T23:06:32.920Z</time>
      </trkpt>
      <trkpt lat="48.06936" lon="0.01313">
        <ele>133.11</ele>
        <time>2021-09-02T23:07:31.530Z</time>
      </trkpt>
      <trkpt lat="48.06911" lon="0.01359">
        <ele>133.9</ele>
        <time>2021-09-02T23:08:30.147Z</time>
      </trkpt>
      <trkpt lat="48.06911" lon="0.01359">
        <ele>133.9</ele>
        <time>2021-09-02T23:09:28.764Z</time>
      </trkpt>
      <trkpt lat="48.06885" lon="0.01422">
        <ele>136.21</ele>
        <time>2021-09-02T23:10:27.389Z</time>
      </trkpt>
      <trkpt lat="48.06885" lon="0.01422">
        <ele>136.21</ele>
        <time>2021-09-02T23:11:26.014Z</time>
      </trkpt>
      <trkpt lat="48.06879" lon="0.01446">
        <ele>137.44</ele>
        <time>2021-09-02T23:12:24.641Z</time>
      </trkpt>
      <trkpt lat="48.06879" lon="0.01446">
        <ele>137.44</ele>
        <time>2021-09-02T23:13:23.268Z</time>
      </trkpt>
      <trkpt lat="48.06875" lon="0.01473">
        <ele>137.44</ele>
        <time>2021-09-02T23:14:21.898Z</time>
      </trkpt>
      <trkpt lat="48.06875" lon="0.01473">
        <ele>137.44</ele>
        <time>2021-09-02T23:15:20.528Z</time>
      </trkpt>
      <trkpt lat="48.06875" lon="0.015">
        <ele>139.02</ele>
        <time>2021-09-02T23:16:19.161Z</time>
      </trkpt>
      <trkpt lat="48.06875" lon="0.015">
        <ele>139.02</ele>
        <time>2021-09-02T23:17:17.794Z</time>
      </trkpt>
      <trkpt lat="48.06879" lon="0.01541">
        <ele>139.94</ele>
        <time>2021-09-02T23:18:16.432Z</time>
      </trkpt>
      <trkpt lat="48.06879" lon="0.01541">
        <ele>139.94</ele>
        <time>2021-09-02T23:19:15.070Z</time>
      </trkpt>
      <trkpt lat="48.06929" lon="0.01802">
        <ele>136.97</ele>
        <time>2021-09-02T23:20:13.737Z</time>
      </trkpt>
      <trkpt lat="48.06929" lon="0.01802">
        <ele>136.97</ele>
        <time>2021-09-02T23:21:12.404Z</time>
      </trkpt>
      <trkpt lat="48.06933" lon="0.01836">
        <ele>135.56</ele>
        <time>2021-09-02T23:22:11.075Z</time>
      </trkpt>
      <trkpt lat="48.06933" lon="0.01836">
        <ele>135.56</ele>
        <time>2021-09-02T23:23:09.746Z</time>
      </trkpt>
      <trkpt lat="48.06933" lon="0.01865">
        <ele>134.14</ele>
        <time>2021-09-02T23:24:08.420Z</time>
      </trkpt>
      <trkpt lat="48.06933" lon="0.01865">
        <ele>134.14</ele>
        <time>2021-09-02T23:25:07.094Z</time>
      </trkpt>
      <trkpt lat="48.06925" lon="0.01909">
        <ele>133.56</ele>
        <time>2021-09-02T23:26:05.773Z</time>
      </trkpt>
      <trkpt lat="48.06925" lon="0.01909">
        <ele>133.56</ele>
        <time>2021-09-02T23:27:04.452Z</time>
      </trkpt>
      <trkpt lat="48.06913" lon="0.0194">
        <ele>132.72</ele>
        <time>2021-09-02T23:28:03.134Z</time>
      </trkpt>
      <trkpt lat="48.06913" lon="0.0194">
        <ele>132.72</ele>
        <time>2021-09-02T23:29:01.816Z</time>
      </trkpt>
      <trkpt lat="48.06779" lon="0.02219">
        <ele>129.5</ele>
        <time>2021-09-02T23:30:00.535Z</time>
      </trkpt>
      <trkpt lat="48.06779" lon="0.02219">
        <ele>129.5</ele>
        <time>2021-09-02T23:30:59.254Z</time>
      </trkpt>
      <trkpt lat="48.06754" lon="0.02279">
        <ele>130.07</ele>
        <time>2021-09-02T23:31:57.981Z</time>
      </trkpt>
      <trkpt lat="48.06754" lon="0.02279">
        <ele>130.07</ele>
        <time>2021-09-02T23:32:56.708Z</time>
      </trkpt>
      <trkpt lat="48.06722" lon="0.02376">
        <ele>132.57</ele>
        <time>2021-09-02T23:33:55.447Z</time>
      </trkpt>
      <trkpt lat="48.06722" lon="0.02376">
        <ele>132.57</ele>
        <time>2021-09-02T23:34:54.186Z</time>
      </trkpt>
      <trkpt lat="48.06699" lon="0.02427">
        <ele>133.88</ele>
        <time>2021-09-02T23:35:52.931Z</time>
      </trkpt>
      <trkpt lat="48.06699" lon="0.02427">
        <ele>133.88</ele>
        <time>2021-09-02T23:36:51.676Z</time>
      </trkpt>
      <trkpt lat="48.06684" lon="0.02455">
        <ele>133.88</ele>
        <time>2021-09-02T23:37:50.425Z</time>
      </trkpt>
      <trkpt lat="48.06684" lon="0.02455">
        <ele>133.88</ele>
        <time>2021-09-02T23:38:49.174Z</time>
      </trkpt>
      <trkpt lat="48.06634" lon="0.02529">
        <ele>136.66</ele>
        <time>2021-09-02T23:39:47.934Z</time>
      </trkpt>
      <trkpt lat="48.06634" lon="0.02529">
        <ele>136.66</ele>
        <time>2021-09-02T23:40:46.694Z</time>
      </trkpt>
      <trkpt lat="48.06609" lon="0.02572">
        <ele>137.73</ele>
        <time>2021-09-02T23:41:45.460Z</time>
      </trkpt>
      <trkpt lat="48.06609" lon="0.02572">
        <ele>137.73</ele>
        <time>2021-09-02T23:42:44.226Z</time>
      </trkpt>
      <trkpt lat="48.0656" lon="0.02663">
        <ele>137.9</ele>
        <time>2021-09-02T23:43:43.005Z</time>
      </trkpt>
      <trkpt lat="48.0656" lon="0.02663">
        <ele>137.9</ele>
        <time>2021-09-02T23:44:41.784Z</time>
      </trkpt>
      <trkpt lat="48.06503" lon="0.0278">
        <ele>133.09</ele>
        <time>2021-09-02T23:45:40.578Z</time>
      </trkpt>
      <trkpt lat="48.06503" lon="0.0278">
        <ele>133.09</ele>
        <time>2021-09-02T23:46:39.372Z</time>
      </trkpt>
      <trkpt lat="48.06448" lon="0.02886">
        <ele>129.74</ele>
        <time>2021-09-02T23:47:38.181Z</time>
      </trkpt>
      <trkpt lat="48.06448" lon="0.02886">
        <ele>129.74</ele>
        <time>2021-09-02T23:48:36.990Z</time>
      </trkpt>
      <trkpt lat="48.06426" lon="0.02922">
        <ele>128.41</ele>
        <time>2021-09-02T23:49:35.804Z</time>
      </trkpt>
      <trkpt lat="48.06426" lon="0.02922">
        <ele>128.41</ele>
        <time>2021-09-02T23:50:34.618Z</time>
      </trkpt>
      <trkpt lat="48.06261" lon="0.03126">
        <ele>122.71</ele>
        <time>2021-09-02T23:51:33.466Z</time>
      </trkpt>
      <trkpt lat="48.06261" lon="0.03126">
        <ele>122.71</ele>
        <time>2021-09-02T23:52:32.314Z</time>
      </trkpt>
      <trkpt lat="48.06204" lon="0.03218">
        <ele>123.34</ele>
        <time>2021-09-02T23:53:31.176Z</time>
      </trkpt>
      <trkpt lat="48.06204" lon="0.03218">
        <ele>123.34</ele>
        <time>2021-09-02T23:54:30.038Z</time>
      </trkpt>
      <trkpt lat="48.06284" lon="0.03348">
        <ele>123.66</ele>
        <time>2021-09-02T23:55:28.919Z</time>
      </trkpt>
      <trkpt lat="48.06284" lon="0.03348">
        <ele>123.66</ele>
        <time>2021-09-02T23:56:27.800Z</time>
      </trkpt>
      <trkpt lat="48.06312" lon="0.03423">
        <ele>125.59</ele>
        <time>2021-09-02T23:57:26.690Z</time>
      </trkpt>
      <trkpt lat="48.06312" lon="0.03423">
        <ele>125.59</ele>
        <time>2021-09-02T23:58:25.580Z</time>
      </trkpt>
      <trkpt lat="48.06329" lon="0.03458">
        <ele>126.27</ele>
        <time>2021-09-02T23:59:24.475Z</time>
      </trkpt>
      <trkpt lat="48.06329" lon="0.03458">
        <ele>126.27</ele>
        <time>2021-09-03T00:00:23.370Z</time>
      </trkpt>
      <trkpt lat="48.06346" lon="0.03415">
        <ele>127.17</ele>
        <time>2021-09-03T00:01:22.270Z</time>
      </trkpt>
      <trkpt lat="48.06346" lon="0.03415">
        <ele>127.17</ele>
        <time>2021-09-03T00:02:21.170Z</time>
      </trkpt>
      <trkpt lat="48.06358" lon="0.03392">
        <ele>128.03</ele>
        <time>2021-09-03T00:03:20.073Z</time>
      </trkpt>
      <trkpt lat="48.06358" lon="0.03392">
        <ele>128.03</ele>
        <time>2021-09-03T00:04:18.976Z</time>
      </trkpt>
      <trkpt lat="48.06375" lon="0.03366">
        <ele>128.42</ele>
        <time>2021-09-03T00:05:17.883Z</time>
      </trkpt>
      <trkpt lat="48.06375" lon="0.03366">
        <ele>128.42</ele>
        <time>2021-09-03T00:06:16.790Z</time>
      </trkpt>
      <trkpt lat="48.0642" lon="0.03313">
        <ele>132.51</ele>
        <time>2021-09-03T00:07:15.706Z</time>
      </trkpt>
      <trkpt lat="48.0642" lon="0.03313">
        <ele>132.51</ele>
        <time>2021-09-03T00:08:14.622Z</time>
      </trkpt>
      <trkpt lat="48.06436" lon="0.03289">
        <ele>134.16</ele>
        <time>2021-09-03T00:09:13.542Z</time>
      </trkpt>
      <trkpt lat="48.06436" lon="0.03289">
        <ele>134.16</ele>
        <time>2021-09-03T00:10:12.462Z</time>
      </trkpt>
      <trkpt lat="48.06452" lon="0.03258">
        <ele>135.72</ele>
        <time>2021-09-03T00:11:11.386Z</time>
      </trkpt>
      <trkpt lat="48.06452" lon="0.03258">
        <ele>135.72</ele>
        <time>2021-09-03T00:12:10.310Z</time>
      </trkpt>
      <trkpt lat="48.06537" lon="0.03147">
        <ele>136.98</ele>
        <time>2021-09-03T00:13:09.252Z</time>
      </trkpt>
      <trkpt lat="48.06537" lon="0.03147">
        <ele>136.98</ele>
        <time>2021-09-03T00:14:08.194Z</time>
      </trkpt>
      <trkpt lat="48.06551" lon="0.03137">
        <ele>136.98</ele>
        <time>2021-09-03T00:15:07.139Z</time>
      </trkpt>
      <trkpt lat="48.06551" lon="0.03137">
        <ele>136.98</ele>
        <time>2021-09-03T00:16:06.084Z</time>
      </trkpt>
      <trkpt lat="48.06565" lon="0.03134">
        <ele>136.98</ele>
        <time>2021-09-03T00:17:05.031Z</time>
      </trkpt>
      <trkpt lat="48.06565" lon="0.03134">
        <ele>136.98</ele>
        <time>2021-09-03T00:18:03.978Z</time>
      </trkpt>
      <trkpt lat="48.06578" lon="0.0314">
        <ele>136.98</ele>
        <time>2021-09-03T00:19:02.927Z</time>
      </trkpt>
      <trkpt lat="48.06578" lon="0.0314">
        <ele>136.98</ele>
        <time>2021-09-03T00:20:01.876Z</time>
      </trkpt>
      <trkpt lat="48.06592" lon="0.03159">
        <ele>136.98</ele>
        <time>2021-09-03T00:21:00.828Z</time>
      </trkpt>
      <trkpt lat="48.06592" lon="0.03159">
        <ele>136.98</ele>
        <time>2021-09-03T00:21:59.780Z</time>
      </trkpt>
      <trkpt lat="48.06621" lon="0.03184">
        <ele>136.98</ele>
        <time>2021-09-03T00:22:58.737Z</time>
      </trkpt>
    </trkseg>
  </trk>
</gpx>